<?xml version="1.0" encoding="UTF-8" standalone="no" ?>
<gpx xmlns="http://www.topografix.com/GPX/1/1" xmlns:xsi="http://www.w3.org/2001/XMLSchema-instance" xsi:schemaLocation="http://www.topografix.com/GPX/1/1 http://www.topografix.com/GPX/1/1/gpx.xsd" version="1.1" creator="VisuGPX - https://www.visugpx.com">
  <metadata>
    <name>Pampelonne sentier de Thuriès à las Planques</name>
    <desc><![CDATA[boucle dans les gorges du Viaur]]></desc>
  </metadata>
  <trk>
    <name><![CDATA[Viaur_2016-0504]]></name>
    <trkseg>
      <trkpt lat="44.12297" lon="2.24395">
        <ele>440.6</ele>
        <time>2016-05-04T11:58:39Z</time>
      </trkpt>
      <trkpt lat="44.12297" lon="2.24395">
        <ele>441</ele>
        <time>2016-05-04T11:58:40Z</time>
      </trkpt>
      <trkpt lat="44.12297" lon="2.24395">
        <ele>441.2</ele>
        <time>2016-05-04T11:58:41Z</time>
      </trkpt>
      <trkpt lat="44.12297" lon="2.24396">
        <ele>441.4</ele>
        <time>2016-05-04T11:58:42Z</time>
      </trkpt>
      <trkpt lat="44.12297" lon="2.24396">
        <ele>441.1</ele>
        <time>2016-05-04T11:58:43Z</time>
      </trkpt>
      <trkpt lat="44.12298" lon="2.24397">
        <ele>440.9</ele>
        <time>2016-05-04T11:58:44Z</time>
      </trkpt>
      <trkpt lat="44.12298" lon="2.24398">
        <ele>440.8</ele>
        <time>2016-05-04T11:58:45Z</time>
      </trkpt>
      <trkpt lat="44.12298" lon="2.24399">
        <ele>440.7</ele>
        <time>2016-05-04T11:58:46Z</time>
      </trkpt>
      <trkpt lat="44.12298" lon="2.24401">
        <ele>440.6</ele>
        <time>2016-05-04T11:58:47Z</time>
      </trkpt>
      <trkpt lat="44.12299" lon="2.24402">
        <ele>440.5</ele>
        <time>2016-05-04T11:58:48Z</time>
      </trkpt>
      <trkpt lat="44.12302" lon="2.24408">
        <ele>439.6</ele>
        <time>2016-05-04T11:58:53Z</time>
      </trkpt>
      <trkpt lat="44.12302" lon="2.2441">
        <ele>439.3</ele>
        <time>2016-05-04T11:58:54Z</time>
      </trkpt>
      <trkpt lat="44.12304" lon="2.24415">
        <ele>438.8</ele>
        <time>2016-05-04T11:58:58Z</time>
      </trkpt>
      <trkpt lat="44.12306" lon="2.24422">
        <ele>438.6</ele>
        <time>2016-05-04T11:59:03Z</time>
      </trkpt>
      <trkpt lat="44.12306" lon="2.24427">
        <ele>438.6</ele>
        <time>2016-05-04T11:59:07Z</time>
      </trkpt>
      <trkpt lat="44.12307" lon="2.24438">
        <ele>438.6</ele>
        <time>2016-05-04T11:59:17Z</time>
      </trkpt>
      <trkpt lat="44.12307" lon="2.24438">
        <ele>438.6</ele>
        <time>2016-05-04T11:59:18Z</time>
      </trkpt>
      <trkpt lat="44.12307" lon="2.24438">
        <ele>438.6</ele>
        <time>2016-05-04T11:59:19Z</time>
      </trkpt>
      <trkpt lat="44.12308" lon="2.24438">
        <ele>438.6</ele>
        <time>2016-05-04T11:59:20Z</time>
      </trkpt>
      <trkpt lat="44.12308" lon="2.2444">
        <ele>438.6</ele>
        <time>2016-05-04T11:59:21Z</time>
      </trkpt>
      <trkpt lat="44.12308" lon="2.24441">
        <ele>439</ele>
        <time>2016-05-04T11:59:22Z</time>
      </trkpt>
      <trkpt lat="44.12309" lon="2.24443">
        <ele>439.3</ele>
        <time>2016-05-04T11:59:23Z</time>
      </trkpt>
      <trkpt lat="44.1231" lon="2.2445">
        <ele>439.1</ele>
        <time>2016-05-04T11:59:26Z</time>
      </trkpt>
      <trkpt lat="44.12311" lon="2.24455">
        <ele>438.9</ele>
        <time>2016-05-04T11:59:28Z</time>
      </trkpt>
      <trkpt lat="44.12314" lon="2.24467">
        <ele>439.3</ele>
        <time>2016-05-04T11:59:35Z</time>
      </trkpt>
      <trkpt lat="44.12317" lon="2.24489">
        <ele>439.2</ele>
        <time>2016-05-04T11:59:46Z</time>
      </trkpt>
      <trkpt lat="44.12317" lon="2.24491">
        <ele>439.3</ele>
        <time>2016-05-04T11:59:47Z</time>
      </trkpt>
      <trkpt lat="44.1232" lon="2.24538">
        <ele>439.8</ele>
        <time>2016-05-04T12:00:14Z</time>
      </trkpt>
      <trkpt lat="44.1232" lon="2.24538">
        <ele>439.7</ele>
        <time>2016-05-04T12:00:15Z</time>
      </trkpt>
      <trkpt lat="44.1232" lon="2.24538">
        <ele>439.8</ele>
        <time>2016-05-04T12:00:16Z</time>
      </trkpt>
      <trkpt lat="44.12319" lon="2.24539">
        <ele>440</ele>
        <time>2016-05-04T12:00:17Z</time>
      </trkpt>
      <trkpt lat="44.12319" lon="2.24539">
        <ele>440</ele>
        <time>2016-05-04T12:00:18Z</time>
      </trkpt>
      <trkpt lat="44.12319" lon="2.24539">
        <ele>439.9</ele>
        <time>2016-05-04T12:00:19Z</time>
      </trkpt>
      <trkpt lat="44.12319" lon="2.24539">
        <ele>439.8</ele>
        <time>2016-05-04T12:00:20Z</time>
      </trkpt>
      <trkpt lat="44.12319" lon="2.2454">
        <ele>439.7</ele>
        <time>2016-05-04T12:00:21Z</time>
      </trkpt>
      <trkpt lat="44.1232" lon="2.24541">
        <ele>440.1</ele>
        <time>2016-05-04T12:00:22Z</time>
      </trkpt>
      <trkpt lat="44.1232" lon="2.24542">
        <ele>440.3</ele>
        <time>2016-05-04T12:00:23Z</time>
      </trkpt>
      <trkpt lat="44.12321" lon="2.24543">
        <ele>440.5</ele>
        <time>2016-05-04T12:00:24Z</time>
      </trkpt>
      <trkpt lat="44.12323" lon="2.24548">
        <ele>440.4</ele>
        <time>2016-05-04T12:00:27Z</time>
      </trkpt>
      <trkpt lat="44.12323" lon="2.2455">
        <ele>440.6</ele>
        <time>2016-05-04T12:00:28Z</time>
      </trkpt>
      <trkpt lat="44.12324" lon="2.24551">
        <ele>440.7</ele>
        <time>2016-05-04T12:00:29Z</time>
      </trkpt>
      <trkpt lat="44.12324" lon="2.24553">
        <ele>440.8</ele>
        <time>2016-05-04T12:00:30Z</time>
      </trkpt>
      <trkpt lat="44.12324" lon="2.24555">
        <ele>440.5</ele>
        <time>2016-05-04T12:00:31Z</time>
      </trkpt>
      <trkpt lat="44.12324" lon="2.24556">
        <ele>440.2</ele>
        <time>2016-05-04T12:00:32Z</time>
      </trkpt>
      <trkpt lat="44.12324" lon="2.24558">
        <ele>440</ele>
        <time>2016-05-04T12:00:33Z</time>
      </trkpt>
      <trkpt lat="44.12324" lon="2.2456">
        <ele>439.9</ele>
        <time>2016-05-04T12:00:34Z</time>
      </trkpt>
      <trkpt lat="44.12323" lon="2.24562">
        <ele>439.8</ele>
        <time>2016-05-04T12:00:35Z</time>
      </trkpt>
      <trkpt lat="44.12323" lon="2.24564">
        <ele>439.7</ele>
        <time>2016-05-04T12:00:36Z</time>
      </trkpt>
      <trkpt lat="44.12323" lon="2.24567">
        <ele>439.8</ele>
        <time>2016-05-04T12:00:37Z</time>
      </trkpt>
      <trkpt lat="44.12323" lon="2.24569">
        <ele>440</ele>
        <time>2016-05-04T12:00:38Z</time>
      </trkpt>
      <trkpt lat="44.12323" lon="2.24571">
        <ele>440</ele>
        <time>2016-05-04T12:00:39Z</time>
      </trkpt>
      <trkpt lat="44.12323" lon="2.24573">
        <ele>440.1</ele>
        <time>2016-05-04T12:00:40Z</time>
      </trkpt>
      <trkpt lat="44.12324" lon="2.24593">
        <ele>440.3</ele>
        <time>2016-05-04T12:00:50Z</time>
      </trkpt>
      <trkpt lat="44.12325" lon="2.24595">
        <ele>440.3</ele>
        <time>2016-05-04T12:00:51Z</time>
      </trkpt>
      <trkpt lat="44.12327" lon="2.24603">
        <ele>441</ele>
        <time>2016-05-04T12:00:56Z</time>
      </trkpt>
      <trkpt lat="44.12331" lon="2.24614">
        <ele>440.7</ele>
        <time>2016-05-04T12:01:03Z</time>
      </trkpt>
      <trkpt lat="44.12334" lon="2.2462">
        <ele>440.4</ele>
        <time>2016-05-04T12:01:07Z</time>
      </trkpt>
      <trkpt lat="44.1234" lon="2.24629">
        <ele>439.4</ele>
        <time>2016-05-04T12:01:14Z</time>
      </trkpt>
      <trkpt lat="44.12353" lon="2.24653">
        <ele>440.4</ele>
        <time>2016-05-04T12:01:31Z</time>
      </trkpt>
      <trkpt lat="44.12375" lon="2.24702">
        <ele>440.9</ele>
        <time>2016-05-04T12:02:04Z</time>
      </trkpt>
      <trkpt lat="44.12375" lon="2.24701">
        <ele>440.9</ele>
        <time>2016-05-04T12:02:05Z</time>
      </trkpt>
      <trkpt lat="44.12375" lon="2.24702">
        <ele>441</ele>
        <time>2016-05-04T12:02:06Z</time>
      </trkpt>
      <trkpt lat="44.12375" lon="2.24701">
        <ele>440.6</ele>
        <time>2016-05-04T12:02:07Z</time>
      </trkpt>
      <trkpt lat="44.12375" lon="2.24701">
        <ele>440.3</ele>
        <time>2016-05-04T12:02:08Z</time>
      </trkpt>
      <trkpt lat="44.12375" lon="2.24701">
        <ele>440.1</ele>
        <time>2016-05-04T12:02:09Z</time>
      </trkpt>
      <trkpt lat="44.12375" lon="2.24701">
        <ele>440.4</ele>
        <time>2016-05-04T12:02:10Z</time>
      </trkpt>
      <trkpt lat="44.12375" lon="2.24701">
        <ele>440.6</ele>
        <time>2016-05-04T12:02:11Z</time>
      </trkpt>
      <trkpt lat="44.12375" lon="2.24701">
        <ele>440.7</ele>
        <time>2016-05-04T12:02:12Z</time>
      </trkpt>
      <trkpt lat="44.12375" lon="2.24701">
        <ele>440.8</ele>
        <time>2016-05-04T12:02:13Z</time>
      </trkpt>
      <trkpt lat="44.12376" lon="2.24702">
        <ele>440.9</ele>
        <time>2016-05-04T12:02:14Z</time>
      </trkpt>
      <trkpt lat="44.12377" lon="2.24702">
        <ele>441</ele>
        <time>2016-05-04T12:02:15Z</time>
      </trkpt>
      <trkpt lat="44.12379" lon="2.24705">
        <ele>440.7</ele>
        <time>2016-05-04T12:02:17Z</time>
      </trkpt>
      <trkpt lat="44.12382" lon="2.24709">
        <ele>440.5</ele>
        <time>2016-05-04T12:02:20Z</time>
      </trkpt>
      <trkpt lat="44.12408" lon="2.24777">
        <ele>441</ele>
        <time>2016-05-04T12:03:02Z</time>
      </trkpt>
      <trkpt lat="44.12408" lon="2.24781">
        <ele>440.9</ele>
        <time>2016-05-04T12:03:04Z</time>
      </trkpt>
      <trkpt lat="44.12408" lon="2.24784">
        <ele>441</ele>
        <time>2016-05-04T12:03:06Z</time>
      </trkpt>
      <trkpt lat="44.12408" lon="2.24786">
        <ele>440.8</ele>
        <time>2016-05-04T12:03:07Z</time>
      </trkpt>
      <trkpt lat="44.12404" lon="2.24811">
        <ele>438.8</ele>
        <time>2016-05-04T12:03:22Z</time>
      </trkpt>
      <trkpt lat="44.12401" lon="2.24824">
        <ele>438.1</ele>
        <time>2016-05-04T12:03:29Z</time>
      </trkpt>
      <trkpt lat="44.12401" lon="2.24826">
        <ele>438</ele>
        <time>2016-05-04T12:03:30Z</time>
      </trkpt>
      <trkpt lat="44.12392" lon="2.24858">
        <ele>436.9</ele>
        <time>2016-05-04T12:03:47Z</time>
      </trkpt>
      <trkpt lat="44.12391" lon="2.24863">
        <ele>435.8</ele>
        <time>2016-05-04T12:03:50Z</time>
      </trkpt>
      <trkpt lat="44.12389" lon="2.2488">
        <ele>433.5</ele>
        <time>2016-05-04T12:04:00Z</time>
      </trkpt>
      <trkpt lat="44.12382" lon="2.24913">
        <ele>428.9</ele>
        <time>2016-05-04T12:04:19Z</time>
      </trkpt>
      <trkpt lat="44.12382" lon="2.24914">
        <ele>428.5</ele>
        <time>2016-05-04T12:04:20Z</time>
      </trkpt>
      <trkpt lat="44.12373" lon="2.24956">
        <ele>421.6</ele>
        <time>2016-05-04T12:04:47Z</time>
      </trkpt>
      <trkpt lat="44.12373" lon="2.24961">
        <ele>421</ele>
        <time>2016-05-04T12:04:50Z</time>
      </trkpt>
      <trkpt lat="44.12374" lon="2.24982">
        <ele>419</ele>
        <time>2016-05-04T12:05:02Z</time>
      </trkpt>
      <trkpt lat="44.12375" lon="2.24987">
        <ele>419.3</ele>
        <time>2016-05-04T12:05:05Z</time>
      </trkpt>
      <trkpt lat="44.12382" lon="2.25002">
        <ele>418.2</ele>
        <time>2016-05-04T12:05:15Z</time>
      </trkpt>
      <trkpt lat="44.12391" lon="2.2502">
        <ele>417.4</ele>
        <time>2016-05-04T12:05:26Z</time>
      </trkpt>
      <trkpt lat="44.12392" lon="2.25022">
        <ele>417.5</ele>
        <time>2016-05-04T12:05:27Z</time>
      </trkpt>
      <trkpt lat="44.12394" lon="2.25028">
        <ele>416.7</ele>
        <time>2016-05-04T12:05:31Z</time>
      </trkpt>
      <trkpt lat="44.12394" lon="2.25031">
        <ele>416.5</ele>
        <time>2016-05-04T12:05:33Z</time>
      </trkpt>
      <trkpt lat="44.12399" lon="2.25052">
        <ele>415.1</ele>
        <time>2016-05-04T12:05:45Z</time>
      </trkpt>
      <trkpt lat="44.12407" lon="2.25098">
        <ele>410.1</ele>
        <time>2016-05-04T12:06:14Z</time>
      </trkpt>
      <trkpt lat="44.12407" lon="2.25102">
        <ele>409.7</ele>
        <time>2016-05-04T12:06:17Z</time>
      </trkpt>
      <trkpt lat="44.12408" lon="2.2512">
        <ele>406.9</ele>
        <time>2016-05-04T12:06:28Z</time>
      </trkpt>
      <trkpt lat="44.12409" lon="2.25122">
        <ele>406.9</ele>
        <time>2016-05-04T12:06:29Z</time>
      </trkpt>
      <trkpt lat="44.12412" lon="2.25133">
        <ele>404.1</ele>
        <time>2016-05-04T12:06:41Z</time>
      </trkpt>
      <trkpt lat="44.12421" lon="2.25155">
        <ele>401.7</ele>
        <time>2016-05-04T12:06:59Z</time>
      </trkpt>
      <trkpt lat="44.12427" lon="2.25166">
        <ele>400</ele>
        <time>2016-05-04T12:07:06Z</time>
      </trkpt>
      <trkpt lat="44.12434" lon="2.25177">
        <ele>398.5</ele>
        <time>2016-05-04T12:07:14Z</time>
      </trkpt>
      <trkpt lat="44.12442" lon="2.25183">
        <ele>396.6</ele>
        <time>2016-05-04T12:07:20Z</time>
      </trkpt>
      <trkpt lat="44.12444" lon="2.25184">
        <ele>396.4</ele>
        <time>2016-05-04T12:07:21Z</time>
      </trkpt>
      <trkpt lat="44.12445" lon="2.25185">
        <ele>396</ele>
        <time>2016-05-04T12:07:22Z</time>
      </trkpt>
      <trkpt lat="44.12446" lon="2.25186">
        <ele>395.7</ele>
        <time>2016-05-04T12:07:23Z</time>
      </trkpt>
      <trkpt lat="44.12447" lon="2.25187">
        <ele>395.5</ele>
        <time>2016-05-04T12:07:24Z</time>
      </trkpt>
      <trkpt lat="44.12449" lon="2.25187">
        <ele>395.5</ele>
        <time>2016-05-04T12:07:25Z</time>
      </trkpt>
      <trkpt lat="44.1245" lon="2.25188">
        <ele>395.5</ele>
        <time>2016-05-04T12:07:26Z</time>
      </trkpt>
      <trkpt lat="44.12451" lon="2.25189">
        <ele>395.6</ele>
        <time>2016-05-04T12:07:27Z</time>
      </trkpt>
      <trkpt lat="44.12452" lon="2.2519">
        <ele>395.4</ele>
        <time>2016-05-04T12:07:28Z</time>
      </trkpt>
      <trkpt lat="44.12453" lon="2.2519">
        <ele>395.2</ele>
        <time>2016-05-04T12:07:29Z</time>
      </trkpt>
      <trkpt lat="44.12454" lon="2.25191">
        <ele>395.1</ele>
        <time>2016-05-04T12:07:30Z</time>
      </trkpt>
      <trkpt lat="44.12455" lon="2.25192">
        <ele>394.6</ele>
        <time>2016-05-04T12:07:31Z</time>
      </trkpt>
      <trkpt lat="44.12456" lon="2.25193">
        <ele>394.2</ele>
        <time>2016-05-04T12:07:32Z</time>
      </trkpt>
      <trkpt lat="44.12473" lon="2.25209">
        <ele>390.6</ele>
        <time>2016-05-04T12:07:53Z</time>
      </trkpt>
      <trkpt lat="44.12473" lon="2.25211">
        <ele>390.6</ele>
        <time>2016-05-04T12:07:54Z</time>
      </trkpt>
      <trkpt lat="44.12474" lon="2.25212">
        <ele>390.2</ele>
        <time>2016-05-04T12:07:55Z</time>
      </trkpt>
      <trkpt lat="44.12474" lon="2.25213">
        <ele>389.8</ele>
        <time>2016-05-04T12:07:56Z</time>
      </trkpt>
      <trkpt lat="44.12474" lon="2.25214">
        <ele>389.6</ele>
        <time>2016-05-04T12:07:57Z</time>
      </trkpt>
      <trkpt lat="44.12474" lon="2.25215">
        <ele>389.2</ele>
        <time>2016-05-04T12:07:58Z</time>
      </trkpt>
      <trkpt lat="44.12475" lon="2.25216">
        <ele>388.9</ele>
        <time>2016-05-04T12:07:59Z</time>
      </trkpt>
      <trkpt lat="44.12476" lon="2.25218">
        <ele>388.3</ele>
        <time>2016-05-04T12:08:02Z</time>
      </trkpt>
      <trkpt lat="44.12479" lon="2.25227">
        <ele>384.8</ele>
        <time>2016-05-04T12:08:11Z</time>
      </trkpt>
      <trkpt lat="44.12479" lon="2.25233">
        <ele>383.5</ele>
        <time>2016-05-04T12:08:15Z</time>
      </trkpt>
      <trkpt lat="44.12479" lon="2.25234">
        <ele>383.6</ele>
        <time>2016-05-04T12:08:16Z</time>
      </trkpt>
      <trkpt lat="44.12478" lon="2.25235">
        <ele>383.6</ele>
        <time>2016-05-04T12:08:17Z</time>
      </trkpt>
      <trkpt lat="44.12478" lon="2.25237">
        <ele>383.6</ele>
        <time>2016-05-04T12:08:18Z</time>
      </trkpt>
      <trkpt lat="44.12478" lon="2.25238">
        <ele>383.4</ele>
        <time>2016-05-04T12:08:19Z</time>
      </trkpt>
      <trkpt lat="44.12477" lon="2.25239">
        <ele>383.3</ele>
        <time>2016-05-04T12:08:20Z</time>
      </trkpt>
      <trkpt lat="44.12476" lon="2.25241">
        <ele>383.1</ele>
        <time>2016-05-04T12:08:21Z</time>
      </trkpt>
      <trkpt lat="44.12476" lon="2.25242">
        <ele>382.9</ele>
        <time>2016-05-04T12:08:22Z</time>
      </trkpt>
      <trkpt lat="44.12475" lon="2.25243">
        <ele>382.6</ele>
        <time>2016-05-04T12:08:23Z</time>
      </trkpt>
      <trkpt lat="44.12474" lon="2.25245">
        <ele>382.5</ele>
        <time>2016-05-04T12:08:24Z</time>
      </trkpt>
      <trkpt lat="44.12474" lon="2.25246">
        <ele>382.1</ele>
        <time>2016-05-04T12:08:25Z</time>
      </trkpt>
      <trkpt lat="44.12473" lon="2.25247">
        <ele>381.9</ele>
        <time>2016-05-04T12:08:26Z</time>
      </trkpt>
      <trkpt lat="44.12472" lon="2.25248">
        <ele>381.7</ele>
        <time>2016-05-04T12:08:27Z</time>
      </trkpt>
      <trkpt lat="44.12472" lon="2.25249">
        <ele>381.5</ele>
        <time>2016-05-04T12:08:28Z</time>
      </trkpt>
      <trkpt lat="44.12471" lon="2.25251">
        <ele>381.4</ele>
        <time>2016-05-04T12:08:29Z</time>
      </trkpt>
      <trkpt lat="44.1247" lon="2.25252">
        <ele>381.3</ele>
        <time>2016-05-04T12:08:30Z</time>
      </trkpt>
      <trkpt lat="44.1247" lon="2.25253">
        <ele>381.1</ele>
        <time>2016-05-04T12:08:31Z</time>
      </trkpt>
      <trkpt lat="44.12468" lon="2.25256">
        <ele>380.2</ele>
        <time>2016-05-04T12:08:34Z</time>
      </trkpt>
      <trkpt lat="44.12468" lon="2.25257">
        <ele>379.8</ele>
        <time>2016-05-04T12:08:35Z</time>
      </trkpt>
      <trkpt lat="44.12467" lon="2.25258">
        <ele>379.5</ele>
        <time>2016-05-04T12:08:36Z</time>
      </trkpt>
      <trkpt lat="44.12466" lon="2.25259">
        <ele>379.2</ele>
        <time>2016-05-04T12:08:37Z</time>
      </trkpt>
      <trkpt lat="44.12466" lon="2.2526">
        <ele>379.1</ele>
        <time>2016-05-04T12:08:38Z</time>
      </trkpt>
      <trkpt lat="44.12465" lon="2.2526">
        <ele>378.9</ele>
        <time>2016-05-04T12:08:39Z</time>
      </trkpt>
      <trkpt lat="44.12464" lon="2.25262">
        <ele>378.6</ele>
        <time>2016-05-04T12:08:40Z</time>
      </trkpt>
      <trkpt lat="44.12463" lon="2.25263">
        <ele>378.4</ele>
        <time>2016-05-04T12:08:41Z</time>
      </trkpt>
      <trkpt lat="44.12462" lon="2.25264">
        <ele>378.2</ele>
        <time>2016-05-04T12:08:42Z</time>
      </trkpt>
      <trkpt lat="44.12461" lon="2.25265">
        <ele>378.1</ele>
        <time>2016-05-04T12:08:43Z</time>
      </trkpt>
      <trkpt lat="44.1246" lon="2.25266">
        <ele>378</ele>
        <time>2016-05-04T12:08:44Z</time>
      </trkpt>
      <trkpt lat="44.1246" lon="2.25268">
        <ele>377.9</ele>
        <time>2016-05-04T12:08:45Z</time>
      </trkpt>
      <trkpt lat="44.12459" lon="2.25269">
        <ele>377.8</ele>
        <time>2016-05-04T12:08:46Z</time>
      </trkpt>
      <trkpt lat="44.12458" lon="2.2527">
        <ele>377.8</ele>
        <time>2016-05-04T12:08:47Z</time>
      </trkpt>
      <trkpt lat="44.12457" lon="2.25271">
        <ele>377.8</ele>
        <time>2016-05-04T12:08:48Z</time>
      </trkpt>
      <trkpt lat="44.12457" lon="2.25272">
        <ele>377.5</ele>
        <time>2016-05-04T12:08:49Z</time>
      </trkpt>
      <trkpt lat="44.12456" lon="2.25273">
        <ele>377.4</ele>
        <time>2016-05-04T12:08:50Z</time>
      </trkpt>
      <trkpt lat="44.12456" lon="2.25274">
        <ele>377.2</ele>
        <time>2016-05-04T12:08:51Z</time>
      </trkpt>
      <trkpt lat="44.12455" lon="2.25275">
        <ele>376.9</ele>
        <time>2016-05-04T12:08:52Z</time>
      </trkpt>
      <trkpt lat="44.12452" lon="2.25283">
        <ele>374.6</ele>
        <time>2016-05-04T12:08:58Z</time>
      </trkpt>
      <trkpt lat="44.12452" lon="2.25289">
        <ele>374.8</ele>
        <time>2016-05-04T12:09:01Z</time>
      </trkpt>
      <trkpt lat="44.12453" lon="2.25292">
        <ele>375.1</ele>
        <time>2016-05-04T12:09:02Z</time>
      </trkpt>
      <trkpt lat="44.12453" lon="2.25294">
        <ele>375.3</ele>
        <time>2016-05-04T12:09:03Z</time>
      </trkpt>
      <trkpt lat="44.12454" lon="2.25295">
        <ele>375.9</ele>
        <time>2016-05-04T12:09:04Z</time>
      </trkpt>
      <trkpt lat="44.12454" lon="2.25296">
        <ele>376.4</ele>
        <time>2016-05-04T12:09:05Z</time>
      </trkpt>
      <trkpt lat="44.12455" lon="2.25296">
        <ele>376.7</ele>
        <time>2016-05-04T12:09:06Z</time>
      </trkpt>
      <trkpt lat="44.12455" lon="2.25296">
        <ele>376.7</ele>
        <time>2016-05-04T12:09:07Z</time>
      </trkpt>
      <trkpt lat="44.12455" lon="2.25296">
        <ele>376.8</ele>
        <time>2016-05-04T12:09:08Z</time>
      </trkpt>
      <trkpt lat="44.12455" lon="2.25296">
        <ele>376.8</ele>
        <time>2016-05-04T12:09:09Z</time>
      </trkpt>
      <trkpt lat="44.12455" lon="2.25295">
        <ele>376.6</ele>
        <time>2016-05-04T12:09:10Z</time>
      </trkpt>
      <trkpt lat="44.12455" lon="2.25294">
        <ele>376.4</ele>
        <time>2016-05-04T12:09:11Z</time>
      </trkpt>
      <trkpt lat="44.12455" lon="2.25294">
        <ele>376.3</ele>
        <time>2016-05-04T12:09:12Z</time>
      </trkpt>
      <trkpt lat="44.12455" lon="2.25293">
        <ele>376.2</ele>
        <time>2016-05-04T12:09:13Z</time>
      </trkpt>
      <trkpt lat="44.12455" lon="2.25292">
        <ele>376.2</ele>
        <time>2016-05-04T12:09:14Z</time>
      </trkpt>
      <trkpt lat="44.12456" lon="2.25291">
        <ele>376.1</ele>
        <time>2016-05-04T12:09:15Z</time>
      </trkpt>
      <trkpt lat="44.12456" lon="2.25291">
        <ele>376.1</ele>
        <time>2016-05-04T12:09:16Z</time>
      </trkpt>
      <trkpt lat="44.12456" lon="2.2529">
        <ele>376.1</ele>
        <time>2016-05-04T12:09:17Z</time>
      </trkpt>
      <trkpt lat="44.12456" lon="2.2529">
        <ele>376</ele>
        <time>2016-05-04T12:09:18Z</time>
      </trkpt>
      <trkpt lat="44.12456" lon="2.25289">
        <ele>375.8</ele>
        <time>2016-05-04T12:09:19Z</time>
      </trkpt>
      <trkpt lat="44.12456" lon="2.25289">
        <ele>375.6</ele>
        <time>2016-05-04T12:09:20Z</time>
      </trkpt>
      <trkpt lat="44.12456" lon="2.25288">
        <ele>375.5</ele>
        <time>2016-05-04T12:09:21Z</time>
      </trkpt>
      <trkpt lat="44.12456" lon="2.25288">
        <ele>374.8</ele>
        <time>2016-05-04T12:09:22Z</time>
      </trkpt>
      <trkpt lat="44.12456" lon="2.25288">
        <ele>374.2</ele>
        <time>2016-05-04T12:09:23Z</time>
      </trkpt>
      <trkpt lat="44.12456" lon="2.25288">
        <ele>373.8</ele>
        <time>2016-05-04T12:09:24Z</time>
      </trkpt>
      <trkpt lat="44.12456" lon="2.25287">
        <ele>374.8</ele>
        <time>2016-05-04T12:09:25Z</time>
      </trkpt>
      <trkpt lat="44.12456" lon="2.25287">
        <ele>375.5</ele>
        <time>2016-05-04T12:09:26Z</time>
      </trkpt>
      <trkpt lat="44.12456" lon="2.25287">
        <ele>376</ele>
        <time>2016-05-04T12:09:27Z</time>
      </trkpt>
      <trkpt lat="44.12456" lon="2.25287">
        <ele>375.8</ele>
        <time>2016-05-04T12:09:28Z</time>
      </trkpt>
      <trkpt lat="44.12456" lon="2.25287">
        <ele>375.6</ele>
        <time>2016-05-04T12:09:29Z</time>
      </trkpt>
      <trkpt lat="44.12455" lon="2.25286">
        <ele>375.5</ele>
        <time>2016-05-04T12:09:30Z</time>
      </trkpt>
      <trkpt lat="44.12456" lon="2.25286">
        <ele>375.4</ele>
        <time>2016-05-04T12:09:31Z</time>
      </trkpt>
      <trkpt lat="44.12456" lon="2.25287">
        <ele>375.3</ele>
        <time>2016-05-04T12:09:32Z</time>
      </trkpt>
      <trkpt lat="44.12456" lon="2.25287">
        <ele>375.3</ele>
        <time>2016-05-04T12:09:33Z</time>
      </trkpt>
      <trkpt lat="44.12456" lon="2.25287">
        <ele>375</ele>
        <time>2016-05-04T12:09:34Z</time>
      </trkpt>
      <trkpt lat="44.12456" lon="2.25287">
        <ele>374.8</ele>
        <time>2016-05-04T12:09:35Z</time>
      </trkpt>
      <trkpt lat="44.12457" lon="2.25287">
        <ele>374.7</ele>
        <time>2016-05-04T12:09:36Z</time>
      </trkpt>
      <trkpt lat="44.12457" lon="2.25288">
        <ele>374.8</ele>
        <time>2016-05-04T12:09:37Z</time>
      </trkpt>
      <trkpt lat="44.12457" lon="2.25288">
        <ele>374.9</ele>
        <time>2016-05-04T12:09:38Z</time>
      </trkpt>
      <trkpt lat="44.12458" lon="2.25288">
        <ele>374.9</ele>
        <time>2016-05-04T12:09:39Z</time>
      </trkpt>
      <trkpt lat="44.12458" lon="2.25288">
        <ele>375</ele>
        <time>2016-05-04T12:09:40Z</time>
      </trkpt>
      <trkpt lat="44.12459" lon="2.25288">
        <ele>375</ele>
        <time>2016-05-04T12:09:41Z</time>
      </trkpt>
      <trkpt lat="44.12459" lon="2.25288">
        <ele>375</ele>
        <time>2016-05-04T12:09:42Z</time>
      </trkpt>
      <trkpt lat="44.12459" lon="2.25289">
        <ele>374.8</ele>
        <time>2016-05-04T12:09:43Z</time>
      </trkpt>
      <trkpt lat="44.1246" lon="2.25289">
        <ele>374.7</ele>
        <time>2016-05-04T12:09:44Z</time>
      </trkpt>
      <trkpt lat="44.1246" lon="2.25289">
        <ele>374.6</ele>
        <time>2016-05-04T12:09:45Z</time>
      </trkpt>
      <trkpt lat="44.12461" lon="2.2529">
        <ele>374.9</ele>
        <time>2016-05-04T12:09:46Z</time>
      </trkpt>
      <trkpt lat="44.12461" lon="2.25292">
        <ele>375.2</ele>
        <time>2016-05-04T12:09:47Z</time>
      </trkpt>
      <trkpt lat="44.12462" lon="2.25293">
        <ele>375.4</ele>
        <time>2016-05-04T12:09:48Z</time>
      </trkpt>
      <trkpt lat="44.12463" lon="2.25295">
        <ele>374.9</ele>
        <time>2016-05-04T12:09:49Z</time>
      </trkpt>
      <trkpt lat="44.12463" lon="2.25296">
        <ele>374.5</ele>
        <time>2016-05-04T12:09:50Z</time>
      </trkpt>
      <trkpt lat="44.12464" lon="2.25298">
        <ele>374.2</ele>
        <time>2016-05-04T12:09:51Z</time>
      </trkpt>
      <trkpt lat="44.12465" lon="2.25299">
        <ele>374.9</ele>
        <time>2016-05-04T12:09:52Z</time>
      </trkpt>
      <trkpt lat="44.12466" lon="2.253">
        <ele>375.4</ele>
        <time>2016-05-04T12:09:53Z</time>
      </trkpt>
      <trkpt lat="44.12466" lon="2.25301">
        <ele>375.7</ele>
        <time>2016-05-04T12:09:54Z</time>
      </trkpt>
      <trkpt lat="44.12467" lon="2.25302">
        <ele>376</ele>
        <time>2016-05-04T12:09:55Z</time>
      </trkpt>
      <trkpt lat="44.12467" lon="2.25304">
        <ele>376.2</ele>
        <time>2016-05-04T12:09:56Z</time>
      </trkpt>
      <trkpt lat="44.12468" lon="2.25306">
        <ele>376.5</ele>
        <time>2016-05-04T12:09:58Z</time>
      </trkpt>
      <trkpt lat="44.12471" lon="2.25311">
        <ele>370</ele>
        <time>2016-05-04T12:10:02Z</time>
      </trkpt>
      <trkpt lat="44.12472" lon="2.25315">
        <ele>376.3</ele>
        <time>2016-05-04T12:10:07Z</time>
      </trkpt>
      <trkpt lat="44.12484" lon="2.25373">
        <ele>371</ele>
        <time>2016-05-04T12:10:45Z</time>
      </trkpt>
      <trkpt lat="44.12484" lon="2.25374">
        <ele>370.5</ele>
        <time>2016-05-04T12:10:46Z</time>
      </trkpt>
      <trkpt lat="44.12483" lon="2.25378">
        <ele>370.1</ele>
        <time>2016-05-04T12:10:49Z</time>
      </trkpt>
      <trkpt lat="44.12483" lon="2.2538">
        <ele>370.3</ele>
        <time>2016-05-04T12:10:50Z</time>
      </trkpt>
      <trkpt lat="44.12483" lon="2.25381">
        <ele>370.4</ele>
        <time>2016-05-04T12:10:51Z</time>
      </trkpt>
      <trkpt lat="44.12483" lon="2.25383">
        <ele>369.7</ele>
        <time>2016-05-04T12:10:52Z</time>
      </trkpt>
      <trkpt lat="44.12483" lon="2.25384">
        <ele>369.1</ele>
        <time>2016-05-04T12:10:53Z</time>
      </trkpt>
      <trkpt lat="44.12481" lon="2.25394">
        <ele>365.3</ele>
        <time>2016-05-04T12:11:00Z</time>
      </trkpt>
      <trkpt lat="44.12481" lon="2.25394">
        <ele>365.6</ele>
        <time>2016-05-04T12:11:01Z</time>
      </trkpt>
      <trkpt lat="44.12481" lon="2.25394">
        <ele>365.8</ele>
        <time>2016-05-04T12:11:02Z</time>
      </trkpt>
      <trkpt lat="44.12481" lon="2.25395">
        <ele>366</ele>
        <time>2016-05-04T12:11:03Z</time>
      </trkpt>
      <trkpt lat="44.12481" lon="2.25395">
        <ele>365.9</ele>
        <time>2016-05-04T12:11:04Z</time>
      </trkpt>
      <trkpt lat="44.12481" lon="2.25395">
        <ele>365.9</ele>
        <time>2016-05-04T12:11:05Z</time>
      </trkpt>
      <trkpt lat="44.12481" lon="2.25396">
        <ele>365.8</ele>
        <time>2016-05-04T12:11:06Z</time>
      </trkpt>
      <trkpt lat="44.12481" lon="2.25396">
        <ele>365.8</ele>
        <time>2016-05-04T12:11:07Z</time>
      </trkpt>
      <trkpt lat="44.12481" lon="2.25396">
        <ele>365.8</ele>
        <time>2016-05-04T12:11:08Z</time>
      </trkpt>
      <trkpt lat="44.12481" lon="2.25397">
        <ele>365.8</ele>
        <time>2016-05-04T12:11:09Z</time>
      </trkpt>
      <trkpt lat="44.12481" lon="2.25397">
        <ele>367</ele>
        <time>2016-05-04T12:11:10Z</time>
      </trkpt>
      <trkpt lat="44.12481" lon="2.25397">
        <ele>368</ele>
        <time>2016-05-04T12:11:11Z</time>
      </trkpt>
      <trkpt lat="44.12481" lon="2.25397">
        <ele>368.7</ele>
        <time>2016-05-04T12:11:12Z</time>
      </trkpt>
      <trkpt lat="44.12481" lon="2.25397">
        <ele>368.6</ele>
        <time>2016-05-04T12:11:13Z</time>
      </trkpt>
      <trkpt lat="44.12481" lon="2.25397">
        <ele>368.5</ele>
        <time>2016-05-04T12:11:14Z</time>
      </trkpt>
      <trkpt lat="44.12481" lon="2.25398">
        <ele>368.5</ele>
        <time>2016-05-04T12:11:15Z</time>
      </trkpt>
      <trkpt lat="44.12481" lon="2.25398">
        <ele>368.4</ele>
        <time>2016-05-04T12:11:16Z</time>
      </trkpt>
      <trkpt lat="44.12481" lon="2.25399">
        <ele>368.4</ele>
        <time>2016-05-04T12:11:17Z</time>
      </trkpt>
      <trkpt lat="44.1248" lon="2.254">
        <ele>368.4</ele>
        <time>2016-05-04T12:11:18Z</time>
      </trkpt>
      <trkpt lat="44.1248" lon="2.254">
        <ele>368.3</ele>
        <time>2016-05-04T12:11:19Z</time>
      </trkpt>
      <trkpt lat="44.1248" lon="2.25401">
        <ele>368.3</ele>
        <time>2016-05-04T12:11:20Z</time>
      </trkpt>
      <trkpt lat="44.12479" lon="2.25402">
        <ele>368.3</ele>
        <time>2016-05-04T12:11:21Z</time>
      </trkpt>
      <trkpt lat="44.12479" lon="2.25403">
        <ele>368.1</ele>
        <time>2016-05-04T12:11:22Z</time>
      </trkpt>
      <trkpt lat="44.12478" lon="2.25404">
        <ele>367.9</ele>
        <time>2016-05-04T12:11:23Z</time>
      </trkpt>
      <trkpt lat="44.12478" lon="2.25405">
        <ele>367.8</ele>
        <time>2016-05-04T12:11:24Z</time>
      </trkpt>
      <trkpt lat="44.12478" lon="2.25406">
        <ele>367.5</ele>
        <time>2016-05-04T12:11:25Z</time>
      </trkpt>
      <trkpt lat="44.12477" lon="2.25406">
        <ele>367.3</ele>
        <time>2016-05-04T12:11:26Z</time>
      </trkpt>
      <trkpt lat="44.12477" lon="2.25407">
        <ele>367.1</ele>
        <time>2016-05-04T12:11:27Z</time>
      </trkpt>
      <trkpt lat="44.12477" lon="2.25408">
        <ele>366.5</ele>
        <time>2016-05-04T12:11:28Z</time>
      </trkpt>
      <trkpt lat="44.12477" lon="2.25409">
        <ele>366.1</ele>
        <time>2016-05-04T12:11:29Z</time>
      </trkpt>
      <trkpt lat="44.12476" lon="2.25409">
        <ele>365.8</ele>
        <time>2016-05-04T12:11:30Z</time>
      </trkpt>
      <trkpt lat="44.12476" lon="2.2541">
        <ele>366.4</ele>
        <time>2016-05-04T12:11:31Z</time>
      </trkpt>
      <trkpt lat="44.12476" lon="2.2541">
        <ele>366.9</ele>
        <time>2016-05-04T12:11:32Z</time>
      </trkpt>
      <trkpt lat="44.12476" lon="2.2541">
        <ele>367.2</ele>
        <time>2016-05-04T12:11:33Z</time>
      </trkpt>
      <trkpt lat="44.12476" lon="2.25411">
        <ele>367.5</ele>
        <time>2016-05-04T12:11:34Z</time>
      </trkpt>
      <trkpt lat="44.12476" lon="2.25411">
        <ele>367.7</ele>
        <time>2016-05-04T12:11:35Z</time>
      </trkpt>
      <trkpt lat="44.12475" lon="2.25411">
        <ele>367.8</ele>
        <time>2016-05-04T12:11:36Z</time>
      </trkpt>
      <trkpt lat="44.12475" lon="2.25411">
        <ele>363.3</ele>
        <time>2016-05-04T12:11:37Z</time>
      </trkpt>
      <trkpt lat="44.12475" lon="2.25411">
        <ele>359.8</ele>
        <time>2016-05-04T12:11:38Z</time>
      </trkpt>
      <trkpt lat="44.12475" lon="2.25412">
        <ele>357.2</ele>
        <time>2016-05-04T12:11:39Z</time>
      </trkpt>
      <trkpt lat="44.12476" lon="2.25412">
        <ele>360.6</ele>
        <time>2016-05-04T12:11:40Z</time>
      </trkpt>
      <trkpt lat="44.12476" lon="2.25414">
        <ele>363.2</ele>
        <time>2016-05-04T12:11:41Z</time>
      </trkpt>
      <trkpt lat="44.12476" lon="2.25415">
        <ele>365.1</ele>
        <time>2016-05-04T12:11:42Z</time>
      </trkpt>
      <trkpt lat="44.12476" lon="2.25417">
        <ele>366.1</ele>
        <time>2016-05-04T12:11:43Z</time>
      </trkpt>
      <trkpt lat="44.12478" lon="2.25428">
        <ele>367.7</ele>
        <time>2016-05-04T12:11:49Z</time>
      </trkpt>
      <trkpt lat="44.12478" lon="2.25429">
        <ele>367.2</ele>
        <time>2016-05-04T12:11:50Z</time>
      </trkpt>
      <trkpt lat="44.12486" lon="2.25449">
        <ele>363.9</ele>
        <time>2016-05-04T12:12:05Z</time>
      </trkpt>
      <trkpt lat="44.12486" lon="2.2545">
        <ele>363.9</ele>
        <time>2016-05-04T12:12:06Z</time>
      </trkpt>
      <trkpt lat="44.12487" lon="2.25451">
        <ele>363.1</ele>
        <time>2016-05-04T12:12:07Z</time>
      </trkpt>
      <trkpt lat="44.12487" lon="2.25453">
        <ele>362.5</ele>
        <time>2016-05-04T12:12:08Z</time>
      </trkpt>
      <trkpt lat="44.12497" lon="2.25476">
        <ele>362.7</ele>
        <time>2016-05-04T12:12:28Z</time>
      </trkpt>
      <trkpt lat="44.12497" lon="2.25477">
        <ele>361.3</ele>
        <time>2016-05-04T12:12:29Z</time>
      </trkpt>
      <trkpt lat="44.12497" lon="2.2548">
        <ele>360.6</ele>
        <time>2016-05-04T12:12:31Z</time>
      </trkpt>
      <trkpt lat="44.12496" lon="2.25483">
        <ele>361</ele>
        <time>2016-05-04T12:12:33Z</time>
      </trkpt>
      <trkpt lat="44.12491" lon="2.25498">
        <ele>363.1</ele>
        <time>2016-05-04T12:12:43Z</time>
      </trkpt>
      <trkpt lat="44.12482" lon="2.25522">
        <ele>363</ele>
        <time>2016-05-04T12:12:58Z</time>
      </trkpt>
      <trkpt lat="44.12482" lon="2.25524">
        <ele>363.3</ele>
        <time>2016-05-04T12:12:59Z</time>
      </trkpt>
      <trkpt lat="44.12482" lon="2.25528">
        <ele>360.2</ele>
        <time>2016-05-04T12:13:01Z</time>
      </trkpt>
      <trkpt lat="44.12483" lon="2.25531">
        <ele>355.9</ele>
        <time>2016-05-04T12:13:03Z</time>
      </trkpt>
      <trkpt lat="44.12485" lon="2.25535">
        <ele>359.6</ele>
        <time>2016-05-04T12:13:06Z</time>
      </trkpt>
      <trkpt lat="44.12488" lon="2.25541">
        <ele>360.8</ele>
        <time>2016-05-04T12:13:10Z</time>
      </trkpt>
      <trkpt lat="44.12491" lon="2.25542">
        <ele>360.8</ele>
        <time>2016-05-04T12:13:13Z</time>
      </trkpt>
      <trkpt lat="44.12495" lon="2.25544">
        <ele>361.5</ele>
        <time>2016-05-04T12:13:19Z</time>
      </trkpt>
      <trkpt lat="44.12495" lon="2.25544">
        <ele>361.5</ele>
        <time>2016-05-04T12:13:20Z</time>
      </trkpt>
      <trkpt lat="44.12495" lon="2.25544">
        <ele>361.5</ele>
        <time>2016-05-04T12:13:21Z</time>
      </trkpt>
      <trkpt lat="44.12495" lon="2.25544">
        <ele>361.2</ele>
        <time>2016-05-04T12:13:22Z</time>
      </trkpt>
      <trkpt lat="44.12495" lon="2.25544">
        <ele>361.1</ele>
        <time>2016-05-04T12:13:23Z</time>
      </trkpt>
      <trkpt lat="44.12495" lon="2.25544">
        <ele>361</ele>
        <time>2016-05-04T12:13:24Z</time>
      </trkpt>
      <trkpt lat="44.12495" lon="2.25544">
        <ele>360.9</ele>
        <time>2016-05-04T12:13:25Z</time>
      </trkpt>
      <trkpt lat="44.12495" lon="2.25544">
        <ele>360.8</ele>
        <time>2016-05-04T12:13:26Z</time>
      </trkpt>
      <trkpt lat="44.12495" lon="2.25544">
        <ele>360.7</ele>
        <time>2016-05-04T12:13:27Z</time>
      </trkpt>
      <trkpt lat="44.12495" lon="2.25544">
        <ele>360.3</ele>
        <time>2016-05-04T12:13:28Z</time>
      </trkpt>
      <trkpt lat="44.12495" lon="2.25544">
        <ele>359.9</ele>
        <time>2016-05-04T12:13:29Z</time>
      </trkpt>
      <trkpt lat="44.12494" lon="2.25546">
        <ele>359.2</ele>
        <time>2016-05-04T12:13:43Z</time>
      </trkpt>
      <trkpt lat="44.12494" lon="2.25546">
        <ele>359.1</ele>
        <time>2016-05-04T12:13:44Z</time>
      </trkpt>
      <trkpt lat="44.12494" lon="2.25546">
        <ele>359.1</ele>
        <time>2016-05-04T12:13:45Z</time>
      </trkpt>
      <trkpt lat="44.12494" lon="2.25549">
        <ele>360.5</ele>
        <time>2016-05-04T12:13:47Z</time>
      </trkpt>
      <trkpt lat="44.12495" lon="2.2555">
        <ele>360.9</ele>
        <time>2016-05-04T12:13:48Z</time>
      </trkpt>
      <trkpt lat="44.12495" lon="2.25551">
        <ele>356.8</ele>
        <time>2016-05-04T12:13:49Z</time>
      </trkpt>
      <trkpt lat="44.12496" lon="2.25553">
        <ele>353.7</ele>
        <time>2016-05-04T12:13:50Z</time>
      </trkpt>
      <trkpt lat="44.12496" lon="2.25553">
        <ele>351.4</ele>
        <time>2016-05-04T12:13:51Z</time>
      </trkpt>
      <trkpt lat="44.12497" lon="2.25554">
        <ele>354.7</ele>
        <time>2016-05-04T12:13:52Z</time>
      </trkpt>
      <trkpt lat="44.12497" lon="2.25555">
        <ele>357.3</ele>
        <time>2016-05-04T12:13:53Z</time>
      </trkpt>
      <trkpt lat="44.12498" lon="2.25555">
        <ele>359.2</ele>
        <time>2016-05-04T12:13:54Z</time>
      </trkpt>
      <trkpt lat="44.12498" lon="2.25556">
        <ele>361</ele>
        <time>2016-05-04T12:13:55Z</time>
      </trkpt>
      <trkpt lat="44.12498" lon="2.25556">
        <ele>362.4</ele>
        <time>2016-05-04T12:13:56Z</time>
      </trkpt>
      <trkpt lat="44.12498" lon="2.25556">
        <ele>363.4</ele>
        <time>2016-05-04T12:13:57Z</time>
      </trkpt>
      <trkpt lat="44.12498" lon="2.25556">
        <ele>364.2</ele>
        <time>2016-05-04T12:13:58Z</time>
      </trkpt>
      <trkpt lat="44.12497" lon="2.25556">
        <ele>364.8</ele>
        <time>2016-05-04T12:13:59Z</time>
      </trkpt>
      <trkpt lat="44.12497" lon="2.25556">
        <ele>365.3</ele>
        <time>2016-05-04T12:14:00Z</time>
      </trkpt>
      <trkpt lat="44.12497" lon="2.25556">
        <ele>365.4</ele>
        <time>2016-05-04T12:14:01Z</time>
      </trkpt>
      <trkpt lat="44.12496" lon="2.25556">
        <ele>365.5</ele>
        <time>2016-05-04T12:14:02Z</time>
      </trkpt>
      <trkpt lat="44.12496" lon="2.25556">
        <ele>365.5</ele>
        <time>2016-05-04T12:14:03Z</time>
      </trkpt>
      <trkpt lat="44.12496" lon="2.25556">
        <ele>366.4</ele>
        <time>2016-05-04T12:14:04Z</time>
      </trkpt>
      <trkpt lat="44.12495" lon="2.25556">
        <ele>367.1</ele>
        <time>2016-05-04T12:14:05Z</time>
      </trkpt>
      <trkpt lat="44.12495" lon="2.25556">
        <ele>367.6</ele>
        <time>2016-05-04T12:14:06Z</time>
      </trkpt>
      <trkpt lat="44.12494" lon="2.25556">
        <ele>366</ele>
        <time>2016-05-04T12:14:08Z</time>
      </trkpt>
      <trkpt lat="44.12494" lon="2.25555">
        <ele>365.5</ele>
        <time>2016-05-04T12:14:09Z</time>
      </trkpt>
      <trkpt lat="44.12494" lon="2.25555">
        <ele>365.1</ele>
        <time>2016-05-04T12:14:10Z</time>
      </trkpt>
      <trkpt lat="44.12494" lon="2.25555">
        <ele>364.9</ele>
        <time>2016-05-04T12:14:11Z</time>
      </trkpt>
      <trkpt lat="44.12494" lon="2.25555">
        <ele>364.7</ele>
        <time>2016-05-04T12:14:12Z</time>
      </trkpt>
      <trkpt lat="44.12494" lon="2.25555">
        <ele>364.9</ele>
        <time>2016-05-04T12:14:13Z</time>
      </trkpt>
      <trkpt lat="44.12494" lon="2.25555">
        <ele>365.1</ele>
        <time>2016-05-04T12:14:14Z</time>
      </trkpt>
      <trkpt lat="44.12494" lon="2.25555">
        <ele>365.3</ele>
        <time>2016-05-04T12:14:15Z</time>
      </trkpt>
      <trkpt lat="44.12494" lon="2.25554">
        <ele>365.2</ele>
        <time>2016-05-04T12:14:16Z</time>
      </trkpt>
      <trkpt lat="44.12494" lon="2.25554">
        <ele>365.1</ele>
        <time>2016-05-04T12:14:17Z</time>
      </trkpt>
      <trkpt lat="44.12494" lon="2.25554">
        <ele>365</ele>
        <time>2016-05-04T12:14:18Z</time>
      </trkpt>
      <trkpt lat="44.12494" lon="2.25555">
        <ele>365</ele>
        <time>2016-05-04T12:14:19Z</time>
      </trkpt>
      <trkpt lat="44.12488" lon="2.25563">
        <ele>363.4</ele>
        <time>2016-05-04T12:14:28Z</time>
      </trkpt>
      <trkpt lat="44.12485" lon="2.25567">
        <ele>363.1</ele>
        <time>2016-05-04T12:14:32Z</time>
      </trkpt>
      <trkpt lat="44.12485" lon="2.25571">
        <ele>361.3</ele>
        <time>2016-05-04T12:14:38Z</time>
      </trkpt>
      <trkpt lat="44.12485" lon="2.25571">
        <ele>361.6</ele>
        <time>2016-05-04T12:14:39Z</time>
      </trkpt>
      <trkpt lat="44.12485" lon="2.25571">
        <ele>361.8</ele>
        <time>2016-05-04T12:14:40Z</time>
      </trkpt>
      <trkpt lat="44.12485" lon="2.25571">
        <ele>361.9</ele>
        <time>2016-05-04T12:14:41Z</time>
      </trkpt>
      <trkpt lat="44.12486" lon="2.2557">
        <ele>362</ele>
        <time>2016-05-04T12:14:42Z</time>
      </trkpt>
      <trkpt lat="44.12486" lon="2.2557">
        <ele>362.3</ele>
        <time>2016-05-04T12:14:43Z</time>
      </trkpt>
      <trkpt lat="44.12486" lon="2.25571">
        <ele>362.5</ele>
        <time>2016-05-04T12:14:44Z</time>
      </trkpt>
      <trkpt lat="44.12486" lon="2.25571">
        <ele>362.7</ele>
        <time>2016-05-04T12:14:45Z</time>
      </trkpt>
      <trkpt lat="44.12486" lon="2.25571">
        <ele>363</ele>
        <time>2016-05-04T12:14:46Z</time>
      </trkpt>
      <trkpt lat="44.12486" lon="2.25571">
        <ele>363.3</ele>
        <time>2016-05-04T12:14:47Z</time>
      </trkpt>
      <trkpt lat="44.12486" lon="2.25571">
        <ele>363.4</ele>
        <time>2016-05-04T12:14:48Z</time>
      </trkpt>
      <trkpt lat="44.12486" lon="2.25571">
        <ele>363.4</ele>
        <time>2016-05-04T12:14:49Z</time>
      </trkpt>
      <trkpt lat="44.12486" lon="2.25571">
        <ele>363.3</ele>
        <time>2016-05-04T12:14:50Z</time>
      </trkpt>
      <trkpt lat="44.12486" lon="2.25571">
        <ele>363.3</ele>
        <time>2016-05-04T12:14:51Z</time>
      </trkpt>
      <trkpt lat="44.12486" lon="2.25571">
        <ele>363.2</ele>
        <time>2016-05-04T12:14:52Z</time>
      </trkpt>
      <trkpt lat="44.12486" lon="2.25571">
        <ele>363.2</ele>
        <time>2016-05-04T12:14:53Z</time>
      </trkpt>
      <trkpt lat="44.12486" lon="2.25571">
        <ele>363.2</ele>
        <time>2016-05-04T12:14:54Z</time>
      </trkpt>
      <trkpt lat="44.12486" lon="2.25571">
        <ele>363</ele>
        <time>2016-05-04T12:14:55Z</time>
      </trkpt>
      <trkpt lat="44.12486" lon="2.25571">
        <ele>362.8</ele>
        <time>2016-05-04T12:14:56Z</time>
      </trkpt>
      <trkpt lat="44.12486" lon="2.25571">
        <ele>362.7</ele>
        <time>2016-05-04T12:14:57Z</time>
      </trkpt>
      <trkpt lat="44.12486" lon="2.25571">
        <ele>363.7</ele>
        <time>2016-05-04T12:14:58Z</time>
      </trkpt>
      <trkpt lat="44.12486" lon="2.25571">
        <ele>364.4</ele>
        <time>2016-05-04T12:14:59Z</time>
      </trkpt>
      <trkpt lat="44.12486" lon="2.25571">
        <ele>364.9</ele>
        <time>2016-05-04T12:15:00Z</time>
      </trkpt>
      <trkpt lat="44.12485" lon="2.25571">
        <ele>365.8</ele>
        <time>2016-05-04T12:15:01Z</time>
      </trkpt>
      <trkpt lat="44.12485" lon="2.25572">
        <ele>366.4</ele>
        <time>2016-05-04T12:15:02Z</time>
      </trkpt>
      <trkpt lat="44.12484" lon="2.25572">
        <ele>366.9</ele>
        <time>2016-05-04T12:15:03Z</time>
      </trkpt>
      <trkpt lat="44.12484" lon="2.25573">
        <ele>367</ele>
        <time>2016-05-04T12:15:04Z</time>
      </trkpt>
      <trkpt lat="44.12482" lon="2.25575">
        <ele>362.1</ele>
        <time>2016-05-04T12:15:08Z</time>
      </trkpt>
      <trkpt lat="44.12481" lon="2.25575">
        <ele>359.4</ele>
        <time>2016-05-04T12:15:10Z</time>
      </trkpt>
      <trkpt lat="44.12479" lon="2.25575">
        <ele>358.1</ele>
        <time>2016-05-04T12:15:12Z</time>
      </trkpt>
      <trkpt lat="44.12478" lon="2.25575">
        <ele>362.5</ele>
        <time>2016-05-04T12:15:15Z</time>
      </trkpt>
      <trkpt lat="44.12478" lon="2.25575">
        <ele>363.3</ele>
        <time>2016-05-04T12:15:16Z</time>
      </trkpt>
      <trkpt lat="44.12477" lon="2.25575">
        <ele>363.9</ele>
        <time>2016-05-04T12:15:17Z</time>
      </trkpt>
      <trkpt lat="44.12477" lon="2.25575">
        <ele>364.4</ele>
        <time>2016-05-04T12:15:18Z</time>
      </trkpt>
      <trkpt lat="44.12477" lon="2.25574">
        <ele>364.5</ele>
        <time>2016-05-04T12:15:19Z</time>
      </trkpt>
      <trkpt lat="44.12477" lon="2.25574">
        <ele>364.6</ele>
        <time>2016-05-04T12:15:20Z</time>
      </trkpt>
      <trkpt lat="44.12477" lon="2.25575">
        <ele>364.6</ele>
        <time>2016-05-04T12:15:21Z</time>
      </trkpt>
      <trkpt lat="44.12476" lon="2.25575">
        <ele>363.8</ele>
        <time>2016-05-04T12:15:22Z</time>
      </trkpt>
      <trkpt lat="44.12476" lon="2.25575">
        <ele>363.2</ele>
        <time>2016-05-04T12:15:23Z</time>
      </trkpt>
      <trkpt lat="44.12476" lon="2.25575">
        <ele>362.8</ele>
        <time>2016-05-04T12:15:24Z</time>
      </trkpt>
      <trkpt lat="44.12476" lon="2.25575">
        <ele>363.5</ele>
        <time>2016-05-04T12:15:25Z</time>
      </trkpt>
      <trkpt lat="44.12476" lon="2.25576">
        <ele>364.1</ele>
        <time>2016-05-04T12:15:26Z</time>
      </trkpt>
      <trkpt lat="44.12477" lon="2.25576">
        <ele>364.5</ele>
        <time>2016-05-04T12:15:27Z</time>
      </trkpt>
      <trkpt lat="44.12477" lon="2.25576">
        <ele>365</ele>
        <time>2016-05-04T12:15:28Z</time>
      </trkpt>
      <trkpt lat="44.12478" lon="2.25576">
        <ele>365.4</ele>
        <time>2016-05-04T12:15:29Z</time>
      </trkpt>
      <trkpt lat="44.12478" lon="2.25576">
        <ele>365.7</ele>
        <time>2016-05-04T12:15:30Z</time>
      </trkpt>
      <trkpt lat="44.1248" lon="2.25577">
        <ele>366.5</ele>
        <time>2016-05-04T12:15:32Z</time>
      </trkpt>
      <trkpt lat="44.1248" lon="2.25578">
        <ele>366.7</ele>
        <time>2016-05-04T12:15:33Z</time>
      </trkpt>
      <trkpt lat="44.1248" lon="2.25579">
        <ele>366.7</ele>
        <time>2016-05-04T12:15:34Z</time>
      </trkpt>
      <trkpt lat="44.1248" lon="2.2558">
        <ele>366.6</ele>
        <time>2016-05-04T12:15:35Z</time>
      </trkpt>
      <trkpt lat="44.1248" lon="2.25581">
        <ele>366.6</ele>
        <time>2016-05-04T12:15:36Z</time>
      </trkpt>
      <trkpt lat="44.12479" lon="2.25582">
        <ele>365.1</ele>
        <time>2016-05-04T12:15:37Z</time>
      </trkpt>
      <trkpt lat="44.12479" lon="2.25584">
        <ele>364</ele>
        <time>2016-05-04T12:15:38Z</time>
      </trkpt>
      <trkpt lat="44.12478" lon="2.25585">
        <ele>363.1</ele>
        <time>2016-05-04T12:15:39Z</time>
      </trkpt>
      <trkpt lat="44.12478" lon="2.25586">
        <ele>364</ele>
        <time>2016-05-04T12:15:40Z</time>
      </trkpt>
      <trkpt lat="44.12478" lon="2.25587">
        <ele>364.6</ele>
        <time>2016-05-04T12:15:41Z</time>
      </trkpt>
      <trkpt lat="44.12478" lon="2.25588">
        <ele>365.1</ele>
        <time>2016-05-04T12:15:42Z</time>
      </trkpt>
      <trkpt lat="44.12477" lon="2.25589">
        <ele>365.3</ele>
        <time>2016-05-04T12:15:43Z</time>
      </trkpt>
      <trkpt lat="44.12477" lon="2.2559">
        <ele>365.4</ele>
        <time>2016-05-04T12:15:44Z</time>
      </trkpt>
      <trkpt lat="44.12476" lon="2.25594">
        <ele>365.1</ele>
        <time>2016-05-04T12:15:48Z</time>
      </trkpt>
      <trkpt lat="44.12473" lon="2.25599">
        <ele>364.8</ele>
        <time>2016-05-04T12:15:53Z</time>
      </trkpt>
      <trkpt lat="44.12471" lon="2.25602">
        <ele>364.9</ele>
        <time>2016-05-04T12:15:58Z</time>
      </trkpt>
      <trkpt lat="44.1247" lon="2.25602">
        <ele>364.4</ele>
        <time>2016-05-04T12:16:01Z</time>
      </trkpt>
      <trkpt lat="44.12469" lon="2.25602">
        <ele>364.3</ele>
        <time>2016-05-04T12:16:02Z</time>
      </trkpt>
      <trkpt lat="44.12469" lon="2.25602">
        <ele>364.2</ele>
        <time>2016-05-04T12:16:03Z</time>
      </trkpt>
      <trkpt lat="44.12469" lon="2.25602">
        <ele>363.3</ele>
        <time>2016-05-04T12:16:04Z</time>
      </trkpt>
      <trkpt lat="44.12469" lon="2.25602">
        <ele>362.6</ele>
        <time>2016-05-04T12:16:05Z</time>
      </trkpt>
      <trkpt lat="44.12469" lon="2.25602">
        <ele>362.3</ele>
        <time>2016-05-04T12:16:12Z</time>
      </trkpt>
      <trkpt lat="44.12469" lon="2.25602">
        <ele>361.6</ele>
        <time>2016-05-04T12:16:13Z</time>
      </trkpt>
      <trkpt lat="44.12469" lon="2.25602">
        <ele>361.2</ele>
        <time>2016-05-04T12:16:14Z</time>
      </trkpt>
      <trkpt lat="44.1247" lon="2.25603">
        <ele>360.8</ele>
        <time>2016-05-04T12:16:15Z</time>
      </trkpt>
      <trkpt lat="44.12471" lon="2.25603">
        <ele>362.7</ele>
        <time>2016-05-04T12:16:16Z</time>
      </trkpt>
      <trkpt lat="44.12471" lon="2.25603">
        <ele>364.1</ele>
        <time>2016-05-04T12:16:17Z</time>
      </trkpt>
      <trkpt lat="44.12472" lon="2.25604">
        <ele>365.1</ele>
        <time>2016-05-04T12:16:18Z</time>
      </trkpt>
      <trkpt lat="44.12472" lon="2.25605">
        <ele>365.3</ele>
        <time>2016-05-04T12:16:19Z</time>
      </trkpt>
      <trkpt lat="44.12472" lon="2.25606">
        <ele>365.4</ele>
        <time>2016-05-04T12:16:20Z</time>
      </trkpt>
      <trkpt lat="44.12473" lon="2.25609">
        <ele>364.8</ele>
        <time>2016-05-04T12:16:23Z</time>
      </trkpt>
      <trkpt lat="44.12473" lon="2.25609">
        <ele>364.6</ele>
        <time>2016-05-04T12:16:24Z</time>
      </trkpt>
      <trkpt lat="44.12473" lon="2.25609">
        <ele>361.5</ele>
        <time>2016-05-04T12:16:25Z</time>
      </trkpt>
      <trkpt lat="44.12472" lon="2.25609">
        <ele>359.1</ele>
        <time>2016-05-04T12:16:26Z</time>
      </trkpt>
      <trkpt lat="44.12472" lon="2.25609">
        <ele>357.4</ele>
        <time>2016-05-04T12:16:27Z</time>
      </trkpt>
      <trkpt lat="44.12472" lon="2.2561">
        <ele>358.8</ele>
        <time>2016-05-04T12:16:28Z</time>
      </trkpt>
      <trkpt lat="44.12472" lon="2.2561">
        <ele>359.9</ele>
        <time>2016-05-04T12:16:29Z</time>
      </trkpt>
      <trkpt lat="44.12472" lon="2.2561">
        <ele>360.7</ele>
        <time>2016-05-04T12:16:30Z</time>
      </trkpt>
      <trkpt lat="44.12472" lon="2.2561">
        <ele>360.7</ele>
        <time>2016-05-04T12:16:31Z</time>
      </trkpt>
      <trkpt lat="44.12473" lon="2.2561">
        <ele>360.7</ele>
        <time>2016-05-04T12:16:32Z</time>
      </trkpt>
      <trkpt lat="44.12473" lon="2.2561">
        <ele>360.6</ele>
        <time>2016-05-04T12:16:33Z</time>
      </trkpt>
      <trkpt lat="44.12473" lon="2.2561">
        <ele>360.8</ele>
        <time>2016-05-04T12:16:34Z</time>
      </trkpt>
      <trkpt lat="44.12473" lon="2.25611">
        <ele>361</ele>
        <time>2016-05-04T12:16:35Z</time>
      </trkpt>
      <trkpt lat="44.12473" lon="2.25611">
        <ele>361.1</ele>
        <time>2016-05-04T12:16:36Z</time>
      </trkpt>
      <trkpt lat="44.12473" lon="2.25611">
        <ele>361.2</ele>
        <time>2016-05-04T12:16:37Z</time>
      </trkpt>
      <trkpt lat="44.12473" lon="2.25611">
        <ele>361.3</ele>
        <time>2016-05-04T12:16:38Z</time>
      </trkpt>
      <trkpt lat="44.12473" lon="2.2561">
        <ele>361.3</ele>
        <time>2016-05-04T12:16:39Z</time>
      </trkpt>
      <trkpt lat="44.12473" lon="2.2561">
        <ele>361.6</ele>
        <time>2016-05-04T12:16:40Z</time>
      </trkpt>
      <trkpt lat="44.12473" lon="2.2561">
        <ele>361.7</ele>
        <time>2016-05-04T12:16:41Z</time>
      </trkpt>
      <trkpt lat="44.12473" lon="2.2561">
        <ele>361.9</ele>
        <time>2016-05-04T12:16:42Z</time>
      </trkpt>
      <trkpt lat="44.12473" lon="2.2561">
        <ele>361.6</ele>
        <time>2016-05-04T12:16:43Z</time>
      </trkpt>
      <trkpt lat="44.12473" lon="2.2561">
        <ele>361.3</ele>
        <time>2016-05-04T12:16:44Z</time>
      </trkpt>
      <trkpt lat="44.12473" lon="2.2561">
        <ele>361.1</ele>
        <time>2016-05-04T12:16:45Z</time>
      </trkpt>
      <trkpt lat="44.12473" lon="2.2561">
        <ele>361</ele>
        <time>2016-05-04T12:16:46Z</time>
      </trkpt>
      <trkpt lat="44.12473" lon="2.2561">
        <ele>360.9</ele>
        <time>2016-05-04T12:16:47Z</time>
      </trkpt>
      <trkpt lat="44.12473" lon="2.2561">
        <ele>360.8</ele>
        <time>2016-05-04T12:16:48Z</time>
      </trkpt>
      <trkpt lat="44.12473" lon="2.2561">
        <ele>361</ele>
        <time>2016-05-04T12:16:49Z</time>
      </trkpt>
      <trkpt lat="44.12473" lon="2.2561">
        <ele>361.1</ele>
        <time>2016-05-04T12:16:50Z</time>
      </trkpt>
      <trkpt lat="44.12472" lon="2.2561">
        <ele>361.5</ele>
        <time>2016-05-04T12:16:56Z</time>
      </trkpt>
      <trkpt lat="44.12472" lon="2.25609">
        <ele>361.7</ele>
        <time>2016-05-04T12:16:57Z</time>
      </trkpt>
      <trkpt lat="44.12472" lon="2.25609">
        <ele>360.3</ele>
        <time>2016-05-04T12:16:58Z</time>
      </trkpt>
      <trkpt lat="44.12472" lon="2.25609">
        <ele>359.3</ele>
        <time>2016-05-04T12:16:59Z</time>
      </trkpt>
      <trkpt lat="44.12472" lon="2.25609">
        <ele>358.6</ele>
        <time>2016-05-04T12:17:00Z</time>
      </trkpt>
      <trkpt lat="44.12472" lon="2.25609">
        <ele>361</ele>
        <time>2016-05-04T12:17:01Z</time>
      </trkpt>
      <trkpt lat="44.12472" lon="2.25608">
        <ele>362.8</ele>
        <time>2016-05-04T12:17:02Z</time>
      </trkpt>
      <trkpt lat="44.12471" lon="2.25607">
        <ele>364.2</ele>
        <time>2016-05-04T12:17:03Z</time>
      </trkpt>
      <trkpt lat="44.12471" lon="2.25605">
        <ele>365.2</ele>
        <time>2016-05-04T12:17:04Z</time>
      </trkpt>
      <trkpt lat="44.12471" lon="2.25603">
        <ele>366</ele>
        <time>2016-05-04T12:17:05Z</time>
      </trkpt>
      <trkpt lat="44.12471" lon="2.25602">
        <ele>366.6</ele>
        <time>2016-05-04T12:17:06Z</time>
      </trkpt>
      <trkpt lat="44.12471" lon="2.25599">
        <ele>366.6</ele>
        <time>2016-05-04T12:17:08Z</time>
      </trkpt>
      <trkpt lat="44.12471" lon="2.25598">
        <ele>366.6</ele>
        <time>2016-05-04T12:17:09Z</time>
      </trkpt>
      <trkpt lat="44.12471" lon="2.25591">
        <ele>366.1</ele>
        <time>2016-05-04T12:17:13Z</time>
      </trkpt>
      <trkpt lat="44.12471" lon="2.25584">
        <ele>364.7</ele>
        <time>2016-05-04T12:17:21Z</time>
      </trkpt>
      <trkpt lat="44.1247" lon="2.25583">
        <ele>364.7</ele>
        <time>2016-05-04T12:17:22Z</time>
      </trkpt>
      <trkpt lat="44.12468" lon="2.25576">
        <ele>362.9</ele>
        <time>2016-05-04T12:17:30Z</time>
      </trkpt>
      <trkpt lat="44.12468" lon="2.25576">
        <ele>362.5</ele>
        <time>2016-05-04T12:17:31Z</time>
      </trkpt>
      <trkpt lat="44.12467" lon="2.25577">
        <ele>362.1</ele>
        <time>2016-05-04T12:17:33Z</time>
      </trkpt>
      <trkpt lat="44.12466" lon="2.25578">
        <ele>361.7</ele>
        <time>2016-05-04T12:17:34Z</time>
      </trkpt>
      <trkpt lat="44.12466" lon="2.25579">
        <ele>361.4</ele>
        <time>2016-05-04T12:17:35Z</time>
      </trkpt>
      <trkpt lat="44.12465" lon="2.2558">
        <ele>361.2</ele>
        <time>2016-05-04T12:17:36Z</time>
      </trkpt>
      <trkpt lat="44.12465" lon="2.25581">
        <ele>361.1</ele>
        <time>2016-05-04T12:17:37Z</time>
      </trkpt>
      <trkpt lat="44.12465" lon="2.25582">
        <ele>360.9</ele>
        <time>2016-05-04T12:17:38Z</time>
      </trkpt>
      <trkpt lat="44.12465" lon="2.25583">
        <ele>360.9</ele>
        <time>2016-05-04T12:17:39Z</time>
      </trkpt>
      <trkpt lat="44.12465" lon="2.25584">
        <ele>361</ele>
        <time>2016-05-04T12:17:40Z</time>
      </trkpt>
      <trkpt lat="44.12465" lon="2.25585">
        <ele>361.1</ele>
        <time>2016-05-04T12:17:41Z</time>
      </trkpt>
      <trkpt lat="44.12465" lon="2.25585">
        <ele>361.2</ele>
        <time>2016-05-04T12:17:42Z</time>
      </trkpt>
      <trkpt lat="44.12465" lon="2.25586">
        <ele>360.8</ele>
        <time>2016-05-04T12:17:43Z</time>
      </trkpt>
      <trkpt lat="44.12465" lon="2.25587">
        <ele>360.6</ele>
        <time>2016-05-04T12:17:44Z</time>
      </trkpt>
      <trkpt lat="44.12466" lon="2.25587">
        <ele>360.4</ele>
        <time>2016-05-04T12:17:45Z</time>
      </trkpt>
      <trkpt lat="44.12466" lon="2.25587">
        <ele>360.4</ele>
        <time>2016-05-04T12:17:46Z</time>
      </trkpt>
      <trkpt lat="44.12466" lon="2.25587">
        <ele>360.5</ele>
        <time>2016-05-04T12:17:47Z</time>
      </trkpt>
      <trkpt lat="44.12466" lon="2.25587">
        <ele>360.5</ele>
        <time>2016-05-04T12:17:48Z</time>
      </trkpt>
      <trkpt lat="44.12466" lon="2.25587">
        <ele>358.8</ele>
        <time>2016-05-04T12:17:49Z</time>
      </trkpt>
      <trkpt lat="44.12466" lon="2.25587">
        <ele>357.5</ele>
        <time>2016-05-04T12:17:50Z</time>
      </trkpt>
      <trkpt lat="44.12466" lon="2.25587">
        <ele>356.6</ele>
        <time>2016-05-04T12:17:51Z</time>
      </trkpt>
      <trkpt lat="44.12466" lon="2.25586">
        <ele>357.2</ele>
        <time>2016-05-04T12:17:52Z</time>
      </trkpt>
      <trkpt lat="44.12466" lon="2.25586">
        <ele>357.6</ele>
        <time>2016-05-04T12:17:53Z</time>
      </trkpt>
      <trkpt lat="44.12466" lon="2.25585">
        <ele>357.9</ele>
        <time>2016-05-04T12:17:54Z</time>
      </trkpt>
      <trkpt lat="44.12466" lon="2.25585">
        <ele>358.6</ele>
        <time>2016-05-04T12:17:55Z</time>
      </trkpt>
      <trkpt lat="44.12466" lon="2.25585">
        <ele>359.1</ele>
        <time>2016-05-04T12:17:56Z</time>
      </trkpt>
      <trkpt lat="44.12465" lon="2.25584">
        <ele>359.5</ele>
        <time>2016-05-04T12:17:57Z</time>
      </trkpt>
      <trkpt lat="44.12464" lon="2.25581">
        <ele>359.7</ele>
        <time>2016-05-04T12:17:58Z</time>
      </trkpt>
      <trkpt lat="44.12464" lon="2.25579">
        <ele>360</ele>
        <time>2016-05-04T12:17:59Z</time>
      </trkpt>
      <trkpt lat="44.12463" lon="2.25577">
        <ele>360.1</ele>
        <time>2016-05-04T12:18:00Z</time>
      </trkpt>
      <trkpt lat="44.12463" lon="2.25576">
        <ele>357.7</ele>
        <time>2016-05-04T12:18:01Z</time>
      </trkpt>
      <trkpt lat="44.12463" lon="2.25575">
        <ele>355.8</ele>
        <time>2016-05-04T12:18:02Z</time>
      </trkpt>
      <trkpt lat="44.12462" lon="2.25574">
        <ele>354.5</ele>
        <time>2016-05-04T12:18:03Z</time>
      </trkpt>
      <trkpt lat="44.12462" lon="2.25572">
        <ele>356.2</ele>
        <time>2016-05-04T12:18:04Z</time>
      </trkpt>
      <trkpt lat="44.12463" lon="2.25571">
        <ele>357.5</ele>
        <time>2016-05-04T12:18:05Z</time>
      </trkpt>
      <trkpt lat="44.12463" lon="2.25569">
        <ele>358.5</ele>
        <time>2016-05-04T12:18:06Z</time>
      </trkpt>
      <trkpt lat="44.12463" lon="2.25568">
        <ele>359</ele>
        <time>2016-05-04T12:18:07Z</time>
      </trkpt>
      <trkpt lat="44.12464" lon="2.25566">
        <ele>359.4</ele>
        <time>2016-05-04T12:18:08Z</time>
      </trkpt>
      <trkpt lat="44.12465" lon="2.25564">
        <ele>359.7</ele>
        <time>2016-05-04T12:18:09Z</time>
      </trkpt>
      <trkpt lat="44.12465" lon="2.25562">
        <ele>359.7</ele>
        <time>2016-05-04T12:18:10Z</time>
      </trkpt>
      <trkpt lat="44.12466" lon="2.2556">
        <ele>359.7</ele>
        <time>2016-05-04T12:18:11Z</time>
      </trkpt>
      <trkpt lat="44.12467" lon="2.25559">
        <ele>359.7</ele>
        <time>2016-05-04T12:18:12Z</time>
      </trkpt>
      <trkpt lat="44.12467" lon="2.25557">
        <ele>359.3</ele>
        <time>2016-05-04T12:18:13Z</time>
      </trkpt>
      <trkpt lat="44.12467" lon="2.25555">
        <ele>359</ele>
        <time>2016-05-04T12:18:14Z</time>
      </trkpt>
      <trkpt lat="44.12468" lon="2.25553">
        <ele>358.7</ele>
        <time>2016-05-04T12:18:15Z</time>
      </trkpt>
      <trkpt lat="44.1247" lon="2.25541">
        <ele>359.9</ele>
        <time>2016-05-04T12:18:23Z</time>
      </trkpt>
      <trkpt lat="44.12477" lon="2.25522">
        <ele>356.3</ele>
        <time>2016-05-04T12:18:38Z</time>
      </trkpt>
      <trkpt lat="44.12477" lon="2.25521">
        <ele>356.3</ele>
        <time>2016-05-04T12:18:40Z</time>
      </trkpt>
      <trkpt lat="44.12477" lon="2.25521">
        <ele>356.3</ele>
        <time>2016-05-04T12:18:41Z</time>
      </trkpt>
      <trkpt lat="44.12477" lon="2.25521">
        <ele>356.3</ele>
        <time>2016-05-04T12:18:42Z</time>
      </trkpt>
      <trkpt lat="44.12477" lon="2.25521">
        <ele>356.3</ele>
        <time>2016-05-04T12:18:43Z</time>
      </trkpt>
      <trkpt lat="44.12477" lon="2.25521">
        <ele>356.3</ele>
        <time>2016-05-04T12:18:44Z</time>
      </trkpt>
      <trkpt lat="44.12477" lon="2.25521">
        <ele>356.3</ele>
        <time>2016-05-04T12:18:46Z</time>
      </trkpt>
      <trkpt lat="44.12477" lon="2.25521">
        <ele>356.3</ele>
        <time>2016-05-04T12:18:47Z</time>
      </trkpt>
      <trkpt lat="44.12476" lon="2.25521">
        <ele>356.3</ele>
        <time>2016-05-04T12:18:48Z</time>
      </trkpt>
      <trkpt lat="44.12476" lon="2.25521">
        <ele>357.4</ele>
        <time>2016-05-04T12:18:49Z</time>
      </trkpt>
      <trkpt lat="44.12476" lon="2.25521">
        <ele>358.2</ele>
        <time>2016-05-04T12:18:50Z</time>
      </trkpt>
      <trkpt lat="44.12476" lon="2.25521">
        <ele>358.8</ele>
        <time>2016-05-04T12:18:51Z</time>
      </trkpt>
      <trkpt lat="44.12476" lon="2.25521">
        <ele>358.8</ele>
        <time>2016-05-04T12:18:52Z</time>
      </trkpt>
      <trkpt lat="44.12476" lon="2.25521">
        <ele>358.8</ele>
        <time>2016-05-04T12:18:53Z</time>
      </trkpt>
      <trkpt lat="44.12476" lon="2.25522">
        <ele>358.8</ele>
        <time>2016-05-04T12:18:54Z</time>
      </trkpt>
      <trkpt lat="44.12476" lon="2.25522">
        <ele>358.4</ele>
        <time>2016-05-04T12:18:55Z</time>
      </trkpt>
      <trkpt lat="44.12476" lon="2.25522">
        <ele>358.1</ele>
        <time>2016-05-04T12:18:56Z</time>
      </trkpt>
      <trkpt lat="44.12476" lon="2.25522">
        <ele>357.9</ele>
        <time>2016-05-04T12:18:57Z</time>
      </trkpt>
      <trkpt lat="44.12476" lon="2.25522">
        <ele>357.7</ele>
        <time>2016-05-04T12:18:58Z</time>
      </trkpt>
      <trkpt lat="44.12476" lon="2.25522">
        <ele>357.6</ele>
        <time>2016-05-04T12:18:59Z</time>
      </trkpt>
      <trkpt lat="44.12476" lon="2.25522">
        <ele>356.3</ele>
        <time>2016-05-04T12:19:01Z</time>
      </trkpt>
      <trkpt lat="44.12476" lon="2.25522">
        <ele>355.5</ele>
        <time>2016-05-04T12:19:02Z</time>
      </trkpt>
      <trkpt lat="44.12476" lon="2.25522">
        <ele>354.8</ele>
        <time>2016-05-04T12:19:03Z</time>
      </trkpt>
      <trkpt lat="44.12476" lon="2.25522">
        <ele>355.2</ele>
        <time>2016-05-04T12:19:04Z</time>
      </trkpt>
      <trkpt lat="44.12476" lon="2.25522">
        <ele>355.5</ele>
        <time>2016-05-04T12:19:05Z</time>
      </trkpt>
      <trkpt lat="44.12476" lon="2.25522">
        <ele>355.7</ele>
        <time>2016-05-04T12:19:06Z</time>
      </trkpt>
      <trkpt lat="44.12476" lon="2.25522">
        <ele>355.9</ele>
        <time>2016-05-04T12:19:07Z</time>
      </trkpt>
      <trkpt lat="44.12476" lon="2.25522">
        <ele>356</ele>
        <time>2016-05-04T12:19:08Z</time>
      </trkpt>
      <trkpt lat="44.12476" lon="2.25522">
        <ele>356.1</ele>
        <time>2016-05-04T12:19:09Z</time>
      </trkpt>
      <trkpt lat="44.12476" lon="2.25522">
        <ele>356.3</ele>
        <time>2016-05-04T12:19:10Z</time>
      </trkpt>
      <trkpt lat="44.12476" lon="2.25522">
        <ele>356.5</ele>
        <time>2016-05-04T12:19:11Z</time>
      </trkpt>
      <trkpt lat="44.12477" lon="2.25522">
        <ele>356.7</ele>
        <time>2016-05-04T12:19:12Z</time>
      </trkpt>
      <trkpt lat="44.12477" lon="2.2552">
        <ele>356.6</ele>
        <time>2016-05-04T12:19:13Z</time>
      </trkpt>
      <trkpt lat="44.1248" lon="2.25514">
        <ele>357.2</ele>
        <time>2016-05-04T12:19:17Z</time>
      </trkpt>
      <trkpt lat="44.12481" lon="2.25511">
        <ele>356.9</ele>
        <time>2016-05-04T12:19:19Z</time>
      </trkpt>
      <trkpt lat="44.12484" lon="2.25498">
        <ele>356.1</ele>
        <time>2016-05-04T12:19:25Z</time>
      </trkpt>
      <trkpt lat="44.12484" lon="2.25496">
        <ele>355.9</ele>
        <time>2016-05-04T12:19:26Z</time>
      </trkpt>
      <trkpt lat="44.12485" lon="2.25483">
        <ele>355</ele>
        <time>2016-05-04T12:19:33Z</time>
      </trkpt>
      <trkpt lat="44.12484" lon="2.25479">
        <ele>354.1</ele>
        <time>2016-05-04T12:19:35Z</time>
      </trkpt>
      <trkpt lat="44.12484" lon="2.25477">
        <ele>353.8</ele>
        <time>2016-05-04T12:19:36Z</time>
      </trkpt>
      <trkpt lat="44.12478" lon="2.25455">
        <ele>352.7</ele>
        <time>2016-05-04T12:19:47Z</time>
      </trkpt>
      <trkpt lat="44.12467" lon="2.25428">
        <ele>350.9</ele>
        <time>2016-05-04T12:20:03Z</time>
      </trkpt>
      <trkpt lat="44.12447" lon="2.25382">
        <ele>347.2</ele>
        <time>2016-05-04T12:20:32Z</time>
      </trkpt>
      <trkpt lat="44.12446" lon="2.25381">
        <ele>347.1</ele>
        <time>2016-05-04T12:20:33Z</time>
      </trkpt>
      <trkpt lat="44.1244" lon="2.25374">
        <ele>345.9</ele>
        <time>2016-05-04T12:20:40Z</time>
      </trkpt>
      <trkpt lat="44.1244" lon="2.25374">
        <ele>345.7</ele>
        <time>2016-05-04T12:20:41Z</time>
      </trkpt>
      <trkpt lat="44.1244" lon="2.25374">
        <ele>345.6</ele>
        <time>2016-05-04T12:20:42Z</time>
      </trkpt>
      <trkpt lat="44.12441" lon="2.25373">
        <ele>345.1</ele>
        <time>2016-05-04T12:20:43Z</time>
      </trkpt>
      <trkpt lat="44.12441" lon="2.25373">
        <ele>344.7</ele>
        <time>2016-05-04T12:20:44Z</time>
      </trkpt>
      <trkpt lat="44.12441" lon="2.25372">
        <ele>344.4</ele>
        <time>2016-05-04T12:20:45Z</time>
      </trkpt>
      <trkpt lat="44.12441" lon="2.25372">
        <ele>344.6</ele>
        <time>2016-05-04T12:20:46Z</time>
      </trkpt>
      <trkpt lat="44.12441" lon="2.25371">
        <ele>344.8</ele>
        <time>2016-05-04T12:20:47Z</time>
      </trkpt>
      <trkpt lat="44.12441" lon="2.25369">
        <ele>344.9</ele>
        <time>2016-05-04T12:20:48Z</time>
      </trkpt>
      <trkpt lat="44.1244" lon="2.25367">
        <ele>344.5</ele>
        <time>2016-05-04T12:20:49Z</time>
      </trkpt>
      <trkpt lat="44.1244" lon="2.25365">
        <ele>344.3</ele>
        <time>2016-05-04T12:20:50Z</time>
      </trkpt>
      <trkpt lat="44.12439" lon="2.25363">
        <ele>344.1</ele>
        <time>2016-05-04T12:20:51Z</time>
      </trkpt>
      <trkpt lat="44.12431" lon="2.25343">
        <ele>342.8</ele>
        <time>2016-05-04T12:21:03Z</time>
      </trkpt>
      <trkpt lat="44.12417" lon="2.25317">
        <ele>340.4</ele>
        <time>2016-05-04T12:21:19Z</time>
      </trkpt>
      <trkpt lat="44.12417" lon="2.25315">
        <ele>340.1</ele>
        <time>2016-05-04T12:21:20Z</time>
      </trkpt>
      <trkpt lat="44.12416" lon="2.25309">
        <ele>338.9</ele>
        <time>2016-05-04T12:21:23Z</time>
      </trkpt>
      <trkpt lat="44.1241" lon="2.25283">
        <ele>338.2</ele>
        <time>2016-05-04T12:21:38Z</time>
      </trkpt>
      <trkpt lat="44.12409" lon="2.25281">
        <ele>338.3</ele>
        <time>2016-05-04T12:21:39Z</time>
      </trkpt>
      <trkpt lat="44.12407" lon="2.25278">
        <ele>337.9</ele>
        <time>2016-05-04T12:21:43Z</time>
      </trkpt>
      <trkpt lat="44.12407" lon="2.25277">
        <ele>337.6</ele>
        <time>2016-05-04T12:21:44Z</time>
      </trkpt>
      <trkpt lat="44.12393" lon="2.25269">
        <ele>335.7</ele>
        <time>2016-05-04T12:21:56Z</time>
      </trkpt>
      <trkpt lat="44.12392" lon="2.25268">
        <ele>335.8</ele>
        <time>2016-05-04T12:21:57Z</time>
      </trkpt>
      <trkpt lat="44.12392" lon="2.25267">
        <ele>335.8</ele>
        <time>2016-05-04T12:21:58Z</time>
      </trkpt>
      <trkpt lat="44.12391" lon="2.25265">
        <ele>335.8</ele>
        <time>2016-05-04T12:21:59Z</time>
      </trkpt>
      <trkpt lat="44.1239" lon="2.25264">
        <ele>335.8</ele>
        <time>2016-05-04T12:22:00Z</time>
      </trkpt>
      <trkpt lat="44.12388" lon="2.25263">
        <ele>335.6</ele>
        <time>2016-05-04T12:22:01Z</time>
      </trkpt>
      <trkpt lat="44.12387" lon="2.25261">
        <ele>335.5</ele>
        <time>2016-05-04T12:22:02Z</time>
      </trkpt>
      <trkpt lat="44.12385" lon="2.2526">
        <ele>335.4</ele>
        <time>2016-05-04T12:22:03Z</time>
      </trkpt>
      <trkpt lat="44.12384" lon="2.25259">
        <ele>335.3</ele>
        <time>2016-05-04T12:22:04Z</time>
      </trkpt>
      <trkpt lat="44.12382" lon="2.25258">
        <ele>335.2</ele>
        <time>2016-05-04T12:22:05Z</time>
      </trkpt>
      <trkpt lat="44.12381" lon="2.25256">
        <ele>335.2</ele>
        <time>2016-05-04T12:22:06Z</time>
      </trkpt>
      <trkpt lat="44.12379" lon="2.25255">
        <ele>334.3</ele>
        <time>2016-05-04T12:22:07Z</time>
      </trkpt>
      <trkpt lat="44.12378" lon="2.25255">
        <ele>333.6</ele>
        <time>2016-05-04T12:22:08Z</time>
      </trkpt>
      <trkpt lat="44.12377" lon="2.25254">
        <ele>333.1</ele>
        <time>2016-05-04T12:22:09Z</time>
      </trkpt>
      <trkpt lat="44.12376" lon="2.25253">
        <ele>333.2</ele>
        <time>2016-05-04T12:22:10Z</time>
      </trkpt>
      <trkpt lat="44.12366" lon="2.25246">
        <ele>333.1</ele>
        <time>2016-05-04T12:22:18Z</time>
      </trkpt>
      <trkpt lat="44.12365" lon="2.25245">
        <ele>332.5</ele>
        <time>2016-05-04T12:22:19Z</time>
      </trkpt>
      <trkpt lat="44.12348" lon="2.25223">
        <ele>329.2</ele>
        <time>2016-05-04T12:22:39Z</time>
      </trkpt>
      <trkpt lat="44.12347" lon="2.25222">
        <ele>328.7</ele>
        <time>2016-05-04T12:22:40Z</time>
      </trkpt>
      <trkpt lat="44.12342" lon="2.25219">
        <ele>327.7</ele>
        <time>2016-05-04T12:22:45Z</time>
      </trkpt>
      <trkpt lat="44.12324" lon="2.25214">
        <ele>326.1</ele>
        <time>2016-05-04T12:22:54Z</time>
      </trkpt>
      <trkpt lat="44.12323" lon="2.25214">
        <ele>325.8</ele>
        <time>2016-05-04T12:22:55Z</time>
      </trkpt>
      <trkpt lat="44.12322" lon="2.25213">
        <ele>325.5</ele>
        <time>2016-05-04T12:22:56Z</time>
      </trkpt>
      <trkpt lat="44.12321" lon="2.25212">
        <ele>325.3</ele>
        <time>2016-05-04T12:22:57Z</time>
      </trkpt>
      <trkpt lat="44.12319" lon="2.25211">
        <ele>325.2</ele>
        <time>2016-05-04T12:22:58Z</time>
      </trkpt>
      <trkpt lat="44.12318" lon="2.2521">
        <ele>325.1</ele>
        <time>2016-05-04T12:22:59Z</time>
      </trkpt>
      <trkpt lat="44.12317" lon="2.2521">
        <ele>325</ele>
        <time>2016-05-04T12:23:00Z</time>
      </trkpt>
      <trkpt lat="44.12317" lon="2.25208">
        <ele>325</ele>
        <time>2016-05-04T12:23:01Z</time>
      </trkpt>
      <trkpt lat="44.12315" lon="2.25206">
        <ele>324.9</ele>
        <time>2016-05-04T12:23:03Z</time>
      </trkpt>
      <trkpt lat="44.12311" lon="2.252">
        <ele>324.4</ele>
        <time>2016-05-04T12:23:07Z</time>
      </trkpt>
      <trkpt lat="44.12309" lon="2.25196">
        <ele>323.8</ele>
        <time>2016-05-04T12:23:09Z</time>
      </trkpt>
      <trkpt lat="44.12307" lon="2.25195">
        <ele>323.6</ele>
        <time>2016-05-04T12:23:10Z</time>
      </trkpt>
      <trkpt lat="44.12305" lon="2.25193">
        <ele>323.5</ele>
        <time>2016-05-04T12:23:11Z</time>
      </trkpt>
      <trkpt lat="44.12303" lon="2.25192">
        <ele>323.4</ele>
        <time>2016-05-04T12:23:12Z</time>
      </trkpt>
      <trkpt lat="44.12302" lon="2.2519">
        <ele>323.5</ele>
        <time>2016-05-04T12:23:13Z</time>
      </trkpt>
      <trkpt lat="44.12301" lon="2.25189">
        <ele>323.6</ele>
        <time>2016-05-04T12:23:14Z</time>
      </trkpt>
      <trkpt lat="44.12299" lon="2.25187">
        <ele>323.7</ele>
        <time>2016-05-04T12:23:15Z</time>
      </trkpt>
      <trkpt lat="44.12298" lon="2.25186">
        <ele>323.6</ele>
        <time>2016-05-04T12:23:16Z</time>
      </trkpt>
      <trkpt lat="44.12297" lon="2.25184">
        <ele>323.4</ele>
        <time>2016-05-04T12:23:17Z</time>
      </trkpt>
      <trkpt lat="44.12296" lon="2.25183">
        <ele>323.4</ele>
        <time>2016-05-04T12:23:18Z</time>
      </trkpt>
      <trkpt lat="44.12296" lon="2.25182">
        <ele>322.4</ele>
        <time>2016-05-04T12:23:19Z</time>
      </trkpt>
      <trkpt lat="44.12295" lon="2.2518">
        <ele>321.8</ele>
        <time>2016-05-04T12:23:20Z</time>
      </trkpt>
      <trkpt lat="44.12295" lon="2.25179">
        <ele>321.2</ele>
        <time>2016-05-04T12:23:21Z</time>
      </trkpt>
      <trkpt lat="44.12294" lon="2.25177">
        <ele>321.3</ele>
        <time>2016-05-04T12:23:22Z</time>
      </trkpt>
      <trkpt lat="44.12294" lon="2.25175">
        <ele>321.3</ele>
        <time>2016-05-04T12:23:23Z</time>
      </trkpt>
      <trkpt lat="44.12293" lon="2.25174">
        <ele>321.3</ele>
        <time>2016-05-04T12:23:24Z</time>
      </trkpt>
      <trkpt lat="44.12293" lon="2.25172">
        <ele>321.3</ele>
        <time>2016-05-04T12:23:25Z</time>
      </trkpt>
      <trkpt lat="44.12293" lon="2.25171">
        <ele>321.4</ele>
        <time>2016-05-04T12:23:26Z</time>
      </trkpt>
      <trkpt lat="44.12292" lon="2.25169">
        <ele>321.4</ele>
        <time>2016-05-04T12:23:27Z</time>
      </trkpt>
      <trkpt lat="44.12292" lon="2.25168">
        <ele>321.4</ele>
        <time>2016-05-04T12:23:28Z</time>
      </trkpt>
      <trkpt lat="44.12289" lon="2.25152">
        <ele>320.4</ele>
        <time>2016-05-04T12:23:39Z</time>
      </trkpt>
      <trkpt lat="44.12288" lon="2.25151">
        <ele>320</ele>
        <time>2016-05-04T12:23:40Z</time>
      </trkpt>
      <trkpt lat="44.12288" lon="2.2515">
        <ele>319.7</ele>
        <time>2016-05-04T12:23:41Z</time>
      </trkpt>
      <trkpt lat="44.12271" lon="2.25137">
        <ele>316.6</ele>
        <time>2016-05-04T12:24:00Z</time>
      </trkpt>
      <trkpt lat="44.1227" lon="2.25137">
        <ele>316.3</ele>
        <time>2016-05-04T12:24:01Z</time>
      </trkpt>
      <trkpt lat="44.12268" lon="2.25136">
        <ele>316.1</ele>
        <time>2016-05-04T12:24:02Z</time>
      </trkpt>
      <trkpt lat="44.12266" lon="2.25136">
        <ele>315.9</ele>
        <time>2016-05-04T12:24:03Z</time>
      </trkpt>
      <trkpt lat="44.12265" lon="2.25135">
        <ele>315.6</ele>
        <time>2016-05-04T12:24:04Z</time>
      </trkpt>
      <trkpt lat="44.12264" lon="2.25134">
        <ele>315.4</ele>
        <time>2016-05-04T12:24:05Z</time>
      </trkpt>
      <trkpt lat="44.12263" lon="2.25133">
        <ele>315.2</ele>
        <time>2016-05-04T12:24:06Z</time>
      </trkpt>
      <trkpt lat="44.12262" lon="2.25132">
        <ele>315.2</ele>
        <time>2016-05-04T12:24:07Z</time>
      </trkpt>
      <trkpt lat="44.12261" lon="2.25131">
        <ele>315.3</ele>
        <time>2016-05-04T12:24:08Z</time>
      </trkpt>
      <trkpt lat="44.1226" lon="2.2513">
        <ele>315.3</ele>
        <time>2016-05-04T12:24:09Z</time>
      </trkpt>
      <trkpt lat="44.12259" lon="2.25129">
        <ele>315.4</ele>
        <time>2016-05-04T12:24:10Z</time>
      </trkpt>
      <trkpt lat="44.12253" lon="2.25121">
        <ele>315.2</ele>
        <time>2016-05-04T12:24:16Z</time>
      </trkpt>
      <trkpt lat="44.12238" lon="2.2511">
        <ele>313.9</ele>
        <time>2016-05-04T12:24:28Z</time>
      </trkpt>
      <trkpt lat="44.12237" lon="2.2511">
        <ele>313.8</ele>
        <time>2016-05-04T12:24:29Z</time>
      </trkpt>
      <trkpt lat="44.12236" lon="2.2511">
        <ele>313.8</ele>
        <time>2016-05-04T12:24:30Z</time>
      </trkpt>
      <trkpt lat="44.12235" lon="2.25109">
        <ele>313.8</ele>
        <time>2016-05-04T12:24:31Z</time>
      </trkpt>
      <trkpt lat="44.12235" lon="2.25109">
        <ele>313.8</ele>
        <time>2016-05-04T12:24:32Z</time>
      </trkpt>
      <trkpt lat="44.12234" lon="2.25109">
        <ele>313.8</ele>
        <time>2016-05-04T12:24:33Z</time>
      </trkpt>
      <trkpt lat="44.12233" lon="2.25108">
        <ele>314</ele>
        <time>2016-05-04T12:24:34Z</time>
      </trkpt>
      <trkpt lat="44.12232" lon="2.25108">
        <ele>314.1</ele>
        <time>2016-05-04T12:24:35Z</time>
      </trkpt>
      <trkpt lat="44.12232" lon="2.25108">
        <ele>314.2</ele>
        <time>2016-05-04T12:24:36Z</time>
      </trkpt>
      <trkpt lat="44.12231" lon="2.25107">
        <ele>314.5</ele>
        <time>2016-05-04T12:24:37Z</time>
      </trkpt>
      <trkpt lat="44.1223" lon="2.25107">
        <ele>314.8</ele>
        <time>2016-05-04T12:24:38Z</time>
      </trkpt>
      <trkpt lat="44.1223" lon="2.25107">
        <ele>314.9</ele>
        <time>2016-05-04T12:24:39Z</time>
      </trkpt>
      <trkpt lat="44.1223" lon="2.25106">
        <ele>314.9</ele>
        <time>2016-05-04T12:24:40Z</time>
      </trkpt>
      <trkpt lat="44.1223" lon="2.25106">
        <ele>314.8</ele>
        <time>2016-05-04T12:24:41Z</time>
      </trkpt>
      <trkpt lat="44.12229" lon="2.25106">
        <ele>314.7</ele>
        <time>2016-05-04T12:24:42Z</time>
      </trkpt>
      <trkpt lat="44.12229" lon="2.25105">
        <ele>314.5</ele>
        <time>2016-05-04T12:24:43Z</time>
      </trkpt>
      <trkpt lat="44.12231" lon="2.25095">
        <ele>314.1</ele>
        <time>2016-05-04T12:25:02Z</time>
      </trkpt>
      <trkpt lat="44.12231" lon="2.25095">
        <ele>314</ele>
        <time>2016-05-04T12:25:03Z</time>
      </trkpt>
      <trkpt lat="44.12231" lon="2.25095">
        <ele>313.9</ele>
        <time>2016-05-04T12:25:04Z</time>
      </trkpt>
      <trkpt lat="44.1223" lon="2.25094">
        <ele>313.9</ele>
        <time>2016-05-04T12:25:05Z</time>
      </trkpt>
      <trkpt lat="44.1223" lon="2.25094">
        <ele>313.9</ele>
        <time>2016-05-04T12:25:06Z</time>
      </trkpt>
      <trkpt lat="44.12229" lon="2.25093">
        <ele>314</ele>
        <time>2016-05-04T12:25:07Z</time>
      </trkpt>
      <trkpt lat="44.12212" lon="2.25093">
        <ele>313.9</ele>
        <time>2016-05-04T12:25:21Z</time>
      </trkpt>
      <trkpt lat="44.12211" lon="2.25093">
        <ele>313.8</ele>
        <time>2016-05-04T12:25:22Z</time>
      </trkpt>
      <trkpt lat="44.12209" lon="2.25091">
        <ele>313.8</ele>
        <time>2016-05-04T12:25:24Z</time>
      </trkpt>
      <trkpt lat="44.12199" lon="2.25081">
        <ele>314</ele>
        <time>2016-05-04T12:25:34Z</time>
      </trkpt>
      <trkpt lat="44.12168" lon="2.25056">
        <ele>313.9</ele>
        <time>2016-05-04T12:26:03Z</time>
      </trkpt>
      <trkpt lat="44.12167" lon="2.25055">
        <ele>313.8</ele>
        <time>2016-05-04T12:26:04Z</time>
      </trkpt>
      <trkpt lat="44.12166" lon="2.25053">
        <ele>313.8</ele>
        <time>2016-05-04T12:26:06Z</time>
      </trkpt>
      <trkpt lat="44.1216" lon="2.25048">
        <ele>313.3</ele>
        <time>2016-05-04T12:26:12Z</time>
      </trkpt>
      <trkpt lat="44.1214" lon="2.25041">
        <ele>313.3</ele>
        <time>2016-05-04T12:26:24Z</time>
      </trkpt>
      <trkpt lat="44.12138" lon="2.25041">
        <ele>313.2</ele>
        <time>2016-05-04T12:26:25Z</time>
      </trkpt>
      <trkpt lat="44.12136" lon="2.25041">
        <ele>313.1</ele>
        <time>2016-05-04T12:26:26Z</time>
      </trkpt>
      <trkpt lat="44.12135" lon="2.25041">
        <ele>313.1</ele>
        <time>2016-05-04T12:26:27Z</time>
      </trkpt>
      <trkpt lat="44.12133" lon="2.2504">
        <ele>313.5</ele>
        <time>2016-05-04T12:26:28Z</time>
      </trkpt>
      <trkpt lat="44.12132" lon="2.2504">
        <ele>313.7</ele>
        <time>2016-05-04T12:26:29Z</time>
      </trkpt>
      <trkpt lat="44.1213" lon="2.2504">
        <ele>313.9</ele>
        <time>2016-05-04T12:26:30Z</time>
      </trkpt>
      <trkpt lat="44.12129" lon="2.25039">
        <ele>314.1</ele>
        <time>2016-05-04T12:26:31Z</time>
      </trkpt>
      <trkpt lat="44.12128" lon="2.25039">
        <ele>314.2</ele>
        <time>2016-05-04T12:26:32Z</time>
      </trkpt>
      <trkpt lat="44.12127" lon="2.25038">
        <ele>314.3</ele>
        <time>2016-05-04T12:26:33Z</time>
      </trkpt>
      <trkpt lat="44.12126" lon="2.25038">
        <ele>314.2</ele>
        <time>2016-05-04T12:26:34Z</time>
      </trkpt>
      <trkpt lat="44.12115" lon="2.25032">
        <ele>313.6</ele>
        <time>2016-05-04T12:26:43Z</time>
      </trkpt>
      <trkpt lat="44.1211" lon="2.25032">
        <ele>313.6</ele>
        <time>2016-05-04T12:26:46Z</time>
      </trkpt>
      <trkpt lat="44.12056" lon="2.25027">
        <ele>314.4</ele>
        <time>2016-05-04T12:27:25Z</time>
      </trkpt>
      <trkpt lat="44.12055" lon="2.25027">
        <ele>314.5</ele>
        <time>2016-05-04T12:27:26Z</time>
      </trkpt>
      <trkpt lat="44.12039" lon="2.25024">
        <ele>315.6</ele>
        <time>2016-05-04T12:27:43Z</time>
      </trkpt>
      <trkpt lat="44.12037" lon="2.25024">
        <ele>315.9</ele>
        <time>2016-05-04T12:27:45Z</time>
      </trkpt>
      <trkpt lat="44.12031" lon="2.25027">
        <ele>315.5</ele>
        <time>2016-05-04T12:27:51Z</time>
      </trkpt>
      <trkpt lat="44.12031" lon="2.25028">
        <ele>315.5</ele>
        <time>2016-05-04T12:27:52Z</time>
      </trkpt>
      <trkpt lat="44.1203" lon="2.25029">
        <ele>315.5</ele>
        <time>2016-05-04T12:27:53Z</time>
      </trkpt>
      <trkpt lat="44.12028" lon="2.2503">
        <ele>315.5</ele>
        <time>2016-05-04T12:27:54Z</time>
      </trkpt>
      <trkpt lat="44.12027" lon="2.25031">
        <ele>315.5</ele>
        <time>2016-05-04T12:27:55Z</time>
      </trkpt>
      <trkpt lat="44.12026" lon="2.25032">
        <ele>315.5</ele>
        <time>2016-05-04T12:27:56Z</time>
      </trkpt>
      <trkpt lat="44.12025" lon="2.25033">
        <ele>315.5</ele>
        <time>2016-05-04T12:27:57Z</time>
      </trkpt>
      <trkpt lat="44.12024" lon="2.25034">
        <ele>315.2</ele>
        <time>2016-05-04T12:27:58Z</time>
      </trkpt>
      <trkpt lat="44.12023" lon="2.25035">
        <ele>315.1</ele>
        <time>2016-05-04T12:27:59Z</time>
      </trkpt>
      <trkpt lat="44.12021" lon="2.25036">
        <ele>315</ele>
        <time>2016-05-04T12:28:00Z</time>
      </trkpt>
      <trkpt lat="44.11995" lon="2.25056">
        <ele>315.4</ele>
        <time>2016-05-04T12:28:22Z</time>
      </trkpt>
      <trkpt lat="44.11994" lon="2.25057">
        <ele>315.4</ele>
        <time>2016-05-04T12:28:24Z</time>
      </trkpt>
      <trkpt lat="44.11994" lon="2.25057">
        <ele>315.7</ele>
        <time>2016-05-04T12:28:25Z</time>
      </trkpt>
      <trkpt lat="44.11994" lon="2.25057">
        <ele>315.8</ele>
        <time>2016-05-04T12:28:26Z</time>
      </trkpt>
      <trkpt lat="44.11994" lon="2.25057">
        <ele>315.9</ele>
        <time>2016-05-04T12:28:27Z</time>
      </trkpt>
      <trkpt lat="44.11993" lon="2.25058">
        <ele>316.2</ele>
        <time>2016-05-04T12:28:28Z</time>
      </trkpt>
      <trkpt lat="44.11991" lon="2.25061">
        <ele>316.5</ele>
        <time>2016-05-04T12:28:32Z</time>
      </trkpt>
      <trkpt lat="44.1199" lon="2.25062">
        <ele>316.4</ele>
        <time>2016-05-04T12:28:33Z</time>
      </trkpt>
      <trkpt lat="44.11989" lon="2.25064">
        <ele>316.4</ele>
        <time>2016-05-04T12:28:35Z</time>
      </trkpt>
      <trkpt lat="44.11988" lon="2.25066">
        <ele>316.4</ele>
        <time>2016-05-04T12:28:36Z</time>
      </trkpt>
      <trkpt lat="44.11988" lon="2.25067">
        <ele>316.5</ele>
        <time>2016-05-04T12:28:37Z</time>
      </trkpt>
      <trkpt lat="44.11987" lon="2.25069">
        <ele>316.7</ele>
        <time>2016-05-04T12:28:38Z</time>
      </trkpt>
      <trkpt lat="44.11986" lon="2.25071">
        <ele>316.8</ele>
        <time>2016-05-04T12:28:39Z</time>
      </trkpt>
      <trkpt lat="44.11986" lon="2.25072">
        <ele>316.3</ele>
        <time>2016-05-04T12:28:40Z</time>
      </trkpt>
      <trkpt lat="44.11982" lon="2.25079">
        <ele>316</ele>
        <time>2016-05-04T12:28:45Z</time>
      </trkpt>
      <trkpt lat="44.11982" lon="2.2508">
        <ele>315.8</ele>
        <time>2016-05-04T12:28:46Z</time>
      </trkpt>
      <trkpt lat="44.11981" lon="2.25081">
        <ele>315.7</ele>
        <time>2016-05-04T12:28:47Z</time>
      </trkpt>
      <trkpt lat="44.11981" lon="2.25081">
        <ele>315.7</ele>
        <time>2016-05-04T12:28:48Z</time>
      </trkpt>
      <trkpt lat="44.11981" lon="2.25082">
        <ele>315.8</ele>
        <time>2016-05-04T12:28:49Z</time>
      </trkpt>
      <trkpt lat="44.1198" lon="2.25082">
        <ele>315.9</ele>
        <time>2016-05-04T12:28:50Z</time>
      </trkpt>
      <trkpt lat="44.1198" lon="2.25082">
        <ele>316</ele>
        <time>2016-05-04T12:28:51Z</time>
      </trkpt>
      <trkpt lat="44.1198" lon="2.25082">
        <ele>316.3</ele>
        <time>2016-05-04T12:28:52Z</time>
      </trkpt>
      <trkpt lat="44.1198" lon="2.25082">
        <ele>316.5</ele>
        <time>2016-05-04T12:28:53Z</time>
      </trkpt>
      <trkpt lat="44.11979" lon="2.25082">
        <ele>316.7</ele>
        <time>2016-05-04T12:28:54Z</time>
      </trkpt>
      <trkpt lat="44.11979" lon="2.25083">
        <ele>316.6</ele>
        <time>2016-05-04T12:28:55Z</time>
      </trkpt>
      <trkpt lat="44.11979" lon="2.25084">
        <ele>316.5</ele>
        <time>2016-05-04T12:28:56Z</time>
      </trkpt>
      <trkpt lat="44.11978" lon="2.25084">
        <ele>316.5</ele>
        <time>2016-05-04T12:28:57Z</time>
      </trkpt>
      <trkpt lat="44.11978" lon="2.25085">
        <ele>316.4</ele>
        <time>2016-05-04T12:28:58Z</time>
      </trkpt>
      <trkpt lat="44.11978" lon="2.25087">
        <ele>316.4</ele>
        <time>2016-05-04T12:28:59Z</time>
      </trkpt>
      <trkpt lat="44.11978" lon="2.25088">
        <ele>316.4</ele>
        <time>2016-05-04T12:29:00Z</time>
      </trkpt>
      <trkpt lat="44.11978" lon="2.25089">
        <ele>315.9</ele>
        <time>2016-05-04T12:29:01Z</time>
      </trkpt>
      <trkpt lat="44.11977" lon="2.2509">
        <ele>315.6</ele>
        <time>2016-05-04T12:29:02Z</time>
      </trkpt>
      <trkpt lat="44.11977" lon="2.25091">
        <ele>315.3</ele>
        <time>2016-05-04T12:29:03Z</time>
      </trkpt>
      <trkpt lat="44.11976" lon="2.25092">
        <ele>315.8</ele>
        <time>2016-05-04T12:29:04Z</time>
      </trkpt>
      <trkpt lat="44.11976" lon="2.25094">
        <ele>316.1</ele>
        <time>2016-05-04T12:29:05Z</time>
      </trkpt>
      <trkpt lat="44.11975" lon="2.25096">
        <ele>316.4</ele>
        <time>2016-05-04T12:29:06Z</time>
      </trkpt>
      <trkpt lat="44.11974" lon="2.25097">
        <ele>316.1</ele>
        <time>2016-05-04T12:29:07Z</time>
      </trkpt>
      <trkpt lat="44.11974" lon="2.25099">
        <ele>316</ele>
        <time>2016-05-04T12:29:08Z</time>
      </trkpt>
      <trkpt lat="44.11973" lon="2.25101">
        <ele>315.8</ele>
        <time>2016-05-04T12:29:09Z</time>
      </trkpt>
      <trkpt lat="44.11972" lon="2.25103">
        <ele>316.2</ele>
        <time>2016-05-04T12:29:10Z</time>
      </trkpt>
      <trkpt lat="44.11971" lon="2.25105">
        <ele>316.4</ele>
        <time>2016-05-04T12:29:11Z</time>
      </trkpt>
      <trkpt lat="44.1197" lon="2.25107">
        <ele>316.6</ele>
        <time>2016-05-04T12:29:12Z</time>
      </trkpt>
      <trkpt lat="44.11969" lon="2.25109">
        <ele>316.5</ele>
        <time>2016-05-04T12:29:13Z</time>
      </trkpt>
      <trkpt lat="44.11969" lon="2.25111">
        <ele>316.5</ele>
        <time>2016-05-04T12:29:14Z</time>
      </trkpt>
      <trkpt lat="44.11968" lon="2.25113">
        <ele>316.4</ele>
        <time>2016-05-04T12:29:15Z</time>
      </trkpt>
      <trkpt lat="44.11967" lon="2.25114">
        <ele>316.2</ele>
        <time>2016-05-04T12:29:16Z</time>
      </trkpt>
      <trkpt lat="44.11967" lon="2.25116">
        <ele>316</ele>
        <time>2016-05-04T12:29:17Z</time>
      </trkpt>
      <trkpt lat="44.11966" lon="2.25117">
        <ele>315.9</ele>
        <time>2016-05-04T12:29:18Z</time>
      </trkpt>
      <trkpt lat="44.11966" lon="2.25119">
        <ele>316.2</ele>
        <time>2016-05-04T12:29:19Z</time>
      </trkpt>
      <trkpt lat="44.11965" lon="2.2512">
        <ele>316.4</ele>
        <time>2016-05-04T12:29:20Z</time>
      </trkpt>
      <trkpt lat="44.11965" lon="2.25121">
        <ele>316.6</ele>
        <time>2016-05-04T12:29:21Z</time>
      </trkpt>
      <trkpt lat="44.11964" lon="2.25123">
        <ele>316.1</ele>
        <time>2016-05-04T12:29:22Z</time>
      </trkpt>
      <trkpt lat="44.11963" lon="2.25124">
        <ele>315.7</ele>
        <time>2016-05-04T12:29:23Z</time>
      </trkpt>
      <trkpt lat="44.11963" lon="2.25126">
        <ele>315.4</ele>
        <time>2016-05-04T12:29:24Z</time>
      </trkpt>
      <trkpt lat="44.11955" lon="2.25149">
        <ele>316.5</ele>
        <time>2016-05-04T12:29:37Z</time>
      </trkpt>
      <trkpt lat="44.11954" lon="2.25151">
        <ele>316.3</ele>
        <time>2016-05-04T12:29:38Z</time>
      </trkpt>
      <trkpt lat="44.11946" lon="2.25168">
        <ele>316.9</ele>
        <time>2016-05-04T12:29:49Z</time>
      </trkpt>
      <trkpt lat="44.11944" lon="2.25174">
        <ele>316.3</ele>
        <time>2016-05-04T12:29:54Z</time>
      </trkpt>
      <trkpt lat="44.11943" lon="2.25176">
        <ele>316.3</ele>
        <time>2016-05-04T12:29:55Z</time>
      </trkpt>
      <trkpt lat="44.11943" lon="2.25181">
        <ele>316.1</ele>
        <time>2016-05-04T12:29:58Z</time>
      </trkpt>
      <trkpt lat="44.11941" lon="2.25195">
        <ele>316.5</ele>
        <time>2016-05-04T12:30:04Z</time>
      </trkpt>
      <trkpt lat="44.11941" lon="2.25197">
        <ele>316.5</ele>
        <time>2016-05-04T12:30:05Z</time>
      </trkpt>
      <trkpt lat="44.11936" lon="2.25214">
        <ele>316.9</ele>
        <time>2016-05-04T12:30:13Z</time>
      </trkpt>
      <trkpt lat="44.11934" lon="2.2522">
        <ele>317.3</ele>
        <time>2016-05-04T12:30:16Z</time>
      </trkpt>
      <trkpt lat="44.11926" lon="2.25248">
        <ele>318.9</ele>
        <time>2016-05-04T12:30:32Z</time>
      </trkpt>
      <trkpt lat="44.11924" lon="2.25254">
        <ele>319.5</ele>
        <time>2016-05-04T12:30:36Z</time>
      </trkpt>
      <trkpt lat="44.1192" lon="2.25271">
        <ele>321.7</ele>
        <time>2016-05-04T12:30:48Z</time>
      </trkpt>
      <trkpt lat="44.1192" lon="2.25272">
        <ele>321.8</ele>
        <time>2016-05-04T12:30:49Z</time>
      </trkpt>
      <trkpt lat="44.11917" lon="2.25284">
        <ele>322.6</ele>
        <time>2016-05-04T12:30:58Z</time>
      </trkpt>
      <trkpt lat="44.11916" lon="2.25286">
        <ele>323</ele>
        <time>2016-05-04T12:30:59Z</time>
      </trkpt>
      <trkpt lat="44.11916" lon="2.25288">
        <ele>323.2</ele>
        <time>2016-05-04T12:31:00Z</time>
      </trkpt>
      <trkpt lat="44.11916" lon="2.2529">
        <ele>323.2</ele>
        <time>2016-05-04T12:31:01Z</time>
      </trkpt>
      <trkpt lat="44.11915" lon="2.25291">
        <ele>323.2</ele>
        <time>2016-05-04T12:31:02Z</time>
      </trkpt>
      <trkpt lat="44.11915" lon="2.25293">
        <ele>323.1</ele>
        <time>2016-05-04T12:31:03Z</time>
      </trkpt>
      <trkpt lat="44.11915" lon="2.25294">
        <ele>323.1</ele>
        <time>2016-05-04T12:31:04Z</time>
      </trkpt>
      <trkpt lat="44.11915" lon="2.25296">
        <ele>323.1</ele>
        <time>2016-05-04T12:31:05Z</time>
      </trkpt>
      <trkpt lat="44.11915" lon="2.25297">
        <ele>323.1</ele>
        <time>2016-05-04T12:31:06Z</time>
      </trkpt>
      <trkpt lat="44.11915" lon="2.25298">
        <ele>323.1</ele>
        <time>2016-05-04T12:31:07Z</time>
      </trkpt>
      <trkpt lat="44.11915" lon="2.25299">
        <ele>323.1</ele>
        <time>2016-05-04T12:31:08Z</time>
      </trkpt>
      <trkpt lat="44.11915" lon="2.253">
        <ele>323.1</ele>
        <time>2016-05-04T12:31:09Z</time>
      </trkpt>
      <trkpt lat="44.11915" lon="2.253">
        <ele>323.1</ele>
        <time>2016-05-04T12:31:10Z</time>
      </trkpt>
      <trkpt lat="44.11915" lon="2.25301">
        <ele>323.1</ele>
        <time>2016-05-04T12:31:11Z</time>
      </trkpt>
      <trkpt lat="44.11915" lon="2.25301">
        <ele>323.1</ele>
        <time>2016-05-04T12:31:12Z</time>
      </trkpt>
      <trkpt lat="44.11914" lon="2.25301">
        <ele>323.1</ele>
        <time>2016-05-04T12:31:13Z</time>
      </trkpt>
      <trkpt lat="44.11914" lon="2.25302">
        <ele>323.1</ele>
        <time>2016-05-04T12:31:14Z</time>
      </trkpt>
      <trkpt lat="44.11914" lon="2.25302">
        <ele>323.1</ele>
        <time>2016-05-04T12:31:15Z</time>
      </trkpt>
      <trkpt lat="44.11914" lon="2.25302">
        <ele>323.1</ele>
        <time>2016-05-04T12:31:16Z</time>
      </trkpt>
      <trkpt lat="44.11913" lon="2.25302">
        <ele>323.1</ele>
        <time>2016-05-04T12:31:17Z</time>
      </trkpt>
      <trkpt lat="44.11913" lon="2.25303">
        <ele>323.1</ele>
        <time>2016-05-04T12:31:18Z</time>
      </trkpt>
      <trkpt lat="44.11913" lon="2.25303">
        <ele>323.1</ele>
        <time>2016-05-04T12:31:19Z</time>
      </trkpt>
      <trkpt lat="44.11913" lon="2.25303">
        <ele>323.1</ele>
        <time>2016-05-04T12:31:20Z</time>
      </trkpt>
      <trkpt lat="44.11913" lon="2.25303">
        <ele>323.1</ele>
        <time>2016-05-04T12:31:21Z</time>
      </trkpt>
      <trkpt lat="44.11914" lon="2.25303">
        <ele>322.9</ele>
        <time>2016-05-04T12:31:22Z</time>
      </trkpt>
      <trkpt lat="44.11914" lon="2.25304">
        <ele>322.6</ele>
        <time>2016-05-04T12:31:24Z</time>
      </trkpt>
      <trkpt lat="44.11914" lon="2.25304">
        <ele>323.2</ele>
        <time>2016-05-04T12:31:25Z</time>
      </trkpt>
      <trkpt lat="44.11914" lon="2.25305">
        <ele>323.6</ele>
        <time>2016-05-04T12:31:26Z</time>
      </trkpt>
      <trkpt lat="44.11916" lon="2.25312">
        <ele>323.9</ele>
        <time>2016-05-04T12:31:30Z</time>
      </trkpt>
      <trkpt lat="44.11916" lon="2.25314">
        <ele>323.5</ele>
        <time>2016-05-04T12:31:31Z</time>
      </trkpt>
      <trkpt lat="44.11923" lon="2.25338">
        <ele>322.2</ele>
        <time>2016-05-04T12:31:45Z</time>
      </trkpt>
      <trkpt lat="44.11924" lon="2.25341">
        <ele>322.2</ele>
        <time>2016-05-04T12:31:46Z</time>
      </trkpt>
      <trkpt lat="44.11924" lon="2.25344">
        <ele>322.2</ele>
        <time>2016-05-04T12:31:47Z</time>
      </trkpt>
      <trkpt lat="44.11924" lon="2.25347">
        <ele>322.2</ele>
        <time>2016-05-04T12:31:48Z</time>
      </trkpt>
      <trkpt lat="44.11925" lon="2.2535">
        <ele>322.2</ele>
        <time>2016-05-04T12:31:49Z</time>
      </trkpt>
      <trkpt lat="44.11925" lon="2.25352">
        <ele>322.2</ele>
        <time>2016-05-04T12:31:50Z</time>
      </trkpt>
      <trkpt lat="44.11925" lon="2.25354">
        <ele>322.2</ele>
        <time>2016-05-04T12:31:51Z</time>
      </trkpt>
      <trkpt lat="44.11925" lon="2.25356">
        <ele>322.2</ele>
        <time>2016-05-04T12:31:52Z</time>
      </trkpt>
      <trkpt lat="44.11925" lon="2.25357">
        <ele>322.2</ele>
        <time>2016-05-04T12:31:53Z</time>
      </trkpt>
      <trkpt lat="44.11925" lon="2.25359">
        <ele>322.2</ele>
        <time>2016-05-04T12:31:54Z</time>
      </trkpt>
      <trkpt lat="44.11925" lon="2.2536">
        <ele>322.2</ele>
        <time>2016-05-04T12:31:55Z</time>
      </trkpt>
      <trkpt lat="44.11925" lon="2.25361">
        <ele>322.2</ele>
        <time>2016-05-04T12:31:56Z</time>
      </trkpt>
      <trkpt lat="44.11924" lon="2.25363">
        <ele>322.2</ele>
        <time>2016-05-04T12:31:57Z</time>
      </trkpt>
      <trkpt lat="44.11924" lon="2.25364">
        <ele>322.5</ele>
        <time>2016-05-04T12:31:58Z</time>
      </trkpt>
      <trkpt lat="44.11924" lon="2.25365">
        <ele>322.6</ele>
        <time>2016-05-04T12:31:59Z</time>
      </trkpt>
      <trkpt lat="44.11924" lon="2.25367">
        <ele>322.7</ele>
        <time>2016-05-04T12:32:00Z</time>
      </trkpt>
      <trkpt lat="44.11924" lon="2.25368">
        <ele>322.6</ele>
        <time>2016-05-04T12:32:01Z</time>
      </trkpt>
      <trkpt lat="44.11924" lon="2.2537">
        <ele>322.5</ele>
        <time>2016-05-04T12:32:02Z</time>
      </trkpt>
      <trkpt lat="44.11924" lon="2.25371">
        <ele>322.5</ele>
        <time>2016-05-04T12:32:03Z</time>
      </trkpt>
      <trkpt lat="44.11924" lon="2.25373">
        <ele>322.2</ele>
        <time>2016-05-04T12:32:04Z</time>
      </trkpt>
      <trkpt lat="44.11924" lon="2.25395">
        <ele>322.4</ele>
        <time>2016-05-04T12:32:19Z</time>
      </trkpt>
      <trkpt lat="44.11925" lon="2.25397">
        <ele>322.6</ele>
        <time>2016-05-04T12:32:20Z</time>
      </trkpt>
      <trkpt lat="44.11925" lon="2.25457">
        <ele>322.1</ele>
        <time>2016-05-04T12:32:50Z</time>
      </trkpt>
      <trkpt lat="44.11925" lon="2.25459">
        <ele>322.1</ele>
        <time>2016-05-04T12:32:51Z</time>
      </trkpt>
      <trkpt lat="44.11924" lon="2.25476">
        <ele>322.8</ele>
        <time>2016-05-04T12:33:00Z</time>
      </trkpt>
      <trkpt lat="44.11925" lon="2.25479">
        <ele>322.2</ele>
        <time>2016-05-04T12:33:02Z</time>
      </trkpt>
      <trkpt lat="44.11926" lon="2.25489">
        <ele>322.2</ele>
        <time>2016-05-04T12:33:07Z</time>
      </trkpt>
      <trkpt lat="44.11926" lon="2.255">
        <ele>322</ele>
        <time>2016-05-04T12:33:13Z</time>
      </trkpt>
      <trkpt lat="44.11926" lon="2.25512">
        <ele>322.5</ele>
        <time>2016-05-04T12:33:19Z</time>
      </trkpt>
      <trkpt lat="44.11926" lon="2.25514">
        <ele>322.9</ele>
        <time>2016-05-04T12:33:20Z</time>
      </trkpt>
      <trkpt lat="44.11926" lon="2.25517">
        <ele>323.1</ele>
        <time>2016-05-04T12:33:21Z</time>
      </trkpt>
      <trkpt lat="44.11926" lon="2.25527">
        <ele>322.1</ele>
        <time>2016-05-04T12:33:26Z</time>
      </trkpt>
      <trkpt lat="44.11926" lon="2.25529">
        <ele>321.9</ele>
        <time>2016-05-04T12:33:27Z</time>
      </trkpt>
      <trkpt lat="44.11926" lon="2.25532">
        <ele>322.4</ele>
        <time>2016-05-04T12:33:29Z</time>
      </trkpt>
      <trkpt lat="44.11926" lon="2.25534">
        <ele>322.6</ele>
        <time>2016-05-04T12:33:30Z</time>
      </trkpt>
      <trkpt lat="44.11926" lon="2.25537">
        <ele>322.4</ele>
        <time>2016-05-04T12:33:32Z</time>
      </trkpt>
      <trkpt lat="44.11926" lon="2.25539">
        <ele>322.4</ele>
        <time>2016-05-04T12:33:33Z</time>
      </trkpt>
      <trkpt lat="44.11926" lon="2.2554">
        <ele>322.6</ele>
        <time>2016-05-04T12:33:34Z</time>
      </trkpt>
      <trkpt lat="44.11926" lon="2.25542">
        <ele>322.7</ele>
        <time>2016-05-04T12:33:35Z</time>
      </trkpt>
      <trkpt lat="44.11926" lon="2.25543">
        <ele>322.8</ele>
        <time>2016-05-04T12:33:36Z</time>
      </trkpt>
      <trkpt lat="44.11926" lon="2.25545">
        <ele>322.7</ele>
        <time>2016-05-04T12:33:37Z</time>
      </trkpt>
      <trkpt lat="44.11925" lon="2.25547">
        <ele>322.6</ele>
        <time>2016-05-04T12:33:38Z</time>
      </trkpt>
      <trkpt lat="44.11925" lon="2.25548">
        <ele>322.5</ele>
        <time>2016-05-04T12:33:39Z</time>
      </trkpt>
      <trkpt lat="44.11925" lon="2.2555">
        <ele>322.4</ele>
        <time>2016-05-04T12:33:40Z</time>
      </trkpt>
      <trkpt lat="44.11924" lon="2.25553">
        <ele>322.4</ele>
        <time>2016-05-04T12:33:41Z</time>
      </trkpt>
      <trkpt lat="44.1192" lon="2.25562">
        <ele>322.3</ele>
        <time>2016-05-04T12:33:45Z</time>
      </trkpt>
      <trkpt lat="44.11914" lon="2.2557">
        <ele>322.5</ele>
        <time>2016-05-04T12:33:49Z</time>
      </trkpt>
      <trkpt lat="44.11897" lon="2.25591">
        <ele>322.3</ele>
        <time>2016-05-04T12:34:05Z</time>
      </trkpt>
      <trkpt lat="44.11896" lon="2.25592">
        <ele>322.3</ele>
        <time>2016-05-04T12:34:06Z</time>
      </trkpt>
      <trkpt lat="44.11894" lon="2.25596">
        <ele>322.3</ele>
        <time>2016-05-04T12:34:09Z</time>
      </trkpt>
      <trkpt lat="44.11894" lon="2.25597">
        <ele>322.5</ele>
        <time>2016-05-04T12:34:10Z</time>
      </trkpt>
      <trkpt lat="44.11894" lon="2.25608">
        <ele>322.8</ele>
        <time>2016-05-04T12:34:18Z</time>
      </trkpt>
      <trkpt lat="44.11894" lon="2.25609">
        <ele>322.7</ele>
        <time>2016-05-04T12:34:19Z</time>
      </trkpt>
      <trkpt lat="44.11894" lon="2.25611">
        <ele>322.6</ele>
        <time>2016-05-04T12:34:20Z</time>
      </trkpt>
      <trkpt lat="44.11894" lon="2.25613">
        <ele>322.5</ele>
        <time>2016-05-04T12:34:21Z</time>
      </trkpt>
      <trkpt lat="44.11894" lon="2.25615">
        <ele>322.4</ele>
        <time>2016-05-04T12:34:22Z</time>
      </trkpt>
      <trkpt lat="44.11894" lon="2.25617">
        <ele>322.4</ele>
        <time>2016-05-04T12:34:23Z</time>
      </trkpt>
      <trkpt lat="44.11893" lon="2.2562">
        <ele>322.3</ele>
        <time>2016-05-04T12:34:24Z</time>
      </trkpt>
      <trkpt lat="44.11893" lon="2.25623">
        <ele>322.1</ele>
        <time>2016-05-04T12:34:25Z</time>
      </trkpt>
      <trkpt lat="44.11892" lon="2.25626">
        <ele>321.9</ele>
        <time>2016-05-04T12:34:26Z</time>
      </trkpt>
      <trkpt lat="44.11891" lon="2.25629">
        <ele>321.8</ele>
        <time>2016-05-04T12:34:27Z</time>
      </trkpt>
      <trkpt lat="44.11891" lon="2.25631">
        <ele>322.3</ele>
        <time>2016-05-04T12:34:28Z</time>
      </trkpt>
      <trkpt lat="44.1189" lon="2.25633">
        <ele>322.7</ele>
        <time>2016-05-04T12:34:29Z</time>
      </trkpt>
      <trkpt lat="44.11889" lon="2.25635">
        <ele>323</ele>
        <time>2016-05-04T12:34:30Z</time>
      </trkpt>
      <trkpt lat="44.11888" lon="2.25637">
        <ele>322.8</ele>
        <time>2016-05-04T12:34:31Z</time>
      </trkpt>
      <trkpt lat="44.11887" lon="2.25639">
        <ele>322.7</ele>
        <time>2016-05-04T12:34:32Z</time>
      </trkpt>
      <trkpt lat="44.11885" lon="2.25643">
        <ele>322.4</ele>
        <time>2016-05-04T12:34:35Z</time>
      </trkpt>
      <trkpt lat="44.11868" lon="2.25681">
        <ele>322.4</ele>
        <time>2016-05-04T12:35:00Z</time>
      </trkpt>
      <trkpt lat="44.11867" lon="2.25682">
        <ele>322.6</ele>
        <time>2016-05-04T12:35:01Z</time>
      </trkpt>
      <trkpt lat="44.11866" lon="2.25684">
        <ele>322.7</ele>
        <time>2016-05-04T12:35:02Z</time>
      </trkpt>
      <trkpt lat="44.1186" lon="2.25693">
        <ele>322.4</ele>
        <time>2016-05-04T12:35:08Z</time>
      </trkpt>
      <trkpt lat="44.11859" lon="2.25694">
        <ele>322.3</ele>
        <time>2016-05-04T12:35:09Z</time>
      </trkpt>
      <trkpt lat="44.11846" lon="2.25716">
        <ele>323</ele>
        <time>2016-05-04T12:35:26Z</time>
      </trkpt>
      <trkpt lat="44.11844" lon="2.2573">
        <ele>322.9</ele>
        <time>2016-05-04T12:35:35Z</time>
      </trkpt>
      <trkpt lat="44.11843" lon="2.25744">
        <ele>322.2</ele>
        <time>2016-05-04T12:35:43Z</time>
      </trkpt>
      <trkpt lat="44.11843" lon="2.25745">
        <ele>322.2</ele>
        <time>2016-05-04T12:35:44Z</time>
      </trkpt>
      <trkpt lat="44.11843" lon="2.25747">
        <ele>322.6</ele>
        <time>2016-05-04T12:35:45Z</time>
      </trkpt>
      <trkpt lat="44.11842" lon="2.25749">
        <ele>323</ele>
        <time>2016-05-04T12:35:46Z</time>
      </trkpt>
      <trkpt lat="44.11842" lon="2.2575">
        <ele>323.2</ele>
        <time>2016-05-04T12:35:47Z</time>
      </trkpt>
      <trkpt lat="44.11838" lon="2.25773">
        <ele>322.6</ele>
        <time>2016-05-04T12:36:00Z</time>
      </trkpt>
      <trkpt lat="44.11837" lon="2.25774">
        <ele>322.7</ele>
        <time>2016-05-04T12:36:01Z</time>
      </trkpt>
      <trkpt lat="44.11834" lon="2.25783">
        <ele>322.6</ele>
        <time>2016-05-04T12:36:06Z</time>
      </trkpt>
      <trkpt lat="44.11833" lon="2.25786">
        <ele>322.8</ele>
        <time>2016-05-04T12:36:08Z</time>
      </trkpt>
      <trkpt lat="44.11823" lon="2.25802">
        <ele>322.6</ele>
        <time>2016-05-04T12:36:19Z</time>
      </trkpt>
      <trkpt lat="44.11823" lon="2.25804">
        <ele>322.5</ele>
        <time>2016-05-04T12:36:20Z</time>
      </trkpt>
      <trkpt lat="44.11822" lon="2.25806">
        <ele>322.9</ele>
        <time>2016-05-04T12:36:21Z</time>
      </trkpt>
      <trkpt lat="44.11821" lon="2.25808">
        <ele>323.1</ele>
        <time>2016-05-04T12:36:22Z</time>
      </trkpt>
      <trkpt lat="44.11818" lon="2.25819">
        <ele>323.5</ele>
        <time>2016-05-04T12:36:27Z</time>
      </trkpt>
      <trkpt lat="44.11811" lon="2.25846">
        <ele>323.3</ele>
        <time>2016-05-04T12:36:41Z</time>
      </trkpt>
      <trkpt lat="44.1181" lon="2.25847">
        <ele>323.2</ele>
        <time>2016-05-04T12:36:42Z</time>
      </trkpt>
      <trkpt lat="44.11802" lon="2.25868">
        <ele>323.2</ele>
        <time>2016-05-04T12:36:55Z</time>
      </trkpt>
      <trkpt lat="44.11801" lon="2.25873">
        <ele>323.3</ele>
        <time>2016-05-04T12:36:58Z</time>
      </trkpt>
      <trkpt lat="44.11799" lon="2.2588">
        <ele>322.7</ele>
        <time>2016-05-04T12:37:02Z</time>
      </trkpt>
      <trkpt lat="44.11798" lon="2.25895">
        <ele>323.1</ele>
        <time>2016-05-04T12:37:10Z</time>
      </trkpt>
      <trkpt lat="44.11798" lon="2.25897">
        <ele>323.1</ele>
        <time>2016-05-04T12:37:11Z</time>
      </trkpt>
      <trkpt lat="44.11798" lon="2.25899">
        <ele>322.9</ele>
        <time>2016-05-04T12:37:12Z</time>
      </trkpt>
      <trkpt lat="44.11797" lon="2.25901">
        <ele>322.7</ele>
        <time>2016-05-04T12:37:13Z</time>
      </trkpt>
      <trkpt lat="44.11797" lon="2.25903">
        <ele>322.6</ele>
        <time>2016-05-04T12:37:14Z</time>
      </trkpt>
      <trkpt lat="44.11796" lon="2.25905">
        <ele>322.7</ele>
        <time>2016-05-04T12:37:15Z</time>
      </trkpt>
      <trkpt lat="44.11795" lon="2.25907">
        <ele>322.8</ele>
        <time>2016-05-04T12:37:16Z</time>
      </trkpt>
      <trkpt lat="44.11795" lon="2.25909">
        <ele>322.9</ele>
        <time>2016-05-04T12:37:17Z</time>
      </trkpt>
      <trkpt lat="44.11794" lon="2.2591">
        <ele>323.1</ele>
        <time>2016-05-04T12:37:18Z</time>
      </trkpt>
      <trkpt lat="44.11793" lon="2.25912">
        <ele>323.3</ele>
        <time>2016-05-04T12:37:19Z</time>
      </trkpt>
      <trkpt lat="44.11793" lon="2.25913">
        <ele>323.5</ele>
        <time>2016-05-04T12:37:20Z</time>
      </trkpt>
      <trkpt lat="44.11792" lon="2.25914">
        <ele>323.6</ele>
        <time>2016-05-04T12:37:21Z</time>
      </trkpt>
      <trkpt lat="44.11791" lon="2.25916">
        <ele>323.7</ele>
        <time>2016-05-04T12:37:22Z</time>
      </trkpt>
      <trkpt lat="44.1179" lon="2.25917">
        <ele>323.8</ele>
        <time>2016-05-04T12:37:23Z</time>
      </trkpt>
      <trkpt lat="44.11789" lon="2.25918">
        <ele>323.8</ele>
        <time>2016-05-04T12:37:24Z</time>
      </trkpt>
      <trkpt lat="44.11789" lon="2.25919">
        <ele>323.8</ele>
        <time>2016-05-04T12:37:25Z</time>
      </trkpt>
      <trkpt lat="44.11788" lon="2.2592">
        <ele>323.9</ele>
        <time>2016-05-04T12:37:26Z</time>
      </trkpt>
      <trkpt lat="44.11787" lon="2.25921">
        <ele>324.3</ele>
        <time>2016-05-04T12:37:27Z</time>
      </trkpt>
      <trkpt lat="44.11786" lon="2.25923">
        <ele>324.6</ele>
        <time>2016-05-04T12:37:28Z</time>
      </trkpt>
      <trkpt lat="44.11786" lon="2.25924">
        <ele>324.9</ele>
        <time>2016-05-04T12:37:29Z</time>
      </trkpt>
      <trkpt lat="44.11785" lon="2.25925">
        <ele>324.7</ele>
        <time>2016-05-04T12:37:30Z</time>
      </trkpt>
      <trkpt lat="44.11784" lon="2.25926">
        <ele>324.5</ele>
        <time>2016-05-04T12:37:31Z</time>
      </trkpt>
      <trkpt lat="44.11784" lon="2.25928">
        <ele>324.3</ele>
        <time>2016-05-04T12:37:32Z</time>
      </trkpt>
      <trkpt lat="44.11783" lon="2.25929">
        <ele>324.7</ele>
        <time>2016-05-04T12:37:33Z</time>
      </trkpt>
      <trkpt lat="44.11783" lon="2.2593">
        <ele>324.9</ele>
        <time>2016-05-04T12:37:34Z</time>
      </trkpt>
      <trkpt lat="44.11782" lon="2.25931">
        <ele>325.1</ele>
        <time>2016-05-04T12:37:35Z</time>
      </trkpt>
      <trkpt lat="44.11782" lon="2.25933">
        <ele>325.4</ele>
        <time>2016-05-04T12:37:36Z</time>
      </trkpt>
      <trkpt lat="44.11782" lon="2.25934">
        <ele>325.7</ele>
        <time>2016-05-04T12:37:37Z</time>
      </trkpt>
      <trkpt lat="44.11781" lon="2.25935">
        <ele>325.9</ele>
        <time>2016-05-04T12:37:38Z</time>
      </trkpt>
      <trkpt lat="44.11781" lon="2.25937">
        <ele>326.3</ele>
        <time>2016-05-04T12:37:39Z</time>
      </trkpt>
      <trkpt lat="44.11781" lon="2.25938">
        <ele>326.5</ele>
        <time>2016-05-04T12:37:40Z</time>
      </trkpt>
      <trkpt lat="44.11781" lon="2.2594">
        <ele>326.7</ele>
        <time>2016-05-04T12:37:41Z</time>
      </trkpt>
      <trkpt lat="44.1178" lon="2.25941">
        <ele>326.7</ele>
        <time>2016-05-04T12:37:42Z</time>
      </trkpt>
      <trkpt lat="44.1178" lon="2.25943">
        <ele>326.6</ele>
        <time>2016-05-04T12:37:43Z</time>
      </trkpt>
      <trkpt lat="44.11779" lon="2.25944">
        <ele>326.6</ele>
        <time>2016-05-04T12:37:44Z</time>
      </trkpt>
      <trkpt lat="44.11779" lon="2.25945">
        <ele>326.8</ele>
        <time>2016-05-04T12:37:45Z</time>
      </trkpt>
      <trkpt lat="44.11779" lon="2.25947">
        <ele>326.9</ele>
        <time>2016-05-04T12:37:46Z</time>
      </trkpt>
      <trkpt lat="44.11778" lon="2.25948">
        <ele>327</ele>
        <time>2016-05-04T12:37:47Z</time>
      </trkpt>
      <trkpt lat="44.11778" lon="2.25949">
        <ele>326.9</ele>
        <time>2016-05-04T12:37:48Z</time>
      </trkpt>
      <trkpt lat="44.11777" lon="2.2595">
        <ele>326.8</ele>
        <time>2016-05-04T12:37:49Z</time>
      </trkpt>
      <trkpt lat="44.11776" lon="2.25952">
        <ele>326.5</ele>
        <time>2016-05-04T12:37:51Z</time>
      </trkpt>
      <trkpt lat="44.11767" lon="2.25963">
        <ele>326.6</ele>
        <time>2016-05-04T12:38:02Z</time>
      </trkpt>
      <trkpt lat="44.11765" lon="2.25966">
        <ele>326.2</ele>
        <time>2016-05-04T12:38:04Z</time>
      </trkpt>
      <trkpt lat="44.11737" lon="2.2601">
        <ele>324.6</ele>
        <time>2016-05-04T12:38:34Z</time>
      </trkpt>
      <trkpt lat="44.11737" lon="2.26012">
        <ele>324.7</ele>
        <time>2016-05-04T12:38:35Z</time>
      </trkpt>
      <trkpt lat="44.11734" lon="2.26018">
        <ele>324.5</ele>
        <time>2016-05-04T12:38:39Z</time>
      </trkpt>
      <trkpt lat="44.11733" lon="2.26019">
        <ele>324.4</ele>
        <time>2016-05-04T12:38:40Z</time>
      </trkpt>
      <trkpt lat="44.11733" lon="2.26021">
        <ele>324.3</ele>
        <time>2016-05-04T12:38:41Z</time>
      </trkpt>
      <trkpt lat="44.11732" lon="2.26022">
        <ele>324.2</ele>
        <time>2016-05-04T12:38:42Z</time>
      </trkpt>
      <trkpt lat="44.11732" lon="2.26024">
        <ele>324.1</ele>
        <time>2016-05-04T12:38:43Z</time>
      </trkpt>
      <trkpt lat="44.11732" lon="2.26025">
        <ele>324.1</ele>
        <time>2016-05-04T12:38:44Z</time>
      </trkpt>
      <trkpt lat="44.11732" lon="2.26027">
        <ele>324.3</ele>
        <time>2016-05-04T12:38:45Z</time>
      </trkpt>
      <trkpt lat="44.11732" lon="2.26028">
        <ele>324.4</ele>
        <time>2016-05-04T12:38:46Z</time>
      </trkpt>
      <trkpt lat="44.11732" lon="2.26029">
        <ele>324.5</ele>
        <time>2016-05-04T12:38:47Z</time>
      </trkpt>
      <trkpt lat="44.11732" lon="2.2603">
        <ele>324.8</ele>
        <time>2016-05-04T12:38:48Z</time>
      </trkpt>
      <trkpt lat="44.11733" lon="2.2603">
        <ele>325</ele>
        <time>2016-05-04T12:38:49Z</time>
      </trkpt>
      <trkpt lat="44.11733" lon="2.26031">
        <ele>325.2</ele>
        <time>2016-05-04T12:38:50Z</time>
      </trkpt>
      <trkpt lat="44.11734" lon="2.26032">
        <ele>325.3</ele>
        <time>2016-05-04T12:38:51Z</time>
      </trkpt>
      <trkpt lat="44.11734" lon="2.26032">
        <ele>325.4</ele>
        <time>2016-05-04T12:38:52Z</time>
      </trkpt>
      <trkpt lat="44.11735" lon="2.26033">
        <ele>325.4</ele>
        <time>2016-05-04T12:38:53Z</time>
      </trkpt>
      <trkpt lat="44.11735" lon="2.26033">
        <ele>325.5</ele>
        <time>2016-05-04T12:38:54Z</time>
      </trkpt>
      <trkpt lat="44.11736" lon="2.26034">
        <ele>325.5</ele>
        <time>2016-05-04T12:38:55Z</time>
      </trkpt>
      <trkpt lat="44.11737" lon="2.26034">
        <ele>325.6</ele>
        <time>2016-05-04T12:38:56Z</time>
      </trkpt>
      <trkpt lat="44.11738" lon="2.26034">
        <ele>325.4</ele>
        <time>2016-05-04T12:38:57Z</time>
      </trkpt>
      <trkpt lat="44.11738" lon="2.26035">
        <ele>325.2</ele>
        <time>2016-05-04T12:38:58Z</time>
      </trkpt>
      <trkpt lat="44.11739" lon="2.26035">
        <ele>325.1</ele>
        <time>2016-05-04T12:38:59Z</time>
      </trkpt>
      <trkpt lat="44.1174" lon="2.26035">
        <ele>325.3</ele>
        <time>2016-05-04T12:39:00Z</time>
      </trkpt>
      <trkpt lat="44.1174" lon="2.26036">
        <ele>325.3</ele>
        <time>2016-05-04T12:39:01Z</time>
      </trkpt>
      <trkpt lat="44.11741" lon="2.26036">
        <ele>325.4</ele>
        <time>2016-05-04T12:39:02Z</time>
      </trkpt>
      <trkpt lat="44.11741" lon="2.26036">
        <ele>325.1</ele>
        <time>2016-05-04T12:39:03Z</time>
      </trkpt>
      <trkpt lat="44.11742" lon="2.26037">
        <ele>324.8</ele>
        <time>2016-05-04T12:39:04Z</time>
      </trkpt>
      <trkpt lat="44.11743" lon="2.26037">
        <ele>324.6</ele>
        <time>2016-05-04T12:39:05Z</time>
      </trkpt>
      <trkpt lat="44.11743" lon="2.26037">
        <ele>324.8</ele>
        <time>2016-05-04T12:39:06Z</time>
      </trkpt>
      <trkpt lat="44.11744" lon="2.26038">
        <ele>325.2</ele>
        <time>2016-05-04T12:39:08Z</time>
      </trkpt>
      <trkpt lat="44.11745" lon="2.26038">
        <ele>325.5</ele>
        <time>2016-05-04T12:39:09Z</time>
      </trkpt>
      <trkpt lat="44.11746" lon="2.26039">
        <ele>325.8</ele>
        <time>2016-05-04T12:39:10Z</time>
      </trkpt>
      <trkpt lat="44.11747" lon="2.26039">
        <ele>325.9</ele>
        <time>2016-05-04T12:39:11Z</time>
      </trkpt>
      <trkpt lat="44.11747" lon="2.2604">
        <ele>325.9</ele>
        <time>2016-05-04T12:39:12Z</time>
      </trkpt>
      <trkpt lat="44.11748" lon="2.2604">
        <ele>325.8</ele>
        <time>2016-05-04T12:39:13Z</time>
      </trkpt>
      <trkpt lat="44.11749" lon="2.2604">
        <ele>325.8</ele>
        <time>2016-05-04T12:39:14Z</time>
      </trkpt>
      <trkpt lat="44.1175" lon="2.26041">
        <ele>326</ele>
        <time>2016-05-04T12:39:15Z</time>
      </trkpt>
      <trkpt lat="44.11751" lon="2.26041">
        <ele>326.1</ele>
        <time>2016-05-04T12:39:16Z</time>
      </trkpt>
      <trkpt lat="44.11751" lon="2.26041">
        <ele>326.2</ele>
        <time>2016-05-04T12:39:17Z</time>
      </trkpt>
      <trkpt lat="44.11752" lon="2.26042">
        <ele>326.3</ele>
        <time>2016-05-04T12:39:18Z</time>
      </trkpt>
      <trkpt lat="44.11753" lon="2.26042">
        <ele>326.3</ele>
        <time>2016-05-04T12:39:19Z</time>
      </trkpt>
      <trkpt lat="44.11754" lon="2.26042">
        <ele>326.4</ele>
        <time>2016-05-04T12:39:20Z</time>
      </trkpt>
      <trkpt lat="44.11755" lon="2.26042">
        <ele>326.4</ele>
        <time>2016-05-04T12:39:21Z</time>
      </trkpt>
      <trkpt lat="44.11755" lon="2.26043">
        <ele>326.4</ele>
        <time>2016-05-04T12:39:22Z</time>
      </trkpt>
      <trkpt lat="44.11756" lon="2.26043">
        <ele>326.4</ele>
        <time>2016-05-04T12:39:23Z</time>
      </trkpt>
      <trkpt lat="44.11758" lon="2.26042">
        <ele>325.8</ele>
        <time>2016-05-04T12:39:24Z</time>
      </trkpt>
      <trkpt lat="44.11759" lon="2.26042">
        <ele>325.4</ele>
        <time>2016-05-04T12:39:25Z</time>
      </trkpt>
      <trkpt lat="44.1176" lon="2.26042">
        <ele>325</ele>
        <time>2016-05-04T12:39:26Z</time>
      </trkpt>
      <trkpt lat="44.11761" lon="2.26042">
        <ele>324.9</ele>
        <time>2016-05-04T12:39:27Z</time>
      </trkpt>
      <trkpt lat="44.11763" lon="2.26042">
        <ele>324.9</ele>
        <time>2016-05-04T12:39:28Z</time>
      </trkpt>
      <trkpt lat="44.11764" lon="2.26042">
        <ele>324.9</ele>
        <time>2016-05-04T12:39:29Z</time>
      </trkpt>
      <trkpt lat="44.11766" lon="2.26042">
        <ele>325.1</ele>
        <time>2016-05-04T12:39:30Z</time>
      </trkpt>
      <trkpt lat="44.11767" lon="2.26042">
        <ele>325.2</ele>
        <time>2016-05-04T12:39:31Z</time>
      </trkpt>
      <trkpt lat="44.11768" lon="2.26042">
        <ele>325.3</ele>
        <time>2016-05-04T12:39:32Z</time>
      </trkpt>
      <trkpt lat="44.11769" lon="2.26042">
        <ele>325.4</ele>
        <time>2016-05-04T12:39:33Z</time>
      </trkpt>
      <trkpt lat="44.1177" lon="2.26042">
        <ele>325.5</ele>
        <time>2016-05-04T12:39:34Z</time>
      </trkpt>
      <trkpt lat="44.11771" lon="2.26043">
        <ele>325.5</ele>
        <time>2016-05-04T12:39:35Z</time>
      </trkpt>
      <trkpt lat="44.11772" lon="2.26043">
        <ele>325.8</ele>
        <time>2016-05-04T12:39:36Z</time>
      </trkpt>
      <trkpt lat="44.11773" lon="2.26043">
        <ele>325.9</ele>
        <time>2016-05-04T12:39:37Z</time>
      </trkpt>
      <trkpt lat="44.11773" lon="2.26044">
        <ele>326.1</ele>
        <time>2016-05-04T12:39:38Z</time>
      </trkpt>
      <trkpt lat="44.11774" lon="2.26045">
        <ele>326.4</ele>
        <time>2016-05-04T12:39:39Z</time>
      </trkpt>
      <trkpt lat="44.11775" lon="2.26045">
        <ele>326.6</ele>
        <time>2016-05-04T12:39:40Z</time>
      </trkpt>
      <trkpt lat="44.11776" lon="2.26046">
        <ele>326.8</ele>
        <time>2016-05-04T12:39:41Z</time>
      </trkpt>
      <trkpt lat="44.11777" lon="2.26047">
        <ele>326.9</ele>
        <time>2016-05-04T12:39:42Z</time>
      </trkpt>
      <trkpt lat="44.11777" lon="2.26047">
        <ele>327</ele>
        <time>2016-05-04T12:39:43Z</time>
      </trkpt>
      <trkpt lat="44.11778" lon="2.26048">
        <ele>327.1</ele>
        <time>2016-05-04T12:39:44Z</time>
      </trkpt>
      <trkpt lat="44.11779" lon="2.26048">
        <ele>327.4</ele>
        <time>2016-05-04T12:39:45Z</time>
      </trkpt>
      <trkpt lat="44.1178" lon="2.26049">
        <ele>327.6</ele>
        <time>2016-05-04T12:39:46Z</time>
      </trkpt>
      <trkpt lat="44.1178" lon="2.2605">
        <ele>327.7</ele>
        <time>2016-05-04T12:39:47Z</time>
      </trkpt>
      <trkpt lat="44.11781" lon="2.2605">
        <ele>327.9</ele>
        <time>2016-05-04T12:39:48Z</time>
      </trkpt>
      <trkpt lat="44.11781" lon="2.26051">
        <ele>327.9</ele>
        <time>2016-05-04T12:39:49Z</time>
      </trkpt>
      <trkpt lat="44.11782" lon="2.26051">
        <ele>328</ele>
        <time>2016-05-04T12:39:50Z</time>
      </trkpt>
      <trkpt lat="44.11782" lon="2.26052">
        <ele>328.5</ele>
        <time>2016-05-04T12:39:51Z</time>
      </trkpt>
      <trkpt lat="44.11783" lon="2.26052">
        <ele>328.8</ele>
        <time>2016-05-04T12:39:52Z</time>
      </trkpt>
      <trkpt lat="44.11784" lon="2.26053">
        <ele>329.1</ele>
        <time>2016-05-04T12:39:53Z</time>
      </trkpt>
      <trkpt lat="44.11784" lon="2.26053">
        <ele>329.5</ele>
        <time>2016-05-04T12:39:54Z</time>
      </trkpt>
      <trkpt lat="44.11785" lon="2.26053">
        <ele>329.8</ele>
        <time>2016-05-04T12:39:55Z</time>
      </trkpt>
      <trkpt lat="44.11785" lon="2.26054">
        <ele>330.1</ele>
        <time>2016-05-04T12:39:56Z</time>
      </trkpt>
      <trkpt lat="44.11786" lon="2.26055">
        <ele>330.4</ele>
        <time>2016-05-04T12:39:58Z</time>
      </trkpt>
      <trkpt lat="44.11786" lon="2.26055">
        <ele>330.5</ele>
        <time>2016-05-04T12:39:59Z</time>
      </trkpt>
      <trkpt lat="44.11786" lon="2.26055">
        <ele>331.2</ele>
        <time>2016-05-04T12:40:00Z</time>
      </trkpt>
      <trkpt lat="44.11786" lon="2.26055">
        <ele>331.7</ele>
        <time>2016-05-04T12:40:01Z</time>
      </trkpt>
      <trkpt lat="44.11786" lon="2.26056">
        <ele>332.1</ele>
        <time>2016-05-04T12:40:02Z</time>
      </trkpt>
      <trkpt lat="44.11786" lon="2.26056">
        <ele>332.4</ele>
        <time>2016-05-04T12:40:03Z</time>
      </trkpt>
      <trkpt lat="44.11787" lon="2.26056">
        <ele>332.6</ele>
        <time>2016-05-04T12:40:04Z</time>
      </trkpt>
      <trkpt lat="44.11787" lon="2.26057">
        <ele>332.7</ele>
        <time>2016-05-04T12:40:06Z</time>
      </trkpt>
      <trkpt lat="44.11788" lon="2.26057">
        <ele>332.7</ele>
        <time>2016-05-04T12:40:07Z</time>
      </trkpt>
      <trkpt lat="44.11788" lon="2.26058">
        <ele>332.6</ele>
        <time>2016-05-04T12:40:08Z</time>
      </trkpt>
      <trkpt lat="44.11788" lon="2.26058">
        <ele>332.8</ele>
        <time>2016-05-04T12:40:09Z</time>
      </trkpt>
      <trkpt lat="44.11788" lon="2.26058">
        <ele>332.9</ele>
        <time>2016-05-04T12:40:10Z</time>
      </trkpt>
      <trkpt lat="44.11788" lon="2.26057">
        <ele>333</ele>
        <time>2016-05-04T12:40:11Z</time>
      </trkpt>
      <trkpt lat="44.11788" lon="2.26057">
        <ele>332.9</ele>
        <time>2016-05-04T12:40:12Z</time>
      </trkpt>
      <trkpt lat="44.11788" lon="2.26056">
        <ele>332.8</ele>
        <time>2016-05-04T12:40:13Z</time>
      </trkpt>
      <trkpt lat="44.11788" lon="2.26056">
        <ele>332.7</ele>
        <time>2016-05-04T12:40:14Z</time>
      </trkpt>
      <trkpt lat="44.11787" lon="2.26056">
        <ele>332.6</ele>
        <time>2016-05-04T12:40:15Z</time>
      </trkpt>
      <trkpt lat="44.11787" lon="2.26056">
        <ele>332.6</ele>
        <time>2016-05-04T12:40:16Z</time>
      </trkpt>
      <trkpt lat="44.11787" lon="2.26056">
        <ele>332.6</ele>
        <time>2016-05-04T12:40:17Z</time>
      </trkpt>
      <trkpt lat="44.11788" lon="2.26056">
        <ele>332.3</ele>
        <time>2016-05-04T12:40:18Z</time>
      </trkpt>
      <trkpt lat="44.11788" lon="2.26056">
        <ele>332.1</ele>
        <time>2016-05-04T12:40:19Z</time>
      </trkpt>
      <trkpt lat="44.11788" lon="2.26056">
        <ele>332</ele>
        <time>2016-05-04T12:40:20Z</time>
      </trkpt>
      <trkpt lat="44.11788" lon="2.26057">
        <ele>332.1</ele>
        <time>2016-05-04T12:40:21Z</time>
      </trkpt>
      <trkpt lat="44.11788" lon="2.26057">
        <ele>332.2</ele>
        <time>2016-05-04T12:40:22Z</time>
      </trkpt>
      <trkpt lat="44.11789" lon="2.26057">
        <ele>332.3</ele>
        <time>2016-05-04T12:40:23Z</time>
      </trkpt>
      <trkpt lat="44.1179" lon="2.26057">
        <ele>331.9</ele>
        <time>2016-05-04T12:40:26Z</time>
      </trkpt>
      <trkpt lat="44.1179" lon="2.26057">
        <ele>332</ele>
        <time>2016-05-04T12:40:27Z</time>
      </trkpt>
      <trkpt lat="44.1179" lon="2.26057">
        <ele>332.1</ele>
        <time>2016-05-04T12:40:28Z</time>
      </trkpt>
      <trkpt lat="44.1179" lon="2.26056">
        <ele>332.2</ele>
        <time>2016-05-04T12:40:29Z</time>
      </trkpt>
      <trkpt lat="44.1179" lon="2.26057">
        <ele>331.8</ele>
        <time>2016-05-04T12:40:30Z</time>
      </trkpt>
      <trkpt lat="44.11791" lon="2.26057">
        <ele>331.6</ele>
        <time>2016-05-04T12:40:31Z</time>
      </trkpt>
      <trkpt lat="44.11791" lon="2.26058">
        <ele>331.4</ele>
        <time>2016-05-04T12:40:32Z</time>
      </trkpt>
      <trkpt lat="44.11791" lon="2.26059">
        <ele>331</ele>
        <time>2016-05-04T12:40:33Z</time>
      </trkpt>
      <trkpt lat="44.11792" lon="2.2606">
        <ele>330.7</ele>
        <time>2016-05-04T12:40:34Z</time>
      </trkpt>
      <trkpt lat="44.11792" lon="2.26061">
        <ele>330.5</ele>
        <time>2016-05-04T12:40:35Z</time>
      </trkpt>
      <trkpt lat="44.11793" lon="2.26062">
        <ele>330.8</ele>
        <time>2016-05-04T12:40:36Z</time>
      </trkpt>
      <trkpt lat="44.11793" lon="2.26063">
        <ele>331</ele>
        <time>2016-05-04T12:40:37Z</time>
      </trkpt>
      <trkpt lat="44.11793" lon="2.26063">
        <ele>331.1</ele>
        <time>2016-05-04T12:40:38Z</time>
      </trkpt>
      <trkpt lat="44.11793" lon="2.26064">
        <ele>331</ele>
        <time>2016-05-04T12:40:39Z</time>
      </trkpt>
      <trkpt lat="44.11793" lon="2.26064">
        <ele>331</ele>
        <time>2016-05-04T12:40:40Z</time>
      </trkpt>
      <trkpt lat="44.11793" lon="2.26064">
        <ele>330.9</ele>
        <time>2016-05-04T12:40:41Z</time>
      </trkpt>
      <trkpt lat="44.11793" lon="2.26064">
        <ele>330.9</ele>
        <time>2016-05-04T12:40:42Z</time>
      </trkpt>
      <trkpt lat="44.11793" lon="2.26064">
        <ele>330.8</ele>
        <time>2016-05-04T12:40:43Z</time>
      </trkpt>
      <trkpt lat="44.11793" lon="2.26064">
        <ele>330.8</ele>
        <time>2016-05-04T12:40:44Z</time>
      </trkpt>
      <trkpt lat="44.11792" lon="2.26064">
        <ele>331</ele>
        <time>2016-05-04T12:40:45Z</time>
      </trkpt>
      <trkpt lat="44.11792" lon="2.26064">
        <ele>331.2</ele>
        <time>2016-05-04T12:40:46Z</time>
      </trkpt>
      <trkpt lat="44.11792" lon="2.26063">
        <ele>331.3</ele>
        <time>2016-05-04T12:40:47Z</time>
      </trkpt>
      <trkpt lat="44.11792" lon="2.26063">
        <ele>331.1</ele>
        <time>2016-05-04T12:40:48Z</time>
      </trkpt>
      <trkpt lat="44.11792" lon="2.26062">
        <ele>331</ele>
        <time>2016-05-04T12:40:49Z</time>
      </trkpt>
      <trkpt lat="44.11792" lon="2.26061">
        <ele>331</ele>
        <time>2016-05-04T12:40:50Z</time>
      </trkpt>
      <trkpt lat="44.11792" lon="2.26061">
        <ele>330.9</ele>
        <time>2016-05-04T12:40:51Z</time>
      </trkpt>
      <trkpt lat="44.11792" lon="2.26062">
        <ele>330.9</ele>
        <time>2016-05-04T12:40:52Z</time>
      </trkpt>
      <trkpt lat="44.11791" lon="2.26062">
        <ele>330.8</ele>
        <time>2016-05-04T12:40:53Z</time>
      </trkpt>
      <trkpt lat="44.11791" lon="2.26062">
        <ele>330.8</ele>
        <time>2016-05-04T12:40:54Z</time>
      </trkpt>
      <trkpt lat="44.11791" lon="2.26061">
        <ele>330.8</ele>
        <time>2016-05-04T12:40:55Z</time>
      </trkpt>
      <trkpt lat="44.11791" lon="2.26061">
        <ele>330.8</ele>
        <time>2016-05-04T12:40:56Z</time>
      </trkpt>
      <trkpt lat="44.11791" lon="2.26061">
        <ele>331</ele>
        <time>2016-05-04T12:40:57Z</time>
      </trkpt>
      <trkpt lat="44.1179" lon="2.26061">
        <ele>331.1</ele>
        <time>2016-05-04T12:40:58Z</time>
      </trkpt>
      <trkpt lat="44.1179" lon="2.26061">
        <ele>331.3</ele>
        <time>2016-05-04T12:40:59Z</time>
      </trkpt>
      <trkpt lat="44.1179" lon="2.26061">
        <ele>331.3</ele>
        <time>2016-05-04T12:41:00Z</time>
      </trkpt>
      <trkpt lat="44.1179" lon="2.26061">
        <ele>331.4</ele>
        <time>2016-05-04T12:41:01Z</time>
      </trkpt>
      <trkpt lat="44.1179" lon="2.26061">
        <ele>331.5</ele>
        <time>2016-05-04T12:41:02Z</time>
      </trkpt>
      <trkpt lat="44.11791" lon="2.26061">
        <ele>331.3</ele>
        <time>2016-05-04T12:41:03Z</time>
      </trkpt>
      <trkpt lat="44.11791" lon="2.26062">
        <ele>331.2</ele>
        <time>2016-05-04T12:41:04Z</time>
      </trkpt>
      <trkpt lat="44.11792" lon="2.26064">
        <ele>331.2</ele>
        <time>2016-05-04T12:41:06Z</time>
      </trkpt>
      <trkpt lat="44.11791" lon="2.26066">
        <ele>331.4</ele>
        <time>2016-05-04T12:41:08Z</time>
      </trkpt>
      <trkpt lat="44.11791" lon="2.26067">
        <ele>331</ele>
        <time>2016-05-04T12:41:09Z</time>
      </trkpt>
      <trkpt lat="44.1179" lon="2.26068">
        <ele>330.7</ele>
        <time>2016-05-04T12:41:10Z</time>
      </trkpt>
      <trkpt lat="44.1179" lon="2.26069">
        <ele>330.5</ele>
        <time>2016-05-04T12:41:11Z</time>
      </trkpt>
      <trkpt lat="44.1179" lon="2.26069">
        <ele>330.4</ele>
        <time>2016-05-04T12:41:12Z</time>
      </trkpt>
      <trkpt lat="44.1179" lon="2.2607">
        <ele>330.3</ele>
        <time>2016-05-04T12:41:13Z</time>
      </trkpt>
      <trkpt lat="44.1179" lon="2.2607">
        <ele>330.2</ele>
        <time>2016-05-04T12:41:14Z</time>
      </trkpt>
      <trkpt lat="44.11791" lon="2.26072">
        <ele>330</ele>
        <time>2016-05-04T12:41:16Z</time>
      </trkpt>
      <trkpt lat="44.11793" lon="2.26075">
        <ele>329</ele>
        <time>2016-05-04T12:41:20Z</time>
      </trkpt>
      <trkpt lat="44.11793" lon="2.26075">
        <ele>329.2</ele>
        <time>2016-05-04T12:41:21Z</time>
      </trkpt>
      <trkpt lat="44.11793" lon="2.26075">
        <ele>329.4</ele>
        <time>2016-05-04T12:41:22Z</time>
      </trkpt>
      <trkpt lat="44.11793" lon="2.26076">
        <ele>329.5</ele>
        <time>2016-05-04T12:41:23Z</time>
      </trkpt>
      <trkpt lat="44.11794" lon="2.26076">
        <ele>329.4</ele>
        <time>2016-05-04T12:41:24Z</time>
      </trkpt>
      <trkpt lat="44.11794" lon="2.26076">
        <ele>329.3</ele>
        <time>2016-05-04T12:41:25Z</time>
      </trkpt>
      <trkpt lat="44.11794" lon="2.26076">
        <ele>329.2</ele>
        <time>2016-05-04T12:41:26Z</time>
      </trkpt>
      <trkpt lat="44.11795" lon="2.26077">
        <ele>329.4</ele>
        <time>2016-05-04T12:41:27Z</time>
      </trkpt>
      <trkpt lat="44.11795" lon="2.26077">
        <ele>329.5</ele>
        <time>2016-05-04T12:41:28Z</time>
      </trkpt>
      <trkpt lat="44.11796" lon="2.26078">
        <ele>329.6</ele>
        <time>2016-05-04T12:41:29Z</time>
      </trkpt>
      <trkpt lat="44.11796" lon="2.26078">
        <ele>329.1</ele>
        <time>2016-05-04T12:41:30Z</time>
      </trkpt>
      <trkpt lat="44.11796" lon="2.26078">
        <ele>328.6</ele>
        <time>2016-05-04T12:41:31Z</time>
      </trkpt>
      <trkpt lat="44.11796" lon="2.26079">
        <ele>328.3</ele>
        <time>2016-05-04T12:41:32Z</time>
      </trkpt>
      <trkpt lat="44.11796" lon="2.26079">
        <ele>328.5</ele>
        <time>2016-05-04T12:41:33Z</time>
      </trkpt>
      <trkpt lat="44.11796" lon="2.26079">
        <ele>328.6</ele>
        <time>2016-05-04T12:41:34Z</time>
      </trkpt>
      <trkpt lat="44.11797" lon="2.2608">
        <ele>328.7</ele>
        <time>2016-05-04T12:41:35Z</time>
      </trkpt>
      <trkpt lat="44.11797" lon="2.26081">
        <ele>328</ele>
        <time>2016-05-04T12:41:36Z</time>
      </trkpt>
      <trkpt lat="44.11798" lon="2.26082">
        <ele>327.4</ele>
        <time>2016-05-04T12:41:37Z</time>
      </trkpt>
      <trkpt lat="44.11798" lon="2.26083">
        <ele>327</ele>
        <time>2016-05-04T12:41:38Z</time>
      </trkpt>
      <trkpt lat="44.11799" lon="2.26084">
        <ele>326.6</ele>
        <time>2016-05-04T12:41:39Z</time>
      </trkpt>
      <trkpt lat="44.118" lon="2.26085">
        <ele>326.4</ele>
        <time>2016-05-04T12:41:40Z</time>
      </trkpt>
      <trkpt lat="44.11801" lon="2.26085">
        <ele>326.2</ele>
        <time>2016-05-04T12:41:41Z</time>
      </trkpt>
      <trkpt lat="44.11804" lon="2.2609">
        <ele>325.8</ele>
        <time>2016-05-04T12:41:46Z</time>
      </trkpt>
      <trkpt lat="44.11805" lon="2.26091">
        <ele>325.7</ele>
        <time>2016-05-04T12:41:47Z</time>
      </trkpt>
      <trkpt lat="44.11805" lon="2.26093">
        <ele>325.9</ele>
        <time>2016-05-04T12:41:48Z</time>
      </trkpt>
      <trkpt lat="44.11805" lon="2.26094">
        <ele>326.1</ele>
        <time>2016-05-04T12:41:49Z</time>
      </trkpt>
      <trkpt lat="44.11805" lon="2.26095">
        <ele>326.2</ele>
        <time>2016-05-04T12:41:50Z</time>
      </trkpt>
      <trkpt lat="44.11806" lon="2.26097">
        <ele>326</ele>
        <time>2016-05-04T12:41:51Z</time>
      </trkpt>
      <trkpt lat="44.11806" lon="2.26099">
        <ele>325.9</ele>
        <time>2016-05-04T12:41:53Z</time>
      </trkpt>
      <trkpt lat="44.11807" lon="2.2611">
        <ele>328.1</ele>
        <time>2016-05-04T12:42:01Z</time>
      </trkpt>
      <trkpt lat="44.11806" lon="2.26111">
        <ele>328.3</ele>
        <time>2016-05-04T12:42:02Z</time>
      </trkpt>
      <trkpt lat="44.11806" lon="2.26113">
        <ele>328.6</ele>
        <time>2016-05-04T12:42:04Z</time>
      </trkpt>
      <trkpt lat="44.11805" lon="2.26114">
        <ele>328.7</ele>
        <time>2016-05-04T12:42:05Z</time>
      </trkpt>
      <trkpt lat="44.11805" lon="2.26114">
        <ele>329</ele>
        <time>2016-05-04T12:42:06Z</time>
      </trkpt>
      <trkpt lat="44.11803" lon="2.2612">
        <ele>328.7</ele>
        <time>2016-05-04T12:42:11Z</time>
      </trkpt>
      <trkpt lat="44.11799" lon="2.26128">
        <ele>330.6</ele>
        <time>2016-05-04T12:42:18Z</time>
      </trkpt>
      <trkpt lat="44.11796" lon="2.26134">
        <ele>331.7</ele>
        <time>2016-05-04T12:42:26Z</time>
      </trkpt>
      <trkpt lat="44.11796" lon="2.26134">
        <ele>332.1</ele>
        <time>2016-05-04T12:42:27Z</time>
      </trkpt>
      <trkpt lat="44.11796" lon="2.26135">
        <ele>332.4</ele>
        <time>2016-05-04T12:42:28Z</time>
      </trkpt>
      <trkpt lat="44.11796" lon="2.26135">
        <ele>332.6</ele>
        <time>2016-05-04T12:42:29Z</time>
      </trkpt>
      <trkpt lat="44.11796" lon="2.26136">
        <ele>332.6</ele>
        <time>2016-05-04T12:42:30Z</time>
      </trkpt>
      <trkpt lat="44.11796" lon="2.26137">
        <ele>332.5</ele>
        <time>2016-05-04T12:42:31Z</time>
      </trkpt>
      <trkpt lat="44.11796" lon="2.26137">
        <ele>332.5</ele>
        <time>2016-05-04T12:42:32Z</time>
      </trkpt>
      <trkpt lat="44.11801" lon="2.26157">
        <ele>335.1</ele>
        <time>2016-05-04T12:42:46Z</time>
      </trkpt>
      <trkpt lat="44.11801" lon="2.26159">
        <ele>335.3</ele>
        <time>2016-05-04T12:42:47Z</time>
      </trkpt>
      <trkpt lat="44.118" lon="2.2616">
        <ele>335.2</ele>
        <time>2016-05-04T12:42:48Z</time>
      </trkpt>
      <trkpt lat="44.11792" lon="2.26196">
        <ele>335.3</ele>
        <time>2016-05-04T12:43:18Z</time>
      </trkpt>
      <trkpt lat="44.11791" lon="2.26196">
        <ele>335.3</ele>
        <time>2016-05-04T12:43:19Z</time>
      </trkpt>
      <trkpt lat="44.11791" lon="2.26197">
        <ele>335.2</ele>
        <time>2016-05-04T12:43:20Z</time>
      </trkpt>
      <trkpt lat="44.11791" lon="2.26197">
        <ele>335.2</ele>
        <time>2016-05-04T12:43:21Z</time>
      </trkpt>
      <trkpt lat="44.11792" lon="2.26197">
        <ele>335.1</ele>
        <time>2016-05-04T12:43:22Z</time>
      </trkpt>
      <trkpt lat="44.11792" lon="2.26197">
        <ele>335.1</ele>
        <time>2016-05-04T12:43:23Z</time>
      </trkpt>
      <trkpt lat="44.11792" lon="2.26197">
        <ele>335.8</ele>
        <time>2016-05-04T12:43:25Z</time>
      </trkpt>
      <trkpt lat="44.11793" lon="2.26197">
        <ele>336</ele>
        <time>2016-05-04T12:43:26Z</time>
      </trkpt>
      <trkpt lat="44.11793" lon="2.26197">
        <ele>336.4</ele>
        <time>2016-05-04T12:43:27Z</time>
      </trkpt>
      <trkpt lat="44.11793" lon="2.26197">
        <ele>336.7</ele>
        <time>2016-05-04T12:43:28Z</time>
      </trkpt>
      <trkpt lat="44.11793" lon="2.26197">
        <ele>336.9</ele>
        <time>2016-05-04T12:43:29Z</time>
      </trkpt>
      <trkpt lat="44.11794" lon="2.26197">
        <ele>337.3</ele>
        <time>2016-05-04T12:43:30Z</time>
      </trkpt>
      <trkpt lat="44.11794" lon="2.26197">
        <ele>337.6</ele>
        <time>2016-05-04T12:43:31Z</time>
      </trkpt>
      <trkpt lat="44.11794" lon="2.26198">
        <ele>337.8</ele>
        <time>2016-05-04T12:43:32Z</time>
      </trkpt>
      <trkpt lat="44.11795" lon="2.26198">
        <ele>337.9</ele>
        <time>2016-05-04T12:43:33Z</time>
      </trkpt>
      <trkpt lat="44.11795" lon="2.26198">
        <ele>338.1</ele>
        <time>2016-05-04T12:43:34Z</time>
      </trkpt>
      <trkpt lat="44.11796" lon="2.26198">
        <ele>338.2</ele>
        <time>2016-05-04T12:43:35Z</time>
      </trkpt>
      <trkpt lat="44.11797" lon="2.26199">
        <ele>338.4</ele>
        <time>2016-05-04T12:43:36Z</time>
      </trkpt>
      <trkpt lat="44.11798" lon="2.26199">
        <ele>338.6</ele>
        <time>2016-05-04T12:43:37Z</time>
      </trkpt>
      <trkpt lat="44.11799" lon="2.26199">
        <ele>338.8</ele>
        <time>2016-05-04T12:43:38Z</time>
      </trkpt>
      <trkpt lat="44.118" lon="2.262">
        <ele>338.9</ele>
        <time>2016-05-04T12:43:39Z</time>
      </trkpt>
      <trkpt lat="44.11801" lon="2.262">
        <ele>339</ele>
        <time>2016-05-04T12:43:40Z</time>
      </trkpt>
      <trkpt lat="44.11801" lon="2.262">
        <ele>339.1</ele>
        <time>2016-05-04T12:43:41Z</time>
      </trkpt>
      <trkpt lat="44.11803" lon="2.262">
        <ele>339.2</ele>
        <time>2016-05-04T12:43:43Z</time>
      </trkpt>
      <trkpt lat="44.11804" lon="2.262">
        <ele>339.2</ele>
        <time>2016-05-04T12:43:44Z</time>
      </trkpt>
      <trkpt lat="44.11805" lon="2.262">
        <ele>338.6</ele>
        <time>2016-05-04T12:43:45Z</time>
      </trkpt>
      <trkpt lat="44.11807" lon="2.26201">
        <ele>337.8</ele>
        <time>2016-05-04T12:43:47Z</time>
      </trkpt>
      <trkpt lat="44.11808" lon="2.26202">
        <ele>337.3</ele>
        <time>2016-05-04T12:43:48Z</time>
      </trkpt>
      <trkpt lat="44.11823" lon="2.26219">
        <ele>332.4</ele>
        <time>2016-05-04T12:44:04Z</time>
      </trkpt>
      <trkpt lat="44.11825" lon="2.26224">
        <ele>332.3</ele>
        <time>2016-05-04T12:44:07Z</time>
      </trkpt>
      <trkpt lat="44.11825" lon="2.26225">
        <ele>332.3</ele>
        <time>2016-05-04T12:44:08Z</time>
      </trkpt>
      <trkpt lat="44.11825" lon="2.26226">
        <ele>332.2</ele>
        <time>2016-05-04T12:44:09Z</time>
      </trkpt>
      <trkpt lat="44.11824" lon="2.26228">
        <ele>332</ele>
        <time>2016-05-04T12:44:10Z</time>
      </trkpt>
      <trkpt lat="44.11824" lon="2.26229">
        <ele>331.9</ele>
        <time>2016-05-04T12:44:11Z</time>
      </trkpt>
      <trkpt lat="44.11824" lon="2.26231">
        <ele>332.1</ele>
        <time>2016-05-04T12:44:12Z</time>
      </trkpt>
      <trkpt lat="44.11824" lon="2.26238">
        <ele>333.2</ele>
        <time>2016-05-04T12:44:18Z</time>
      </trkpt>
      <trkpt lat="44.11824" lon="2.26239">
        <ele>333.4</ele>
        <time>2016-05-04T12:44:19Z</time>
      </trkpt>
      <trkpt lat="44.11823" lon="2.26242">
        <ele>333.8</ele>
        <time>2016-05-04T12:44:22Z</time>
      </trkpt>
      <trkpt lat="44.11822" lon="2.26244">
        <ele>334</ele>
        <time>2016-05-04T12:44:24Z</time>
      </trkpt>
      <trkpt lat="44.11818" lon="2.26252">
        <ele>333.4</ele>
        <time>2016-05-04T12:44:32Z</time>
      </trkpt>
      <trkpt lat="44.11817" lon="2.26253">
        <ele>333.2</ele>
        <time>2016-05-04T12:44:33Z</time>
      </trkpt>
      <trkpt lat="44.11815" lon="2.26263">
        <ele>330.7</ele>
        <time>2016-05-04T12:44:44Z</time>
      </trkpt>
      <trkpt lat="44.11815" lon="2.26263">
        <ele>330.9</ele>
        <time>2016-05-04T12:44:45Z</time>
      </trkpt>
      <trkpt lat="44.11815" lon="2.26263">
        <ele>331.1</ele>
        <time>2016-05-04T12:44:46Z</time>
      </trkpt>
      <trkpt lat="44.11814" lon="2.26264">
        <ele>331.2</ele>
        <time>2016-05-04T12:44:47Z</time>
      </trkpt>
      <trkpt lat="44.11815" lon="2.26263">
        <ele>331.3</ele>
        <time>2016-05-04T12:44:48Z</time>
      </trkpt>
      <trkpt lat="44.11815" lon="2.26263">
        <ele>331.4</ele>
        <time>2016-05-04T12:44:49Z</time>
      </trkpt>
      <trkpt lat="44.11815" lon="2.26263">
        <ele>331.4</ele>
        <time>2016-05-04T12:44:50Z</time>
      </trkpt>
      <trkpt lat="44.11815" lon="2.26263">
        <ele>331.3</ele>
        <time>2016-05-04T12:44:51Z</time>
      </trkpt>
      <trkpt lat="44.11816" lon="2.26263">
        <ele>331.1</ele>
        <time>2016-05-04T12:44:52Z</time>
      </trkpt>
      <trkpt lat="44.11816" lon="2.26264">
        <ele>331</ele>
        <time>2016-05-04T12:44:53Z</time>
      </trkpt>
      <trkpt lat="44.11816" lon="2.26264">
        <ele>331.4</ele>
        <time>2016-05-04T12:44:54Z</time>
      </trkpt>
      <trkpt lat="44.11817" lon="2.26264">
        <ele>331.7</ele>
        <time>2016-05-04T12:44:55Z</time>
      </trkpt>
      <trkpt lat="44.11818" lon="2.26265">
        <ele>331.9</ele>
        <time>2016-05-04T12:44:56Z</time>
      </trkpt>
      <trkpt lat="44.11818" lon="2.26265">
        <ele>332.2</ele>
        <time>2016-05-04T12:44:57Z</time>
      </trkpt>
      <trkpt lat="44.11819" lon="2.26266">
        <ele>332.5</ele>
        <time>2016-05-04T12:44:58Z</time>
      </trkpt>
      <trkpt lat="44.1182" lon="2.26267">
        <ele>332.7</ele>
        <time>2016-05-04T12:44:59Z</time>
      </trkpt>
      <trkpt lat="44.1182" lon="2.26268">
        <ele>333.1</ele>
        <time>2016-05-04T12:45:00Z</time>
      </trkpt>
      <trkpt lat="44.1182" lon="2.26269">
        <ele>333.3</ele>
        <time>2016-05-04T12:45:01Z</time>
      </trkpt>
      <trkpt lat="44.11821" lon="2.2627">
        <ele>333.9</ele>
        <time>2016-05-04T12:45:03Z</time>
      </trkpt>
      <trkpt lat="44.11821" lon="2.26271">
        <ele>334.2</ele>
        <time>2016-05-04T12:45:04Z</time>
      </trkpt>
      <trkpt lat="44.11821" lon="2.26272">
        <ele>334.4</ele>
        <time>2016-05-04T12:45:05Z</time>
      </trkpt>
      <trkpt lat="44.11822" lon="2.26272">
        <ele>335</ele>
        <time>2016-05-04T12:45:07Z</time>
      </trkpt>
      <trkpt lat="44.11822" lon="2.26274">
        <ele>335.9</ele>
        <time>2016-05-04T12:45:10Z</time>
      </trkpt>
      <trkpt lat="44.11822" lon="2.26274">
        <ele>336.1</ele>
        <time>2016-05-04T12:45:11Z</time>
      </trkpt>
      <trkpt lat="44.11822" lon="2.26275">
        <ele>336.2</ele>
        <time>2016-05-04T12:45:12Z</time>
      </trkpt>
      <trkpt lat="44.11822" lon="2.26275">
        <ele>336.4</ele>
        <time>2016-05-04T12:45:13Z</time>
      </trkpt>
      <trkpt lat="44.11823" lon="2.26276">
        <ele>336.5</ele>
        <time>2016-05-04T12:45:14Z</time>
      </trkpt>
      <trkpt lat="44.11823" lon="2.26276">
        <ele>337.2</ele>
        <time>2016-05-04T12:45:15Z</time>
      </trkpt>
      <trkpt lat="44.11824" lon="2.26278">
        <ele>338.8</ele>
        <time>2016-05-04T12:45:20Z</time>
      </trkpt>
      <trkpt lat="44.11825" lon="2.26279">
        <ele>339.1</ele>
        <time>2016-05-04T12:45:21Z</time>
      </trkpt>
      <trkpt lat="44.11825" lon="2.2628">
        <ele>339.6</ele>
        <time>2016-05-04T12:45:23Z</time>
      </trkpt>
      <trkpt lat="44.11826" lon="2.26281">
        <ele>339.5</ele>
        <time>2016-05-04T12:45:24Z</time>
      </trkpt>
      <trkpt lat="44.11826" lon="2.26282">
        <ele>339.4</ele>
        <time>2016-05-04T12:45:25Z</time>
      </trkpt>
      <trkpt lat="44.11827" lon="2.26283">
        <ele>339.4</ele>
        <time>2016-05-04T12:45:26Z</time>
      </trkpt>
      <trkpt lat="44.11828" lon="2.26285">
        <ele>340.1</ele>
        <time>2016-05-04T12:45:28Z</time>
      </trkpt>
      <trkpt lat="44.11829" lon="2.26286">
        <ele>340.3</ele>
        <time>2016-05-04T12:45:29Z</time>
      </trkpt>
      <trkpt lat="44.11832" lon="2.26291">
        <ele>341.5</ele>
        <time>2016-05-04T12:45:34Z</time>
      </trkpt>
      <trkpt lat="44.11833" lon="2.26295">
        <ele>342</ele>
        <time>2016-05-04T12:45:37Z</time>
      </trkpt>
      <trkpt lat="44.11837" lon="2.26315">
        <ele>341.8</ele>
        <time>2016-05-04T12:45:55Z</time>
      </trkpt>
      <trkpt lat="44.11837" lon="2.26317">
        <ele>341.6</ele>
        <time>2016-05-04T12:45:56Z</time>
      </trkpt>
      <trkpt lat="44.11837" lon="2.2632">
        <ele>341.3</ele>
        <time>2016-05-04T12:45:58Z</time>
      </trkpt>
      <trkpt lat="44.11837" lon="2.26322">
        <ele>341.2</ele>
        <time>2016-05-04T12:45:59Z</time>
      </trkpt>
      <trkpt lat="44.11836" lon="2.26323">
        <ele>341.2</ele>
        <time>2016-05-04T12:46:00Z</time>
      </trkpt>
      <trkpt lat="44.11836" lon="2.26325">
        <ele>341.1</ele>
        <time>2016-05-04T12:46:01Z</time>
      </trkpt>
      <trkpt lat="44.11836" lon="2.26326">
        <ele>341.1</ele>
        <time>2016-05-04T12:46:02Z</time>
      </trkpt>
      <trkpt lat="44.11836" lon="2.26327">
        <ele>340.8</ele>
        <time>2016-05-04T12:46:03Z</time>
      </trkpt>
      <trkpt lat="44.11837" lon="2.26333">
        <ele>340</ele>
        <time>2016-05-04T12:46:07Z</time>
      </trkpt>
      <trkpt lat="44.11837" lon="2.26335">
        <ele>339</ele>
        <time>2016-05-04T12:46:09Z</time>
      </trkpt>
      <trkpt lat="44.11841" lon="2.26358">
        <ele>333.7</ele>
        <time>2016-05-04T12:46:26Z</time>
      </trkpt>
      <trkpt lat="44.11841" lon="2.26361">
        <ele>332.8</ele>
        <time>2016-05-04T12:46:28Z</time>
      </trkpt>
      <trkpt lat="44.11841" lon="2.26368">
        <ele>332.3</ele>
        <time>2016-05-04T12:46:33Z</time>
      </trkpt>
      <trkpt lat="44.11841" lon="2.26373">
        <ele>331.4</ele>
        <time>2016-05-04T12:46:37Z</time>
      </trkpt>
      <trkpt lat="44.1184" lon="2.26375">
        <ele>331.3</ele>
        <time>2016-05-04T12:46:38Z</time>
      </trkpt>
      <trkpt lat="44.11838" lon="2.26378">
        <ele>330.3</ele>
        <time>2016-05-04T12:46:40Z</time>
      </trkpt>
      <trkpt lat="44.11836" lon="2.26381">
        <ele>329.5</ele>
        <time>2016-05-04T12:46:42Z</time>
      </trkpt>
      <trkpt lat="44.11818" lon="2.26399">
        <ele>325.4</ele>
        <time>2016-05-04T12:47:04Z</time>
      </trkpt>
      <trkpt lat="44.11818" lon="2.264">
        <ele>325.2</ele>
        <time>2016-05-04T12:47:05Z</time>
      </trkpt>
      <trkpt lat="44.11819" lon="2.26403">
        <ele>325</ele>
        <time>2016-05-04T12:47:08Z</time>
      </trkpt>
      <trkpt lat="44.1182" lon="2.26403">
        <ele>325.1</ele>
        <time>2016-05-04T12:47:09Z</time>
      </trkpt>
      <trkpt lat="44.1182" lon="2.26404">
        <ele>325.3</ele>
        <time>2016-05-04T12:47:10Z</time>
      </trkpt>
      <trkpt lat="44.11821" lon="2.26405">
        <ele>325.4</ele>
        <time>2016-05-04T12:47:11Z</time>
      </trkpt>
      <trkpt lat="44.11822" lon="2.26406">
        <ele>325</ele>
        <time>2016-05-04T12:47:12Z</time>
      </trkpt>
      <trkpt lat="44.11822" lon="2.26407">
        <ele>324.7</ele>
        <time>2016-05-04T12:47:13Z</time>
      </trkpt>
      <trkpt lat="44.11823" lon="2.26408">
        <ele>324.5</ele>
        <time>2016-05-04T12:47:14Z</time>
      </trkpt>
      <trkpt lat="44.11823" lon="2.26409">
        <ele>324.6</ele>
        <time>2016-05-04T12:47:15Z</time>
      </trkpt>
      <trkpt lat="44.11823" lon="2.2641">
        <ele>324.7</ele>
        <time>2016-05-04T12:47:16Z</time>
      </trkpt>
      <trkpt lat="44.11824" lon="2.26411">
        <ele>324.7</ele>
        <time>2016-05-04T12:47:17Z</time>
      </trkpt>
      <trkpt lat="44.11824" lon="2.26411">
        <ele>324.9</ele>
        <time>2016-05-04T12:47:18Z</time>
      </trkpt>
      <trkpt lat="44.11824" lon="2.26412">
        <ele>325.1</ele>
        <time>2016-05-04T12:47:19Z</time>
      </trkpt>
      <trkpt lat="44.11824" lon="2.26412">
        <ele>325.2</ele>
        <time>2016-05-04T12:47:20Z</time>
      </trkpt>
      <trkpt lat="44.11824" lon="2.26413">
        <ele>325.3</ele>
        <time>2016-05-04T12:47:21Z</time>
      </trkpt>
      <trkpt lat="44.11824" lon="2.26414">
        <ele>325.9</ele>
        <time>2016-05-04T12:47:24Z</time>
      </trkpt>
      <trkpt lat="44.11823" lon="2.26415">
        <ele>327</ele>
        <time>2016-05-04T12:47:27Z</time>
      </trkpt>
      <trkpt lat="44.11823" lon="2.26415">
        <ele>327.3</ele>
        <time>2016-05-04T12:47:28Z</time>
      </trkpt>
      <trkpt lat="44.11823" lon="2.26416">
        <ele>327.5</ele>
        <time>2016-05-04T12:47:29Z</time>
      </trkpt>
      <trkpt lat="44.11823" lon="2.26417">
        <ele>328.2</ele>
        <time>2016-05-04T12:47:31Z</time>
      </trkpt>
      <trkpt lat="44.11822" lon="2.26418">
        <ele>328.4</ele>
        <time>2016-05-04T12:47:32Z</time>
      </trkpt>
      <trkpt lat="44.11821" lon="2.26419">
        <ele>328.6</ele>
        <time>2016-05-04T12:47:33Z</time>
      </trkpt>
      <trkpt lat="44.1182" lon="2.26421">
        <ele>328.8</ele>
        <time>2016-05-04T12:47:35Z</time>
      </trkpt>
      <trkpt lat="44.11819" lon="2.26422">
        <ele>329.3</ele>
        <time>2016-05-04T12:47:36Z</time>
      </trkpt>
      <trkpt lat="44.11818" lon="2.26423">
        <ele>329.6</ele>
        <time>2016-05-04T12:47:37Z</time>
      </trkpt>
      <trkpt lat="44.11818" lon="2.26424">
        <ele>329.9</ele>
        <time>2016-05-04T12:47:38Z</time>
      </trkpt>
      <trkpt lat="44.11817" lon="2.26425">
        <ele>330.1</ele>
        <time>2016-05-04T12:47:39Z</time>
      </trkpt>
      <trkpt lat="44.11817" lon="2.26425">
        <ele>330.3</ele>
        <time>2016-05-04T12:47:40Z</time>
      </trkpt>
      <trkpt lat="44.11817" lon="2.26426">
        <ele>330.4</ele>
        <time>2016-05-04T12:47:41Z</time>
      </trkpt>
      <trkpt lat="44.11817" lon="2.26426">
        <ele>330.9</ele>
        <time>2016-05-04T12:47:42Z</time>
      </trkpt>
      <trkpt lat="44.11817" lon="2.26427">
        <ele>331.3</ele>
        <time>2016-05-04T12:47:43Z</time>
      </trkpt>
      <trkpt lat="44.11817" lon="2.26428">
        <ele>331.6</ele>
        <time>2016-05-04T12:47:44Z</time>
      </trkpt>
      <trkpt lat="44.11816" lon="2.26428">
        <ele>331.8</ele>
        <time>2016-05-04T12:47:45Z</time>
      </trkpt>
      <trkpt lat="44.11816" lon="2.26429">
        <ele>332</ele>
        <time>2016-05-04T12:47:46Z</time>
      </trkpt>
      <trkpt lat="44.11816" lon="2.2643">
        <ele>332.1</ele>
        <time>2016-05-04T12:47:47Z</time>
      </trkpt>
      <trkpt lat="44.11816" lon="2.2643">
        <ele>332.6</ele>
        <time>2016-05-04T12:47:48Z</time>
      </trkpt>
      <trkpt lat="44.11816" lon="2.26431">
        <ele>333</ele>
        <time>2016-05-04T12:47:49Z</time>
      </trkpt>
      <trkpt lat="44.11816" lon="2.26432">
        <ele>333.3</ele>
        <time>2016-05-04T12:47:50Z</time>
      </trkpt>
      <trkpt lat="44.11816" lon="2.26433">
        <ele>333.5</ele>
        <time>2016-05-04T12:47:51Z</time>
      </trkpt>
      <trkpt lat="44.11816" lon="2.26434">
        <ele>333.7</ele>
        <time>2016-05-04T12:47:52Z</time>
      </trkpt>
      <trkpt lat="44.11816" lon="2.26435">
        <ele>333.8</ele>
        <time>2016-05-04T12:47:53Z</time>
      </trkpt>
      <trkpt lat="44.11816" lon="2.26436">
        <ele>334.1</ele>
        <time>2016-05-04T12:47:54Z</time>
      </trkpt>
      <trkpt lat="44.11816" lon="2.26437">
        <ele>334.3</ele>
        <time>2016-05-04T12:47:55Z</time>
      </trkpt>
      <trkpt lat="44.11816" lon="2.26438">
        <ele>334.5</ele>
        <time>2016-05-04T12:47:56Z</time>
      </trkpt>
      <trkpt lat="44.11816" lon="2.26439">
        <ele>334.8</ele>
        <time>2016-05-04T12:47:57Z</time>
      </trkpt>
      <trkpt lat="44.11816" lon="2.2644">
        <ele>335.1</ele>
        <time>2016-05-04T12:47:58Z</time>
      </trkpt>
      <trkpt lat="44.11816" lon="2.26441">
        <ele>335.3</ele>
        <time>2016-05-04T12:47:59Z</time>
      </trkpt>
      <trkpt lat="44.11816" lon="2.26441">
        <ele>335.2</ele>
        <time>2016-05-04T12:48:00Z</time>
      </trkpt>
      <trkpt lat="44.11816" lon="2.26442">
        <ele>335.2</ele>
        <time>2016-05-04T12:48:01Z</time>
      </trkpt>
      <trkpt lat="44.11817" lon="2.26443">
        <ele>335.1</ele>
        <time>2016-05-04T12:48:02Z</time>
      </trkpt>
      <trkpt lat="44.11817" lon="2.26443">
        <ele>335.7</ele>
        <time>2016-05-04T12:48:03Z</time>
      </trkpt>
      <trkpt lat="44.11817" lon="2.26444">
        <ele>336.2</ele>
        <time>2016-05-04T12:48:04Z</time>
      </trkpt>
      <trkpt lat="44.11817" lon="2.26445">
        <ele>336.5</ele>
        <time>2016-05-04T12:48:05Z</time>
      </trkpt>
      <trkpt lat="44.11818" lon="2.26445">
        <ele>336.8</ele>
        <time>2016-05-04T12:48:06Z</time>
      </trkpt>
      <trkpt lat="44.11818" lon="2.26446">
        <ele>337</ele>
        <time>2016-05-04T12:48:07Z</time>
      </trkpt>
      <trkpt lat="44.11818" lon="2.26446">
        <ele>337.1</ele>
        <time>2016-05-04T12:48:08Z</time>
      </trkpt>
      <trkpt lat="44.11819" lon="2.26446">
        <ele>336.8</ele>
        <time>2016-05-04T12:48:09Z</time>
      </trkpt>
      <trkpt lat="44.11819" lon="2.26447">
        <ele>336.6</ele>
        <time>2016-05-04T12:48:10Z</time>
      </trkpt>
      <trkpt lat="44.1182" lon="2.26447">
        <ele>336.4</ele>
        <time>2016-05-04T12:48:11Z</time>
      </trkpt>
      <trkpt lat="44.1182" lon="2.26447">
        <ele>336.5</ele>
        <time>2016-05-04T12:48:12Z</time>
      </trkpt>
      <trkpt lat="44.11821" lon="2.26448">
        <ele>336.5</ele>
        <time>2016-05-04T12:48:13Z</time>
      </trkpt>
      <trkpt lat="44.11822" lon="2.26448">
        <ele>336.6</ele>
        <time>2016-05-04T12:48:14Z</time>
      </trkpt>
      <trkpt lat="44.11822" lon="2.26449">
        <ele>336.4</ele>
        <time>2016-05-04T12:48:15Z</time>
      </trkpt>
      <trkpt lat="44.11823" lon="2.26449">
        <ele>336.3</ele>
        <time>2016-05-04T12:48:16Z</time>
      </trkpt>
      <trkpt lat="44.11824" lon="2.2645">
        <ele>336.2</ele>
        <time>2016-05-04T12:48:17Z</time>
      </trkpt>
      <trkpt lat="44.11825" lon="2.2645">
        <ele>336.1</ele>
        <time>2016-05-04T12:48:18Z</time>
      </trkpt>
      <trkpt lat="44.11826" lon="2.26451">
        <ele>336</ele>
        <time>2016-05-04T12:48:19Z</time>
      </trkpt>
      <trkpt lat="44.11827" lon="2.26451">
        <ele>336</ele>
        <time>2016-05-04T12:48:20Z</time>
      </trkpt>
      <trkpt lat="44.11828" lon="2.26452">
        <ele>336</ele>
        <time>2016-05-04T12:48:21Z</time>
      </trkpt>
      <trkpt lat="44.11829" lon="2.26452">
        <ele>335.9</ele>
        <time>2016-05-04T12:48:22Z</time>
      </trkpt>
      <trkpt lat="44.1183" lon="2.26453">
        <ele>335.9</ele>
        <time>2016-05-04T12:48:23Z</time>
      </trkpt>
      <trkpt lat="44.11831" lon="2.26454">
        <ele>336.1</ele>
        <time>2016-05-04T12:48:24Z</time>
      </trkpt>
      <trkpt lat="44.11831" lon="2.26455">
        <ele>336.3</ele>
        <time>2016-05-04T12:48:25Z</time>
      </trkpt>
      <trkpt lat="44.11832" lon="2.26456">
        <ele>336.4</ele>
        <time>2016-05-04T12:48:26Z</time>
      </trkpt>
      <trkpt lat="44.11835" lon="2.26461">
        <ele>335.9</ele>
        <time>2016-05-04T12:48:31Z</time>
      </trkpt>
      <trkpt lat="44.11835" lon="2.26463">
        <ele>335.8</ele>
        <time>2016-05-04T12:48:34Z</time>
      </trkpt>
      <trkpt lat="44.11835" lon="2.26466">
        <ele>336.8</ele>
        <time>2016-05-04T12:48:38Z</time>
      </trkpt>
      <trkpt lat="44.11835" lon="2.26466">
        <ele>337.2</ele>
        <time>2016-05-04T12:48:39Z</time>
      </trkpt>
      <trkpt lat="44.11835" lon="2.26466">
        <ele>337.5</ele>
        <time>2016-05-04T12:48:40Z</time>
      </trkpt>
      <trkpt lat="44.11835" lon="2.26466">
        <ele>337.7</ele>
        <time>2016-05-04T12:48:41Z</time>
      </trkpt>
      <trkpt lat="44.11835" lon="2.26466">
        <ele>337.7</ele>
        <time>2016-05-04T12:48:42Z</time>
      </trkpt>
      <trkpt lat="44.11835" lon="2.26466">
        <ele>337.7</ele>
        <time>2016-05-04T12:48:43Z</time>
      </trkpt>
      <trkpt lat="44.11834" lon="2.26467">
        <ele>337.6</ele>
        <time>2016-05-04T12:48:44Z</time>
      </trkpt>
      <trkpt lat="44.11834" lon="2.26467">
        <ele>337.8</ele>
        <time>2016-05-04T12:48:45Z</time>
      </trkpt>
      <trkpt lat="44.11834" lon="2.26467">
        <ele>338</ele>
        <time>2016-05-04T12:48:46Z</time>
      </trkpt>
      <trkpt lat="44.11834" lon="2.26468">
        <ele>338.1</ele>
        <time>2016-05-04T12:48:47Z</time>
      </trkpt>
      <trkpt lat="44.11833" lon="2.26469">
        <ele>338.2</ele>
        <time>2016-05-04T12:48:48Z</time>
      </trkpt>
      <trkpt lat="44.11833" lon="2.26469">
        <ele>338.2</ele>
        <time>2016-05-04T12:48:49Z</time>
      </trkpt>
      <trkpt lat="44.11834" lon="2.2647">
        <ele>338.3</ele>
        <time>2016-05-04T12:48:50Z</time>
      </trkpt>
      <trkpt lat="44.11834" lon="2.2647">
        <ele>339</ele>
        <time>2016-05-04T12:48:51Z</time>
      </trkpt>
      <trkpt lat="44.11835" lon="2.26471">
        <ele>339.5</ele>
        <time>2016-05-04T12:48:52Z</time>
      </trkpt>
      <trkpt lat="44.11835" lon="2.26472">
        <ele>339.8</ele>
        <time>2016-05-04T12:48:53Z</time>
      </trkpt>
      <trkpt lat="44.11835" lon="2.26473">
        <ele>339.9</ele>
        <time>2016-05-04T12:48:54Z</time>
      </trkpt>
      <trkpt lat="44.11836" lon="2.26473">
        <ele>340</ele>
        <time>2016-05-04T12:48:55Z</time>
      </trkpt>
      <trkpt lat="44.11836" lon="2.26474">
        <ele>340</ele>
        <time>2016-05-04T12:48:56Z</time>
      </trkpt>
      <trkpt lat="44.11836" lon="2.26475">
        <ele>340.2</ele>
        <time>2016-05-04T12:48:57Z</time>
      </trkpt>
      <trkpt lat="44.11837" lon="2.26475">
        <ele>340.4</ele>
        <time>2016-05-04T12:48:58Z</time>
      </trkpt>
      <trkpt lat="44.11837" lon="2.26475">
        <ele>340.6</ele>
        <time>2016-05-04T12:48:59Z</time>
      </trkpt>
      <trkpt lat="44.11838" lon="2.26475">
        <ele>341.1</ele>
        <time>2016-05-04T12:49:00Z</time>
      </trkpt>
      <trkpt lat="44.11838" lon="2.26475">
        <ele>341.5</ele>
        <time>2016-05-04T12:49:01Z</time>
      </trkpt>
      <trkpt lat="44.11839" lon="2.26476">
        <ele>341.8</ele>
        <time>2016-05-04T12:49:02Z</time>
      </trkpt>
      <trkpt lat="44.1184" lon="2.26476">
        <ele>342.2</ele>
        <time>2016-05-04T12:49:03Z</time>
      </trkpt>
      <trkpt lat="44.11841" lon="2.26476">
        <ele>342.6</ele>
        <time>2016-05-04T12:49:04Z</time>
      </trkpt>
      <trkpt lat="44.11842" lon="2.26477">
        <ele>342.8</ele>
        <time>2016-05-04T12:49:05Z</time>
      </trkpt>
      <trkpt lat="44.11842" lon="2.26477">
        <ele>343.2</ele>
        <time>2016-05-04T12:49:06Z</time>
      </trkpt>
      <trkpt lat="44.11843" lon="2.26478">
        <ele>343.5</ele>
        <time>2016-05-04T12:49:07Z</time>
      </trkpt>
      <trkpt lat="44.11844" lon="2.26479">
        <ele>343.7</ele>
        <time>2016-05-04T12:49:08Z</time>
      </trkpt>
      <trkpt lat="44.11844" lon="2.2648">
        <ele>343.5</ele>
        <time>2016-05-04T12:49:09Z</time>
      </trkpt>
      <trkpt lat="44.11844" lon="2.2648">
        <ele>343.3</ele>
        <time>2016-05-04T12:49:10Z</time>
      </trkpt>
      <trkpt lat="44.11845" lon="2.26481">
        <ele>343.1</ele>
        <time>2016-05-04T12:49:11Z</time>
      </trkpt>
      <trkpt lat="44.11845" lon="2.26481">
        <ele>343.2</ele>
        <time>2016-05-04T12:49:12Z</time>
      </trkpt>
      <trkpt lat="44.11846" lon="2.26482">
        <ele>343.3</ele>
        <time>2016-05-04T12:49:13Z</time>
      </trkpt>
      <trkpt lat="44.11848" lon="2.26487">
        <ele>343.8</ele>
        <time>2016-05-04T12:49:18Z</time>
      </trkpt>
      <trkpt lat="44.11849" lon="2.26488">
        <ele>343.8</ele>
        <time>2016-05-04T12:49:19Z</time>
      </trkpt>
      <trkpt lat="44.11852" lon="2.26497">
        <ele>343.5</ele>
        <time>2016-05-04T12:49:30Z</time>
      </trkpt>
      <trkpt lat="44.11852" lon="2.26498">
        <ele>343.5</ele>
        <time>2016-05-04T12:49:31Z</time>
      </trkpt>
      <trkpt lat="44.11853" lon="2.26499">
        <ele>343.5</ele>
        <time>2016-05-04T12:49:32Z</time>
      </trkpt>
      <trkpt lat="44.11853" lon="2.26499">
        <ele>342.7</ele>
        <time>2016-05-04T12:49:33Z</time>
      </trkpt>
      <trkpt lat="44.11854" lon="2.265">
        <ele>341</ele>
        <time>2016-05-04T12:49:36Z</time>
      </trkpt>
      <trkpt lat="44.11855" lon="2.26501">
        <ele>340.2</ele>
        <time>2016-05-04T12:49:38Z</time>
      </trkpt>
      <trkpt lat="44.11856" lon="2.26501">
        <ele>340</ele>
        <time>2016-05-04T12:49:39Z</time>
      </trkpt>
      <trkpt lat="44.11856" lon="2.26502">
        <ele>339.8</ele>
        <time>2016-05-04T12:49:40Z</time>
      </trkpt>
      <trkpt lat="44.11864" lon="2.26511">
        <ele>336.3</ele>
        <time>2016-05-04T12:49:53Z</time>
      </trkpt>
      <trkpt lat="44.11865" lon="2.26512">
        <ele>336.4</ele>
        <time>2016-05-04T12:49:54Z</time>
      </trkpt>
      <trkpt lat="44.11865" lon="2.26513">
        <ele>336.5</ele>
        <time>2016-05-04T12:49:55Z</time>
      </trkpt>
      <trkpt lat="44.11866" lon="2.26515">
        <ele>336.5</ele>
        <time>2016-05-04T12:49:56Z</time>
      </trkpt>
      <trkpt lat="44.11866" lon="2.26516">
        <ele>336.4</ele>
        <time>2016-05-04T12:49:57Z</time>
      </trkpt>
      <trkpt lat="44.11866" lon="2.26517">
        <ele>336.2</ele>
        <time>2016-05-04T12:49:58Z</time>
      </trkpt>
      <trkpt lat="44.11866" lon="2.26519">
        <ele>336.2</ele>
        <time>2016-05-04T12:49:59Z</time>
      </trkpt>
      <trkpt lat="44.11866" lon="2.2652">
        <ele>335.7</ele>
        <time>2016-05-04T12:50:00Z</time>
      </trkpt>
      <trkpt lat="44.11866" lon="2.26521">
        <ele>335.3</ele>
        <time>2016-05-04T12:50:01Z</time>
      </trkpt>
      <trkpt lat="44.11867" lon="2.26523">
        <ele>335</ele>
        <time>2016-05-04T12:50:02Z</time>
      </trkpt>
      <trkpt lat="44.11867" lon="2.26524">
        <ele>334.8</ele>
        <time>2016-05-04T12:50:03Z</time>
      </trkpt>
      <trkpt lat="44.11867" lon="2.26525">
        <ele>334.6</ele>
        <time>2016-05-04T12:50:04Z</time>
      </trkpt>
      <trkpt lat="44.11867" lon="2.26534">
        <ele>332.3</ele>
        <time>2016-05-04T12:50:11Z</time>
      </trkpt>
      <trkpt lat="44.11868" lon="2.26535">
        <ele>331.9</ele>
        <time>2016-05-04T12:50:12Z</time>
      </trkpt>
      <trkpt lat="44.11869" lon="2.26536">
        <ele>331.4</ele>
        <time>2016-05-04T12:50:14Z</time>
      </trkpt>
      <trkpt lat="44.11871" lon="2.26539">
        <ele>330.5</ele>
        <time>2016-05-04T12:50:18Z</time>
      </trkpt>
      <trkpt lat="44.11871" lon="2.26539">
        <ele>330.2</ele>
        <time>2016-05-04T12:50:19Z</time>
      </trkpt>
      <trkpt lat="44.11871" lon="2.26539">
        <ele>329.9</ele>
        <time>2016-05-04T12:50:20Z</time>
      </trkpt>
      <trkpt lat="44.11872" lon="2.2654">
        <ele>329.7</ele>
        <time>2016-05-04T12:50:21Z</time>
      </trkpt>
      <trkpt lat="44.11872" lon="2.2654">
        <ele>329.5</ele>
        <time>2016-05-04T12:50:22Z</time>
      </trkpt>
      <trkpt lat="44.11872" lon="2.2654">
        <ele>329.4</ele>
        <time>2016-05-04T12:50:23Z</time>
      </trkpt>
      <trkpt lat="44.11872" lon="2.2654">
        <ele>328.9</ele>
        <time>2016-05-04T12:50:24Z</time>
      </trkpt>
      <trkpt lat="44.11873" lon="2.2654">
        <ele>328.5</ele>
        <time>2016-05-04T12:50:25Z</time>
      </trkpt>
      <trkpt lat="44.11873" lon="2.26541">
        <ele>328.2</ele>
        <time>2016-05-04T12:50:26Z</time>
      </trkpt>
      <trkpt lat="44.11873" lon="2.26542">
        <ele>327.8</ele>
        <time>2016-05-04T12:50:27Z</time>
      </trkpt>
      <trkpt lat="44.11873" lon="2.26542">
        <ele>327.5</ele>
        <time>2016-05-04T12:50:28Z</time>
      </trkpt>
      <trkpt lat="44.11873" lon="2.26543">
        <ele>327.2</ele>
        <time>2016-05-04T12:50:29Z</time>
      </trkpt>
      <trkpt lat="44.11873" lon="2.26544">
        <ele>327</ele>
        <time>2016-05-04T12:50:30Z</time>
      </trkpt>
      <trkpt lat="44.11874" lon="2.26545">
        <ele>326.8</ele>
        <time>2016-05-04T12:50:32Z</time>
      </trkpt>
      <trkpt lat="44.11874" lon="2.26546">
        <ele>326.7</ele>
        <time>2016-05-04T12:50:33Z</time>
      </trkpt>
      <trkpt lat="44.11874" lon="2.26546">
        <ele>326.7</ele>
        <time>2016-05-04T12:50:34Z</time>
      </trkpt>
      <trkpt lat="44.11874" lon="2.26547">
        <ele>326.6</ele>
        <time>2016-05-04T12:50:35Z</time>
      </trkpt>
      <trkpt lat="44.11874" lon="2.26547">
        <ele>326.6</ele>
        <time>2016-05-04T12:50:36Z</time>
      </trkpt>
      <trkpt lat="44.11875" lon="2.26549">
        <ele>325.7</ele>
        <time>2016-05-04T12:50:39Z</time>
      </trkpt>
      <trkpt lat="44.11875" lon="2.2655">
        <ele>325</ele>
        <time>2016-05-04T12:50:40Z</time>
      </trkpt>
      <trkpt lat="44.11879" lon="2.26555">
        <ele>323.7</ele>
        <time>2016-05-04T12:50:45Z</time>
      </trkpt>
      <trkpt lat="44.11882" lon="2.26557">
        <ele>323.1</ele>
        <time>2016-05-04T12:50:48Z</time>
      </trkpt>
      <trkpt lat="44.11883" lon="2.26558">
        <ele>323.1</ele>
        <time>2016-05-04T12:50:49Z</time>
      </trkpt>
      <trkpt lat="44.11884" lon="2.26558">
        <ele>323.1</ele>
        <time>2016-05-04T12:50:50Z</time>
      </trkpt>
      <trkpt lat="44.11884" lon="2.26559">
        <ele>322.9</ele>
        <time>2016-05-04T12:50:51Z</time>
      </trkpt>
      <trkpt lat="44.11885" lon="2.2656">
        <ele>322.7</ele>
        <time>2016-05-04T12:50:52Z</time>
      </trkpt>
      <trkpt lat="44.11886" lon="2.26561">
        <ele>322.6</ele>
        <time>2016-05-04T12:50:53Z</time>
      </trkpt>
      <trkpt lat="44.11888" lon="2.26568">
        <ele>322.4</ele>
        <time>2016-05-04T12:50:57Z</time>
      </trkpt>
      <trkpt lat="44.1189" lon="2.26575">
        <ele>322.5</ele>
        <time>2016-05-04T12:51:00Z</time>
      </trkpt>
      <trkpt lat="44.11891" lon="2.2658">
        <ele>322.6</ele>
        <time>2016-05-04T12:51:03Z</time>
      </trkpt>
      <trkpt lat="44.11891" lon="2.26581">
        <ele>322.5</ele>
        <time>2016-05-04T12:51:04Z</time>
      </trkpt>
      <trkpt lat="44.11892" lon="2.26584">
        <ele>322.7</ele>
        <time>2016-05-04T12:51:07Z</time>
      </trkpt>
      <trkpt lat="44.11892" lon="2.26586">
        <ele>322.8</ele>
        <time>2016-05-04T12:51:08Z</time>
      </trkpt>
      <trkpt lat="44.11891" lon="2.26588">
        <ele>323.3</ele>
        <time>2016-05-04T12:51:10Z</time>
      </trkpt>
      <trkpt lat="44.11891" lon="2.26594">
        <ele>323.3</ele>
        <time>2016-05-04T12:51:14Z</time>
      </trkpt>
      <trkpt lat="44.11891" lon="2.26595">
        <ele>323.4</ele>
        <time>2016-05-04T12:51:15Z</time>
      </trkpt>
      <trkpt lat="44.11894" lon="2.26613">
        <ele>325.9</ele>
        <time>2016-05-04T12:51:28Z</time>
      </trkpt>
      <trkpt lat="44.11894" lon="2.26614">
        <ele>326</ele>
        <time>2016-05-04T12:51:29Z</time>
      </trkpt>
      <trkpt lat="44.11894" lon="2.26615">
        <ele>326.6</ele>
        <time>2016-05-04T12:51:30Z</time>
      </trkpt>
      <trkpt lat="44.11894" lon="2.26618">
        <ele>327.3</ele>
        <time>2016-05-04T12:51:33Z</time>
      </trkpt>
      <trkpt lat="44.11895" lon="2.2662">
        <ele>327.3</ele>
        <time>2016-05-04T12:51:35Z</time>
      </trkpt>
      <trkpt lat="44.11895" lon="2.26621">
        <ele>327.3</ele>
        <time>2016-05-04T12:51:36Z</time>
      </trkpt>
      <trkpt lat="44.11895" lon="2.26623">
        <ele>327.3</ele>
        <time>2016-05-04T12:51:38Z</time>
      </trkpt>
      <trkpt lat="44.11894" lon="2.26625">
        <ele>327</ele>
        <time>2016-05-04T12:51:40Z</time>
      </trkpt>
      <trkpt lat="44.11892" lon="2.26637">
        <ele>328</ele>
        <time>2016-05-04T12:51:52Z</time>
      </trkpt>
      <trkpt lat="44.11892" lon="2.26638">
        <ele>328.2</ele>
        <time>2016-05-04T12:51:53Z</time>
      </trkpt>
      <trkpt lat="44.11892" lon="2.26639">
        <ele>328.4</ele>
        <time>2016-05-04T12:51:54Z</time>
      </trkpt>
      <trkpt lat="44.11893" lon="2.2664">
        <ele>328.6</ele>
        <time>2016-05-04T12:51:55Z</time>
      </trkpt>
      <trkpt lat="44.11893" lon="2.26641">
        <ele>328.7</ele>
        <time>2016-05-04T12:51:56Z</time>
      </trkpt>
      <trkpt lat="44.11894" lon="2.26642">
        <ele>328.6</ele>
        <time>2016-05-04T12:51:57Z</time>
      </trkpt>
      <trkpt lat="44.11894" lon="2.26643">
        <ele>328.5</ele>
        <time>2016-05-04T12:51:58Z</time>
      </trkpt>
      <trkpt lat="44.11895" lon="2.26644">
        <ele>328.4</ele>
        <time>2016-05-04T12:51:59Z</time>
      </trkpt>
      <trkpt lat="44.11895" lon="2.26645">
        <ele>328.8</ele>
        <time>2016-05-04T12:52:00Z</time>
      </trkpt>
      <trkpt lat="44.11895" lon="2.26648">
        <ele>329.3</ele>
        <time>2016-05-04T12:52:02Z</time>
      </trkpt>
      <trkpt lat="44.11895" lon="2.26649">
        <ele>329.2</ele>
        <time>2016-05-04T12:52:03Z</time>
      </trkpt>
      <trkpt lat="44.11894" lon="2.2665">
        <ele>329.1</ele>
        <time>2016-05-04T12:52:05Z</time>
      </trkpt>
      <trkpt lat="44.11893" lon="2.26651">
        <ele>329.5</ele>
        <time>2016-05-04T12:52:06Z</time>
      </trkpt>
      <trkpt lat="44.11892" lon="2.26651">
        <ele>329.8</ele>
        <time>2016-05-04T12:52:07Z</time>
      </trkpt>
      <trkpt lat="44.11892" lon="2.26652">
        <ele>330.1</ele>
        <time>2016-05-04T12:52:08Z</time>
      </trkpt>
      <trkpt lat="44.11889" lon="2.26653">
        <ele>330.3</ele>
        <time>2016-05-04T12:52:13Z</time>
      </trkpt>
      <trkpt lat="44.11888" lon="2.26654">
        <ele>330.4</ele>
        <time>2016-05-04T12:52:14Z</time>
      </trkpt>
      <trkpt lat="44.11881" lon="2.26666">
        <ele>332.3</ele>
        <time>2016-05-04T12:52:29Z</time>
      </trkpt>
      <trkpt lat="44.11881" lon="2.26666">
        <ele>333</ele>
        <time>2016-05-04T12:52:30Z</time>
      </trkpt>
      <trkpt lat="44.11881" lon="2.26666">
        <ele>333.5</ele>
        <time>2016-05-04T12:52:31Z</time>
      </trkpt>
      <trkpt lat="44.11881" lon="2.26666">
        <ele>333.9</ele>
        <time>2016-05-04T12:52:32Z</time>
      </trkpt>
      <trkpt lat="44.11881" lon="2.26666">
        <ele>333.9</ele>
        <time>2016-05-04T12:52:33Z</time>
      </trkpt>
      <trkpt lat="44.1188" lon="2.26666">
        <ele>334</ele>
        <time>2016-05-04T12:52:34Z</time>
      </trkpt>
      <trkpt lat="44.1188" lon="2.26667">
        <ele>334</ele>
        <time>2016-05-04T12:52:35Z</time>
      </trkpt>
      <trkpt lat="44.1188" lon="2.26667">
        <ele>334.3</ele>
        <time>2016-05-04T12:52:36Z</time>
      </trkpt>
      <trkpt lat="44.11879" lon="2.26666">
        <ele>334.5</ele>
        <time>2016-05-04T12:52:37Z</time>
      </trkpt>
      <trkpt lat="44.11879" lon="2.26666">
        <ele>334.6</ele>
        <time>2016-05-04T12:52:38Z</time>
      </trkpt>
      <trkpt lat="44.11878" lon="2.26665">
        <ele>334.5</ele>
        <time>2016-05-04T12:52:39Z</time>
      </trkpt>
      <trkpt lat="44.11876" lon="2.26666">
        <ele>334.6</ele>
        <time>2016-05-04T12:52:46Z</time>
      </trkpt>
      <trkpt lat="44.11875" lon="2.26666">
        <ele>334.7</ele>
        <time>2016-05-04T12:52:47Z</time>
      </trkpt>
      <trkpt lat="44.11875" lon="2.26666">
        <ele>334.6</ele>
        <time>2016-05-04T12:52:48Z</time>
      </trkpt>
      <trkpt lat="44.11875" lon="2.26666">
        <ele>334.5</ele>
        <time>2016-05-04T12:52:49Z</time>
      </trkpt>
      <trkpt lat="44.11874" lon="2.26666">
        <ele>334.4</ele>
        <time>2016-05-04T12:52:50Z</time>
      </trkpt>
      <trkpt lat="44.11874" lon="2.26666">
        <ele>334.5</ele>
        <time>2016-05-04T12:52:51Z</time>
      </trkpt>
      <trkpt lat="44.11874" lon="2.26666">
        <ele>334.7</ele>
        <time>2016-05-04T12:52:52Z</time>
      </trkpt>
      <trkpt lat="44.11874" lon="2.26666">
        <ele>334.7</ele>
        <time>2016-05-04T12:52:53Z</time>
      </trkpt>
      <trkpt lat="44.11874" lon="2.26666">
        <ele>335</ele>
        <time>2016-05-04T12:52:54Z</time>
      </trkpt>
      <trkpt lat="44.11873" lon="2.26666">
        <ele>335.2</ele>
        <time>2016-05-04T12:52:55Z</time>
      </trkpt>
      <trkpt lat="44.11873" lon="2.26666">
        <ele>335.4</ele>
        <time>2016-05-04T12:52:56Z</time>
      </trkpt>
      <trkpt lat="44.11873" lon="2.26666">
        <ele>335.9</ele>
        <time>2016-05-04T12:52:57Z</time>
      </trkpt>
      <trkpt lat="44.11872" lon="2.26667">
        <ele>336.3</ele>
        <time>2016-05-04T12:52:58Z</time>
      </trkpt>
      <trkpt lat="44.11871" lon="2.26667">
        <ele>336.6</ele>
        <time>2016-05-04T12:52:59Z</time>
      </trkpt>
      <trkpt lat="44.11871" lon="2.26667">
        <ele>336.5</ele>
        <time>2016-05-04T12:53:00Z</time>
      </trkpt>
      <trkpt lat="44.1187" lon="2.26667">
        <ele>336.3</ele>
        <time>2016-05-04T12:53:01Z</time>
      </trkpt>
      <trkpt lat="44.1187" lon="2.26667">
        <ele>336.2</ele>
        <time>2016-05-04T12:53:02Z</time>
      </trkpt>
      <trkpt lat="44.11869" lon="2.26667">
        <ele>336.5</ele>
        <time>2016-05-04T12:53:03Z</time>
      </trkpt>
      <trkpt lat="44.11868" lon="2.26668">
        <ele>337</ele>
        <time>2016-05-04T12:53:05Z</time>
      </trkpt>
      <trkpt lat="44.11868" lon="2.26668">
        <ele>337.6</ele>
        <time>2016-05-04T12:53:06Z</time>
      </trkpt>
      <trkpt lat="44.11867" lon="2.26668">
        <ele>338</ele>
        <time>2016-05-04T12:53:07Z</time>
      </trkpt>
      <trkpt lat="44.11867" lon="2.26668">
        <ele>338.3</ele>
        <time>2016-05-04T12:53:08Z</time>
      </trkpt>
      <trkpt lat="44.11867" lon="2.26669">
        <ele>338.8</ele>
        <time>2016-05-04T12:53:09Z</time>
      </trkpt>
      <trkpt lat="44.11867" lon="2.26669">
        <ele>339.1</ele>
        <time>2016-05-04T12:53:10Z</time>
      </trkpt>
      <trkpt lat="44.11867" lon="2.26669">
        <ele>339.4</ele>
        <time>2016-05-04T12:53:11Z</time>
      </trkpt>
      <trkpt lat="44.11867" lon="2.26669">
        <ele>339.5</ele>
        <time>2016-05-04T12:53:12Z</time>
      </trkpt>
      <trkpt lat="44.11867" lon="2.2667">
        <ele>339.7</ele>
        <time>2016-05-04T12:53:13Z</time>
      </trkpt>
      <trkpt lat="44.11867" lon="2.2667">
        <ele>339.8</ele>
        <time>2016-05-04T12:53:14Z</time>
      </trkpt>
      <trkpt lat="44.11868" lon="2.2667">
        <ele>340.3</ele>
        <time>2016-05-04T12:53:15Z</time>
      </trkpt>
      <trkpt lat="44.11868" lon="2.26671">
        <ele>340.7</ele>
        <time>2016-05-04T12:53:16Z</time>
      </trkpt>
      <trkpt lat="44.11869" lon="2.26671">
        <ele>341</ele>
        <time>2016-05-04T12:53:17Z</time>
      </trkpt>
      <trkpt lat="44.11869" lon="2.26671">
        <ele>341</ele>
        <time>2016-05-04T12:53:18Z</time>
      </trkpt>
      <trkpt lat="44.11869" lon="2.26672">
        <ele>341</ele>
        <time>2016-05-04T12:53:19Z</time>
      </trkpt>
      <trkpt lat="44.11869" lon="2.26672">
        <ele>341</ele>
        <time>2016-05-04T12:53:20Z</time>
      </trkpt>
      <trkpt lat="44.11869" lon="2.26672">
        <ele>341.4</ele>
        <time>2016-05-04T12:53:21Z</time>
      </trkpt>
      <trkpt lat="44.11869" lon="2.26673">
        <ele>341.7</ele>
        <time>2016-05-04T12:53:22Z</time>
      </trkpt>
      <trkpt lat="44.11869" lon="2.26673">
        <ele>342</ele>
        <time>2016-05-04T12:53:23Z</time>
      </trkpt>
      <trkpt lat="44.11869" lon="2.26674">
        <ele>342.4</ele>
        <time>2016-05-04T12:53:26Z</time>
      </trkpt>
      <trkpt lat="44.11869" lon="2.26674">
        <ele>342.7</ele>
        <time>2016-05-04T12:53:27Z</time>
      </trkpt>
      <trkpt lat="44.11869" lon="2.26675">
        <ele>342.9</ele>
        <time>2016-05-04T12:53:28Z</time>
      </trkpt>
      <trkpt lat="44.11869" lon="2.26675">
        <ele>343</ele>
        <time>2016-05-04T12:53:29Z</time>
      </trkpt>
      <trkpt lat="44.11869" lon="2.26675">
        <ele>343.2</ele>
        <time>2016-05-04T12:53:30Z</time>
      </trkpt>
      <trkpt lat="44.11869" lon="2.26676">
        <ele>343.3</ele>
        <time>2016-05-04T12:53:31Z</time>
      </trkpt>
      <trkpt lat="44.11869" lon="2.26676">
        <ele>343.3</ele>
        <time>2016-05-04T12:53:32Z</time>
      </trkpt>
      <trkpt lat="44.1187" lon="2.26677">
        <ele>343.4</ele>
        <time>2016-05-04T12:53:33Z</time>
      </trkpt>
      <trkpt lat="44.1187" lon="2.26678">
        <ele>343.4</ele>
        <time>2016-05-04T12:53:34Z</time>
      </trkpt>
      <trkpt lat="44.1187" lon="2.26678">
        <ele>343.4</ele>
        <time>2016-05-04T12:53:35Z</time>
      </trkpt>
      <trkpt lat="44.1187" lon="2.26679">
        <ele>344.1</ele>
        <time>2016-05-04T12:53:36Z</time>
      </trkpt>
      <trkpt lat="44.11871" lon="2.26679">
        <ele>344.6</ele>
        <time>2016-05-04T12:53:37Z</time>
      </trkpt>
      <trkpt lat="44.11871" lon="2.2668">
        <ele>345</ele>
        <time>2016-05-04T12:53:38Z</time>
      </trkpt>
      <trkpt lat="44.11872" lon="2.26681">
        <ele>345.7</ele>
        <time>2016-05-04T12:53:39Z</time>
      </trkpt>
      <trkpt lat="44.11872" lon="2.26682">
        <ele>346.2</ele>
        <time>2016-05-04T12:53:40Z</time>
      </trkpt>
      <trkpt lat="44.11873" lon="2.26683">
        <ele>346.6</ele>
        <time>2016-05-04T12:53:41Z</time>
      </trkpt>
      <trkpt lat="44.11873" lon="2.26684">
        <ele>346.3</ele>
        <time>2016-05-04T12:53:42Z</time>
      </trkpt>
      <trkpt lat="44.11874" lon="2.26684">
        <ele>346</ele>
        <time>2016-05-04T12:53:43Z</time>
      </trkpt>
      <trkpt lat="44.11875" lon="2.26685">
        <ele>345.8</ele>
        <time>2016-05-04T12:53:44Z</time>
      </trkpt>
      <trkpt lat="44.11875" lon="2.26686">
        <ele>346.3</ele>
        <time>2016-05-04T12:53:45Z</time>
      </trkpt>
      <trkpt lat="44.11876" lon="2.26687">
        <ele>346.7</ele>
        <time>2016-05-04T12:53:46Z</time>
      </trkpt>
      <trkpt lat="44.11876" lon="2.26688">
        <ele>347</ele>
        <time>2016-05-04T12:53:47Z</time>
      </trkpt>
      <trkpt lat="44.11877" lon="2.26688">
        <ele>347.2</ele>
        <time>2016-05-04T12:53:48Z</time>
      </trkpt>
      <trkpt lat="44.11877" lon="2.26689">
        <ele>347.3</ele>
        <time>2016-05-04T12:53:49Z</time>
      </trkpt>
      <trkpt lat="44.11878" lon="2.26689">
        <ele>347.4</ele>
        <time>2016-05-04T12:53:50Z</time>
      </trkpt>
      <trkpt lat="44.11878" lon="2.2669">
        <ele>348</ele>
        <time>2016-05-04T12:53:51Z</time>
      </trkpt>
      <trkpt lat="44.11878" lon="2.26691">
        <ele>348.3</ele>
        <time>2016-05-04T12:53:52Z</time>
      </trkpt>
      <trkpt lat="44.11878" lon="2.26691">
        <ele>348.6</ele>
        <time>2016-05-04T12:53:53Z</time>
      </trkpt>
      <trkpt lat="44.11879" lon="2.26692">
        <ele>349.1</ele>
        <time>2016-05-04T12:53:54Z</time>
      </trkpt>
      <trkpt lat="44.11879" lon="2.26692">
        <ele>349.4</ele>
        <time>2016-05-04T12:53:55Z</time>
      </trkpt>
      <trkpt lat="44.11879" lon="2.26692">
        <ele>349.6</ele>
        <time>2016-05-04T12:53:56Z</time>
      </trkpt>
      <trkpt lat="44.11879" lon="2.26693">
        <ele>349.6</ele>
        <time>2016-05-04T12:53:57Z</time>
      </trkpt>
      <trkpt lat="44.11879" lon="2.26693">
        <ele>349.6</ele>
        <time>2016-05-04T12:53:58Z</time>
      </trkpt>
      <trkpt lat="44.1188" lon="2.26693">
        <ele>349.6</ele>
        <time>2016-05-04T12:53:59Z</time>
      </trkpt>
      <trkpt lat="44.1188" lon="2.26694">
        <ele>350</ele>
        <time>2016-05-04T12:54:00Z</time>
      </trkpt>
      <trkpt lat="44.1188" lon="2.26694">
        <ele>350.3</ele>
        <time>2016-05-04T12:54:01Z</time>
      </trkpt>
      <trkpt lat="44.1188" lon="2.26694">
        <ele>350.5</ele>
        <time>2016-05-04T12:54:02Z</time>
      </trkpt>
      <trkpt lat="44.1188" lon="2.26695">
        <ele>350.7</ele>
        <time>2016-05-04T12:54:03Z</time>
      </trkpt>
      <trkpt lat="44.11881" lon="2.26695">
        <ele>350.8</ele>
        <time>2016-05-04T12:54:04Z</time>
      </trkpt>
      <trkpt lat="44.11881" lon="2.26695">
        <ele>350.9</ele>
        <time>2016-05-04T12:54:05Z</time>
      </trkpt>
      <trkpt lat="44.11882" lon="2.26696">
        <ele>351</ele>
        <time>2016-05-04T12:54:06Z</time>
      </trkpt>
      <trkpt lat="44.11883" lon="2.26696">
        <ele>351</ele>
        <time>2016-05-04T12:54:07Z</time>
      </trkpt>
      <trkpt lat="44.11886" lon="2.26697">
        <ele>351.5</ele>
        <time>2016-05-04T12:54:10Z</time>
      </trkpt>
      <trkpt lat="44.11887" lon="2.26698">
        <ele>351.6</ele>
        <time>2016-05-04T12:54:11Z</time>
      </trkpt>
      <trkpt lat="44.11887" lon="2.26699">
        <ele>351.3</ele>
        <time>2016-05-04T12:54:12Z</time>
      </trkpt>
      <trkpt lat="44.11888" lon="2.26699">
        <ele>351.1</ele>
        <time>2016-05-04T12:54:13Z</time>
      </trkpt>
      <trkpt lat="44.11889" lon="2.267">
        <ele>350.9</ele>
        <time>2016-05-04T12:54:14Z</time>
      </trkpt>
      <trkpt lat="44.1189" lon="2.26703">
        <ele>350.6</ele>
        <time>2016-05-04T12:54:17Z</time>
      </trkpt>
      <trkpt lat="44.11891" lon="2.26705">
        <ele>351.2</ele>
        <time>2016-05-04T12:54:19Z</time>
      </trkpt>
      <trkpt lat="44.11892" lon="2.26711">
        <ele>351.9</ele>
        <time>2016-05-04T12:54:24Z</time>
      </trkpt>
      <trkpt lat="44.11892" lon="2.26712">
        <ele>351.9</ele>
        <time>2016-05-04T12:54:25Z</time>
      </trkpt>
      <trkpt lat="44.11892" lon="2.26713">
        <ele>351.9</ele>
        <time>2016-05-04T12:54:26Z</time>
      </trkpt>
      <trkpt lat="44.11892" lon="2.26714">
        <ele>351.5</ele>
        <time>2016-05-04T12:54:27Z</time>
      </trkpt>
      <trkpt lat="44.11892" lon="2.26716">
        <ele>351.3</ele>
        <time>2016-05-04T12:54:28Z</time>
      </trkpt>
      <trkpt lat="44.11892" lon="2.26717">
        <ele>351</ele>
        <time>2016-05-04T12:54:29Z</time>
      </trkpt>
      <trkpt lat="44.11892" lon="2.26718">
        <ele>350.6</ele>
        <time>2016-05-04T12:54:30Z</time>
      </trkpt>
      <trkpt lat="44.11892" lon="2.26719">
        <ele>350.4</ele>
        <time>2016-05-04T12:54:31Z</time>
      </trkpt>
      <trkpt lat="44.11892" lon="2.2672">
        <ele>350.1</ele>
        <time>2016-05-04T12:54:32Z</time>
      </trkpt>
      <trkpt lat="44.11892" lon="2.26721">
        <ele>349.8</ele>
        <time>2016-05-04T12:54:33Z</time>
      </trkpt>
      <trkpt lat="44.1189" lon="2.26726">
        <ele>348.6</ele>
        <time>2016-05-04T12:54:37Z</time>
      </trkpt>
      <trkpt lat="44.11888" lon="2.26731">
        <ele>347.8</ele>
        <time>2016-05-04T12:54:40Z</time>
      </trkpt>
      <trkpt lat="44.11886" lon="2.26733">
        <ele>347.8</ele>
        <time>2016-05-04T12:54:42Z</time>
      </trkpt>
      <trkpt lat="44.11885" lon="2.26735">
        <ele>348.2</ele>
        <time>2016-05-04T12:54:44Z</time>
      </trkpt>
      <trkpt lat="44.11884" lon="2.26735">
        <ele>348.1</ele>
        <time>2016-05-04T12:54:45Z</time>
      </trkpt>
      <trkpt lat="44.11883" lon="2.26737">
        <ele>348</ele>
        <time>2016-05-04T12:54:46Z</time>
      </trkpt>
      <trkpt lat="44.11883" lon="2.26738">
        <ele>348</ele>
        <time>2016-05-04T12:54:47Z</time>
      </trkpt>
      <trkpt lat="44.1188" lon="2.26749">
        <ele>348.2</ele>
        <time>2016-05-04T12:54:55Z</time>
      </trkpt>
      <trkpt lat="44.1188" lon="2.2675">
        <ele>348.3</ele>
        <time>2016-05-04T12:54:56Z</time>
      </trkpt>
      <trkpt lat="44.11879" lon="2.26751">
        <ele>348.4</ele>
        <time>2016-05-04T12:54:57Z</time>
      </trkpt>
      <trkpt lat="44.11877" lon="2.26755">
        <ele>348.2</ele>
        <time>2016-05-04T12:55:01Z</time>
      </trkpt>
      <trkpt lat="44.11876" lon="2.26758">
        <ele>348.3</ele>
        <time>2016-05-04T12:55:04Z</time>
      </trkpt>
      <trkpt lat="44.11876" lon="2.26759">
        <ele>348.4</ele>
        <time>2016-05-04T12:55:05Z</time>
      </trkpt>
      <trkpt lat="44.11876" lon="2.2676">
        <ele>348.3</ele>
        <time>2016-05-04T12:55:06Z</time>
      </trkpt>
      <trkpt lat="44.11876" lon="2.26762">
        <ele>348.1</ele>
        <time>2016-05-04T12:55:07Z</time>
      </trkpt>
      <trkpt lat="44.11876" lon="2.26763">
        <ele>348.1</ele>
        <time>2016-05-04T12:55:08Z</time>
      </trkpt>
      <trkpt lat="44.11876" lon="2.26764">
        <ele>348.2</ele>
        <time>2016-05-04T12:55:09Z</time>
      </trkpt>
      <trkpt lat="44.11876" lon="2.26765">
        <ele>348.3</ele>
        <time>2016-05-04T12:55:10Z</time>
      </trkpt>
      <trkpt lat="44.11877" lon="2.26766">
        <ele>348.4</ele>
        <time>2016-05-04T12:55:11Z</time>
      </trkpt>
      <trkpt lat="44.11877" lon="2.26767">
        <ele>348</ele>
        <time>2016-05-04T12:55:12Z</time>
      </trkpt>
      <trkpt lat="44.11877" lon="2.26767">
        <ele>347.8</ele>
        <time>2016-05-04T12:55:13Z</time>
      </trkpt>
      <trkpt lat="44.11878" lon="2.26768">
        <ele>347.6</ele>
        <time>2016-05-04T12:55:14Z</time>
      </trkpt>
      <trkpt lat="44.11879" lon="2.26769">
        <ele>346.8</ele>
        <time>2016-05-04T12:55:15Z</time>
      </trkpt>
      <trkpt lat="44.11879" lon="2.2677">
        <ele>346.2</ele>
        <time>2016-05-04T12:55:16Z</time>
      </trkpt>
      <trkpt lat="44.1188" lon="2.26771">
        <ele>345.7</ele>
        <time>2016-05-04T12:55:17Z</time>
      </trkpt>
      <trkpt lat="44.11881" lon="2.26773">
        <ele>345.4</ele>
        <time>2016-05-04T12:55:18Z</time>
      </trkpt>
      <trkpt lat="44.11882" lon="2.26775">
        <ele>345.1</ele>
        <time>2016-05-04T12:55:19Z</time>
      </trkpt>
      <trkpt lat="44.11884" lon="2.26781">
        <ele>345.6</ele>
        <time>2016-05-04T12:55:23Z</time>
      </trkpt>
      <trkpt lat="44.11884" lon="2.26782">
        <ele>345.5</ele>
        <time>2016-05-04T12:55:24Z</time>
      </trkpt>
      <trkpt lat="44.11884" lon="2.2679">
        <ele>345.6</ele>
        <time>2016-05-04T12:55:31Z</time>
      </trkpt>
      <trkpt lat="44.11883" lon="2.2679">
        <ele>345.8</ele>
        <time>2016-05-04T12:55:32Z</time>
      </trkpt>
      <trkpt lat="44.11883" lon="2.26791">
        <ele>345.4</ele>
        <time>2016-05-04T12:55:33Z</time>
      </trkpt>
      <trkpt lat="44.11882" lon="2.26794">
        <ele>345.2</ele>
        <time>2016-05-04T12:55:36Z</time>
      </trkpt>
      <trkpt lat="44.11882" lon="2.26795">
        <ele>345.5</ele>
        <time>2016-05-04T12:55:37Z</time>
      </trkpt>
      <trkpt lat="44.11881" lon="2.26796">
        <ele>345.6</ele>
        <time>2016-05-04T12:55:38Z</time>
      </trkpt>
      <trkpt lat="44.11881" lon="2.26797">
        <ele>345.9</ele>
        <time>2016-05-04T12:55:39Z</time>
      </trkpt>
      <trkpt lat="44.11877" lon="2.26804">
        <ele>348.6</ele>
        <time>2016-05-04T12:55:46Z</time>
      </trkpt>
      <trkpt lat="44.11876" lon="2.26806">
        <ele>349</ele>
        <time>2016-05-04T12:55:47Z</time>
      </trkpt>
      <trkpt lat="44.11876" lon="2.26807">
        <ele>348.9</ele>
        <time>2016-05-04T12:55:48Z</time>
      </trkpt>
      <trkpt lat="44.11875" lon="2.26808">
        <ele>348.9</ele>
        <time>2016-05-04T12:55:49Z</time>
      </trkpt>
      <trkpt lat="44.11875" lon="2.2681">
        <ele>348.8</ele>
        <time>2016-05-04T12:55:50Z</time>
      </trkpt>
      <trkpt lat="44.11875" lon="2.26811">
        <ele>349</ele>
        <time>2016-05-04T12:55:51Z</time>
      </trkpt>
      <trkpt lat="44.11874" lon="2.26812">
        <ele>349.1</ele>
        <time>2016-05-04T12:55:52Z</time>
      </trkpt>
      <trkpt lat="44.11874" lon="2.26813">
        <ele>349.2</ele>
        <time>2016-05-04T12:55:53Z</time>
      </trkpt>
      <trkpt lat="44.11874" lon="2.26814">
        <ele>349.5</ele>
        <time>2016-05-04T12:55:54Z</time>
      </trkpt>
      <trkpt lat="44.11873" lon="2.26814">
        <ele>349.7</ele>
        <time>2016-05-04T12:55:55Z</time>
      </trkpt>
      <trkpt lat="44.11871" lon="2.26817">
        <ele>349.7</ele>
        <time>2016-05-04T12:55:59Z</time>
      </trkpt>
      <trkpt lat="44.1187" lon="2.26818">
        <ele>350</ele>
        <time>2016-05-04T12:56:00Z</time>
      </trkpt>
      <trkpt lat="44.11859" lon="2.26831">
        <ele>353.4</ele>
        <time>2016-05-04T12:56:21Z</time>
      </trkpt>
      <trkpt lat="44.11859" lon="2.26832">
        <ele>353</ele>
        <time>2016-05-04T12:56:22Z</time>
      </trkpt>
      <trkpt lat="44.11856" lon="2.26834">
        <ele>353.4</ele>
        <time>2016-05-04T12:56:26Z</time>
      </trkpt>
      <trkpt lat="44.11853" lon="2.26836">
        <ele>354.8</ele>
        <time>2016-05-04T12:56:30Z</time>
      </trkpt>
      <trkpt lat="44.1183" lon="2.2685">
        <ele>361.2</ele>
        <time>2016-05-04T12:57:02Z</time>
      </trkpt>
      <trkpt lat="44.11829" lon="2.2685">
        <ele>361.2</ele>
        <time>2016-05-04T12:57:03Z</time>
      </trkpt>
      <trkpt lat="44.11828" lon="2.26851">
        <ele>362.1</ele>
        <time>2016-05-04T12:57:07Z</time>
      </trkpt>
      <trkpt lat="44.11828" lon="2.26851">
        <ele>362.4</ele>
        <time>2016-05-04T12:57:08Z</time>
      </trkpt>
      <trkpt lat="44.11827" lon="2.26851">
        <ele>362.4</ele>
        <time>2016-05-04T12:57:09Z</time>
      </trkpt>
      <trkpt lat="44.11827" lon="2.26852">
        <ele>362.3</ele>
        <time>2016-05-04T12:57:10Z</time>
      </trkpt>
      <trkpt lat="44.11827" lon="2.26852">
        <ele>362.3</ele>
        <time>2016-05-04T12:57:11Z</time>
      </trkpt>
      <trkpt lat="44.11827" lon="2.26852">
        <ele>363</ele>
        <time>2016-05-04T12:57:12Z</time>
      </trkpt>
      <trkpt lat="44.11826" lon="2.26852">
        <ele>363.4</ele>
        <time>2016-05-04T12:57:13Z</time>
      </trkpt>
      <trkpt lat="44.11826" lon="2.26853">
        <ele>363.8</ele>
        <time>2016-05-04T12:57:14Z</time>
      </trkpt>
      <trkpt lat="44.11826" lon="2.26853">
        <ele>363.6</ele>
        <time>2016-05-04T12:57:15Z</time>
      </trkpt>
      <trkpt lat="44.11826" lon="2.26853">
        <ele>363.5</ele>
        <time>2016-05-04T12:57:16Z</time>
      </trkpt>
      <trkpt lat="44.11827" lon="2.26853">
        <ele>363.4</ele>
        <time>2016-05-04T12:57:17Z</time>
      </trkpt>
      <trkpt lat="44.11827" lon="2.26854">
        <ele>363.4</ele>
        <time>2016-05-04T12:57:18Z</time>
      </trkpt>
      <trkpt lat="44.11827" lon="2.26854">
        <ele>363.3</ele>
        <time>2016-05-04T12:57:19Z</time>
      </trkpt>
      <trkpt lat="44.11827" lon="2.26854">
        <ele>363.3</ele>
        <time>2016-05-04T12:57:20Z</time>
      </trkpt>
      <trkpt lat="44.11827" lon="2.26855">
        <ele>363.2</ele>
        <time>2016-05-04T12:57:21Z</time>
      </trkpt>
      <trkpt lat="44.11827" lon="2.26855">
        <ele>363.2</ele>
        <time>2016-05-04T12:57:22Z</time>
      </trkpt>
      <trkpt lat="44.11827" lon="2.26855">
        <ele>363.2</ele>
        <time>2016-05-04T12:57:23Z</time>
      </trkpt>
      <trkpt lat="44.11827" lon="2.26855">
        <ele>363.2</ele>
        <time>2016-05-04T12:57:24Z</time>
      </trkpt>
      <trkpt lat="44.11827" lon="2.26855">
        <ele>363.2</ele>
        <time>2016-05-04T12:57:25Z</time>
      </trkpt>
      <trkpt lat="44.11827" lon="2.26855">
        <ele>363.2</ele>
        <time>2016-05-04T12:57:26Z</time>
      </trkpt>
      <trkpt lat="44.11827" lon="2.26855">
        <ele>363.6</ele>
        <time>2016-05-04T12:57:27Z</time>
      </trkpt>
      <trkpt lat="44.11827" lon="2.26855">
        <ele>363.9</ele>
        <time>2016-05-04T12:57:28Z</time>
      </trkpt>
      <trkpt lat="44.11827" lon="2.26855">
        <ele>364.2</ele>
        <time>2016-05-04T12:57:29Z</time>
      </trkpt>
      <trkpt lat="44.11827" lon="2.26855">
        <ele>363.9</ele>
        <time>2016-05-04T12:57:30Z</time>
      </trkpt>
      <trkpt lat="44.11827" lon="2.26855">
        <ele>363.7</ele>
        <time>2016-05-04T12:57:31Z</time>
      </trkpt>
      <trkpt lat="44.11827" lon="2.26855">
        <ele>363.6</ele>
        <time>2016-05-04T12:57:32Z</time>
      </trkpt>
      <trkpt lat="44.11827" lon="2.26855">
        <ele>363.9</ele>
        <time>2016-05-04T12:57:33Z</time>
      </trkpt>
      <trkpt lat="44.11827" lon="2.26855">
        <ele>364.1</ele>
        <time>2016-05-04T12:57:34Z</time>
      </trkpt>
      <trkpt lat="44.11827" lon="2.26855">
        <ele>364.3</ele>
        <time>2016-05-04T12:57:35Z</time>
      </trkpt>
      <trkpt lat="44.11827" lon="2.26856">
        <ele>364</ele>
        <time>2016-05-04T12:57:36Z</time>
      </trkpt>
      <trkpt lat="44.11827" lon="2.26856">
        <ele>363.8</ele>
        <time>2016-05-04T12:57:37Z</time>
      </trkpt>
      <trkpt lat="44.11827" lon="2.26857">
        <ele>363.7</ele>
        <time>2016-05-04T12:57:39Z</time>
      </trkpt>
      <trkpt lat="44.11827" lon="2.26857">
        <ele>363.8</ele>
        <time>2016-05-04T12:57:40Z</time>
      </trkpt>
      <trkpt lat="44.11828" lon="2.26858">
        <ele>363.9</ele>
        <time>2016-05-04T12:57:41Z</time>
      </trkpt>
      <trkpt lat="44.11828" lon="2.26858">
        <ele>363.5</ele>
        <time>2016-05-04T12:57:42Z</time>
      </trkpt>
      <trkpt lat="44.11828" lon="2.26858">
        <ele>363.2</ele>
        <time>2016-05-04T12:57:43Z</time>
      </trkpt>
      <trkpt lat="44.11828" lon="2.26859">
        <ele>363</ele>
        <time>2016-05-04T12:57:44Z</time>
      </trkpt>
      <trkpt lat="44.11828" lon="2.26859">
        <ele>363</ele>
        <time>2016-05-04T12:57:45Z</time>
      </trkpt>
      <trkpt lat="44.11828" lon="2.26859">
        <ele>363</ele>
        <time>2016-05-04T12:57:46Z</time>
      </trkpt>
      <trkpt lat="44.11828" lon="2.26859">
        <ele>363.1</ele>
        <time>2016-05-04T12:57:47Z</time>
      </trkpt>
      <trkpt lat="44.11828" lon="2.26859">
        <ele>362.9</ele>
        <time>2016-05-04T12:57:48Z</time>
      </trkpt>
      <trkpt lat="44.11828" lon="2.26859">
        <ele>362.7</ele>
        <time>2016-05-04T12:57:49Z</time>
      </trkpt>
      <trkpt lat="44.11828" lon="2.26859">
        <ele>362.6</ele>
        <time>2016-05-04T12:57:50Z</time>
      </trkpt>
      <trkpt lat="44.11827" lon="2.26859">
        <ele>362.8</ele>
        <time>2016-05-04T12:57:51Z</time>
      </trkpt>
      <trkpt lat="44.11827" lon="2.26859">
        <ele>362.9</ele>
        <time>2016-05-04T12:57:52Z</time>
      </trkpt>
      <trkpt lat="44.11827" lon="2.26859">
        <ele>362.9</ele>
        <time>2016-05-04T12:57:53Z</time>
      </trkpt>
      <trkpt lat="44.11827" lon="2.26859">
        <ele>363</ele>
        <time>2016-05-04T12:57:54Z</time>
      </trkpt>
      <trkpt lat="44.11827" lon="2.26859">
        <ele>363</ele>
        <time>2016-05-04T12:57:55Z</time>
      </trkpt>
      <trkpt lat="44.11827" lon="2.26859">
        <ele>363.1</ele>
        <time>2016-05-04T12:57:56Z</time>
      </trkpt>
      <trkpt lat="44.11826" lon="2.26859">
        <ele>363.3</ele>
        <time>2016-05-04T12:57:57Z</time>
      </trkpt>
      <trkpt lat="44.11826" lon="2.26859">
        <ele>363.5</ele>
        <time>2016-05-04T12:57:58Z</time>
      </trkpt>
      <trkpt lat="44.11826" lon="2.26859">
        <ele>363.6</ele>
        <time>2016-05-04T12:57:59Z</time>
      </trkpt>
      <trkpt lat="44.11825" lon="2.2686">
        <ele>363.5</ele>
        <time>2016-05-04T12:58:00Z</time>
      </trkpt>
      <trkpt lat="44.11825" lon="2.2686">
        <ele>363.4</ele>
        <time>2016-05-04T12:58:01Z</time>
      </trkpt>
      <trkpt lat="44.11825" lon="2.2686">
        <ele>363.3</ele>
        <time>2016-05-04T12:58:02Z</time>
      </trkpt>
      <trkpt lat="44.11825" lon="2.2686">
        <ele>362.7</ele>
        <time>2016-05-04T12:58:03Z</time>
      </trkpt>
      <trkpt lat="44.11824" lon="2.2686">
        <ele>362.1</ele>
        <time>2016-05-04T12:58:04Z</time>
      </trkpt>
      <trkpt lat="44.11824" lon="2.2686">
        <ele>361.8</ele>
        <time>2016-05-04T12:58:05Z</time>
      </trkpt>
      <trkpt lat="44.11824" lon="2.2686">
        <ele>362.5</ele>
        <time>2016-05-04T12:58:06Z</time>
      </trkpt>
      <trkpt lat="44.11823" lon="2.2686">
        <ele>363.1</ele>
        <time>2016-05-04T12:58:07Z</time>
      </trkpt>
      <trkpt lat="44.11823" lon="2.26861">
        <ele>363.6</ele>
        <time>2016-05-04T12:58:08Z</time>
      </trkpt>
      <trkpt lat="44.11822" lon="2.26861">
        <ele>363</ele>
        <time>2016-05-04T12:58:09Z</time>
      </trkpt>
      <trkpt lat="44.11822" lon="2.26862">
        <ele>362.6</ele>
        <time>2016-05-04T12:58:10Z</time>
      </trkpt>
      <trkpt lat="44.11821" lon="2.26862">
        <ele>362.3</ele>
        <time>2016-05-04T12:58:11Z</time>
      </trkpt>
      <trkpt lat="44.11821" lon="2.26863">
        <ele>363</ele>
        <time>2016-05-04T12:58:12Z</time>
      </trkpt>
      <trkpt lat="44.1182" lon="2.26864">
        <ele>363.4</ele>
        <time>2016-05-04T12:58:13Z</time>
      </trkpt>
      <trkpt lat="44.11819" lon="2.26864">
        <ele>363.8</ele>
        <time>2016-05-04T12:58:14Z</time>
      </trkpt>
      <trkpt lat="44.11819" lon="2.26865">
        <ele>364.1</ele>
        <time>2016-05-04T12:58:15Z</time>
      </trkpt>
      <trkpt lat="44.11818" lon="2.26865">
        <ele>364.3</ele>
        <time>2016-05-04T12:58:16Z</time>
      </trkpt>
      <trkpt lat="44.11818" lon="2.26865">
        <ele>364.4</ele>
        <time>2016-05-04T12:58:17Z</time>
      </trkpt>
      <trkpt lat="44.11817" lon="2.26865">
        <ele>364.5</ele>
        <time>2016-05-04T12:58:18Z</time>
      </trkpt>
      <trkpt lat="44.11817" lon="2.26865">
        <ele>364.6</ele>
        <time>2016-05-04T12:58:19Z</time>
      </trkpt>
      <trkpt lat="44.11815" lon="2.26864">
        <ele>363</ele>
        <time>2016-05-04T12:58:27Z</time>
      </trkpt>
      <trkpt lat="44.11815" lon="2.26864">
        <ele>363.5</ele>
        <time>2016-05-04T12:58:28Z</time>
      </trkpt>
      <trkpt lat="44.11815" lon="2.26864">
        <ele>363.8</ele>
        <time>2016-05-04T12:58:29Z</time>
      </trkpt>
      <trkpt lat="44.11815" lon="2.26863">
        <ele>364.7</ele>
        <time>2016-05-04T12:58:30Z</time>
      </trkpt>
      <trkpt lat="44.11815" lon="2.26863">
        <ele>365.4</ele>
        <time>2016-05-04T12:58:31Z</time>
      </trkpt>
      <trkpt lat="44.11815" lon="2.26863">
        <ele>365.9</ele>
        <time>2016-05-04T12:58:32Z</time>
      </trkpt>
      <trkpt lat="44.11815" lon="2.26863">
        <ele>365</ele>
        <time>2016-05-04T12:58:33Z</time>
      </trkpt>
      <trkpt lat="44.11815" lon="2.26863">
        <ele>364.3</ele>
        <time>2016-05-04T12:58:34Z</time>
      </trkpt>
      <trkpt lat="44.11815" lon="2.26863">
        <ele>363.8</ele>
        <time>2016-05-04T12:58:35Z</time>
      </trkpt>
      <trkpt lat="44.11815" lon="2.26863">
        <ele>363.9</ele>
        <time>2016-05-04T12:58:36Z</time>
      </trkpt>
      <trkpt lat="44.11815" lon="2.26863">
        <ele>363.9</ele>
        <time>2016-05-04T12:58:37Z</time>
      </trkpt>
      <trkpt lat="44.11815" lon="2.26864">
        <ele>363.9</ele>
        <time>2016-05-04T12:58:38Z</time>
      </trkpt>
      <trkpt lat="44.11814" lon="2.26865">
        <ele>363.7</ele>
        <time>2016-05-04T12:58:39Z</time>
      </trkpt>
      <trkpt lat="44.11814" lon="2.26865">
        <ele>363.6</ele>
        <time>2016-05-04T12:58:40Z</time>
      </trkpt>
      <trkpt lat="44.11814" lon="2.26865">
        <ele>363.5</ele>
        <time>2016-05-04T12:58:41Z</time>
      </trkpt>
      <trkpt lat="44.11814" lon="2.26866">
        <ele>363.4</ele>
        <time>2016-05-04T12:58:42Z</time>
      </trkpt>
      <trkpt lat="44.11814" lon="2.26866">
        <ele>363.3</ele>
        <time>2016-05-04T12:58:43Z</time>
      </trkpt>
      <trkpt lat="44.11814" lon="2.26867">
        <ele>363.3</ele>
        <time>2016-05-04T12:58:44Z</time>
      </trkpt>
      <trkpt lat="44.11814" lon="2.26868">
        <ele>363.3</ele>
        <time>2016-05-04T12:58:45Z</time>
      </trkpt>
      <trkpt lat="44.11814" lon="2.26868">
        <ele>363.2</ele>
        <time>2016-05-04T12:58:46Z</time>
      </trkpt>
      <trkpt lat="44.11813" lon="2.26869">
        <ele>363.2</ele>
        <time>2016-05-04T12:58:47Z</time>
      </trkpt>
      <trkpt lat="44.11813" lon="2.26869">
        <ele>363.2</ele>
        <time>2016-05-04T12:58:48Z</time>
      </trkpt>
      <trkpt lat="44.11812" lon="2.26869">
        <ele>363.2</ele>
        <time>2016-05-04T12:58:49Z</time>
      </trkpt>
      <trkpt lat="44.11812" lon="2.26868">
        <ele>363.2</ele>
        <time>2016-05-04T12:58:50Z</time>
      </trkpt>
      <trkpt lat="44.11812" lon="2.26868">
        <ele>363</ele>
        <time>2016-05-04T12:58:51Z</time>
      </trkpt>
      <trkpt lat="44.11811" lon="2.26868">
        <ele>362.8</ele>
        <time>2016-05-04T12:58:52Z</time>
      </trkpt>
      <trkpt lat="44.11811" lon="2.26868">
        <ele>362.7</ele>
        <time>2016-05-04T12:58:53Z</time>
      </trkpt>
      <trkpt lat="44.11811" lon="2.26867">
        <ele>362.8</ele>
        <time>2016-05-04T12:58:54Z</time>
      </trkpt>
      <trkpt lat="44.1181" lon="2.26867">
        <ele>362.9</ele>
        <time>2016-05-04T12:58:55Z</time>
      </trkpt>
      <trkpt lat="44.1181" lon="2.26867">
        <ele>363</ele>
        <time>2016-05-04T12:58:56Z</time>
      </trkpt>
      <trkpt lat="44.1181" lon="2.26867">
        <ele>363.2</ele>
        <time>2016-05-04T12:58:57Z</time>
      </trkpt>
      <trkpt lat="44.11809" lon="2.26868">
        <ele>363.4</ele>
        <time>2016-05-04T12:58:58Z</time>
      </trkpt>
      <trkpt lat="44.11809" lon="2.26868">
        <ele>363.6</ele>
        <time>2016-05-04T12:58:59Z</time>
      </trkpt>
      <trkpt lat="44.11809" lon="2.26868">
        <ele>363.9</ele>
        <time>2016-05-04T12:59:00Z</time>
      </trkpt>
      <trkpt lat="44.11809" lon="2.26868">
        <ele>364.1</ele>
        <time>2016-05-04T12:59:01Z</time>
      </trkpt>
      <trkpt lat="44.11809" lon="2.26868">
        <ele>364.3</ele>
        <time>2016-05-04T12:59:02Z</time>
      </trkpt>
      <trkpt lat="44.11808" lon="2.26868">
        <ele>364.2</ele>
        <time>2016-05-04T12:59:03Z</time>
      </trkpt>
      <trkpt lat="44.11808" lon="2.26868">
        <ele>364.2</ele>
        <time>2016-05-04T12:59:04Z</time>
      </trkpt>
      <trkpt lat="44.11808" lon="2.26868">
        <ele>364.1</ele>
        <time>2016-05-04T12:59:05Z</time>
      </trkpt>
      <trkpt lat="44.11808" lon="2.26868">
        <ele>364.1</ele>
        <time>2016-05-04T12:59:06Z</time>
      </trkpt>
      <trkpt lat="44.11808" lon="2.26868">
        <ele>364.1</ele>
        <time>2016-05-04T12:59:07Z</time>
      </trkpt>
      <trkpt lat="44.11809" lon="2.26869">
        <ele>364.1</ele>
        <time>2016-05-04T12:59:08Z</time>
      </trkpt>
      <trkpt lat="44.11809" lon="2.26869">
        <ele>363.8</ele>
        <time>2016-05-04T12:59:09Z</time>
      </trkpt>
      <trkpt lat="44.1181" lon="2.26869">
        <ele>363.7</ele>
        <time>2016-05-04T12:59:10Z</time>
      </trkpt>
      <trkpt lat="44.1181" lon="2.2687">
        <ele>363.5</ele>
        <time>2016-05-04T12:59:11Z</time>
      </trkpt>
      <trkpt lat="44.11811" lon="2.2687">
        <ele>363.2</ele>
        <time>2016-05-04T12:59:12Z</time>
      </trkpt>
      <trkpt lat="44.11811" lon="2.2687">
        <ele>363</ele>
        <time>2016-05-04T12:59:13Z</time>
      </trkpt>
      <trkpt lat="44.11812" lon="2.2687">
        <ele>362.8</ele>
        <time>2016-05-04T12:59:14Z</time>
      </trkpt>
      <trkpt lat="44.11812" lon="2.2687">
        <ele>362.9</ele>
        <time>2016-05-04T12:59:15Z</time>
      </trkpt>
      <trkpt lat="44.11813" lon="2.2687">
        <ele>363</ele>
        <time>2016-05-04T12:59:16Z</time>
      </trkpt>
      <trkpt lat="44.11813" lon="2.2687">
        <ele>363</ele>
        <time>2016-05-04T12:59:17Z</time>
      </trkpt>
      <trkpt lat="44.11814" lon="2.2687">
        <ele>363.1</ele>
        <time>2016-05-04T12:59:18Z</time>
      </trkpt>
      <trkpt lat="44.11814" lon="2.2687">
        <ele>363.1</ele>
        <time>2016-05-04T12:59:19Z</time>
      </trkpt>
      <trkpt lat="44.11814" lon="2.26869">
        <ele>363.1</ele>
        <time>2016-05-04T12:59:20Z</time>
      </trkpt>
      <trkpt lat="44.11814" lon="2.26869">
        <ele>363.3</ele>
        <time>2016-05-04T12:59:21Z</time>
      </trkpt>
      <trkpt lat="44.11814" lon="2.26869">
        <ele>363.5</ele>
        <time>2016-05-04T12:59:22Z</time>
      </trkpt>
      <trkpt lat="44.11814" lon="2.26869">
        <ele>363.6</ele>
        <time>2016-05-04T12:59:23Z</time>
      </trkpt>
      <trkpt lat="44.11815" lon="2.26869">
        <ele>363.9</ele>
        <time>2016-05-04T12:59:24Z</time>
      </trkpt>
      <trkpt lat="44.11815" lon="2.26868">
        <ele>364.2</ele>
        <time>2016-05-04T12:59:25Z</time>
      </trkpt>
      <trkpt lat="44.11815" lon="2.26868">
        <ele>364.3</ele>
        <time>2016-05-04T12:59:26Z</time>
      </trkpt>
      <trkpt lat="44.11815" lon="2.26868">
        <ele>364.3</ele>
        <time>2016-05-04T12:59:27Z</time>
      </trkpt>
      <trkpt lat="44.11815" lon="2.26867">
        <ele>364.2</ele>
        <time>2016-05-04T12:59:28Z</time>
      </trkpt>
      <trkpt lat="44.11816" lon="2.26867">
        <ele>364.1</ele>
        <time>2016-05-04T12:59:29Z</time>
      </trkpt>
      <trkpt lat="44.11816" lon="2.26867">
        <ele>364.1</ele>
        <time>2016-05-04T12:59:30Z</time>
      </trkpt>
      <trkpt lat="44.11816" lon="2.26867">
        <ele>364.1</ele>
        <time>2016-05-04T12:59:31Z</time>
      </trkpt>
      <trkpt lat="44.11816" lon="2.26867">
        <ele>364.1</ele>
        <time>2016-05-04T12:59:32Z</time>
      </trkpt>
      <trkpt lat="44.11816" lon="2.26867">
        <ele>363.6</ele>
        <time>2016-05-04T12:59:33Z</time>
      </trkpt>
      <trkpt lat="44.11817" lon="2.26867">
        <ele>363.3</ele>
        <time>2016-05-04T12:59:34Z</time>
      </trkpt>
      <trkpt lat="44.11817" lon="2.26867">
        <ele>363</ele>
        <time>2016-05-04T12:59:35Z</time>
      </trkpt>
      <trkpt lat="44.11817" lon="2.26867">
        <ele>363.5</ele>
        <time>2016-05-04T12:59:36Z</time>
      </trkpt>
      <trkpt lat="44.11818" lon="2.26868">
        <ele>363.8</ele>
        <time>2016-05-04T12:59:37Z</time>
      </trkpt>
      <trkpt lat="44.11818" lon="2.26868">
        <ele>364.1</ele>
        <time>2016-05-04T12:59:38Z</time>
      </trkpt>
      <trkpt lat="44.11819" lon="2.26868">
        <ele>364.7</ele>
        <time>2016-05-04T12:59:39Z</time>
      </trkpt>
      <trkpt lat="44.11819" lon="2.26868">
        <ele>365.2</ele>
        <time>2016-05-04T12:59:40Z</time>
      </trkpt>
      <trkpt lat="44.11819" lon="2.26868">
        <ele>365.5</ele>
        <time>2016-05-04T12:59:41Z</time>
      </trkpt>
      <trkpt lat="44.11819" lon="2.26868">
        <ele>365.4</ele>
        <time>2016-05-04T12:59:42Z</time>
      </trkpt>
      <trkpt lat="44.1182" lon="2.26868">
        <ele>365.2</ele>
        <time>2016-05-04T12:59:43Z</time>
      </trkpt>
      <trkpt lat="44.1182" lon="2.26868">
        <ele>365.1</ele>
        <time>2016-05-04T12:59:44Z</time>
      </trkpt>
      <trkpt lat="44.1182" lon="2.26868">
        <ele>365.1</ele>
        <time>2016-05-04T12:59:45Z</time>
      </trkpt>
      <trkpt lat="44.1182" lon="2.26868">
        <ele>365</ele>
        <time>2016-05-04T12:59:46Z</time>
      </trkpt>
      <trkpt lat="44.1182" lon="2.26868">
        <ele>365</ele>
        <time>2016-05-04T12:59:47Z</time>
      </trkpt>
      <trkpt lat="44.1182" lon="2.26868">
        <ele>365</ele>
        <time>2016-05-04T12:59:48Z</time>
      </trkpt>
      <trkpt lat="44.1182" lon="2.26867">
        <ele>364.9</ele>
        <time>2016-05-04T12:59:49Z</time>
      </trkpt>
      <trkpt lat="44.1182" lon="2.26867">
        <ele>364.9</ele>
        <time>2016-05-04T12:59:50Z</time>
      </trkpt>
      <trkpt lat="44.1182" lon="2.26867">
        <ele>364.7</ele>
        <time>2016-05-04T12:59:51Z</time>
      </trkpt>
      <trkpt lat="44.1182" lon="2.26867">
        <ele>364.5</ele>
        <time>2016-05-04T12:59:52Z</time>
      </trkpt>
      <trkpt lat="44.1182" lon="2.26867">
        <ele>364.4</ele>
        <time>2016-05-04T12:59:53Z</time>
      </trkpt>
      <trkpt lat="44.1182" lon="2.26867">
        <ele>364.3</ele>
        <time>2016-05-04T12:59:54Z</time>
      </trkpt>
      <trkpt lat="44.1182" lon="2.26867">
        <ele>364.2</ele>
        <time>2016-05-04T12:59:55Z</time>
      </trkpt>
      <trkpt lat="44.1182" lon="2.26867">
        <ele>364.2</ele>
        <time>2016-05-04T12:59:56Z</time>
      </trkpt>
      <trkpt lat="44.1182" lon="2.26867">
        <ele>364.1</ele>
        <time>2016-05-04T12:59:57Z</time>
      </trkpt>
      <trkpt lat="44.1182" lon="2.26867">
        <ele>364.1</ele>
        <time>2016-05-04T12:59:58Z</time>
      </trkpt>
      <trkpt lat="44.1182" lon="2.26867">
        <ele>363.5</ele>
        <time>2016-05-04T13:00:04Z</time>
      </trkpt>
      <trkpt lat="44.1182" lon="2.26867">
        <ele>363.6</ele>
        <time>2016-05-04T13:00:05Z</time>
      </trkpt>
      <trkpt lat="44.1182" lon="2.26867">
        <ele>363.7</ele>
        <time>2016-05-04T13:00:06Z</time>
      </trkpt>
      <trkpt lat="44.1182" lon="2.26867">
        <ele>363.8</ele>
        <time>2016-05-04T13:00:07Z</time>
      </trkpt>
      <trkpt lat="44.1182" lon="2.26867">
        <ele>363.8</ele>
        <time>2016-05-04T13:00:08Z</time>
      </trkpt>
      <trkpt lat="44.1182" lon="2.26867">
        <ele>363.9</ele>
        <time>2016-05-04T13:00:09Z</time>
      </trkpt>
      <trkpt lat="44.1182" lon="2.26867">
        <ele>363.9</ele>
        <time>2016-05-04T13:00:10Z</time>
      </trkpt>
      <trkpt lat="44.1182" lon="2.26867">
        <ele>363.9</ele>
        <time>2016-05-04T13:00:11Z</time>
      </trkpt>
      <trkpt lat="44.1182" lon="2.26868">
        <ele>364.2</ele>
        <time>2016-05-04T13:00:12Z</time>
      </trkpt>
      <trkpt lat="44.1182" lon="2.26868">
        <ele>364.3</ele>
        <time>2016-05-04T13:00:13Z</time>
      </trkpt>
      <trkpt lat="44.1182" lon="2.26868">
        <ele>364.5</ele>
        <time>2016-05-04T13:00:14Z</time>
      </trkpt>
      <trkpt lat="44.1182" lon="2.26868">
        <ele>364.4</ele>
        <time>2016-05-04T13:00:15Z</time>
      </trkpt>
      <trkpt lat="44.1182" lon="2.26868">
        <ele>364.3</ele>
        <time>2016-05-04T13:00:16Z</time>
      </trkpt>
      <trkpt lat="44.1182" lon="2.26868">
        <ele>364.2</ele>
        <time>2016-05-04T13:00:17Z</time>
      </trkpt>
      <trkpt lat="44.1182" lon="2.26868">
        <ele>364.2</ele>
        <time>2016-05-04T13:00:18Z</time>
      </trkpt>
      <trkpt lat="44.1182" lon="2.26868">
        <ele>364.1</ele>
        <time>2016-05-04T13:00:19Z</time>
      </trkpt>
      <trkpt lat="44.1182" lon="2.26869">
        <ele>364.1</ele>
        <time>2016-05-04T13:00:20Z</time>
      </trkpt>
      <trkpt lat="44.1182" lon="2.26869">
        <ele>363.9</ele>
        <time>2016-05-04T13:00:21Z</time>
      </trkpt>
      <trkpt lat="44.1182" lon="2.26869">
        <ele>363.7</ele>
        <time>2016-05-04T13:00:22Z</time>
      </trkpt>
      <trkpt lat="44.1182" lon="2.26869">
        <ele>363.6</ele>
        <time>2016-05-04T13:00:23Z</time>
      </trkpt>
      <trkpt lat="44.1182" lon="2.26869">
        <ele>363.7</ele>
        <time>2016-05-04T13:00:24Z</time>
      </trkpt>
      <trkpt lat="44.11821" lon="2.26869">
        <ele>363.8</ele>
        <time>2016-05-04T13:00:25Z</time>
      </trkpt>
      <trkpt lat="44.11821" lon="2.26869">
        <ele>363.8</ele>
        <time>2016-05-04T13:00:26Z</time>
      </trkpt>
      <trkpt lat="44.11821" lon="2.26869">
        <ele>363.9</ele>
        <time>2016-05-04T13:00:27Z</time>
      </trkpt>
      <trkpt lat="44.11821" lon="2.26869">
        <ele>363.9</ele>
        <time>2016-05-04T13:00:28Z</time>
      </trkpt>
      <trkpt lat="44.11821" lon="2.26869">
        <ele>363.9</ele>
        <time>2016-05-04T13:00:29Z</time>
      </trkpt>
      <trkpt lat="44.11821" lon="2.26869">
        <ele>363.9</ele>
        <time>2016-05-04T13:00:30Z</time>
      </trkpt>
      <trkpt lat="44.11821" lon="2.26869">
        <ele>364</ele>
        <time>2016-05-04T13:00:31Z</time>
      </trkpt>
      <trkpt lat="44.11821" lon="2.26869">
        <ele>364</ele>
        <time>2016-05-04T13:00:32Z</time>
      </trkpt>
      <trkpt lat="44.11821" lon="2.26869">
        <ele>364.4</ele>
        <time>2016-05-04T13:00:33Z</time>
      </trkpt>
      <trkpt lat="44.11821" lon="2.26869">
        <ele>364.7</ele>
        <time>2016-05-04T13:00:34Z</time>
      </trkpt>
      <trkpt lat="44.1182" lon="2.26869">
        <ele>365</ele>
        <time>2016-05-04T13:00:35Z</time>
      </trkpt>
      <trkpt lat="44.1182" lon="2.26869">
        <ele>365</ele>
        <time>2016-05-04T13:00:36Z</time>
      </trkpt>
      <trkpt lat="44.1182" lon="2.2687">
        <ele>364.9</ele>
        <time>2016-05-04T13:00:37Z</time>
      </trkpt>
      <trkpt lat="44.1182" lon="2.2687">
        <ele>364.9</ele>
        <time>2016-05-04T13:00:38Z</time>
      </trkpt>
      <trkpt lat="44.1182" lon="2.2687">
        <ele>364.7</ele>
        <time>2016-05-04T13:00:39Z</time>
      </trkpt>
      <trkpt lat="44.1182" lon="2.2687">
        <ele>364.5</ele>
        <time>2016-05-04T13:00:40Z</time>
      </trkpt>
      <trkpt lat="44.1182" lon="2.2687">
        <ele>364.4</ele>
        <time>2016-05-04T13:00:41Z</time>
      </trkpt>
      <trkpt lat="44.1182" lon="2.26871">
        <ele>364.5</ele>
        <time>2016-05-04T13:00:42Z</time>
      </trkpt>
      <trkpt lat="44.1182" lon="2.26872">
        <ele>364.6</ele>
        <time>2016-05-04T13:00:43Z</time>
      </trkpt>
      <trkpt lat="44.11819" lon="2.26872">
        <ele>364.7</ele>
        <time>2016-05-04T13:00:44Z</time>
      </trkpt>
      <trkpt lat="44.11819" lon="2.26873">
        <ele>364.7</ele>
        <time>2016-05-04T13:00:45Z</time>
      </trkpt>
      <trkpt lat="44.11819" lon="2.26874">
        <ele>364.8</ele>
        <time>2016-05-04T13:00:46Z</time>
      </trkpt>
      <trkpt lat="44.11818" lon="2.26875">
        <ele>364.8</ele>
        <time>2016-05-04T13:00:47Z</time>
      </trkpt>
      <trkpt lat="44.11818" lon="2.26875">
        <ele>364.6</ele>
        <time>2016-05-04T13:00:48Z</time>
      </trkpt>
      <trkpt lat="44.11818" lon="2.26876">
        <ele>364.4</ele>
        <time>2016-05-04T13:00:49Z</time>
      </trkpt>
      <trkpt lat="44.11817" lon="2.26877">
        <ele>364.3</ele>
        <time>2016-05-04T13:00:50Z</time>
      </trkpt>
      <trkpt lat="44.11817" lon="2.26877">
        <ele>364.5</ele>
        <time>2016-05-04T13:00:51Z</time>
      </trkpt>
      <trkpt lat="44.11817" lon="2.26878">
        <ele>364.6</ele>
        <time>2016-05-04T13:00:52Z</time>
      </trkpt>
      <trkpt lat="44.11816" lon="2.26878">
        <ele>364.6</ele>
        <time>2016-05-04T13:00:53Z</time>
      </trkpt>
      <trkpt lat="44.11816" lon="2.26879">
        <ele>364.3</ele>
        <time>2016-05-04T13:00:54Z</time>
      </trkpt>
      <trkpt lat="44.11816" lon="2.26879">
        <ele>364</ele>
        <time>2016-05-04T13:00:55Z</time>
      </trkpt>
      <trkpt lat="44.11816" lon="2.26879">
        <ele>363.8</ele>
        <time>2016-05-04T13:00:56Z</time>
      </trkpt>
      <trkpt lat="44.11816" lon="2.26879">
        <ele>363.8</ele>
        <time>2016-05-04T13:00:57Z</time>
      </trkpt>
      <trkpt lat="44.11816" lon="2.26879">
        <ele>363.9</ele>
        <time>2016-05-04T13:00:58Z</time>
      </trkpt>
      <trkpt lat="44.11815" lon="2.26878">
        <ele>363.9</ele>
        <time>2016-05-04T13:00:59Z</time>
      </trkpt>
      <trkpt lat="44.11814" lon="2.26876">
        <ele>363.7</ele>
        <time>2016-05-04T13:01:00Z</time>
      </trkpt>
      <trkpt lat="44.11814" lon="2.26874">
        <ele>363.6</ele>
        <time>2016-05-04T13:01:01Z</time>
      </trkpt>
      <trkpt lat="44.11813" lon="2.26873">
        <ele>363.5</ele>
        <time>2016-05-04T13:01:02Z</time>
      </trkpt>
      <trkpt lat="44.11813" lon="2.26871">
        <ele>363.2</ele>
        <time>2016-05-04T13:01:03Z</time>
      </trkpt>
      <trkpt lat="44.11813" lon="2.2687">
        <ele>363</ele>
        <time>2016-05-04T13:01:04Z</time>
      </trkpt>
      <trkpt lat="44.11813" lon="2.26869">
        <ele>362.8</ele>
        <time>2016-05-04T13:01:05Z</time>
      </trkpt>
      <trkpt lat="44.11813" lon="2.26869">
        <ele>362.9</ele>
        <time>2016-05-04T13:01:06Z</time>
      </trkpt>
      <trkpt lat="44.11813" lon="2.26868">
        <ele>363</ele>
        <time>2016-05-04T13:01:07Z</time>
      </trkpt>
      <trkpt lat="44.11813" lon="2.26868">
        <ele>363</ele>
        <time>2016-05-04T13:01:08Z</time>
      </trkpt>
      <trkpt lat="44.11813" lon="2.26867">
        <ele>363.3</ele>
        <time>2016-05-04T13:01:09Z</time>
      </trkpt>
      <trkpt lat="44.11813" lon="2.26867">
        <ele>363.4</ele>
        <time>2016-05-04T13:01:10Z</time>
      </trkpt>
      <trkpt lat="44.11812" lon="2.26866">
        <ele>363.6</ele>
        <time>2016-05-04T13:01:11Z</time>
      </trkpt>
      <trkpt lat="44.11812" lon="2.26866">
        <ele>363.5</ele>
        <time>2016-05-04T13:01:12Z</time>
      </trkpt>
      <trkpt lat="44.11812" lon="2.26866">
        <ele>363.4</ele>
        <time>2016-05-04T13:01:13Z</time>
      </trkpt>
      <trkpt lat="44.11812" lon="2.26866">
        <ele>363.3</ele>
        <time>2016-05-04T13:01:14Z</time>
      </trkpt>
      <trkpt lat="44.11812" lon="2.26866">
        <ele>363.1</ele>
        <time>2016-05-04T13:01:15Z</time>
      </trkpt>
      <trkpt lat="44.11812" lon="2.26866">
        <ele>362.9</ele>
        <time>2016-05-04T13:01:16Z</time>
      </trkpt>
      <trkpt lat="44.11812" lon="2.26866">
        <ele>362.7</ele>
        <time>2016-05-04T13:01:17Z</time>
      </trkpt>
      <trkpt lat="44.11813" lon="2.26866">
        <ele>362.6</ele>
        <time>2016-05-04T13:01:18Z</time>
      </trkpt>
      <trkpt lat="44.11813" lon="2.26866">
        <ele>362.5</ele>
        <time>2016-05-04T13:01:19Z</time>
      </trkpt>
      <trkpt lat="44.11813" lon="2.26866">
        <ele>362.5</ele>
        <time>2016-05-04T13:01:20Z</time>
      </trkpt>
      <trkpt lat="44.11813" lon="2.26865">
        <ele>363.1</ele>
        <time>2016-05-04T13:01:21Z</time>
      </trkpt>
      <trkpt lat="44.11813" lon="2.26865">
        <ele>363.5</ele>
        <time>2016-05-04T13:01:22Z</time>
      </trkpt>
      <trkpt lat="44.11813" lon="2.26865">
        <ele>363.9</ele>
        <time>2016-05-04T13:01:23Z</time>
      </trkpt>
      <trkpt lat="44.11813" lon="2.26865">
        <ele>363.7</ele>
        <time>2016-05-04T13:01:24Z</time>
      </trkpt>
      <trkpt lat="44.11813" lon="2.26864">
        <ele>363.6</ele>
        <time>2016-05-04T13:01:25Z</time>
      </trkpt>
      <trkpt lat="44.11814" lon="2.26864">
        <ele>363.8</ele>
        <time>2016-05-04T13:01:27Z</time>
      </trkpt>
      <trkpt lat="44.11814" lon="2.26864">
        <ele>364.1</ele>
        <time>2016-05-04T13:01:28Z</time>
      </trkpt>
      <trkpt lat="44.11814" lon="2.26864">
        <ele>364.3</ele>
        <time>2016-05-04T13:01:29Z</time>
      </trkpt>
      <trkpt lat="44.11815" lon="2.26863">
        <ele>364.4</ele>
        <time>2016-05-04T13:01:30Z</time>
      </trkpt>
      <trkpt lat="44.11815" lon="2.26863">
        <ele>364.5</ele>
        <time>2016-05-04T13:01:31Z</time>
      </trkpt>
      <trkpt lat="44.11815" lon="2.26863">
        <ele>364.6</ele>
        <time>2016-05-04T13:01:32Z</time>
      </trkpt>
      <trkpt lat="44.11815" lon="2.26863">
        <ele>364.5</ele>
        <time>2016-05-04T13:01:33Z</time>
      </trkpt>
      <trkpt lat="44.11815" lon="2.26863">
        <ele>364.3</ele>
        <time>2016-05-04T13:01:34Z</time>
      </trkpt>
      <trkpt lat="44.11815" lon="2.26863">
        <ele>364.3</ele>
        <time>2016-05-04T13:01:35Z</time>
      </trkpt>
      <trkpt lat="44.11815" lon="2.26862">
        <ele>364.4</ele>
        <time>2016-05-04T13:01:36Z</time>
      </trkpt>
      <trkpt lat="44.11815" lon="2.26862">
        <ele>364.5</ele>
        <time>2016-05-04T13:01:37Z</time>
      </trkpt>
      <trkpt lat="44.11815" lon="2.26861">
        <ele>364.6</ele>
        <time>2016-05-04T13:01:38Z</time>
      </trkpt>
      <trkpt lat="44.11815" lon="2.2686">
        <ele>364.7</ele>
        <time>2016-05-04T13:01:39Z</time>
      </trkpt>
      <trkpt lat="44.11815" lon="2.26859">
        <ele>364.7</ele>
        <time>2016-05-04T13:01:40Z</time>
      </trkpt>
      <trkpt lat="44.11815" lon="2.26859">
        <ele>364.8</ele>
        <time>2016-05-04T13:01:41Z</time>
      </trkpt>
      <trkpt lat="44.11815" lon="2.26859">
        <ele>364.8</ele>
        <time>2016-05-04T13:01:42Z</time>
      </trkpt>
      <trkpt lat="44.11815" lon="2.26859">
        <ele>364.8</ele>
        <time>2016-05-04T13:01:43Z</time>
      </trkpt>
      <trkpt lat="44.11814" lon="2.26859">
        <ele>364.8</ele>
        <time>2016-05-04T13:01:44Z</time>
      </trkpt>
      <trkpt lat="44.11814" lon="2.26859">
        <ele>364.8</ele>
        <time>2016-05-04T13:01:45Z</time>
      </trkpt>
      <trkpt lat="44.11814" lon="2.26859">
        <ele>364.8</ele>
        <time>2016-05-04T13:01:46Z</time>
      </trkpt>
      <trkpt lat="44.11814" lon="2.26859">
        <ele>364.8</ele>
        <time>2016-05-04T13:01:47Z</time>
      </trkpt>
      <trkpt lat="44.11814" lon="2.26859">
        <ele>365.1</ele>
        <time>2016-05-04T13:01:48Z</time>
      </trkpt>
      <trkpt lat="44.11814" lon="2.2686">
        <ele>365.2</ele>
        <time>2016-05-04T13:01:49Z</time>
      </trkpt>
      <trkpt lat="44.11813" lon="2.2686">
        <ele>365.3</ele>
        <time>2016-05-04T13:01:50Z</time>
      </trkpt>
      <trkpt lat="44.11813" lon="2.2686">
        <ele>365.4</ele>
        <time>2016-05-04T13:01:51Z</time>
      </trkpt>
      <trkpt lat="44.11813" lon="2.26861">
        <ele>365.5</ele>
        <time>2016-05-04T13:01:52Z</time>
      </trkpt>
      <trkpt lat="44.1181" lon="2.26863">
        <ele>365.3</ele>
        <time>2016-05-04T13:02:04Z</time>
      </trkpt>
      <trkpt lat="44.1181" lon="2.26864">
        <ele>365.4</ele>
        <time>2016-05-04T13:02:05Z</time>
      </trkpt>
      <trkpt lat="44.1181" lon="2.26865">
        <ele>365.7</ele>
        <time>2016-05-04T13:02:06Z</time>
      </trkpt>
      <trkpt lat="44.1181" lon="2.26865">
        <ele>365.9</ele>
        <time>2016-05-04T13:02:07Z</time>
      </trkpt>
      <trkpt lat="44.1181" lon="2.26866">
        <ele>366.1</ele>
        <time>2016-05-04T13:02:08Z</time>
      </trkpt>
      <trkpt lat="44.11811" lon="2.26867">
        <ele>366</ele>
        <time>2016-05-04T13:02:09Z</time>
      </trkpt>
      <trkpt lat="44.11811" lon="2.26868">
        <ele>365.9</ele>
        <time>2016-05-04T13:02:10Z</time>
      </trkpt>
      <trkpt lat="44.11812" lon="2.26868">
        <ele>365.9</ele>
        <time>2016-05-04T13:02:11Z</time>
      </trkpt>
      <trkpt lat="44.11813" lon="2.26869">
        <ele>365.8</ele>
        <time>2016-05-04T13:02:12Z</time>
      </trkpt>
      <trkpt lat="44.11813" lon="2.2687">
        <ele>365.8</ele>
        <time>2016-05-04T13:02:13Z</time>
      </trkpt>
      <trkpt lat="44.11814" lon="2.2687">
        <ele>365.8</ele>
        <time>2016-05-04T13:02:14Z</time>
      </trkpt>
      <trkpt lat="44.11815" lon="2.26871">
        <ele>366</ele>
        <time>2016-05-04T13:02:15Z</time>
      </trkpt>
      <trkpt lat="44.11815" lon="2.26872">
        <ele>366.1</ele>
        <time>2016-05-04T13:02:16Z</time>
      </trkpt>
      <trkpt lat="44.11816" lon="2.26872">
        <ele>366.2</ele>
        <time>2016-05-04T13:02:17Z</time>
      </trkpt>
      <trkpt lat="44.11816" lon="2.26872">
        <ele>366.1</ele>
        <time>2016-05-04T13:02:18Z</time>
      </trkpt>
      <trkpt lat="44.11817" lon="2.26873">
        <ele>366</ele>
        <time>2016-05-04T13:02:19Z</time>
      </trkpt>
      <trkpt lat="44.11818" lon="2.26873">
        <ele>365.9</ele>
        <time>2016-05-04T13:02:20Z</time>
      </trkpt>
      <trkpt lat="44.11818" lon="2.26873">
        <ele>365.9</ele>
        <time>2016-05-04T13:02:21Z</time>
      </trkpt>
      <trkpt lat="44.11819" lon="2.26874">
        <ele>365.8</ele>
        <time>2016-05-04T13:02:22Z</time>
      </trkpt>
      <trkpt lat="44.11819" lon="2.26874">
        <ele>365.8</ele>
        <time>2016-05-04T13:02:23Z</time>
      </trkpt>
      <trkpt lat="44.1182" lon="2.26874">
        <ele>365.4</ele>
        <time>2016-05-04T13:02:24Z</time>
      </trkpt>
      <trkpt lat="44.11821" lon="2.26875">
        <ele>365</ele>
        <time>2016-05-04T13:02:25Z</time>
      </trkpt>
      <trkpt lat="44.11822" lon="2.26875">
        <ele>364.8</ele>
        <time>2016-05-04T13:02:26Z</time>
      </trkpt>
      <trkpt lat="44.11823" lon="2.26875">
        <ele>364.6</ele>
        <time>2016-05-04T13:02:27Z</time>
      </trkpt>
      <trkpt lat="44.11823" lon="2.26876">
        <ele>364.4</ele>
        <time>2016-05-04T13:02:28Z</time>
      </trkpt>
      <trkpt lat="44.11824" lon="2.26876">
        <ele>364.3</ele>
        <time>2016-05-04T13:02:29Z</time>
      </trkpt>
      <trkpt lat="44.11825" lon="2.26876">
        <ele>364</ele>
        <time>2016-05-04T13:02:30Z</time>
      </trkpt>
      <trkpt lat="44.11826" lon="2.26877">
        <ele>363.8</ele>
        <time>2016-05-04T13:02:31Z</time>
      </trkpt>
      <trkpt lat="44.11827" lon="2.26877">
        <ele>363.7</ele>
        <time>2016-05-04T13:02:32Z</time>
      </trkpt>
      <trkpt lat="44.11831" lon="2.26878">
        <ele>363</ele>
        <time>2016-05-04T13:02:37Z</time>
      </trkpt>
      <trkpt lat="44.11831" lon="2.26879">
        <ele>363</ele>
        <time>2016-05-04T13:02:38Z</time>
      </trkpt>
      <trkpt lat="44.11832" lon="2.26879">
        <ele>357.1</ele>
        <time>2016-05-04T13:02:39Z</time>
      </trkpt>
      <trkpt lat="44.11832" lon="2.26879">
        <ele>352.6</ele>
        <time>2016-05-04T13:02:40Z</time>
      </trkpt>
      <trkpt lat="44.11833" lon="2.26879">
        <ele>349.3</ele>
        <time>2016-05-04T13:02:41Z</time>
      </trkpt>
      <trkpt lat="44.11833" lon="2.26879">
        <ele>347</ele>
        <time>2016-05-04T13:02:42Z</time>
      </trkpt>
      <trkpt lat="44.11834" lon="2.26879">
        <ele>345.3</ele>
        <time>2016-05-04T13:02:43Z</time>
      </trkpt>
      <trkpt lat="44.11838" lon="2.26879">
        <ele>342.6</ele>
        <time>2016-05-04T13:02:46Z</time>
      </trkpt>
      <trkpt lat="44.1184" lon="2.2688">
        <ele>341.9</ele>
        <time>2016-05-04T13:02:48Z</time>
      </trkpt>
      <trkpt lat="44.1184" lon="2.26881">
        <ele>341.7</ele>
        <time>2016-05-04T13:02:49Z</time>
      </trkpt>
      <trkpt lat="44.11841" lon="2.26883">
        <ele>341.5</ele>
        <time>2016-05-04T13:02:50Z</time>
      </trkpt>
      <trkpt lat="44.11842" lon="2.26884">
        <ele>340.9</ele>
        <time>2016-05-04T13:02:51Z</time>
      </trkpt>
      <trkpt lat="44.11842" lon="2.26886">
        <ele>340.5</ele>
        <time>2016-05-04T13:02:52Z</time>
      </trkpt>
      <trkpt lat="44.11843" lon="2.26888">
        <ele>340.2</ele>
        <time>2016-05-04T13:02:53Z</time>
      </trkpt>
      <trkpt lat="44.11843" lon="2.2689">
        <ele>339.7</ele>
        <time>2016-05-04T13:02:54Z</time>
      </trkpt>
      <trkpt lat="44.11844" lon="2.26892">
        <ele>339.4</ele>
        <time>2016-05-04T13:02:55Z</time>
      </trkpt>
      <trkpt lat="44.11845" lon="2.26894">
        <ele>339.1</ele>
        <time>2016-05-04T13:02:56Z</time>
      </trkpt>
      <trkpt lat="44.11846" lon="2.26896">
        <ele>339</ele>
        <time>2016-05-04T13:02:57Z</time>
      </trkpt>
      <trkpt lat="44.11846" lon="2.26898">
        <ele>338.8</ele>
        <time>2016-05-04T13:02:58Z</time>
      </trkpt>
      <trkpt lat="44.11847" lon="2.26899">
        <ele>338.7</ele>
        <time>2016-05-04T13:02:59Z</time>
      </trkpt>
      <trkpt lat="44.11848" lon="2.26901">
        <ele>338.8</ele>
        <time>2016-05-04T13:03:00Z</time>
      </trkpt>
      <trkpt lat="44.11848" lon="2.26902">
        <ele>338.9</ele>
        <time>2016-05-04T13:03:01Z</time>
      </trkpt>
      <trkpt lat="44.11849" lon="2.26903">
        <ele>339</ele>
        <time>2016-05-04T13:03:02Z</time>
      </trkpt>
      <trkpt lat="44.1185" lon="2.26904">
        <ele>338.9</ele>
        <time>2016-05-04T13:03:03Z</time>
      </trkpt>
      <trkpt lat="44.11852" lon="2.26905">
        <ele>338.7</ele>
        <time>2016-05-04T13:03:04Z</time>
      </trkpt>
      <trkpt lat="44.11852" lon="2.26906">
        <ele>338.7</ele>
        <time>2016-05-04T13:03:05Z</time>
      </trkpt>
      <trkpt lat="44.11853" lon="2.26907">
        <ele>338.8</ele>
        <time>2016-05-04T13:03:06Z</time>
      </trkpt>
      <trkpt lat="44.11854" lon="2.26907">
        <ele>338.9</ele>
        <time>2016-05-04T13:03:07Z</time>
      </trkpt>
      <trkpt lat="44.11855" lon="2.26907">
        <ele>339</ele>
        <time>2016-05-04T13:03:08Z</time>
      </trkpt>
      <trkpt lat="44.11855" lon="2.26908">
        <ele>339.3</ele>
        <time>2016-05-04T13:03:09Z</time>
      </trkpt>
      <trkpt lat="44.11856" lon="2.26908">
        <ele>339.5</ele>
        <time>2016-05-04T13:03:10Z</time>
      </trkpt>
      <trkpt lat="44.11857" lon="2.26909">
        <ele>339.6</ele>
        <time>2016-05-04T13:03:11Z</time>
      </trkpt>
      <trkpt lat="44.11858" lon="2.26909">
        <ele>339.7</ele>
        <time>2016-05-04T13:03:12Z</time>
      </trkpt>
      <trkpt lat="44.11858" lon="2.2691">
        <ele>339.8</ele>
        <time>2016-05-04T13:03:13Z</time>
      </trkpt>
      <trkpt lat="44.11858" lon="2.2691">
        <ele>339.9</ele>
        <time>2016-05-04T13:03:14Z</time>
      </trkpt>
      <trkpt lat="44.11858" lon="2.2691">
        <ele>339.9</ele>
        <time>2016-05-04T13:03:15Z</time>
      </trkpt>
      <trkpt lat="44.11859" lon="2.26911">
        <ele>340</ele>
        <time>2016-05-04T13:03:16Z</time>
      </trkpt>
      <trkpt lat="44.11859" lon="2.26911">
        <ele>340</ele>
        <time>2016-05-04T13:03:17Z</time>
      </trkpt>
      <trkpt lat="44.11864" lon="2.26915">
        <ele>340.9</ele>
        <time>2016-05-04T13:03:21Z</time>
      </trkpt>
      <trkpt lat="44.11877" lon="2.26924">
        <ele>343</ele>
        <time>2016-05-04T13:03:33Z</time>
      </trkpt>
      <trkpt lat="44.11892" lon="2.26937">
        <ele>343.2</ele>
        <time>2016-05-04T13:03:48Z</time>
      </trkpt>
      <trkpt lat="44.11892" lon="2.26938">
        <ele>343.1</ele>
        <time>2016-05-04T13:03:49Z</time>
      </trkpt>
      <trkpt lat="44.11894" lon="2.26942">
        <ele>343.2</ele>
        <time>2016-05-04T13:03:52Z</time>
      </trkpt>
      <trkpt lat="44.11895" lon="2.26945">
        <ele>344.1</ele>
        <time>2016-05-04T13:03:55Z</time>
      </trkpt>
      <trkpt lat="44.11896" lon="2.26946">
        <ele>344.4</ele>
        <time>2016-05-04T13:03:56Z</time>
      </trkpt>
      <trkpt lat="44.11896" lon="2.26947">
        <ele>344.8</ele>
        <time>2016-05-04T13:03:57Z</time>
      </trkpt>
      <trkpt lat="44.11897" lon="2.26948">
        <ele>345.1</ele>
        <time>2016-05-04T13:03:58Z</time>
      </trkpt>
      <trkpt lat="44.11897" lon="2.26949">
        <ele>345.4</ele>
        <time>2016-05-04T13:03:59Z</time>
      </trkpt>
      <trkpt lat="44.11898" lon="2.2695">
        <ele>345.5</ele>
        <time>2016-05-04T13:04:00Z</time>
      </trkpt>
      <trkpt lat="44.11898" lon="2.26951">
        <ele>345.7</ele>
        <time>2016-05-04T13:04:01Z</time>
      </trkpt>
      <trkpt lat="44.11899" lon="2.26954">
        <ele>346.4</ele>
        <time>2016-05-04T13:04:05Z</time>
      </trkpt>
      <trkpt lat="44.119" lon="2.2696">
        <ele>345.4</ele>
        <time>2016-05-04T13:04:12Z</time>
      </trkpt>
      <trkpt lat="44.11901" lon="2.26961">
        <ele>345.3</ele>
        <time>2016-05-04T13:04:13Z</time>
      </trkpt>
      <trkpt lat="44.11906" lon="2.26967">
        <ele>343.9</ele>
        <time>2016-05-04T13:04:21Z</time>
      </trkpt>
      <trkpt lat="44.11906" lon="2.26968">
        <ele>343.6</ele>
        <time>2016-05-04T13:04:22Z</time>
      </trkpt>
      <trkpt lat="44.11906" lon="2.26968">
        <ele>343.3</ele>
        <time>2016-05-04T13:04:23Z</time>
      </trkpt>
      <trkpt lat="44.11906" lon="2.2697">
        <ele>343.2</ele>
        <time>2016-05-04T13:04:24Z</time>
      </trkpt>
      <trkpt lat="44.11911" lon="2.26982">
        <ele>343</ele>
        <time>2016-05-04T13:04:33Z</time>
      </trkpt>
      <trkpt lat="44.11911" lon="2.26983">
        <ele>342.9</ele>
        <time>2016-05-04T13:04:34Z</time>
      </trkpt>
      <trkpt lat="44.11918" lon="2.27018">
        <ele>344.8</ele>
        <time>2016-05-04T13:05:00Z</time>
      </trkpt>
      <trkpt lat="44.1192" lon="2.27021">
        <ele>345.1</ele>
        <time>2016-05-04T13:05:04Z</time>
      </trkpt>
      <trkpt lat="44.11921" lon="2.27024">
        <ele>345.2</ele>
        <time>2016-05-04T13:05:07Z</time>
      </trkpt>
      <trkpt lat="44.11921" lon="2.27032">
        <ele>345</ele>
        <time>2016-05-04T13:05:12Z</time>
      </trkpt>
      <trkpt lat="44.11923" lon="2.27045">
        <ele>345.6</ele>
        <time>2016-05-04T13:05:20Z</time>
      </trkpt>
      <trkpt lat="44.11923" lon="2.27046">
        <ele>345.5</ele>
        <time>2016-05-04T13:05:21Z</time>
      </trkpt>
      <trkpt lat="44.11929" lon="2.27066">
        <ele>346.6</ele>
        <time>2016-05-04T13:05:35Z</time>
      </trkpt>
      <trkpt lat="44.11929" lon="2.27067">
        <ele>346.7</ele>
        <time>2016-05-04T13:05:36Z</time>
      </trkpt>
      <trkpt lat="44.11928" lon="2.27078">
        <ele>346.5</ele>
        <time>2016-05-04T13:05:42Z</time>
      </trkpt>
      <trkpt lat="44.11924" lon="2.27108">
        <ele>348.5</ele>
        <time>2016-05-04T13:06:02Z</time>
      </trkpt>
      <trkpt lat="44.11924" lon="2.27109">
        <ele>348.1</ele>
        <time>2016-05-04T13:06:03Z</time>
      </trkpt>
      <trkpt lat="44.11924" lon="2.27114">
        <ele>347.6</ele>
        <time>2016-05-04T13:06:06Z</time>
      </trkpt>
      <trkpt lat="44.11925" lon="2.27125">
        <ele>347</ele>
        <time>2016-05-04T13:06:12Z</time>
      </trkpt>
      <trkpt lat="44.11925" lon="2.27127">
        <ele>346.7</ele>
        <time>2016-05-04T13:06:13Z</time>
      </trkpt>
      <trkpt lat="44.11924" lon="2.2713">
        <ele>346.7</ele>
        <time>2016-05-04T13:06:15Z</time>
      </trkpt>
      <trkpt lat="44.11924" lon="2.27132">
        <ele>346.7</ele>
        <time>2016-05-04T13:06:16Z</time>
      </trkpt>
      <trkpt lat="44.11922" lon="2.27152">
        <ele>347.1</ele>
        <time>2016-05-04T13:06:29Z</time>
      </trkpt>
      <trkpt lat="44.11923" lon="2.27154">
        <ele>347.1</ele>
        <time>2016-05-04T13:06:30Z</time>
      </trkpt>
      <trkpt lat="44.1192" lon="2.27185">
        <ele>344.6</ele>
        <time>2016-05-04T13:06:47Z</time>
      </trkpt>
      <trkpt lat="44.11919" lon="2.2719">
        <ele>343.6</ele>
        <time>2016-05-04T13:06:51Z</time>
      </trkpt>
      <trkpt lat="44.11919" lon="2.27192">
        <ele>343.4</ele>
        <time>2016-05-04T13:06:52Z</time>
      </trkpt>
      <trkpt lat="44.11919" lon="2.27193">
        <ele>343.2</ele>
        <time>2016-05-04T13:06:53Z</time>
      </trkpt>
      <trkpt lat="44.11919" lon="2.27202">
        <ele>342.8</ele>
        <time>2016-05-04T13:07:00Z</time>
      </trkpt>
      <trkpt lat="44.11919" lon="2.27204">
        <ele>342.6</ele>
        <time>2016-05-04T13:07:01Z</time>
      </trkpt>
      <trkpt lat="44.11919" lon="2.27208">
        <ele>342.1</ele>
        <time>2016-05-04T13:07:04Z</time>
      </trkpt>
      <trkpt lat="44.11919" lon="2.2721">
        <ele>342</ele>
        <time>2016-05-04T13:07:05Z</time>
      </trkpt>
      <trkpt lat="44.11919" lon="2.27211">
        <ele>342.2</ele>
        <time>2016-05-04T13:07:06Z</time>
      </trkpt>
      <trkpt lat="44.11919" lon="2.27213">
        <ele>342.3</ele>
        <time>2016-05-04T13:07:07Z</time>
      </trkpt>
      <trkpt lat="44.11919" lon="2.27215">
        <ele>342.4</ele>
        <time>2016-05-04T13:07:08Z</time>
      </trkpt>
      <trkpt lat="44.11919" lon="2.27216">
        <ele>342.3</ele>
        <time>2016-05-04T13:07:09Z</time>
      </trkpt>
      <trkpt lat="44.11919" lon="2.27218">
        <ele>342.1</ele>
        <time>2016-05-04T13:07:10Z</time>
      </trkpt>
      <trkpt lat="44.11919" lon="2.2722">
        <ele>342.1</ele>
        <time>2016-05-04T13:07:11Z</time>
      </trkpt>
      <trkpt lat="44.11919" lon="2.27221">
        <ele>341.6</ele>
        <time>2016-05-04T13:07:12Z</time>
      </trkpt>
      <trkpt lat="44.11919" lon="2.27223">
        <ele>341.2</ele>
        <time>2016-05-04T13:07:13Z</time>
      </trkpt>
      <trkpt lat="44.11919" lon="2.27224">
        <ele>340.9</ele>
        <time>2016-05-04T13:07:14Z</time>
      </trkpt>
      <trkpt lat="44.1192" lon="2.27226">
        <ele>340.7</ele>
        <time>2016-05-04T13:07:15Z</time>
      </trkpt>
      <trkpt lat="44.1192" lon="2.27227">
        <ele>340.6</ele>
        <time>2016-05-04T13:07:16Z</time>
      </trkpt>
      <trkpt lat="44.1192" lon="2.27229">
        <ele>340.4</ele>
        <time>2016-05-04T13:07:17Z</time>
      </trkpt>
      <trkpt lat="44.1192" lon="2.2723">
        <ele>340.6</ele>
        <time>2016-05-04T13:07:18Z</time>
      </trkpt>
      <trkpt lat="44.1192" lon="2.27232">
        <ele>340.7</ele>
        <time>2016-05-04T13:07:19Z</time>
      </trkpt>
      <trkpt lat="44.1192" lon="2.27234">
        <ele>340.7</ele>
        <time>2016-05-04T13:07:20Z</time>
      </trkpt>
      <trkpt lat="44.11921" lon="2.27235">
        <ele>340.6</ele>
        <time>2016-05-04T13:07:21Z</time>
      </trkpt>
      <trkpt lat="44.11921" lon="2.27237">
        <ele>340.5</ele>
        <time>2016-05-04T13:07:22Z</time>
      </trkpt>
      <trkpt lat="44.11921" lon="2.27239">
        <ele>340.4</ele>
        <time>2016-05-04T13:07:23Z</time>
      </trkpt>
      <trkpt lat="44.11922" lon="2.27241">
        <ele>340.3</ele>
        <time>2016-05-04T13:07:24Z</time>
      </trkpt>
      <trkpt lat="44.11922" lon="2.27243">
        <ele>340.2</ele>
        <time>2016-05-04T13:07:25Z</time>
      </trkpt>
      <trkpt lat="44.11922" lon="2.27246">
        <ele>340.2</ele>
        <time>2016-05-04T13:07:26Z</time>
      </trkpt>
      <trkpt lat="44.11922" lon="2.27248">
        <ele>340</ele>
        <time>2016-05-04T13:07:27Z</time>
      </trkpt>
      <trkpt lat="44.11922" lon="2.27251">
        <ele>339.8</ele>
        <time>2016-05-04T13:07:28Z</time>
      </trkpt>
      <trkpt lat="44.11923" lon="2.27253">
        <ele>339.6</ele>
        <time>2016-05-04T13:07:29Z</time>
      </trkpt>
      <trkpt lat="44.11923" lon="2.27258">
        <ele>339.4</ele>
        <time>2016-05-04T13:07:32Z</time>
      </trkpt>
      <trkpt lat="44.11924" lon="2.2726">
        <ele>339.6</ele>
        <time>2016-05-04T13:07:33Z</time>
      </trkpt>
      <trkpt lat="44.11926" lon="2.27274">
        <ele>339.5</ele>
        <time>2016-05-04T13:07:41Z</time>
      </trkpt>
      <trkpt lat="44.11927" lon="2.27277">
        <ele>339.7</ele>
        <time>2016-05-04T13:07:42Z</time>
      </trkpt>
      <trkpt lat="44.11927" lon="2.27279">
        <ele>339.8</ele>
        <time>2016-05-04T13:07:43Z</time>
      </trkpt>
      <trkpt lat="44.11927" lon="2.27281">
        <ele>339.9</ele>
        <time>2016-05-04T13:07:44Z</time>
      </trkpt>
      <trkpt lat="44.11927" lon="2.27283">
        <ele>339.9</ele>
        <time>2016-05-04T13:07:45Z</time>
      </trkpt>
      <trkpt lat="44.11928" lon="2.27285">
        <ele>340</ele>
        <time>2016-05-04T13:07:46Z</time>
      </trkpt>
      <trkpt lat="44.11928" lon="2.27287">
        <ele>340</ele>
        <time>2016-05-04T13:07:47Z</time>
      </trkpt>
      <trkpt lat="44.11928" lon="2.27288">
        <ele>339.8</ele>
        <time>2016-05-04T13:07:48Z</time>
      </trkpt>
      <trkpt lat="44.11929" lon="2.27289">
        <ele>339.7</ele>
        <time>2016-05-04T13:07:49Z</time>
      </trkpt>
      <trkpt lat="44.11929" lon="2.2729">
        <ele>339.6</ele>
        <time>2016-05-04T13:07:50Z</time>
      </trkpt>
      <trkpt lat="44.1193" lon="2.27291">
        <ele>339.3</ele>
        <time>2016-05-04T13:07:51Z</time>
      </trkpt>
      <trkpt lat="44.11931" lon="2.27293">
        <ele>339</ele>
        <time>2016-05-04T13:07:52Z</time>
      </trkpt>
      <trkpt lat="44.11931" lon="2.27296">
        <ele>338.9</ele>
        <time>2016-05-04T13:07:53Z</time>
      </trkpt>
      <trkpt lat="44.11931" lon="2.27298">
        <ele>339</ele>
        <time>2016-05-04T13:07:54Z</time>
      </trkpt>
      <trkpt lat="44.11932" lon="2.27301">
        <ele>339</ele>
        <time>2016-05-04T13:07:55Z</time>
      </trkpt>
      <trkpt lat="44.11932" lon="2.27302">
        <ele>339.1</ele>
        <time>2016-05-04T13:07:56Z</time>
      </trkpt>
      <trkpt lat="44.11933" lon="2.27303">
        <ele>338.9</ele>
        <time>2016-05-04T13:07:57Z</time>
      </trkpt>
      <trkpt lat="44.11933" lon="2.27304">
        <ele>338.8</ele>
        <time>2016-05-04T13:07:58Z</time>
      </trkpt>
      <trkpt lat="44.11934" lon="2.27304">
        <ele>338.7</ele>
        <time>2016-05-04T13:07:59Z</time>
      </trkpt>
      <trkpt lat="44.11934" lon="2.27304">
        <ele>338.2</ele>
        <time>2016-05-04T13:08:00Z</time>
      </trkpt>
      <trkpt lat="44.11934" lon="2.27304">
        <ele>337.8</ele>
        <time>2016-05-04T13:08:01Z</time>
      </trkpt>
      <trkpt lat="44.11935" lon="2.27304">
        <ele>337.5</ele>
        <time>2016-05-04T13:08:02Z</time>
      </trkpt>
      <trkpt lat="44.11937" lon="2.27298">
        <ele>336</ele>
        <time>2016-05-04T13:08:10Z</time>
      </trkpt>
      <trkpt lat="44.11937" lon="2.27298">
        <ele>335.8</ele>
        <time>2016-05-04T13:08:11Z</time>
      </trkpt>
      <trkpt lat="44.11937" lon="2.27297">
        <ele>335.6</ele>
        <time>2016-05-04T13:08:12Z</time>
      </trkpt>
      <trkpt lat="44.11938" lon="2.27296">
        <ele>335.4</ele>
        <time>2016-05-04T13:08:13Z</time>
      </trkpt>
      <trkpt lat="44.11939" lon="2.27294">
        <ele>334.4</ele>
        <time>2016-05-04T13:08:16Z</time>
      </trkpt>
      <trkpt lat="44.1194" lon="2.27292">
        <ele>334.1</ele>
        <time>2016-05-04T13:08:17Z</time>
      </trkpt>
      <trkpt lat="44.1194" lon="2.27291">
        <ele>334.1</ele>
        <time>2016-05-04T13:08:18Z</time>
      </trkpt>
      <trkpt lat="44.11941" lon="2.27288">
        <ele>334.1</ele>
        <time>2016-05-04T13:08:19Z</time>
      </trkpt>
      <trkpt lat="44.11942" lon="2.27287">
        <ele>334.1</ele>
        <time>2016-05-04T13:08:20Z</time>
      </trkpt>
      <trkpt lat="44.11943" lon="2.27285">
        <ele>333.9</ele>
        <time>2016-05-04T13:08:21Z</time>
      </trkpt>
      <trkpt lat="44.11943" lon="2.27284">
        <ele>333.7</ele>
        <time>2016-05-04T13:08:22Z</time>
      </trkpt>
      <trkpt lat="44.11944" lon="2.27284">
        <ele>333.6</ele>
        <time>2016-05-04T13:08:23Z</time>
      </trkpt>
      <trkpt lat="44.11945" lon="2.27283">
        <ele>333.5</ele>
        <time>2016-05-04T13:08:24Z</time>
      </trkpt>
      <trkpt lat="44.11946" lon="2.27283">
        <ele>333.5</ele>
        <time>2016-05-04T13:08:25Z</time>
      </trkpt>
      <trkpt lat="44.11946" lon="2.27283">
        <ele>333.4</ele>
        <time>2016-05-04T13:08:26Z</time>
      </trkpt>
      <trkpt lat="44.11947" lon="2.27284">
        <ele>332.7</ele>
        <time>2016-05-04T13:08:27Z</time>
      </trkpt>
      <trkpt lat="44.11948" lon="2.27284">
        <ele>332.2</ele>
        <time>2016-05-04T13:08:28Z</time>
      </trkpt>
      <trkpt lat="44.11952" lon="2.27286">
        <ele>331.9</ele>
        <time>2016-05-04T13:08:33Z</time>
      </trkpt>
      <trkpt lat="44.11953" lon="2.27286">
        <ele>332</ele>
        <time>2016-05-04T13:08:34Z</time>
      </trkpt>
      <trkpt lat="44.11954" lon="2.27287">
        <ele>332.1</ele>
        <time>2016-05-04T13:08:35Z</time>
      </trkpt>
      <trkpt lat="44.11954" lon="2.27287">
        <ele>331.7</ele>
        <time>2016-05-04T13:08:36Z</time>
      </trkpt>
      <trkpt lat="44.11955" lon="2.27288">
        <ele>331.5</ele>
        <time>2016-05-04T13:08:37Z</time>
      </trkpt>
      <trkpt lat="44.11956" lon="2.2729">
        <ele>330.5</ele>
        <time>2016-05-04T13:08:39Z</time>
      </trkpt>
      <trkpt lat="44.11959" lon="2.27294">
        <ele>329.7</ele>
        <time>2016-05-04T13:08:44Z</time>
      </trkpt>
      <trkpt lat="44.11973" lon="2.27333">
        <ele>325</ele>
        <time>2016-05-04T13:09:08Z</time>
      </trkpt>
      <trkpt lat="44.11975" lon="2.27339">
        <ele>323.9</ele>
        <time>2016-05-04T13:09:11Z</time>
      </trkpt>
      <trkpt lat="44.11975" lon="2.27349">
        <ele>323.3</ele>
        <time>2016-05-04T13:09:15Z</time>
      </trkpt>
      <trkpt lat="44.11975" lon="2.27361">
        <ele>323.1</ele>
        <time>2016-05-04T13:09:19Z</time>
      </trkpt>
      <trkpt lat="44.11975" lon="2.27363">
        <ele>323.1</ele>
        <time>2016-05-04T13:09:20Z</time>
      </trkpt>
      <trkpt lat="44.11974" lon="2.27368">
        <ele>323.4</ele>
        <time>2016-05-04T13:09:22Z</time>
      </trkpt>
      <trkpt lat="44.11971" lon="2.27383">
        <ele>323.1</ele>
        <time>2016-05-04T13:09:29Z</time>
      </trkpt>
      <trkpt lat="44.11971" lon="2.27385">
        <ele>322.9</ele>
        <time>2016-05-04T13:09:30Z</time>
      </trkpt>
      <trkpt lat="44.11971" lon="2.27386">
        <ele>322.7</ele>
        <time>2016-05-04T13:09:31Z</time>
      </trkpt>
      <trkpt lat="44.11968" lon="2.274">
        <ele>322.1</ele>
        <time>2016-05-04T13:09:40Z</time>
      </trkpt>
      <trkpt lat="44.11968" lon="2.27402">
        <ele>322.1</ele>
        <time>2016-05-04T13:09:41Z</time>
      </trkpt>
      <trkpt lat="44.11967" lon="2.27405">
        <ele>321</ele>
        <time>2016-05-04T13:09:43Z</time>
      </trkpt>
      <trkpt lat="44.11967" lon="2.27406">
        <ele>320.7</ele>
        <time>2016-05-04T13:09:44Z</time>
      </trkpt>
      <trkpt lat="44.11968" lon="2.27411">
        <ele>320.1</ele>
        <time>2016-05-04T13:09:47Z</time>
      </trkpt>
      <trkpt lat="44.11968" lon="2.27412">
        <ele>319.7</ele>
        <time>2016-05-04T13:09:48Z</time>
      </trkpt>
      <trkpt lat="44.11968" lon="2.27413">
        <ele>319.5</ele>
        <time>2016-05-04T13:09:49Z</time>
      </trkpt>
      <trkpt lat="44.11965" lon="2.27434">
        <ele>317.3</ele>
        <time>2016-05-04T13:10:03Z</time>
      </trkpt>
      <trkpt lat="44.1196" lon="2.27448">
        <ele>315.7</ele>
        <time>2016-05-04T13:10:11Z</time>
      </trkpt>
      <trkpt lat="44.11959" lon="2.27449">
        <ele>315.2</ele>
        <time>2016-05-04T13:10:12Z</time>
      </trkpt>
      <trkpt lat="44.11959" lon="2.27451">
        <ele>314.8</ele>
        <time>2016-05-04T13:10:13Z</time>
      </trkpt>
      <trkpt lat="44.11958" lon="2.27465">
        <ele>312.7</ele>
        <time>2016-05-04T13:10:22Z</time>
      </trkpt>
      <trkpt lat="44.11958" lon="2.27468">
        <ele>312.2</ele>
        <time>2016-05-04T13:10:24Z</time>
      </trkpt>
      <trkpt lat="44.11961" lon="2.27477">
        <ele>313.2</ele>
        <time>2016-05-04T13:10:33Z</time>
      </trkpt>
      <trkpt lat="44.11961" lon="2.27478">
        <ele>313.3</ele>
        <time>2016-05-04T13:10:34Z</time>
      </trkpt>
      <trkpt lat="44.11963" lon="2.27481">
        <ele>314</ele>
        <time>2016-05-04T13:10:38Z</time>
      </trkpt>
      <trkpt lat="44.11963" lon="2.27483">
        <ele>314.1</ele>
        <time>2016-05-04T13:10:39Z</time>
      </trkpt>
      <trkpt lat="44.11963" lon="2.27484">
        <ele>314.2</ele>
        <time>2016-05-04T13:10:40Z</time>
      </trkpt>
      <trkpt lat="44.11964" lon="2.27484">
        <ele>314.3</ele>
        <time>2016-05-04T13:10:41Z</time>
      </trkpt>
      <trkpt lat="44.11964" lon="2.27485">
        <ele>314.6</ele>
        <time>2016-05-04T13:10:42Z</time>
      </trkpt>
      <trkpt lat="44.11965" lon="2.27485">
        <ele>314.8</ele>
        <time>2016-05-04T13:10:43Z</time>
      </trkpt>
      <trkpt lat="44.11966" lon="2.27486">
        <ele>315.4</ele>
        <time>2016-05-04T13:10:45Z</time>
      </trkpt>
      <trkpt lat="44.11968" lon="2.27486">
        <ele>315.8</ele>
        <time>2016-05-04T13:10:49Z</time>
      </trkpt>
      <trkpt lat="44.11969" lon="2.27485">
        <ele>315.7</ele>
        <time>2016-05-04T13:10:50Z</time>
      </trkpt>
      <trkpt lat="44.11969" lon="2.27485">
        <ele>316.4</ele>
        <time>2016-05-04T13:10:51Z</time>
      </trkpt>
      <trkpt lat="44.1197" lon="2.27485">
        <ele>317</ele>
        <time>2016-05-04T13:10:52Z</time>
      </trkpt>
      <trkpt lat="44.11971" lon="2.27485">
        <ele>317.7</ele>
        <time>2016-05-04T13:10:55Z</time>
      </trkpt>
      <trkpt lat="44.11971" lon="2.27484">
        <ele>317.7</ele>
        <time>2016-05-04T13:10:56Z</time>
      </trkpt>
      <trkpt lat="44.11971" lon="2.27484">
        <ele>318</ele>
        <time>2016-05-04T13:10:57Z</time>
      </trkpt>
      <trkpt lat="44.11971" lon="2.27484">
        <ele>318.2</ele>
        <time>2016-05-04T13:10:58Z</time>
      </trkpt>
      <trkpt lat="44.11971" lon="2.27484">
        <ele>318.3</ele>
        <time>2016-05-04T13:10:59Z</time>
      </trkpt>
      <trkpt lat="44.11971" lon="2.27483">
        <ele>318.6</ele>
        <time>2016-05-04T13:11:00Z</time>
      </trkpt>
      <trkpt lat="44.11971" lon="2.27483">
        <ele>318.9</ele>
        <time>2016-05-04T13:11:01Z</time>
      </trkpt>
      <trkpt lat="44.11972" lon="2.27483">
        <ele>319.1</ele>
        <time>2016-05-04T13:11:02Z</time>
      </trkpt>
      <trkpt lat="44.11972" lon="2.27483">
        <ele>319.2</ele>
        <time>2016-05-04T13:11:03Z</time>
      </trkpt>
      <trkpt lat="44.11972" lon="2.27483">
        <ele>319.3</ele>
        <time>2016-05-04T13:11:04Z</time>
      </trkpt>
      <trkpt lat="44.11973" lon="2.27483">
        <ele>319.4</ele>
        <time>2016-05-04T13:11:05Z</time>
      </trkpt>
      <trkpt lat="44.11973" lon="2.27483">
        <ele>319.6</ele>
        <time>2016-05-04T13:11:06Z</time>
      </trkpt>
      <trkpt lat="44.11974" lon="2.27484">
        <ele>319.8</ele>
        <time>2016-05-04T13:11:07Z</time>
      </trkpt>
      <trkpt lat="44.11974" lon="2.27484">
        <ele>320</ele>
        <time>2016-05-04T13:11:08Z</time>
      </trkpt>
      <trkpt lat="44.11974" lon="2.27484">
        <ele>320.1</ele>
        <time>2016-05-04T13:11:09Z</time>
      </trkpt>
      <trkpt lat="44.11975" lon="2.27485">
        <ele>320.2</ele>
        <time>2016-05-04T13:11:10Z</time>
      </trkpt>
      <trkpt lat="44.11975" lon="2.27485">
        <ele>320.3</ele>
        <time>2016-05-04T13:11:11Z</time>
      </trkpt>
      <trkpt lat="44.11975" lon="2.27485">
        <ele>320.5</ele>
        <time>2016-05-04T13:11:12Z</time>
      </trkpt>
      <trkpt lat="44.11975" lon="2.27486">
        <ele>320.7</ele>
        <time>2016-05-04T13:11:13Z</time>
      </trkpt>
      <trkpt lat="44.11975" lon="2.27487">
        <ele>320.9</ele>
        <time>2016-05-04T13:11:14Z</time>
      </trkpt>
      <trkpt lat="44.11975" lon="2.27488">
        <ele>321.2</ele>
        <time>2016-05-04T13:11:15Z</time>
      </trkpt>
      <trkpt lat="44.11975" lon="2.27488">
        <ele>321.4</ele>
        <time>2016-05-04T13:11:16Z</time>
      </trkpt>
      <trkpt lat="44.11975" lon="2.27489">
        <ele>321.6</ele>
        <time>2016-05-04T13:11:17Z</time>
      </trkpt>
      <trkpt lat="44.11976" lon="2.2749">
        <ele>322</ele>
        <time>2016-05-04T13:11:18Z</time>
      </trkpt>
      <trkpt lat="44.11976" lon="2.27491">
        <ele>322.2</ele>
        <time>2016-05-04T13:11:19Z</time>
      </trkpt>
      <trkpt lat="44.11976" lon="2.27491">
        <ele>322.4</ele>
        <time>2016-05-04T13:11:20Z</time>
      </trkpt>
      <trkpt lat="44.11977" lon="2.27492">
        <ele>322.6</ele>
        <time>2016-05-04T13:11:21Z</time>
      </trkpt>
      <trkpt lat="44.11977" lon="2.27493">
        <ele>322.7</ele>
        <time>2016-05-04T13:11:22Z</time>
      </trkpt>
      <trkpt lat="44.11977" lon="2.27494">
        <ele>322.8</ele>
        <time>2016-05-04T13:11:23Z</time>
      </trkpt>
      <trkpt lat="44.11978" lon="2.27494">
        <ele>322.8</ele>
        <time>2016-05-04T13:11:24Z</time>
      </trkpt>
      <trkpt lat="44.11978" lon="2.27495">
        <ele>322.9</ele>
        <time>2016-05-04T13:11:25Z</time>
      </trkpt>
      <trkpt lat="44.11979" lon="2.27496">
        <ele>322.9</ele>
        <time>2016-05-04T13:11:26Z</time>
      </trkpt>
      <trkpt lat="44.11979" lon="2.27497">
        <ele>323.4</ele>
        <time>2016-05-04T13:11:27Z</time>
      </trkpt>
      <trkpt lat="44.11979" lon="2.27498">
        <ele>323.7</ele>
        <time>2016-05-04T13:11:28Z</time>
      </trkpt>
      <trkpt lat="44.1198" lon="2.27499">
        <ele>324</ele>
        <time>2016-05-04T13:11:29Z</time>
      </trkpt>
      <trkpt lat="44.1198" lon="2.275">
        <ele>323.9</ele>
        <time>2016-05-04T13:11:30Z</time>
      </trkpt>
      <trkpt lat="44.1198" lon="2.27501">
        <ele>323.9</ele>
        <time>2016-05-04T13:11:31Z</time>
      </trkpt>
      <trkpt lat="44.11981" lon="2.27502">
        <ele>323.9</ele>
        <time>2016-05-04T13:11:32Z</time>
      </trkpt>
      <trkpt lat="44.11981" lon="2.27503">
        <ele>323.9</ele>
        <time>2016-05-04T13:11:33Z</time>
      </trkpt>
      <trkpt lat="44.11981" lon="2.27504">
        <ele>323.9</ele>
        <time>2016-05-04T13:11:34Z</time>
      </trkpt>
      <trkpt lat="44.11981" lon="2.27504">
        <ele>323.9</ele>
        <time>2016-05-04T13:11:35Z</time>
      </trkpt>
      <trkpt lat="44.11982" lon="2.27505">
        <ele>324.1</ele>
        <time>2016-05-04T13:11:36Z</time>
      </trkpt>
      <trkpt lat="44.11983" lon="2.27507">
        <ele>324.2</ele>
        <time>2016-05-04T13:11:39Z</time>
      </trkpt>
      <trkpt lat="44.11985" lon="2.27511">
        <ele>324.5</ele>
        <time>2016-05-04T13:11:44Z</time>
      </trkpt>
      <trkpt lat="44.11986" lon="2.27511">
        <ele>324.5</ele>
        <time>2016-05-04T13:11:45Z</time>
      </trkpt>
      <trkpt lat="44.11986" lon="2.27513">
        <ele>324.6</ele>
        <time>2016-05-04T13:11:47Z</time>
      </trkpt>
      <trkpt lat="44.11994" lon="2.2754">
        <ele>321.7</ele>
        <time>2016-05-04T13:12:10Z</time>
      </trkpt>
      <trkpt lat="44.11995" lon="2.27549">
        <ele>322.1</ele>
        <time>2016-05-04T13:12:19Z</time>
      </trkpt>
      <trkpt lat="44.11995" lon="2.27558">
        <ele>322.4</ele>
        <time>2016-05-04T13:12:27Z</time>
      </trkpt>
      <trkpt lat="44.11995" lon="2.27559">
        <ele>322.5</ele>
        <time>2016-05-04T13:12:28Z</time>
      </trkpt>
      <trkpt lat="44.11995" lon="2.2756">
        <ele>322.7</ele>
        <time>2016-05-04T13:12:29Z</time>
      </trkpt>
      <trkpt lat="44.11995" lon="2.27561">
        <ele>322.5</ele>
        <time>2016-05-04T13:12:30Z</time>
      </trkpt>
      <trkpt lat="44.11995" lon="2.27562">
        <ele>322.4</ele>
        <time>2016-05-04T13:12:31Z</time>
      </trkpt>
      <trkpt lat="44.11995" lon="2.27566">
        <ele>323</ele>
        <time>2016-05-04T13:12:34Z</time>
      </trkpt>
      <trkpt lat="44.11995" lon="2.27568">
        <ele>323.2</ele>
        <time>2016-05-04T13:12:35Z</time>
      </trkpt>
      <trkpt lat="44.11994" lon="2.27569">
        <ele>323</ele>
        <time>2016-05-04T13:12:36Z</time>
      </trkpt>
      <trkpt lat="44.11994" lon="2.27571">
        <ele>322.8</ele>
        <time>2016-05-04T13:12:37Z</time>
      </trkpt>
      <trkpt lat="44.11994" lon="2.27573">
        <ele>322.6</ele>
        <time>2016-05-04T13:12:38Z</time>
      </trkpt>
      <trkpt lat="44.11993" lon="2.27574">
        <ele>322.7</ele>
        <time>2016-05-04T13:12:39Z</time>
      </trkpt>
      <trkpt lat="44.11993" lon="2.27576">
        <ele>322.8</ele>
        <time>2016-05-04T13:12:40Z</time>
      </trkpt>
      <trkpt lat="44.11992" lon="2.27577">
        <ele>322.8</ele>
        <time>2016-05-04T13:12:41Z</time>
      </trkpt>
      <trkpt lat="44.11992" lon="2.27579">
        <ele>323.3</ele>
        <time>2016-05-04T13:12:42Z</time>
      </trkpt>
      <trkpt lat="44.11992" lon="2.2758">
        <ele>323.7</ele>
        <time>2016-05-04T13:12:43Z</time>
      </trkpt>
      <trkpt lat="44.11991" lon="2.27581">
        <ele>323.9</ele>
        <time>2016-05-04T13:12:44Z</time>
      </trkpt>
      <trkpt lat="44.11991" lon="2.27582">
        <ele>324.1</ele>
        <time>2016-05-04T13:12:45Z</time>
      </trkpt>
      <trkpt lat="44.11991" lon="2.27583">
        <ele>324.3</ele>
        <time>2016-05-04T13:12:46Z</time>
      </trkpt>
      <trkpt lat="44.11991" lon="2.27584">
        <ele>324.4</ele>
        <time>2016-05-04T13:12:47Z</time>
      </trkpt>
      <trkpt lat="44.11991" lon="2.27585">
        <ele>324.7</ele>
        <time>2016-05-04T13:12:48Z</time>
      </trkpt>
      <trkpt lat="44.11991" lon="2.27585">
        <ele>324.9</ele>
        <time>2016-05-04T13:12:49Z</time>
      </trkpt>
      <trkpt lat="44.11991" lon="2.27585">
        <ele>325.1</ele>
        <time>2016-05-04T13:12:50Z</time>
      </trkpt>
      <trkpt lat="44.11991" lon="2.27586">
        <ele>325.2</ele>
        <time>2016-05-04T13:12:51Z</time>
      </trkpt>
      <trkpt lat="44.11991" lon="2.27586">
        <ele>325.3</ele>
        <time>2016-05-04T13:12:52Z</time>
      </trkpt>
      <trkpt lat="44.11991" lon="2.27587">
        <ele>325.4</ele>
        <time>2016-05-04T13:12:53Z</time>
      </trkpt>
      <trkpt lat="44.11991" lon="2.27587">
        <ele>325.8</ele>
        <time>2016-05-04T13:12:54Z</time>
      </trkpt>
      <trkpt lat="44.11991" lon="2.27588">
        <ele>326.2</ele>
        <time>2016-05-04T13:12:55Z</time>
      </trkpt>
      <trkpt lat="44.1199" lon="2.27589">
        <ele>326.5</ele>
        <time>2016-05-04T13:12:56Z</time>
      </trkpt>
      <trkpt lat="44.1199" lon="2.2759">
        <ele>326.3</ele>
        <time>2016-05-04T13:12:57Z</time>
      </trkpt>
      <trkpt lat="44.1199" lon="2.2759">
        <ele>326.1</ele>
        <time>2016-05-04T13:12:58Z</time>
      </trkpt>
      <trkpt lat="44.1199" lon="2.27591">
        <ele>326</ele>
        <time>2016-05-04T13:12:59Z</time>
      </trkpt>
      <trkpt lat="44.1199" lon="2.27593">
        <ele>326.3</ele>
        <time>2016-05-04T13:13:00Z</time>
      </trkpt>
      <trkpt lat="44.1199" lon="2.27594">
        <ele>326.5</ele>
        <time>2016-05-04T13:13:01Z</time>
      </trkpt>
      <trkpt lat="44.11989" lon="2.27595">
        <ele>326.7</ele>
        <time>2016-05-04T13:13:02Z</time>
      </trkpt>
      <trkpt lat="44.11989" lon="2.27596">
        <ele>327.3</ele>
        <time>2016-05-04T13:13:03Z</time>
      </trkpt>
      <trkpt lat="44.11988" lon="2.27597">
        <ele>327.7</ele>
        <time>2016-05-04T13:13:04Z</time>
      </trkpt>
      <trkpt lat="44.11988" lon="2.27598">
        <ele>328</ele>
        <time>2016-05-04T13:13:05Z</time>
      </trkpt>
      <trkpt lat="44.11987" lon="2.27599">
        <ele>328.3</ele>
        <time>2016-05-04T13:13:06Z</time>
      </trkpt>
      <trkpt lat="44.11987" lon="2.276">
        <ele>328.5</ele>
        <time>2016-05-04T13:13:07Z</time>
      </trkpt>
      <trkpt lat="44.11987" lon="2.27601">
        <ele>328.6</ele>
        <time>2016-05-04T13:13:08Z</time>
      </trkpt>
      <trkpt lat="44.11987" lon="2.27602">
        <ele>328.9</ele>
        <time>2016-05-04T13:13:09Z</time>
      </trkpt>
      <trkpt lat="44.11987" lon="2.27603">
        <ele>329.1</ele>
        <time>2016-05-04T13:13:10Z</time>
      </trkpt>
      <trkpt lat="44.11987" lon="2.27604">
        <ele>329.3</ele>
        <time>2016-05-04T13:13:11Z</time>
      </trkpt>
      <trkpt lat="44.11987" lon="2.27606">
        <ele>329.2</ele>
        <time>2016-05-04T13:13:12Z</time>
      </trkpt>
      <trkpt lat="44.11987" lon="2.27607">
        <ele>329.2</ele>
        <time>2016-05-04T13:13:13Z</time>
      </trkpt>
      <trkpt lat="44.11987" lon="2.27608">
        <ele>329.1</ele>
        <time>2016-05-04T13:13:14Z</time>
      </trkpt>
      <trkpt lat="44.11987" lon="2.2761">
        <ele>329.5</ele>
        <time>2016-05-04T13:13:15Z</time>
      </trkpt>
      <trkpt lat="44.11987" lon="2.27611">
        <ele>329.8</ele>
        <time>2016-05-04T13:13:16Z</time>
      </trkpt>
      <trkpt lat="44.11987" lon="2.27612">
        <ele>330</ele>
        <time>2016-05-04T13:13:17Z</time>
      </trkpt>
      <trkpt lat="44.11987" lon="2.27614">
        <ele>330.2</ele>
        <time>2016-05-04T13:13:18Z</time>
      </trkpt>
      <trkpt lat="44.11987" lon="2.27615">
        <ele>330.3</ele>
        <time>2016-05-04T13:13:19Z</time>
      </trkpt>
      <trkpt lat="44.11988" lon="2.27616">
        <ele>330.4</ele>
        <time>2016-05-04T13:13:20Z</time>
      </trkpt>
      <trkpt lat="44.11988" lon="2.27618">
        <ele>330.5</ele>
        <time>2016-05-04T13:13:21Z</time>
      </trkpt>
      <trkpt lat="44.11988" lon="2.27619">
        <ele>330.5</ele>
        <time>2016-05-04T13:13:22Z</time>
      </trkpt>
      <trkpt lat="44.11988" lon="2.2762">
        <ele>330.6</ele>
        <time>2016-05-04T13:13:23Z</time>
      </trkpt>
      <trkpt lat="44.11988" lon="2.27622">
        <ele>330.6</ele>
        <time>2016-05-04T13:13:24Z</time>
      </trkpt>
      <trkpt lat="44.11988" lon="2.27623">
        <ele>330.6</ele>
        <time>2016-05-04T13:13:25Z</time>
      </trkpt>
      <trkpt lat="44.11988" lon="2.27624">
        <ele>330.6</ele>
        <time>2016-05-04T13:13:26Z</time>
      </trkpt>
      <trkpt lat="44.11988" lon="2.27626">
        <ele>331.1</ele>
        <time>2016-05-04T13:13:27Z</time>
      </trkpt>
      <trkpt lat="44.11988" lon="2.27627">
        <ele>331.4</ele>
        <time>2016-05-04T13:13:28Z</time>
      </trkpt>
      <trkpt lat="44.11988" lon="2.27628">
        <ele>331.7</ele>
        <time>2016-05-04T13:13:29Z</time>
      </trkpt>
      <trkpt lat="44.11987" lon="2.27632">
        <ele>331.6</ele>
        <time>2016-05-04T13:13:32Z</time>
      </trkpt>
      <trkpt lat="44.11985" lon="2.27637">
        <ele>332</ele>
        <time>2016-05-04T13:13:37Z</time>
      </trkpt>
      <trkpt lat="44.11982" lon="2.27648">
        <ele>334.6</ele>
        <time>2016-05-04T13:13:48Z</time>
      </trkpt>
      <trkpt lat="44.11982" lon="2.27649">
        <ele>334.7</ele>
        <time>2016-05-04T13:13:49Z</time>
      </trkpt>
      <trkpt lat="44.11982" lon="2.27653">
        <ele>334.9</ele>
        <time>2016-05-04T13:13:52Z</time>
      </trkpt>
      <trkpt lat="44.11982" lon="2.27654">
        <ele>334.9</ele>
        <time>2016-05-04T13:13:53Z</time>
      </trkpt>
      <trkpt lat="44.11982" lon="2.27654">
        <ele>335.1</ele>
        <time>2016-05-04T13:13:54Z</time>
      </trkpt>
      <trkpt lat="44.11982" lon="2.27655">
        <ele>335.3</ele>
        <time>2016-05-04T13:13:55Z</time>
      </trkpt>
      <trkpt lat="44.11982" lon="2.27656">
        <ele>335.4</ele>
        <time>2016-05-04T13:13:56Z</time>
      </trkpt>
      <trkpt lat="44.11982" lon="2.27656">
        <ele>335.5</ele>
        <time>2016-05-04T13:13:57Z</time>
      </trkpt>
      <trkpt lat="44.11979" lon="2.2767">
        <ele>338</ele>
        <time>2016-05-04T13:14:10Z</time>
      </trkpt>
      <trkpt lat="44.11979" lon="2.27677">
        <ele>339.1</ele>
        <time>2016-05-04T13:14:16Z</time>
      </trkpt>
      <trkpt lat="44.11978" lon="2.27678">
        <ele>339.4</ele>
        <time>2016-05-04T13:14:17Z</time>
      </trkpt>
      <trkpt lat="44.11978" lon="2.2768">
        <ele>339.3</ele>
        <time>2016-05-04T13:14:20Z</time>
      </trkpt>
      <trkpt lat="44.11977" lon="2.27682">
        <ele>340</ele>
        <time>2016-05-04T13:14:22Z</time>
      </trkpt>
      <trkpt lat="44.11975" lon="2.27687">
        <ele>340.4</ele>
        <time>2016-05-04T13:14:28Z</time>
      </trkpt>
      <trkpt lat="44.11975" lon="2.27688">
        <ele>340.3</ele>
        <time>2016-05-04T13:14:29Z</time>
      </trkpt>
      <trkpt lat="44.11975" lon="2.27689">
        <ele>340.7</ele>
        <time>2016-05-04T13:14:30Z</time>
      </trkpt>
      <trkpt lat="44.11975" lon="2.27691">
        <ele>341.2</ele>
        <time>2016-05-04T13:14:32Z</time>
      </trkpt>
      <trkpt lat="44.11975" lon="2.277">
        <ele>342.6</ele>
        <time>2016-05-04T13:14:40Z</time>
      </trkpt>
      <trkpt lat="44.11974" lon="2.277">
        <ele>342.9</ele>
        <time>2016-05-04T13:14:41Z</time>
      </trkpt>
      <trkpt lat="44.11973" lon="2.27702">
        <ele>343.1</ele>
        <time>2016-05-04T13:14:43Z</time>
      </trkpt>
      <trkpt lat="44.11972" lon="2.27702">
        <ele>343.2</ele>
        <time>2016-05-04T13:14:44Z</time>
      </trkpt>
      <trkpt lat="44.11971" lon="2.27702">
        <ele>343.3</ele>
        <time>2016-05-04T13:14:45Z</time>
      </trkpt>
      <trkpt lat="44.11971" lon="2.27702">
        <ele>343.4</ele>
        <time>2016-05-04T13:14:46Z</time>
      </trkpt>
      <trkpt lat="44.1197" lon="2.27702">
        <ele>343.4</ele>
        <time>2016-05-04T13:14:47Z</time>
      </trkpt>
      <trkpt lat="44.11969" lon="2.27702">
        <ele>343.2</ele>
        <time>2016-05-04T13:14:48Z</time>
      </trkpt>
      <trkpt lat="44.11968" lon="2.27702">
        <ele>343.1</ele>
        <time>2016-05-04T13:14:49Z</time>
      </trkpt>
      <trkpt lat="44.11968" lon="2.27702">
        <ele>343</ele>
        <time>2016-05-04T13:14:50Z</time>
      </trkpt>
      <trkpt lat="44.11966" lon="2.27699">
        <ele>344.3</ele>
        <time>2016-05-04T13:14:53Z</time>
      </trkpt>
      <trkpt lat="44.11966" lon="2.27698">
        <ele>344.3</ele>
        <time>2016-05-04T13:14:54Z</time>
      </trkpt>
      <trkpt lat="44.11966" lon="2.27698">
        <ele>344.3</ele>
        <time>2016-05-04T13:14:55Z</time>
      </trkpt>
      <trkpt lat="44.11966" lon="2.27696">
        <ele>344.3</ele>
        <time>2016-05-04T13:14:56Z</time>
      </trkpt>
      <trkpt lat="44.11966" lon="2.27695">
        <ele>344.8</ele>
        <time>2016-05-04T13:14:57Z</time>
      </trkpt>
      <trkpt lat="44.11966" lon="2.27694">
        <ele>345.1</ele>
        <time>2016-05-04T13:14:58Z</time>
      </trkpt>
      <trkpt lat="44.11966" lon="2.27693">
        <ele>345.3</ele>
        <time>2016-05-04T13:14:59Z</time>
      </trkpt>
      <trkpt lat="44.11966" lon="2.27692">
        <ele>345.3</ele>
        <time>2016-05-04T13:15:00Z</time>
      </trkpt>
      <trkpt lat="44.11966" lon="2.27691">
        <ele>345.3</ele>
        <time>2016-05-04T13:15:01Z</time>
      </trkpt>
      <trkpt lat="44.11966" lon="2.2769">
        <ele>345.3</ele>
        <time>2016-05-04T13:15:02Z</time>
      </trkpt>
      <trkpt lat="44.11966" lon="2.27689">
        <ele>345.7</ele>
        <time>2016-05-04T13:15:03Z</time>
      </trkpt>
      <trkpt lat="44.11965" lon="2.27677">
        <ele>347.5</ele>
        <time>2016-05-04T13:15:14Z</time>
      </trkpt>
      <trkpt lat="44.11965" lon="2.27676">
        <ele>347.6</ele>
        <time>2016-05-04T13:15:15Z</time>
      </trkpt>
      <trkpt lat="44.11959" lon="2.27649">
        <ele>350</ele>
        <time>2016-05-04T13:15:41Z</time>
      </trkpt>
      <trkpt lat="44.11958" lon="2.27618">
        <ele>353.6</ele>
        <time>2016-05-04T13:16:08Z</time>
      </trkpt>
      <trkpt lat="44.11958" lon="2.27616">
        <ele>353.7</ele>
        <time>2016-05-04T13:16:09Z</time>
      </trkpt>
      <trkpt lat="44.11957" lon="2.27613">
        <ele>353.7</ele>
        <time>2016-05-04T13:16:11Z</time>
      </trkpt>
      <trkpt lat="44.11956" lon="2.2761">
        <ele>354.1</ele>
        <time>2016-05-04T13:16:13Z</time>
      </trkpt>
      <trkpt lat="44.11955" lon="2.27608">
        <ele>354.6</ele>
        <time>2016-05-04T13:16:15Z</time>
      </trkpt>
      <trkpt lat="44.11948" lon="2.27595">
        <ele>357.2</ele>
        <time>2016-05-04T13:16:27Z</time>
      </trkpt>
      <trkpt lat="44.11948" lon="2.27595">
        <ele>357.4</ele>
        <time>2016-05-04T13:16:28Z</time>
      </trkpt>
      <trkpt lat="44.11947" lon="2.27595">
        <ele>357.6</ele>
        <time>2016-05-04T13:16:29Z</time>
      </trkpt>
      <trkpt lat="44.11946" lon="2.27594">
        <ele>357.7</ele>
        <time>2016-05-04T13:16:30Z</time>
      </trkpt>
      <trkpt lat="44.11946" lon="2.27594">
        <ele>357.8</ele>
        <time>2016-05-04T13:16:31Z</time>
      </trkpt>
      <trkpt lat="44.11945" lon="2.27594">
        <ele>357.9</ele>
        <time>2016-05-04T13:16:32Z</time>
      </trkpt>
      <trkpt lat="44.11945" lon="2.27595">
        <ele>358.1</ele>
        <time>2016-05-04T13:16:33Z</time>
      </trkpt>
      <trkpt lat="44.11944" lon="2.27595">
        <ele>358.3</ele>
        <time>2016-05-04T13:16:34Z</time>
      </trkpt>
      <trkpt lat="44.11944" lon="2.27596">
        <ele>358.5</ele>
        <time>2016-05-04T13:16:35Z</time>
      </trkpt>
      <trkpt lat="44.11944" lon="2.27597">
        <ele>358.7</ele>
        <time>2016-05-04T13:16:37Z</time>
      </trkpt>
      <trkpt lat="44.11943" lon="2.27629">
        <ele>363</ele>
        <time>2016-05-04T13:17:10Z</time>
      </trkpt>
      <trkpt lat="44.11943" lon="2.27629">
        <ele>363.3</ele>
        <time>2016-05-04T13:17:11Z</time>
      </trkpt>
      <trkpt lat="44.11944" lon="2.27638">
        <ele>364.2</ele>
        <time>2016-05-04T13:17:21Z</time>
      </trkpt>
      <trkpt lat="44.11945" lon="2.27644">
        <ele>366</ele>
        <time>2016-05-04T13:17:29Z</time>
      </trkpt>
      <trkpt lat="44.11945" lon="2.27645">
        <ele>366</ele>
        <time>2016-05-04T13:17:30Z</time>
      </trkpt>
      <trkpt lat="44.11945" lon="2.27646">
        <ele>365.9</ele>
        <time>2016-05-04T13:17:31Z</time>
      </trkpt>
      <trkpt lat="44.11945" lon="2.27654">
        <ele>366.6</ele>
        <time>2016-05-04T13:17:39Z</time>
      </trkpt>
      <trkpt lat="44.11945" lon="2.27665">
        <ele>367.4</ele>
        <time>2016-05-04T13:17:48Z</time>
      </trkpt>
      <trkpt lat="44.11945" lon="2.27666">
        <ele>367.4</ele>
        <time>2016-05-04T13:17:49Z</time>
      </trkpt>
      <trkpt lat="44.11945" lon="2.27667">
        <ele>367.4</ele>
        <time>2016-05-04T13:17:50Z</time>
      </trkpt>
      <trkpt lat="44.11945" lon="2.27669">
        <ele>367.7</ele>
        <time>2016-05-04T13:17:51Z</time>
      </trkpt>
      <trkpt lat="44.11945" lon="2.2767">
        <ele>367.8</ele>
        <time>2016-05-04T13:17:52Z</time>
      </trkpt>
      <trkpt lat="44.11945" lon="2.27671">
        <ele>368</ele>
        <time>2016-05-04T13:17:53Z</time>
      </trkpt>
      <trkpt lat="44.11945" lon="2.27673">
        <ele>368.3</ele>
        <time>2016-05-04T13:17:54Z</time>
      </trkpt>
      <trkpt lat="44.11945" lon="2.27674">
        <ele>368.5</ele>
        <time>2016-05-04T13:17:55Z</time>
      </trkpt>
      <trkpt lat="44.11945" lon="2.27677">
        <ele>368.5</ele>
        <time>2016-05-04T13:17:58Z</time>
      </trkpt>
      <trkpt lat="44.11945" lon="2.2768">
        <ele>369.2</ele>
        <time>2016-05-04T13:18:01Z</time>
      </trkpt>
      <trkpt lat="44.11941" lon="2.2769">
        <ele>370.4</ele>
        <time>2016-05-04T13:18:12Z</time>
      </trkpt>
      <trkpt lat="44.11941" lon="2.2769">
        <ele>370.3</ele>
        <time>2016-05-04T13:18:13Z</time>
      </trkpt>
      <trkpt lat="44.1194" lon="2.27691">
        <ele>370.3</ele>
        <time>2016-05-04T13:18:14Z</time>
      </trkpt>
      <trkpt lat="44.1194" lon="2.27691">
        <ele>370.4</ele>
        <time>2016-05-04T13:18:15Z</time>
      </trkpt>
      <trkpt lat="44.1194" lon="2.27692">
        <ele>370.5</ele>
        <time>2016-05-04T13:18:16Z</time>
      </trkpt>
      <trkpt lat="44.11939" lon="2.27693">
        <ele>370.6</ele>
        <time>2016-05-04T13:18:17Z</time>
      </trkpt>
      <trkpt lat="44.11939" lon="2.27694">
        <ele>370.9</ele>
        <time>2016-05-04T13:18:18Z</time>
      </trkpt>
      <trkpt lat="44.11938" lon="2.27695">
        <ele>371.1</ele>
        <time>2016-05-04T13:18:19Z</time>
      </trkpt>
      <trkpt lat="44.11938" lon="2.27695">
        <ele>371.3</ele>
        <time>2016-05-04T13:18:20Z</time>
      </trkpt>
      <trkpt lat="44.11937" lon="2.27696">
        <ele>371.4</ele>
        <time>2016-05-04T13:18:21Z</time>
      </trkpt>
      <trkpt lat="44.11937" lon="2.27697">
        <ele>371.6</ele>
        <time>2016-05-04T13:18:23Z</time>
      </trkpt>
      <trkpt lat="44.11938" lon="2.27697">
        <ele>371.4</ele>
        <time>2016-05-04T13:18:24Z</time>
      </trkpt>
      <trkpt lat="44.11938" lon="2.27697">
        <ele>371.3</ele>
        <time>2016-05-04T13:18:25Z</time>
      </trkpt>
      <trkpt lat="44.11938" lon="2.27697">
        <ele>371.2</ele>
        <time>2016-05-04T13:18:26Z</time>
      </trkpt>
      <trkpt lat="44.11937" lon="2.27697">
        <ele>371.3</ele>
        <time>2016-05-04T13:18:27Z</time>
      </trkpt>
      <trkpt lat="44.11937" lon="2.27697">
        <ele>371.4</ele>
        <time>2016-05-04T13:18:28Z</time>
      </trkpt>
      <trkpt lat="44.11937" lon="2.27697">
        <ele>371.5</ele>
        <time>2016-05-04T13:18:29Z</time>
      </trkpt>
      <trkpt lat="44.11937" lon="2.27697">
        <ele>371.4</ele>
        <time>2016-05-04T13:18:30Z</time>
      </trkpt>
      <trkpt lat="44.11937" lon="2.27697">
        <ele>371.2</ele>
        <time>2016-05-04T13:18:31Z</time>
      </trkpt>
      <trkpt lat="44.11936" lon="2.27698">
        <ele>371.2</ele>
        <time>2016-05-04T13:18:32Z</time>
      </trkpt>
      <trkpt lat="44.11936" lon="2.27698">
        <ele>371.1</ele>
        <time>2016-05-04T13:18:33Z</time>
      </trkpt>
      <trkpt lat="44.11936" lon="2.27698">
        <ele>371</ele>
        <time>2016-05-04T13:18:34Z</time>
      </trkpt>
      <trkpt lat="44.11934" lon="2.27699">
        <ele>371</ele>
        <time>2016-05-04T13:18:37Z</time>
      </trkpt>
      <trkpt lat="44.11933" lon="2.27699">
        <ele>370.9</ele>
        <time>2016-05-04T13:18:38Z</time>
      </trkpt>
      <trkpt lat="44.11933" lon="2.27698">
        <ele>371.4</ele>
        <time>2016-05-04T13:18:39Z</time>
      </trkpt>
      <trkpt lat="44.11933" lon="2.27698">
        <ele>371.7</ele>
        <time>2016-05-04T13:18:40Z</time>
      </trkpt>
      <trkpt lat="44.11933" lon="2.27698">
        <ele>371.9</ele>
        <time>2016-05-04T13:18:41Z</time>
      </trkpt>
      <trkpt lat="44.11933" lon="2.27698">
        <ele>372.1</ele>
        <time>2016-05-04T13:18:42Z</time>
      </trkpt>
      <trkpt lat="44.11932" lon="2.27698">
        <ele>372.2</ele>
        <time>2016-05-04T13:18:43Z</time>
      </trkpt>
      <trkpt lat="44.11932" lon="2.27697">
        <ele>372.3</ele>
        <time>2016-05-04T13:18:44Z</time>
      </trkpt>
      <trkpt lat="44.11931" lon="2.27697">
        <ele>372.6</ele>
        <time>2016-05-04T13:18:45Z</time>
      </trkpt>
      <trkpt lat="44.11931" lon="2.27697">
        <ele>372.8</ele>
        <time>2016-05-04T13:18:46Z</time>
      </trkpt>
      <trkpt lat="44.11931" lon="2.27697">
        <ele>373</ele>
        <time>2016-05-04T13:18:47Z</time>
      </trkpt>
      <trkpt lat="44.11931" lon="2.27698">
        <ele>373.1</ele>
        <time>2016-05-04T13:18:48Z</time>
      </trkpt>
      <trkpt lat="44.11931" lon="2.27698">
        <ele>373.2</ele>
        <time>2016-05-04T13:18:49Z</time>
      </trkpt>
      <trkpt lat="44.11931" lon="2.27698">
        <ele>373.3</ele>
        <time>2016-05-04T13:18:50Z</time>
      </trkpt>
      <trkpt lat="44.11931" lon="2.27698">
        <ele>373.3</ele>
        <time>2016-05-04T13:18:51Z</time>
      </trkpt>
      <trkpt lat="44.11931" lon="2.27698">
        <ele>373.4</ele>
        <time>2016-05-04T13:18:52Z</time>
      </trkpt>
      <trkpt lat="44.11931" lon="2.27697">
        <ele>373.4</ele>
        <time>2016-05-04T13:18:53Z</time>
      </trkpt>
      <trkpt lat="44.11931" lon="2.27697">
        <ele>373.6</ele>
        <time>2016-05-04T13:18:54Z</time>
      </trkpt>
      <trkpt lat="44.11932" lon="2.27697">
        <ele>373.8</ele>
        <time>2016-05-04T13:18:55Z</time>
      </trkpt>
      <trkpt lat="44.11932" lon="2.27697">
        <ele>373.9</ele>
        <time>2016-05-04T13:18:56Z</time>
      </trkpt>
      <trkpt lat="44.11932" lon="2.27697">
        <ele>373.8</ele>
        <time>2016-05-04T13:18:57Z</time>
      </trkpt>
      <trkpt lat="44.11932" lon="2.27697">
        <ele>373.7</ele>
        <time>2016-05-04T13:18:58Z</time>
      </trkpt>
      <trkpt lat="44.11932" lon="2.27697">
        <ele>373.7</ele>
        <time>2016-05-04T13:18:59Z</time>
      </trkpt>
      <trkpt lat="44.11932" lon="2.27697">
        <ele>373.8</ele>
        <time>2016-05-04T13:19:00Z</time>
      </trkpt>
      <trkpt lat="44.11932" lon="2.27697">
        <ele>374</ele>
        <time>2016-05-04T13:19:01Z</time>
      </trkpt>
      <trkpt lat="44.11932" lon="2.27697">
        <ele>374.1</ele>
        <time>2016-05-04T13:19:02Z</time>
      </trkpt>
      <trkpt lat="44.11932" lon="2.27696">
        <ele>373.9</ele>
        <time>2016-05-04T13:19:03Z</time>
      </trkpt>
      <trkpt lat="44.11932" lon="2.27696">
        <ele>373.8</ele>
        <time>2016-05-04T13:19:04Z</time>
      </trkpt>
      <trkpt lat="44.11932" lon="2.27696">
        <ele>373.7</ele>
        <time>2016-05-04T13:19:05Z</time>
      </trkpt>
      <trkpt lat="44.11932" lon="2.27696">
        <ele>373.9</ele>
        <time>2016-05-04T13:19:06Z</time>
      </trkpt>
      <trkpt lat="44.11932" lon="2.27696">
        <ele>374</ele>
        <time>2016-05-04T13:19:07Z</time>
      </trkpt>
      <trkpt lat="44.11932" lon="2.27696">
        <ele>374.1</ele>
        <time>2016-05-04T13:19:08Z</time>
      </trkpt>
      <trkpt lat="44.11932" lon="2.27696">
        <ele>374.1</ele>
        <time>2016-05-04T13:19:09Z</time>
      </trkpt>
      <trkpt lat="44.11932" lon="2.27696">
        <ele>374.2</ele>
        <time>2016-05-04T13:19:10Z</time>
      </trkpt>
      <trkpt lat="44.11931" lon="2.27696">
        <ele>374.2</ele>
        <time>2016-05-04T13:19:11Z</time>
      </trkpt>
      <trkpt lat="44.11931" lon="2.27696">
        <ele>374.3</ele>
        <time>2016-05-04T13:19:13Z</time>
      </trkpt>
      <trkpt lat="44.11931" lon="2.27696">
        <ele>374.3</ele>
        <time>2016-05-04T13:19:14Z</time>
      </trkpt>
      <trkpt lat="44.11931" lon="2.27696">
        <ele>374.3</ele>
        <time>2016-05-04T13:19:15Z</time>
      </trkpt>
      <trkpt lat="44.11931" lon="2.27696">
        <ele>374.3</ele>
        <time>2016-05-04T13:19:16Z</time>
      </trkpt>
      <trkpt lat="44.11931" lon="2.27696">
        <ele>374.3</ele>
        <time>2016-05-04T13:19:17Z</time>
      </trkpt>
      <trkpt lat="44.11931" lon="2.27695">
        <ele>374.3</ele>
        <time>2016-05-04T13:19:18Z</time>
      </trkpt>
      <trkpt lat="44.11931" lon="2.27696">
        <ele>374.3</ele>
        <time>2016-05-04T13:19:20Z</time>
      </trkpt>
      <trkpt lat="44.11931" lon="2.27696">
        <ele>373.9</ele>
        <time>2016-05-04T13:19:21Z</time>
      </trkpt>
      <trkpt lat="44.11931" lon="2.27696">
        <ele>373.6</ele>
        <time>2016-05-04T13:19:22Z</time>
      </trkpt>
      <trkpt lat="44.11931" lon="2.27696">
        <ele>373.3</ele>
        <time>2016-05-04T13:19:23Z</time>
      </trkpt>
      <trkpt lat="44.1193" lon="2.27696">
        <ele>373.2</ele>
        <time>2016-05-04T13:19:24Z</time>
      </trkpt>
      <trkpt lat="44.1193" lon="2.27696">
        <ele>373</ele>
        <time>2016-05-04T13:19:25Z</time>
      </trkpt>
      <trkpt lat="44.1193" lon="2.27696">
        <ele>372.9</ele>
        <time>2016-05-04T13:19:26Z</time>
      </trkpt>
      <trkpt lat="44.11931" lon="2.27696">
        <ele>372.8</ele>
        <time>2016-05-04T13:19:27Z</time>
      </trkpt>
      <trkpt lat="44.11931" lon="2.27697">
        <ele>372.8</ele>
        <time>2016-05-04T13:19:28Z</time>
      </trkpt>
      <trkpt lat="44.11931" lon="2.27697">
        <ele>372.7</ele>
        <time>2016-05-04T13:19:29Z</time>
      </trkpt>
      <trkpt lat="44.11931" lon="2.27697">
        <ele>372.3</ele>
        <time>2016-05-04T13:19:30Z</time>
      </trkpt>
      <trkpt lat="44.11931" lon="2.27697">
        <ele>371.9</ele>
        <time>2016-05-04T13:19:31Z</time>
      </trkpt>
      <trkpt lat="44.11932" lon="2.27697">
        <ele>371.7</ele>
        <time>2016-05-04T13:19:32Z</time>
      </trkpt>
      <trkpt lat="44.11932" lon="2.27697">
        <ele>371.7</ele>
        <time>2016-05-04T13:19:33Z</time>
      </trkpt>
      <trkpt lat="44.11932" lon="2.27698">
        <ele>371.7</ele>
        <time>2016-05-04T13:19:34Z</time>
      </trkpt>
      <trkpt lat="44.11932" lon="2.27697">
        <ele>371.7</ele>
        <time>2016-05-04T13:19:35Z</time>
      </trkpt>
      <trkpt lat="44.11932" lon="2.27697">
        <ele>371.7</ele>
        <time>2016-05-04T13:19:36Z</time>
      </trkpt>
      <trkpt lat="44.11933" lon="2.27697">
        <ele>371.7</ele>
        <time>2016-05-04T13:19:37Z</time>
      </trkpt>
      <trkpt lat="44.11933" lon="2.27696">
        <ele>371.7</ele>
        <time>2016-05-04T13:19:38Z</time>
      </trkpt>
      <trkpt lat="44.11933" lon="2.27696">
        <ele>371.7</ele>
        <time>2016-05-04T13:19:39Z</time>
      </trkpt>
      <trkpt lat="44.11933" lon="2.27695">
        <ele>371.8</ele>
        <time>2016-05-04T13:19:40Z</time>
      </trkpt>
      <trkpt lat="44.11933" lon="2.27695">
        <ele>371.8</ele>
        <time>2016-05-04T13:19:41Z</time>
      </trkpt>
      <trkpt lat="44.11933" lon="2.27695">
        <ele>371.5</ele>
        <time>2016-05-04T13:19:42Z</time>
      </trkpt>
      <trkpt lat="44.11933" lon="2.27696">
        <ele>371.4</ele>
        <time>2016-05-04T13:19:43Z</time>
      </trkpt>
      <trkpt lat="44.11933" lon="2.27696">
        <ele>371.3</ele>
        <time>2016-05-04T13:19:44Z</time>
      </trkpt>
      <trkpt lat="44.11933" lon="2.27697">
        <ele>371.2</ele>
        <time>2016-05-04T13:19:45Z</time>
      </trkpt>
      <trkpt lat="44.11932" lon="2.27699">
        <ele>371.1</ele>
        <time>2016-05-04T13:19:47Z</time>
      </trkpt>
      <trkpt lat="44.11932" lon="2.27702">
        <ele>372</ele>
        <time>2016-05-04T13:19:52Z</time>
      </trkpt>
      <trkpt lat="44.11932" lon="2.27703">
        <ele>372.1</ele>
        <time>2016-05-04T13:19:53Z</time>
      </trkpt>
      <trkpt lat="44.11932" lon="2.27703">
        <ele>372.3</ele>
        <time>2016-05-04T13:19:54Z</time>
      </trkpt>
      <trkpt lat="44.11932" lon="2.27703">
        <ele>372.3</ele>
        <time>2016-05-04T13:19:55Z</time>
      </trkpt>
      <trkpt lat="44.11932" lon="2.27703">
        <ele>372.4</ele>
        <time>2016-05-04T13:19:56Z</time>
      </trkpt>
      <trkpt lat="44.11932" lon="2.27703">
        <ele>372.5</ele>
        <time>2016-05-04T13:19:57Z</time>
      </trkpt>
      <trkpt lat="44.11932" lon="2.27704">
        <ele>372.5</ele>
        <time>2016-05-04T13:19:58Z</time>
      </trkpt>
      <trkpt lat="44.11932" lon="2.27704">
        <ele>372.5</ele>
        <time>2016-05-04T13:19:59Z</time>
      </trkpt>
      <trkpt lat="44.11932" lon="2.27704">
        <ele>372.6</ele>
        <time>2016-05-04T13:20:00Z</time>
      </trkpt>
      <trkpt lat="44.11933" lon="2.27704">
        <ele>372.6</ele>
        <time>2016-05-04T13:20:01Z</time>
      </trkpt>
      <trkpt lat="44.11933" lon="2.27704">
        <ele>372.6</ele>
        <time>2016-05-04T13:20:02Z</time>
      </trkpt>
      <trkpt lat="44.11933" lon="2.27705">
        <ele>372.8</ele>
        <time>2016-05-04T13:20:03Z</time>
      </trkpt>
      <trkpt lat="44.11933" lon="2.27705">
        <ele>373</ele>
        <time>2016-05-04T13:20:04Z</time>
      </trkpt>
      <trkpt lat="44.11933" lon="2.27705">
        <ele>373.1</ele>
        <time>2016-05-04T13:20:05Z</time>
      </trkpt>
      <trkpt lat="44.11934" lon="2.27705">
        <ele>372.8</ele>
        <time>2016-05-04T13:20:06Z</time>
      </trkpt>
      <trkpt lat="44.11934" lon="2.27705">
        <ele>372.5</ele>
        <time>2016-05-04T13:20:07Z</time>
      </trkpt>
      <trkpt lat="44.11934" lon="2.27705">
        <ele>372.3</ele>
        <time>2016-05-04T13:20:08Z</time>
      </trkpt>
      <trkpt lat="44.11934" lon="2.27705">
        <ele>372.2</ele>
        <time>2016-05-04T13:20:09Z</time>
      </trkpt>
      <trkpt lat="44.11934" lon="2.27705">
        <ele>372.1</ele>
        <time>2016-05-04T13:20:10Z</time>
      </trkpt>
      <trkpt lat="44.11933" lon="2.27706">
        <ele>372</ele>
        <time>2016-05-04T13:20:11Z</time>
      </trkpt>
      <trkpt lat="44.11933" lon="2.27706">
        <ele>371.1</ele>
        <time>2016-05-04T13:20:12Z</time>
      </trkpt>
      <trkpt lat="44.11933" lon="2.27706">
        <ele>370.4</ele>
        <time>2016-05-04T13:20:13Z</time>
      </trkpt>
      <trkpt lat="44.11933" lon="2.27706">
        <ele>369.9</ele>
        <time>2016-05-04T13:20:14Z</time>
      </trkpt>
      <trkpt lat="44.11932" lon="2.27707">
        <ele>371</ele>
        <time>2016-05-04T13:20:15Z</time>
      </trkpt>
      <trkpt lat="44.11929" lon="2.27711">
        <ele>373</ele>
        <time>2016-05-04T13:20:22Z</time>
      </trkpt>
      <trkpt lat="44.11929" lon="2.27712">
        <ele>373.1</ele>
        <time>2016-05-04T13:20:23Z</time>
      </trkpt>
      <trkpt lat="44.11928" lon="2.27712">
        <ele>373.4</ele>
        <time>2016-05-04T13:20:24Z</time>
      </trkpt>
      <trkpt lat="44.11928" lon="2.27712">
        <ele>373.6</ele>
        <time>2016-05-04T13:20:25Z</time>
      </trkpt>
      <trkpt lat="44.11928" lon="2.27713">
        <ele>373.8</ele>
        <time>2016-05-04T13:20:26Z</time>
      </trkpt>
      <trkpt lat="44.11927" lon="2.27713">
        <ele>373.9</ele>
        <time>2016-05-04T13:20:27Z</time>
      </trkpt>
      <trkpt lat="44.11925" lon="2.27716">
        <ele>374.7</ele>
        <time>2016-05-04T13:20:34Z</time>
      </trkpt>
      <trkpt lat="44.11925" lon="2.27717">
        <ele>374.8</ele>
        <time>2016-05-04T13:20:35Z</time>
      </trkpt>
      <trkpt lat="44.11925" lon="2.27717">
        <ele>374.9</ele>
        <time>2016-05-04T13:20:36Z</time>
      </trkpt>
      <trkpt lat="44.11925" lon="2.27718">
        <ele>375</ele>
        <time>2016-05-04T13:20:37Z</time>
      </trkpt>
      <trkpt lat="44.11925" lon="2.27718">
        <ele>375</ele>
        <time>2016-05-04T13:20:38Z</time>
      </trkpt>
      <trkpt lat="44.11925" lon="2.27719">
        <ele>375.3</ele>
        <time>2016-05-04T13:20:39Z</time>
      </trkpt>
      <trkpt lat="44.11925" lon="2.27719">
        <ele>375.5</ele>
        <time>2016-05-04T13:20:40Z</time>
      </trkpt>
      <trkpt lat="44.11925" lon="2.2772">
        <ele>375.6</ele>
        <time>2016-05-04T13:20:41Z</time>
      </trkpt>
      <trkpt lat="44.11924" lon="2.2772">
        <ele>375.9</ele>
        <time>2016-05-04T13:20:42Z</time>
      </trkpt>
      <trkpt lat="44.11924" lon="2.27721">
        <ele>376.2</ele>
        <time>2016-05-04T13:20:43Z</time>
      </trkpt>
      <trkpt lat="44.11924" lon="2.27722">
        <ele>376.4</ele>
        <time>2016-05-04T13:20:44Z</time>
      </trkpt>
      <trkpt lat="44.11924" lon="2.27722">
        <ele>376.5</ele>
        <time>2016-05-04T13:20:45Z</time>
      </trkpt>
      <trkpt lat="44.11924" lon="2.27723">
        <ele>376.6</ele>
        <time>2016-05-04T13:20:46Z</time>
      </trkpt>
      <trkpt lat="44.11925" lon="2.27724">
        <ele>376.7</ele>
        <time>2016-05-04T13:20:47Z</time>
      </trkpt>
      <trkpt lat="44.11925" lon="2.27725">
        <ele>376.5</ele>
        <time>2016-05-04T13:20:48Z</time>
      </trkpt>
      <trkpt lat="44.11925" lon="2.27726">
        <ele>376.4</ele>
        <time>2016-05-04T13:20:49Z</time>
      </trkpt>
      <trkpt lat="44.11926" lon="2.27727">
        <ele>376.3</ele>
        <time>2016-05-04T13:20:50Z</time>
      </trkpt>
      <trkpt lat="44.11926" lon="2.27729">
        <ele>376.5</ele>
        <time>2016-05-04T13:20:51Z</time>
      </trkpt>
      <trkpt lat="44.11927" lon="2.2773">
        <ele>376.6</ele>
        <time>2016-05-04T13:20:52Z</time>
      </trkpt>
      <trkpt lat="44.11927" lon="2.27731">
        <ele>376.7</ele>
        <time>2016-05-04T13:20:53Z</time>
      </trkpt>
      <trkpt lat="44.11927" lon="2.27732">
        <ele>376.7</ele>
        <time>2016-05-04T13:20:54Z</time>
      </trkpt>
      <trkpt lat="44.11927" lon="2.27733">
        <ele>376.8</ele>
        <time>2016-05-04T13:20:55Z</time>
      </trkpt>
      <trkpt lat="44.11928" lon="2.27734">
        <ele>376.8</ele>
        <time>2016-05-04T13:20:56Z</time>
      </trkpt>
      <trkpt lat="44.11928" lon="2.27735">
        <ele>377</ele>
        <time>2016-05-04T13:20:57Z</time>
      </trkpt>
      <trkpt lat="44.11928" lon="2.27736">
        <ele>377.2</ele>
        <time>2016-05-04T13:20:58Z</time>
      </trkpt>
      <trkpt lat="44.11929" lon="2.27736">
        <ele>377.4</ele>
        <time>2016-05-04T13:20:59Z</time>
      </trkpt>
      <trkpt lat="44.11929" lon="2.27737">
        <ele>377.5</ele>
        <time>2016-05-04T13:21:00Z</time>
      </trkpt>
      <trkpt lat="44.11929" lon="2.27737">
        <ele>377.5</ele>
        <time>2016-05-04T13:21:01Z</time>
      </trkpt>
      <trkpt lat="44.11929" lon="2.27737">
        <ele>377.6</ele>
        <time>2016-05-04T13:21:02Z</time>
      </trkpt>
      <trkpt lat="44.11929" lon="2.27737">
        <ele>377.6</ele>
        <time>2016-05-04T13:21:03Z</time>
      </trkpt>
      <trkpt lat="44.11929" lon="2.27737">
        <ele>377.7</ele>
        <time>2016-05-04T13:21:04Z</time>
      </trkpt>
      <trkpt lat="44.1193" lon="2.27738">
        <ele>377.7</ele>
        <time>2016-05-04T13:21:05Z</time>
      </trkpt>
      <trkpt lat="44.1193" lon="2.27738">
        <ele>377.9</ele>
        <time>2016-05-04T13:21:06Z</time>
      </trkpt>
      <trkpt lat="44.1193" lon="2.27738">
        <ele>378.1</ele>
        <time>2016-05-04T13:21:07Z</time>
      </trkpt>
      <trkpt lat="44.11931" lon="2.27739">
        <ele>378.2</ele>
        <time>2016-05-04T13:21:08Z</time>
      </trkpt>
      <trkpt lat="44.11931" lon="2.27739">
        <ele>378.1</ele>
        <time>2016-05-04T13:21:09Z</time>
      </trkpt>
      <trkpt lat="44.11931" lon="2.2774">
        <ele>378</ele>
        <time>2016-05-04T13:21:10Z</time>
      </trkpt>
      <trkpt lat="44.11932" lon="2.2774">
        <ele>378</ele>
        <time>2016-05-04T13:21:11Z</time>
      </trkpt>
      <trkpt lat="44.11932" lon="2.27741">
        <ele>377.9</ele>
        <time>2016-05-04T13:21:12Z</time>
      </trkpt>
      <trkpt lat="44.11933" lon="2.27742">
        <ele>377.9</ele>
        <time>2016-05-04T13:21:13Z</time>
      </trkpt>
      <trkpt lat="44.11933" lon="2.27743">
        <ele>377.8</ele>
        <time>2016-05-04T13:21:14Z</time>
      </trkpt>
      <trkpt lat="44.11933" lon="2.27744">
        <ele>378.3</ele>
        <time>2016-05-04T13:21:15Z</time>
      </trkpt>
      <trkpt lat="44.11933" lon="2.27745">
        <ele>378.6</ele>
        <time>2016-05-04T13:21:16Z</time>
      </trkpt>
      <trkpt lat="44.11933" lon="2.27747">
        <ele>378.8</ele>
        <time>2016-05-04T13:21:17Z</time>
      </trkpt>
      <trkpt lat="44.11934" lon="2.27748">
        <ele>379</ele>
        <time>2016-05-04T13:21:18Z</time>
      </trkpt>
      <trkpt lat="44.11934" lon="2.27749">
        <ele>379.1</ele>
        <time>2016-05-04T13:21:19Z</time>
      </trkpt>
      <trkpt lat="44.11935" lon="2.2775">
        <ele>379.2</ele>
        <time>2016-05-04T13:21:20Z</time>
      </trkpt>
      <trkpt lat="44.11935" lon="2.27751">
        <ele>379</ele>
        <time>2016-05-04T13:21:21Z</time>
      </trkpt>
      <trkpt lat="44.11935" lon="2.27752">
        <ele>378.9</ele>
        <time>2016-05-04T13:21:22Z</time>
      </trkpt>
      <trkpt lat="44.11936" lon="2.27753">
        <ele>378.9</ele>
        <time>2016-05-04T13:21:23Z</time>
      </trkpt>
      <trkpt lat="44.11936" lon="2.27754">
        <ele>379</ele>
        <time>2016-05-04T13:21:24Z</time>
      </trkpt>
      <trkpt lat="44.11937" lon="2.27755">
        <ele>379.1</ele>
        <time>2016-05-04T13:21:25Z</time>
      </trkpt>
      <trkpt lat="44.11937" lon="2.27756">
        <ele>379.2</ele>
        <time>2016-05-04T13:21:26Z</time>
      </trkpt>
      <trkpt lat="44.11937" lon="2.27756">
        <ele>379.5</ele>
        <time>2016-05-04T13:21:27Z</time>
      </trkpt>
      <trkpt lat="44.11938" lon="2.27757">
        <ele>379.7</ele>
        <time>2016-05-04T13:21:28Z</time>
      </trkpt>
      <trkpt lat="44.11938" lon="2.27758">
        <ele>379.9</ele>
        <time>2016-05-04T13:21:29Z</time>
      </trkpt>
      <trkpt lat="44.11938" lon="2.27761">
        <ele>380</ele>
        <time>2016-05-04T13:21:30Z</time>
      </trkpt>
      <trkpt lat="44.11939" lon="2.27763">
        <ele>380.1</ele>
        <time>2016-05-04T13:21:31Z</time>
      </trkpt>
      <trkpt lat="44.1194" lon="2.27766">
        <ele>380.1</ele>
        <time>2016-05-04T13:21:32Z</time>
      </trkpt>
      <trkpt lat="44.11941" lon="2.27769">
        <ele>380.2</ele>
        <time>2016-05-04T13:21:33Z</time>
      </trkpt>
      <trkpt lat="44.11941" lon="2.27771">
        <ele>380.2</ele>
        <time>2016-05-04T13:21:34Z</time>
      </trkpt>
      <trkpt lat="44.11942" lon="2.27773">
        <ele>380.3</ele>
        <time>2016-05-04T13:21:35Z</time>
      </trkpt>
      <trkpt lat="44.11943" lon="2.27774">
        <ele>380.5</ele>
        <time>2016-05-04T13:21:36Z</time>
      </trkpt>
      <trkpt lat="44.11944" lon="2.27775">
        <ele>380.7</ele>
        <time>2016-05-04T13:21:37Z</time>
      </trkpt>
      <trkpt lat="44.11944" lon="2.27777">
        <ele>380.8</ele>
        <time>2016-05-04T13:21:38Z</time>
      </trkpt>
      <trkpt lat="44.11946" lon="2.27778">
        <ele>380.9</ele>
        <time>2016-05-04T13:21:39Z</time>
      </trkpt>
      <trkpt lat="44.11947" lon="2.2778">
        <ele>381</ele>
        <time>2016-05-04T13:21:40Z</time>
      </trkpt>
      <trkpt lat="44.11952" lon="2.27788">
        <ele>381.7</ele>
        <time>2016-05-04T13:21:45Z</time>
      </trkpt>
      <trkpt lat="44.11953" lon="2.27789">
        <ele>381.8</ele>
        <time>2016-05-04T13:21:46Z</time>
      </trkpt>
      <trkpt lat="44.11953" lon="2.2779">
        <ele>381.9</ele>
        <time>2016-05-04T13:21:47Z</time>
      </trkpt>
      <trkpt lat="44.11954" lon="2.27792">
        <ele>381.9</ele>
        <time>2016-05-04T13:21:48Z</time>
      </trkpt>
      <trkpt lat="44.11954" lon="2.27793">
        <ele>381.9</ele>
        <time>2016-05-04T13:21:49Z</time>
      </trkpt>
      <trkpt lat="44.11955" lon="2.27794">
        <ele>382</ele>
        <time>2016-05-04T13:21:50Z</time>
      </trkpt>
      <trkpt lat="44.11955" lon="2.27796">
        <ele>382.2</ele>
        <time>2016-05-04T13:21:51Z</time>
      </trkpt>
      <trkpt lat="44.11955" lon="2.27797">
        <ele>382.4</ele>
        <time>2016-05-04T13:21:52Z</time>
      </trkpt>
      <trkpt lat="44.11955" lon="2.27798">
        <ele>382.5</ele>
        <time>2016-05-04T13:21:53Z</time>
      </trkpt>
      <trkpt lat="44.11955" lon="2.278">
        <ele>382.6</ele>
        <time>2016-05-04T13:21:54Z</time>
      </trkpt>
      <trkpt lat="44.11955" lon="2.27801">
        <ele>382.7</ele>
        <time>2016-05-04T13:21:55Z</time>
      </trkpt>
      <trkpt lat="44.11955" lon="2.27802">
        <ele>382.7</ele>
        <time>2016-05-04T13:21:56Z</time>
      </trkpt>
      <trkpt lat="44.11956" lon="2.27803">
        <ele>383</ele>
        <time>2016-05-04T13:21:57Z</time>
      </trkpt>
      <trkpt lat="44.11956" lon="2.27805">
        <ele>383.2</ele>
        <time>2016-05-04T13:21:58Z</time>
      </trkpt>
      <trkpt lat="44.11956" lon="2.27806">
        <ele>383.3</ele>
        <time>2016-05-04T13:21:59Z</time>
      </trkpt>
      <trkpt lat="44.11956" lon="2.27808">
        <ele>383.7</ele>
        <time>2016-05-04T13:22:00Z</time>
      </trkpt>
      <trkpt lat="44.11956" lon="2.27809">
        <ele>383.9</ele>
        <time>2016-05-04T13:22:01Z</time>
      </trkpt>
      <trkpt lat="44.11955" lon="2.2781">
        <ele>384.1</ele>
        <time>2016-05-04T13:22:02Z</time>
      </trkpt>
      <trkpt lat="44.11955" lon="2.27812">
        <ele>384.2</ele>
        <time>2016-05-04T13:22:03Z</time>
      </trkpt>
      <trkpt lat="44.11955" lon="2.27813">
        <ele>384.3</ele>
        <time>2016-05-04T13:22:04Z</time>
      </trkpt>
      <trkpt lat="44.11955" lon="2.27814">
        <ele>384.4</ele>
        <time>2016-05-04T13:22:05Z</time>
      </trkpt>
      <trkpt lat="44.11955" lon="2.27815">
        <ele>384.7</ele>
        <time>2016-05-04T13:22:06Z</time>
      </trkpt>
      <trkpt lat="44.11954" lon="2.27816">
        <ele>384.9</ele>
        <time>2016-05-04T13:22:07Z</time>
      </trkpt>
      <trkpt lat="44.11954" lon="2.27817">
        <ele>385</ele>
        <time>2016-05-04T13:22:08Z</time>
      </trkpt>
      <trkpt lat="44.11954" lon="2.27818">
        <ele>385.1</ele>
        <time>2016-05-04T13:22:09Z</time>
      </trkpt>
      <trkpt lat="44.11953" lon="2.27819">
        <ele>385.2</ele>
        <time>2016-05-04T13:22:10Z</time>
      </trkpt>
      <trkpt lat="44.11953" lon="2.2782">
        <ele>385.3</ele>
        <time>2016-05-04T13:22:11Z</time>
      </trkpt>
      <trkpt lat="44.11951" lon="2.27823">
        <ele>385.6</ele>
        <time>2016-05-04T13:22:15Z</time>
      </trkpt>
      <trkpt lat="44.11948" lon="2.27827">
        <ele>386.2</ele>
        <time>2016-05-04T13:22:20Z</time>
      </trkpt>
      <trkpt lat="44.11948" lon="2.27828">
        <ele>386.6</ele>
        <time>2016-05-04T13:22:21Z</time>
      </trkpt>
      <trkpt lat="44.11945" lon="2.27832">
        <ele>388</ele>
        <time>2016-05-04T13:22:27Z</time>
      </trkpt>
      <trkpt lat="44.11942" lon="2.27838">
        <ele>389.3</ele>
        <time>2016-05-04T13:22:36Z</time>
      </trkpt>
      <trkpt lat="44.11941" lon="2.27839">
        <ele>389.4</ele>
        <time>2016-05-04T13:22:37Z</time>
      </trkpt>
      <trkpt lat="44.1194" lon="2.2784">
        <ele>389.8</ele>
        <time>2016-05-04T13:22:39Z</time>
      </trkpt>
      <trkpt lat="44.1194" lon="2.27841">
        <ele>390</ele>
        <time>2016-05-04T13:22:40Z</time>
      </trkpt>
      <trkpt lat="44.1194" lon="2.27842">
        <ele>390.2</ele>
        <time>2016-05-04T13:22:41Z</time>
      </trkpt>
      <trkpt lat="44.11939" lon="2.27843">
        <ele>390.7</ele>
        <time>2016-05-04T13:22:43Z</time>
      </trkpt>
      <trkpt lat="44.11938" lon="2.27844">
        <ele>390.9</ele>
        <time>2016-05-04T13:22:44Z</time>
      </trkpt>
      <trkpt lat="44.11936" lon="2.27847">
        <ele>390.9</ele>
        <time>2016-05-04T13:22:48Z</time>
      </trkpt>
      <trkpt lat="44.11936" lon="2.27848">
        <ele>391.1</ele>
        <time>2016-05-04T13:22:49Z</time>
      </trkpt>
      <trkpt lat="44.11936" lon="2.27848">
        <ele>391.2</ele>
        <time>2016-05-04T13:22:50Z</time>
      </trkpt>
      <trkpt lat="44.11936" lon="2.27848">
        <ele>391.3</ele>
        <time>2016-05-04T13:22:51Z</time>
      </trkpt>
      <trkpt lat="44.11935" lon="2.27849">
        <ele>391.3</ele>
        <time>2016-05-04T13:22:52Z</time>
      </trkpt>
      <trkpt lat="44.11935" lon="2.2785">
        <ele>391.4</ele>
        <time>2016-05-04T13:22:53Z</time>
      </trkpt>
      <trkpt lat="44.11934" lon="2.2785">
        <ele>391.4</ele>
        <time>2016-05-04T13:22:54Z</time>
      </trkpt>
      <trkpt lat="44.11934" lon="2.27851">
        <ele>391.4</ele>
        <time>2016-05-04T13:22:55Z</time>
      </trkpt>
      <trkpt lat="44.11934" lon="2.27852">
        <ele>391.4</ele>
        <time>2016-05-04T13:22:56Z</time>
      </trkpt>
      <trkpt lat="44.11933" lon="2.27853">
        <ele>391.7</ele>
        <time>2016-05-04T13:22:57Z</time>
      </trkpt>
      <trkpt lat="44.11933" lon="2.27854">
        <ele>391.8</ele>
        <time>2016-05-04T13:22:58Z</time>
      </trkpt>
      <trkpt lat="44.11932" lon="2.27855">
        <ele>392</ele>
        <time>2016-05-04T13:22:59Z</time>
      </trkpt>
      <trkpt lat="44.11932" lon="2.27856">
        <ele>392.5</ele>
        <time>2016-05-04T13:23:00Z</time>
      </trkpt>
      <trkpt lat="44.11931" lon="2.27857">
        <ele>392.9</ele>
        <time>2016-05-04T13:23:01Z</time>
      </trkpt>
      <trkpt lat="44.1193" lon="2.27858">
        <ele>393.2</ele>
        <time>2016-05-04T13:23:02Z</time>
      </trkpt>
      <trkpt lat="44.1193" lon="2.27859">
        <ele>393</ele>
        <time>2016-05-04T13:23:03Z</time>
      </trkpt>
      <trkpt lat="44.11929" lon="2.27859">
        <ele>392.8</ele>
        <time>2016-05-04T13:23:04Z</time>
      </trkpt>
      <trkpt lat="44.11928" lon="2.2786">
        <ele>392.7</ele>
        <time>2016-05-04T13:23:05Z</time>
      </trkpt>
      <trkpt lat="44.11927" lon="2.27861">
        <ele>393</ele>
        <time>2016-05-04T13:23:06Z</time>
      </trkpt>
      <trkpt lat="44.11926" lon="2.27862">
        <ele>393.3</ele>
        <time>2016-05-04T13:23:07Z</time>
      </trkpt>
      <trkpt lat="44.11925" lon="2.27863">
        <ele>393.5</ele>
        <time>2016-05-04T13:23:08Z</time>
      </trkpt>
      <trkpt lat="44.11924" lon="2.27864">
        <ele>393.6</ele>
        <time>2016-05-04T13:23:09Z</time>
      </trkpt>
      <trkpt lat="44.11923" lon="2.27864">
        <ele>393.7</ele>
        <time>2016-05-04T13:23:10Z</time>
      </trkpt>
      <trkpt lat="44.11922" lon="2.27865">
        <ele>393.8</ele>
        <time>2016-05-04T13:23:11Z</time>
      </trkpt>
      <trkpt lat="44.11921" lon="2.27866">
        <ele>393.9</ele>
        <time>2016-05-04T13:23:12Z</time>
      </trkpt>
      <trkpt lat="44.11921" lon="2.27866">
        <ele>393.9</ele>
        <time>2016-05-04T13:23:13Z</time>
      </trkpt>
      <trkpt lat="44.1192" lon="2.27867">
        <ele>394</ele>
        <time>2016-05-04T13:23:14Z</time>
      </trkpt>
      <trkpt lat="44.11919" lon="2.27867">
        <ele>394.4</ele>
        <time>2016-05-04T13:23:15Z</time>
      </trkpt>
      <trkpt lat="44.11918" lon="2.27868">
        <ele>394.8</ele>
        <time>2016-05-04T13:23:16Z</time>
      </trkpt>
      <trkpt lat="44.11917" lon="2.27869">
        <ele>395</ele>
        <time>2016-05-04T13:23:17Z</time>
      </trkpt>
      <trkpt lat="44.11916" lon="2.2787">
        <ele>395.4</ele>
        <time>2016-05-04T13:23:18Z</time>
      </trkpt>
      <trkpt lat="44.11915" lon="2.2787">
        <ele>395.7</ele>
        <time>2016-05-04T13:23:19Z</time>
      </trkpt>
      <trkpt lat="44.11914" lon="2.27871">
        <ele>396</ele>
        <time>2016-05-04T13:23:20Z</time>
      </trkpt>
      <trkpt lat="44.11914" lon="2.27872">
        <ele>395.9</ele>
        <time>2016-05-04T13:23:21Z</time>
      </trkpt>
      <trkpt lat="44.11913" lon="2.27873">
        <ele>395.9</ele>
        <time>2016-05-04T13:23:22Z</time>
      </trkpt>
      <trkpt lat="44.11912" lon="2.27873">
        <ele>395.9</ele>
        <time>2016-05-04T13:23:23Z</time>
      </trkpt>
      <trkpt lat="44.11912" lon="2.27874">
        <ele>395.8</ele>
        <time>2016-05-04T13:23:24Z</time>
      </trkpt>
      <trkpt lat="44.11911" lon="2.27874">
        <ele>395.8</ele>
        <time>2016-05-04T13:23:25Z</time>
      </trkpt>
      <trkpt lat="44.1191" lon="2.27875">
        <ele>395.8</ele>
        <time>2016-05-04T13:23:26Z</time>
      </trkpt>
      <trkpt lat="44.11909" lon="2.27875">
        <ele>395.8</ele>
        <time>2016-05-04T13:23:27Z</time>
      </trkpt>
      <trkpt lat="44.11909" lon="2.27876">
        <ele>395.8</ele>
        <time>2016-05-04T13:23:28Z</time>
      </trkpt>
      <trkpt lat="44.11908" lon="2.27876">
        <ele>395.8</ele>
        <time>2016-05-04T13:23:29Z</time>
      </trkpt>
      <trkpt lat="44.11908" lon="2.27877">
        <ele>396</ele>
        <time>2016-05-04T13:23:30Z</time>
      </trkpt>
      <trkpt lat="44.11907" lon="2.27883">
        <ele>396.5</ele>
        <time>2016-05-04T13:23:35Z</time>
      </trkpt>
      <trkpt lat="44.11908" lon="2.27884">
        <ele>396.7</ele>
        <time>2016-05-04T13:23:36Z</time>
      </trkpt>
      <trkpt lat="44.11908" lon="2.27887">
        <ele>397.1</ele>
        <time>2016-05-04T13:23:38Z</time>
      </trkpt>
      <trkpt lat="44.11909" lon="2.27889">
        <ele>397.3</ele>
        <time>2016-05-04T13:23:40Z</time>
      </trkpt>
      <trkpt lat="44.11909" lon="2.2789">
        <ele>397.3</ele>
        <time>2016-05-04T13:23:41Z</time>
      </trkpt>
      <trkpt lat="44.11909" lon="2.27891">
        <ele>397.2</ele>
        <time>2016-05-04T13:23:42Z</time>
      </trkpt>
      <trkpt lat="44.11909" lon="2.27892">
        <ele>397</ele>
        <time>2016-05-04T13:23:43Z</time>
      </trkpt>
      <trkpt lat="44.11909" lon="2.27893">
        <ele>396.9</ele>
        <time>2016-05-04T13:23:44Z</time>
      </trkpt>
      <trkpt lat="44.1191" lon="2.27894">
        <ele>397.3</ele>
        <time>2016-05-04T13:23:45Z</time>
      </trkpt>
      <trkpt lat="44.1191" lon="2.27895">
        <ele>397.6</ele>
        <time>2016-05-04T13:23:46Z</time>
      </trkpt>
      <trkpt lat="44.1191" lon="2.27896">
        <ele>397.8</ele>
        <time>2016-05-04T13:23:47Z</time>
      </trkpt>
      <trkpt lat="44.1191" lon="2.27898">
        <ele>398.1</ele>
        <time>2016-05-04T13:23:48Z</time>
      </trkpt>
      <trkpt lat="44.11911" lon="2.27899">
        <ele>398.4</ele>
        <time>2016-05-04T13:23:49Z</time>
      </trkpt>
      <trkpt lat="44.11911" lon="2.279">
        <ele>398.6</ele>
        <time>2016-05-04T13:23:50Z</time>
      </trkpt>
      <trkpt lat="44.11911" lon="2.27901">
        <ele>398.5</ele>
        <time>2016-05-04T13:23:51Z</time>
      </trkpt>
      <trkpt lat="44.11911" lon="2.27902">
        <ele>398.5</ele>
        <time>2016-05-04T13:23:52Z</time>
      </trkpt>
      <trkpt lat="44.11911" lon="2.27902">
        <ele>398.5</ele>
        <time>2016-05-04T13:23:53Z</time>
      </trkpt>
      <trkpt lat="44.11911" lon="2.27902">
        <ele>398.9</ele>
        <time>2016-05-04T13:23:54Z</time>
      </trkpt>
      <trkpt lat="44.11911" lon="2.27903">
        <ele>399.2</ele>
        <time>2016-05-04T13:23:55Z</time>
      </trkpt>
      <trkpt lat="44.11911" lon="2.27903">
        <ele>399.4</ele>
        <time>2016-05-04T13:23:56Z</time>
      </trkpt>
      <trkpt lat="44.11911" lon="2.27904">
        <ele>399.8</ele>
        <time>2016-05-04T13:23:57Z</time>
      </trkpt>
      <trkpt lat="44.11911" lon="2.27904">
        <ele>400.1</ele>
        <time>2016-05-04T13:23:58Z</time>
      </trkpt>
      <trkpt lat="44.1191" lon="2.27905">
        <ele>400.3</ele>
        <time>2016-05-04T13:23:59Z</time>
      </trkpt>
      <trkpt lat="44.1191" lon="2.27905">
        <ele>400.5</ele>
        <time>2016-05-04T13:24:00Z</time>
      </trkpt>
      <trkpt lat="44.11911" lon="2.27906">
        <ele>400.6</ele>
        <time>2016-05-04T13:24:01Z</time>
      </trkpt>
      <trkpt lat="44.11911" lon="2.27906">
        <ele>400.7</ele>
        <time>2016-05-04T13:24:02Z</time>
      </trkpt>
      <trkpt lat="44.11911" lon="2.27907">
        <ele>401.2</ele>
        <time>2016-05-04T13:24:03Z</time>
      </trkpt>
      <trkpt lat="44.11911" lon="2.27907">
        <ele>401.5</ele>
        <time>2016-05-04T13:24:04Z</time>
      </trkpt>
      <trkpt lat="44.11911" lon="2.27908">
        <ele>401.8</ele>
        <time>2016-05-04T13:24:05Z</time>
      </trkpt>
      <trkpt lat="44.11912" lon="2.27909">
        <ele>401.8</ele>
        <time>2016-05-04T13:24:06Z</time>
      </trkpt>
      <trkpt lat="44.11912" lon="2.2791">
        <ele>401.8</ele>
        <time>2016-05-04T13:24:07Z</time>
      </trkpt>
      <trkpt lat="44.11913" lon="2.27911">
        <ele>401.8</ele>
        <time>2016-05-04T13:24:08Z</time>
      </trkpt>
      <trkpt lat="44.11913" lon="2.27912">
        <ele>402</ele>
        <time>2016-05-04T13:24:09Z</time>
      </trkpt>
      <trkpt lat="44.11914" lon="2.27913">
        <ele>402.2</ele>
        <time>2016-05-04T13:24:10Z</time>
      </trkpt>
      <trkpt lat="44.11914" lon="2.27914">
        <ele>402.3</ele>
        <time>2016-05-04T13:24:11Z</time>
      </trkpt>
      <trkpt lat="44.11915" lon="2.27915">
        <ele>402.6</ele>
        <time>2016-05-04T13:24:12Z</time>
      </trkpt>
      <trkpt lat="44.11915" lon="2.27915">
        <ele>402.8</ele>
        <time>2016-05-04T13:24:13Z</time>
      </trkpt>
      <trkpt lat="44.11915" lon="2.27916">
        <ele>403</ele>
        <time>2016-05-04T13:24:14Z</time>
      </trkpt>
      <trkpt lat="44.11916" lon="2.27916">
        <ele>403.1</ele>
        <time>2016-05-04T13:24:15Z</time>
      </trkpt>
      <trkpt lat="44.11916" lon="2.27917">
        <ele>403.2</ele>
        <time>2016-05-04T13:24:16Z</time>
      </trkpt>
      <trkpt lat="44.11916" lon="2.27917">
        <ele>403.3</ele>
        <time>2016-05-04T13:24:17Z</time>
      </trkpt>
      <trkpt lat="44.11917" lon="2.27917">
        <ele>403.6</ele>
        <time>2016-05-04T13:24:18Z</time>
      </trkpt>
      <trkpt lat="44.11917" lon="2.27918">
        <ele>403.8</ele>
        <time>2016-05-04T13:24:19Z</time>
      </trkpt>
      <trkpt lat="44.11917" lon="2.27918">
        <ele>403.9</ele>
        <time>2016-05-04T13:24:20Z</time>
      </trkpt>
      <trkpt lat="44.11917" lon="2.27919">
        <ele>403.8</ele>
        <time>2016-05-04T13:24:21Z</time>
      </trkpt>
      <trkpt lat="44.11918" lon="2.27919">
        <ele>403.8</ele>
        <time>2016-05-04T13:24:22Z</time>
      </trkpt>
      <trkpt lat="44.11918" lon="2.2792">
        <ele>403.7</ele>
        <time>2016-05-04T13:24:23Z</time>
      </trkpt>
      <trkpt lat="44.11918" lon="2.2792">
        <ele>404.1</ele>
        <time>2016-05-04T13:24:24Z</time>
      </trkpt>
      <trkpt lat="44.11919" lon="2.27921">
        <ele>404.4</ele>
        <time>2016-05-04T13:24:25Z</time>
      </trkpt>
      <trkpt lat="44.11919" lon="2.27921">
        <ele>404.6</ele>
        <time>2016-05-04T13:24:26Z</time>
      </trkpt>
      <trkpt lat="44.11919" lon="2.27922">
        <ele>404.8</ele>
        <time>2016-05-04T13:24:27Z</time>
      </trkpt>
      <trkpt lat="44.1192" lon="2.27922">
        <ele>404.9</ele>
        <time>2016-05-04T13:24:28Z</time>
      </trkpt>
      <trkpt lat="44.1192" lon="2.27923">
        <ele>405</ele>
        <time>2016-05-04T13:24:29Z</time>
      </trkpt>
      <trkpt lat="44.11921" lon="2.27923">
        <ele>404.8</ele>
        <time>2016-05-04T13:24:30Z</time>
      </trkpt>
      <trkpt lat="44.11922" lon="2.27924">
        <ele>404.7</ele>
        <time>2016-05-04T13:24:31Z</time>
      </trkpt>
      <trkpt lat="44.11923" lon="2.27924">
        <ele>404.6</ele>
        <time>2016-05-04T13:24:32Z</time>
      </trkpt>
      <trkpt lat="44.11924" lon="2.27925">
        <ele>404.8</ele>
        <time>2016-05-04T13:24:33Z</time>
      </trkpt>
      <trkpt lat="44.11925" lon="2.27925">
        <ele>404.9</ele>
        <time>2016-05-04T13:24:34Z</time>
      </trkpt>
      <trkpt lat="44.11926" lon="2.27925">
        <ele>405</ele>
        <time>2016-05-04T13:24:35Z</time>
      </trkpt>
      <trkpt lat="44.11927" lon="2.27926">
        <ele>405.3</ele>
        <time>2016-05-04T13:24:36Z</time>
      </trkpt>
      <trkpt lat="44.11928" lon="2.27926">
        <ele>405.5</ele>
        <time>2016-05-04T13:24:37Z</time>
      </trkpt>
      <trkpt lat="44.11929" lon="2.27927">
        <ele>405.6</ele>
        <time>2016-05-04T13:24:38Z</time>
      </trkpt>
      <trkpt lat="44.1193" lon="2.27927">
        <ele>406</ele>
        <time>2016-05-04T13:24:39Z</time>
      </trkpt>
      <trkpt lat="44.11931" lon="2.27927">
        <ele>406.2</ele>
        <time>2016-05-04T13:24:40Z</time>
      </trkpt>
      <trkpt lat="44.11932" lon="2.27928">
        <ele>406.4</ele>
        <time>2016-05-04T13:24:41Z</time>
      </trkpt>
      <trkpt lat="44.11933" lon="2.27928">
        <ele>406.8</ele>
        <time>2016-05-04T13:24:42Z</time>
      </trkpt>
      <trkpt lat="44.11934" lon="2.27928">
        <ele>407</ele>
        <time>2016-05-04T13:24:43Z</time>
      </trkpt>
      <trkpt lat="44.11935" lon="2.27928">
        <ele>407.2</ele>
        <time>2016-05-04T13:24:44Z</time>
      </trkpt>
      <trkpt lat="44.11935" lon="2.27928">
        <ele>407.4</ele>
        <time>2016-05-04T13:24:45Z</time>
      </trkpt>
      <trkpt lat="44.11936" lon="2.27928">
        <ele>407.5</ele>
        <time>2016-05-04T13:24:46Z</time>
      </trkpt>
      <trkpt lat="44.11936" lon="2.27928">
        <ele>407.6</ele>
        <time>2016-05-04T13:24:47Z</time>
      </trkpt>
      <trkpt lat="44.11937" lon="2.27929">
        <ele>407.6</ele>
        <time>2016-05-04T13:24:48Z</time>
      </trkpt>
      <trkpt lat="44.11938" lon="2.27929">
        <ele>407.7</ele>
        <time>2016-05-04T13:24:49Z</time>
      </trkpt>
      <trkpt lat="44.11938" lon="2.27929">
        <ele>407.7</ele>
        <time>2016-05-04T13:24:50Z</time>
      </trkpt>
      <trkpt lat="44.11939" lon="2.27929">
        <ele>408.2</ele>
        <time>2016-05-04T13:24:51Z</time>
      </trkpt>
      <trkpt lat="44.11939" lon="2.27929">
        <ele>408.5</ele>
        <time>2016-05-04T13:24:52Z</time>
      </trkpt>
      <trkpt lat="44.1194" lon="2.27929">
        <ele>408.8</ele>
        <time>2016-05-04T13:24:53Z</time>
      </trkpt>
      <trkpt lat="44.1194" lon="2.27929">
        <ele>408.8</ele>
        <time>2016-05-04T13:24:54Z</time>
      </trkpt>
      <trkpt lat="44.1194" lon="2.27929">
        <ele>408.7</ele>
        <time>2016-05-04T13:24:55Z</time>
      </trkpt>
      <trkpt lat="44.11941" lon="2.27928">
        <ele>408.7</ele>
        <time>2016-05-04T13:24:56Z</time>
      </trkpt>
      <trkpt lat="44.11941" lon="2.27928">
        <ele>408.7</ele>
        <time>2016-05-04T13:24:57Z</time>
      </trkpt>
      <trkpt lat="44.11941" lon="2.27928">
        <ele>408.7</ele>
        <time>2016-05-04T13:24:58Z</time>
      </trkpt>
      <trkpt lat="44.11941" lon="2.27927">
        <ele>408.7</ele>
        <time>2016-05-04T13:24:59Z</time>
      </trkpt>
      <trkpt lat="44.11941" lon="2.27927">
        <ele>408.9</ele>
        <time>2016-05-04T13:25:00Z</time>
      </trkpt>
      <trkpt lat="44.11941" lon="2.27927">
        <ele>409.1</ele>
        <time>2016-05-04T13:25:01Z</time>
      </trkpt>
      <trkpt lat="44.11941" lon="2.27927">
        <ele>409.2</ele>
        <time>2016-05-04T13:25:02Z</time>
      </trkpt>
      <trkpt lat="44.11941" lon="2.27926">
        <ele>409.5</ele>
        <time>2016-05-04T13:25:03Z</time>
      </trkpt>
      <trkpt lat="44.11941" lon="2.27926">
        <ele>409.7</ele>
        <time>2016-05-04T13:25:04Z</time>
      </trkpt>
      <trkpt lat="44.11941" lon="2.27926">
        <ele>409.9</ele>
        <time>2016-05-04T13:25:05Z</time>
      </trkpt>
      <trkpt lat="44.11941" lon="2.27926">
        <ele>409.8</ele>
        <time>2016-05-04T13:25:06Z</time>
      </trkpt>
      <trkpt lat="44.11941" lon="2.27925">
        <ele>409.7</ele>
        <time>2016-05-04T13:25:07Z</time>
      </trkpt>
      <trkpt lat="44.1194" lon="2.27925">
        <ele>409.7</ele>
        <time>2016-05-04T13:25:08Z</time>
      </trkpt>
      <trkpt lat="44.1194" lon="2.27925">
        <ele>409.7</ele>
        <time>2016-05-04T13:25:09Z</time>
      </trkpt>
      <trkpt lat="44.1194" lon="2.27925">
        <ele>409.6</ele>
        <time>2016-05-04T13:25:10Z</time>
      </trkpt>
      <trkpt lat="44.1194" lon="2.27925">
        <ele>409.6</ele>
        <time>2016-05-04T13:25:11Z</time>
      </trkpt>
      <trkpt lat="44.1194" lon="2.27925">
        <ele>410.2</ele>
        <time>2016-05-04T13:25:12Z</time>
      </trkpt>
      <trkpt lat="44.1194" lon="2.27925">
        <ele>410.7</ele>
        <time>2016-05-04T13:25:13Z</time>
      </trkpt>
      <trkpt lat="44.1194" lon="2.27925">
        <ele>411.1</ele>
        <time>2016-05-04T13:25:14Z</time>
      </trkpt>
      <trkpt lat="44.1194" lon="2.27925">
        <ele>411.1</ele>
        <time>2016-05-04T13:25:15Z</time>
      </trkpt>
      <trkpt lat="44.11941" lon="2.27925">
        <ele>411.2</ele>
        <time>2016-05-04T13:25:16Z</time>
      </trkpt>
      <trkpt lat="44.11941" lon="2.27924">
        <ele>411.2</ele>
        <time>2016-05-04T13:25:17Z</time>
      </trkpt>
      <trkpt lat="44.11941" lon="2.27924">
        <ele>411.6</ele>
        <time>2016-05-04T13:25:18Z</time>
      </trkpt>
      <trkpt lat="44.11941" lon="2.27924">
        <ele>412</ele>
        <time>2016-05-04T13:25:19Z</time>
      </trkpt>
      <trkpt lat="44.11941" lon="2.27924">
        <ele>412.2</ele>
        <time>2016-05-04T13:25:20Z</time>
      </trkpt>
      <trkpt lat="44.11942" lon="2.27924">
        <ele>412.6</ele>
        <time>2016-05-04T13:25:21Z</time>
      </trkpt>
      <trkpt lat="44.11943" lon="2.27924">
        <ele>412.9</ele>
        <time>2016-05-04T13:25:22Z</time>
      </trkpt>
      <trkpt lat="44.11943" lon="2.27924">
        <ele>413.2</ele>
        <time>2016-05-04T13:25:23Z</time>
      </trkpt>
      <trkpt lat="44.11944" lon="2.27924">
        <ele>413.3</ele>
        <time>2016-05-04T13:25:24Z</time>
      </trkpt>
      <trkpt lat="44.11945" lon="2.27924">
        <ele>413.5</ele>
        <time>2016-05-04T13:25:25Z</time>
      </trkpt>
      <trkpt lat="44.11946" lon="2.27925">
        <ele>413.6</ele>
        <time>2016-05-04T13:25:26Z</time>
      </trkpt>
      <trkpt lat="44.11947" lon="2.27925">
        <ele>413.6</ele>
        <time>2016-05-04T13:25:27Z</time>
      </trkpt>
      <trkpt lat="44.11948" lon="2.27925">
        <ele>413.7</ele>
        <time>2016-05-04T13:25:28Z</time>
      </trkpt>
      <trkpt lat="44.11949" lon="2.27925">
        <ele>413.7</ele>
        <time>2016-05-04T13:25:29Z</time>
      </trkpt>
      <trkpt lat="44.1195" lon="2.27925">
        <ele>414.2</ele>
        <time>2016-05-04T13:25:30Z</time>
      </trkpt>
      <trkpt lat="44.1195" lon="2.27926">
        <ele>414.5</ele>
        <time>2016-05-04T13:25:31Z</time>
      </trkpt>
      <trkpt lat="44.11951" lon="2.27926">
        <ele>414.8</ele>
        <time>2016-05-04T13:25:32Z</time>
      </trkpt>
      <trkpt lat="44.11951" lon="2.27926">
        <ele>414.8</ele>
        <time>2016-05-04T13:25:33Z</time>
      </trkpt>
      <trkpt lat="44.11951" lon="2.27926">
        <ele>414.8</ele>
        <time>2016-05-04T13:25:34Z</time>
      </trkpt>
      <trkpt lat="44.11951" lon="2.27926">
        <ele>414.7</ele>
        <time>2016-05-04T13:25:35Z</time>
      </trkpt>
      <trkpt lat="44.11951" lon="2.27926">
        <ele>414.9</ele>
        <time>2016-05-04T13:25:36Z</time>
      </trkpt>
      <trkpt lat="44.11951" lon="2.27927">
        <ele>415.1</ele>
        <time>2016-05-04T13:25:37Z</time>
      </trkpt>
      <trkpt lat="44.11951" lon="2.27927">
        <ele>415.2</ele>
        <time>2016-05-04T13:25:38Z</time>
      </trkpt>
      <trkpt lat="44.11951" lon="2.27927">
        <ele>415.3</ele>
        <time>2016-05-04T13:25:39Z</time>
      </trkpt>
      <trkpt lat="44.11951" lon="2.27928">
        <ele>415.4</ele>
        <time>2016-05-04T13:25:40Z</time>
      </trkpt>
      <trkpt lat="44.11951" lon="2.27928">
        <ele>415.4</ele>
        <time>2016-05-04T13:25:41Z</time>
      </trkpt>
      <trkpt lat="44.11952" lon="2.27928">
        <ele>415.2</ele>
        <time>2016-05-04T13:25:42Z</time>
      </trkpt>
      <trkpt lat="44.11952" lon="2.27928">
        <ele>415.1</ele>
        <time>2016-05-04T13:25:43Z</time>
      </trkpt>
      <trkpt lat="44.11953" lon="2.27929">
        <ele>415</ele>
        <time>2016-05-04T13:25:44Z</time>
      </trkpt>
      <trkpt lat="44.11953" lon="2.27929">
        <ele>415.1</ele>
        <time>2016-05-04T13:25:45Z</time>
      </trkpt>
      <trkpt lat="44.11953" lon="2.27929">
        <ele>415.3</ele>
        <time>2016-05-04T13:25:46Z</time>
      </trkpt>
      <trkpt lat="44.11954" lon="2.27929">
        <ele>415.3</ele>
        <time>2016-05-04T13:25:47Z</time>
      </trkpt>
      <trkpt lat="44.11954" lon="2.27929">
        <ele>415.2</ele>
        <time>2016-05-04T13:25:48Z</time>
      </trkpt>
      <trkpt lat="44.11954" lon="2.27929">
        <ele>415.1</ele>
        <time>2016-05-04T13:25:49Z</time>
      </trkpt>
      <trkpt lat="44.11955" lon="2.27929">
        <ele>415</ele>
        <time>2016-05-04T13:25:50Z</time>
      </trkpt>
      <trkpt lat="44.11955" lon="2.27929">
        <ele>414.7</ele>
        <time>2016-05-04T13:25:51Z</time>
      </trkpt>
      <trkpt lat="44.11956" lon="2.27929">
        <ele>414.5</ele>
        <time>2016-05-04T13:25:52Z</time>
      </trkpt>
      <trkpt lat="44.11957" lon="2.2793">
        <ele>414.3</ele>
        <time>2016-05-04T13:25:53Z</time>
      </trkpt>
      <trkpt lat="44.11957" lon="2.2793">
        <ele>413.3</ele>
        <time>2016-05-04T13:25:54Z</time>
      </trkpt>
      <trkpt lat="44.11958" lon="2.2793">
        <ele>412.6</ele>
        <time>2016-05-04T13:25:55Z</time>
      </trkpt>
      <trkpt lat="44.11958" lon="2.2793">
        <ele>412.1</ele>
        <time>2016-05-04T13:25:56Z</time>
      </trkpt>
      <trkpt lat="44.11958" lon="2.2793">
        <ele>413.1</ele>
        <time>2016-05-04T13:25:57Z</time>
      </trkpt>
      <trkpt lat="44.11959" lon="2.27931">
        <ele>414</ele>
        <time>2016-05-04T13:25:58Z</time>
      </trkpt>
      <trkpt lat="44.11959" lon="2.27931">
        <ele>414.6</ele>
        <time>2016-05-04T13:25:59Z</time>
      </trkpt>
      <trkpt lat="44.11959" lon="2.27931">
        <ele>415.5</ele>
        <time>2016-05-04T13:26:00Z</time>
      </trkpt>
      <trkpt lat="44.1196" lon="2.27931">
        <ele>416.1</ele>
        <time>2016-05-04T13:26:01Z</time>
      </trkpt>
      <trkpt lat="44.1196" lon="2.27931">
        <ele>416.6</ele>
        <time>2016-05-04T13:26:02Z</time>
      </trkpt>
      <trkpt lat="44.1196" lon="2.27931">
        <ele>416.6</ele>
        <time>2016-05-04T13:26:03Z</time>
      </trkpt>
      <trkpt lat="44.11961" lon="2.27932">
        <ele>416.6</ele>
        <time>2016-05-04T13:26:04Z</time>
      </trkpt>
      <trkpt lat="44.11961" lon="2.27932">
        <ele>416.5</ele>
        <time>2016-05-04T13:26:05Z</time>
      </trkpt>
      <trkpt lat="44.11961" lon="2.27932">
        <ele>416.1</ele>
        <time>2016-05-04T13:26:06Z</time>
      </trkpt>
      <trkpt lat="44.11962" lon="2.27933">
        <ele>415.7</ele>
        <time>2016-05-04T13:26:07Z</time>
      </trkpt>
      <trkpt lat="44.11962" lon="2.27933">
        <ele>415.5</ele>
        <time>2016-05-04T13:26:08Z</time>
      </trkpt>
      <trkpt lat="44.11962" lon="2.27934">
        <ele>415.5</ele>
        <time>2016-05-04T13:26:09Z</time>
      </trkpt>
      <trkpt lat="44.11962" lon="2.27934">
        <ele>415.5</ele>
        <time>2016-05-04T13:26:10Z</time>
      </trkpt>
      <trkpt lat="44.11962" lon="2.27934">
        <ele>415.5</ele>
        <time>2016-05-04T13:26:11Z</time>
      </trkpt>
      <trkpt lat="44.11962" lon="2.27935">
        <ele>415.3</ele>
        <time>2016-05-04T13:26:12Z</time>
      </trkpt>
      <trkpt lat="44.11962" lon="2.27935">
        <ele>415.2</ele>
        <time>2016-05-04T13:26:13Z</time>
      </trkpt>
      <trkpt lat="44.11962" lon="2.27936">
        <ele>415.1</ele>
        <time>2016-05-04T13:26:14Z</time>
      </trkpt>
      <trkpt lat="44.11962" lon="2.27936">
        <ele>415</ele>
        <time>2016-05-04T13:26:15Z</time>
      </trkpt>
      <trkpt lat="44.11963" lon="2.27936">
        <ele>414.9</ele>
        <time>2016-05-04T13:26:16Z</time>
      </trkpt>
      <trkpt lat="44.11963" lon="2.27937">
        <ele>414.9</ele>
        <time>2016-05-04T13:26:17Z</time>
      </trkpt>
      <trkpt lat="44.11963" lon="2.27937">
        <ele>415</ele>
        <time>2016-05-04T13:26:18Z</time>
      </trkpt>
      <trkpt lat="44.11963" lon="2.27937">
        <ele>415.2</ele>
        <time>2016-05-04T13:26:19Z</time>
      </trkpt>
      <trkpt lat="44.11963" lon="2.27938">
        <ele>415.3</ele>
        <time>2016-05-04T13:26:20Z</time>
      </trkpt>
      <trkpt lat="44.11963" lon="2.27938">
        <ele>414.9</ele>
        <time>2016-05-04T13:26:21Z</time>
      </trkpt>
      <trkpt lat="44.11963" lon="2.27939">
        <ele>414.6</ele>
        <time>2016-05-04T13:26:22Z</time>
      </trkpt>
      <trkpt lat="44.11963" lon="2.27939">
        <ele>414.4</ele>
        <time>2016-05-04T13:26:23Z</time>
      </trkpt>
      <trkpt lat="44.11963" lon="2.27939">
        <ele>414.5</ele>
        <time>2016-05-04T13:26:24Z</time>
      </trkpt>
      <trkpt lat="44.11963" lon="2.2794">
        <ele>414.6</ele>
        <time>2016-05-04T13:26:25Z</time>
      </trkpt>
      <trkpt lat="44.11963" lon="2.2794">
        <ele>414.6</ele>
        <time>2016-05-04T13:26:26Z</time>
      </trkpt>
      <trkpt lat="44.11963" lon="2.2794">
        <ele>415.1</ele>
        <time>2016-05-04T13:26:27Z</time>
      </trkpt>
      <trkpt lat="44.11963" lon="2.2794">
        <ele>415.4</ele>
        <time>2016-05-04T13:26:28Z</time>
      </trkpt>
      <trkpt lat="44.11963" lon="2.27941">
        <ele>415.7</ele>
        <time>2016-05-04T13:26:29Z</time>
      </trkpt>
      <trkpt lat="44.11963" lon="2.27941">
        <ele>415.8</ele>
        <time>2016-05-04T13:26:30Z</time>
      </trkpt>
      <trkpt lat="44.11963" lon="2.27941">
        <ele>416</ele>
        <time>2016-05-04T13:26:31Z</time>
      </trkpt>
      <trkpt lat="44.11963" lon="2.27942">
        <ele>416.1</ele>
        <time>2016-05-04T13:26:32Z</time>
      </trkpt>
      <trkpt lat="44.11963" lon="2.27942">
        <ele>416</ele>
        <time>2016-05-04T13:26:33Z</time>
      </trkpt>
      <trkpt lat="44.11963" lon="2.27943">
        <ele>415.9</ele>
        <time>2016-05-04T13:26:34Z</time>
      </trkpt>
      <trkpt lat="44.11963" lon="2.27943">
        <ele>415.8</ele>
        <time>2016-05-04T13:26:35Z</time>
      </trkpt>
      <trkpt lat="44.11963" lon="2.27943">
        <ele>415.3</ele>
        <time>2016-05-04T13:26:36Z</time>
      </trkpt>
      <trkpt lat="44.11963" lon="2.27943">
        <ele>414.9</ele>
        <time>2016-05-04T13:26:37Z</time>
      </trkpt>
      <trkpt lat="44.11963" lon="2.27943">
        <ele>414.7</ele>
        <time>2016-05-04T13:26:38Z</time>
      </trkpt>
      <trkpt lat="44.11963" lon="2.27943">
        <ele>414</ele>
        <time>2016-05-04T13:26:39Z</time>
      </trkpt>
      <trkpt lat="44.11963" lon="2.27943">
        <ele>413.6</ele>
        <time>2016-05-04T13:26:40Z</time>
      </trkpt>
      <trkpt lat="44.11963" lon="2.27943">
        <ele>413.2</ele>
        <time>2016-05-04T13:26:41Z</time>
      </trkpt>
      <trkpt lat="44.11963" lon="2.27943">
        <ele>414.2</ele>
        <time>2016-05-04T13:26:42Z</time>
      </trkpt>
      <trkpt lat="44.11963" lon="2.27943">
        <ele>415</ele>
        <time>2016-05-04T13:26:43Z</time>
      </trkpt>
      <trkpt lat="44.11963" lon="2.27944">
        <ele>415.6</ele>
        <time>2016-05-04T13:26:44Z</time>
      </trkpt>
      <trkpt lat="44.11963" lon="2.27944">
        <ele>415.6</ele>
        <time>2016-05-04T13:26:45Z</time>
      </trkpt>
      <trkpt lat="44.11963" lon="2.27944">
        <ele>415.6</ele>
        <time>2016-05-04T13:26:46Z</time>
      </trkpt>
      <trkpt lat="44.11963" lon="2.27944">
        <ele>415.6</ele>
        <time>2016-05-04T13:26:47Z</time>
      </trkpt>
      <trkpt lat="44.11963" lon="2.27944">
        <ele>414.1</ele>
        <time>2016-05-04T13:26:48Z</time>
      </trkpt>
      <trkpt lat="44.11963" lon="2.27944">
        <ele>412.9</ele>
        <time>2016-05-04T13:26:49Z</time>
      </trkpt>
      <trkpt lat="44.11963" lon="2.27944">
        <ele>412.1</ele>
        <time>2016-05-04T13:26:50Z</time>
      </trkpt>
      <trkpt lat="44.11963" lon="2.27944">
        <ele>413</ele>
        <time>2016-05-04T13:26:51Z</time>
      </trkpt>
      <trkpt lat="44.11963" lon="2.27944">
        <ele>413.6</ele>
        <time>2016-05-04T13:26:52Z</time>
      </trkpt>
      <trkpt lat="44.11963" lon="2.27944">
        <ele>414.1</ele>
        <time>2016-05-04T13:26:53Z</time>
      </trkpt>
      <trkpt lat="44.11963" lon="2.27944">
        <ele>414.5</ele>
        <time>2016-05-04T13:26:54Z</time>
      </trkpt>
      <trkpt lat="44.11963" lon="2.27944">
        <ele>414.7</ele>
        <time>2016-05-04T13:26:55Z</time>
      </trkpt>
      <trkpt lat="44.11963" lon="2.27944">
        <ele>414.9</ele>
        <time>2016-05-04T13:26:56Z</time>
      </trkpt>
      <trkpt lat="44.11963" lon="2.27944">
        <ele>415.1</ele>
        <time>2016-05-04T13:26:57Z</time>
      </trkpt>
      <trkpt lat="44.11963" lon="2.27944">
        <ele>415.2</ele>
        <time>2016-05-04T13:26:58Z</time>
      </trkpt>
      <trkpt lat="44.11963" lon="2.27944">
        <ele>415.3</ele>
        <time>2016-05-04T13:26:59Z</time>
      </trkpt>
      <trkpt lat="44.11963" lon="2.27944">
        <ele>414.7</ele>
        <time>2016-05-04T13:27:00Z</time>
      </trkpt>
      <trkpt lat="44.11964" lon="2.27943">
        <ele>416.4</ele>
        <time>2016-05-04T13:27:05Z</time>
      </trkpt>
      <trkpt lat="44.11964" lon="2.27942">
        <ele>416.4</ele>
        <time>2016-05-04T13:27:06Z</time>
      </trkpt>
      <trkpt lat="44.11965" lon="2.2794">
        <ele>416.4</ele>
        <time>2016-05-04T13:27:10Z</time>
      </trkpt>
      <trkpt lat="44.11965" lon="2.2794">
        <ele>416.4</ele>
        <time>2016-05-04T13:27:11Z</time>
      </trkpt>
      <trkpt lat="44.11965" lon="2.27939">
        <ele>416.2</ele>
        <time>2016-05-04T13:27:12Z</time>
      </trkpt>
      <trkpt lat="44.11965" lon="2.27938">
        <ele>416</ele>
        <time>2016-05-04T13:27:13Z</time>
      </trkpt>
      <trkpt lat="44.11964" lon="2.27938">
        <ele>415.2</ele>
        <time>2016-05-04T13:27:15Z</time>
      </trkpt>
      <trkpt lat="44.11964" lon="2.27938">
        <ele>414.6</ele>
        <time>2016-05-04T13:27:16Z</time>
      </trkpt>
      <trkpt lat="44.11964" lon="2.27937">
        <ele>414.2</ele>
        <time>2016-05-04T13:27:17Z</time>
      </trkpt>
      <trkpt lat="44.11964" lon="2.27937">
        <ele>414.3</ele>
        <time>2016-05-04T13:27:18Z</time>
      </trkpt>
      <trkpt lat="44.11964" lon="2.27937">
        <ele>414.4</ele>
        <time>2016-05-04T13:27:19Z</time>
      </trkpt>
      <trkpt lat="44.11963" lon="2.27937">
        <ele>414.5</ele>
        <time>2016-05-04T13:27:20Z</time>
      </trkpt>
      <trkpt lat="44.11963" lon="2.27937">
        <ele>414.3</ele>
        <time>2016-05-04T13:27:21Z</time>
      </trkpt>
      <trkpt lat="44.11963" lon="2.27936">
        <ele>414.2</ele>
        <time>2016-05-04T13:27:22Z</time>
      </trkpt>
      <trkpt lat="44.11963" lon="2.27936">
        <ele>414.1</ele>
        <time>2016-05-04T13:27:23Z</time>
      </trkpt>
      <trkpt lat="44.11963" lon="2.27936">
        <ele>414.5</ele>
        <time>2016-05-04T13:27:24Z</time>
      </trkpt>
      <trkpt lat="44.11963" lon="2.27935">
        <ele>414.8</ele>
        <time>2016-05-04T13:27:25Z</time>
      </trkpt>
      <trkpt lat="44.11963" lon="2.27935">
        <ele>415</ele>
        <time>2016-05-04T13:27:26Z</time>
      </trkpt>
      <trkpt lat="44.11963" lon="2.27935">
        <ele>414.9</ele>
        <time>2016-05-04T13:27:27Z</time>
      </trkpt>
      <trkpt lat="44.11962" lon="2.27942">
        <ele>416.6</ele>
        <time>2016-05-04T13:28:33Z</time>
      </trkpt>
      <trkpt lat="44.11961" lon="2.27943">
        <ele>416.1</ele>
        <time>2016-05-04T13:28:34Z</time>
      </trkpt>
      <trkpt lat="44.11961" lon="2.27944">
        <ele>415.8</ele>
        <time>2016-05-04T13:28:35Z</time>
      </trkpt>
      <trkpt lat="44.1196" lon="2.27945">
        <ele>415.5</ele>
        <time>2016-05-04T13:28:36Z</time>
      </trkpt>
      <trkpt lat="44.1196" lon="2.27946">
        <ele>415.7</ele>
        <time>2016-05-04T13:28:37Z</time>
      </trkpt>
      <trkpt lat="44.11959" lon="2.27946">
        <ele>415.9</ele>
        <time>2016-05-04T13:28:38Z</time>
      </trkpt>
      <trkpt lat="44.11959" lon="2.27947">
        <ele>416</ele>
        <time>2016-05-04T13:28:39Z</time>
      </trkpt>
      <trkpt lat="44.11958" lon="2.27948">
        <ele>415.9</ele>
        <time>2016-05-04T13:28:40Z</time>
      </trkpt>
      <trkpt lat="44.11957" lon="2.27948">
        <ele>415.8</ele>
        <time>2016-05-04T13:28:41Z</time>
      </trkpt>
      <trkpt lat="44.11957" lon="2.27949">
        <ele>415.8</ele>
        <time>2016-05-04T13:28:42Z</time>
      </trkpt>
      <trkpt lat="44.11957" lon="2.2795">
        <ele>415.9</ele>
        <time>2016-05-04T13:28:43Z</time>
      </trkpt>
      <trkpt lat="44.11956" lon="2.2795">
        <ele>416.1</ele>
        <time>2016-05-04T13:28:44Z</time>
      </trkpt>
      <trkpt lat="44.11956" lon="2.27951">
        <ele>416.1</ele>
        <time>2016-05-04T13:28:45Z</time>
      </trkpt>
      <trkpt lat="44.11955" lon="2.27951">
        <ele>416.2</ele>
        <time>2016-05-04T13:28:46Z</time>
      </trkpt>
      <trkpt lat="44.11955" lon="2.27952">
        <ele>416.3</ele>
        <time>2016-05-04T13:28:47Z</time>
      </trkpt>
      <trkpt lat="44.11955" lon="2.27952">
        <ele>416.3</ele>
        <time>2016-05-04T13:28:48Z</time>
      </trkpt>
      <trkpt lat="44.11955" lon="2.27953">
        <ele>416.1</ele>
        <time>2016-05-04T13:28:49Z</time>
      </trkpt>
      <trkpt lat="44.11954" lon="2.27953">
        <ele>416</ele>
        <time>2016-05-04T13:28:50Z</time>
      </trkpt>
      <trkpt lat="44.11954" lon="2.27954">
        <ele>415.9</ele>
        <time>2016-05-04T13:28:51Z</time>
      </trkpt>
      <trkpt lat="44.11954" lon="2.27954">
        <ele>415.6</ele>
        <time>2016-05-04T13:28:52Z</time>
      </trkpt>
      <trkpt lat="44.11954" lon="2.27954">
        <ele>415.4</ele>
        <time>2016-05-04T13:28:53Z</time>
      </trkpt>
      <trkpt lat="44.11954" lon="2.27955">
        <ele>415.2</ele>
        <time>2016-05-04T13:28:54Z</time>
      </trkpt>
      <trkpt lat="44.11954" lon="2.27955">
        <ele>415.3</ele>
        <time>2016-05-04T13:28:55Z</time>
      </trkpt>
      <trkpt lat="44.11954" lon="2.27955">
        <ele>415.4</ele>
        <time>2016-05-04T13:28:56Z</time>
      </trkpt>
      <trkpt lat="44.11954" lon="2.27956">
        <ele>415.4</ele>
        <time>2016-05-04T13:28:57Z</time>
      </trkpt>
      <trkpt lat="44.11954" lon="2.27956">
        <ele>415.5</ele>
        <time>2016-05-04T13:28:58Z</time>
      </trkpt>
      <trkpt lat="44.11954" lon="2.27956">
        <ele>415.5</ele>
        <time>2016-05-04T13:28:59Z</time>
      </trkpt>
      <trkpt lat="44.11955" lon="2.27956">
        <ele>415.5</ele>
        <time>2016-05-04T13:29:00Z</time>
      </trkpt>
      <trkpt lat="44.11955" lon="2.27956">
        <ele>415.5</ele>
        <time>2016-05-04T13:29:01Z</time>
      </trkpt>
      <trkpt lat="44.11956" lon="2.27956">
        <ele>415.5</ele>
        <time>2016-05-04T13:29:02Z</time>
      </trkpt>
      <trkpt lat="44.11956" lon="2.27956">
        <ele>415.5</ele>
        <time>2016-05-04T13:29:03Z</time>
      </trkpt>
      <trkpt lat="44.11956" lon="2.27957">
        <ele>415.5</ele>
        <time>2016-05-04T13:29:04Z</time>
      </trkpt>
      <trkpt lat="44.11956" lon="2.27957">
        <ele>415.6</ele>
        <time>2016-05-04T13:29:05Z</time>
      </trkpt>
      <trkpt lat="44.11956" lon="2.27957">
        <ele>415.6</ele>
        <time>2016-05-04T13:29:06Z</time>
      </trkpt>
      <trkpt lat="44.11956" lon="2.27957">
        <ele>415.6</ele>
        <time>2016-05-04T13:29:07Z</time>
      </trkpt>
      <trkpt lat="44.11957" lon="2.27957">
        <ele>415.6</ele>
        <time>2016-05-04T13:29:08Z</time>
      </trkpt>
      <trkpt lat="44.11957" lon="2.27958">
        <ele>415.6</ele>
        <time>2016-05-04T13:29:09Z</time>
      </trkpt>
      <trkpt lat="44.11957" lon="2.27958">
        <ele>415.3</ele>
        <time>2016-05-04T13:29:10Z</time>
      </trkpt>
      <trkpt lat="44.11957" lon="2.27958">
        <ele>415.2</ele>
        <time>2016-05-04T13:29:11Z</time>
      </trkpt>
      <trkpt lat="44.11957" lon="2.27958">
        <ele>415.1</ele>
        <time>2016-05-04T13:29:12Z</time>
      </trkpt>
      <trkpt lat="44.11957" lon="2.27958">
        <ele>415</ele>
        <time>2016-05-04T13:29:13Z</time>
      </trkpt>
      <trkpt lat="44.11957" lon="2.27958">
        <ele>414.9</ele>
        <time>2016-05-04T13:29:14Z</time>
      </trkpt>
      <trkpt lat="44.11957" lon="2.27958">
        <ele>414.9</ele>
        <time>2016-05-04T13:29:15Z</time>
      </trkpt>
      <trkpt lat="44.11957" lon="2.27958">
        <ele>415.3</ele>
        <time>2016-05-04T13:29:16Z</time>
      </trkpt>
      <trkpt lat="44.11957" lon="2.27958">
        <ele>415.5</ele>
        <time>2016-05-04T13:29:17Z</time>
      </trkpt>
      <trkpt lat="44.11957" lon="2.27958">
        <ele>415.8</ele>
        <time>2016-05-04T13:29:18Z</time>
      </trkpt>
      <trkpt lat="44.11956" lon="2.27958">
        <ele>415.9</ele>
        <time>2016-05-04T13:29:19Z</time>
      </trkpt>
      <trkpt lat="44.11956" lon="2.27958">
        <ele>416.1</ele>
        <time>2016-05-04T13:29:20Z</time>
      </trkpt>
      <trkpt lat="44.11956" lon="2.27958">
        <ele>416.1</ele>
        <time>2016-05-04T13:29:21Z</time>
      </trkpt>
      <trkpt lat="44.11956" lon="2.27958">
        <ele>416</ele>
        <time>2016-05-04T13:29:22Z</time>
      </trkpt>
      <trkpt lat="44.11956" lon="2.27958">
        <ele>415.9</ele>
        <time>2016-05-04T13:29:23Z</time>
      </trkpt>
      <trkpt lat="44.11955" lon="2.27958">
        <ele>415.8</ele>
        <time>2016-05-04T13:29:24Z</time>
      </trkpt>
      <trkpt lat="44.11955" lon="2.27958">
        <ele>415.8</ele>
        <time>2016-05-04T13:29:25Z</time>
      </trkpt>
      <trkpt lat="44.11955" lon="2.27958">
        <ele>415.7</ele>
        <time>2016-05-04T13:29:26Z</time>
      </trkpt>
      <trkpt lat="44.11955" lon="2.27958">
        <ele>415.7</ele>
        <time>2016-05-04T13:29:27Z</time>
      </trkpt>
      <trkpt lat="44.11955" lon="2.27958">
        <ele>415.9</ele>
        <time>2016-05-04T13:29:28Z</time>
      </trkpt>
      <trkpt lat="44.11955" lon="2.27958">
        <ele>416</ele>
        <time>2016-05-04T13:29:29Z</time>
      </trkpt>
      <trkpt lat="44.11954" lon="2.27958">
        <ele>416.1</ele>
        <time>2016-05-04T13:29:30Z</time>
      </trkpt>
      <trkpt lat="44.11954" lon="2.27958">
        <ele>416.2</ele>
        <time>2016-05-04T13:29:31Z</time>
      </trkpt>
      <trkpt lat="44.11954" lon="2.27958">
        <ele>416.2</ele>
        <time>2016-05-04T13:29:32Z</time>
      </trkpt>
      <trkpt lat="44.11954" lon="2.27958">
        <ele>416.3</ele>
        <time>2016-05-04T13:29:33Z</time>
      </trkpt>
      <trkpt lat="44.11954" lon="2.27958">
        <ele>416.1</ele>
        <time>2016-05-04T13:29:34Z</time>
      </trkpt>
      <trkpt lat="44.11953" lon="2.27957">
        <ele>416</ele>
        <time>2016-05-04T13:29:35Z</time>
      </trkpt>
      <trkpt lat="44.11953" lon="2.27957">
        <ele>415.9</ele>
        <time>2016-05-04T13:29:36Z</time>
      </trkpt>
      <trkpt lat="44.11953" lon="2.27957">
        <ele>415.8</ele>
        <time>2016-05-04T13:29:37Z</time>
      </trkpt>
      <trkpt lat="44.11952" lon="2.27957">
        <ele>415.7</ele>
        <time>2016-05-04T13:29:38Z</time>
      </trkpt>
      <trkpt lat="44.11952" lon="2.27957">
        <ele>415.7</ele>
        <time>2016-05-04T13:29:39Z</time>
      </trkpt>
      <trkpt lat="44.11952" lon="2.27957">
        <ele>415.7</ele>
        <time>2016-05-04T13:29:40Z</time>
      </trkpt>
      <trkpt lat="44.11951" lon="2.27957">
        <ele>415.6</ele>
        <time>2016-05-04T13:29:41Z</time>
      </trkpt>
      <trkpt lat="44.11951" lon="2.27957">
        <ele>415.6</ele>
        <time>2016-05-04T13:29:42Z</time>
      </trkpt>
      <trkpt lat="44.11951" lon="2.27957">
        <ele>415.4</ele>
        <time>2016-05-04T13:29:43Z</time>
      </trkpt>
      <trkpt lat="44.1195" lon="2.27957">
        <ele>415.2</ele>
        <time>2016-05-04T13:29:44Z</time>
      </trkpt>
      <trkpt lat="44.1195" lon="2.27957">
        <ele>415.1</ele>
        <time>2016-05-04T13:29:45Z</time>
      </trkpt>
      <trkpt lat="44.1195" lon="2.27957">
        <ele>415.2</ele>
        <time>2016-05-04T13:29:46Z</time>
      </trkpt>
      <trkpt lat="44.11949" lon="2.27958">
        <ele>415.3</ele>
        <time>2016-05-04T13:29:47Z</time>
      </trkpt>
      <trkpt lat="44.11949" lon="2.27958">
        <ele>415.4</ele>
        <time>2016-05-04T13:29:48Z</time>
      </trkpt>
      <trkpt lat="44.11949" lon="2.27958">
        <ele>415.6</ele>
        <time>2016-05-04T13:29:49Z</time>
      </trkpt>
      <trkpt lat="44.11949" lon="2.27958">
        <ele>415.8</ele>
        <time>2016-05-04T13:29:50Z</time>
      </trkpt>
      <trkpt lat="44.11949" lon="2.27958">
        <ele>416</ele>
        <time>2016-05-04T13:29:51Z</time>
      </trkpt>
      <trkpt lat="44.11949" lon="2.27958">
        <ele>416.1</ele>
        <time>2016-05-04T13:29:52Z</time>
      </trkpt>
      <trkpt lat="44.11948" lon="2.27958">
        <ele>416.2</ele>
        <time>2016-05-04T13:29:53Z</time>
      </trkpt>
      <trkpt lat="44.11948" lon="2.27958">
        <ele>416.2</ele>
        <time>2016-05-04T13:29:54Z</time>
      </trkpt>
      <trkpt lat="44.11948" lon="2.27958">
        <ele>416.1</ele>
        <time>2016-05-04T13:29:55Z</time>
      </trkpt>
      <trkpt lat="44.11948" lon="2.27958">
        <ele>415.9</ele>
        <time>2016-05-04T13:29:56Z</time>
      </trkpt>
      <trkpt lat="44.11948" lon="2.27958">
        <ele>415.9</ele>
        <time>2016-05-04T13:29:57Z</time>
      </trkpt>
      <trkpt lat="44.11948" lon="2.27958">
        <ele>416</ele>
        <time>2016-05-04T13:29:58Z</time>
      </trkpt>
      <trkpt lat="44.11948" lon="2.27958">
        <ele>416.1</ele>
        <time>2016-05-04T13:29:59Z</time>
      </trkpt>
      <trkpt lat="44.11948" lon="2.27958">
        <ele>416.2</ele>
        <time>2016-05-04T13:30:00Z</time>
      </trkpt>
      <trkpt lat="44.11948" lon="2.27957">
        <ele>416</ele>
        <time>2016-05-04T13:30:01Z</time>
      </trkpt>
      <trkpt lat="44.11948" lon="2.27957">
        <ele>415.9</ele>
        <time>2016-05-04T13:30:02Z</time>
      </trkpt>
      <trkpt lat="44.11949" lon="2.27956">
        <ele>415.8</ele>
        <time>2016-05-04T13:30:03Z</time>
      </trkpt>
      <trkpt lat="44.11949" lon="2.27955">
        <ele>416</ele>
        <time>2016-05-04T13:30:04Z</time>
      </trkpt>
      <trkpt lat="44.1195" lon="2.27953">
        <ele>416.1</ele>
        <time>2016-05-04T13:30:05Z</time>
      </trkpt>
      <trkpt lat="44.11951" lon="2.27952">
        <ele>416.2</ele>
        <time>2016-05-04T13:30:06Z</time>
      </trkpt>
      <trkpt lat="44.11952" lon="2.27951">
        <ele>416</ele>
        <time>2016-05-04T13:30:07Z</time>
      </trkpt>
      <trkpt lat="44.11953" lon="2.2795">
        <ele>415.9</ele>
        <time>2016-05-04T13:30:08Z</time>
      </trkpt>
      <trkpt lat="44.11954" lon="2.27949">
        <ele>415.8</ele>
        <time>2016-05-04T13:30:09Z</time>
      </trkpt>
      <trkpt lat="44.11955" lon="2.27948">
        <ele>416</ele>
        <time>2016-05-04T13:30:10Z</time>
      </trkpt>
      <trkpt lat="44.11955" lon="2.27947">
        <ele>416.1</ele>
        <time>2016-05-04T13:30:11Z</time>
      </trkpt>
      <trkpt lat="44.11956" lon="2.27946">
        <ele>416.2</ele>
        <time>2016-05-04T13:30:12Z</time>
      </trkpt>
      <trkpt lat="44.11956" lon="2.27946">
        <ele>416.2</ele>
        <time>2016-05-04T13:30:13Z</time>
      </trkpt>
      <trkpt lat="44.11957" lon="2.27945">
        <ele>416.3</ele>
        <time>2016-05-04T13:30:14Z</time>
      </trkpt>
      <trkpt lat="44.11957" lon="2.27945">
        <ele>416.3</ele>
        <time>2016-05-04T13:30:15Z</time>
      </trkpt>
      <trkpt lat="44.11958" lon="2.27944">
        <ele>415.9</ele>
        <time>2016-05-04T13:30:16Z</time>
      </trkpt>
      <trkpt lat="44.11958" lon="2.27944">
        <ele>415.6</ele>
        <time>2016-05-04T13:30:17Z</time>
      </trkpt>
      <trkpt lat="44.11958" lon="2.27944">
        <ele>415.4</ele>
        <time>2016-05-04T13:30:18Z</time>
      </trkpt>
      <trkpt lat="44.11959" lon="2.27943">
        <ele>415.6</ele>
        <time>2016-05-04T13:30:19Z</time>
      </trkpt>
      <trkpt lat="44.11959" lon="2.27943">
        <ele>415.8</ele>
        <time>2016-05-04T13:30:20Z</time>
      </trkpt>
      <trkpt lat="44.11959" lon="2.27943">
        <ele>416</ele>
        <time>2016-05-04T13:30:21Z</time>
      </trkpt>
      <trkpt lat="44.11959" lon="2.27942">
        <ele>415.2</ele>
        <time>2016-05-04T13:30:22Z</time>
      </trkpt>
      <trkpt lat="44.1196" lon="2.27942">
        <ele>414.7</ele>
        <time>2016-05-04T13:30:23Z</time>
      </trkpt>
      <trkpt lat="44.1196" lon="2.27942">
        <ele>414.3</ele>
        <time>2016-05-04T13:30:24Z</time>
      </trkpt>
      <trkpt lat="44.1196" lon="2.27941">
        <ele>414.4</ele>
        <time>2016-05-04T13:30:25Z</time>
      </trkpt>
      <trkpt lat="44.1196" lon="2.27941">
        <ele>414.5</ele>
        <time>2016-05-04T13:30:26Z</time>
      </trkpt>
      <trkpt lat="44.11961" lon="2.27941">
        <ele>414.5</ele>
        <time>2016-05-04T13:30:27Z</time>
      </trkpt>
      <trkpt lat="44.11961" lon="2.2794">
        <ele>414.8</ele>
        <time>2016-05-04T13:30:28Z</time>
      </trkpt>
      <trkpt lat="44.11961" lon="2.2794">
        <ele>415</ele>
        <time>2016-05-04T13:30:29Z</time>
      </trkpt>
      <trkpt lat="44.11962" lon="2.2794">
        <ele>415.1</ele>
        <time>2016-05-04T13:30:30Z</time>
      </trkpt>
      <trkpt lat="44.11962" lon="2.2794">
        <ele>415.2</ele>
        <time>2016-05-04T13:30:31Z</time>
      </trkpt>
      <trkpt lat="44.11963" lon="2.2794">
        <ele>415.3</ele>
        <time>2016-05-04T13:30:32Z</time>
      </trkpt>
      <trkpt lat="44.11963" lon="2.27939">
        <ele>415.4</ele>
        <time>2016-05-04T13:30:33Z</time>
      </trkpt>
      <trkpt lat="44.11963" lon="2.27939">
        <ele>415.6</ele>
        <time>2016-05-04T13:30:34Z</time>
      </trkpt>
      <trkpt lat="44.11964" lon="2.27939">
        <ele>415.8</ele>
        <time>2016-05-04T13:30:35Z</time>
      </trkpt>
      <trkpt lat="44.11964" lon="2.27939">
        <ele>416</ele>
        <time>2016-05-04T13:30:36Z</time>
      </trkpt>
      <trkpt lat="44.11965" lon="2.27939">
        <ele>415.9</ele>
        <time>2016-05-04T13:30:37Z</time>
      </trkpt>
      <trkpt lat="44.11965" lon="2.27939">
        <ele>415.8</ele>
        <time>2016-05-04T13:30:38Z</time>
      </trkpt>
      <trkpt lat="44.11965" lon="2.2794">
        <ele>415.7</ele>
        <time>2016-05-04T13:30:39Z</time>
      </trkpt>
      <trkpt lat="44.11966" lon="2.2794">
        <ele>415.7</ele>
        <time>2016-05-04T13:30:40Z</time>
      </trkpt>
      <trkpt lat="44.11966" lon="2.2794">
        <ele>415.7</ele>
        <time>2016-05-04T13:30:41Z</time>
      </trkpt>
      <trkpt lat="44.11966" lon="2.2794">
        <ele>415.6</ele>
        <time>2016-05-04T13:30:42Z</time>
      </trkpt>
      <trkpt lat="44.11966" lon="2.2794">
        <ele>415.6</ele>
        <time>2016-05-04T13:30:43Z</time>
      </trkpt>
      <trkpt lat="44.11967" lon="2.2794">
        <ele>415.6</ele>
        <time>2016-05-04T13:30:44Z</time>
      </trkpt>
      <trkpt lat="44.11967" lon="2.2794">
        <ele>415.6</ele>
        <time>2016-05-04T13:30:45Z</time>
      </trkpt>
      <trkpt lat="44.11966" lon="2.2794">
        <ele>415.8</ele>
        <time>2016-05-04T13:30:46Z</time>
      </trkpt>
      <trkpt lat="44.11966" lon="2.27941">
        <ele>416</ele>
        <time>2016-05-04T13:30:47Z</time>
      </trkpt>
      <trkpt lat="44.11965" lon="2.27942">
        <ele>416.1</ele>
        <time>2016-05-04T13:30:48Z</time>
      </trkpt>
      <trkpt lat="44.11964" lon="2.27943">
        <ele>416.2</ele>
        <time>2016-05-04T13:30:49Z</time>
      </trkpt>
      <trkpt lat="44.11964" lon="2.27943">
        <ele>416.2</ele>
        <time>2016-05-04T13:30:50Z</time>
      </trkpt>
      <trkpt lat="44.11963" lon="2.27944">
        <ele>416.3</ele>
        <time>2016-05-04T13:30:51Z</time>
      </trkpt>
      <trkpt lat="44.11962" lon="2.27945">
        <ele>416.1</ele>
        <time>2016-05-04T13:30:52Z</time>
      </trkpt>
      <trkpt lat="44.11962" lon="2.27945">
        <ele>416</ele>
        <time>2016-05-04T13:30:53Z</time>
      </trkpt>
      <trkpt lat="44.11961" lon="2.27946">
        <ele>415.9</ele>
        <time>2016-05-04T13:30:54Z</time>
      </trkpt>
      <trkpt lat="44.11961" lon="2.27946">
        <ele>415.6</ele>
        <time>2016-05-04T13:30:55Z</time>
      </trkpt>
      <trkpt lat="44.11961" lon="2.27946">
        <ele>415.4</ele>
        <time>2016-05-04T13:30:56Z</time>
      </trkpt>
      <trkpt lat="44.1196" lon="2.27946">
        <ele>415.2</ele>
        <time>2016-05-04T13:30:57Z</time>
      </trkpt>
      <trkpt lat="44.1196" lon="2.27947">
        <ele>415.3</ele>
        <time>2016-05-04T13:30:58Z</time>
      </trkpt>
      <trkpt lat="44.1196" lon="2.27947">
        <ele>415.4</ele>
        <time>2016-05-04T13:30:59Z</time>
      </trkpt>
      <trkpt lat="44.11959" lon="2.27948">
        <ele>415.4</ele>
        <time>2016-05-04T13:31:00Z</time>
      </trkpt>
      <trkpt lat="44.11959" lon="2.27949">
        <ele>415.2</ele>
        <time>2016-05-04T13:31:01Z</time>
      </trkpt>
      <trkpt lat="44.11958" lon="2.27949">
        <ele>415.1</ele>
        <time>2016-05-04T13:31:02Z</time>
      </trkpt>
      <trkpt lat="44.11958" lon="2.2795">
        <ele>415</ele>
        <time>2016-05-04T13:31:03Z</time>
      </trkpt>
      <trkpt lat="44.11958" lon="2.2795">
        <ele>415.1</ele>
        <time>2016-05-04T13:31:04Z</time>
      </trkpt>
      <trkpt lat="44.11958" lon="2.2795">
        <ele>415.3</ele>
        <time>2016-05-04T13:31:05Z</time>
      </trkpt>
      <trkpt lat="44.11958" lon="2.27951">
        <ele>415.3</ele>
        <time>2016-05-04T13:31:06Z</time>
      </trkpt>
      <trkpt lat="44.11958" lon="2.27951">
        <ele>415.4</ele>
        <time>2016-05-04T13:31:07Z</time>
      </trkpt>
      <trkpt lat="44.11959" lon="2.27951">
        <ele>415.4</ele>
        <time>2016-05-04T13:31:08Z</time>
      </trkpt>
      <trkpt lat="44.11959" lon="2.27951">
        <ele>415.5</ele>
        <time>2016-05-04T13:31:09Z</time>
      </trkpt>
      <trkpt lat="44.1196" lon="2.27951">
        <ele>415.3</ele>
        <time>2016-05-04T13:31:10Z</time>
      </trkpt>
      <trkpt lat="44.1196" lon="2.27951">
        <ele>415.1</ele>
        <time>2016-05-04T13:31:11Z</time>
      </trkpt>
      <trkpt lat="44.11961" lon="2.27951">
        <ele>415</ele>
        <time>2016-05-04T13:31:12Z</time>
      </trkpt>
      <trkpt lat="44.11962" lon="2.27951">
        <ele>414.9</ele>
        <time>2016-05-04T13:31:13Z</time>
      </trkpt>
      <trkpt lat="44.11962" lon="2.27951">
        <ele>414.9</ele>
        <time>2016-05-04T13:31:14Z</time>
      </trkpt>
      <trkpt lat="44.11963" lon="2.27951">
        <ele>414.8</ele>
        <time>2016-05-04T13:31:15Z</time>
      </trkpt>
      <trkpt lat="44.11964" lon="2.27951">
        <ele>415.2</ele>
        <time>2016-05-04T13:31:16Z</time>
      </trkpt>
      <trkpt lat="44.11964" lon="2.27952">
        <ele>415.5</ele>
        <time>2016-05-04T13:31:17Z</time>
      </trkpt>
      <trkpt lat="44.11965" lon="2.27952">
        <ele>415.8</ele>
        <time>2016-05-04T13:31:18Z</time>
      </trkpt>
      <trkpt lat="44.11965" lon="2.27952">
        <ele>415.5</ele>
        <time>2016-05-04T13:31:19Z</time>
      </trkpt>
      <trkpt lat="44.11965" lon="2.27952">
        <ele>415.3</ele>
        <time>2016-05-04T13:31:20Z</time>
      </trkpt>
      <trkpt lat="44.11965" lon="2.27952">
        <ele>415.2</ele>
        <time>2016-05-04T13:31:21Z</time>
      </trkpt>
      <trkpt lat="44.11965" lon="2.27952">
        <ele>415</ele>
        <time>2016-05-04T13:31:22Z</time>
      </trkpt>
      <trkpt lat="44.11965" lon="2.27951">
        <ele>415</ele>
        <time>2016-05-04T13:31:23Z</time>
      </trkpt>
      <trkpt lat="44.11965" lon="2.27951">
        <ele>414.9</ele>
        <time>2016-05-04T13:31:24Z</time>
      </trkpt>
      <trkpt lat="44.11965" lon="2.27951">
        <ele>414.8</ele>
        <time>2016-05-04T13:31:25Z</time>
      </trkpt>
      <trkpt lat="44.11965" lon="2.2795">
        <ele>414.8</ele>
        <time>2016-05-04T13:31:26Z</time>
      </trkpt>
      <trkpt lat="44.11964" lon="2.2795">
        <ele>414.8</ele>
        <time>2016-05-04T13:31:27Z</time>
      </trkpt>
      <trkpt lat="44.11964" lon="2.27949">
        <ele>415.2</ele>
        <time>2016-05-04T13:31:28Z</time>
      </trkpt>
      <trkpt lat="44.11964" lon="2.27949">
        <ele>415.5</ele>
        <time>2016-05-04T13:31:29Z</time>
      </trkpt>
      <trkpt lat="44.11964" lon="2.27949">
        <ele>415.7</ele>
        <time>2016-05-04T13:31:30Z</time>
      </trkpt>
      <trkpt lat="44.11964" lon="2.27949">
        <ele>415.9</ele>
        <time>2016-05-04T13:31:31Z</time>
      </trkpt>
      <trkpt lat="44.11964" lon="2.27949">
        <ele>416</ele>
        <time>2016-05-04T13:31:32Z</time>
      </trkpt>
      <trkpt lat="44.11964" lon="2.27948">
        <ele>416.1</ele>
        <time>2016-05-04T13:31:33Z</time>
      </trkpt>
      <trkpt lat="44.11964" lon="2.27948">
        <ele>416</ele>
        <time>2016-05-04T13:31:34Z</time>
      </trkpt>
      <trkpt lat="44.11963" lon="2.27948">
        <ele>415.9</ele>
        <time>2016-05-04T13:31:35Z</time>
      </trkpt>
      <trkpt lat="44.11963" lon="2.27948">
        <ele>415.8</ele>
        <time>2016-05-04T13:31:36Z</time>
      </trkpt>
      <trkpt lat="44.11963" lon="2.27949">
        <ele>415.5</ele>
        <time>2016-05-04T13:31:37Z</time>
      </trkpt>
      <trkpt lat="44.11963" lon="2.27949">
        <ele>415.3</ele>
        <time>2016-05-04T13:31:38Z</time>
      </trkpt>
      <trkpt lat="44.11963" lon="2.27949">
        <ele>415.2</ele>
        <time>2016-05-04T13:31:39Z</time>
      </trkpt>
      <trkpt lat="44.11962" lon="2.27949">
        <ele>415.1</ele>
        <time>2016-05-04T13:31:40Z</time>
      </trkpt>
      <trkpt lat="44.11962" lon="2.27949">
        <ele>415</ele>
        <time>2016-05-04T13:31:41Z</time>
      </trkpt>
      <trkpt lat="44.11962" lon="2.27949">
        <ele>414.9</ele>
        <time>2016-05-04T13:31:42Z</time>
      </trkpt>
      <trkpt lat="44.11962" lon="2.27949">
        <ele>414.9</ele>
        <time>2016-05-04T13:31:43Z</time>
      </trkpt>
      <trkpt lat="44.11962" lon="2.27949">
        <ele>414.8</ele>
        <time>2016-05-04T13:31:44Z</time>
      </trkpt>
      <trkpt lat="44.11954" lon="2.27943">
        <ele>415.1</ele>
        <time>2016-05-04T13:32:05Z</time>
      </trkpt>
      <trkpt lat="44.11955" lon="2.27941">
        <ele>415</ele>
        <time>2016-05-04T13:32:06Z</time>
      </trkpt>
      <trkpt lat="44.11955" lon="2.2794">
        <ele>415.1</ele>
        <time>2016-05-04T13:32:07Z</time>
      </trkpt>
      <trkpt lat="44.11955" lon="2.27938">
        <ele>415.2</ele>
        <time>2016-05-04T13:32:08Z</time>
      </trkpt>
      <trkpt lat="44.11955" lon="2.27937">
        <ele>415.3</ele>
        <time>2016-05-04T13:32:09Z</time>
      </trkpt>
      <trkpt lat="44.11956" lon="2.27935">
        <ele>415.4</ele>
        <time>2016-05-04T13:32:10Z</time>
      </trkpt>
      <trkpt lat="44.11957" lon="2.27933">
        <ele>415.4</ele>
        <time>2016-05-04T13:32:11Z</time>
      </trkpt>
      <trkpt lat="44.11957" lon="2.27932">
        <ele>415.5</ele>
        <time>2016-05-04T13:32:12Z</time>
      </trkpt>
      <trkpt lat="44.11958" lon="2.27932">
        <ele>415.9</ele>
        <time>2016-05-04T13:32:13Z</time>
      </trkpt>
      <trkpt lat="44.11958" lon="2.27931">
        <ele>416.3</ele>
        <time>2016-05-04T13:32:14Z</time>
      </trkpt>
      <trkpt lat="44.11958" lon="2.2793">
        <ele>416.5</ele>
        <time>2016-05-04T13:32:15Z</time>
      </trkpt>
      <trkpt lat="44.11959" lon="2.2793">
        <ele>416.5</ele>
        <time>2016-05-04T13:32:16Z</time>
      </trkpt>
      <trkpt lat="44.11959" lon="2.27929">
        <ele>416.5</ele>
        <time>2016-05-04T13:32:17Z</time>
      </trkpt>
      <trkpt lat="44.1196" lon="2.27929">
        <ele>416.5</ele>
        <time>2016-05-04T13:32:18Z</time>
      </trkpt>
      <trkpt lat="44.1196" lon="2.27928">
        <ele>416.5</ele>
        <time>2016-05-04T13:32:19Z</time>
      </trkpt>
      <trkpt lat="44.11961" lon="2.27928">
        <ele>416.5</ele>
        <time>2016-05-04T13:32:20Z</time>
      </trkpt>
      <trkpt lat="44.11962" lon="2.27927">
        <ele>416.4</ele>
        <time>2016-05-04T13:32:21Z</time>
      </trkpt>
      <trkpt lat="44.11962" lon="2.27927">
        <ele>416.2</ele>
        <time>2016-05-04T13:32:22Z</time>
      </trkpt>
      <trkpt lat="44.11963" lon="2.27926">
        <ele>416.1</ele>
        <time>2016-05-04T13:32:23Z</time>
      </trkpt>
      <trkpt lat="44.11964" lon="2.27925">
        <ele>415.9</ele>
        <time>2016-05-04T13:32:24Z</time>
      </trkpt>
      <trkpt lat="44.11964" lon="2.27925">
        <ele>415.8</ele>
        <time>2016-05-04T13:32:25Z</time>
      </trkpt>
      <trkpt lat="44.11965" lon="2.27925">
        <ele>415.8</ele>
        <time>2016-05-04T13:32:26Z</time>
      </trkpt>
      <trkpt lat="44.11965" lon="2.27925">
        <ele>415.7</ele>
        <time>2016-05-04T13:32:27Z</time>
      </trkpt>
      <trkpt lat="44.11965" lon="2.27925">
        <ele>415.7</ele>
        <time>2016-05-04T13:32:28Z</time>
      </trkpt>
      <trkpt lat="44.11965" lon="2.27926">
        <ele>415.7</ele>
        <time>2016-05-04T13:32:29Z</time>
      </trkpt>
      <trkpt lat="44.11965" lon="2.27926">
        <ele>415.6</ele>
        <time>2016-05-04T13:32:30Z</time>
      </trkpt>
      <trkpt lat="44.11965" lon="2.27926">
        <ele>415.8</ele>
        <time>2016-05-04T13:32:31Z</time>
      </trkpt>
      <trkpt lat="44.11964" lon="2.27927">
        <ele>416</ele>
        <time>2016-05-04T13:32:32Z</time>
      </trkpt>
      <trkpt lat="44.11964" lon="2.27927">
        <ele>416.1</ele>
        <time>2016-05-04T13:32:33Z</time>
      </trkpt>
      <trkpt lat="44.11963" lon="2.27928">
        <ele>416.2</ele>
        <time>2016-05-04T13:32:34Z</time>
      </trkpt>
      <trkpt lat="44.11963" lon="2.27929">
        <ele>416.2</ele>
        <time>2016-05-04T13:32:35Z</time>
      </trkpt>
      <trkpt lat="44.11962" lon="2.27929">
        <ele>416.3</ele>
        <time>2016-05-04T13:32:36Z</time>
      </trkpt>
      <trkpt lat="44.11962" lon="2.2793">
        <ele>416.1</ele>
        <time>2016-05-04T13:32:37Z</time>
      </trkpt>
      <trkpt lat="44.11961" lon="2.27931">
        <ele>416</ele>
        <time>2016-05-04T13:32:38Z</time>
      </trkpt>
      <trkpt lat="44.11961" lon="2.27931">
        <ele>415.9</ele>
        <time>2016-05-04T13:32:39Z</time>
      </trkpt>
      <trkpt lat="44.1196" lon="2.27932">
        <ele>415.8</ele>
        <time>2016-05-04T13:32:40Z</time>
      </trkpt>
      <trkpt lat="44.11959" lon="2.27933">
        <ele>415.7</ele>
        <time>2016-05-04T13:32:41Z</time>
      </trkpt>
      <trkpt lat="44.11959" lon="2.27935">
        <ele>415.7</ele>
        <time>2016-05-04T13:32:42Z</time>
      </trkpt>
      <trkpt lat="44.11958" lon="2.27936">
        <ele>415.7</ele>
        <time>2016-05-04T13:32:43Z</time>
      </trkpt>
      <trkpt lat="44.11957" lon="2.27936">
        <ele>415.6</ele>
        <time>2016-05-04T13:32:44Z</time>
      </trkpt>
      <trkpt lat="44.11956" lon="2.27937">
        <ele>415.6</ele>
        <time>2016-05-04T13:32:45Z</time>
      </trkpt>
      <trkpt lat="44.11956" lon="2.27937">
        <ele>415.8</ele>
        <time>2016-05-04T13:32:46Z</time>
      </trkpt>
      <trkpt lat="44.11955" lon="2.27938">
        <ele>416</ele>
        <time>2016-05-04T13:32:47Z</time>
      </trkpt>
      <trkpt lat="44.11954" lon="2.27938">
        <ele>416.1</ele>
        <time>2016-05-04T13:32:48Z</time>
      </trkpt>
      <trkpt lat="44.11954" lon="2.27938">
        <ele>416.2</ele>
        <time>2016-05-04T13:32:49Z</time>
      </trkpt>
      <trkpt lat="44.11954" lon="2.27938">
        <ele>416.2</ele>
        <time>2016-05-04T13:32:50Z</time>
      </trkpt>
      <trkpt lat="44.11953" lon="2.27938">
        <ele>416.3</ele>
        <time>2016-05-04T13:32:51Z</time>
      </trkpt>
      <trkpt lat="44.11953" lon="2.27938">
        <ele>415.9</ele>
        <time>2016-05-04T13:32:52Z</time>
      </trkpt>
      <trkpt lat="44.11953" lon="2.27938">
        <ele>415.6</ele>
        <time>2016-05-04T13:32:53Z</time>
      </trkpt>
      <trkpt lat="44.11953" lon="2.27937">
        <ele>415.4</ele>
        <time>2016-05-04T13:32:54Z</time>
      </trkpt>
      <trkpt lat="44.11953" lon="2.27937">
        <ele>415.4</ele>
        <time>2016-05-04T13:32:55Z</time>
      </trkpt>
      <trkpt lat="44.11953" lon="2.27937">
        <ele>415.5</ele>
        <time>2016-05-04T13:32:56Z</time>
      </trkpt>
      <trkpt lat="44.11954" lon="2.27937">
        <ele>415.5</ele>
        <time>2016-05-04T13:32:57Z</time>
      </trkpt>
      <trkpt lat="44.11954" lon="2.27938">
        <ele>415.3</ele>
        <time>2016-05-04T13:32:58Z</time>
      </trkpt>
      <trkpt lat="44.11954" lon="2.27938">
        <ele>415.1</ele>
        <time>2016-05-04T13:32:59Z</time>
      </trkpt>
      <trkpt lat="44.11954" lon="2.27938">
        <ele>415</ele>
        <time>2016-05-04T13:33:00Z</time>
      </trkpt>
      <trkpt lat="44.11955" lon="2.27938">
        <ele>415</ele>
        <time>2016-05-04T13:33:01Z</time>
      </trkpt>
      <trkpt lat="44.11955" lon="2.27938">
        <ele>414.9</ele>
        <time>2016-05-04T13:33:02Z</time>
      </trkpt>
      <trkpt lat="44.11955" lon="2.27938">
        <ele>414.8</ele>
        <time>2016-05-04T13:33:03Z</time>
      </trkpt>
      <trkpt lat="44.11955" lon="2.27938">
        <ele>414.8</ele>
        <time>2016-05-04T13:33:04Z</time>
      </trkpt>
      <trkpt lat="44.11955" lon="2.27938">
        <ele>414.8</ele>
        <time>2016-05-04T13:33:05Z</time>
      </trkpt>
      <trkpt lat="44.11956" lon="2.27937">
        <ele>414.8</ele>
        <time>2016-05-04T13:33:06Z</time>
      </trkpt>
      <trkpt lat="44.11956" lon="2.27937">
        <ele>414.8</ele>
        <time>2016-05-04T13:33:07Z</time>
      </trkpt>
      <trkpt lat="44.11956" lon="2.27937">
        <ele>414.7</ele>
        <time>2016-05-04T13:33:08Z</time>
      </trkpt>
      <trkpt lat="44.11956" lon="2.27937">
        <ele>414.7</ele>
        <time>2016-05-04T13:33:09Z</time>
      </trkpt>
      <trkpt lat="44.11956" lon="2.27936">
        <ele>415.2</ele>
        <time>2016-05-04T13:33:10Z</time>
      </trkpt>
      <trkpt lat="44.11956" lon="2.27935">
        <ele>415.5</ele>
        <time>2016-05-04T13:33:11Z</time>
      </trkpt>
      <trkpt lat="44.11956" lon="2.27934">
        <ele>415.7</ele>
        <time>2016-05-04T13:33:12Z</time>
      </trkpt>
      <trkpt lat="44.11956" lon="2.27934">
        <ele>415.9</ele>
        <time>2016-05-04T13:33:13Z</time>
      </trkpt>
      <trkpt lat="44.11957" lon="2.27933">
        <ele>416</ele>
        <time>2016-05-04T13:33:14Z</time>
      </trkpt>
      <trkpt lat="44.11958" lon="2.27933">
        <ele>416.3</ele>
        <time>2016-05-04T13:33:17Z</time>
      </trkpt>
      <trkpt lat="44.11959" lon="2.27932">
        <ele>416.3</ele>
        <time>2016-05-04T13:33:18Z</time>
      </trkpt>
      <trkpt lat="44.1196" lon="2.27933">
        <ele>416.9</ele>
        <time>2016-05-04T13:33:21Z</time>
      </trkpt>
      <trkpt lat="44.1196" lon="2.27933">
        <ele>417</ele>
        <time>2016-05-04T13:33:22Z</time>
      </trkpt>
      <trkpt lat="44.11961" lon="2.27933">
        <ele>417.1</ele>
        <time>2016-05-04T13:33:23Z</time>
      </trkpt>
      <trkpt lat="44.11961" lon="2.27934">
        <ele>417.1</ele>
        <time>2016-05-04T13:33:24Z</time>
      </trkpt>
      <trkpt lat="44.11961" lon="2.27934">
        <ele>417.2</ele>
        <time>2016-05-04T13:33:25Z</time>
      </trkpt>
      <trkpt lat="44.11962" lon="2.27934">
        <ele>417.2</ele>
        <time>2016-05-04T13:33:26Z</time>
      </trkpt>
      <trkpt lat="44.11962" lon="2.27934">
        <ele>417.2</ele>
        <time>2016-05-04T13:33:27Z</time>
      </trkpt>
      <trkpt lat="44.11962" lon="2.27934">
        <ele>417.4</ele>
        <time>2016-05-04T13:33:28Z</time>
      </trkpt>
      <trkpt lat="44.11962" lon="2.27935">
        <ele>417.6</ele>
        <time>2016-05-04T13:33:29Z</time>
      </trkpt>
      <trkpt lat="44.11963" lon="2.27935">
        <ele>417.8</ele>
        <time>2016-05-04T13:33:30Z</time>
      </trkpt>
      <trkpt lat="44.11963" lon="2.27935">
        <ele>417.9</ele>
        <time>2016-05-04T13:33:31Z</time>
      </trkpt>
      <trkpt lat="44.11964" lon="2.27935">
        <ele>417.9</ele>
        <time>2016-05-04T13:33:32Z</time>
      </trkpt>
      <trkpt lat="44.11964" lon="2.27936">
        <ele>418</ele>
        <time>2016-05-04T13:33:33Z</time>
      </trkpt>
      <trkpt lat="44.11965" lon="2.27936">
        <ele>418</ele>
        <time>2016-05-04T13:33:34Z</time>
      </trkpt>
      <trkpt lat="44.11966" lon="2.27936">
        <ele>418.1</ele>
        <time>2016-05-04T13:33:35Z</time>
      </trkpt>
      <trkpt lat="44.11966" lon="2.27936">
        <ele>418.1</ele>
        <time>2016-05-04T13:33:36Z</time>
      </trkpt>
      <trkpt lat="44.11967" lon="2.27936">
        <ele>418.1</ele>
        <time>2016-05-04T13:33:37Z</time>
      </trkpt>
      <trkpt lat="44.11968" lon="2.27936">
        <ele>418.1</ele>
        <time>2016-05-04T13:33:38Z</time>
      </trkpt>
      <trkpt lat="44.11969" lon="2.27936">
        <ele>418.1</ele>
        <time>2016-05-04T13:33:39Z</time>
      </trkpt>
      <trkpt lat="44.1197" lon="2.27936">
        <ele>417.7</ele>
        <time>2016-05-04T13:33:40Z</time>
      </trkpt>
      <trkpt lat="44.1197" lon="2.27936">
        <ele>417.4</ele>
        <time>2016-05-04T13:33:41Z</time>
      </trkpt>
      <trkpt lat="44.1197" lon="2.27936">
        <ele>417.1</ele>
        <time>2016-05-04T13:33:42Z</time>
      </trkpt>
      <trkpt lat="44.11971" lon="2.27936">
        <ele>417.4</ele>
        <time>2016-05-04T13:33:43Z</time>
      </trkpt>
      <trkpt lat="44.11971" lon="2.27936">
        <ele>417.6</ele>
        <time>2016-05-04T13:33:44Z</time>
      </trkpt>
      <trkpt lat="44.11972" lon="2.27935">
        <ele>417.7</ele>
        <time>2016-05-04T13:33:45Z</time>
      </trkpt>
      <trkpt lat="44.11972" lon="2.27935">
        <ele>418</ele>
        <time>2016-05-04T13:33:46Z</time>
      </trkpt>
      <trkpt lat="44.11973" lon="2.27935">
        <ele>418.3</ele>
        <time>2016-05-04T13:33:47Z</time>
      </trkpt>
      <trkpt lat="44.11973" lon="2.27935">
        <ele>418.5</ele>
        <time>2016-05-04T13:33:48Z</time>
      </trkpt>
      <trkpt lat="44.11974" lon="2.27935">
        <ele>419</ele>
        <time>2016-05-04T13:33:49Z</time>
      </trkpt>
      <trkpt lat="44.11974" lon="2.27935">
        <ele>419.5</ele>
        <time>2016-05-04T13:33:50Z</time>
      </trkpt>
      <trkpt lat="44.11974" lon="2.27935">
        <ele>419.8</ele>
        <time>2016-05-04T13:33:51Z</time>
      </trkpt>
      <trkpt lat="44.11974" lon="2.27935">
        <ele>420</ele>
        <time>2016-05-04T13:33:52Z</time>
      </trkpt>
      <trkpt lat="44.11974" lon="2.27935">
        <ele>420.2</ele>
        <time>2016-05-04T13:33:53Z</time>
      </trkpt>
      <trkpt lat="44.11975" lon="2.27935">
        <ele>420.3</ele>
        <time>2016-05-04T13:33:54Z</time>
      </trkpt>
      <trkpt lat="44.11975" lon="2.27935">
        <ele>420.9</ele>
        <time>2016-05-04T13:33:55Z</time>
      </trkpt>
      <trkpt lat="44.11975" lon="2.27935">
        <ele>421.3</ele>
        <time>2016-05-04T13:33:56Z</time>
      </trkpt>
      <trkpt lat="44.11975" lon="2.27935">
        <ele>421.6</ele>
        <time>2016-05-04T13:33:57Z</time>
      </trkpt>
      <trkpt lat="44.11975" lon="2.27934">
        <ele>422</ele>
        <time>2016-05-04T13:33:59Z</time>
      </trkpt>
      <trkpt lat="44.11976" lon="2.27935">
        <ele>423</ele>
        <time>2016-05-04T13:34:05Z</time>
      </trkpt>
      <trkpt lat="44.11976" lon="2.27935">
        <ele>423.1</ele>
        <time>2016-05-04T13:34:06Z</time>
      </trkpt>
      <trkpt lat="44.11976" lon="2.27935">
        <ele>423.6</ele>
        <time>2016-05-04T13:34:07Z</time>
      </trkpt>
      <trkpt lat="44.11977" lon="2.27934">
        <ele>423.9</ele>
        <time>2016-05-04T13:34:08Z</time>
      </trkpt>
      <trkpt lat="44.11977" lon="2.27934">
        <ele>424.6</ele>
        <time>2016-05-04T13:34:10Z</time>
      </trkpt>
      <trkpt lat="44.11977" lon="2.27934">
        <ele>425.4</ele>
        <time>2016-05-04T13:34:13Z</time>
      </trkpt>
      <trkpt lat="44.11977" lon="2.27934">
        <ele>425.5</ele>
        <time>2016-05-04T13:34:14Z</time>
      </trkpt>
      <trkpt lat="44.11977" lon="2.27933">
        <ele>425.9</ele>
        <time>2016-05-04T13:34:16Z</time>
      </trkpt>
      <trkpt lat="44.11977" lon="2.27933">
        <ele>426.1</ele>
        <time>2016-05-04T13:34:17Z</time>
      </trkpt>
      <trkpt lat="44.11977" lon="2.27933">
        <ele>426.3</ele>
        <time>2016-05-04T13:34:18Z</time>
      </trkpt>
      <trkpt lat="44.11977" lon="2.27933">
        <ele>426.4</ele>
        <time>2016-05-04T13:34:19Z</time>
      </trkpt>
      <trkpt lat="44.11978" lon="2.27934">
        <ele>426.5</ele>
        <time>2016-05-04T13:34:20Z</time>
      </trkpt>
      <trkpt lat="44.11978" lon="2.27934">
        <ele>426.6</ele>
        <time>2016-05-04T13:34:21Z</time>
      </trkpt>
      <trkpt lat="44.11979" lon="2.27934">
        <ele>426.4</ele>
        <time>2016-05-04T13:34:22Z</time>
      </trkpt>
      <trkpt lat="44.11979" lon="2.27934">
        <ele>426.3</ele>
        <time>2016-05-04T13:34:23Z</time>
      </trkpt>
      <trkpt lat="44.11979" lon="2.27935">
        <ele>426.2</ele>
        <time>2016-05-04T13:34:24Z</time>
      </trkpt>
      <trkpt lat="44.1198" lon="2.27935">
        <ele>426.8</ele>
        <time>2016-05-04T13:34:25Z</time>
      </trkpt>
      <trkpt lat="44.1198" lon="2.27934">
        <ele>427.2</ele>
        <time>2016-05-04T13:34:26Z</time>
      </trkpt>
      <trkpt lat="44.1198" lon="2.27934">
        <ele>427.5</ele>
        <time>2016-05-04T13:34:27Z</time>
      </trkpt>
      <trkpt lat="44.1198" lon="2.27934">
        <ele>427.8</ele>
        <time>2016-05-04T13:34:28Z</time>
      </trkpt>
      <trkpt lat="44.1198" lon="2.27934">
        <ele>427.9</ele>
        <time>2016-05-04T13:34:29Z</time>
      </trkpt>
      <trkpt lat="44.1198" lon="2.27934">
        <ele>428.1</ele>
        <time>2016-05-04T13:34:30Z</time>
      </trkpt>
      <trkpt lat="44.11981" lon="2.27934">
        <ele>428.2</ele>
        <time>2016-05-04T13:34:31Z</time>
      </trkpt>
      <trkpt lat="44.11981" lon="2.27934">
        <ele>428.3</ele>
        <time>2016-05-04T13:34:32Z</time>
      </trkpt>
      <trkpt lat="44.11981" lon="2.27935">
        <ele>428.3</ele>
        <time>2016-05-04T13:34:33Z</time>
      </trkpt>
      <trkpt lat="44.11981" lon="2.27935">
        <ele>428.1</ele>
        <time>2016-05-04T13:34:34Z</time>
      </trkpt>
      <trkpt lat="44.11981" lon="2.27935">
        <ele>428</ele>
        <time>2016-05-04T13:34:35Z</time>
      </trkpt>
      <trkpt lat="44.11982" lon="2.27935">
        <ele>427.9</ele>
        <time>2016-05-04T13:34:36Z</time>
      </trkpt>
      <trkpt lat="44.11982" lon="2.27935">
        <ele>428.1</ele>
        <time>2016-05-04T13:34:37Z</time>
      </trkpt>
      <trkpt lat="44.11982" lon="2.27935">
        <ele>428.2</ele>
        <time>2016-05-04T13:34:38Z</time>
      </trkpt>
      <trkpt lat="44.11982" lon="2.27936">
        <ele>428.2</ele>
        <time>2016-05-04T13:34:39Z</time>
      </trkpt>
      <trkpt lat="44.11983" lon="2.27936">
        <ele>428.5</ele>
        <time>2016-05-04T13:34:40Z</time>
      </trkpt>
      <trkpt lat="44.11983" lon="2.27936">
        <ele>428.7</ele>
        <time>2016-05-04T13:34:41Z</time>
      </trkpt>
      <trkpt lat="44.11983" lon="2.27936">
        <ele>428.9</ele>
        <time>2016-05-04T13:34:42Z</time>
      </trkpt>
      <trkpt lat="44.11984" lon="2.27936">
        <ele>428.8</ele>
        <time>2016-05-04T13:34:43Z</time>
      </trkpt>
      <trkpt lat="44.11984" lon="2.27936">
        <ele>428.7</ele>
        <time>2016-05-04T13:34:44Z</time>
      </trkpt>
      <trkpt lat="44.11984" lon="2.27936">
        <ele>428.7</ele>
        <time>2016-05-04T13:34:45Z</time>
      </trkpt>
      <trkpt lat="44.11985" lon="2.27936">
        <ele>428.6</ele>
        <time>2016-05-04T13:34:46Z</time>
      </trkpt>
      <trkpt lat="44.11985" lon="2.27936">
        <ele>428.6</ele>
        <time>2016-05-04T13:34:47Z</time>
      </trkpt>
      <trkpt lat="44.11985" lon="2.27935">
        <ele>428.6</ele>
        <time>2016-05-04T13:34:48Z</time>
      </trkpt>
      <trkpt lat="44.11985" lon="2.2793">
        <ele>430.5</ele>
        <time>2016-05-04T13:34:57Z</time>
      </trkpt>
      <trkpt lat="44.11985" lon="2.2793">
        <ele>430.6</ele>
        <time>2016-05-04T13:34:58Z</time>
      </trkpt>
      <trkpt lat="44.11985" lon="2.2793">
        <ele>430.8</ele>
        <time>2016-05-04T13:35:00Z</time>
      </trkpt>
      <trkpt lat="44.11986" lon="2.2793">
        <ele>431.1</ele>
        <time>2016-05-04T13:35:01Z</time>
      </trkpt>
      <trkpt lat="44.11986" lon="2.2793">
        <ele>431.3</ele>
        <time>2016-05-04T13:35:02Z</time>
      </trkpt>
      <trkpt lat="44.11986" lon="2.2793">
        <ele>431.5</ele>
        <time>2016-05-04T13:35:03Z</time>
      </trkpt>
      <trkpt lat="44.11986" lon="2.2793">
        <ele>431.8</ele>
        <time>2016-05-04T13:35:04Z</time>
      </trkpt>
      <trkpt lat="44.11986" lon="2.2793">
        <ele>432</ele>
        <time>2016-05-04T13:35:05Z</time>
      </trkpt>
      <trkpt lat="44.11986" lon="2.2793">
        <ele>432.2</ele>
        <time>2016-05-04T13:35:06Z</time>
      </trkpt>
      <trkpt lat="44.11986" lon="2.27931">
        <ele>432.2</ele>
        <time>2016-05-04T13:35:07Z</time>
      </trkpt>
      <trkpt lat="44.11986" lon="2.27931">
        <ele>432.1</ele>
        <time>2016-05-04T13:35:08Z</time>
      </trkpt>
      <trkpt lat="44.11986" lon="2.27931">
        <ele>432.1</ele>
        <time>2016-05-04T13:35:09Z</time>
      </trkpt>
      <trkpt lat="44.11986" lon="2.27931">
        <ele>432</ele>
        <time>2016-05-04T13:35:10Z</time>
      </trkpt>
      <trkpt lat="44.11987" lon="2.27931">
        <ele>432</ele>
        <time>2016-05-04T13:35:11Z</time>
      </trkpt>
      <trkpt lat="44.11987" lon="2.27931">
        <ele>432</ele>
        <time>2016-05-04T13:35:12Z</time>
      </trkpt>
      <trkpt lat="44.11987" lon="2.27931">
        <ele>432</ele>
        <time>2016-05-04T13:35:13Z</time>
      </trkpt>
      <trkpt lat="44.11987" lon="2.27931">
        <ele>432</ele>
        <time>2016-05-04T13:35:14Z</time>
      </trkpt>
      <trkpt lat="44.11987" lon="2.27931">
        <ele>432</ele>
        <time>2016-05-04T13:35:15Z</time>
      </trkpt>
      <trkpt lat="44.11987" lon="2.27931">
        <ele>432.2</ele>
        <time>2016-05-04T13:35:16Z</time>
      </trkpt>
      <trkpt lat="44.11987" lon="2.27931">
        <ele>432.3</ele>
        <time>2016-05-04T13:35:17Z</time>
      </trkpt>
      <trkpt lat="44.11988" lon="2.27933">
        <ele>431.8</ele>
        <time>2016-05-04T13:35:20Z</time>
      </trkpt>
      <trkpt lat="44.11988" lon="2.27933">
        <ele>431.7</ele>
        <time>2016-05-04T13:35:21Z</time>
      </trkpt>
      <trkpt lat="44.11989" lon="2.27937">
        <ele>432.2</ele>
        <time>2016-05-04T13:35:25Z</time>
      </trkpt>
      <trkpt lat="44.11988" lon="2.27939">
        <ele>432.1</ele>
        <time>2016-05-04T13:35:27Z</time>
      </trkpt>
      <trkpt lat="44.11988" lon="2.2794">
        <ele>432.1</ele>
        <time>2016-05-04T13:35:28Z</time>
      </trkpt>
      <trkpt lat="44.11988" lon="2.27941">
        <ele>432</ele>
        <time>2016-05-04T13:35:29Z</time>
      </trkpt>
      <trkpt lat="44.11984" lon="2.27956">
        <ele>431.7</ele>
        <time>2016-05-04T13:35:42Z</time>
      </trkpt>
      <trkpt lat="44.11984" lon="2.27957">
        <ele>431.5</ele>
        <time>2016-05-04T13:35:43Z</time>
      </trkpt>
      <trkpt lat="44.11984" lon="2.27958">
        <ele>431.4</ele>
        <time>2016-05-04T13:35:44Z</time>
      </trkpt>
      <trkpt lat="44.11984" lon="2.27959">
        <ele>431.3</ele>
        <time>2016-05-04T13:35:45Z</time>
      </trkpt>
      <trkpt lat="44.11983" lon="2.27961">
        <ele>431.2</ele>
        <time>2016-05-04T13:35:47Z</time>
      </trkpt>
      <trkpt lat="44.11982" lon="2.27963">
        <ele>431.1</ele>
        <time>2016-05-04T13:35:50Z</time>
      </trkpt>
      <trkpt lat="44.11981" lon="2.27964">
        <ele>431.1</ele>
        <time>2016-05-04T13:35:51Z</time>
      </trkpt>
      <trkpt lat="44.11981" lon="2.27966">
        <ele>431.3</ele>
        <time>2016-05-04T13:35:52Z</time>
      </trkpt>
      <trkpt lat="44.1198" lon="2.27967">
        <ele>431.5</ele>
        <time>2016-05-04T13:35:53Z</time>
      </trkpt>
      <trkpt lat="44.1198" lon="2.27968">
        <ele>431.6</ele>
        <time>2016-05-04T13:35:54Z</time>
      </trkpt>
      <trkpt lat="44.11977" lon="2.27975">
        <ele>430.5</ele>
        <time>2016-05-04T13:36:00Z</time>
      </trkpt>
      <trkpt lat="44.11977" lon="2.27976">
        <ele>430.4</ele>
        <time>2016-05-04T13:36:01Z</time>
      </trkpt>
      <trkpt lat="44.11967" lon="2.27992">
        <ele>431.6</ele>
        <time>2016-05-04T13:36:22Z</time>
      </trkpt>
      <trkpt lat="44.11964" lon="2.27999">
        <ele>432.1</ele>
        <time>2016-05-04T13:36:28Z</time>
      </trkpt>
      <trkpt lat="44.11963" lon="2.28">
        <ele>432.3</ele>
        <time>2016-05-04T13:36:29Z</time>
      </trkpt>
      <trkpt lat="44.11962" lon="2.28001">
        <ele>432.4</ele>
        <time>2016-05-04T13:36:30Z</time>
      </trkpt>
      <trkpt lat="44.11954" lon="2.2802">
        <ele>434.3</ele>
        <time>2016-05-04T13:36:44Z</time>
      </trkpt>
      <trkpt lat="44.11953" lon="2.28021">
        <ele>434.4</ele>
        <time>2016-05-04T13:36:45Z</time>
      </trkpt>
      <trkpt lat="44.11948" lon="2.28046">
        <ele>435.9</ele>
        <time>2016-05-04T13:37:06Z</time>
      </trkpt>
      <trkpt lat="44.11948" lon="2.28047">
        <ele>435.8</ele>
        <time>2016-05-04T13:37:07Z</time>
      </trkpt>
      <trkpt lat="44.11948" lon="2.28054">
        <ele>436.5</ele>
        <time>2016-05-04T13:37:12Z</time>
      </trkpt>
      <trkpt lat="44.11948" lon="2.28055">
        <ele>436.2</ele>
        <time>2016-05-04T13:37:13Z</time>
      </trkpt>
      <trkpt lat="44.11943" lon="2.28075">
        <ele>436.6</ele>
        <time>2016-05-04T13:37:26Z</time>
      </trkpt>
      <trkpt lat="44.11942" lon="2.28076">
        <ele>436.7</ele>
        <time>2016-05-04T13:37:27Z</time>
      </trkpt>
      <trkpt lat="44.11942" lon="2.28078">
        <ele>436.8</ele>
        <time>2016-05-04T13:37:28Z</time>
      </trkpt>
      <trkpt lat="44.11942" lon="2.28079">
        <ele>436.9</ele>
        <time>2016-05-04T13:37:29Z</time>
      </trkpt>
      <trkpt lat="44.11942" lon="2.2808">
        <ele>437</ele>
        <time>2016-05-04T13:37:30Z</time>
      </trkpt>
      <trkpt lat="44.11942" lon="2.28081">
        <ele>437.2</ele>
        <time>2016-05-04T13:37:31Z</time>
      </trkpt>
      <trkpt lat="44.11942" lon="2.28082">
        <ele>437.4</ele>
        <time>2016-05-04T13:37:32Z</time>
      </trkpt>
      <trkpt lat="44.11942" lon="2.28083">
        <ele>437.5</ele>
        <time>2016-05-04T13:37:33Z</time>
      </trkpt>
      <trkpt lat="44.11942" lon="2.28084">
        <ele>437.4</ele>
        <time>2016-05-04T13:37:34Z</time>
      </trkpt>
      <trkpt lat="44.11942" lon="2.28085">
        <ele>437.4</ele>
        <time>2016-05-04T13:37:35Z</time>
      </trkpt>
      <trkpt lat="44.11941" lon="2.28092">
        <ele>438.1</ele>
        <time>2016-05-04T13:37:40Z</time>
      </trkpt>
      <trkpt lat="44.11941" lon="2.28093">
        <ele>438.1</ele>
        <time>2016-05-04T13:37:41Z</time>
      </trkpt>
      <trkpt lat="44.11941" lon="2.28095">
        <ele>438.1</ele>
        <time>2016-05-04T13:37:42Z</time>
      </trkpt>
      <trkpt lat="44.11942" lon="2.28097">
        <ele>438.3</ele>
        <time>2016-05-04T13:37:43Z</time>
      </trkpt>
      <trkpt lat="44.11944" lon="2.28113">
        <ele>439.2</ele>
        <time>2016-05-04T13:37:53Z</time>
      </trkpt>
      <trkpt lat="44.11944" lon="2.28114">
        <ele>439.3</ele>
        <time>2016-05-04T13:37:54Z</time>
      </trkpt>
      <trkpt lat="44.11945" lon="2.28137">
        <ele>442.3</ele>
        <time>2016-05-04T13:38:09Z</time>
      </trkpt>
      <trkpt lat="44.11945" lon="2.28139">
        <ele>442.7</ele>
        <time>2016-05-04T13:38:10Z</time>
      </trkpt>
      <trkpt lat="44.11945" lon="2.2814">
        <ele>443</ele>
        <time>2016-05-04T13:38:11Z</time>
      </trkpt>
      <trkpt lat="44.11945" lon="2.28141">
        <ele>443.3</ele>
        <time>2016-05-04T13:38:12Z</time>
      </trkpt>
      <trkpt lat="44.11945" lon="2.28142">
        <ele>443</ele>
        <time>2016-05-04T13:38:13Z</time>
      </trkpt>
      <trkpt lat="44.11945" lon="2.28143">
        <ele>442.8</ele>
        <time>2016-05-04T13:38:14Z</time>
      </trkpt>
      <trkpt lat="44.11944" lon="2.28144">
        <ele>442.7</ele>
        <time>2016-05-04T13:38:15Z</time>
      </trkpt>
      <trkpt lat="44.11944" lon="2.28145">
        <ele>443</ele>
        <time>2016-05-04T13:38:16Z</time>
      </trkpt>
      <trkpt lat="44.11943" lon="2.28146">
        <ele>443.3</ele>
        <time>2016-05-04T13:38:17Z</time>
      </trkpt>
      <trkpt lat="44.11943" lon="2.28147">
        <ele>443.5</ele>
        <time>2016-05-04T13:38:18Z</time>
      </trkpt>
      <trkpt lat="44.11942" lon="2.28148">
        <ele>443.8</ele>
        <time>2016-05-04T13:38:19Z</time>
      </trkpt>
      <trkpt lat="44.11942" lon="2.28149">
        <ele>444.1</ele>
        <time>2016-05-04T13:38:20Z</time>
      </trkpt>
      <trkpt lat="44.11941" lon="2.2815">
        <ele>444.3</ele>
        <time>2016-05-04T13:38:21Z</time>
      </trkpt>
      <trkpt lat="44.11941" lon="2.28151">
        <ele>444.2</ele>
        <time>2016-05-04T13:38:22Z</time>
      </trkpt>
      <trkpt lat="44.1194" lon="2.28152">
        <ele>444.2</ele>
        <time>2016-05-04T13:38:23Z</time>
      </trkpt>
      <trkpt lat="44.1194" lon="2.28153">
        <ele>444.1</ele>
        <time>2016-05-04T13:38:24Z</time>
      </trkpt>
      <trkpt lat="44.1194" lon="2.28154">
        <ele>444.5</ele>
        <time>2016-05-04T13:38:25Z</time>
      </trkpt>
      <trkpt lat="44.11939" lon="2.28155">
        <ele>444.8</ele>
        <time>2016-05-04T13:38:26Z</time>
      </trkpt>
      <trkpt lat="44.11939" lon="2.28156">
        <ele>445.1</ele>
        <time>2016-05-04T13:38:27Z</time>
      </trkpt>
      <trkpt lat="44.11939" lon="2.28157">
        <ele>445.4</ele>
        <time>2016-05-04T13:38:28Z</time>
      </trkpt>
      <trkpt lat="44.11939" lon="2.28158">
        <ele>445.7</ele>
        <time>2016-05-04T13:38:29Z</time>
      </trkpt>
      <trkpt lat="44.11939" lon="2.28162">
        <ele>446.4</ele>
        <time>2016-05-04T13:38:34Z</time>
      </trkpt>
      <trkpt lat="44.1194" lon="2.28163">
        <ele>446.4</ele>
        <time>2016-05-04T13:38:35Z</time>
      </trkpt>
      <trkpt lat="44.11959" lon="2.28202">
        <ele>450.9</ele>
        <time>2016-05-04T13:38:58Z</time>
      </trkpt>
      <trkpt lat="44.1196" lon="2.28203">
        <ele>451.1</ele>
        <time>2016-05-04T13:38:59Z</time>
      </trkpt>
      <trkpt lat="44.11967" lon="2.28214">
        <ele>452.6</ele>
        <time>2016-05-04T13:39:11Z</time>
      </trkpt>
      <trkpt lat="44.11967" lon="2.28215">
        <ele>452.6</ele>
        <time>2016-05-04T13:39:12Z</time>
      </trkpt>
      <trkpt lat="44.11967" lon="2.28215">
        <ele>452.6</ele>
        <time>2016-05-04T13:39:13Z</time>
      </trkpt>
      <trkpt lat="44.11968" lon="2.28216">
        <ele>452.6</ele>
        <time>2016-05-04T13:39:14Z</time>
      </trkpt>
      <trkpt lat="44.11968" lon="2.28216">
        <ele>452.6</ele>
        <time>2016-05-04T13:39:15Z</time>
      </trkpt>
      <trkpt lat="44.11968" lon="2.28217">
        <ele>452.9</ele>
        <time>2016-05-04T13:39:16Z</time>
      </trkpt>
      <trkpt lat="44.11969" lon="2.28218">
        <ele>453</ele>
        <time>2016-05-04T13:39:17Z</time>
      </trkpt>
      <trkpt lat="44.11969" lon="2.28218">
        <ele>453.1</ele>
        <time>2016-05-04T13:39:18Z</time>
      </trkpt>
      <trkpt lat="44.1197" lon="2.28219">
        <ele>453.5</ele>
        <time>2016-05-04T13:39:19Z</time>
      </trkpt>
      <trkpt lat="44.1197" lon="2.2822">
        <ele>453.7</ele>
        <time>2016-05-04T13:39:20Z</time>
      </trkpt>
      <trkpt lat="44.11972" lon="2.28223">
        <ele>454.5</ele>
        <time>2016-05-04T13:39:23Z</time>
      </trkpt>
      <trkpt lat="44.11973" lon="2.28224">
        <ele>454.7</ele>
        <time>2016-05-04T13:39:24Z</time>
      </trkpt>
      <trkpt lat="44.11973" lon="2.28225">
        <ele>455.2</ele>
        <time>2016-05-04T13:39:25Z</time>
      </trkpt>
      <trkpt lat="44.11974" lon="2.28226">
        <ele>455.7</ele>
        <time>2016-05-04T13:39:26Z</time>
      </trkpt>
      <trkpt lat="44.11974" lon="2.28227">
        <ele>456</ele>
        <time>2016-05-04T13:39:27Z</time>
      </trkpt>
      <trkpt lat="44.11975" lon="2.28227">
        <ele>455.6</ele>
        <time>2016-05-04T13:39:28Z</time>
      </trkpt>
      <trkpt lat="44.11976" lon="2.28228">
        <ele>455.3</ele>
        <time>2016-05-04T13:39:29Z</time>
      </trkpt>
      <trkpt lat="44.11976" lon="2.28229">
        <ele>455.1</ele>
        <time>2016-05-04T13:39:30Z</time>
      </trkpt>
      <trkpt lat="44.11977" lon="2.2823">
        <ele>455.5</ele>
        <time>2016-05-04T13:39:31Z</time>
      </trkpt>
      <trkpt lat="44.11977" lon="2.2823">
        <ele>455.9</ele>
        <time>2016-05-04T13:39:32Z</time>
      </trkpt>
      <trkpt lat="44.11978" lon="2.28231">
        <ele>456.2</ele>
        <time>2016-05-04T13:39:33Z</time>
      </trkpt>
      <trkpt lat="44.11979" lon="2.28232">
        <ele>456.4</ele>
        <time>2016-05-04T13:39:34Z</time>
      </trkpt>
      <trkpt lat="44.11979" lon="2.28232">
        <ele>456.5</ele>
        <time>2016-05-04T13:39:35Z</time>
      </trkpt>
      <trkpt lat="44.1198" lon="2.28233">
        <ele>456.6</ele>
        <time>2016-05-04T13:39:36Z</time>
      </trkpt>
      <trkpt lat="44.11981" lon="2.28233">
        <ele>456.9</ele>
        <time>2016-05-04T13:39:37Z</time>
      </trkpt>
      <trkpt lat="44.11981" lon="2.28234">
        <ele>457.2</ele>
        <time>2016-05-04T13:39:38Z</time>
      </trkpt>
      <trkpt lat="44.11982" lon="2.28234">
        <ele>457.3</ele>
        <time>2016-05-04T13:39:39Z</time>
      </trkpt>
      <trkpt lat="44.11983" lon="2.28235">
        <ele>457.2</ele>
        <time>2016-05-04T13:39:40Z</time>
      </trkpt>
      <trkpt lat="44.11983" lon="2.28236">
        <ele>457.2</ele>
        <time>2016-05-04T13:39:41Z</time>
      </trkpt>
      <trkpt lat="44.11984" lon="2.28236">
        <ele>457.1</ele>
        <time>2016-05-04T13:39:42Z</time>
      </trkpt>
      <trkpt lat="44.11985" lon="2.28237">
        <ele>457.1</ele>
        <time>2016-05-04T13:39:43Z</time>
      </trkpt>
      <trkpt lat="44.11985" lon="2.28238">
        <ele>457.1</ele>
        <time>2016-05-04T13:39:44Z</time>
      </trkpt>
      <trkpt lat="44.11986" lon="2.28238">
        <ele>457</ele>
        <time>2016-05-04T13:39:45Z</time>
      </trkpt>
      <trkpt lat="44.11987" lon="2.28239">
        <ele>457.4</ele>
        <time>2016-05-04T13:39:46Z</time>
      </trkpt>
      <trkpt lat="44.11987" lon="2.2824">
        <ele>457.8</ele>
        <time>2016-05-04T13:39:47Z</time>
      </trkpt>
      <trkpt lat="44.11988" lon="2.2824">
        <ele>458</ele>
        <time>2016-05-04T13:39:48Z</time>
      </trkpt>
      <trkpt lat="44.11988" lon="2.28241">
        <ele>458.2</ele>
        <time>2016-05-04T13:39:49Z</time>
      </trkpt>
      <trkpt lat="44.11989" lon="2.28241">
        <ele>458.3</ele>
        <time>2016-05-04T13:39:50Z</time>
      </trkpt>
      <trkpt lat="44.11989" lon="2.28242">
        <ele>458.4</ele>
        <time>2016-05-04T13:39:51Z</time>
      </trkpt>
      <trkpt lat="44.1199" lon="2.28243">
        <ele>459.1</ele>
        <time>2016-05-04T13:39:52Z</time>
      </trkpt>
      <trkpt lat="44.1199" lon="2.28243">
        <ele>459.7</ele>
        <time>2016-05-04T13:39:53Z</time>
      </trkpt>
      <trkpt lat="44.11991" lon="2.28244">
        <ele>460.1</ele>
        <time>2016-05-04T13:39:54Z</time>
      </trkpt>
      <trkpt lat="44.11991" lon="2.28245">
        <ele>460.2</ele>
        <time>2016-05-04T13:39:55Z</time>
      </trkpt>
      <trkpt lat="44.11992" lon="2.28245">
        <ele>460.2</ele>
        <time>2016-05-04T13:39:56Z</time>
      </trkpt>
      <trkpt lat="44.11992" lon="2.28246">
        <ele>460.3</ele>
        <time>2016-05-04T13:39:57Z</time>
      </trkpt>
      <trkpt lat="44.11993" lon="2.28247">
        <ele>460.1</ele>
        <time>2016-05-04T13:39:58Z</time>
      </trkpt>
      <trkpt lat="44.11993" lon="2.28247">
        <ele>460</ele>
        <time>2016-05-04T13:39:59Z</time>
      </trkpt>
      <trkpt lat="44.11993" lon="2.28248">
        <ele>459.9</ele>
        <time>2016-05-04T13:40:00Z</time>
      </trkpt>
      <trkpt lat="44.11994" lon="2.28249">
        <ele>460.2</ele>
        <time>2016-05-04T13:40:01Z</time>
      </trkpt>
      <trkpt lat="44.11994" lon="2.28249">
        <ele>460.5</ele>
        <time>2016-05-04T13:40:02Z</time>
      </trkpt>
      <trkpt lat="44.11995" lon="2.2825">
        <ele>460.7</ele>
        <time>2016-05-04T13:40:03Z</time>
      </trkpt>
      <trkpt lat="44.11995" lon="2.28251">
        <ele>460.6</ele>
        <time>2016-05-04T13:40:04Z</time>
      </trkpt>
      <trkpt lat="44.11996" lon="2.28252">
        <ele>460.6</ele>
        <time>2016-05-04T13:40:05Z</time>
      </trkpt>
      <trkpt lat="44.11996" lon="2.28252">
        <ele>460.5</ele>
        <time>2016-05-04T13:40:06Z</time>
      </trkpt>
      <trkpt lat="44.11997" lon="2.28253">
        <ele>460.7</ele>
        <time>2016-05-04T13:40:07Z</time>
      </trkpt>
      <trkpt lat="44.11997" lon="2.28254">
        <ele>460.9</ele>
        <time>2016-05-04T13:40:08Z</time>
      </trkpt>
      <trkpt lat="44.12008" lon="2.28269">
        <ele>462.9</ele>
        <time>2016-05-04T13:40:23Z</time>
      </trkpt>
      <trkpt lat="44.12008" lon="2.2827">
        <ele>463.1</ele>
        <time>2016-05-04T13:40:24Z</time>
      </trkpt>
      <trkpt lat="44.12009" lon="2.28271">
        <ele>463.5</ele>
        <time>2016-05-04T13:40:25Z</time>
      </trkpt>
      <trkpt lat="44.12009" lon="2.28272">
        <ele>463.8</ele>
        <time>2016-05-04T13:40:26Z</time>
      </trkpt>
      <trkpt lat="44.1201" lon="2.28273">
        <ele>464.1</ele>
        <time>2016-05-04T13:40:27Z</time>
      </trkpt>
      <trkpt lat="44.1201" lon="2.28274">
        <ele>464</ele>
        <time>2016-05-04T13:40:28Z</time>
      </trkpt>
      <trkpt lat="44.12011" lon="2.28274">
        <ele>464</ele>
        <time>2016-05-04T13:40:29Z</time>
      </trkpt>
      <trkpt lat="44.12011" lon="2.28275">
        <ele>464</ele>
        <time>2016-05-04T13:40:30Z</time>
      </trkpt>
      <trkpt lat="44.12011" lon="2.28276">
        <ele>464.4</ele>
        <time>2016-05-04T13:40:31Z</time>
      </trkpt>
      <trkpt lat="44.12012" lon="2.28277">
        <ele>464.7</ele>
        <time>2016-05-04T13:40:32Z</time>
      </trkpt>
      <trkpt lat="44.12012" lon="2.28278">
        <ele>464.9</ele>
        <time>2016-05-04T13:40:33Z</time>
      </trkpt>
      <trkpt lat="44.12012" lon="2.28279">
        <ele>464.9</ele>
        <time>2016-05-04T13:40:34Z</time>
      </trkpt>
      <trkpt lat="44.12013" lon="2.2828">
        <ele>464.8</ele>
        <time>2016-05-04T13:40:35Z</time>
      </trkpt>
      <trkpt lat="44.12013" lon="2.28281">
        <ele>464.8</ele>
        <time>2016-05-04T13:40:36Z</time>
      </trkpt>
      <trkpt lat="44.12014" lon="2.28282">
        <ele>465</ele>
        <time>2016-05-04T13:40:37Z</time>
      </trkpt>
      <trkpt lat="44.12014" lon="2.28283">
        <ele>465.2</ele>
        <time>2016-05-04T13:40:38Z</time>
      </trkpt>
      <trkpt lat="44.12015" lon="2.28284">
        <ele>465.3</ele>
        <time>2016-05-04T13:40:39Z</time>
      </trkpt>
      <trkpt lat="44.12015" lon="2.28285">
        <ele>465.6</ele>
        <time>2016-05-04T13:40:40Z</time>
      </trkpt>
      <trkpt lat="44.12016" lon="2.28285">
        <ele>465.8</ele>
        <time>2016-05-04T13:40:41Z</time>
      </trkpt>
      <trkpt lat="44.12016" lon="2.28286">
        <ele>466</ele>
        <time>2016-05-04T13:40:42Z</time>
      </trkpt>
      <trkpt lat="44.12017" lon="2.28287">
        <ele>466.3</ele>
        <time>2016-05-04T13:40:43Z</time>
      </trkpt>
      <trkpt lat="44.12017" lon="2.28288">
        <ele>466.6</ele>
        <time>2016-05-04T13:40:44Z</time>
      </trkpt>
      <trkpt lat="44.12017" lon="2.28288">
        <ele>466.8</ele>
        <time>2016-05-04T13:40:45Z</time>
      </trkpt>
      <trkpt lat="44.12017" lon="2.28289">
        <ele>467.1</ele>
        <time>2016-05-04T13:40:46Z</time>
      </trkpt>
      <trkpt lat="44.12018" lon="2.2829">
        <ele>467.4</ele>
        <time>2016-05-04T13:40:47Z</time>
      </trkpt>
      <trkpt lat="44.12018" lon="2.2829">
        <ele>467.6</ele>
        <time>2016-05-04T13:40:48Z</time>
      </trkpt>
      <trkpt lat="44.12018" lon="2.28291">
        <ele>467.8</ele>
        <time>2016-05-04T13:40:49Z</time>
      </trkpt>
      <trkpt lat="44.12018" lon="2.28292">
        <ele>467.9</ele>
        <time>2016-05-04T13:40:50Z</time>
      </trkpt>
      <trkpt lat="44.12018" lon="2.28292">
        <ele>468</ele>
        <time>2016-05-04T13:40:51Z</time>
      </trkpt>
      <trkpt lat="44.12018" lon="2.28293">
        <ele>468.2</ele>
        <time>2016-05-04T13:40:52Z</time>
      </trkpt>
      <trkpt lat="44.12018" lon="2.28293">
        <ele>468.4</ele>
        <time>2016-05-04T13:40:53Z</time>
      </trkpt>
      <trkpt lat="44.12018" lon="2.28294">
        <ele>468.6</ele>
        <time>2016-05-04T13:40:54Z</time>
      </trkpt>
      <trkpt lat="44.12018" lon="2.28294">
        <ele>468.9</ele>
        <time>2016-05-04T13:40:55Z</time>
      </trkpt>
      <trkpt lat="44.12018" lon="2.28295">
        <ele>469.2</ele>
        <time>2016-05-04T13:40:56Z</time>
      </trkpt>
      <trkpt lat="44.12018" lon="2.28296">
        <ele>469.4</ele>
        <time>2016-05-04T13:40:57Z</time>
      </trkpt>
      <trkpt lat="44.12018" lon="2.28296">
        <ele>469.5</ele>
        <time>2016-05-04T13:40:58Z</time>
      </trkpt>
      <trkpt lat="44.12018" lon="2.28298">
        <ele>469.6</ele>
        <time>2016-05-04T13:40:59Z</time>
      </trkpt>
      <trkpt lat="44.12018" lon="2.28299">
        <ele>469.7</ele>
        <time>2016-05-04T13:41:00Z</time>
      </trkpt>
      <trkpt lat="44.12018" lon="2.28299">
        <ele>470</ele>
        <time>2016-05-04T13:41:01Z</time>
      </trkpt>
      <trkpt lat="44.12018" lon="2.283">
        <ele>470.2</ele>
        <time>2016-05-04T13:41:02Z</time>
      </trkpt>
      <trkpt lat="44.12018" lon="2.28301">
        <ele>470.3</ele>
        <time>2016-05-04T13:41:03Z</time>
      </trkpt>
      <trkpt lat="44.12018" lon="2.28302">
        <ele>470</ele>
        <time>2016-05-04T13:41:04Z</time>
      </trkpt>
      <trkpt lat="44.12018" lon="2.28302">
        <ele>469.8</ele>
        <time>2016-05-04T13:41:05Z</time>
      </trkpt>
      <trkpt lat="44.12018" lon="2.28303">
        <ele>469.6</ele>
        <time>2016-05-04T13:41:06Z</time>
      </trkpt>
      <trkpt lat="44.12018" lon="2.28304">
        <ele>469.9</ele>
        <time>2016-05-04T13:41:07Z</time>
      </trkpt>
      <trkpt lat="44.12021" lon="2.28334">
        <ele>474.4</ele>
        <time>2016-05-04T13:41:33Z</time>
      </trkpt>
      <trkpt lat="44.12021" lon="2.28335">
        <ele>474.3</ele>
        <time>2016-05-04T13:41:34Z</time>
      </trkpt>
      <trkpt lat="44.12023" lon="2.28339">
        <ele>473.7</ele>
        <time>2016-05-04T13:41:37Z</time>
      </trkpt>
      <trkpt lat="44.12033" lon="2.28357">
        <ele>472.7</ele>
        <time>2016-05-04T13:41:52Z</time>
      </trkpt>
      <trkpt lat="44.12033" lon="2.28358">
        <ele>473.1</ele>
        <time>2016-05-04T13:41:53Z</time>
      </trkpt>
      <trkpt lat="44.12033" lon="2.28364">
        <ele>473.4</ele>
        <time>2016-05-04T13:41:58Z</time>
      </trkpt>
      <trkpt lat="44.12033" lon="2.28364">
        <ele>473.4</ele>
        <time>2016-05-04T13:41:59Z</time>
      </trkpt>
      <trkpt lat="44.12032" lon="2.28364">
        <ele>473.4</ele>
        <time>2016-05-04T13:42:00Z</time>
      </trkpt>
      <trkpt lat="44.12032" lon="2.28365">
        <ele>473.6</ele>
        <time>2016-05-04T13:42:01Z</time>
      </trkpt>
      <trkpt lat="44.12032" lon="2.28365">
        <ele>473.8</ele>
        <time>2016-05-04T13:42:02Z</time>
      </trkpt>
      <trkpt lat="44.12032" lon="2.28365">
        <ele>473.9</ele>
        <time>2016-05-04T13:42:03Z</time>
      </trkpt>
      <trkpt lat="44.12032" lon="2.28365">
        <ele>474</ele>
        <time>2016-05-04T13:42:04Z</time>
      </trkpt>
      <trkpt lat="44.12031" lon="2.28366">
        <ele>474.1</ele>
        <time>2016-05-04T13:42:05Z</time>
      </trkpt>
      <trkpt lat="44.12031" lon="2.28366">
        <ele>474.1</ele>
        <time>2016-05-04T13:42:06Z</time>
      </trkpt>
      <trkpt lat="44.12031" lon="2.28365">
        <ele>473.7</ele>
        <time>2016-05-04T13:42:07Z</time>
      </trkpt>
      <trkpt lat="44.12031" lon="2.28365">
        <ele>473.4</ele>
        <time>2016-05-04T13:42:08Z</time>
      </trkpt>
      <trkpt lat="44.1203" lon="2.28365">
        <ele>473.2</ele>
        <time>2016-05-04T13:42:09Z</time>
      </trkpt>
      <trkpt lat="44.1203" lon="2.28365">
        <ele>473</ele>
        <time>2016-05-04T13:42:10Z</time>
      </trkpt>
      <trkpt lat="44.1203" lon="2.28364">
        <ele>472.9</ele>
        <time>2016-05-04T13:42:11Z</time>
      </trkpt>
      <trkpt lat="44.1203" lon="2.28364">
        <ele>472.8</ele>
        <time>2016-05-04T13:42:12Z</time>
      </trkpt>
      <trkpt lat="44.12031" lon="2.28363">
        <ele>473</ele>
        <time>2016-05-04T13:42:13Z</time>
      </trkpt>
      <trkpt lat="44.12031" lon="2.28363">
        <ele>473.1</ele>
        <time>2016-05-04T13:42:14Z</time>
      </trkpt>
      <trkpt lat="44.12032" lon="2.28363">
        <ele>473.2</ele>
        <time>2016-05-04T13:42:15Z</time>
      </trkpt>
      <trkpt lat="44.12032" lon="2.28363">
        <ele>473.2</ele>
        <time>2016-05-04T13:42:16Z</time>
      </trkpt>
      <trkpt lat="44.12033" lon="2.28363">
        <ele>473.3</ele>
        <time>2016-05-04T13:42:17Z</time>
      </trkpt>
      <trkpt lat="44.12034" lon="2.28363">
        <ele>473.3</ele>
        <time>2016-05-04T13:42:18Z</time>
      </trkpt>
      <trkpt lat="44.12035" lon="2.28363">
        <ele>472.9</ele>
        <time>2016-05-04T13:42:19Z</time>
      </trkpt>
      <trkpt lat="44.12036" lon="2.28363">
        <ele>472.6</ele>
        <time>2016-05-04T13:42:20Z</time>
      </trkpt>
      <trkpt lat="44.12037" lon="2.28364">
        <ele>472.4</ele>
        <time>2016-05-04T13:42:21Z</time>
      </trkpt>
      <trkpt lat="44.12037" lon="2.28364">
        <ele>472.6</ele>
        <time>2016-05-04T13:42:22Z</time>
      </trkpt>
      <trkpt lat="44.12038" lon="2.28364">
        <ele>472.8</ele>
        <time>2016-05-04T13:42:23Z</time>
      </trkpt>
      <trkpt lat="44.12038" lon="2.28365">
        <ele>473</ele>
        <time>2016-05-04T13:42:24Z</time>
      </trkpt>
      <trkpt lat="44.12038" lon="2.28365">
        <ele>473.3</ele>
        <time>2016-05-04T13:42:25Z</time>
      </trkpt>
      <trkpt lat="44.12039" lon="2.28365">
        <ele>473.5</ele>
        <time>2016-05-04T13:42:26Z</time>
      </trkpt>
      <trkpt lat="44.12039" lon="2.28365">
        <ele>473.7</ele>
        <time>2016-05-04T13:42:27Z</time>
      </trkpt>
      <trkpt lat="44.12039" lon="2.28365">
        <ele>473</ele>
        <time>2016-05-04T13:42:28Z</time>
      </trkpt>
      <trkpt lat="44.1204" lon="2.28365">
        <ele>471.3</ele>
        <time>2016-05-04T13:42:35Z</time>
      </trkpt>
      <trkpt lat="44.12041" lon="2.28366">
        <ele>472.3</ele>
        <time>2016-05-04T13:42:41Z</time>
      </trkpt>
      <trkpt lat="44.12041" lon="2.28366">
        <ele>472.4</ele>
        <time>2016-05-04T13:42:42Z</time>
      </trkpt>
      <trkpt lat="44.12041" lon="2.28366">
        <ele>472.8</ele>
        <time>2016-05-04T13:42:43Z</time>
      </trkpt>
      <trkpt lat="44.12041" lon="2.28366">
        <ele>473.5</ele>
        <time>2016-05-04T13:42:46Z</time>
      </trkpt>
      <trkpt lat="44.12042" lon="2.28366">
        <ele>473</ele>
        <time>2016-05-04T13:42:52Z</time>
      </trkpt>
      <trkpt lat="44.12042" lon="2.28366">
        <ele>473.2</ele>
        <time>2016-05-04T13:42:54Z</time>
      </trkpt>
      <trkpt lat="44.12042" lon="2.28366">
        <ele>473.2</ele>
        <time>2016-05-04T13:42:55Z</time>
      </trkpt>
      <trkpt lat="44.12042" lon="2.28366">
        <ele>473.3</ele>
        <time>2016-05-04T13:42:56Z</time>
      </trkpt>
      <trkpt lat="44.12042" lon="2.28366">
        <ele>473.3</ele>
        <time>2016-05-04T13:42:57Z</time>
      </trkpt>
      <trkpt lat="44.12042" lon="2.28366">
        <ele>473.1</ele>
        <time>2016-05-04T13:42:58Z</time>
      </trkpt>
      <trkpt lat="44.12042" lon="2.28366">
        <ele>473</ele>
        <time>2016-05-04T13:42:59Z</time>
      </trkpt>
      <trkpt lat="44.12042" lon="2.28366">
        <ele>472.9</ele>
        <time>2016-05-04T13:43:00Z</time>
      </trkpt>
      <trkpt lat="44.12042" lon="2.28366">
        <ele>472.8</ele>
        <time>2016-05-04T13:43:01Z</time>
      </trkpt>
      <trkpt lat="44.12042" lon="2.28366">
        <ele>472.7</ele>
        <time>2016-05-04T13:43:02Z</time>
      </trkpt>
      <trkpt lat="44.12043" lon="2.28365">
        <ele>472.7</ele>
        <time>2016-05-04T13:43:03Z</time>
      </trkpt>
      <trkpt lat="44.12043" lon="2.28365">
        <ele>472.6</ele>
        <time>2016-05-04T13:43:04Z</time>
      </trkpt>
      <trkpt lat="44.12043" lon="2.28365">
        <ele>472.6</ele>
        <time>2016-05-04T13:43:05Z</time>
      </trkpt>
      <trkpt lat="44.12043" lon="2.28365">
        <ele>472.6</ele>
        <time>2016-05-04T13:43:06Z</time>
      </trkpt>
      <trkpt lat="44.12043" lon="2.28365">
        <ele>472.8</ele>
        <time>2016-05-04T13:43:07Z</time>
      </trkpt>
      <trkpt lat="44.12043" lon="2.28365">
        <ele>472.9</ele>
        <time>2016-05-04T13:43:08Z</time>
      </trkpt>
      <trkpt lat="44.12043" lon="2.28365">
        <ele>473.1</ele>
        <time>2016-05-04T13:43:09Z</time>
      </trkpt>
      <trkpt lat="44.12043" lon="2.28365">
        <ele>472.7</ele>
        <time>2016-05-04T13:43:10Z</time>
      </trkpt>
      <trkpt lat="44.12043" lon="2.28365">
        <ele>472.5</ele>
        <time>2016-05-04T13:43:11Z</time>
      </trkpt>
      <trkpt lat="44.12043" lon="2.28365">
        <ele>472.3</ele>
        <time>2016-05-04T13:43:12Z</time>
      </trkpt>
      <trkpt lat="44.12043" lon="2.28365">
        <ele>472.3</ele>
        <time>2016-05-04T13:43:13Z</time>
      </trkpt>
      <trkpt lat="44.12046" lon="2.28358">
        <ele>472.5</ele>
        <time>2016-05-04T13:43:56Z</time>
      </trkpt>
      <trkpt lat="44.12046" lon="2.28358">
        <ele>472.5</ele>
        <time>2016-05-04T13:43:57Z</time>
      </trkpt>
      <trkpt lat="44.12046" lon="2.28358">
        <ele>472.5</ele>
        <time>2016-05-04T13:43:59Z</time>
      </trkpt>
      <trkpt lat="44.12048" lon="2.28359">
        <ele>472.8</ele>
        <time>2016-05-04T13:44:16Z</time>
      </trkpt>
      <trkpt lat="44.12048" lon="2.2836">
        <ele>472.9</ele>
        <time>2016-05-04T13:44:17Z</time>
      </trkpt>
      <trkpt lat="44.12048" lon="2.2836">
        <ele>473.4</ele>
        <time>2016-05-04T13:44:19Z</time>
      </trkpt>
      <trkpt lat="44.12048" lon="2.2836">
        <ele>473.6</ele>
        <time>2016-05-04T13:44:20Z</time>
      </trkpt>
      <trkpt lat="44.12048" lon="2.2836">
        <ele>473.8</ele>
        <time>2016-05-04T13:44:21Z</time>
      </trkpt>
      <trkpt lat="44.12048" lon="2.28361">
        <ele>473.7</ele>
        <time>2016-05-04T13:44:22Z</time>
      </trkpt>
      <trkpt lat="44.12048" lon="2.28361">
        <ele>473.6</ele>
        <time>2016-05-04T13:44:23Z</time>
      </trkpt>
      <trkpt lat="44.12048" lon="2.28361">
        <ele>473.6</ele>
        <time>2016-05-04T13:44:24Z</time>
      </trkpt>
      <trkpt lat="44.12048" lon="2.28361">
        <ele>473.3</ele>
        <time>2016-05-04T13:44:25Z</time>
      </trkpt>
      <trkpt lat="44.12048" lon="2.28362">
        <ele>473.1</ele>
        <time>2016-05-04T13:44:26Z</time>
      </trkpt>
      <trkpt lat="44.12048" lon="2.28362">
        <ele>473</ele>
        <time>2016-05-04T13:44:27Z</time>
      </trkpt>
      <trkpt lat="44.12048" lon="2.28362">
        <ele>472.2</ele>
        <time>2016-05-04T13:44:28Z</time>
      </trkpt>
      <trkpt lat="44.12048" lon="2.28362">
        <ele>471.6</ele>
        <time>2016-05-04T13:44:29Z</time>
      </trkpt>
      <trkpt lat="44.12048" lon="2.28362">
        <ele>471.2</ele>
        <time>2016-05-04T13:44:30Z</time>
      </trkpt>
      <trkpt lat="44.12048" lon="2.28363">
        <ele>471.3</ele>
        <time>2016-05-04T13:44:31Z</time>
      </trkpt>
      <trkpt lat="44.12048" lon="2.28363">
        <ele>471.4</ele>
        <time>2016-05-04T13:44:32Z</time>
      </trkpt>
      <trkpt lat="44.12048" lon="2.28363">
        <ele>471.5</ele>
        <time>2016-05-04T13:44:33Z</time>
      </trkpt>
      <trkpt lat="44.12048" lon="2.28363">
        <ele>470.9</ele>
        <time>2016-05-04T13:44:34Z</time>
      </trkpt>
      <trkpt lat="44.12048" lon="2.28363">
        <ele>470.4</ele>
        <time>2016-05-04T13:44:35Z</time>
      </trkpt>
      <trkpt lat="44.12048" lon="2.28363">
        <ele>470.1</ele>
        <time>2016-05-04T13:44:36Z</time>
      </trkpt>
      <trkpt lat="44.12048" lon="2.28362">
        <ele>470.7</ele>
        <time>2016-05-04T13:44:37Z</time>
      </trkpt>
      <trkpt lat="44.12048" lon="2.28362">
        <ele>471.2</ele>
        <time>2016-05-04T13:44:38Z</time>
      </trkpt>
      <trkpt lat="44.12047" lon="2.28362">
        <ele>471.5</ele>
        <time>2016-05-04T13:44:39Z</time>
      </trkpt>
      <trkpt lat="44.12047" lon="2.28362">
        <ele>471.8</ele>
        <time>2016-05-04T13:44:40Z</time>
      </trkpt>
      <trkpt lat="44.12046" lon="2.28363">
        <ele>472</ele>
        <time>2016-05-04T13:44:41Z</time>
      </trkpt>
      <trkpt lat="44.12045" lon="2.28364">
        <ele>472.1</ele>
        <time>2016-05-04T13:44:42Z</time>
      </trkpt>
      <trkpt lat="44.12045" lon="2.28364">
        <ele>472.6</ele>
        <time>2016-05-04T13:44:43Z</time>
      </trkpt>
      <trkpt lat="44.12044" lon="2.28365">
        <ele>473.1</ele>
        <time>2016-05-04T13:44:44Z</time>
      </trkpt>
      <trkpt lat="44.12043" lon="2.28366">
        <ele>473.4</ele>
        <time>2016-05-04T13:44:45Z</time>
      </trkpt>
      <trkpt lat="44.12043" lon="2.28367">
        <ele>473.6</ele>
        <time>2016-05-04T13:44:46Z</time>
      </trkpt>
      <trkpt lat="44.12043" lon="2.28368">
        <ele>473.8</ele>
        <time>2016-05-04T13:44:47Z</time>
      </trkpt>
      <trkpt lat="44.12042" lon="2.2837">
        <ele>473.9</ele>
        <time>2016-05-04T13:44:48Z</time>
      </trkpt>
      <trkpt lat="44.12042" lon="2.28371">
        <ele>473.8</ele>
        <time>2016-05-04T13:44:49Z</time>
      </trkpt>
      <trkpt lat="44.12042" lon="2.28372">
        <ele>473.7</ele>
        <time>2016-05-04T13:44:50Z</time>
      </trkpt>
      <trkpt lat="44.12041" lon="2.28373">
        <ele>473.6</ele>
        <time>2016-05-04T13:44:51Z</time>
      </trkpt>
      <trkpt lat="44.12041" lon="2.28374">
        <ele>473.3</ele>
        <time>2016-05-04T13:44:52Z</time>
      </trkpt>
      <trkpt lat="44.12041" lon="2.28376">
        <ele>473.1</ele>
        <time>2016-05-04T13:44:53Z</time>
      </trkpt>
      <trkpt lat="44.12041" lon="2.28377">
        <ele>473</ele>
        <time>2016-05-04T13:44:54Z</time>
      </trkpt>
      <trkpt lat="44.12041" lon="2.28378">
        <ele>472.9</ele>
        <time>2016-05-04T13:44:55Z</time>
      </trkpt>
      <trkpt lat="44.12041" lon="2.2838">
        <ele>472.8</ele>
        <time>2016-05-04T13:44:56Z</time>
      </trkpt>
      <trkpt lat="44.12041" lon="2.28381">
        <ele>472.7</ele>
        <time>2016-05-04T13:44:57Z</time>
      </trkpt>
      <trkpt lat="44.12041" lon="2.28382">
        <ele>472.7</ele>
        <time>2016-05-04T13:44:58Z</time>
      </trkpt>
      <trkpt lat="44.1204" lon="2.28383">
        <ele>472.6</ele>
        <time>2016-05-04T13:44:59Z</time>
      </trkpt>
      <trkpt lat="44.1204" lon="2.28384">
        <ele>472.6</ele>
        <time>2016-05-04T13:45:00Z</time>
      </trkpt>
      <trkpt lat="44.1204" lon="2.28385">
        <ele>472.2</ele>
        <time>2016-05-04T13:45:01Z</time>
      </trkpt>
      <trkpt lat="44.1204" lon="2.28386">
        <ele>471.8</ele>
        <time>2016-05-04T13:45:02Z</time>
      </trkpt>
      <trkpt lat="44.1204" lon="2.28386">
        <ele>471.6</ele>
        <time>2016-05-04T13:45:03Z</time>
      </trkpt>
      <trkpt lat="44.12039" lon="2.28387">
        <ele>471.4</ele>
        <time>2016-05-04T13:45:04Z</time>
      </trkpt>
      <trkpt lat="44.12039" lon="2.28388">
        <ele>471.2</ele>
        <time>2016-05-04T13:45:05Z</time>
      </trkpt>
      <trkpt lat="44.12038" lon="2.28389">
        <ele>471.3</ele>
        <time>2016-05-04T13:45:07Z</time>
      </trkpt>
      <trkpt lat="44.12038" lon="2.28389">
        <ele>471.4</ele>
        <time>2016-05-04T13:45:08Z</time>
      </trkpt>
      <trkpt lat="44.12038" lon="2.28389">
        <ele>471.4</ele>
        <time>2016-05-04T13:45:09Z</time>
      </trkpt>
      <trkpt lat="44.12038" lon="2.2839">
        <ele>470.9</ele>
        <time>2016-05-04T13:45:10Z</time>
      </trkpt>
      <trkpt lat="44.12038" lon="2.28391">
        <ele>470.4</ele>
        <time>2016-05-04T13:45:11Z</time>
      </trkpt>
      <trkpt lat="44.12037" lon="2.28392">
        <ele>470.1</ele>
        <time>2016-05-04T13:45:12Z</time>
      </trkpt>
      <trkpt lat="44.12037" lon="2.28393">
        <ele>470</ele>
        <time>2016-05-04T13:45:13Z</time>
      </trkpt>
      <trkpt lat="44.12037" lon="2.28394">
        <ele>470</ele>
        <time>2016-05-04T13:45:14Z</time>
      </trkpt>
      <trkpt lat="44.12036" lon="2.28395">
        <ele>470</ele>
        <time>2016-05-04T13:45:15Z</time>
      </trkpt>
      <trkpt lat="44.12036" lon="2.28396">
        <ele>469.6</ele>
        <time>2016-05-04T13:45:16Z</time>
      </trkpt>
      <trkpt lat="44.12036" lon="2.28396">
        <ele>469.2</ele>
        <time>2016-05-04T13:45:17Z</time>
      </trkpt>
      <trkpt lat="44.12035" lon="2.28398">
        <ele>469</ele>
        <time>2016-05-04T13:45:18Z</time>
      </trkpt>
      <trkpt lat="44.12035" lon="2.28399">
        <ele>468.8</ele>
        <time>2016-05-04T13:45:19Z</time>
      </trkpt>
      <trkpt lat="44.12035" lon="2.284">
        <ele>468.6</ele>
        <time>2016-05-04T13:45:20Z</time>
      </trkpt>
      <trkpt lat="44.12034" lon="2.284">
        <ele>468.5</ele>
        <time>2016-05-04T13:45:21Z</time>
      </trkpt>
      <trkpt lat="44.12034" lon="2.28401">
        <ele>468.2</ele>
        <time>2016-05-04T13:45:22Z</time>
      </trkpt>
      <trkpt lat="44.12033" lon="2.28402">
        <ele>468</ele>
        <time>2016-05-04T13:45:23Z</time>
      </trkpt>
      <trkpt lat="44.12032" lon="2.28403">
        <ele>467.8</ele>
        <time>2016-05-04T13:45:24Z</time>
      </trkpt>
      <trkpt lat="44.12031" lon="2.28404">
        <ele>467.9</ele>
        <time>2016-05-04T13:45:25Z</time>
      </trkpt>
      <trkpt lat="44.1203" lon="2.28406">
        <ele>468</ele>
        <time>2016-05-04T13:45:26Z</time>
      </trkpt>
      <trkpt lat="44.12029" lon="2.28407">
        <ele>468.1</ele>
        <time>2016-05-04T13:45:27Z</time>
      </trkpt>
      <trkpt lat="44.12027" lon="2.28408">
        <ele>468.1</ele>
        <time>2016-05-04T13:45:28Z</time>
      </trkpt>
      <trkpt lat="44.12026" lon="2.28409">
        <ele>468.1</ele>
        <time>2016-05-04T13:45:29Z</time>
      </trkpt>
      <trkpt lat="44.12024" lon="2.2841">
        <ele>468.1</ele>
        <time>2016-05-04T13:45:30Z</time>
      </trkpt>
      <trkpt lat="44.12023" lon="2.2841">
        <ele>467.9</ele>
        <time>2016-05-04T13:45:31Z</time>
      </trkpt>
      <trkpt lat="44.12022" lon="2.28411">
        <ele>467.8</ele>
        <time>2016-05-04T13:45:32Z</time>
      </trkpt>
      <trkpt lat="44.12021" lon="2.28411">
        <ele>467.7</ele>
        <time>2016-05-04T13:45:33Z</time>
      </trkpt>
      <trkpt lat="44.1202" lon="2.28412">
        <ele>467.6</ele>
        <time>2016-05-04T13:45:34Z</time>
      </trkpt>
      <trkpt lat="44.12019" lon="2.28412">
        <ele>467.5</ele>
        <time>2016-05-04T13:45:35Z</time>
      </trkpt>
      <trkpt lat="44.12018" lon="2.28413">
        <ele>467.5</ele>
        <time>2016-05-04T13:45:36Z</time>
      </trkpt>
      <trkpt lat="44.12017" lon="2.28414">
        <ele>467</ele>
        <time>2016-05-04T13:45:37Z</time>
      </trkpt>
      <trkpt lat="44.12016" lon="2.28414">
        <ele>466.7</ele>
        <time>2016-05-04T13:45:38Z</time>
      </trkpt>
      <trkpt lat="44.12015" lon="2.28415">
        <ele>466.4</ele>
        <time>2016-05-04T13:45:39Z</time>
      </trkpt>
      <trkpt lat="44.12013" lon="2.28415">
        <ele>466.2</ele>
        <time>2016-05-04T13:45:40Z</time>
      </trkpt>
      <trkpt lat="44.12012" lon="2.28416">
        <ele>466.1</ele>
        <time>2016-05-04T13:45:41Z</time>
      </trkpt>
      <trkpt lat="44.12012" lon="2.28417">
        <ele>465.9</ele>
        <time>2016-05-04T13:45:42Z</time>
      </trkpt>
      <trkpt lat="44.12011" lon="2.28417">
        <ele>465.9</ele>
        <time>2016-05-04T13:45:43Z</time>
      </trkpt>
      <trkpt lat="44.1201" lon="2.28418">
        <ele>465.8</ele>
        <time>2016-05-04T13:45:44Z</time>
      </trkpt>
      <trkpt lat="44.12007" lon="2.2842">
        <ele>465.3</ele>
        <time>2016-05-04T13:45:47Z</time>
      </trkpt>
      <trkpt lat="44.12007" lon="2.28421">
        <ele>465.2</ele>
        <time>2016-05-04T13:45:48Z</time>
      </trkpt>
      <trkpt lat="44.12006" lon="2.28421">
        <ele>464.9</ele>
        <time>2016-05-04T13:45:49Z</time>
      </trkpt>
      <trkpt lat="44.12001" lon="2.28425">
        <ele>464.6</ele>
        <time>2016-05-04T13:45:54Z</time>
      </trkpt>
      <trkpt lat="44.11999" lon="2.28426">
        <ele>464.2</ele>
        <time>2016-05-04T13:45:55Z</time>
      </trkpt>
      <trkpt lat="44.11988" lon="2.28433">
        <ele>462.1</ele>
        <time>2016-05-04T13:46:03Z</time>
      </trkpt>
      <trkpt lat="44.11987" lon="2.28434">
        <ele>461.9</ele>
        <time>2016-05-04T13:46:04Z</time>
      </trkpt>
      <trkpt lat="44.11984" lon="2.28435">
        <ele>461.8</ele>
        <time>2016-05-04T13:46:05Z</time>
      </trkpt>
      <trkpt lat="44.11977" lon="2.28437">
        <ele>461.6</ele>
        <time>2016-05-04T13:46:07Z</time>
      </trkpt>
      <trkpt lat="44.11974" lon="2.28437">
        <ele>461.5</ele>
        <time>2016-05-04T13:46:08Z</time>
      </trkpt>
      <trkpt lat="44.11971" lon="2.28438">
        <ele>461.4</ele>
        <time>2016-05-04T13:46:09Z</time>
      </trkpt>
      <trkpt lat="44.11969" lon="2.28439">
        <ele>460.5</ele>
        <time>2016-05-04T13:46:10Z</time>
      </trkpt>
      <trkpt lat="44.11965" lon="2.28441">
        <ele>459.4</ele>
        <time>2016-05-04T13:46:12Z</time>
      </trkpt>
      <trkpt lat="44.11964" lon="2.28442">
        <ele>459.2</ele>
        <time>2016-05-04T13:46:13Z</time>
      </trkpt>
      <trkpt lat="44.11962" lon="2.28443">
        <ele>459.1</ele>
        <time>2016-05-04T13:46:14Z</time>
      </trkpt>
      <trkpt lat="44.11961" lon="2.28444">
        <ele>459</ele>
        <time>2016-05-04T13:46:15Z</time>
      </trkpt>
      <trkpt lat="44.1196" lon="2.28444">
        <ele>458.5</ele>
        <time>2016-05-04T13:46:16Z</time>
      </trkpt>
      <trkpt lat="44.1196" lon="2.28445">
        <ele>458.1</ele>
        <time>2016-05-04T13:46:17Z</time>
      </trkpt>
      <trkpt lat="44.11959" lon="2.28445">
        <ele>457.8</ele>
        <time>2016-05-04T13:46:18Z</time>
      </trkpt>
      <trkpt lat="44.11959" lon="2.28445">
        <ele>457.2</ele>
        <time>2016-05-04T13:46:19Z</time>
      </trkpt>
      <trkpt lat="44.11958" lon="2.28446">
        <ele>456.7</ele>
        <time>2016-05-04T13:46:20Z</time>
      </trkpt>
      <trkpt lat="44.11958" lon="2.28446">
        <ele>456.3</ele>
        <time>2016-05-04T13:46:21Z</time>
      </trkpt>
      <trkpt lat="44.11958" lon="2.28446">
        <ele>456.1</ele>
        <time>2016-05-04T13:46:22Z</time>
      </trkpt>
      <trkpt lat="44.11958" lon="2.28447">
        <ele>455.9</ele>
        <time>2016-05-04T13:46:23Z</time>
      </trkpt>
      <trkpt lat="44.11958" lon="2.28447">
        <ele>455.7</ele>
        <time>2016-05-04T13:46:24Z</time>
      </trkpt>
      <trkpt lat="44.11959" lon="2.28447">
        <ele>455.6</ele>
        <time>2016-05-04T13:46:25Z</time>
      </trkpt>
      <trkpt lat="44.11959" lon="2.28448">
        <ele>455.5</ele>
        <time>2016-05-04T13:46:26Z</time>
      </trkpt>
      <trkpt lat="44.11959" lon="2.28449">
        <ele>455.4</ele>
        <time>2016-05-04T13:46:27Z</time>
      </trkpt>
      <trkpt lat="44.11959" lon="2.2845">
        <ele>454.5</ele>
        <time>2016-05-04T13:46:28Z</time>
      </trkpt>
      <trkpt lat="44.1196" lon="2.2845">
        <ele>453.8</ele>
        <time>2016-05-04T13:46:29Z</time>
      </trkpt>
      <trkpt lat="44.1196" lon="2.28451">
        <ele>453.3</ele>
        <time>2016-05-04T13:46:30Z</time>
      </trkpt>
      <trkpt lat="44.1196" lon="2.28452">
        <ele>453.2</ele>
        <time>2016-05-04T13:46:31Z</time>
      </trkpt>
      <trkpt lat="44.11961" lon="2.28453">
        <ele>453</ele>
        <time>2016-05-04T13:46:32Z</time>
      </trkpt>
      <trkpt lat="44.11961" lon="2.28454">
        <ele>452.9</ele>
        <time>2016-05-04T13:46:33Z</time>
      </trkpt>
      <trkpt lat="44.11962" lon="2.28454">
        <ele>452.6</ele>
        <time>2016-05-04T13:46:34Z</time>
      </trkpt>
      <trkpt lat="44.11962" lon="2.28455">
        <ele>452.4</ele>
        <time>2016-05-04T13:46:35Z</time>
      </trkpt>
      <trkpt lat="44.11963" lon="2.28456">
        <ele>452.3</ele>
        <time>2016-05-04T13:46:36Z</time>
      </trkpt>
      <trkpt lat="44.11963" lon="2.28457">
        <ele>451.9</ele>
        <time>2016-05-04T13:46:37Z</time>
      </trkpt>
      <trkpt lat="44.11964" lon="2.28458">
        <ele>451.7</ele>
        <time>2016-05-04T13:46:38Z</time>
      </trkpt>
      <trkpt lat="44.11964" lon="2.28458">
        <ele>451.5</ele>
        <time>2016-05-04T13:46:39Z</time>
      </trkpt>
      <trkpt lat="44.11965" lon="2.28459">
        <ele>451.1</ele>
        <time>2016-05-04T13:46:40Z</time>
      </trkpt>
      <trkpt lat="44.11966" lon="2.2846">
        <ele>450.9</ele>
        <time>2016-05-04T13:46:41Z</time>
      </trkpt>
      <trkpt lat="44.11967" lon="2.28461">
        <ele>450.7</ele>
        <time>2016-05-04T13:46:42Z</time>
      </trkpt>
      <trkpt lat="44.11968" lon="2.28462">
        <ele>450.3</ele>
        <time>2016-05-04T13:46:43Z</time>
      </trkpt>
      <trkpt lat="44.11969" lon="2.28462">
        <ele>450</ele>
        <time>2016-05-04T13:46:44Z</time>
      </trkpt>
      <trkpt lat="44.1197" lon="2.28463">
        <ele>449.8</ele>
        <time>2016-05-04T13:46:45Z</time>
      </trkpt>
      <trkpt lat="44.11974" lon="2.28465">
        <ele>448.8</ele>
        <time>2016-05-04T13:46:49Z</time>
      </trkpt>
      <trkpt lat="44.11979" lon="2.28467">
        <ele>448.4</ele>
        <time>2016-05-04T13:46:54Z</time>
      </trkpt>
      <trkpt lat="44.12007" lon="2.28483">
        <ele>440.5</ele>
        <time>2016-05-04T13:47:22Z</time>
      </trkpt>
      <trkpt lat="44.12008" lon="2.28484">
        <ele>440.1</ele>
        <time>2016-05-04T13:47:23Z</time>
      </trkpt>
      <trkpt lat="44.12009" lon="2.28484">
        <ele>439.7</ele>
        <time>2016-05-04T13:47:24Z</time>
      </trkpt>
      <trkpt lat="44.1201" lon="2.28485">
        <ele>439.7</ele>
        <time>2016-05-04T13:47:25Z</time>
      </trkpt>
      <trkpt lat="44.12011" lon="2.28486">
        <ele>439.7</ele>
        <time>2016-05-04T13:47:26Z</time>
      </trkpt>
      <trkpt lat="44.12012" lon="2.28487">
        <ele>439.7</ele>
        <time>2016-05-04T13:47:27Z</time>
      </trkpt>
      <trkpt lat="44.12013" lon="2.28488">
        <ele>439.5</ele>
        <time>2016-05-04T13:47:28Z</time>
      </trkpt>
      <trkpt lat="44.12014" lon="2.28489">
        <ele>439.3</ele>
        <time>2016-05-04T13:47:29Z</time>
      </trkpt>
      <trkpt lat="44.12016" lon="2.2849">
        <ele>439.2</ele>
        <time>2016-05-04T13:47:30Z</time>
      </trkpt>
      <trkpt lat="44.12017" lon="2.28491">
        <ele>438.9</ele>
        <time>2016-05-04T13:47:31Z</time>
      </trkpt>
      <trkpt lat="44.12018" lon="2.28492">
        <ele>438.7</ele>
        <time>2016-05-04T13:47:32Z</time>
      </trkpt>
      <trkpt lat="44.1202" lon="2.28493">
        <ele>438.5</ele>
        <time>2016-05-04T13:47:33Z</time>
      </trkpt>
      <trkpt lat="44.12021" lon="2.28494">
        <ele>437.9</ele>
        <time>2016-05-04T13:47:34Z</time>
      </trkpt>
      <trkpt lat="44.12022" lon="2.28495">
        <ele>437.5</ele>
        <time>2016-05-04T13:47:35Z</time>
      </trkpt>
      <trkpt lat="44.12023" lon="2.28496">
        <ele>437.2</ele>
        <time>2016-05-04T13:47:36Z</time>
      </trkpt>
      <trkpt lat="44.12024" lon="2.28496">
        <ele>436.7</ele>
        <time>2016-05-04T13:47:37Z</time>
      </trkpt>
      <trkpt lat="44.12025" lon="2.28497">
        <ele>436.4</ele>
        <time>2016-05-04T13:47:38Z</time>
      </trkpt>
      <trkpt lat="44.12026" lon="2.28498">
        <ele>436.1</ele>
        <time>2016-05-04T13:47:39Z</time>
      </trkpt>
      <trkpt lat="44.12027" lon="2.28499">
        <ele>436</ele>
        <time>2016-05-04T13:47:40Z</time>
      </trkpt>
      <trkpt lat="44.12028" lon="2.285">
        <ele>435.8</ele>
        <time>2016-05-04T13:47:41Z</time>
      </trkpt>
      <trkpt lat="44.12029" lon="2.28501">
        <ele>435.7</ele>
        <time>2016-05-04T13:47:42Z</time>
      </trkpt>
      <trkpt lat="44.1203" lon="2.28501">
        <ele>435.4</ele>
        <time>2016-05-04T13:47:43Z</time>
      </trkpt>
      <trkpt lat="44.12031" lon="2.28502">
        <ele>435.2</ele>
        <time>2016-05-04T13:47:44Z</time>
      </trkpt>
      <trkpt lat="44.12031" lon="2.28502">
        <ele>435</ele>
        <time>2016-05-04T13:47:45Z</time>
      </trkpt>
      <trkpt lat="44.12032" lon="2.28503">
        <ele>434.9</ele>
        <time>2016-05-04T13:47:46Z</time>
      </trkpt>
      <trkpt lat="44.12033" lon="2.28504">
        <ele>434.8</ele>
        <time>2016-05-04T13:47:47Z</time>
      </trkpt>
      <trkpt lat="44.12034" lon="2.28504">
        <ele>434.7</ele>
        <time>2016-05-04T13:47:48Z</time>
      </trkpt>
      <trkpt lat="44.12035" lon="2.28504">
        <ele>434</ele>
        <time>2016-05-04T13:47:49Z</time>
      </trkpt>
      <trkpt lat="44.12036" lon="2.28505">
        <ele>433.5</ele>
        <time>2016-05-04T13:47:50Z</time>
      </trkpt>
      <trkpt lat="44.12037" lon="2.28505">
        <ele>433.1</ele>
        <time>2016-05-04T13:47:51Z</time>
      </trkpt>
      <trkpt lat="44.12038" lon="2.28506">
        <ele>432.6</ele>
        <time>2016-05-04T13:47:52Z</time>
      </trkpt>
      <trkpt lat="44.1204" lon="2.28506">
        <ele>432.2</ele>
        <time>2016-05-04T13:47:53Z</time>
      </trkpt>
      <trkpt lat="44.12041" lon="2.28507">
        <ele>431.9</ele>
        <time>2016-05-04T13:47:54Z</time>
      </trkpt>
      <trkpt lat="44.12043" lon="2.28508">
        <ele>431.9</ele>
        <time>2016-05-04T13:47:55Z</time>
      </trkpt>
      <trkpt lat="44.12044" lon="2.28508">
        <ele>431.9</ele>
        <time>2016-05-04T13:47:56Z</time>
      </trkpt>
      <trkpt lat="44.12046" lon="2.28509">
        <ele>431.9</ele>
        <time>2016-05-04T13:47:57Z</time>
      </trkpt>
      <trkpt lat="44.12047" lon="2.2851">
        <ele>431.5</ele>
        <time>2016-05-04T13:47:58Z</time>
      </trkpt>
      <trkpt lat="44.12048" lon="2.2851">
        <ele>431.2</ele>
        <time>2016-05-04T13:47:59Z</time>
      </trkpt>
      <trkpt lat="44.12049" lon="2.28511">
        <ele>430.9</ele>
        <time>2016-05-04T13:48:00Z</time>
      </trkpt>
      <trkpt lat="44.1205" lon="2.28511">
        <ele>430.5</ele>
        <time>2016-05-04T13:48:01Z</time>
      </trkpt>
      <trkpt lat="44.12051" lon="2.28512">
        <ele>430.2</ele>
        <time>2016-05-04T13:48:02Z</time>
      </trkpt>
      <trkpt lat="44.12052" lon="2.28512">
        <ele>430</ele>
        <time>2016-05-04T13:48:03Z</time>
      </trkpt>
      <trkpt lat="44.12053" lon="2.28513">
        <ele>429.2</ele>
        <time>2016-05-04T13:48:04Z</time>
      </trkpt>
      <trkpt lat="44.12079" lon="2.28518">
        <ele>424</ele>
        <time>2016-05-04T13:48:25Z</time>
      </trkpt>
      <trkpt lat="44.12079" lon="2.28518">
        <ele>423.4</ele>
        <time>2016-05-04T13:48:26Z</time>
      </trkpt>
      <trkpt lat="44.12081" lon="2.28519">
        <ele>422.2</ele>
        <time>2016-05-04T13:48:28Z</time>
      </trkpt>
      <trkpt lat="44.12085" lon="2.28521">
        <ele>420.9</ele>
        <time>2016-05-04T13:48:33Z</time>
      </trkpt>
      <trkpt lat="44.12096" lon="2.28526">
        <ele>418.7</ele>
        <time>2016-05-04T13:48:43Z</time>
      </trkpt>
      <trkpt lat="44.12119" lon="2.28539">
        <ele>414.8</ele>
        <time>2016-05-04T13:49:00Z</time>
      </trkpt>
      <trkpt lat="44.1212" lon="2.2854">
        <ele>414.6</ele>
        <time>2016-05-04T13:49:01Z</time>
      </trkpt>
      <trkpt lat="44.12121" lon="2.2854">
        <ele>414.4</ele>
        <time>2016-05-04T13:49:02Z</time>
      </trkpt>
      <trkpt lat="44.12122" lon="2.28541">
        <ele>414.3</ele>
        <time>2016-05-04T13:49:03Z</time>
      </trkpt>
      <trkpt lat="44.12123" lon="2.28541">
        <ele>414.2</ele>
        <time>2016-05-04T13:49:04Z</time>
      </trkpt>
      <trkpt lat="44.12124" lon="2.28542">
        <ele>414.1</ele>
        <time>2016-05-04T13:49:05Z</time>
      </trkpt>
      <trkpt lat="44.12125" lon="2.28542">
        <ele>414</ele>
        <time>2016-05-04T13:49:06Z</time>
      </trkpt>
      <trkpt lat="44.12126" lon="2.28542">
        <ele>413.1</ele>
        <time>2016-05-04T13:49:07Z</time>
      </trkpt>
      <trkpt lat="44.12127" lon="2.28542">
        <ele>412.4</ele>
        <time>2016-05-04T13:49:08Z</time>
      </trkpt>
      <trkpt lat="44.12128" lon="2.28543">
        <ele>411.9</ele>
        <time>2016-05-04T13:49:09Z</time>
      </trkpt>
      <trkpt lat="44.12129" lon="2.28543">
        <ele>411.5</ele>
        <time>2016-05-04T13:49:10Z</time>
      </trkpt>
      <trkpt lat="44.1213" lon="2.28544">
        <ele>411.3</ele>
        <time>2016-05-04T13:49:11Z</time>
      </trkpt>
      <trkpt lat="44.12131" lon="2.28544">
        <ele>411</ele>
        <time>2016-05-04T13:49:12Z</time>
      </trkpt>
      <trkpt lat="44.12133" lon="2.28544">
        <ele>410.7</ele>
        <time>2016-05-04T13:49:13Z</time>
      </trkpt>
      <trkpt lat="44.12134" lon="2.28544">
        <ele>410.4</ele>
        <time>2016-05-04T13:49:14Z</time>
      </trkpt>
      <trkpt lat="44.1214" lon="2.28543">
        <ele>409.8</ele>
        <time>2016-05-04T13:49:18Z</time>
      </trkpt>
      <trkpt lat="44.12153" lon="2.28538">
        <ele>405.9</ele>
        <time>2016-05-04T13:49:29Z</time>
      </trkpt>
      <trkpt lat="44.12155" lon="2.28538">
        <ele>405.7</ele>
        <time>2016-05-04T13:49:30Z</time>
      </trkpt>
      <trkpt lat="44.12165" lon="2.28536">
        <ele>405.8</ele>
        <time>2016-05-04T13:49:37Z</time>
      </trkpt>
      <trkpt lat="44.12191" lon="2.28529">
        <ele>400.8</ele>
        <time>2016-05-04T13:49:59Z</time>
      </trkpt>
      <trkpt lat="44.12193" lon="2.28529">
        <ele>400.6</ele>
        <time>2016-05-04T13:50:00Z</time>
      </trkpt>
      <trkpt lat="44.12201" lon="2.28525">
        <ele>397.6</ele>
        <time>2016-05-04T13:50:07Z</time>
      </trkpt>
      <trkpt lat="44.12224" lon="2.28517">
        <ele>393.2</ele>
        <time>2016-05-04T13:50:25Z</time>
      </trkpt>
      <trkpt lat="44.12224" lon="2.28517">
        <ele>393</ele>
        <time>2016-05-04T13:50:26Z</time>
      </trkpt>
      <trkpt lat="44.12225" lon="2.28516">
        <ele>392.8</ele>
        <time>2016-05-04T13:50:27Z</time>
      </trkpt>
      <trkpt lat="44.12226" lon="2.28516">
        <ele>392.3</ele>
        <time>2016-05-04T13:50:28Z</time>
      </trkpt>
      <trkpt lat="44.12226" lon="2.28515">
        <ele>391.9</ele>
        <time>2016-05-04T13:50:29Z</time>
      </trkpt>
      <trkpt lat="44.12227" lon="2.28515">
        <ele>391.6</ele>
        <time>2016-05-04T13:50:30Z</time>
      </trkpt>
      <trkpt lat="44.12228" lon="2.28515">
        <ele>390.9</ele>
        <time>2016-05-04T13:50:31Z</time>
      </trkpt>
      <trkpt lat="44.12241" lon="2.28512">
        <ele>388.5</ele>
        <time>2016-05-04T13:50:42Z</time>
      </trkpt>
      <trkpt lat="44.12242" lon="2.28512">
        <ele>388.4</ele>
        <time>2016-05-04T13:50:43Z</time>
      </trkpt>
      <trkpt lat="44.12243" lon="2.28511">
        <ele>388.3</ele>
        <time>2016-05-04T13:50:44Z</time>
      </trkpt>
      <trkpt lat="44.12244" lon="2.2851">
        <ele>388.2</ele>
        <time>2016-05-04T13:50:45Z</time>
      </trkpt>
      <trkpt lat="44.12245" lon="2.28509">
        <ele>387.6</ele>
        <time>2016-05-04T13:50:46Z</time>
      </trkpt>
      <trkpt lat="44.12246" lon="2.28508">
        <ele>387</ele>
        <time>2016-05-04T13:50:47Z</time>
      </trkpt>
      <trkpt lat="44.12248" lon="2.28508">
        <ele>386.6</ele>
        <time>2016-05-04T13:50:48Z</time>
      </trkpt>
      <trkpt lat="44.12249" lon="2.28507">
        <ele>386.4</ele>
        <time>2016-05-04T13:50:49Z</time>
      </trkpt>
      <trkpt lat="44.12251" lon="2.28506">
        <ele>386.1</ele>
        <time>2016-05-04T13:50:50Z</time>
      </trkpt>
      <trkpt lat="44.12252" lon="2.28506">
        <ele>386</ele>
        <time>2016-05-04T13:50:51Z</time>
      </trkpt>
      <trkpt lat="44.12253" lon="2.28505">
        <ele>385.2</ele>
        <time>2016-05-04T13:50:52Z</time>
      </trkpt>
      <trkpt lat="44.12254" lon="2.28505">
        <ele>384.6</ele>
        <time>2016-05-04T13:50:53Z</time>
      </trkpt>
      <trkpt lat="44.12256" lon="2.28504">
        <ele>384.2</ele>
        <time>2016-05-04T13:50:54Z</time>
      </trkpt>
      <trkpt lat="44.12257" lon="2.28504">
        <ele>383.9</ele>
        <time>2016-05-04T13:50:55Z</time>
      </trkpt>
      <trkpt lat="44.12258" lon="2.28503">
        <ele>383.6</ele>
        <time>2016-05-04T13:50:56Z</time>
      </trkpt>
      <trkpt lat="44.1226" lon="2.28502">
        <ele>383.5</ele>
        <time>2016-05-04T13:50:57Z</time>
      </trkpt>
      <trkpt lat="44.12262" lon="2.28501">
        <ele>383.1</ele>
        <time>2016-05-04T13:50:58Z</time>
      </trkpt>
      <trkpt lat="44.12297" lon="2.28487">
        <ele>377.1</ele>
        <time>2016-05-04T13:51:22Z</time>
      </trkpt>
      <trkpt lat="44.12303" lon="2.28485">
        <ele>375.2</ele>
        <time>2016-05-04T13:51:28Z</time>
      </trkpt>
      <trkpt lat="44.12306" lon="2.28484">
        <ele>374.2</ele>
        <time>2016-05-04T13:51:31Z</time>
      </trkpt>
      <trkpt lat="44.12307" lon="2.28484">
        <ele>374</ele>
        <time>2016-05-04T13:51:32Z</time>
      </trkpt>
      <trkpt lat="44.12317" lon="2.28478">
        <ele>370.6</ele>
        <time>2016-05-04T13:51:42Z</time>
      </trkpt>
      <trkpt lat="44.12319" lon="2.28477">
        <ele>370.1</ele>
        <time>2016-05-04T13:51:43Z</time>
      </trkpt>
      <trkpt lat="44.12329" lon="2.28474">
        <ele>368.6</ele>
        <time>2016-05-04T13:51:51Z</time>
      </trkpt>
      <trkpt lat="44.1233" lon="2.28474">
        <ele>368.1</ele>
        <time>2016-05-04T13:51:52Z</time>
      </trkpt>
      <trkpt lat="44.12331" lon="2.28473">
        <ele>367.5</ele>
        <time>2016-05-04T13:51:54Z</time>
      </trkpt>
      <trkpt lat="44.12332" lon="2.28473">
        <ele>367.3</ele>
        <time>2016-05-04T13:51:55Z</time>
      </trkpt>
      <trkpt lat="44.12333" lon="2.28473">
        <ele>367.1</ele>
        <time>2016-05-04T13:51:56Z</time>
      </trkpt>
      <trkpt lat="44.12333" lon="2.28473">
        <ele>367</ele>
        <time>2016-05-04T13:51:57Z</time>
      </trkpt>
      <trkpt lat="44.12334" lon="2.28473">
        <ele>366.7</ele>
        <time>2016-05-04T13:51:58Z</time>
      </trkpt>
      <trkpt lat="44.12335" lon="2.28473">
        <ele>366.4</ele>
        <time>2016-05-04T13:51:59Z</time>
      </trkpt>
      <trkpt lat="44.12335" lon="2.28473">
        <ele>366.3</ele>
        <time>2016-05-04T13:52:00Z</time>
      </trkpt>
      <trkpt lat="44.12336" lon="2.28472">
        <ele>365.9</ele>
        <time>2016-05-04T13:52:01Z</time>
      </trkpt>
      <trkpt lat="44.12337" lon="2.28472">
        <ele>365.7</ele>
        <time>2016-05-04T13:52:02Z</time>
      </trkpt>
      <trkpt lat="44.12338" lon="2.28472">
        <ele>365.5</ele>
        <time>2016-05-04T13:52:03Z</time>
      </trkpt>
      <trkpt lat="44.12339" lon="2.28472">
        <ele>364.9</ele>
        <time>2016-05-04T13:52:04Z</time>
      </trkpt>
      <trkpt lat="44.1234" lon="2.28471">
        <ele>364.5</ele>
        <time>2016-05-04T13:52:05Z</time>
      </trkpt>
      <trkpt lat="44.12341" lon="2.28471">
        <ele>364.2</ele>
        <time>2016-05-04T13:52:06Z</time>
      </trkpt>
      <trkpt lat="44.12342" lon="2.2847">
        <ele>363.5</ele>
        <time>2016-05-04T13:52:07Z</time>
      </trkpt>
      <trkpt lat="44.12344" lon="2.28469">
        <ele>363</ele>
        <time>2016-05-04T13:52:08Z</time>
      </trkpt>
      <trkpt lat="44.12345" lon="2.28469">
        <ele>362.6</ele>
        <time>2016-05-04T13:52:09Z</time>
      </trkpt>
      <trkpt lat="44.12347" lon="2.28469">
        <ele>362.1</ele>
        <time>2016-05-04T13:52:10Z</time>
      </trkpt>
      <trkpt lat="44.12348" lon="2.28468">
        <ele>361.7</ele>
        <time>2016-05-04T13:52:11Z</time>
      </trkpt>
      <trkpt lat="44.12349" lon="2.28468">
        <ele>361.5</ele>
        <time>2016-05-04T13:52:12Z</time>
      </trkpt>
      <trkpt lat="44.1235" lon="2.28468">
        <ele>361</ele>
        <time>2016-05-04T13:52:13Z</time>
      </trkpt>
      <trkpt lat="44.12351" lon="2.28467">
        <ele>360.7</ele>
        <time>2016-05-04T13:52:14Z</time>
      </trkpt>
      <trkpt lat="44.12352" lon="2.28467">
        <ele>360.5</ele>
        <time>2016-05-04T13:52:15Z</time>
      </trkpt>
      <trkpt lat="44.12353" lon="2.28466">
        <ele>360.3</ele>
        <time>2016-05-04T13:52:16Z</time>
      </trkpt>
      <trkpt lat="44.12354" lon="2.28466">
        <ele>360.2</ele>
        <time>2016-05-04T13:52:17Z</time>
      </trkpt>
      <trkpt lat="44.12355" lon="2.28466">
        <ele>360.1</ele>
        <time>2016-05-04T13:52:18Z</time>
      </trkpt>
      <trkpt lat="44.12357" lon="2.28466">
        <ele>359.6</ele>
        <time>2016-05-04T13:52:19Z</time>
      </trkpt>
      <trkpt lat="44.12358" lon="2.28466">
        <ele>359.2</ele>
        <time>2016-05-04T13:52:20Z</time>
      </trkpt>
      <trkpt lat="44.12359" lon="2.28466">
        <ele>358.9</ele>
        <time>2016-05-04T13:52:21Z</time>
      </trkpt>
      <trkpt lat="44.1236" lon="2.28466">
        <ele>358.3</ele>
        <time>2016-05-04T13:52:22Z</time>
      </trkpt>
      <trkpt lat="44.12361" lon="2.28466">
        <ele>357.8</ele>
        <time>2016-05-04T13:52:23Z</time>
      </trkpt>
      <trkpt lat="44.12362" lon="2.28465">
        <ele>357.4</ele>
        <time>2016-05-04T13:52:24Z</time>
      </trkpt>
      <trkpt lat="44.12363" lon="2.28465">
        <ele>357.2</ele>
        <time>2016-05-04T13:52:25Z</time>
      </trkpt>
      <trkpt lat="44.12365" lon="2.28465">
        <ele>357</ele>
        <time>2016-05-04T13:52:26Z</time>
      </trkpt>
      <trkpt lat="44.12371" lon="2.28465">
        <ele>356</ele>
        <time>2016-05-04T13:52:30Z</time>
      </trkpt>
      <trkpt lat="44.12375" lon="2.28465">
        <ele>356.2</ele>
        <time>2016-05-04T13:52:33Z</time>
      </trkpt>
      <trkpt lat="44.12377" lon="2.28465">
        <ele>355.4</ele>
        <time>2016-05-04T13:52:34Z</time>
      </trkpt>
      <trkpt lat="44.12381" lon="2.28465">
        <ele>354.5</ele>
        <time>2016-05-04T13:52:38Z</time>
      </trkpt>
      <trkpt lat="44.12382" lon="2.28465">
        <ele>354.5</ele>
        <time>2016-05-04T13:52:39Z</time>
      </trkpt>
      <trkpt lat="44.12382" lon="2.28464">
        <ele>354.1</ele>
        <time>2016-05-04T13:52:40Z</time>
      </trkpt>
      <trkpt lat="44.12383" lon="2.28464">
        <ele>353.8</ele>
        <time>2016-05-04T13:52:41Z</time>
      </trkpt>
      <trkpt lat="44.12384" lon="2.28464">
        <ele>353.6</ele>
        <time>2016-05-04T13:52:42Z</time>
      </trkpt>
      <trkpt lat="44.12386" lon="2.28464">
        <ele>352.9</ele>
        <time>2016-05-04T13:52:44Z</time>
      </trkpt>
      <trkpt lat="44.12389" lon="2.28463">
        <ele>351.7</ele>
        <time>2016-05-04T13:52:47Z</time>
      </trkpt>
      <trkpt lat="44.12391" lon="2.28462">
        <ele>351.3</ele>
        <time>2016-05-04T13:52:48Z</time>
      </trkpt>
      <trkpt lat="44.12392" lon="2.28461">
        <ele>351.1</ele>
        <time>2016-05-04T13:52:49Z</time>
      </trkpt>
      <trkpt lat="44.12394" lon="2.2846">
        <ele>350.9</ele>
        <time>2016-05-04T13:52:50Z</time>
      </trkpt>
      <trkpt lat="44.12396" lon="2.28459">
        <ele>350.8</ele>
        <time>2016-05-04T13:52:51Z</time>
      </trkpt>
      <trkpt lat="44.12397" lon="2.28457">
        <ele>350.7</ele>
        <time>2016-05-04T13:52:52Z</time>
      </trkpt>
      <trkpt lat="44.12398" lon="2.28456">
        <ele>350.6</ele>
        <time>2016-05-04T13:52:53Z</time>
      </trkpt>
      <trkpt lat="44.12399" lon="2.28455">
        <ele>350.5</ele>
        <time>2016-05-04T13:52:54Z</time>
      </trkpt>
      <trkpt lat="44.124" lon="2.28454">
        <ele>350.1</ele>
        <time>2016-05-04T13:52:55Z</time>
      </trkpt>
      <trkpt lat="44.12401" lon="2.28454">
        <ele>349.7</ele>
        <time>2016-05-04T13:52:56Z</time>
      </trkpt>
      <trkpt lat="44.12402" lon="2.28454">
        <ele>349.4</ele>
        <time>2016-05-04T13:52:57Z</time>
      </trkpt>
      <trkpt lat="44.12403" lon="2.28454">
        <ele>348.6</ele>
        <time>2016-05-04T13:52:58Z</time>
      </trkpt>
      <trkpt lat="44.12406" lon="2.28455">
        <ele>347.5</ele>
        <time>2016-05-04T13:53:00Z</time>
      </trkpt>
      <trkpt lat="44.12407" lon="2.28456">
        <ele>346.9</ele>
        <time>2016-05-04T13:53:01Z</time>
      </trkpt>
      <trkpt lat="44.12408" lon="2.28456">
        <ele>346.5</ele>
        <time>2016-05-04T13:53:02Z</time>
      </trkpt>
      <trkpt lat="44.12421" lon="2.28462">
        <ele>344.3</ele>
        <time>2016-05-04T13:53:11Z</time>
      </trkpt>
      <trkpt lat="44.12422" lon="2.28463">
        <ele>344.1</ele>
        <time>2016-05-04T13:53:12Z</time>
      </trkpt>
      <trkpt lat="44.12423" lon="2.28464">
        <ele>343.5</ele>
        <time>2016-05-04T13:53:13Z</time>
      </trkpt>
      <trkpt lat="44.12425" lon="2.28464">
        <ele>343.1</ele>
        <time>2016-05-04T13:53:14Z</time>
      </trkpt>
      <trkpt lat="44.12426" lon="2.28465">
        <ele>342.8</ele>
        <time>2016-05-04T13:53:15Z</time>
      </trkpt>
      <trkpt lat="44.12427" lon="2.28465">
        <ele>342.7</ele>
        <time>2016-05-04T13:53:16Z</time>
      </trkpt>
      <trkpt lat="44.12428" lon="2.28465">
        <ele>342.7</ele>
        <time>2016-05-04T13:53:17Z</time>
      </trkpt>
      <trkpt lat="44.12429" lon="2.28466">
        <ele>342.7</ele>
        <time>2016-05-04T13:53:18Z</time>
      </trkpt>
      <trkpt lat="44.1243" lon="2.28466">
        <ele>342.5</ele>
        <time>2016-05-04T13:53:19Z</time>
      </trkpt>
      <trkpt lat="44.12431" lon="2.28467">
        <ele>342.3</ele>
        <time>2016-05-04T13:53:20Z</time>
      </trkpt>
      <trkpt lat="44.12432" lon="2.28467">
        <ele>342.2</ele>
        <time>2016-05-04T13:53:21Z</time>
      </trkpt>
      <trkpt lat="44.12433" lon="2.28467">
        <ele>342.1</ele>
        <time>2016-05-04T13:53:22Z</time>
      </trkpt>
      <trkpt lat="44.12434" lon="2.28468">
        <ele>342</ele>
        <time>2016-05-04T13:53:23Z</time>
      </trkpt>
      <trkpt lat="44.12435" lon="2.28468">
        <ele>342</ele>
        <time>2016-05-04T13:53:24Z</time>
      </trkpt>
      <trkpt lat="44.12436" lon="2.28468">
        <ele>341.9</ele>
        <time>2016-05-04T13:53:25Z</time>
      </trkpt>
      <trkpt lat="44.12437" lon="2.28468">
        <ele>341.9</ele>
        <time>2016-05-04T13:53:26Z</time>
      </trkpt>
      <trkpt lat="44.12445" lon="2.28472">
        <ele>339.3</ele>
        <time>2016-05-04T13:53:34Z</time>
      </trkpt>
      <trkpt lat="44.12446" lon="2.28472">
        <ele>339.1</ele>
        <time>2016-05-04T13:53:35Z</time>
      </trkpt>
      <trkpt lat="44.12447" lon="2.28473">
        <ele>338.9</ele>
        <time>2016-05-04T13:53:36Z</time>
      </trkpt>
      <trkpt lat="44.12448" lon="2.28473">
        <ele>338.8</ele>
        <time>2016-05-04T13:53:37Z</time>
      </trkpt>
      <trkpt lat="44.1245" lon="2.28473">
        <ele>338.7</ele>
        <time>2016-05-04T13:53:38Z</time>
      </trkpt>
      <trkpt lat="44.12451" lon="2.28473">
        <ele>338.6</ele>
        <time>2016-05-04T13:53:39Z</time>
      </trkpt>
      <trkpt lat="44.12452" lon="2.28473">
        <ele>337.7</ele>
        <time>2016-05-04T13:53:40Z</time>
      </trkpt>
      <trkpt lat="44.12454" lon="2.28473">
        <ele>337</ele>
        <time>2016-05-04T13:53:41Z</time>
      </trkpt>
      <trkpt lat="44.12455" lon="2.28473">
        <ele>336.5</ele>
        <time>2016-05-04T13:53:42Z</time>
      </trkpt>
      <trkpt lat="44.12456" lon="2.28473">
        <ele>336.5</ele>
        <time>2016-05-04T13:53:43Z</time>
      </trkpt>
      <trkpt lat="44.12458" lon="2.28473">
        <ele>336.6</ele>
        <time>2016-05-04T13:53:45Z</time>
      </trkpt>
      <trkpt lat="44.12459" lon="2.28473">
        <ele>336.6</ele>
        <time>2016-05-04T13:53:46Z</time>
      </trkpt>
      <trkpt lat="44.1246" lon="2.28473">
        <ele>336.6</ele>
        <time>2016-05-04T13:53:47Z</time>
      </trkpt>
      <trkpt lat="44.12461" lon="2.28472">
        <ele>336.6</ele>
        <time>2016-05-04T13:53:48Z</time>
      </trkpt>
      <trkpt lat="44.12463" lon="2.28472">
        <ele>336</ele>
        <time>2016-05-04T13:53:49Z</time>
      </trkpt>
      <trkpt lat="44.12464" lon="2.28471">
        <ele>335.5</ele>
        <time>2016-05-04T13:53:50Z</time>
      </trkpt>
      <trkpt lat="44.12466" lon="2.2847">
        <ele>335.2</ele>
        <time>2016-05-04T13:53:51Z</time>
      </trkpt>
      <trkpt lat="44.12467" lon="2.2847">
        <ele>335.3</ele>
        <time>2016-05-04T13:53:52Z</time>
      </trkpt>
      <trkpt lat="44.12469" lon="2.28469">
        <ele>335.5</ele>
        <time>2016-05-04T13:53:53Z</time>
      </trkpt>
      <trkpt lat="44.1247" lon="2.28469">
        <ele>335.6</ele>
        <time>2016-05-04T13:53:54Z</time>
      </trkpt>
      <trkpt lat="44.12471" lon="2.28468">
        <ele>335</ele>
        <time>2016-05-04T13:53:55Z</time>
      </trkpt>
      <trkpt lat="44.12473" lon="2.28469">
        <ele>334.5</ele>
        <time>2016-05-04T13:53:56Z</time>
      </trkpt>
      <trkpt lat="44.12474" lon="2.28469">
        <ele>334.2</ele>
        <time>2016-05-04T13:53:57Z</time>
      </trkpt>
      <trkpt lat="44.12475" lon="2.28469">
        <ele>334</ele>
        <time>2016-05-04T13:53:58Z</time>
      </trkpt>
      <trkpt lat="44.12481" lon="2.28471">
        <ele>333.4</ele>
        <time>2016-05-04T13:54:04Z</time>
      </trkpt>
      <trkpt lat="44.12482" lon="2.28471">
        <ele>333.4</ele>
        <time>2016-05-04T13:54:05Z</time>
      </trkpt>
      <trkpt lat="44.12483" lon="2.28471">
        <ele>333.3</ele>
        <time>2016-05-04T13:54:06Z</time>
      </trkpt>
      <trkpt lat="44.12483" lon="2.28471">
        <ele>332.9</ele>
        <time>2016-05-04T13:54:07Z</time>
      </trkpt>
      <trkpt lat="44.12484" lon="2.28471">
        <ele>332.6</ele>
        <time>2016-05-04T13:54:08Z</time>
      </trkpt>
      <trkpt lat="44.12485" lon="2.28471">
        <ele>332.3</ele>
        <time>2016-05-04T13:54:09Z</time>
      </trkpt>
      <trkpt lat="44.12485" lon="2.2847">
        <ele>332.5</ele>
        <time>2016-05-04T13:54:10Z</time>
      </trkpt>
      <trkpt lat="44.12486" lon="2.2847">
        <ele>332.7</ele>
        <time>2016-05-04T13:54:11Z</time>
      </trkpt>
      <trkpt lat="44.12486" lon="2.2847">
        <ele>332.9</ele>
        <time>2016-05-04T13:54:12Z</time>
      </trkpt>
      <trkpt lat="44.12486" lon="2.2847">
        <ele>333</ele>
        <time>2016-05-04T13:54:13Z</time>
      </trkpt>
      <trkpt lat="44.12486" lon="2.2847">
        <ele>333</ele>
        <time>2016-05-04T13:54:14Z</time>
      </trkpt>
      <trkpt lat="44.12487" lon="2.2847">
        <ele>333.1</ele>
        <time>2016-05-04T13:54:15Z</time>
      </trkpt>
      <trkpt lat="44.12487" lon="2.2847">
        <ele>332.9</ele>
        <time>2016-05-04T13:54:16Z</time>
      </trkpt>
      <trkpt lat="44.12487" lon="2.2847">
        <ele>332.8</ele>
        <time>2016-05-04T13:54:17Z</time>
      </trkpt>
      <trkpt lat="44.12488" lon="2.2847">
        <ele>332.7</ele>
        <time>2016-05-04T13:54:18Z</time>
      </trkpt>
      <trkpt lat="44.12488" lon="2.2847">
        <ele>332.6</ele>
        <time>2016-05-04T13:54:19Z</time>
      </trkpt>
      <trkpt lat="44.12488" lon="2.28469">
        <ele>332.6</ele>
        <time>2016-05-04T13:54:20Z</time>
      </trkpt>
      <trkpt lat="44.12488" lon="2.28469">
        <ele>332.5</ele>
        <time>2016-05-04T13:54:21Z</time>
      </trkpt>
      <trkpt lat="44.12489" lon="2.28469">
        <ele>332.5</ele>
        <time>2016-05-04T13:54:22Z</time>
      </trkpt>
      <trkpt lat="44.12489" lon="2.28469">
        <ele>332.5</ele>
        <time>2016-05-04T13:54:23Z</time>
      </trkpt>
      <trkpt lat="44.12489" lon="2.28469">
        <ele>332.5</ele>
        <time>2016-05-04T13:54:24Z</time>
      </trkpt>
      <trkpt lat="44.12489" lon="2.28469">
        <ele>332.4</ele>
        <time>2016-05-04T13:54:25Z</time>
      </trkpt>
      <trkpt lat="44.12489" lon="2.28469">
        <ele>332.4</ele>
        <time>2016-05-04T13:54:26Z</time>
      </trkpt>
      <trkpt lat="44.12489" lon="2.28469">
        <ele>332.4</ele>
        <time>2016-05-04T13:54:27Z</time>
      </trkpt>
      <trkpt lat="44.12489" lon="2.28469">
        <ele>332.4</ele>
        <time>2016-05-04T13:54:28Z</time>
      </trkpt>
      <trkpt lat="44.12489" lon="2.28469">
        <ele>332.4</ele>
        <time>2016-05-04T13:54:29Z</time>
      </trkpt>
      <trkpt lat="44.12489" lon="2.28469">
        <ele>332.4</ele>
        <time>2016-05-04T13:54:30Z</time>
      </trkpt>
      <trkpt lat="44.12489" lon="2.28469">
        <ele>332.4</ele>
        <time>2016-05-04T13:54:31Z</time>
      </trkpt>
      <trkpt lat="44.12489" lon="2.28469">
        <ele>332.4</ele>
        <time>2016-05-04T13:54:32Z</time>
      </trkpt>
      <trkpt lat="44.12489" lon="2.2847">
        <ele>332.4</ele>
        <time>2016-05-04T13:54:33Z</time>
      </trkpt>
      <trkpt lat="44.12489" lon="2.2847">
        <ele>332.4</ele>
        <time>2016-05-04T13:54:34Z</time>
      </trkpt>
      <trkpt lat="44.12489" lon="2.2847">
        <ele>332.4</ele>
        <time>2016-05-04T13:54:35Z</time>
      </trkpt>
      <trkpt lat="44.12489" lon="2.2847">
        <ele>332.4</ele>
        <time>2016-05-04T13:54:36Z</time>
      </trkpt>
      <trkpt lat="44.12489" lon="2.2847">
        <ele>332.4</ele>
        <time>2016-05-04T13:54:37Z</time>
      </trkpt>
      <trkpt lat="44.12489" lon="2.2847">
        <ele>332.4</ele>
        <time>2016-05-04T13:54:38Z</time>
      </trkpt>
      <trkpt lat="44.12489" lon="2.2847">
        <ele>332.4</ele>
        <time>2016-05-04T13:54:39Z</time>
      </trkpt>
      <trkpt lat="44.12489" lon="2.2847">
        <ele>332.4</ele>
        <time>2016-05-04T13:54:40Z</time>
      </trkpt>
      <trkpt lat="44.12489" lon="2.2847">
        <ele>332.4</ele>
        <time>2016-05-04T13:54:41Z</time>
      </trkpt>
      <trkpt lat="44.12488" lon="2.2847">
        <ele>332.4</ele>
        <time>2016-05-04T13:54:42Z</time>
      </trkpt>
      <trkpt lat="44.12488" lon="2.28469">
        <ele>332.6</ele>
        <time>2016-05-04T13:54:43Z</time>
      </trkpt>
      <trkpt lat="44.12488" lon="2.28469">
        <ele>332.8</ele>
        <time>2016-05-04T13:54:44Z</time>
      </trkpt>
      <trkpt lat="44.12488" lon="2.28469">
        <ele>332.9</ele>
        <time>2016-05-04T13:54:45Z</time>
      </trkpt>
      <trkpt lat="44.12488" lon="2.28469">
        <ele>332.8</ele>
        <time>2016-05-04T13:54:46Z</time>
      </trkpt>
      <trkpt lat="44.12487" lon="2.2847">
        <ele>332.7</ele>
        <time>2016-05-04T13:54:47Z</time>
      </trkpt>
      <trkpt lat="44.12487" lon="2.2847">
        <ele>332.3</ele>
        <time>2016-05-04T13:54:49Z</time>
      </trkpt>
      <trkpt lat="44.12487" lon="2.2847">
        <ele>332.1</ele>
        <time>2016-05-04T13:54:50Z</time>
      </trkpt>
      <trkpt lat="44.12487" lon="2.2847">
        <ele>332</ele>
        <time>2016-05-04T13:54:51Z</time>
      </trkpt>
      <trkpt lat="44.12487" lon="2.2847">
        <ele>332.3</ele>
        <time>2016-05-04T13:54:52Z</time>
      </trkpt>
      <trkpt lat="44.12488" lon="2.2847">
        <ele>332.6</ele>
        <time>2016-05-04T13:54:53Z</time>
      </trkpt>
      <trkpt lat="44.12488" lon="2.2847">
        <ele>332.7</ele>
        <time>2016-05-04T13:54:54Z</time>
      </trkpt>
      <trkpt lat="44.12489" lon="2.28471">
        <ele>332.6</ele>
        <time>2016-05-04T13:54:55Z</time>
      </trkpt>
      <trkpt lat="44.1249" lon="2.28471">
        <ele>332.6</ele>
        <time>2016-05-04T13:54:56Z</time>
      </trkpt>
      <trkpt lat="44.1249" lon="2.28471">
        <ele>332.5</ele>
        <time>2016-05-04T13:54:57Z</time>
      </trkpt>
      <trkpt lat="44.1249" lon="2.28471">
        <ele>332.3</ele>
        <time>2016-05-04T13:54:58Z</time>
      </trkpt>
      <trkpt lat="44.12491" lon="2.28471">
        <ele>332.1</ele>
        <time>2016-05-04T13:54:59Z</time>
      </trkpt>
      <trkpt lat="44.12492" lon="2.2847">
        <ele>332</ele>
        <time>2016-05-04T13:55:00Z</time>
      </trkpt>
      <trkpt lat="44.12493" lon="2.2847">
        <ele>332.1</ele>
        <time>2016-05-04T13:55:01Z</time>
      </trkpt>
      <trkpt lat="44.12494" lon="2.28469">
        <ele>332.2</ele>
        <time>2016-05-04T13:55:02Z</time>
      </trkpt>
      <trkpt lat="44.12495" lon="2.28469">
        <ele>332.2</ele>
        <time>2016-05-04T13:55:03Z</time>
      </trkpt>
      <trkpt lat="44.12496" lon="2.28469">
        <ele>332.3</ele>
        <time>2016-05-04T13:55:04Z</time>
      </trkpt>
      <trkpt lat="44.12497" lon="2.28469">
        <ele>332.3</ele>
        <time>2016-05-04T13:55:05Z</time>
      </trkpt>
      <trkpt lat="44.12497" lon="2.2847">
        <ele>332.3</ele>
        <time>2016-05-04T13:55:06Z</time>
      </trkpt>
      <trkpt lat="44.12498" lon="2.2847">
        <ele>332.3</ele>
        <time>2016-05-04T13:55:07Z</time>
      </trkpt>
      <trkpt lat="44.12499" lon="2.2847">
        <ele>332.4</ele>
        <time>2016-05-04T13:55:08Z</time>
      </trkpt>
      <trkpt lat="44.125" lon="2.2847">
        <ele>332.4</ele>
        <time>2016-05-04T13:55:09Z</time>
      </trkpt>
      <trkpt lat="44.125" lon="2.28471">
        <ele>332.2</ele>
        <time>2016-05-04T13:55:10Z</time>
      </trkpt>
      <trkpt lat="44.12501" lon="2.28471">
        <ele>332</ele>
        <time>2016-05-04T13:55:11Z</time>
      </trkpt>
      <trkpt lat="44.12502" lon="2.28471">
        <ele>331.9</ele>
        <time>2016-05-04T13:55:12Z</time>
      </trkpt>
      <trkpt lat="44.12502" lon="2.28471">
        <ele>331.8</ele>
        <time>2016-05-04T13:55:13Z</time>
      </trkpt>
      <trkpt lat="44.12503" lon="2.2847">
        <ele>331.7</ele>
        <time>2016-05-04T13:55:14Z</time>
      </trkpt>
      <trkpt lat="44.12504" lon="2.28471">
        <ele>331.7</ele>
        <time>2016-05-04T13:55:15Z</time>
      </trkpt>
      <trkpt lat="44.12504" lon="2.28471">
        <ele>331.7</ele>
        <time>2016-05-04T13:55:16Z</time>
      </trkpt>
      <trkpt lat="44.12505" lon="2.28471">
        <ele>331.6</ele>
        <time>2016-05-04T13:55:17Z</time>
      </trkpt>
      <trkpt lat="44.12505" lon="2.28471">
        <ele>331.6</ele>
        <time>2016-05-04T13:55:18Z</time>
      </trkpt>
      <trkpt lat="44.12506" lon="2.28472">
        <ele>331.6</ele>
        <time>2016-05-04T13:55:19Z</time>
      </trkpt>
      <trkpt lat="44.12507" lon="2.28472">
        <ele>331.6</ele>
        <time>2016-05-04T13:55:20Z</time>
      </trkpt>
      <trkpt lat="44.12507" lon="2.28472">
        <ele>331.6</ele>
        <time>2016-05-04T13:55:21Z</time>
      </trkpt>
      <trkpt lat="44.12507" lon="2.28472">
        <ele>331.8</ele>
        <time>2016-05-04T13:55:22Z</time>
      </trkpt>
      <trkpt lat="44.12508" lon="2.28472">
        <ele>331.9</ele>
        <time>2016-05-04T13:55:23Z</time>
      </trkpt>
      <trkpt lat="44.12508" lon="2.28471">
        <ele>332.1</ele>
        <time>2016-05-04T13:55:24Z</time>
      </trkpt>
      <trkpt lat="44.12509" lon="2.28471">
        <ele>332.4</ele>
        <time>2016-05-04T13:55:25Z</time>
      </trkpt>
      <trkpt lat="44.12509" lon="2.28471">
        <ele>332.6</ele>
        <time>2016-05-04T13:55:26Z</time>
      </trkpt>
      <trkpt lat="44.12509" lon="2.28471">
        <ele>332.8</ele>
        <time>2016-05-04T13:55:27Z</time>
      </trkpt>
      <trkpt lat="44.1251" lon="2.28471">
        <ele>333.3</ele>
        <time>2016-05-04T13:55:28Z</time>
      </trkpt>
      <trkpt lat="44.1251" lon="2.28471">
        <ele>333.7</ele>
        <time>2016-05-04T13:55:29Z</time>
      </trkpt>
      <trkpt lat="44.12511" lon="2.2847">
        <ele>334</ele>
        <time>2016-05-04T13:55:30Z</time>
      </trkpt>
      <trkpt lat="44.12511" lon="2.2847">
        <ele>334.1</ele>
        <time>2016-05-04T13:55:31Z</time>
      </trkpt>
      <trkpt lat="44.12511" lon="2.2847">
        <ele>334.1</ele>
        <time>2016-05-04T13:55:32Z</time>
      </trkpt>
      <trkpt lat="44.12511" lon="2.2847">
        <ele>334.1</ele>
        <time>2016-05-04T13:55:33Z</time>
      </trkpt>
      <trkpt lat="44.12512" lon="2.2847">
        <ele>333.9</ele>
        <time>2016-05-04T13:55:34Z</time>
      </trkpt>
      <trkpt lat="44.12512" lon="2.2847">
        <ele>333.7</ele>
        <time>2016-05-04T13:55:35Z</time>
      </trkpt>
      <trkpt lat="44.12512" lon="2.2847">
        <ele>333.6</ele>
        <time>2016-05-04T13:55:36Z</time>
      </trkpt>
      <trkpt lat="44.12513" lon="2.2847">
        <ele>334.2</ele>
        <time>2016-05-04T13:55:37Z</time>
      </trkpt>
      <trkpt lat="44.12513" lon="2.28469">
        <ele>334.6</ele>
        <time>2016-05-04T13:55:38Z</time>
      </trkpt>
      <trkpt lat="44.12513" lon="2.28469">
        <ele>334.9</ele>
        <time>2016-05-04T13:55:39Z</time>
      </trkpt>
      <trkpt lat="44.12514" lon="2.28469">
        <ele>335.1</ele>
        <time>2016-05-04T13:55:40Z</time>
      </trkpt>
      <trkpt lat="44.12514" lon="2.28469">
        <ele>335.3</ele>
        <time>2016-05-04T13:55:41Z</time>
      </trkpt>
      <trkpt lat="44.12514" lon="2.28469">
        <ele>335.4</ele>
        <time>2016-05-04T13:55:42Z</time>
      </trkpt>
      <trkpt lat="44.12514" lon="2.28469">
        <ele>335.7</ele>
        <time>2016-05-04T13:55:43Z</time>
      </trkpt>
      <trkpt lat="44.12514" lon="2.28469">
        <ele>336</ele>
        <time>2016-05-04T13:55:44Z</time>
      </trkpt>
      <trkpt lat="44.12515" lon="2.28469">
        <ele>336.1</ele>
        <time>2016-05-04T13:55:45Z</time>
      </trkpt>
      <trkpt lat="44.12515" lon="2.28469">
        <ele>336.3</ele>
        <time>2016-05-04T13:55:46Z</time>
      </trkpt>
      <trkpt lat="44.12515" lon="2.28469">
        <ele>336.4</ele>
        <time>2016-05-04T13:55:47Z</time>
      </trkpt>
      <trkpt lat="44.12516" lon="2.28468">
        <ele>336.5</ele>
        <time>2016-05-04T13:55:48Z</time>
      </trkpt>
      <trkpt lat="44.12516" lon="2.28468">
        <ele>336.7</ele>
        <time>2016-05-04T13:55:49Z</time>
      </trkpt>
      <trkpt lat="44.12517" lon="2.28468">
        <ele>336.9</ele>
        <time>2016-05-04T13:55:50Z</time>
      </trkpt>
      <trkpt lat="44.12518" lon="2.28467">
        <ele>337.1</ele>
        <time>2016-05-04T13:55:51Z</time>
      </trkpt>
      <trkpt lat="44.12518" lon="2.28467">
        <ele>337</ele>
        <time>2016-05-04T13:55:52Z</time>
      </trkpt>
      <trkpt lat="44.12519" lon="2.28467">
        <ele>336.9</ele>
        <time>2016-05-04T13:55:53Z</time>
      </trkpt>
      <trkpt lat="44.1252" lon="2.28466">
        <ele>336.8</ele>
        <time>2016-05-04T13:55:54Z</time>
      </trkpt>
      <trkpt lat="44.1252" lon="2.28466">
        <ele>336.8</ele>
        <time>2016-05-04T13:55:55Z</time>
      </trkpt>
      <trkpt lat="44.1252" lon="2.28466">
        <ele>336.8</ele>
        <time>2016-05-04T13:55:56Z</time>
      </trkpt>
      <trkpt lat="44.12521" lon="2.28467">
        <ele>336.7</ele>
        <time>2016-05-04T13:55:57Z</time>
      </trkpt>
      <trkpt lat="44.12521" lon="2.28467">
        <ele>336.9</ele>
        <time>2016-05-04T13:55:58Z</time>
      </trkpt>
      <trkpt lat="44.12521" lon="2.28467">
        <ele>337.1</ele>
        <time>2016-05-04T13:55:59Z</time>
      </trkpt>
      <trkpt lat="44.12521" lon="2.28467">
        <ele>337.2</ele>
        <time>2016-05-04T13:56:00Z</time>
      </trkpt>
      <trkpt lat="44.1252" lon="2.28468">
        <ele>337</ele>
        <time>2016-05-04T13:56:04Z</time>
      </trkpt>
      <trkpt lat="44.12521" lon="2.28468">
        <ele>336.5</ele>
        <time>2016-05-04T13:56:07Z</time>
      </trkpt>
      <trkpt lat="44.12521" lon="2.28468">
        <ele>336.6</ele>
        <time>2016-05-04T13:56:08Z</time>
      </trkpt>
      <trkpt lat="44.12521" lon="2.28468">
        <ele>336.6</ele>
        <time>2016-05-04T13:56:09Z</time>
      </trkpt>
      <trkpt lat="44.12522" lon="2.28467">
        <ele>336.2</ele>
        <time>2016-05-04T13:56:10Z</time>
      </trkpt>
      <trkpt lat="44.12522" lon="2.28467">
        <ele>335.9</ele>
        <time>2016-05-04T13:56:11Z</time>
      </trkpt>
      <trkpt lat="44.12523" lon="2.28467">
        <ele>335.7</ele>
        <time>2016-05-04T13:56:12Z</time>
      </trkpt>
      <trkpt lat="44.12523" lon="2.28467">
        <ele>335.9</ele>
        <time>2016-05-04T13:56:13Z</time>
      </trkpt>
      <trkpt lat="44.12524" lon="2.28466">
        <ele>336.1</ele>
        <time>2016-05-04T13:56:14Z</time>
      </trkpt>
      <trkpt lat="44.12524" lon="2.28466">
        <ele>336.2</ele>
        <time>2016-05-04T13:56:15Z</time>
      </trkpt>
      <trkpt lat="44.12525" lon="2.28466">
        <ele>336.6</ele>
        <time>2016-05-04T13:56:16Z</time>
      </trkpt>
      <trkpt lat="44.12526" lon="2.28465">
        <ele>336.8</ele>
        <time>2016-05-04T13:56:17Z</time>
      </trkpt>
      <trkpt lat="44.12526" lon="2.28465">
        <ele>337</ele>
        <time>2016-05-04T13:56:18Z</time>
      </trkpt>
      <trkpt lat="44.12527" lon="2.28464">
        <ele>337.1</ele>
        <time>2016-05-04T13:56:19Z</time>
      </trkpt>
      <trkpt lat="44.12527" lon="2.28463">
        <ele>337.2</ele>
        <time>2016-05-04T13:56:20Z</time>
      </trkpt>
      <trkpt lat="44.12528" lon="2.28463">
        <ele>337.3</ele>
        <time>2016-05-04T13:56:21Z</time>
      </trkpt>
      <trkpt lat="44.12528" lon="2.28462">
        <ele>337.4</ele>
        <time>2016-05-04T13:56:22Z</time>
      </trkpt>
      <trkpt lat="44.12528" lon="2.28461">
        <ele>337.4</ele>
        <time>2016-05-04T13:56:23Z</time>
      </trkpt>
      <trkpt lat="44.12529" lon="2.28459">
        <ele>339</ele>
        <time>2016-05-04T13:56:27Z</time>
      </trkpt>
      <trkpt lat="44.1253" lon="2.28459">
        <ele>339.5</ele>
        <time>2016-05-04T13:56:28Z</time>
      </trkpt>
      <trkpt lat="44.1253" lon="2.28459">
        <ele>339.8</ele>
        <time>2016-05-04T13:56:29Z</time>
      </trkpt>
      <trkpt lat="44.1253" lon="2.28459">
        <ele>340.1</ele>
        <time>2016-05-04T13:56:30Z</time>
      </trkpt>
      <trkpt lat="44.1253" lon="2.28459">
        <ele>340.1</ele>
        <time>2016-05-04T13:56:31Z</time>
      </trkpt>
      <trkpt lat="44.1253" lon="2.28459">
        <ele>340.1</ele>
        <time>2016-05-04T13:56:32Z</time>
      </trkpt>
      <trkpt lat="44.1253" lon="2.28459">
        <ele>340.1</ele>
        <time>2016-05-04T13:56:33Z</time>
      </trkpt>
      <trkpt lat="44.12531" lon="2.28457">
        <ele>340.1</ele>
        <time>2016-05-04T13:56:35Z</time>
      </trkpt>
      <trkpt lat="44.12532" lon="2.28455">
        <ele>339.9</ele>
        <time>2016-05-04T13:56:37Z</time>
      </trkpt>
      <trkpt lat="44.12532" lon="2.28454">
        <ele>339.7</ele>
        <time>2016-05-04T13:56:38Z</time>
      </trkpt>
      <trkpt lat="44.12532" lon="2.28446">
        <ele>340.9</ele>
        <time>2016-05-04T13:56:49Z</time>
      </trkpt>
      <trkpt lat="44.12532" lon="2.28446">
        <ele>340.9</ele>
        <time>2016-05-04T13:56:50Z</time>
      </trkpt>
      <trkpt lat="44.12532" lon="2.28446">
        <ele>340.9</ele>
        <time>2016-05-04T13:56:51Z</time>
      </trkpt>
      <trkpt lat="44.12532" lon="2.28446">
        <ele>341.1</ele>
        <time>2016-05-04T13:56:52Z</time>
      </trkpt>
      <trkpt lat="44.12532" lon="2.28445">
        <ele>341.3</ele>
        <time>2016-05-04T13:56:53Z</time>
      </trkpt>
      <trkpt lat="44.12532" lon="2.28445">
        <ele>341.4</ele>
        <time>2016-05-04T13:56:54Z</time>
      </trkpt>
      <trkpt lat="44.12532" lon="2.28445">
        <ele>341.5</ele>
        <time>2016-05-04T13:56:55Z</time>
      </trkpt>
      <trkpt lat="44.12532" lon="2.28445">
        <ele>341.6</ele>
        <time>2016-05-04T13:56:56Z</time>
      </trkpt>
      <trkpt lat="44.12532" lon="2.28445">
        <ele>341.6</ele>
        <time>2016-05-04T13:56:57Z</time>
      </trkpt>
      <trkpt lat="44.12532" lon="2.28445">
        <ele>341.5</ele>
        <time>2016-05-04T13:56:58Z</time>
      </trkpt>
      <trkpt lat="44.12532" lon="2.28446">
        <ele>341.3</ele>
        <time>2016-05-04T13:56:59Z</time>
      </trkpt>
      <trkpt lat="44.12532" lon="2.28446">
        <ele>341.2</ele>
        <time>2016-05-04T13:57:00Z</time>
      </trkpt>
      <trkpt lat="44.12532" lon="2.28447">
        <ele>341.2</ele>
        <time>2016-05-04T13:57:01Z</time>
      </trkpt>
      <trkpt lat="44.12532" lon="2.28447">
        <ele>341.1</ele>
        <time>2016-05-04T13:57:02Z</time>
      </trkpt>
      <trkpt lat="44.12532" lon="2.28448">
        <ele>341.1</ele>
        <time>2016-05-04T13:57:03Z</time>
      </trkpt>
      <trkpt lat="44.12532" lon="2.28449">
        <ele>340.6</ele>
        <time>2016-05-04T13:57:04Z</time>
      </trkpt>
      <trkpt lat="44.12532" lon="2.2845">
        <ele>340.3</ele>
        <time>2016-05-04T13:57:05Z</time>
      </trkpt>
      <trkpt lat="44.12532" lon="2.28451">
        <ele>340</ele>
        <time>2016-05-04T13:57:06Z</time>
      </trkpt>
      <trkpt lat="44.12532" lon="2.28453">
        <ele>340</ele>
        <time>2016-05-04T13:57:07Z</time>
      </trkpt>
      <trkpt lat="44.12532" lon="2.28454">
        <ele>340</ele>
        <time>2016-05-04T13:57:08Z</time>
      </trkpt>
      <trkpt lat="44.12532" lon="2.28455">
        <ele>340.1</ele>
        <time>2016-05-04T13:57:09Z</time>
      </trkpt>
      <trkpt lat="44.12532" lon="2.28456">
        <ele>339.9</ele>
        <time>2016-05-04T13:57:10Z</time>
      </trkpt>
      <trkpt lat="44.12532" lon="2.28457">
        <ele>339.7</ele>
        <time>2016-05-04T13:57:11Z</time>
      </trkpt>
      <trkpt lat="44.12532" lon="2.28458">
        <ele>339.6</ele>
        <time>2016-05-04T13:57:12Z</time>
      </trkpt>
      <trkpt lat="44.12532" lon="2.28459">
        <ele>339.3</ele>
        <time>2016-05-04T13:57:13Z</time>
      </trkpt>
      <trkpt lat="44.12532" lon="2.2846">
        <ele>339.1</ele>
        <time>2016-05-04T13:57:14Z</time>
      </trkpt>
      <trkpt lat="44.12532" lon="2.28461">
        <ele>338.9</ele>
        <time>2016-05-04T13:57:15Z</time>
      </trkpt>
      <trkpt lat="44.12531" lon="2.28462">
        <ele>338.6</ele>
        <time>2016-05-04T13:57:16Z</time>
      </trkpt>
      <trkpt lat="44.12531" lon="2.28462">
        <ele>338.3</ele>
        <time>2016-05-04T13:57:17Z</time>
      </trkpt>
      <trkpt lat="44.1253" lon="2.28462">
        <ele>338.1</ele>
        <time>2016-05-04T13:57:18Z</time>
      </trkpt>
      <trkpt lat="44.12528" lon="2.28462">
        <ele>337.9</ele>
        <time>2016-05-04T13:57:22Z</time>
      </trkpt>
      <trkpt lat="44.12528" lon="2.28461">
        <ele>338</ele>
        <time>2016-05-04T13:57:23Z</time>
      </trkpt>
      <trkpt lat="44.12528" lon="2.28461">
        <ele>338.1</ele>
        <time>2016-05-04T13:57:24Z</time>
      </trkpt>
      <trkpt lat="44.12527" lon="2.28461">
        <ele>337.8</ele>
        <time>2016-05-04T13:57:25Z</time>
      </trkpt>
      <trkpt lat="44.12527" lon="2.28461">
        <ele>337.5</ele>
        <time>2016-05-04T13:57:26Z</time>
      </trkpt>
      <trkpt lat="44.12527" lon="2.28461">
        <ele>337.3</ele>
        <time>2016-05-04T13:57:27Z</time>
      </trkpt>
      <trkpt lat="44.12527" lon="2.28461">
        <ele>337.1</ele>
        <time>2016-05-04T13:57:28Z</time>
      </trkpt>
      <trkpt lat="44.12527" lon="2.28461">
        <ele>337</ele>
        <time>2016-05-04T13:57:29Z</time>
      </trkpt>
      <trkpt lat="44.12527" lon="2.28461">
        <ele>336.9</ele>
        <time>2016-05-04T13:57:30Z</time>
      </trkpt>
      <trkpt lat="44.12527" lon="2.28461">
        <ele>336.7</ele>
        <time>2016-05-04T13:57:31Z</time>
      </trkpt>
      <trkpt lat="44.12527" lon="2.28461">
        <ele>336.4</ele>
        <time>2016-05-04T13:57:32Z</time>
      </trkpt>
      <trkpt lat="44.12527" lon="2.28461">
        <ele>336.3</ele>
        <time>2016-05-04T13:57:33Z</time>
      </trkpt>
      <trkpt lat="44.12526" lon="2.28461">
        <ele>336</ele>
        <time>2016-05-04T13:57:34Z</time>
      </trkpt>
      <trkpt lat="44.12526" lon="2.28462">
        <ele>335.7</ele>
        <time>2016-05-04T13:57:35Z</time>
      </trkpt>
      <trkpt lat="44.12526" lon="2.28462">
        <ele>335.5</ele>
        <time>2016-05-04T13:57:36Z</time>
      </trkpt>
      <trkpt lat="44.12526" lon="2.28462">
        <ele>335.2</ele>
        <time>2016-05-04T13:57:37Z</time>
      </trkpt>
      <trkpt lat="44.12526" lon="2.28462">
        <ele>334.9</ele>
        <time>2016-05-04T13:57:38Z</time>
      </trkpt>
      <trkpt lat="44.12526" lon="2.28462">
        <ele>334.7</ele>
        <time>2016-05-04T13:57:39Z</time>
      </trkpt>
      <trkpt lat="44.12526" lon="2.28462">
        <ele>334.1</ele>
        <time>2016-05-04T13:57:40Z</time>
      </trkpt>
      <trkpt lat="44.12525" lon="2.28462">
        <ele>333.7</ele>
        <time>2016-05-04T13:57:41Z</time>
      </trkpt>
      <trkpt lat="44.12525" lon="2.28462">
        <ele>333.4</ele>
        <time>2016-05-04T13:57:42Z</time>
      </trkpt>
      <trkpt lat="44.12525" lon="2.28462">
        <ele>333.3</ele>
        <time>2016-05-04T13:57:43Z</time>
      </trkpt>
      <trkpt lat="44.12525" lon="2.28463">
        <ele>333.3</ele>
        <time>2016-05-04T13:57:44Z</time>
      </trkpt>
      <trkpt lat="44.12525" lon="2.28463">
        <ele>333.3</ele>
        <time>2016-05-04T13:57:45Z</time>
      </trkpt>
      <trkpt lat="44.12524" lon="2.28463">
        <ele>332.4</ele>
        <time>2016-05-04T13:57:46Z</time>
      </trkpt>
      <trkpt lat="44.12524" lon="2.28464">
        <ele>331.8</ele>
        <time>2016-05-04T13:57:47Z</time>
      </trkpt>
      <trkpt lat="44.12524" lon="2.28464">
        <ele>331.3</ele>
        <time>2016-05-04T13:57:48Z</time>
      </trkpt>
      <trkpt lat="44.12523" lon="2.28465">
        <ele>330.9</ele>
        <time>2016-05-04T13:57:49Z</time>
      </trkpt>
      <trkpt lat="44.12523" lon="2.28466">
        <ele>330.7</ele>
        <time>2016-05-04T13:57:50Z</time>
      </trkpt>
      <trkpt lat="44.12523" lon="2.28466">
        <ele>330.5</ele>
        <time>2016-05-04T13:57:51Z</time>
      </trkpt>
      <trkpt lat="44.12523" lon="2.28467">
        <ele>330.7</ele>
        <time>2016-05-04T13:57:52Z</time>
      </trkpt>
      <trkpt lat="44.12523" lon="2.28468">
        <ele>330.9</ele>
        <time>2016-05-04T13:57:53Z</time>
      </trkpt>
      <trkpt lat="44.12523" lon="2.28469">
        <ele>331.1</ele>
        <time>2016-05-04T13:57:54Z</time>
      </trkpt>
      <trkpt lat="44.12523" lon="2.28469">
        <ele>330.4</ele>
        <time>2016-05-04T13:57:55Z</time>
      </trkpt>
      <trkpt lat="44.12523" lon="2.2847">
        <ele>329.8</ele>
        <time>2016-05-04T13:57:56Z</time>
      </trkpt>
      <trkpt lat="44.12524" lon="2.28471">
        <ele>329.4</ele>
        <time>2016-05-04T13:57:57Z</time>
      </trkpt>
      <trkpt lat="44.12525" lon="2.28472">
        <ele>330.1</ele>
        <time>2016-05-04T13:58:00Z</time>
      </trkpt>
      <trkpt lat="44.12526" lon="2.28472">
        <ele>330.1</ele>
        <time>2016-05-04T13:58:01Z</time>
      </trkpt>
      <trkpt lat="44.12526" lon="2.28472">
        <ele>330</ele>
        <time>2016-05-04T13:58:02Z</time>
      </trkpt>
      <trkpt lat="44.12529" lon="2.28475">
        <ele>329.4</ele>
        <time>2016-05-04T13:58:09Z</time>
      </trkpt>
      <trkpt lat="44.12529" lon="2.28476">
        <ele>328.9</ele>
        <time>2016-05-04T13:58:10Z</time>
      </trkpt>
      <trkpt lat="44.1253" lon="2.28476">
        <ele>328.5</ele>
        <time>2016-05-04T13:58:11Z</time>
      </trkpt>
      <trkpt lat="44.1253" lon="2.28477">
        <ele>328.2</ele>
        <time>2016-05-04T13:58:12Z</time>
      </trkpt>
      <trkpt lat="44.12531" lon="2.28478">
        <ele>328.2</ele>
        <time>2016-05-04T13:58:13Z</time>
      </trkpt>
      <trkpt lat="44.12531" lon="2.28479">
        <ele>328.2</ele>
        <time>2016-05-04T13:58:14Z</time>
      </trkpt>
      <trkpt lat="44.12532" lon="2.2848">
        <ele>328.1</ele>
        <time>2016-05-04T13:58:15Z</time>
      </trkpt>
      <trkpt lat="44.12533" lon="2.28482">
        <ele>328.1</ele>
        <time>2016-05-04T13:58:16Z</time>
      </trkpt>
      <trkpt lat="44.12533" lon="2.28483">
        <ele>328.1</ele>
        <time>2016-05-04T13:58:17Z</time>
      </trkpt>
      <trkpt lat="44.12534" lon="2.28484">
        <ele>328.1</ele>
        <time>2016-05-04T13:58:18Z</time>
      </trkpt>
      <trkpt lat="44.12535" lon="2.28485">
        <ele>328.4</ele>
        <time>2016-05-04T13:58:19Z</time>
      </trkpt>
      <trkpt lat="44.12536" lon="2.28487">
        <ele>328.5</ele>
        <time>2016-05-04T13:58:20Z</time>
      </trkpt>
      <trkpt lat="44.12537" lon="2.28487">
        <ele>328.6</ele>
        <time>2016-05-04T13:58:21Z</time>
      </trkpt>
      <trkpt lat="44.12538" lon="2.28488">
        <ele>328.3</ele>
        <time>2016-05-04T13:58:22Z</time>
      </trkpt>
      <trkpt lat="44.12539" lon="2.28489">
        <ele>328</ele>
        <time>2016-05-04T13:58:23Z</time>
      </trkpt>
      <trkpt lat="44.1254" lon="2.28489">
        <ele>327.9</ele>
        <time>2016-05-04T13:58:24Z</time>
      </trkpt>
      <trkpt lat="44.12541" lon="2.28489">
        <ele>327.7</ele>
        <time>2016-05-04T13:58:25Z</time>
      </trkpt>
      <trkpt lat="44.12542" lon="2.2849">
        <ele>327.6</ele>
        <time>2016-05-04T13:58:26Z</time>
      </trkpt>
      <trkpt lat="44.12543" lon="2.2849">
        <ele>327.5</ele>
        <time>2016-05-04T13:58:27Z</time>
      </trkpt>
      <trkpt lat="44.12544" lon="2.2849">
        <ele>328.1</ele>
        <time>2016-05-04T13:58:28Z</time>
      </trkpt>
      <trkpt lat="44.12545" lon="2.2849">
        <ele>328.5</ele>
        <time>2016-05-04T13:58:29Z</time>
      </trkpt>
      <trkpt lat="44.12546" lon="2.28491">
        <ele>328.9</ele>
        <time>2016-05-04T13:58:30Z</time>
      </trkpt>
      <trkpt lat="44.12548" lon="2.28491">
        <ele>328.9</ele>
        <time>2016-05-04T13:58:31Z</time>
      </trkpt>
      <trkpt lat="44.12549" lon="2.28491">
        <ele>328.9</ele>
        <time>2016-05-04T13:58:32Z</time>
      </trkpt>
      <trkpt lat="44.1255" lon="2.28492">
        <ele>328.9</ele>
        <time>2016-05-04T13:58:33Z</time>
      </trkpt>
      <trkpt lat="44.12551" lon="2.28492">
        <ele>328.7</ele>
        <time>2016-05-04T13:58:34Z</time>
      </trkpt>
      <trkpt lat="44.12552" lon="2.28492">
        <ele>328.6</ele>
        <time>2016-05-04T13:58:35Z</time>
      </trkpt>
      <trkpt lat="44.12553" lon="2.28493">
        <ele>328.5</ele>
        <time>2016-05-04T13:58:36Z</time>
      </trkpt>
      <trkpt lat="44.12555" lon="2.28493">
        <ele>328.6</ele>
        <time>2016-05-04T13:58:37Z</time>
      </trkpt>
      <trkpt lat="44.12556" lon="2.28493">
        <ele>328.7</ele>
        <time>2016-05-04T13:58:38Z</time>
      </trkpt>
      <trkpt lat="44.12557" lon="2.28493">
        <ele>328.8</ele>
        <time>2016-05-04T13:58:39Z</time>
      </trkpt>
      <trkpt lat="44.12558" lon="2.28494">
        <ele>329</ele>
        <time>2016-05-04T13:58:40Z</time>
      </trkpt>
      <trkpt lat="44.1256" lon="2.28494">
        <ele>329.2</ele>
        <time>2016-05-04T13:58:41Z</time>
      </trkpt>
      <trkpt lat="44.12561" lon="2.28495">
        <ele>329.4</ele>
        <time>2016-05-04T13:58:42Z</time>
      </trkpt>
      <trkpt lat="44.12562" lon="2.28495">
        <ele>329.3</ele>
        <time>2016-05-04T13:58:43Z</time>
      </trkpt>
      <trkpt lat="44.12563" lon="2.28495">
        <ele>329.2</ele>
        <time>2016-05-04T13:58:44Z</time>
      </trkpt>
      <trkpt lat="44.12565" lon="2.28495">
        <ele>329.2</ele>
        <time>2016-05-04T13:58:45Z</time>
      </trkpt>
      <trkpt lat="44.12577" lon="2.28493">
        <ele>328.8</ele>
        <time>2016-05-04T13:58:55Z</time>
      </trkpt>
      <trkpt lat="44.12578" lon="2.28493">
        <ele>328.8</ele>
        <time>2016-05-04T13:58:56Z</time>
      </trkpt>
      <trkpt lat="44.12579" lon="2.28493">
        <ele>328.9</ele>
        <time>2016-05-04T13:58:57Z</time>
      </trkpt>
      <trkpt lat="44.1258" lon="2.28493">
        <ele>328.7</ele>
        <time>2016-05-04T13:58:58Z</time>
      </trkpt>
      <trkpt lat="44.12581" lon="2.28493">
        <ele>328.5</ele>
        <time>2016-05-04T13:58:59Z</time>
      </trkpt>
      <trkpt lat="44.12584" lon="2.28493">
        <ele>328.4</ele>
        <time>2016-05-04T13:59:01Z</time>
      </trkpt>
      <trkpt lat="44.12587" lon="2.28492">
        <ele>327.6</ele>
        <time>2016-05-04T13:59:04Z</time>
      </trkpt>
      <trkpt lat="44.12592" lon="2.28491">
        <ele>326.6</ele>
        <time>2016-05-04T13:59:07Z</time>
      </trkpt>
      <trkpt lat="44.12593" lon="2.28491">
        <ele>326.6</ele>
        <time>2016-05-04T13:59:08Z</time>
      </trkpt>
      <trkpt lat="44.12595" lon="2.28491">
        <ele>326.5</ele>
        <time>2016-05-04T13:59:09Z</time>
      </trkpt>
      <trkpt lat="44.12605" lon="2.28493">
        <ele>326.4</ele>
        <time>2016-05-04T13:59:17Z</time>
      </trkpt>
      <trkpt lat="44.12606" lon="2.28493">
        <ele>326.4</ele>
        <time>2016-05-04T13:59:18Z</time>
      </trkpt>
      <trkpt lat="44.12608" lon="2.28493">
        <ele>326.2</ele>
        <time>2016-05-04T13:59:19Z</time>
      </trkpt>
      <trkpt lat="44.12609" lon="2.28492">
        <ele>326.1</ele>
        <time>2016-05-04T13:59:20Z</time>
      </trkpt>
      <trkpt lat="44.12611" lon="2.28492">
        <ele>325.8</ele>
        <time>2016-05-04T13:59:22Z</time>
      </trkpt>
      <trkpt lat="44.12611" lon="2.28492">
        <ele>325.8</ele>
        <time>2016-05-04T13:59:23Z</time>
      </trkpt>
      <trkpt lat="44.12612" lon="2.28492">
        <ele>325.7</ele>
        <time>2016-05-04T13:59:24Z</time>
      </trkpt>
      <trkpt lat="44.12613" lon="2.28491">
        <ele>325.9</ele>
        <time>2016-05-04T13:59:25Z</time>
      </trkpt>
      <trkpt lat="44.12614" lon="2.28491">
        <ele>326</ele>
        <time>2016-05-04T13:59:26Z</time>
      </trkpt>
      <trkpt lat="44.12614" lon="2.2849">
        <ele>326.1</ele>
        <time>2016-05-04T13:59:27Z</time>
      </trkpt>
      <trkpt lat="44.12615" lon="2.2849">
        <ele>326.2</ele>
        <time>2016-05-04T13:59:28Z</time>
      </trkpt>
      <trkpt lat="44.12615" lon="2.28489">
        <ele>326.3</ele>
        <time>2016-05-04T13:59:29Z</time>
      </trkpt>
      <trkpt lat="44.12616" lon="2.28489">
        <ele>326.3</ele>
        <time>2016-05-04T13:59:30Z</time>
      </trkpt>
      <trkpt lat="44.12616" lon="2.28488">
        <ele>325.9</ele>
        <time>2016-05-04T13:59:31Z</time>
      </trkpt>
      <trkpt lat="44.12616" lon="2.28488">
        <ele>325.6</ele>
        <time>2016-05-04T13:59:32Z</time>
      </trkpt>
      <trkpt lat="44.12622" lon="2.28485">
        <ele>324.7</ele>
        <time>2016-05-04T13:59:37Z</time>
      </trkpt>
      <trkpt lat="44.12622" lon="2.28484">
        <ele>324.5</ele>
        <time>2016-05-04T13:59:38Z</time>
      </trkpt>
      <trkpt lat="44.12622" lon="2.28485">
        <ele>324.3</ele>
        <time>2016-05-04T13:59:39Z</time>
      </trkpt>
      <trkpt lat="44.12622" lon="2.28485">
        <ele>324.7</ele>
        <time>2016-05-04T13:59:40Z</time>
      </trkpt>
      <trkpt lat="44.12622" lon="2.28485">
        <ele>324.9</ele>
        <time>2016-05-04T13:59:41Z</time>
      </trkpt>
      <trkpt lat="44.12622" lon="2.28485">
        <ele>325.1</ele>
        <time>2016-05-04T13:59:42Z</time>
      </trkpt>
      <trkpt lat="44.12622" lon="2.28486">
        <ele>325.2</ele>
        <time>2016-05-04T13:59:43Z</time>
      </trkpt>
      <trkpt lat="44.12622" lon="2.28486">
        <ele>325.3</ele>
        <time>2016-05-04T13:59:44Z</time>
      </trkpt>
      <trkpt lat="44.12623" lon="2.28486">
        <ele>325.4</ele>
        <time>2016-05-04T13:59:45Z</time>
      </trkpt>
      <trkpt lat="44.12623" lon="2.28486">
        <ele>325.4</ele>
        <time>2016-05-04T13:59:46Z</time>
      </trkpt>
      <trkpt lat="44.12624" lon="2.28486">
        <ele>325.5</ele>
        <time>2016-05-04T13:59:47Z</time>
      </trkpt>
      <trkpt lat="44.12625" lon="2.28486">
        <ele>325.5</ele>
        <time>2016-05-04T13:59:48Z</time>
      </trkpt>
      <trkpt lat="44.12626" lon="2.28485">
        <ele>325.3</ele>
        <time>2016-05-04T13:59:49Z</time>
      </trkpt>
      <trkpt lat="44.12627" lon="2.28485">
        <ele>325.2</ele>
        <time>2016-05-04T13:59:50Z</time>
      </trkpt>
      <trkpt lat="44.12629" lon="2.28484">
        <ele>324.9</ele>
        <time>2016-05-04T13:59:53Z</time>
      </trkpt>
      <trkpt lat="44.12629" lon="2.28484">
        <ele>324.9</ele>
        <time>2016-05-04T13:59:54Z</time>
      </trkpt>
      <trkpt lat="44.12629" lon="2.28484">
        <ele>325</ele>
        <time>2016-05-04T13:59:55Z</time>
      </trkpt>
      <trkpt lat="44.12628" lon="2.28484">
        <ele>325.2</ele>
        <time>2016-05-04T13:59:56Z</time>
      </trkpt>
      <trkpt lat="44.12627" lon="2.28485">
        <ele>325.3</ele>
        <time>2016-05-04T13:59:57Z</time>
      </trkpt>
      <trkpt lat="44.12627" lon="2.28485">
        <ele>325.6</ele>
        <time>2016-05-04T13:59:58Z</time>
      </trkpt>
      <trkpt lat="44.12627" lon="2.28485">
        <ele>325.8</ele>
        <time>2016-05-04T13:59:59Z</time>
      </trkpt>
      <trkpt lat="44.12627" lon="2.28486">
        <ele>325.9</ele>
        <time>2016-05-04T14:00:00Z</time>
      </trkpt>
      <trkpt lat="44.12627" lon="2.28486">
        <ele>325.9</ele>
        <time>2016-05-04T14:00:01Z</time>
      </trkpt>
      <trkpt lat="44.12627" lon="2.28486">
        <ele>325.8</ele>
        <time>2016-05-04T14:00:02Z</time>
      </trkpt>
      <trkpt lat="44.12627" lon="2.28486">
        <ele>325.7</ele>
        <time>2016-05-04T14:00:03Z</time>
      </trkpt>
      <trkpt lat="44.12627" lon="2.28486">
        <ele>325.5</ele>
        <time>2016-05-04T14:00:04Z</time>
      </trkpt>
      <trkpt lat="44.12627" lon="2.28485">
        <ele>325</ele>
        <time>2016-05-04T14:00:07Z</time>
      </trkpt>
      <trkpt lat="44.12627" lon="2.28486">
        <ele>325</ele>
        <time>2016-05-04T14:00:08Z</time>
      </trkpt>
      <trkpt lat="44.12627" lon="2.28486">
        <ele>324.9</ele>
        <time>2016-05-04T14:00:09Z</time>
      </trkpt>
      <trkpt lat="44.12627" lon="2.28486">
        <ele>325.3</ele>
        <time>2016-05-04T14:00:10Z</time>
      </trkpt>
      <trkpt lat="44.12627" lon="2.28486">
        <ele>325.6</ele>
        <time>2016-05-04T14:00:11Z</time>
      </trkpt>
      <trkpt lat="44.12627" lon="2.28486">
        <ele>325.8</ele>
        <time>2016-05-04T14:00:12Z</time>
      </trkpt>
      <trkpt lat="44.12627" lon="2.28486">
        <ele>325.1</ele>
        <time>2016-05-04T14:00:23Z</time>
      </trkpt>
      <trkpt lat="44.12628" lon="2.28486">
        <ele>325</ele>
        <time>2016-05-04T14:00:24Z</time>
      </trkpt>
      <trkpt lat="44.12628" lon="2.28486">
        <ele>324.7</ele>
        <time>2016-05-04T14:00:25Z</time>
      </trkpt>
      <trkpt lat="44.12628" lon="2.28486">
        <ele>324.5</ele>
        <time>2016-05-04T14:00:26Z</time>
      </trkpt>
      <trkpt lat="44.12629" lon="2.28486">
        <ele>324.4</ele>
        <time>2016-05-04T14:00:27Z</time>
      </trkpt>
      <trkpt lat="44.1263" lon="2.28485">
        <ele>324.5</ele>
        <time>2016-05-04T14:00:28Z</time>
      </trkpt>
      <trkpt lat="44.12631" lon="2.28485">
        <ele>324.5</ele>
        <time>2016-05-04T14:00:29Z</time>
      </trkpt>
      <trkpt lat="44.12631" lon="2.28484">
        <ele>324.6</ele>
        <time>2016-05-04T14:00:30Z</time>
      </trkpt>
      <trkpt lat="44.12632" lon="2.28484">
        <ele>324.4</ele>
        <time>2016-05-04T14:00:31Z</time>
      </trkpt>
      <trkpt lat="44.12639" lon="2.28478">
        <ele>324.5</ele>
        <time>2016-05-04T14:00:42Z</time>
      </trkpt>
      <trkpt lat="44.1264" lon="2.28478">
        <ele>324.3</ele>
        <time>2016-05-04T14:00:43Z</time>
      </trkpt>
      <trkpt lat="44.12645" lon="2.28476">
        <ele>324</ele>
        <time>2016-05-04T14:00:49Z</time>
      </trkpt>
      <trkpt lat="44.12674" lon="2.28468">
        <ele>320.1</ele>
        <time>2016-05-04T14:01:16Z</time>
      </trkpt>
      <trkpt lat="44.12685" lon="2.28467">
        <ele>318.4</ele>
        <time>2016-05-04T14:01:26Z</time>
      </trkpt>
      <trkpt lat="44.12686" lon="2.28467">
        <ele>318.3</ele>
        <time>2016-05-04T14:01:27Z</time>
      </trkpt>
      <trkpt lat="44.12687" lon="2.28467">
        <ele>318.2</ele>
        <time>2016-05-04T14:01:28Z</time>
      </trkpt>
      <trkpt lat="44.12688" lon="2.28467">
        <ele>318.1</ele>
        <time>2016-05-04T14:01:29Z</time>
      </trkpt>
      <trkpt lat="44.12688" lon="2.28467">
        <ele>318.1</ele>
        <time>2016-05-04T14:01:30Z</time>
      </trkpt>
      <trkpt lat="44.12689" lon="2.28466">
        <ele>317.8</ele>
        <time>2016-05-04T14:01:31Z</time>
      </trkpt>
      <trkpt lat="44.12689" lon="2.28466">
        <ele>317.6</ele>
        <time>2016-05-04T14:01:32Z</time>
      </trkpt>
      <trkpt lat="44.12689" lon="2.28465">
        <ele>317.5</ele>
        <time>2016-05-04T14:01:33Z</time>
      </trkpt>
      <trkpt lat="44.12689" lon="2.28465">
        <ele>317.4</ele>
        <time>2016-05-04T14:01:34Z</time>
      </trkpt>
      <trkpt lat="44.12689" lon="2.28465">
        <ele>317.3</ele>
        <time>2016-05-04T14:01:35Z</time>
      </trkpt>
      <trkpt lat="44.12689" lon="2.28465">
        <ele>317.2</ele>
        <time>2016-05-04T14:01:36Z</time>
      </trkpt>
      <trkpt lat="44.12689" lon="2.28465">
        <ele>316.4</ele>
        <time>2016-05-04T14:01:38Z</time>
      </trkpt>
      <trkpt lat="44.1269" lon="2.28465">
        <ele>316.1</ele>
        <time>2016-05-04T14:01:39Z</time>
      </trkpt>
      <trkpt lat="44.1269" lon="2.28465">
        <ele>315.9</ele>
        <time>2016-05-04T14:01:40Z</time>
      </trkpt>
      <trkpt lat="44.1269" lon="2.28466">
        <ele>315.8</ele>
        <time>2016-05-04T14:01:41Z</time>
      </trkpt>
      <trkpt lat="44.1269" lon="2.28467">
        <ele>315.7</ele>
        <time>2016-05-04T14:01:42Z</time>
      </trkpt>
      <trkpt lat="44.12691" lon="2.28467">
        <ele>315</ele>
        <time>2016-05-04T14:01:43Z</time>
      </trkpt>
      <trkpt lat="44.12691" lon="2.28468">
        <ele>314.4</ele>
        <time>2016-05-04T14:01:44Z</time>
      </trkpt>
      <trkpt lat="44.12691" lon="2.28469">
        <ele>314</ele>
        <time>2016-05-04T14:01:45Z</time>
      </trkpt>
      <trkpt lat="44.12692" lon="2.28471">
        <ele>313.7</ele>
        <time>2016-05-04T14:01:46Z</time>
      </trkpt>
      <trkpt lat="44.12692" lon="2.28472">
        <ele>313.5</ele>
        <time>2016-05-04T14:01:47Z</time>
      </trkpt>
      <trkpt lat="44.12692" lon="2.28473">
        <ele>313.3</ele>
        <time>2016-05-04T14:01:48Z</time>
      </trkpt>
      <trkpt lat="44.12693" lon="2.28474">
        <ele>313.6</ele>
        <time>2016-05-04T14:01:49Z</time>
      </trkpt>
      <trkpt lat="44.12693" lon="2.28475">
        <ele>313.8</ele>
        <time>2016-05-04T14:01:50Z</time>
      </trkpt>
      <trkpt lat="44.12693" lon="2.28476">
        <ele>314</ele>
        <time>2016-05-04T14:01:51Z</time>
      </trkpt>
      <trkpt lat="44.12693" lon="2.28477">
        <ele>313.9</ele>
        <time>2016-05-04T14:01:52Z</time>
      </trkpt>
      <trkpt lat="44.12693" lon="2.28478">
        <ele>313.8</ele>
        <time>2016-05-04T14:01:53Z</time>
      </trkpt>
      <trkpt lat="44.12693" lon="2.28479">
        <ele>313.8</ele>
        <time>2016-05-04T14:01:54Z</time>
      </trkpt>
      <trkpt lat="44.12693" lon="2.2848">
        <ele>313.7</ele>
        <time>2016-05-04T14:01:55Z</time>
      </trkpt>
      <trkpt lat="44.12693" lon="2.2848">
        <ele>313.7</ele>
        <time>2016-05-04T14:01:56Z</time>
      </trkpt>
      <trkpt lat="44.12693" lon="2.28481">
        <ele>313.7</ele>
        <time>2016-05-04T14:01:57Z</time>
      </trkpt>
      <trkpt lat="44.12693" lon="2.28481">
        <ele>313.5</ele>
        <time>2016-05-04T14:01:58Z</time>
      </trkpt>
      <trkpt lat="44.12693" lon="2.28481">
        <ele>313.3</ele>
        <time>2016-05-04T14:01:59Z</time>
      </trkpt>
      <trkpt lat="44.12693" lon="2.28481">
        <ele>313.2</ele>
        <time>2016-05-04T14:02:00Z</time>
      </trkpt>
      <trkpt lat="44.12694" lon="2.28481">
        <ele>313.1</ele>
        <time>2016-05-04T14:02:01Z</time>
      </trkpt>
      <trkpt lat="44.12694" lon="2.28482">
        <ele>313</ele>
        <time>2016-05-04T14:02:02Z</time>
      </trkpt>
      <trkpt lat="44.12694" lon="2.28482">
        <ele>312.9</ele>
        <time>2016-05-04T14:02:03Z</time>
      </trkpt>
      <trkpt lat="44.12695" lon="2.28482">
        <ele>312.7</ele>
        <time>2016-05-04T14:02:04Z</time>
      </trkpt>
      <trkpt lat="44.12695" lon="2.28482">
        <ele>312.5</ele>
        <time>2016-05-04T14:02:05Z</time>
      </trkpt>
      <trkpt lat="44.12695" lon="2.28482">
        <ele>312.4</ele>
        <time>2016-05-04T14:02:06Z</time>
      </trkpt>
      <trkpt lat="44.12696" lon="2.28482">
        <ele>312.5</ele>
        <time>2016-05-04T14:02:07Z</time>
      </trkpt>
      <trkpt lat="44.12696" lon="2.28482">
        <ele>312.5</ele>
        <time>2016-05-04T14:02:08Z</time>
      </trkpt>
      <trkpt lat="44.12696" lon="2.28482">
        <ele>312.6</ele>
        <time>2016-05-04T14:02:09Z</time>
      </trkpt>
      <trkpt lat="44.12696" lon="2.28482">
        <ele>312.4</ele>
        <time>2016-05-04T14:02:10Z</time>
      </trkpt>
      <trkpt lat="44.12696" lon="2.28482">
        <ele>312.3</ele>
        <time>2016-05-04T14:02:11Z</time>
      </trkpt>
      <trkpt lat="44.12697" lon="2.28481">
        <ele>312.2</ele>
        <time>2016-05-04T14:02:12Z</time>
      </trkpt>
      <trkpt lat="44.12697" lon="2.28481">
        <ele>312.4</ele>
        <time>2016-05-04T14:02:13Z</time>
      </trkpt>
      <trkpt lat="44.12698" lon="2.28481">
        <ele>312.5</ele>
        <time>2016-05-04T14:02:14Z</time>
      </trkpt>
      <trkpt lat="44.12698" lon="2.2848">
        <ele>312.5</ele>
        <time>2016-05-04T14:02:15Z</time>
      </trkpt>
      <trkpt lat="44.12699" lon="2.2848">
        <ele>312.4</ele>
        <time>2016-05-04T14:02:16Z</time>
      </trkpt>
      <trkpt lat="44.12699" lon="2.2848">
        <ele>312.3</ele>
        <time>2016-05-04T14:02:17Z</time>
      </trkpt>
      <trkpt lat="44.12699" lon="2.2848">
        <ele>312.2</ele>
        <time>2016-05-04T14:02:18Z</time>
      </trkpt>
      <trkpt lat="44.12699" lon="2.2848">
        <ele>312.3</ele>
        <time>2016-05-04T14:02:19Z</time>
      </trkpt>
      <trkpt lat="44.127" lon="2.2848">
        <ele>312.5</ele>
        <time>2016-05-04T14:02:20Z</time>
      </trkpt>
      <trkpt lat="44.127" lon="2.2848">
        <ele>312.5</ele>
        <time>2016-05-04T14:02:21Z</time>
      </trkpt>
      <trkpt lat="44.127" lon="2.2848">
        <ele>312.4</ele>
        <time>2016-05-04T14:02:22Z</time>
      </trkpt>
      <trkpt lat="44.127" lon="2.2848">
        <ele>312.3</ele>
        <time>2016-05-04T14:02:23Z</time>
      </trkpt>
      <trkpt lat="44.127" lon="2.28481">
        <ele>312.2</ele>
        <time>2016-05-04T14:02:24Z</time>
      </trkpt>
      <trkpt lat="44.127" lon="2.28482">
        <ele>312.1</ele>
        <time>2016-05-04T14:02:25Z</time>
      </trkpt>
      <trkpt lat="44.12699" lon="2.28482">
        <ele>312.1</ele>
        <time>2016-05-04T14:02:26Z</time>
      </trkpt>
      <trkpt lat="44.12699" lon="2.28483">
        <ele>312</ele>
        <time>2016-05-04T14:02:27Z</time>
      </trkpt>
      <trkpt lat="44.12699" lon="2.28485">
        <ele>311.8</ele>
        <time>2016-05-04T14:02:28Z</time>
      </trkpt>
      <trkpt lat="44.12698" lon="2.28486">
        <ele>311.6</ele>
        <time>2016-05-04T14:02:29Z</time>
      </trkpt>
      <trkpt lat="44.12698" lon="2.28487">
        <ele>311.5</ele>
        <time>2016-05-04T14:02:30Z</time>
      </trkpt>
      <trkpt lat="44.12697" lon="2.28488">
        <ele>311.2</ele>
        <time>2016-05-04T14:02:31Z</time>
      </trkpt>
      <trkpt lat="44.12697" lon="2.28489">
        <ele>310.9</ele>
        <time>2016-05-04T14:02:32Z</time>
      </trkpt>
      <trkpt lat="44.12696" lon="2.2849">
        <ele>310.8</ele>
        <time>2016-05-04T14:02:33Z</time>
      </trkpt>
      <trkpt lat="44.12696" lon="2.28491">
        <ele>311.1</ele>
        <time>2016-05-04T14:02:34Z</time>
      </trkpt>
      <trkpt lat="44.12695" lon="2.28492">
        <ele>311.3</ele>
        <time>2016-05-04T14:02:35Z</time>
      </trkpt>
      <trkpt lat="44.12694" lon="2.28493">
        <ele>311.4</ele>
        <time>2016-05-04T14:02:36Z</time>
      </trkpt>
      <trkpt lat="44.12693" lon="2.28494">
        <ele>310.9</ele>
        <time>2016-05-04T14:02:37Z</time>
      </trkpt>
      <trkpt lat="44.12692" lon="2.28495">
        <ele>310.5</ele>
        <time>2016-05-04T14:02:38Z</time>
      </trkpt>
      <trkpt lat="44.12692" lon="2.28496">
        <ele>310.2</ele>
        <time>2016-05-04T14:02:39Z</time>
      </trkpt>
      <trkpt lat="44.12691" lon="2.28497">
        <ele>310.2</ele>
        <time>2016-05-04T14:02:40Z</time>
      </trkpt>
      <trkpt lat="44.1269" lon="2.28498">
        <ele>310.2</ele>
        <time>2016-05-04T14:02:41Z</time>
      </trkpt>
      <trkpt lat="44.1269" lon="2.28499">
        <ele>310.2</ele>
        <time>2016-05-04T14:02:42Z</time>
      </trkpt>
      <trkpt lat="44.1269" lon="2.285">
        <ele>309.8</ele>
        <time>2016-05-04T14:02:43Z</time>
      </trkpt>
      <trkpt lat="44.12689" lon="2.28501">
        <ele>309.5</ele>
        <time>2016-05-04T14:02:44Z</time>
      </trkpt>
      <trkpt lat="44.12689" lon="2.28501">
        <ele>309.2</ele>
        <time>2016-05-04T14:02:45Z</time>
      </trkpt>
      <trkpt lat="44.12688" lon="2.28502">
        <ele>308.6</ele>
        <time>2016-05-04T14:02:46Z</time>
      </trkpt>
      <trkpt lat="44.12688" lon="2.28504">
        <ele>308.2</ele>
        <time>2016-05-04T14:02:47Z</time>
      </trkpt>
      <trkpt lat="44.12687" lon="2.28505">
        <ele>307.8</ele>
        <time>2016-05-04T14:02:48Z</time>
      </trkpt>
      <trkpt lat="44.12686" lon="2.28506">
        <ele>308</ele>
        <time>2016-05-04T14:02:49Z</time>
      </trkpt>
      <trkpt lat="44.12685" lon="2.28507">
        <ele>308.1</ele>
        <time>2016-05-04T14:02:50Z</time>
      </trkpt>
      <trkpt lat="44.12684" lon="2.28508">
        <ele>308.2</ele>
        <time>2016-05-04T14:02:51Z</time>
      </trkpt>
      <trkpt lat="44.12683" lon="2.28509">
        <ele>307.9</ele>
        <time>2016-05-04T14:02:52Z</time>
      </trkpt>
      <trkpt lat="44.12682" lon="2.2851">
        <ele>307.6</ele>
        <time>2016-05-04T14:02:53Z</time>
      </trkpt>
      <trkpt lat="44.12681" lon="2.2851">
        <ele>307.4</ele>
        <time>2016-05-04T14:02:54Z</time>
      </trkpt>
      <trkpt lat="44.1268" lon="2.28511">
        <ele>306.4</ele>
        <time>2016-05-04T14:02:55Z</time>
      </trkpt>
      <trkpt lat="44.12678" lon="2.28512">
        <ele>305.7</ele>
        <time>2016-05-04T14:02:56Z</time>
      </trkpt>
      <trkpt lat="44.12677" lon="2.28513">
        <ele>305.1</ele>
        <time>2016-05-04T14:02:57Z</time>
      </trkpt>
      <trkpt lat="44.12675" lon="2.28515">
        <ele>305.1</ele>
        <time>2016-05-04T14:02:58Z</time>
      </trkpt>
      <trkpt lat="44.12673" lon="2.28516">
        <ele>305.1</ele>
        <time>2016-05-04T14:02:59Z</time>
      </trkpt>
      <trkpt lat="44.12672" lon="2.28517">
        <ele>305.1</ele>
        <time>2016-05-04T14:03:00Z</time>
      </trkpt>
      <trkpt lat="44.1267" lon="2.28519">
        <ele>304.5</ele>
        <time>2016-05-04T14:03:01Z</time>
      </trkpt>
      <trkpt lat="44.12669" lon="2.2852">
        <ele>304</ele>
        <time>2016-05-04T14:03:02Z</time>
      </trkpt>
      <trkpt lat="44.12669" lon="2.28521">
        <ele>303.6</ele>
        <time>2016-05-04T14:03:03Z</time>
      </trkpt>
      <trkpt lat="44.12668" lon="2.28522">
        <ele>303.4</ele>
        <time>2016-05-04T14:03:04Z</time>
      </trkpt>
      <trkpt lat="44.12667" lon="2.28523">
        <ele>303.2</ele>
        <time>2016-05-04T14:03:05Z</time>
      </trkpt>
      <trkpt lat="44.12666" lon="2.28525">
        <ele>303</ele>
        <time>2016-05-04T14:03:06Z</time>
      </trkpt>
      <trkpt lat="44.12665" lon="2.28526">
        <ele>303.1</ele>
        <time>2016-05-04T14:03:07Z</time>
      </trkpt>
      <trkpt lat="44.12664" lon="2.28527">
        <ele>303.2</ele>
        <time>2016-05-04T14:03:08Z</time>
      </trkpt>
      <trkpt lat="44.12663" lon="2.28528">
        <ele>303.2</ele>
        <time>2016-05-04T14:03:09Z</time>
      </trkpt>
      <trkpt lat="44.12663" lon="2.28528">
        <ele>303.3</ele>
        <time>2016-05-04T14:03:10Z</time>
      </trkpt>
      <trkpt lat="44.12663" lon="2.28528">
        <ele>303.3</ele>
        <time>2016-05-04T14:03:11Z</time>
      </trkpt>
      <trkpt lat="44.12663" lon="2.28529">
        <ele>303.3</ele>
        <time>2016-05-04T14:03:12Z</time>
      </trkpt>
      <trkpt lat="44.12663" lon="2.28529">
        <ele>302.7</ele>
        <time>2016-05-04T14:03:13Z</time>
      </trkpt>
      <trkpt lat="44.12663" lon="2.28529">
        <ele>302.3</ele>
        <time>2016-05-04T14:03:14Z</time>
      </trkpt>
      <trkpt lat="44.12664" lon="2.28529">
        <ele>301.8</ele>
        <time>2016-05-04T14:03:17Z</time>
      </trkpt>
      <trkpt lat="44.12665" lon="2.28529">
        <ele>301.8</ele>
        <time>2016-05-04T14:03:18Z</time>
      </trkpt>
      <trkpt lat="44.12668" lon="2.28528">
        <ele>301.2</ele>
        <time>2016-05-04T14:03:23Z</time>
      </trkpt>
      <trkpt lat="44.12669" lon="2.28527">
        <ele>301</ele>
        <time>2016-05-04T14:03:25Z</time>
      </trkpt>
      <trkpt lat="44.1267" lon="2.28526">
        <ele>300.7</ele>
        <time>2016-05-04T14:03:26Z</time>
      </trkpt>
      <trkpt lat="44.12696" lon="2.2852">
        <ele>298.6</ele>
        <time>2016-05-04T14:03:52Z</time>
      </trkpt>
      <trkpt lat="44.12697" lon="2.2852">
        <ele>298.8</ele>
        <time>2016-05-04T14:03:53Z</time>
      </trkpt>
      <trkpt lat="44.12698" lon="2.28519">
        <ele>298.9</ele>
        <time>2016-05-04T14:03:54Z</time>
      </trkpt>
      <trkpt lat="44.12699" lon="2.28518">
        <ele>299.1</ele>
        <time>2016-05-04T14:03:55Z</time>
      </trkpt>
      <trkpt lat="44.12701" lon="2.28518">
        <ele>299.4</ele>
        <time>2016-05-04T14:03:56Z</time>
      </trkpt>
      <trkpt lat="44.12702" lon="2.28517">
        <ele>299.5</ele>
        <time>2016-05-04T14:03:57Z</time>
      </trkpt>
      <trkpt lat="44.12703" lon="2.28516">
        <ele>299.6</ele>
        <time>2016-05-04T14:03:58Z</time>
      </trkpt>
      <trkpt lat="44.12704" lon="2.28515">
        <ele>299.7</ele>
        <time>2016-05-04T14:03:59Z</time>
      </trkpt>
      <trkpt lat="44.12705" lon="2.28514">
        <ele>299.8</ele>
        <time>2016-05-04T14:04:00Z</time>
      </trkpt>
      <trkpt lat="44.12713" lon="2.28509">
        <ele>300.9</ele>
        <time>2016-05-04T14:04:07Z</time>
      </trkpt>
      <trkpt lat="44.12714" lon="2.28507">
        <ele>301.1</ele>
        <time>2016-05-04T14:04:08Z</time>
      </trkpt>
      <trkpt lat="44.12715" lon="2.28505">
        <ele>301.3</ele>
        <time>2016-05-04T14:04:09Z</time>
      </trkpt>
      <trkpt lat="44.12715" lon="2.28503">
        <ele>301</ele>
        <time>2016-05-04T14:04:10Z</time>
      </trkpt>
      <trkpt lat="44.12716" lon="2.28502">
        <ele>300.7</ele>
        <time>2016-05-04T14:04:11Z</time>
      </trkpt>
      <trkpt lat="44.12717" lon="2.28501">
        <ele>300.5</ele>
        <time>2016-05-04T14:04:12Z</time>
      </trkpt>
      <trkpt lat="44.12718" lon="2.28499">
        <ele>300.8</ele>
        <time>2016-05-04T14:04:13Z</time>
      </trkpt>
      <trkpt lat="44.12719" lon="2.28498">
        <ele>301.1</ele>
        <time>2016-05-04T14:04:14Z</time>
      </trkpt>
      <trkpt lat="44.12719" lon="2.28498">
        <ele>301.2</ele>
        <time>2016-05-04T14:04:15Z</time>
      </trkpt>
      <trkpt lat="44.12719" lon="2.28497">
        <ele>300.9</ele>
        <time>2016-05-04T14:04:16Z</time>
      </trkpt>
      <trkpt lat="44.1272" lon="2.28497">
        <ele>300.7</ele>
        <time>2016-05-04T14:04:17Z</time>
      </trkpt>
      <trkpt lat="44.1272" lon="2.28497">
        <ele>300.5</ele>
        <time>2016-05-04T14:04:18Z</time>
      </trkpt>
      <trkpt lat="44.1272" lon="2.28496">
        <ele>300.2</ele>
        <time>2016-05-04T14:04:19Z</time>
      </trkpt>
      <trkpt lat="44.12721" lon="2.28494">
        <ele>299.7</ele>
        <time>2016-05-04T14:04:21Z</time>
      </trkpt>
      <trkpt lat="44.12722" lon="2.28493">
        <ele>299.9</ele>
        <time>2016-05-04T14:04:24Z</time>
      </trkpt>
      <trkpt lat="44.12722" lon="2.28493">
        <ele>300.1</ele>
        <time>2016-05-04T14:04:25Z</time>
      </trkpt>
      <trkpt lat="44.12722" lon="2.28493">
        <ele>300.3</ele>
        <time>2016-05-04T14:04:26Z</time>
      </trkpt>
      <trkpt lat="44.12722" lon="2.28493">
        <ele>300.5</ele>
        <time>2016-05-04T14:04:27Z</time>
      </trkpt>
      <trkpt lat="44.12722" lon="2.28493">
        <ele>300.6</ele>
        <time>2016-05-04T14:04:28Z</time>
      </trkpt>
      <trkpt lat="44.12722" lon="2.28493">
        <ele>300.6</ele>
        <time>2016-05-04T14:04:29Z</time>
      </trkpt>
      <trkpt lat="44.12722" lon="2.28493">
        <ele>300.7</ele>
        <time>2016-05-04T14:04:30Z</time>
      </trkpt>
      <trkpt lat="44.12722" lon="2.28493">
        <ele>300.5</ele>
        <time>2016-05-04T14:04:31Z</time>
      </trkpt>
      <trkpt lat="44.12721" lon="2.28493">
        <ele>301.3</ele>
        <time>2016-05-04T14:04:39Z</time>
      </trkpt>
      <trkpt lat="44.12721" lon="2.28494">
        <ele>300.7</ele>
        <time>2016-05-04T14:04:40Z</time>
      </trkpt>
      <trkpt lat="44.12722" lon="2.28493">
        <ele>300.3</ele>
        <time>2016-05-04T14:04:41Z</time>
      </trkpt>
      <trkpt lat="44.12723" lon="2.28493">
        <ele>300</ele>
        <time>2016-05-04T14:04:42Z</time>
      </trkpt>
      <trkpt lat="44.12724" lon="2.28493">
        <ele>300.2</ele>
        <time>2016-05-04T14:04:43Z</time>
      </trkpt>
      <trkpt lat="44.12725" lon="2.28492">
        <ele>300.4</ele>
        <time>2016-05-04T14:04:44Z</time>
      </trkpt>
      <trkpt lat="44.12726" lon="2.28491">
        <ele>300.5</ele>
        <time>2016-05-04T14:04:45Z</time>
      </trkpt>
      <trkpt lat="44.12727" lon="2.2849">
        <ele>300.4</ele>
        <time>2016-05-04T14:04:46Z</time>
      </trkpt>
      <trkpt lat="44.12728" lon="2.28489">
        <ele>300.3</ele>
        <time>2016-05-04T14:04:47Z</time>
      </trkpt>
      <trkpt lat="44.12729" lon="2.28489">
        <ele>300.2</ele>
        <time>2016-05-04T14:04:48Z</time>
      </trkpt>
      <trkpt lat="44.12731" lon="2.28488">
        <ele>300.4</ele>
        <time>2016-05-04T14:04:49Z</time>
      </trkpt>
      <trkpt lat="44.12732" lon="2.28487">
        <ele>300.5</ele>
        <time>2016-05-04T14:04:50Z</time>
      </trkpt>
      <trkpt lat="44.12733" lon="2.28487">
        <ele>300.6</ele>
        <time>2016-05-04T14:04:51Z</time>
      </trkpt>
      <trkpt lat="44.12734" lon="2.28486">
        <ele>300.4</ele>
        <time>2016-05-04T14:04:52Z</time>
      </trkpt>
      <trkpt lat="44.12742" lon="2.28484">
        <ele>299.8</ele>
        <time>2016-05-04T14:05:00Z</time>
      </trkpt>
      <trkpt lat="44.12743" lon="2.28484">
        <ele>299.9</ele>
        <time>2016-05-04T14:05:01Z</time>
      </trkpt>
      <trkpt lat="44.12763" lon="2.28479">
        <ele>299.9</ele>
        <time>2016-05-04T14:05:19Z</time>
      </trkpt>
      <trkpt lat="44.12764" lon="2.28479">
        <ele>299.9</ele>
        <time>2016-05-04T14:05:20Z</time>
      </trkpt>
      <trkpt lat="44.12764" lon="2.28478">
        <ele>299.9</ele>
        <time>2016-05-04T14:05:21Z</time>
      </trkpt>
      <trkpt lat="44.12765" lon="2.28478">
        <ele>300.2</ele>
        <time>2016-05-04T14:05:22Z</time>
      </trkpt>
      <trkpt lat="44.12765" lon="2.28478">
        <ele>300.3</ele>
        <time>2016-05-04T14:05:23Z</time>
      </trkpt>
      <trkpt lat="44.12766" lon="2.28477">
        <ele>300.4</ele>
        <time>2016-05-04T14:05:25Z</time>
      </trkpt>
      <trkpt lat="44.12766" lon="2.28477">
        <ele>300.3</ele>
        <time>2016-05-04T14:05:26Z</time>
      </trkpt>
      <trkpt lat="44.12767" lon="2.28476">
        <ele>300.2</ele>
        <time>2016-05-04T14:05:27Z</time>
      </trkpt>
      <trkpt lat="44.12791" lon="2.28472">
        <ele>299.8</ele>
        <time>2016-05-04T14:05:46Z</time>
      </trkpt>
      <trkpt lat="44.12792" lon="2.28472">
        <ele>300.1</ele>
        <time>2016-05-04T14:05:47Z</time>
      </trkpt>
      <trkpt lat="44.12795" lon="2.28473">
        <ele>300.5</ele>
        <time>2016-05-04T14:05:50Z</time>
      </trkpt>
      <trkpt lat="44.12795" lon="2.28473">
        <ele>300.6</ele>
        <time>2016-05-04T14:05:51Z</time>
      </trkpt>
      <trkpt lat="44.12797" lon="2.28474">
        <ele>300.3</ele>
        <time>2016-05-04T14:05:53Z</time>
      </trkpt>
      <trkpt lat="44.12797" lon="2.28475">
        <ele>300</ele>
        <time>2016-05-04T14:05:55Z</time>
      </trkpt>
      <trkpt lat="44.12797" lon="2.28475">
        <ele>299.8</ele>
        <time>2016-05-04T14:05:56Z</time>
      </trkpt>
      <trkpt lat="44.12798" lon="2.28476">
        <ele>299.6</ele>
        <time>2016-05-04T14:05:57Z</time>
      </trkpt>
      <trkpt lat="44.12798" lon="2.28477">
        <ele>299.4</ele>
        <time>2016-05-04T14:05:59Z</time>
      </trkpt>
      <trkpt lat="44.12799" lon="2.28479">
        <ele>299.7</ele>
        <time>2016-05-04T14:06:01Z</time>
      </trkpt>
      <trkpt lat="44.12799" lon="2.28481">
        <ele>300</ele>
        <time>2016-05-04T14:06:02Z</time>
      </trkpt>
      <trkpt lat="44.12799" lon="2.2849">
        <ele>300.8</ele>
        <time>2016-05-04T14:06:10Z</time>
      </trkpt>
      <trkpt lat="44.12799" lon="2.28492">
        <ele>300.8</ele>
        <time>2016-05-04T14:06:11Z</time>
      </trkpt>
      <trkpt lat="44.12797" lon="2.28501">
        <ele>300.9</ele>
        <time>2016-05-04T14:06:21Z</time>
      </trkpt>
      <trkpt lat="44.12795" lon="2.2852">
        <ele>301.9</ele>
        <time>2016-05-04T14:06:35Z</time>
      </trkpt>
      <trkpt lat="44.12795" lon="2.28523">
        <ele>302</ele>
        <time>2016-05-04T14:06:37Z</time>
      </trkpt>
      <trkpt lat="44.12795" lon="2.28524">
        <ele>302.1</ele>
        <time>2016-05-04T14:06:38Z</time>
      </trkpt>
      <trkpt lat="44.12794" lon="2.28526">
        <ele>302.2</ele>
        <time>2016-05-04T14:06:39Z</time>
      </trkpt>
      <trkpt lat="44.12794" lon="2.28527">
        <ele>302.5</ele>
        <time>2016-05-04T14:06:40Z</time>
      </trkpt>
      <trkpt lat="44.12794" lon="2.28528">
        <ele>302.8</ele>
        <time>2016-05-04T14:06:41Z</time>
      </trkpt>
      <trkpt lat="44.12794" lon="2.2854">
        <ele>303.3</ele>
        <time>2016-05-04T14:06:49Z</time>
      </trkpt>
      <trkpt lat="44.12794" lon="2.28541">
        <ele>303.4</ele>
        <time>2016-05-04T14:06:50Z</time>
      </trkpt>
      <trkpt lat="44.12794" lon="2.28542">
        <ele>303.4</ele>
        <time>2016-05-04T14:06:51Z</time>
      </trkpt>
      <trkpt lat="44.12794" lon="2.28543">
        <ele>303.2</ele>
        <time>2016-05-04T14:06:52Z</time>
      </trkpt>
      <trkpt lat="44.12794" lon="2.28544">
        <ele>303</ele>
        <time>2016-05-04T14:06:53Z</time>
      </trkpt>
      <trkpt lat="44.12794" lon="2.28545">
        <ele>302.9</ele>
        <time>2016-05-04T14:06:54Z</time>
      </trkpt>
      <trkpt lat="44.12794" lon="2.28546">
        <ele>303</ele>
        <time>2016-05-04T14:06:55Z</time>
      </trkpt>
      <trkpt lat="44.12794" lon="2.28547">
        <ele>303.1</ele>
        <time>2016-05-04T14:06:56Z</time>
      </trkpt>
      <trkpt lat="44.12794" lon="2.28548">
        <ele>303.2</ele>
        <time>2016-05-04T14:06:57Z</time>
      </trkpt>
      <trkpt lat="44.12794" lon="2.28549">
        <ele>303.3</ele>
        <time>2016-05-04T14:06:58Z</time>
      </trkpt>
      <trkpt lat="44.12794" lon="2.2855">
        <ele>303.3</ele>
        <time>2016-05-04T14:06:59Z</time>
      </trkpt>
      <trkpt lat="44.12794" lon="2.2855">
        <ele>303.3</ele>
        <time>2016-05-04T14:07:00Z</time>
      </trkpt>
      <trkpt lat="44.12793" lon="2.28551">
        <ele>303.8</ele>
        <time>2016-05-04T14:07:01Z</time>
      </trkpt>
      <trkpt lat="44.12793" lon="2.28551">
        <ele>304.1</ele>
        <time>2016-05-04T14:07:02Z</time>
      </trkpt>
      <trkpt lat="44.12793" lon="2.28551">
        <ele>304.4</ele>
        <time>2016-05-04T14:07:03Z</time>
      </trkpt>
      <trkpt lat="44.12793" lon="2.28552">
        <ele>303.9</ele>
        <time>2016-05-04T14:07:04Z</time>
      </trkpt>
      <trkpt lat="44.12793" lon="2.28552">
        <ele>303.6</ele>
        <time>2016-05-04T14:07:05Z</time>
      </trkpt>
      <trkpt lat="44.12793" lon="2.28552">
        <ele>303.3</ele>
        <time>2016-05-04T14:07:06Z</time>
      </trkpt>
      <trkpt lat="44.12793" lon="2.28552">
        <ele>303.1</ele>
        <time>2016-05-04T14:07:07Z</time>
      </trkpt>
      <trkpt lat="44.12793" lon="2.28552">
        <ele>303</ele>
        <time>2016-05-04T14:07:08Z</time>
      </trkpt>
      <trkpt lat="44.12792" lon="2.28552">
        <ele>302.9</ele>
        <time>2016-05-04T14:07:09Z</time>
      </trkpt>
      <trkpt lat="44.12792" lon="2.28552">
        <ele>303</ele>
        <time>2016-05-04T14:07:10Z</time>
      </trkpt>
      <trkpt lat="44.12792" lon="2.28552">
        <ele>303.1</ele>
        <time>2016-05-04T14:07:11Z</time>
      </trkpt>
      <trkpt lat="44.12791" lon="2.28552">
        <ele>303.2</ele>
        <time>2016-05-04T14:07:12Z</time>
      </trkpt>
      <trkpt lat="44.12791" lon="2.28552">
        <ele>303.2</ele>
        <time>2016-05-04T14:07:13Z</time>
      </trkpt>
      <trkpt lat="44.1279" lon="2.28552">
        <ele>303.3</ele>
        <time>2016-05-04T14:07:14Z</time>
      </trkpt>
      <trkpt lat="44.1279" lon="2.28552">
        <ele>303.3</ele>
        <time>2016-05-04T14:07:15Z</time>
      </trkpt>
      <trkpt lat="44.12789" lon="2.28551">
        <ele>303.6</ele>
        <time>2016-05-04T14:07:16Z</time>
      </trkpt>
      <trkpt lat="44.12789" lon="2.28551">
        <ele>303.7</ele>
        <time>2016-05-04T14:07:17Z</time>
      </trkpt>
      <trkpt lat="44.12789" lon="2.28551">
        <ele>303.9</ele>
        <time>2016-05-04T14:07:18Z</time>
      </trkpt>
      <trkpt lat="44.12789" lon="2.28551">
        <ele>304</ele>
        <time>2016-05-04T14:07:19Z</time>
      </trkpt>
      <trkpt lat="44.12788" lon="2.28551">
        <ele>304</ele>
        <time>2016-05-04T14:07:20Z</time>
      </trkpt>
      <trkpt lat="44.12788" lon="2.28551">
        <ele>304.1</ele>
        <time>2016-05-04T14:07:21Z</time>
      </trkpt>
      <trkpt lat="44.12788" lon="2.28551">
        <ele>303.9</ele>
        <time>2016-05-04T14:07:22Z</time>
      </trkpt>
      <trkpt lat="44.12788" lon="2.2855">
        <ele>303.8</ele>
        <time>2016-05-04T14:07:23Z</time>
      </trkpt>
      <trkpt lat="44.12788" lon="2.2855">
        <ele>303.7</ele>
        <time>2016-05-04T14:07:24Z</time>
      </trkpt>
      <trkpt lat="44.12788" lon="2.2855">
        <ele>303.8</ele>
        <time>2016-05-04T14:07:25Z</time>
      </trkpt>
      <trkpt lat="44.12787" lon="2.2855">
        <ele>303.9</ele>
        <time>2016-05-04T14:07:26Z</time>
      </trkpt>
      <trkpt lat="44.12787" lon="2.28551">
        <ele>304</ele>
        <time>2016-05-04T14:07:27Z</time>
      </trkpt>
      <trkpt lat="44.12787" lon="2.28551">
        <ele>303.9</ele>
        <time>2016-05-04T14:07:28Z</time>
      </trkpt>
      <trkpt lat="44.12786" lon="2.28552">
        <ele>303.8</ele>
        <time>2016-05-04T14:07:29Z</time>
      </trkpt>
      <trkpt lat="44.12786" lon="2.28553">
        <ele>303.7</ele>
        <time>2016-05-04T14:07:30Z</time>
      </trkpt>
      <trkpt lat="44.12785" lon="2.28553">
        <ele>303.6</ele>
        <time>2016-05-04T14:07:31Z</time>
      </trkpt>
      <trkpt lat="44.12779" lon="2.28568">
        <ele>304.9</ele>
        <time>2016-05-04T14:07:47Z</time>
      </trkpt>
      <trkpt lat="44.12779" lon="2.28571">
        <ele>305</ele>
        <time>2016-05-04T14:07:50Z</time>
      </trkpt>
      <trkpt lat="44.12776" lon="2.28578">
        <ele>305.6</ele>
        <time>2016-05-04T14:07:56Z</time>
      </trkpt>
      <trkpt lat="44.12776" lon="2.28579">
        <ele>305.9</ele>
        <time>2016-05-04T14:07:57Z</time>
      </trkpt>
      <trkpt lat="44.12775" lon="2.2858">
        <ele>306.1</ele>
        <time>2016-05-04T14:07:58Z</time>
      </trkpt>
      <trkpt lat="44.12765" lon="2.28606">
        <ele>310</ele>
        <time>2016-05-04T14:08:21Z</time>
      </trkpt>
      <trkpt lat="44.12764" lon="2.28607">
        <ele>310.3</ele>
        <time>2016-05-04T14:08:22Z</time>
      </trkpt>
      <trkpt lat="44.12764" lon="2.28608">
        <ele>310.5</ele>
        <time>2016-05-04T14:08:23Z</time>
      </trkpt>
      <trkpt lat="44.12763" lon="2.2861">
        <ele>310.6</ele>
        <time>2016-05-04T14:08:24Z</time>
      </trkpt>
      <trkpt lat="44.12763" lon="2.28611">
        <ele>311.2</ele>
        <time>2016-05-04T14:08:25Z</time>
      </trkpt>
      <trkpt lat="44.12763" lon="2.28612">
        <ele>311.6</ele>
        <time>2016-05-04T14:08:26Z</time>
      </trkpt>
      <trkpt lat="44.12762" lon="2.28614">
        <ele>311.9</ele>
        <time>2016-05-04T14:08:27Z</time>
      </trkpt>
      <trkpt lat="44.12761" lon="2.28615">
        <ele>311.9</ele>
        <time>2016-05-04T14:08:28Z</time>
      </trkpt>
      <trkpt lat="44.12757" lon="2.28625">
        <ele>312.7</ele>
        <time>2016-05-04T14:08:36Z</time>
      </trkpt>
      <trkpt lat="44.12757" lon="2.28626">
        <ele>312.3</ele>
        <time>2016-05-04T14:08:37Z</time>
      </trkpt>
      <trkpt lat="44.12756" lon="2.28627">
        <ele>312</ele>
        <time>2016-05-04T14:08:38Z</time>
      </trkpt>
      <trkpt lat="44.12756" lon="2.28628">
        <ele>311.8</ele>
        <time>2016-05-04T14:08:39Z</time>
      </trkpt>
      <trkpt lat="44.12756" lon="2.28629">
        <ele>312.4</ele>
        <time>2016-05-04T14:08:40Z</time>
      </trkpt>
      <trkpt lat="44.12755" lon="2.2863">
        <ele>313</ele>
        <time>2016-05-04T14:08:41Z</time>
      </trkpt>
      <trkpt lat="44.12755" lon="2.28631">
        <ele>313.3</ele>
        <time>2016-05-04T14:08:42Z</time>
      </trkpt>
      <trkpt lat="44.12754" lon="2.28632">
        <ele>313.4</ele>
        <time>2016-05-04T14:08:43Z</time>
      </trkpt>
      <trkpt lat="44.12754" lon="2.28633">
        <ele>313.5</ele>
        <time>2016-05-04T14:08:44Z</time>
      </trkpt>
      <trkpt lat="44.12753" lon="2.28633">
        <ele>313.5</ele>
        <time>2016-05-04T14:08:45Z</time>
      </trkpt>
      <trkpt lat="44.12751" lon="2.28637">
        <ele>313.6</ele>
        <time>2016-05-04T14:08:49Z</time>
      </trkpt>
      <trkpt lat="44.12749" lon="2.28642">
        <ele>314.4</ele>
        <time>2016-05-04T14:08:53Z</time>
      </trkpt>
      <trkpt lat="44.12747" lon="2.28646">
        <ele>315</ele>
        <time>2016-05-04T14:08:57Z</time>
      </trkpt>
      <trkpt lat="44.12746" lon="2.28649">
        <ele>315.2</ele>
        <time>2016-05-04T14:09:00Z</time>
      </trkpt>
      <trkpt lat="44.12745" lon="2.28653">
        <ele>315.3</ele>
        <time>2016-05-04T14:09:03Z</time>
      </trkpt>
      <trkpt lat="44.12745" lon="2.28654">
        <ele>315.5</ele>
        <time>2016-05-04T14:09:04Z</time>
      </trkpt>
      <trkpt lat="44.12745" lon="2.28655">
        <ele>315.7</ele>
        <time>2016-05-04T14:09:05Z</time>
      </trkpt>
      <trkpt lat="44.12745" lon="2.28656">
        <ele>315.8</ele>
        <time>2016-05-04T14:09:06Z</time>
      </trkpt>
      <trkpt lat="44.12744" lon="2.28658">
        <ele>316.7</ele>
        <time>2016-05-04T14:09:08Z</time>
      </trkpt>
      <trkpt lat="44.12744" lon="2.28659">
        <ele>317</ele>
        <time>2016-05-04T14:09:09Z</time>
      </trkpt>
      <trkpt lat="44.12744" lon="2.28662">
        <ele>317.8</ele>
        <time>2016-05-04T14:09:11Z</time>
      </trkpt>
      <trkpt lat="44.12744" lon="2.28666">
        <ele>318.9</ele>
        <time>2016-05-04T14:09:15Z</time>
      </trkpt>
      <trkpt lat="44.12744" lon="2.2867">
        <ele>319.8</ele>
        <time>2016-05-04T14:09:18Z</time>
      </trkpt>
      <trkpt lat="44.12744" lon="2.28671">
        <ele>319.6</ele>
        <time>2016-05-04T14:09:19Z</time>
      </trkpt>
      <trkpt lat="44.12744" lon="2.28672">
        <ele>319.4</ele>
        <time>2016-05-04T14:09:20Z</time>
      </trkpt>
      <trkpt lat="44.12743" lon="2.28673">
        <ele>319.2</ele>
        <time>2016-05-04T14:09:21Z</time>
      </trkpt>
      <trkpt lat="44.12743" lon="2.28674">
        <ele>319.3</ele>
        <time>2016-05-04T14:09:22Z</time>
      </trkpt>
      <trkpt lat="44.12743" lon="2.28675">
        <ele>319.4</ele>
        <time>2016-05-04T14:09:23Z</time>
      </trkpt>
      <trkpt lat="44.12743" lon="2.28677">
        <ele>319.4</ele>
        <time>2016-05-04T14:09:24Z</time>
      </trkpt>
      <trkpt lat="44.12743" lon="2.28678">
        <ele>319.7</ele>
        <time>2016-05-04T14:09:25Z</time>
      </trkpt>
      <trkpt lat="44.12742" lon="2.2868">
        <ele>319.9</ele>
        <time>2016-05-04T14:09:26Z</time>
      </trkpt>
      <trkpt lat="44.12742" lon="2.28682">
        <ele>320</ele>
        <time>2016-05-04T14:09:27Z</time>
      </trkpt>
      <trkpt lat="44.12741" lon="2.28683">
        <ele>319.5</ele>
        <time>2016-05-04T14:09:28Z</time>
      </trkpt>
      <trkpt lat="44.12741" lon="2.28685">
        <ele>319.1</ele>
        <time>2016-05-04T14:09:29Z</time>
      </trkpt>
      <trkpt lat="44.1274" lon="2.2869">
        <ele>319.2</ele>
        <time>2016-05-04T14:09:32Z</time>
      </trkpt>
      <trkpt lat="44.12739" lon="2.28691">
        <ele>319.3</ele>
        <time>2016-05-04T14:09:33Z</time>
      </trkpt>
      <trkpt lat="44.12739" lon="2.28692">
        <ele>319.1</ele>
        <time>2016-05-04T14:09:34Z</time>
      </trkpt>
      <trkpt lat="44.12738" lon="2.28693">
        <ele>319</ele>
        <time>2016-05-04T14:09:35Z</time>
      </trkpt>
      <trkpt lat="44.12738" lon="2.28694">
        <ele>319</ele>
        <time>2016-05-04T14:09:36Z</time>
      </trkpt>
      <trkpt lat="44.12738" lon="2.28694">
        <ele>319.1</ele>
        <time>2016-05-04T14:09:37Z</time>
      </trkpt>
      <trkpt lat="44.12737" lon="2.28695">
        <ele>319.2</ele>
        <time>2016-05-04T14:09:38Z</time>
      </trkpt>
      <trkpt lat="44.12737" lon="2.28695">
        <ele>319.3</ele>
        <time>2016-05-04T14:09:39Z</time>
      </trkpt>
      <trkpt lat="44.12737" lon="2.28696">
        <ele>319.6</ele>
        <time>2016-05-04T14:09:40Z</time>
      </trkpt>
      <trkpt lat="44.12737" lon="2.28696">
        <ele>319.8</ele>
        <time>2016-05-04T14:09:41Z</time>
      </trkpt>
      <trkpt lat="44.12737" lon="2.28696">
        <ele>320</ele>
        <time>2016-05-04T14:09:42Z</time>
      </trkpt>
      <trkpt lat="44.12737" lon="2.28696">
        <ele>320.1</ele>
        <time>2016-05-04T14:09:43Z</time>
      </trkpt>
      <trkpt lat="44.12737" lon="2.28696">
        <ele>320.2</ele>
        <time>2016-05-04T14:09:44Z</time>
      </trkpt>
      <trkpt lat="44.12737" lon="2.28696">
        <ele>320.3</ele>
        <time>2016-05-04T14:09:45Z</time>
      </trkpt>
      <trkpt lat="44.12737" lon="2.28695">
        <ele>320.5</ele>
        <time>2016-05-04T14:09:46Z</time>
      </trkpt>
      <trkpt lat="44.12737" lon="2.28695">
        <ele>320.7</ele>
        <time>2016-05-04T14:09:47Z</time>
      </trkpt>
      <trkpt lat="44.12737" lon="2.28695">
        <ele>320.9</ele>
        <time>2016-05-04T14:09:48Z</time>
      </trkpt>
      <trkpt lat="44.12737" lon="2.28695">
        <ele>321.2</ele>
        <time>2016-05-04T14:09:49Z</time>
      </trkpt>
      <trkpt lat="44.12736" lon="2.28694">
        <ele>321.4</ele>
        <time>2016-05-04T14:09:50Z</time>
      </trkpt>
      <trkpt lat="44.12736" lon="2.28692">
        <ele>322.4</ele>
        <time>2016-05-04T14:09:54Z</time>
      </trkpt>
      <trkpt lat="44.12731" lon="2.28684">
        <ele>323.7</ele>
        <time>2016-05-04T14:10:05Z</time>
      </trkpt>
      <trkpt lat="44.1273" lon="2.28683">
        <ele>323.5</ele>
        <time>2016-05-04T14:10:08Z</time>
      </trkpt>
      <trkpt lat="44.12729" lon="2.28682">
        <ele>323.4</ele>
        <time>2016-05-04T14:10:09Z</time>
      </trkpt>
      <trkpt lat="44.12729" lon="2.28682">
        <ele>323.7</ele>
        <time>2016-05-04T14:10:10Z</time>
      </trkpt>
      <trkpt lat="44.12728" lon="2.28681">
        <ele>324</ele>
        <time>2016-05-04T14:10:11Z</time>
      </trkpt>
      <trkpt lat="44.12728" lon="2.28681">
        <ele>324.2</ele>
        <time>2016-05-04T14:10:12Z</time>
      </trkpt>
      <trkpt lat="44.12727" lon="2.2868">
        <ele>324.3</ele>
        <time>2016-05-04T14:10:13Z</time>
      </trkpt>
      <trkpt lat="44.12727" lon="2.28679">
        <ele>324.4</ele>
        <time>2016-05-04T14:10:14Z</time>
      </trkpt>
      <trkpt lat="44.12726" lon="2.28678">
        <ele>324.5</ele>
        <time>2016-05-04T14:10:15Z</time>
      </trkpt>
      <trkpt lat="44.12725" lon="2.28677">
        <ele>324.3</ele>
        <time>2016-05-04T14:10:16Z</time>
      </trkpt>
      <trkpt lat="44.12725" lon="2.28676">
        <ele>324.2</ele>
        <time>2016-05-04T14:10:17Z</time>
      </trkpt>
      <trkpt lat="44.1272" lon="2.28664">
        <ele>337.8</ele>
        <time>2016-05-04T14:10:26Z</time>
      </trkpt>
      <trkpt lat="44.1272" lon="2.28663">
        <ele>339.6</ele>
        <time>2016-05-04T14:10:27Z</time>
      </trkpt>
      <trkpt lat="44.12719" lon="2.28662">
        <ele>341</ele>
        <time>2016-05-04T14:10:28Z</time>
      </trkpt>
      <trkpt lat="44.12718" lon="2.2866">
        <ele>342</ele>
        <time>2016-05-04T14:10:29Z</time>
      </trkpt>
      <trkpt lat="44.12717" lon="2.28659">
        <ele>342.8</ele>
        <time>2016-05-04T14:10:30Z</time>
      </trkpt>
      <trkpt lat="44.12716" lon="2.28659">
        <ele>343.2</ele>
        <time>2016-05-04T14:10:31Z</time>
      </trkpt>
      <trkpt lat="44.12715" lon="2.28658">
        <ele>343.4</ele>
        <time>2016-05-04T14:10:32Z</time>
      </trkpt>
      <trkpt lat="44.12714" lon="2.28657">
        <ele>343.6</ele>
        <time>2016-05-04T14:10:33Z</time>
      </trkpt>
      <trkpt lat="44.12712" lon="2.28656">
        <ele>344.4</ele>
        <time>2016-05-04T14:10:34Z</time>
      </trkpt>
      <trkpt lat="44.12711" lon="2.28656">
        <ele>345</ele>
        <time>2016-05-04T14:10:35Z</time>
      </trkpt>
      <trkpt lat="44.12706" lon="2.28654">
        <ele>346.1</ele>
        <time>2016-05-04T14:10:38Z</time>
      </trkpt>
      <trkpt lat="44.12705" lon="2.28653">
        <ele>346.3</ele>
        <time>2016-05-04T14:10:39Z</time>
      </trkpt>
      <trkpt lat="44.12703" lon="2.28653">
        <ele>346.8</ele>
        <time>2016-05-04T14:10:40Z</time>
      </trkpt>
      <trkpt lat="44.12702" lon="2.28652">
        <ele>347.3</ele>
        <time>2016-05-04T14:10:41Z</time>
      </trkpt>
      <trkpt lat="44.12701" lon="2.28652">
        <ele>347.6</ele>
        <time>2016-05-04T14:10:42Z</time>
      </trkpt>
      <trkpt lat="44.12698" lon="2.28651">
        <ele>347.6</ele>
        <time>2016-05-04T14:10:44Z</time>
      </trkpt>
      <trkpt lat="44.12694" lon="2.28651">
        <ele>347.7</ele>
        <time>2016-05-04T14:10:47Z</time>
      </trkpt>
      <trkpt lat="44.12693" lon="2.28651">
        <ele>347.7</ele>
        <time>2016-05-04T14:10:48Z</time>
      </trkpt>
      <trkpt lat="44.12688" lon="2.28652">
        <ele>348.8</ele>
        <time>2016-05-04T14:10:52Z</time>
      </trkpt>
      <trkpt lat="44.12687" lon="2.28652">
        <ele>349</ele>
        <time>2016-05-04T14:10:53Z</time>
      </trkpt>
      <trkpt lat="44.12686" lon="2.28653">
        <ele>349.1</ele>
        <time>2016-05-04T14:10:54Z</time>
      </trkpt>
      <trkpt lat="44.12685" lon="2.28653">
        <ele>349.2</ele>
        <time>2016-05-04T14:10:55Z</time>
      </trkpt>
      <trkpt lat="44.12684" lon="2.28653">
        <ele>349.2</ele>
        <time>2016-05-04T14:10:56Z</time>
      </trkpt>
      <trkpt lat="44.12683" lon="2.28654">
        <ele>349.3</ele>
        <time>2016-05-04T14:10:57Z</time>
      </trkpt>
      <trkpt lat="44.12682" lon="2.28654">
        <ele>349.3</ele>
        <time>2016-05-04T14:10:58Z</time>
      </trkpt>
      <trkpt lat="44.1268" lon="2.28655">
        <ele>349.3</ele>
        <time>2016-05-04T14:10:59Z</time>
      </trkpt>
      <trkpt lat="44.12679" lon="2.28655">
        <ele>349.3</ele>
        <time>2016-05-04T14:11:00Z</time>
      </trkpt>
      <trkpt lat="44.12677" lon="2.28655">
        <ele>349.8</ele>
        <time>2016-05-04T14:11:01Z</time>
      </trkpt>
      <trkpt lat="44.12676" lon="2.28656">
        <ele>350.1</ele>
        <time>2016-05-04T14:11:02Z</time>
      </trkpt>
      <trkpt lat="44.12675" lon="2.28656">
        <ele>350.4</ele>
        <time>2016-05-04T14:11:03Z</time>
      </trkpt>
      <trkpt lat="44.12674" lon="2.28657">
        <ele>349.9</ele>
        <time>2016-05-04T14:11:04Z</time>
      </trkpt>
      <trkpt lat="44.12654" lon="2.28663">
        <ele>352.2</ele>
        <time>2016-05-04T14:11:23Z</time>
      </trkpt>
      <trkpt lat="44.12653" lon="2.28663">
        <ele>352.2</ele>
        <time>2016-05-04T14:11:24Z</time>
      </trkpt>
      <trkpt lat="44.12653" lon="2.28663">
        <ele>353</ele>
        <time>2016-05-04T14:11:25Z</time>
      </trkpt>
      <trkpt lat="44.12652" lon="2.28663">
        <ele>353.6</ele>
        <time>2016-05-04T14:11:26Z</time>
      </trkpt>
      <trkpt lat="44.12651" lon="2.28663">
        <ele>354</ele>
        <time>2016-05-04T14:11:27Z</time>
      </trkpt>
      <trkpt lat="44.12651" lon="2.28663">
        <ele>354.1</ele>
        <time>2016-05-04T14:11:28Z</time>
      </trkpt>
      <trkpt lat="44.1265" lon="2.28663">
        <ele>354.2</ele>
        <time>2016-05-04T14:11:29Z</time>
      </trkpt>
      <trkpt lat="44.12649" lon="2.28663">
        <ele>354.3</ele>
        <time>2016-05-04T14:11:30Z</time>
      </trkpt>
      <trkpt lat="44.12648" lon="2.28664">
        <ele>354.4</ele>
        <time>2016-05-04T14:11:31Z</time>
      </trkpt>
      <trkpt lat="44.12647" lon="2.28664">
        <ele>354.4</ele>
        <time>2016-05-04T14:11:32Z</time>
      </trkpt>
      <trkpt lat="44.12646" lon="2.28663">
        <ele>354.4</ele>
        <time>2016-05-04T14:11:33Z</time>
      </trkpt>
      <trkpt lat="44.12645" lon="2.28663">
        <ele>354.9</ele>
        <time>2016-05-04T14:11:34Z</time>
      </trkpt>
      <trkpt lat="44.12644" lon="2.28663">
        <ele>355.2</ele>
        <time>2016-05-04T14:11:35Z</time>
      </trkpt>
      <trkpt lat="44.12643" lon="2.28663">
        <ele>355.5</ele>
        <time>2016-05-04T14:11:36Z</time>
      </trkpt>
      <trkpt lat="44.12642" lon="2.28663">
        <ele>355.4</ele>
        <time>2016-05-04T14:11:37Z</time>
      </trkpt>
      <trkpt lat="44.12641" lon="2.28663">
        <ele>355.4</ele>
        <time>2016-05-04T14:11:38Z</time>
      </trkpt>
      <trkpt lat="44.12641" lon="2.28662">
        <ele>355.4</ele>
        <time>2016-05-04T14:11:39Z</time>
      </trkpt>
      <trkpt lat="44.1264" lon="2.28662">
        <ele>355.6</ele>
        <time>2016-05-04T14:11:40Z</time>
      </trkpt>
      <trkpt lat="44.1264" lon="2.28662">
        <ele>355.8</ele>
        <time>2016-05-04T14:11:41Z</time>
      </trkpt>
      <trkpt lat="44.12639" lon="2.28662">
        <ele>355.9</ele>
        <time>2016-05-04T14:11:42Z</time>
      </trkpt>
      <trkpt lat="44.12638" lon="2.28662">
        <ele>356</ele>
        <time>2016-05-04T14:11:43Z</time>
      </trkpt>
      <trkpt lat="44.12638" lon="2.28663">
        <ele>356</ele>
        <time>2016-05-04T14:11:44Z</time>
      </trkpt>
      <trkpt lat="44.12637" lon="2.28663">
        <ele>356.1</ele>
        <time>2016-05-04T14:11:45Z</time>
      </trkpt>
      <trkpt lat="44.12635" lon="2.28663">
        <ele>356.5</ele>
        <time>2016-05-04T14:11:46Z</time>
      </trkpt>
      <trkpt lat="44.12634" lon="2.28663">
        <ele>356.9</ele>
        <time>2016-05-04T14:11:47Z</time>
      </trkpt>
      <trkpt lat="44.12633" lon="2.28664">
        <ele>357.1</ele>
        <time>2016-05-04T14:11:48Z</time>
      </trkpt>
      <trkpt lat="44.12632" lon="2.28665">
        <ele>357.5</ele>
        <time>2016-05-04T14:11:50Z</time>
      </trkpt>
      <trkpt lat="44.12631" lon="2.28666">
        <ele>357.6</ele>
        <time>2016-05-04T14:11:51Z</time>
      </trkpt>
      <trkpt lat="44.12631" lon="2.28667">
        <ele>357.5</ele>
        <time>2016-05-04T14:11:52Z</time>
      </trkpt>
      <trkpt lat="44.1263" lon="2.28668">
        <ele>357.4</ele>
        <time>2016-05-04T14:11:53Z</time>
      </trkpt>
      <trkpt lat="44.1263" lon="2.28669">
        <ele>357.3</ele>
        <time>2016-05-04T14:11:54Z</time>
      </trkpt>
      <trkpt lat="44.12629" lon="2.2867">
        <ele>357.7</ele>
        <time>2016-05-04T14:11:55Z</time>
      </trkpt>
      <trkpt lat="44.12629" lon="2.28671">
        <ele>357.9</ele>
        <time>2016-05-04T14:11:56Z</time>
      </trkpt>
      <trkpt lat="44.12629" lon="2.28671">
        <ele>358.1</ele>
        <time>2016-05-04T14:11:57Z</time>
      </trkpt>
      <trkpt lat="44.12629" lon="2.28672">
        <ele>358.3</ele>
        <time>2016-05-04T14:11:58Z</time>
      </trkpt>
      <trkpt lat="44.12629" lon="2.28672">
        <ele>358.4</ele>
        <time>2016-05-04T14:11:59Z</time>
      </trkpt>
      <trkpt lat="44.12629" lon="2.28672">
        <ele>358.5</ele>
        <time>2016-05-04T14:12:00Z</time>
      </trkpt>
      <trkpt lat="44.12629" lon="2.28672">
        <ele>358.4</ele>
        <time>2016-05-04T14:12:01Z</time>
      </trkpt>
      <trkpt lat="44.12629" lon="2.28671">
        <ele>358.3</ele>
        <time>2016-05-04T14:12:02Z</time>
      </trkpt>
      <trkpt lat="44.12629" lon="2.2867">
        <ele>358.2</ele>
        <time>2016-05-04T14:12:03Z</time>
      </trkpt>
      <trkpt lat="44.12629" lon="2.2867">
        <ele>358.5</ele>
        <time>2016-05-04T14:12:04Z</time>
      </trkpt>
      <trkpt lat="44.12629" lon="2.28669">
        <ele>358.8</ele>
        <time>2016-05-04T14:12:05Z</time>
      </trkpt>
      <trkpt lat="44.12629" lon="2.28669">
        <ele>359</ele>
        <time>2016-05-04T14:12:06Z</time>
      </trkpt>
      <trkpt lat="44.1263" lon="2.28668">
        <ele>359.4</ele>
        <time>2016-05-04T14:12:07Z</time>
      </trkpt>
      <trkpt lat="44.1263" lon="2.28668">
        <ele>359.7</ele>
        <time>2016-05-04T14:12:08Z</time>
      </trkpt>
      <trkpt lat="44.12631" lon="2.28668">
        <ele>359.9</ele>
        <time>2016-05-04T14:12:09Z</time>
      </trkpt>
      <trkpt lat="44.12634" lon="2.28668">
        <ele>361</ele>
        <time>2016-05-04T14:12:14Z</time>
      </trkpt>
      <trkpt lat="44.12634" lon="2.28667">
        <ele>361.1</ele>
        <time>2016-05-04T14:12:15Z</time>
      </trkpt>
      <trkpt lat="44.12635" lon="2.28667">
        <ele>360.9</ele>
        <time>2016-05-04T14:12:16Z</time>
      </trkpt>
      <trkpt lat="44.12635" lon="2.28667">
        <ele>360.8</ele>
        <time>2016-05-04T14:12:17Z</time>
      </trkpt>
      <trkpt lat="44.12635" lon="2.28667">
        <ele>360.7</ele>
        <time>2016-05-04T14:12:18Z</time>
      </trkpt>
      <trkpt lat="44.12635" lon="2.28667">
        <ele>360.9</ele>
        <time>2016-05-04T14:12:19Z</time>
      </trkpt>
      <trkpt lat="44.12635" lon="2.28668">
        <ele>361</ele>
        <time>2016-05-04T14:12:20Z</time>
      </trkpt>
      <trkpt lat="44.12635" lon="2.28668">
        <ele>361.1</ele>
        <time>2016-05-04T14:12:21Z</time>
      </trkpt>
      <trkpt lat="44.12635" lon="2.28668">
        <ele>361.1</ele>
        <time>2016-05-04T14:12:22Z</time>
      </trkpt>
      <trkpt lat="44.12635" lon="2.28668">
        <ele>361.2</ele>
        <time>2016-05-04T14:12:23Z</time>
      </trkpt>
      <trkpt lat="44.12635" lon="2.28668">
        <ele>361.2</ele>
        <time>2016-05-04T14:12:24Z</time>
      </trkpt>
      <trkpt lat="44.12635" lon="2.2867">
        <ele>361</ele>
        <time>2016-05-04T14:12:29Z</time>
      </trkpt>
      <trkpt lat="44.12635" lon="2.28671">
        <ele>361.1</ele>
        <time>2016-05-04T14:12:30Z</time>
      </trkpt>
      <trkpt lat="44.12635" lon="2.28672">
        <ele>361.2</ele>
        <time>2016-05-04T14:12:31Z</time>
      </trkpt>
      <trkpt lat="44.12635" lon="2.28673">
        <ele>361.2</ele>
        <time>2016-05-04T14:12:32Z</time>
      </trkpt>
      <trkpt lat="44.12635" lon="2.28674">
        <ele>361.2</ele>
        <time>2016-05-04T14:12:33Z</time>
      </trkpt>
      <trkpt lat="44.12635" lon="2.28674">
        <ele>361.5</ele>
        <time>2016-05-04T14:12:34Z</time>
      </trkpt>
      <trkpt lat="44.12636" lon="2.28675">
        <ele>361.7</ele>
        <time>2016-05-04T14:12:35Z</time>
      </trkpt>
      <trkpt lat="44.12636" lon="2.28675">
        <ele>361.8</ele>
        <time>2016-05-04T14:12:36Z</time>
      </trkpt>
      <trkpt lat="44.1266" lon="2.28681">
        <ele>365.3</ele>
        <time>2016-05-04T14:13:09Z</time>
      </trkpt>
      <trkpt lat="44.12661" lon="2.28682">
        <ele>365.4</ele>
        <time>2016-05-04T14:13:10Z</time>
      </trkpt>
      <trkpt lat="44.12666" lon="2.28687">
        <ele>366</ele>
        <time>2016-05-04T14:13:17Z</time>
      </trkpt>
      <trkpt lat="44.12671" lon="2.28694">
        <ele>367</ele>
        <time>2016-05-04T14:13:23Z</time>
      </trkpt>
      <trkpt lat="44.12673" lon="2.28697">
        <ele>367.4</ele>
        <time>2016-05-04T14:13:25Z</time>
      </trkpt>
      <trkpt lat="44.12674" lon="2.28698">
        <ele>367.6</ele>
        <time>2016-05-04T14:13:26Z</time>
      </trkpt>
      <trkpt lat="44.12678" lon="2.28706">
        <ele>368.6</ele>
        <time>2016-05-04T14:13:33Z</time>
      </trkpt>
      <trkpt lat="44.12678" lon="2.28708">
        <ele>368.7</ele>
        <time>2016-05-04T14:13:34Z</time>
      </trkpt>
      <trkpt lat="44.12684" lon="2.28719">
        <ele>369.7</ele>
        <time>2016-05-04T14:13:45Z</time>
      </trkpt>
      <trkpt lat="44.12684" lon="2.28719">
        <ele>370</ele>
        <time>2016-05-04T14:13:46Z</time>
      </trkpt>
      <trkpt lat="44.12685" lon="2.2872">
        <ele>370.2</ele>
        <time>2016-05-04T14:13:47Z</time>
      </trkpt>
      <trkpt lat="44.12706" lon="2.28755">
        <ele>374.5</ele>
        <time>2016-05-04T14:14:20Z</time>
      </trkpt>
      <trkpt lat="44.12707" lon="2.28756">
        <ele>374.6</ele>
        <time>2016-05-04T14:14:21Z</time>
      </trkpt>
      <trkpt lat="44.12707" lon="2.28757">
        <ele>374.9</ele>
        <time>2016-05-04T14:14:22Z</time>
      </trkpt>
      <trkpt lat="44.12708" lon="2.28758">
        <ele>375.2</ele>
        <time>2016-05-04T14:14:23Z</time>
      </trkpt>
      <trkpt lat="44.12712" lon="2.28764">
        <ele>376.1</ele>
        <time>2016-05-04T14:14:28Z</time>
      </trkpt>
      <trkpt lat="44.12713" lon="2.28765">
        <ele>376</ele>
        <time>2016-05-04T14:14:29Z</time>
      </trkpt>
      <trkpt lat="44.12713" lon="2.28766">
        <ele>376</ele>
        <time>2016-05-04T14:14:30Z</time>
      </trkpt>
      <trkpt lat="44.12714" lon="2.28767">
        <ele>376.6</ele>
        <time>2016-05-04T14:14:31Z</time>
      </trkpt>
      <trkpt lat="44.12715" lon="2.28768">
        <ele>377.1</ele>
        <time>2016-05-04T14:14:32Z</time>
      </trkpt>
      <trkpt lat="44.12716" lon="2.2877">
        <ele>377.4</ele>
        <time>2016-05-04T14:14:33Z</time>
      </trkpt>
      <trkpt lat="44.12716" lon="2.28771">
        <ele>377</ele>
        <time>2016-05-04T14:14:34Z</time>
      </trkpt>
      <trkpt lat="44.12717" lon="2.28772">
        <ele>376.7</ele>
        <time>2016-05-04T14:14:35Z</time>
      </trkpt>
      <trkpt lat="44.12718" lon="2.28773">
        <ele>376.5</ele>
        <time>2016-05-04T14:14:36Z</time>
      </trkpt>
      <trkpt lat="44.12721" lon="2.28777">
        <ele>377.6</ele>
        <time>2016-05-04T14:14:39Z</time>
      </trkpt>
      <trkpt lat="44.12722" lon="2.28778">
        <ele>377.4</ele>
        <time>2016-05-04T14:14:40Z</time>
      </trkpt>
      <trkpt lat="44.12723" lon="2.28779">
        <ele>377.2</ele>
        <time>2016-05-04T14:14:41Z</time>
      </trkpt>
      <trkpt lat="44.12724" lon="2.2878">
        <ele>377.1</ele>
        <time>2016-05-04T14:14:42Z</time>
      </trkpt>
      <trkpt lat="44.12725" lon="2.28781">
        <ele>377.4</ele>
        <time>2016-05-04T14:14:43Z</time>
      </trkpt>
      <trkpt lat="44.12726" lon="2.28782">
        <ele>377.7</ele>
        <time>2016-05-04T14:14:44Z</time>
      </trkpt>
      <trkpt lat="44.12727" lon="2.28783">
        <ele>377.9</ele>
        <time>2016-05-04T14:14:45Z</time>
      </trkpt>
      <trkpt lat="44.12728" lon="2.28784">
        <ele>378</ele>
        <time>2016-05-04T14:14:46Z</time>
      </trkpt>
      <trkpt lat="44.12729" lon="2.28785">
        <ele>378.1</ele>
        <time>2016-05-04T14:14:47Z</time>
      </trkpt>
      <trkpt lat="44.12729" lon="2.28786">
        <ele>378.2</ele>
        <time>2016-05-04T14:14:48Z</time>
      </trkpt>
      <trkpt lat="44.1273" lon="2.28787">
        <ele>378.3</ele>
        <time>2016-05-04T14:14:49Z</time>
      </trkpt>
      <trkpt lat="44.12731" lon="2.28788">
        <ele>378.3</ele>
        <time>2016-05-04T14:14:50Z</time>
      </trkpt>
      <trkpt lat="44.12731" lon="2.28789">
        <ele>378.3</ele>
        <time>2016-05-04T14:14:51Z</time>
      </trkpt>
      <trkpt lat="44.12732" lon="2.2879">
        <ele>378.8</ele>
        <time>2016-05-04T14:14:52Z</time>
      </trkpt>
      <trkpt lat="44.12733" lon="2.28791">
        <ele>379.1</ele>
        <time>2016-05-04T14:14:53Z</time>
      </trkpt>
      <trkpt lat="44.12733" lon="2.28792">
        <ele>379.4</ele>
        <time>2016-05-04T14:14:54Z</time>
      </trkpt>
      <trkpt lat="44.12734" lon="2.28793">
        <ele>379.6</ele>
        <time>2016-05-04T14:14:55Z</time>
      </trkpt>
      <trkpt lat="44.12734" lon="2.28793">
        <ele>379.7</ele>
        <time>2016-05-04T14:14:56Z</time>
      </trkpt>
      <trkpt lat="44.12735" lon="2.28794">
        <ele>379.8</ele>
        <time>2016-05-04T14:14:57Z</time>
      </trkpt>
      <trkpt lat="44.12735" lon="2.28795">
        <ele>380.1</ele>
        <time>2016-05-04T14:14:58Z</time>
      </trkpt>
      <trkpt lat="44.12736" lon="2.28796">
        <ele>380.3</ele>
        <time>2016-05-04T14:14:59Z</time>
      </trkpt>
      <trkpt lat="44.12737" lon="2.28797">
        <ele>380.5</ele>
        <time>2016-05-04T14:15:00Z</time>
      </trkpt>
      <trkpt lat="44.12738" lon="2.28799">
        <ele>381.1</ele>
        <time>2016-05-04T14:15:02Z</time>
      </trkpt>
      <trkpt lat="44.12747" lon="2.28812">
        <ele>383.1</ele>
        <time>2016-05-04T14:15:16Z</time>
      </trkpt>
      <trkpt lat="44.12748" lon="2.28813">
        <ele>383.2</ele>
        <time>2016-05-04T14:15:17Z</time>
      </trkpt>
      <trkpt lat="44.12749" lon="2.28814">
        <ele>383.3</ele>
        <time>2016-05-04T14:15:18Z</time>
      </trkpt>
      <trkpt lat="44.12749" lon="2.28815">
        <ele>383.4</ele>
        <time>2016-05-04T14:15:19Z</time>
      </trkpt>
      <trkpt lat="44.1275" lon="2.28816">
        <ele>383.4</ele>
        <time>2016-05-04T14:15:20Z</time>
      </trkpt>
      <trkpt lat="44.12751" lon="2.28817">
        <ele>383.5</ele>
        <time>2016-05-04T14:15:21Z</time>
      </trkpt>
      <trkpt lat="44.12751" lon="2.28818">
        <ele>383.7</ele>
        <time>2016-05-04T14:15:22Z</time>
      </trkpt>
      <trkpt lat="44.12752" lon="2.28819">
        <ele>383.9</ele>
        <time>2016-05-04T14:15:23Z</time>
      </trkpt>
      <trkpt lat="44.12758" lon="2.28825">
        <ele>384.6</ele>
        <time>2016-05-04T14:15:30Z</time>
      </trkpt>
      <trkpt lat="44.12758" lon="2.28826">
        <ele>384.6</ele>
        <time>2016-05-04T14:15:31Z</time>
      </trkpt>
      <trkpt lat="44.1276" lon="2.28828">
        <ele>384.5</ele>
        <time>2016-05-04T14:15:33Z</time>
      </trkpt>
      <trkpt lat="44.1276" lon="2.28828">
        <ele>384.9</ele>
        <time>2016-05-04T14:15:34Z</time>
      </trkpt>
      <trkpt lat="44.12763" lon="2.28831">
        <ele>385.6</ele>
        <time>2016-05-04T14:15:37Z</time>
      </trkpt>
      <trkpt lat="44.12763" lon="2.28831">
        <ele>385.8</ele>
        <time>2016-05-04T14:15:38Z</time>
      </trkpt>
      <trkpt lat="44.12764" lon="2.28832">
        <ele>385.9</ele>
        <time>2016-05-04T14:15:39Z</time>
      </trkpt>
      <trkpt lat="44.12765" lon="2.28833">
        <ele>385.9</ele>
        <time>2016-05-04T14:15:40Z</time>
      </trkpt>
      <trkpt lat="44.12766" lon="2.28834">
        <ele>386</ele>
        <time>2016-05-04T14:15:41Z</time>
      </trkpt>
      <trkpt lat="44.12766" lon="2.28835">
        <ele>386</ele>
        <time>2016-05-04T14:15:42Z</time>
      </trkpt>
      <trkpt lat="44.12767" lon="2.28835">
        <ele>386.3</ele>
        <time>2016-05-04T14:15:43Z</time>
      </trkpt>
      <trkpt lat="44.12768" lon="2.28836">
        <ele>386.4</ele>
        <time>2016-05-04T14:15:44Z</time>
      </trkpt>
      <trkpt lat="44.12769" lon="2.28836">
        <ele>386.6</ele>
        <time>2016-05-04T14:15:45Z</time>
      </trkpt>
      <trkpt lat="44.12769" lon="2.28837">
        <ele>387.1</ele>
        <time>2016-05-04T14:15:46Z</time>
      </trkpt>
      <trkpt lat="44.1277" lon="2.28837">
        <ele>387.5</ele>
        <time>2016-05-04T14:15:47Z</time>
      </trkpt>
      <trkpt lat="44.12771" lon="2.28838">
        <ele>387.8</ele>
        <time>2016-05-04T14:15:48Z</time>
      </trkpt>
      <trkpt lat="44.12771" lon="2.28838">
        <ele>388</ele>
        <time>2016-05-04T14:15:49Z</time>
      </trkpt>
      <trkpt lat="44.12772" lon="2.28838">
        <ele>388.2</ele>
        <time>2016-05-04T14:15:50Z</time>
      </trkpt>
      <trkpt lat="44.12772" lon="2.28839">
        <ele>388.3</ele>
        <time>2016-05-04T14:15:51Z</time>
      </trkpt>
      <trkpt lat="44.12773" lon="2.28839">
        <ele>388</ele>
        <time>2016-05-04T14:15:52Z</time>
      </trkpt>
      <trkpt lat="44.12773" lon="2.2884">
        <ele>387.7</ele>
        <time>2016-05-04T14:15:53Z</time>
      </trkpt>
      <trkpt lat="44.12774" lon="2.2884">
        <ele>387.6</ele>
        <time>2016-05-04T14:15:54Z</time>
      </trkpt>
      <trkpt lat="44.12775" lon="2.2884">
        <ele>387.8</ele>
        <time>2016-05-04T14:15:55Z</time>
      </trkpt>
      <trkpt lat="44.12776" lon="2.2884">
        <ele>388.1</ele>
        <time>2016-05-04T14:15:56Z</time>
      </trkpt>
      <trkpt lat="44.12776" lon="2.28841">
        <ele>388.2</ele>
        <time>2016-05-04T14:15:57Z</time>
      </trkpt>
      <trkpt lat="44.12777" lon="2.28841">
        <ele>388.3</ele>
        <time>2016-05-04T14:15:58Z</time>
      </trkpt>
      <trkpt lat="44.12778" lon="2.28841">
        <ele>388.4</ele>
        <time>2016-05-04T14:15:59Z</time>
      </trkpt>
      <trkpt lat="44.12779" lon="2.28842">
        <ele>388.5</ele>
        <time>2016-05-04T14:16:00Z</time>
      </trkpt>
      <trkpt lat="44.12811" lon="2.28869">
        <ele>393.4</ele>
        <time>2016-05-04T14:16:34Z</time>
      </trkpt>
      <trkpt lat="44.12816" lon="2.28874">
        <ele>394.8</ele>
        <time>2016-05-04T14:16:40Z</time>
      </trkpt>
      <trkpt lat="44.12817" lon="2.28875">
        <ele>395</ele>
        <time>2016-05-04T14:16:41Z</time>
      </trkpt>
      <trkpt lat="44.12818" lon="2.28876">
        <ele>395.1</ele>
        <time>2016-05-04T14:16:42Z</time>
      </trkpt>
      <trkpt lat="44.12818" lon="2.28876">
        <ele>395.3</ele>
        <time>2016-05-04T14:16:43Z</time>
      </trkpt>
      <trkpt lat="44.12832" lon="2.28887">
        <ele>397.4</ele>
        <time>2016-05-04T14:16:59Z</time>
      </trkpt>
      <trkpt lat="44.12833" lon="2.28887">
        <ele>397.6</ele>
        <time>2016-05-04T14:17:00Z</time>
      </trkpt>
      <trkpt lat="44.12833" lon="2.28888">
        <ele>397.9</ele>
        <time>2016-05-04T14:17:01Z</time>
      </trkpt>
      <trkpt lat="44.12834" lon="2.28889">
        <ele>398.2</ele>
        <time>2016-05-04T14:17:02Z</time>
      </trkpt>
      <trkpt lat="44.12834" lon="2.28891">
        <ele>398.4</ele>
        <time>2016-05-04T14:17:03Z</time>
      </trkpt>
      <trkpt lat="44.12835" lon="2.28892">
        <ele>398.5</ele>
        <time>2016-05-04T14:17:04Z</time>
      </trkpt>
      <trkpt lat="44.12835" lon="2.28894">
        <ele>398.7</ele>
        <time>2016-05-04T14:17:05Z</time>
      </trkpt>
      <trkpt lat="44.12835" lon="2.28895">
        <ele>398.7</ele>
        <time>2016-05-04T14:17:06Z</time>
      </trkpt>
      <trkpt lat="44.12835" lon="2.28896">
        <ele>399</ele>
        <time>2016-05-04T14:17:07Z</time>
      </trkpt>
      <trkpt lat="44.12835" lon="2.28898">
        <ele>399.2</ele>
        <time>2016-05-04T14:17:08Z</time>
      </trkpt>
      <trkpt lat="44.12835" lon="2.28898">
        <ele>399.4</ele>
        <time>2016-05-04T14:17:09Z</time>
      </trkpt>
      <trkpt lat="44.12834" lon="2.28899">
        <ele>399.3</ele>
        <time>2016-05-04T14:17:10Z</time>
      </trkpt>
      <trkpt lat="44.12834" lon="2.28899">
        <ele>399.2</ele>
        <time>2016-05-04T14:17:11Z</time>
      </trkpt>
      <trkpt lat="44.12834" lon="2.28899">
        <ele>399.2</ele>
        <time>2016-05-04T14:17:12Z</time>
      </trkpt>
      <trkpt lat="44.12834" lon="2.28899">
        <ele>399.1</ele>
        <time>2016-05-04T14:17:13Z</time>
      </trkpt>
      <trkpt lat="44.12833" lon="2.28899">
        <ele>399.1</ele>
        <time>2016-05-04T14:17:14Z</time>
      </trkpt>
      <trkpt lat="44.12833" lon="2.28899">
        <ele>399.1</ele>
        <time>2016-05-04T14:17:15Z</time>
      </trkpt>
      <trkpt lat="44.12833" lon="2.28899">
        <ele>399.3</ele>
        <time>2016-05-04T14:17:16Z</time>
      </trkpt>
      <trkpt lat="44.12832" lon="2.28899">
        <ele>399.4</ele>
        <time>2016-05-04T14:17:17Z</time>
      </trkpt>
      <trkpt lat="44.12832" lon="2.28899">
        <ele>399.5</ele>
        <time>2016-05-04T14:17:18Z</time>
      </trkpt>
      <trkpt lat="44.12832" lon="2.28899">
        <ele>399.6</ele>
        <time>2016-05-04T14:17:19Z</time>
      </trkpt>
      <trkpt lat="44.12831" lon="2.28898">
        <ele>399.7</ele>
        <time>2016-05-04T14:17:20Z</time>
      </trkpt>
      <trkpt lat="44.12831" lon="2.28898">
        <ele>399.7</ele>
        <time>2016-05-04T14:17:21Z</time>
      </trkpt>
      <trkpt lat="44.12831" lon="2.28898">
        <ele>400</ele>
        <time>2016-05-04T14:17:22Z</time>
      </trkpt>
      <trkpt lat="44.1283" lon="2.28898">
        <ele>400.1</ele>
        <time>2016-05-04T14:17:23Z</time>
      </trkpt>
      <trkpt lat="44.1283" lon="2.28898">
        <ele>400.3</ele>
        <time>2016-05-04T14:17:24Z</time>
      </trkpt>
      <trkpt lat="44.1283" lon="2.28898">
        <ele>400.4</ele>
        <time>2016-05-04T14:17:25Z</time>
      </trkpt>
      <trkpt lat="44.1283" lon="2.28897">
        <ele>400.5</ele>
        <time>2016-05-04T14:17:26Z</time>
      </trkpt>
      <trkpt lat="44.12829" lon="2.28897">
        <ele>400.5</ele>
        <time>2016-05-04T14:17:27Z</time>
      </trkpt>
      <trkpt lat="44.12829" lon="2.28897">
        <ele>401</ele>
        <time>2016-05-04T14:17:28Z</time>
      </trkpt>
      <trkpt lat="44.12829" lon="2.28897">
        <ele>401.4</ele>
        <time>2016-05-04T14:17:29Z</time>
      </trkpt>
      <trkpt lat="44.12828" lon="2.28897">
        <ele>401.6</ele>
        <time>2016-05-04T14:17:30Z</time>
      </trkpt>
      <trkpt lat="44.12828" lon="2.28896">
        <ele>401.6</ele>
        <time>2016-05-04T14:17:31Z</time>
      </trkpt>
      <trkpt lat="44.12828" lon="2.28896">
        <ele>401.6</ele>
        <time>2016-05-04T14:17:32Z</time>
      </trkpt>
      <trkpt lat="44.12827" lon="2.28896">
        <ele>401.6</ele>
        <time>2016-05-04T14:17:33Z</time>
      </trkpt>
      <trkpt lat="44.12826" lon="2.28895">
        <ele>401.8</ele>
        <time>2016-05-04T14:17:34Z</time>
      </trkpt>
      <trkpt lat="44.12826" lon="2.28895">
        <ele>402</ele>
        <time>2016-05-04T14:17:35Z</time>
      </trkpt>
      <trkpt lat="44.12825" lon="2.28895">
        <ele>402.1</ele>
        <time>2016-05-04T14:17:36Z</time>
      </trkpt>
      <trkpt lat="44.12824" lon="2.28894">
        <ele>402.2</ele>
        <time>2016-05-04T14:17:37Z</time>
      </trkpt>
      <trkpt lat="44.12824" lon="2.28894">
        <ele>402.2</ele>
        <time>2016-05-04T14:17:38Z</time>
      </trkpt>
      <trkpt lat="44.12823" lon="2.28894">
        <ele>402.3</ele>
        <time>2016-05-04T14:17:39Z</time>
      </trkpt>
      <trkpt lat="44.12822" lon="2.28894">
        <ele>402.1</ele>
        <time>2016-05-04T14:17:40Z</time>
      </trkpt>
      <trkpt lat="44.12821" lon="2.28894">
        <ele>402</ele>
        <time>2016-05-04T14:17:41Z</time>
      </trkpt>
      <trkpt lat="44.1282" lon="2.28894">
        <ele>401.9</ele>
        <time>2016-05-04T14:17:42Z</time>
      </trkpt>
      <trkpt lat="44.1282" lon="2.28894">
        <ele>402.4</ele>
        <time>2016-05-04T14:17:43Z</time>
      </trkpt>
      <trkpt lat="44.12819" lon="2.28894">
        <ele>402.9</ele>
        <time>2016-05-04T14:17:44Z</time>
      </trkpt>
      <trkpt lat="44.12819" lon="2.28894">
        <ele>403.2</ele>
        <time>2016-05-04T14:17:45Z</time>
      </trkpt>
      <trkpt lat="44.12818" lon="2.28894">
        <ele>403</ele>
        <time>2016-05-04T14:17:46Z</time>
      </trkpt>
      <trkpt lat="44.12817" lon="2.28894">
        <ele>402.8</ele>
        <time>2016-05-04T14:17:47Z</time>
      </trkpt>
      <trkpt lat="44.12817" lon="2.28894">
        <ele>402.7</ele>
        <time>2016-05-04T14:17:48Z</time>
      </trkpt>
      <trkpt lat="44.12816" lon="2.28894">
        <ele>402.7</ele>
        <time>2016-05-04T14:17:49Z</time>
      </trkpt>
      <trkpt lat="44.12814" lon="2.28894">
        <ele>402.6</ele>
        <time>2016-05-04T14:17:50Z</time>
      </trkpt>
      <trkpt lat="44.12813" lon="2.28895">
        <ele>402.6</ele>
        <time>2016-05-04T14:17:51Z</time>
      </trkpt>
      <trkpt lat="44.12812" lon="2.28895">
        <ele>403</ele>
        <time>2016-05-04T14:17:52Z</time>
      </trkpt>
      <trkpt lat="44.12807" lon="2.28895">
        <ele>404.1</ele>
        <time>2016-05-04T14:17:56Z</time>
      </trkpt>
      <trkpt lat="44.12805" lon="2.28895">
        <ele>404.4</ele>
        <time>2016-05-04T14:17:57Z</time>
      </trkpt>
      <trkpt lat="44.12804" lon="2.28895">
        <ele>404.3</ele>
        <time>2016-05-04T14:17:58Z</time>
      </trkpt>
      <trkpt lat="44.12803" lon="2.28895">
        <ele>404.3</ele>
        <time>2016-05-04T14:17:59Z</time>
      </trkpt>
      <trkpt lat="44.12801" lon="2.28896">
        <ele>404.6</ele>
        <time>2016-05-04T14:18:01Z</time>
      </trkpt>
      <trkpt lat="44.12795" lon="2.28896">
        <ele>406.1</ele>
        <time>2016-05-04T14:18:06Z</time>
      </trkpt>
      <trkpt lat="44.12795" lon="2.28896">
        <ele>406</ele>
        <time>2016-05-04T14:18:07Z</time>
      </trkpt>
      <trkpt lat="44.12794" lon="2.28896">
        <ele>406</ele>
        <time>2016-05-04T14:18:08Z</time>
      </trkpt>
      <trkpt lat="44.12793" lon="2.28896">
        <ele>405.9</ele>
        <time>2016-05-04T14:18:09Z</time>
      </trkpt>
      <trkpt lat="44.12792" lon="2.28896">
        <ele>406.1</ele>
        <time>2016-05-04T14:18:10Z</time>
      </trkpt>
      <trkpt lat="44.12791" lon="2.28896">
        <ele>406.3</ele>
        <time>2016-05-04T14:18:11Z</time>
      </trkpt>
      <trkpt lat="44.1279" lon="2.28896">
        <ele>406.4</ele>
        <time>2016-05-04T14:18:12Z</time>
      </trkpt>
      <trkpt lat="44.12788" lon="2.28897">
        <ele>406.5</ele>
        <time>2016-05-04T14:18:13Z</time>
      </trkpt>
      <trkpt lat="44.12787" lon="2.28897">
        <ele>406.5</ele>
        <time>2016-05-04T14:18:14Z</time>
      </trkpt>
      <trkpt lat="44.12786" lon="2.28897">
        <ele>406.6</ele>
        <time>2016-05-04T14:18:15Z</time>
      </trkpt>
      <trkpt lat="44.12785" lon="2.28897">
        <ele>406.8</ele>
        <time>2016-05-04T14:18:16Z</time>
      </trkpt>
      <trkpt lat="44.12784" lon="2.28897">
        <ele>407</ele>
        <time>2016-05-04T14:18:17Z</time>
      </trkpt>
      <trkpt lat="44.12783" lon="2.28897">
        <ele>407.1</ele>
        <time>2016-05-04T14:18:18Z</time>
      </trkpt>
      <trkpt lat="44.12782" lon="2.28897">
        <ele>407</ele>
        <time>2016-05-04T14:18:19Z</time>
      </trkpt>
      <trkpt lat="44.12781" lon="2.28897">
        <ele>407</ele>
        <time>2016-05-04T14:18:20Z</time>
      </trkpt>
      <trkpt lat="44.1278" lon="2.28897">
        <ele>406.9</ele>
        <time>2016-05-04T14:18:21Z</time>
      </trkpt>
      <trkpt lat="44.12779" lon="2.28897">
        <ele>407.1</ele>
        <time>2016-05-04T14:18:22Z</time>
      </trkpt>
      <trkpt lat="44.12778" lon="2.28897">
        <ele>407.2</ele>
        <time>2016-05-04T14:18:23Z</time>
      </trkpt>
      <trkpt lat="44.12777" lon="2.28897">
        <ele>407.3</ele>
        <time>2016-05-04T14:18:24Z</time>
      </trkpt>
      <trkpt lat="44.12776" lon="2.28897">
        <ele>407.4</ele>
        <time>2016-05-04T14:18:25Z</time>
      </trkpt>
      <trkpt lat="44.12775" lon="2.28896">
        <ele>407.4</ele>
        <time>2016-05-04T14:18:26Z</time>
      </trkpt>
      <trkpt lat="44.12775" lon="2.28896">
        <ele>407.4</ele>
        <time>2016-05-04T14:18:27Z</time>
      </trkpt>
      <trkpt lat="44.12774" lon="2.28896">
        <ele>407.3</ele>
        <time>2016-05-04T14:18:28Z</time>
      </trkpt>
      <trkpt lat="44.12773" lon="2.28895">
        <ele>407.1</ele>
        <time>2016-05-04T14:18:29Z</time>
      </trkpt>
      <trkpt lat="44.12772" lon="2.28895">
        <ele>407</ele>
        <time>2016-05-04T14:18:30Z</time>
      </trkpt>
      <trkpt lat="44.12771" lon="2.28895">
        <ele>407.6</ele>
        <time>2016-05-04T14:18:31Z</time>
      </trkpt>
      <trkpt lat="44.1277" lon="2.28894">
        <ele>408</ele>
        <time>2016-05-04T14:18:32Z</time>
      </trkpt>
      <trkpt lat="44.12769" lon="2.28894">
        <ele>408.3</ele>
        <time>2016-05-04T14:18:33Z</time>
      </trkpt>
      <trkpt lat="44.12768" lon="2.28894">
        <ele>408.4</ele>
        <time>2016-05-04T14:18:34Z</time>
      </trkpt>
      <trkpt lat="44.12763" lon="2.28892">
        <ele>409.2</ele>
        <time>2016-05-04T14:18:38Z</time>
      </trkpt>
      <trkpt lat="44.12762" lon="2.28892">
        <ele>409.4</ele>
        <time>2016-05-04T14:18:39Z</time>
      </trkpt>
      <trkpt lat="44.12761" lon="2.28891">
        <ele>409.4</ele>
        <time>2016-05-04T14:18:40Z</time>
      </trkpt>
      <trkpt lat="44.1276" lon="2.28891">
        <ele>409.4</ele>
        <time>2016-05-04T14:18:41Z</time>
      </trkpt>
      <trkpt lat="44.12759" lon="2.2889">
        <ele>409.3</ele>
        <time>2016-05-04T14:18:42Z</time>
      </trkpt>
      <trkpt lat="44.12758" lon="2.2889">
        <ele>409.3</ele>
        <time>2016-05-04T14:18:43Z</time>
      </trkpt>
      <trkpt lat="44.12757" lon="2.28889">
        <ele>409.3</ele>
        <time>2016-05-04T14:18:44Z</time>
      </trkpt>
      <trkpt lat="44.12756" lon="2.28888">
        <ele>409.3</ele>
        <time>2016-05-04T14:18:45Z</time>
      </trkpt>
      <trkpt lat="44.12755" lon="2.28888">
        <ele>409.1</ele>
        <time>2016-05-04T14:18:46Z</time>
      </trkpt>
      <trkpt lat="44.12753" lon="2.28887">
        <ele>408.9</ele>
        <time>2016-05-04T14:18:47Z</time>
      </trkpt>
      <trkpt lat="44.12753" lon="2.28887">
        <ele>408.8</ele>
        <time>2016-05-04T14:18:48Z</time>
      </trkpt>
      <trkpt lat="44.12752" lon="2.28887">
        <ele>409.1</ele>
        <time>2016-05-04T14:18:49Z</time>
      </trkpt>
      <trkpt lat="44.1275" lon="2.28886">
        <ele>409.4</ele>
        <time>2016-05-04T14:18:50Z</time>
      </trkpt>
      <trkpt lat="44.1275" lon="2.28885">
        <ele>409.6</ele>
        <time>2016-05-04T14:18:51Z</time>
      </trkpt>
      <trkpt lat="44.12749" lon="2.28885">
        <ele>409.5</ele>
        <time>2016-05-04T14:18:52Z</time>
      </trkpt>
      <trkpt lat="44.12748" lon="2.28885">
        <ele>409.4</ele>
        <time>2016-05-04T14:18:53Z</time>
      </trkpt>
      <trkpt lat="44.12748" lon="2.28885">
        <ele>409.4</ele>
        <time>2016-05-04T14:18:54Z</time>
      </trkpt>
      <trkpt lat="44.12747" lon="2.28884">
        <ele>409.6</ele>
        <time>2016-05-04T14:18:55Z</time>
      </trkpt>
      <trkpt lat="44.12747" lon="2.28884">
        <ele>409.7</ele>
        <time>2016-05-04T14:18:56Z</time>
      </trkpt>
      <trkpt lat="44.12747" lon="2.28884">
        <ele>409.8</ele>
        <time>2016-05-04T14:18:57Z</time>
      </trkpt>
      <trkpt lat="44.12746" lon="2.28884">
        <ele>410.3</ele>
        <time>2016-05-04T14:18:58Z</time>
      </trkpt>
      <trkpt lat="44.12746" lon="2.28884">
        <ele>410.7</ele>
        <time>2016-05-04T14:18:59Z</time>
      </trkpt>
      <trkpt lat="44.12745" lon="2.28884">
        <ele>411</ele>
        <time>2016-05-04T14:19:00Z</time>
      </trkpt>
      <trkpt lat="44.12744" lon="2.28884">
        <ele>411.4</ele>
        <time>2016-05-04T14:19:01Z</time>
      </trkpt>
      <trkpt lat="44.1274" lon="2.28882">
        <ele>412.3</ele>
        <time>2016-05-04T14:19:05Z</time>
      </trkpt>
      <trkpt lat="44.12739" lon="2.28882">
        <ele>412.4</ele>
        <time>2016-05-04T14:19:06Z</time>
      </trkpt>
      <trkpt lat="44.12738" lon="2.28881">
        <ele>412.5</ele>
        <time>2016-05-04T14:19:07Z</time>
      </trkpt>
      <trkpt lat="44.12737" lon="2.2888">
        <ele>412.5</ele>
        <time>2016-05-04T14:19:08Z</time>
      </trkpt>
      <trkpt lat="44.12735" lon="2.2888">
        <ele>412.6</ele>
        <time>2016-05-04T14:19:09Z</time>
      </trkpt>
      <trkpt lat="44.12734" lon="2.28879">
        <ele>412.8</ele>
        <time>2016-05-04T14:19:10Z</time>
      </trkpt>
      <trkpt lat="44.12733" lon="2.28878">
        <ele>413</ele>
        <time>2016-05-04T14:19:11Z</time>
      </trkpt>
      <trkpt lat="44.12731" lon="2.28877">
        <ele>413.2</ele>
        <time>2016-05-04T14:19:12Z</time>
      </trkpt>
      <trkpt lat="44.12722" lon="2.28875">
        <ele>414.7</ele>
        <time>2016-05-04T14:19:21Z</time>
      </trkpt>
      <trkpt lat="44.12721" lon="2.28874">
        <ele>414.5</ele>
        <time>2016-05-04T14:19:22Z</time>
      </trkpt>
      <trkpt lat="44.1272" lon="2.28874">
        <ele>414.2</ele>
        <time>2016-05-04T14:19:23Z</time>
      </trkpt>
      <trkpt lat="44.1272" lon="2.28874">
        <ele>414.1</ele>
        <time>2016-05-04T14:19:24Z</time>
      </trkpt>
      <trkpt lat="44.12719" lon="2.28874">
        <ele>414.2</ele>
        <time>2016-05-04T14:19:25Z</time>
      </trkpt>
      <trkpt lat="44.12719" lon="2.28873">
        <ele>414.2</ele>
        <time>2016-05-04T14:19:26Z</time>
      </trkpt>
      <trkpt lat="44.12718" lon="2.28873">
        <ele>414.3</ele>
        <time>2016-05-04T14:19:27Z</time>
      </trkpt>
      <trkpt lat="44.12718" lon="2.28873">
        <ele>414.7</ele>
        <time>2016-05-04T14:19:28Z</time>
      </trkpt>
      <trkpt lat="44.12717" lon="2.28872">
        <ele>415.1</ele>
        <time>2016-05-04T14:19:29Z</time>
      </trkpt>
      <trkpt lat="44.12716" lon="2.28872">
        <ele>415.4</ele>
        <time>2016-05-04T14:19:30Z</time>
      </trkpt>
      <trkpt lat="44.12715" lon="2.28871">
        <ele>415.8</ele>
        <time>2016-05-04T14:19:31Z</time>
      </trkpt>
      <trkpt lat="44.12714" lon="2.2887">
        <ele>416.1</ele>
        <time>2016-05-04T14:19:32Z</time>
      </trkpt>
      <trkpt lat="44.12713" lon="2.2887">
        <ele>416.3</ele>
        <time>2016-05-04T14:19:33Z</time>
      </trkpt>
      <trkpt lat="44.12702" lon="2.28867">
        <ele>417.4</ele>
        <time>2016-05-04T14:19:41Z</time>
      </trkpt>
      <trkpt lat="44.12701" lon="2.28866">
        <ele>417.7</ele>
        <time>2016-05-04T14:19:42Z</time>
      </trkpt>
      <trkpt lat="44.12701" lon="2.28866">
        <ele>417.8</ele>
        <time>2016-05-04T14:19:43Z</time>
      </trkpt>
      <trkpt lat="44.127" lon="2.28866">
        <ele>417.8</ele>
        <time>2016-05-04T14:19:44Z</time>
      </trkpt>
      <trkpt lat="44.12699" lon="2.28866">
        <ele>417.8</ele>
        <time>2016-05-04T14:19:45Z</time>
      </trkpt>
      <trkpt lat="44.12698" lon="2.28865">
        <ele>417.6</ele>
        <time>2016-05-04T14:19:46Z</time>
      </trkpt>
      <trkpt lat="44.12698" lon="2.28865">
        <ele>417.5</ele>
        <time>2016-05-04T14:19:47Z</time>
      </trkpt>
      <trkpt lat="44.12697" lon="2.28865">
        <ele>417.4</ele>
        <time>2016-05-04T14:19:48Z</time>
      </trkpt>
      <trkpt lat="44.12696" lon="2.28865">
        <ele>417.5</ele>
        <time>2016-05-04T14:19:49Z</time>
      </trkpt>
      <trkpt lat="44.12696" lon="2.28864">
        <ele>417.6</ele>
        <time>2016-05-04T14:19:50Z</time>
      </trkpt>
      <trkpt lat="44.12695" lon="2.28864">
        <ele>417.7</ele>
        <time>2016-05-04T14:19:51Z</time>
      </trkpt>
      <trkpt lat="44.12694" lon="2.28863">
        <ele>417.9</ele>
        <time>2016-05-04T14:19:52Z</time>
      </trkpt>
      <trkpt lat="44.12693" lon="2.28862">
        <ele>418.1</ele>
        <time>2016-05-04T14:19:53Z</time>
      </trkpt>
      <trkpt lat="44.12691" lon="2.28862">
        <ele>418.3</ele>
        <time>2016-05-04T14:19:54Z</time>
      </trkpt>
      <trkpt lat="44.1269" lon="2.28861">
        <ele>418.8</ele>
        <time>2016-05-04T14:19:55Z</time>
      </trkpt>
      <trkpt lat="44.12689" lon="2.28861">
        <ele>419.2</ele>
        <time>2016-05-04T14:19:56Z</time>
      </trkpt>
      <trkpt lat="44.12687" lon="2.2886">
        <ele>419.5</ele>
        <time>2016-05-04T14:19:57Z</time>
      </trkpt>
      <trkpt lat="44.12686" lon="2.2886">
        <ele>419.3</ele>
        <time>2016-05-04T14:19:58Z</time>
      </trkpt>
      <trkpt lat="44.12685" lon="2.28859">
        <ele>419.2</ele>
        <time>2016-05-04T14:19:59Z</time>
      </trkpt>
      <trkpt lat="44.12683" lon="2.28859">
        <ele>419.1</ele>
        <time>2016-05-04T14:20:00Z</time>
      </trkpt>
      <trkpt lat="44.12682" lon="2.28858">
        <ele>419.4</ele>
        <time>2016-05-04T14:20:01Z</time>
      </trkpt>
      <trkpt lat="44.1268" lon="2.28858">
        <ele>419.7</ele>
        <time>2016-05-04T14:20:02Z</time>
      </trkpt>
      <trkpt lat="44.1268" lon="2.28858">
        <ele>419.9</ele>
        <time>2016-05-04T14:20:03Z</time>
      </trkpt>
      <trkpt lat="44.12669" lon="2.28856">
        <ele>421.4</ele>
        <time>2016-05-04T14:20:13Z</time>
      </trkpt>
      <trkpt lat="44.12668" lon="2.28856">
        <ele>421.6</ele>
        <time>2016-05-04T14:20:14Z</time>
      </trkpt>
      <trkpt lat="44.12667" lon="2.28856">
        <ele>421.7</ele>
        <time>2016-05-04T14:20:15Z</time>
      </trkpt>
      <trkpt lat="44.12666" lon="2.28856">
        <ele>421.8</ele>
        <time>2016-05-04T14:20:16Z</time>
      </trkpt>
      <trkpt lat="44.12666" lon="2.28856">
        <ele>421.9</ele>
        <time>2016-05-04T14:20:17Z</time>
      </trkpt>
      <trkpt lat="44.12665" lon="2.28856">
        <ele>422</ele>
        <time>2016-05-04T14:20:18Z</time>
      </trkpt>
      <trkpt lat="44.12664" lon="2.28856">
        <ele>422</ele>
        <time>2016-05-04T14:20:19Z</time>
      </trkpt>
      <trkpt lat="44.12663" lon="2.28856">
        <ele>422.1</ele>
        <time>2016-05-04T14:20:20Z</time>
      </trkpt>
      <trkpt lat="44.12662" lon="2.28856">
        <ele>422.1</ele>
        <time>2016-05-04T14:20:21Z</time>
      </trkpt>
      <trkpt lat="44.12661" lon="2.28855">
        <ele>422.3</ele>
        <time>2016-05-04T14:20:22Z</time>
      </trkpt>
      <trkpt lat="44.1266" lon="2.28855">
        <ele>422.5</ele>
        <time>2016-05-04T14:20:23Z</time>
      </trkpt>
      <trkpt lat="44.12659" lon="2.28855">
        <ele>422.6</ele>
        <time>2016-05-04T14:20:24Z</time>
      </trkpt>
      <trkpt lat="44.12658" lon="2.28856">
        <ele>422.9</ele>
        <time>2016-05-04T14:20:25Z</time>
      </trkpt>
      <trkpt lat="44.12657" lon="2.28856">
        <ele>423.2</ele>
        <time>2016-05-04T14:20:26Z</time>
      </trkpt>
      <trkpt lat="44.12656" lon="2.28856">
        <ele>423.4</ele>
        <time>2016-05-04T14:20:27Z</time>
      </trkpt>
      <trkpt lat="44.12654" lon="2.28857">
        <ele>423.1</ele>
        <time>2016-05-04T14:20:28Z</time>
      </trkpt>
      <trkpt lat="44.12652" lon="2.28857">
        <ele>422.8</ele>
        <time>2016-05-04T14:20:29Z</time>
      </trkpt>
      <trkpt lat="44.1265" lon="2.28858">
        <ele>422.7</ele>
        <time>2016-05-04T14:20:30Z</time>
      </trkpt>
      <trkpt lat="44.12649" lon="2.28858">
        <ele>423</ele>
        <time>2016-05-04T14:20:31Z</time>
      </trkpt>
      <trkpt lat="44.12647" lon="2.28858">
        <ele>423.2</ele>
        <time>2016-05-04T14:20:32Z</time>
      </trkpt>
      <trkpt lat="44.12645" lon="2.28858">
        <ele>423.4</ele>
        <time>2016-05-04T14:20:33Z</time>
      </trkpt>
      <trkpt lat="44.12644" lon="2.28858">
        <ele>423.5</ele>
        <time>2016-05-04T14:20:34Z</time>
      </trkpt>
      <trkpt lat="44.12642" lon="2.28858">
        <ele>423.6</ele>
        <time>2016-05-04T14:20:35Z</time>
      </trkpt>
      <trkpt lat="44.12641" lon="2.28858">
        <ele>423.7</ele>
        <time>2016-05-04T14:20:36Z</time>
      </trkpt>
      <trkpt lat="44.12639" lon="2.28858">
        <ele>423.5</ele>
        <time>2016-05-04T14:20:37Z</time>
      </trkpt>
      <trkpt lat="44.12638" lon="2.28858">
        <ele>423.4</ele>
        <time>2016-05-04T14:20:38Z</time>
      </trkpt>
      <trkpt lat="44.12636" lon="2.28859">
        <ele>423.3</ele>
        <time>2016-05-04T14:20:39Z</time>
      </trkpt>
      <trkpt lat="44.12634" lon="2.28859">
        <ele>423.9</ele>
        <time>2016-05-04T14:20:40Z</time>
      </trkpt>
      <trkpt lat="44.12633" lon="2.2886">
        <ele>424.3</ele>
        <time>2016-05-04T14:20:41Z</time>
      </trkpt>
      <trkpt lat="44.12631" lon="2.2886">
        <ele>424.6</ele>
        <time>2016-05-04T14:20:42Z</time>
      </trkpt>
      <trkpt lat="44.1263" lon="2.28861">
        <ele>424.9</ele>
        <time>2016-05-04T14:20:43Z</time>
      </trkpt>
      <trkpt lat="44.12629" lon="2.28861">
        <ele>425.1</ele>
        <time>2016-05-04T14:20:44Z</time>
      </trkpt>
      <trkpt lat="44.12628" lon="2.28862">
        <ele>425.2</ele>
        <time>2016-05-04T14:20:45Z</time>
      </trkpt>
      <trkpt lat="44.12628" lon="2.28863">
        <ele>425.3</ele>
        <time>2016-05-04T14:20:46Z</time>
      </trkpt>
      <trkpt lat="44.12627" lon="2.28863">
        <ele>425.4</ele>
        <time>2016-05-04T14:20:47Z</time>
      </trkpt>
      <trkpt lat="44.12627" lon="2.28864">
        <ele>425.4</ele>
        <time>2016-05-04T14:20:48Z</time>
      </trkpt>
      <trkpt lat="44.12627" lon="2.28864">
        <ele>425.7</ele>
        <time>2016-05-04T14:20:49Z</time>
      </trkpt>
      <trkpt lat="44.12627" lon="2.28864">
        <ele>425.9</ele>
        <time>2016-05-04T14:20:50Z</time>
      </trkpt>
      <trkpt lat="44.12627" lon="2.28864">
        <ele>426</ele>
        <time>2016-05-04T14:20:51Z</time>
      </trkpt>
      <trkpt lat="44.12627" lon="2.28864">
        <ele>425.9</ele>
        <time>2016-05-04T14:20:52Z</time>
      </trkpt>
      <trkpt lat="44.12628" lon="2.28864">
        <ele>425.8</ele>
        <time>2016-05-04T14:20:53Z</time>
      </trkpt>
      <trkpt lat="44.12628" lon="2.28864">
        <ele>425.8</ele>
        <time>2016-05-04T14:20:54Z</time>
      </trkpt>
      <trkpt lat="44.12628" lon="2.28863">
        <ele>426.2</ele>
        <time>2016-05-04T14:20:55Z</time>
      </trkpt>
      <trkpt lat="44.12628" lon="2.28863">
        <ele>426.5</ele>
        <time>2016-05-04T14:20:56Z</time>
      </trkpt>
      <trkpt lat="44.12629" lon="2.28863">
        <ele>426.7</ele>
        <time>2016-05-04T14:20:57Z</time>
      </trkpt>
      <trkpt lat="44.12629" lon="2.28863">
        <ele>426.8</ele>
        <time>2016-05-04T14:20:58Z</time>
      </trkpt>
      <trkpt lat="44.12629" lon="2.28862">
        <ele>427</ele>
        <time>2016-05-04T14:20:59Z</time>
      </trkpt>
      <trkpt lat="44.1263" lon="2.28862">
        <ele>427</ele>
        <time>2016-05-04T14:21:00Z</time>
      </trkpt>
      <trkpt lat="44.1263" lon="2.28862">
        <ele>427.3</ele>
        <time>2016-05-04T14:21:01Z</time>
      </trkpt>
      <trkpt lat="44.12631" lon="2.28862">
        <ele>427.5</ele>
        <time>2016-05-04T14:21:02Z</time>
      </trkpt>
      <trkpt lat="44.12633" lon="2.28862">
        <ele>427.9</ele>
        <time>2016-05-04T14:21:05Z</time>
      </trkpt>
      <trkpt lat="44.12633" lon="2.28862">
        <ele>428</ele>
        <time>2016-05-04T14:21:06Z</time>
      </trkpt>
      <trkpt lat="44.1264" lon="2.28864">
        <ele>428.8</ele>
        <time>2016-05-04T14:21:13Z</time>
      </trkpt>
      <trkpt lat="44.12644" lon="2.28866">
        <ele>429.6</ele>
        <time>2016-05-04T14:21:17Z</time>
      </trkpt>
      <trkpt lat="44.12646" lon="2.28869">
        <ele>429.8</ele>
        <time>2016-05-04T14:21:20Z</time>
      </trkpt>
      <trkpt lat="44.12659" lon="2.28882">
        <ele>430.8</ele>
        <time>2016-05-04T14:21:36Z</time>
      </trkpt>
      <trkpt lat="44.12686" lon="2.28909">
        <ele>434.4</ele>
        <time>2016-05-04T14:22:10Z</time>
      </trkpt>
      <trkpt lat="44.12687" lon="2.2891">
        <ele>434.6</ele>
        <time>2016-05-04T14:22:11Z</time>
      </trkpt>
      <trkpt lat="44.12708" lon="2.28931">
        <ele>436.8</ele>
        <time>2016-05-04T14:22:34Z</time>
      </trkpt>
      <trkpt lat="44.12709" lon="2.28932">
        <ele>436.8</ele>
        <time>2016-05-04T14:22:35Z</time>
      </trkpt>
      <trkpt lat="44.1272" lon="2.28941">
        <ele>438</ele>
        <time>2016-05-04T14:22:48Z</time>
      </trkpt>
      <trkpt lat="44.12721" lon="2.28942">
        <ele>438.3</ele>
        <time>2016-05-04T14:22:49Z</time>
      </trkpt>
      <trkpt lat="44.12731" lon="2.28952">
        <ele>440.3</ele>
        <time>2016-05-04T14:22:59Z</time>
      </trkpt>
      <trkpt lat="44.12732" lon="2.28953">
        <ele>440.5</ele>
        <time>2016-05-04T14:23:00Z</time>
      </trkpt>
      <trkpt lat="44.12733" lon="2.28954">
        <ele>440.7</ele>
        <time>2016-05-04T14:23:01Z</time>
      </trkpt>
      <trkpt lat="44.12734" lon="2.28955">
        <ele>440.8</ele>
        <time>2016-05-04T14:23:02Z</time>
      </trkpt>
      <trkpt lat="44.12735" lon="2.28956">
        <ele>440.9</ele>
        <time>2016-05-04T14:23:03Z</time>
      </trkpt>
      <trkpt lat="44.12737" lon="2.28958">
        <ele>440.9</ele>
        <time>2016-05-04T14:23:04Z</time>
      </trkpt>
      <trkpt lat="44.12739" lon="2.28959">
        <ele>441</ele>
        <time>2016-05-04T14:23:05Z</time>
      </trkpt>
      <trkpt lat="44.1274" lon="2.28961">
        <ele>441</ele>
        <time>2016-05-04T14:23:06Z</time>
      </trkpt>
      <trkpt lat="44.12742" lon="2.28962">
        <ele>441.2</ele>
        <time>2016-05-04T14:23:07Z</time>
      </trkpt>
      <trkpt lat="44.12743" lon="2.28963">
        <ele>441.4</ele>
        <time>2016-05-04T14:23:08Z</time>
      </trkpt>
      <trkpt lat="44.12744" lon="2.28964">
        <ele>441.5</ele>
        <time>2016-05-04T14:23:09Z</time>
      </trkpt>
      <trkpt lat="44.12746" lon="2.28965">
        <ele>441.4</ele>
        <time>2016-05-04T14:23:10Z</time>
      </trkpt>
      <trkpt lat="44.12747" lon="2.28965">
        <ele>441.3</ele>
        <time>2016-05-04T14:23:11Z</time>
      </trkpt>
      <trkpt lat="44.12748" lon="2.28966">
        <ele>441.3</ele>
        <time>2016-05-04T14:23:12Z</time>
      </trkpt>
      <trkpt lat="44.1278" lon="2.28982">
        <ele>444.1</ele>
        <time>2016-05-04T14:23:40Z</time>
      </trkpt>
      <trkpt lat="44.12785" lon="2.28988">
        <ele>443.8</ele>
        <time>2016-05-04T14:23:45Z</time>
      </trkpt>
      <trkpt lat="44.12788" lon="2.28991">
        <ele>444.2</ele>
        <time>2016-05-04T14:23:48Z</time>
      </trkpt>
      <trkpt lat="44.1279" lon="2.28994">
        <ele>444.4</ele>
        <time>2016-05-04T14:23:51Z</time>
      </trkpt>
      <trkpt lat="44.12793" lon="2.29001">
        <ele>445.8</ele>
        <time>2016-05-04T14:23:56Z</time>
      </trkpt>
      <trkpt lat="44.12794" lon="2.29005">
        <ele>445.7</ele>
        <time>2016-05-04T14:23:59Z</time>
      </trkpt>
      <trkpt lat="44.12797" lon="2.29013">
        <ele>446.3</ele>
        <time>2016-05-04T14:24:04Z</time>
      </trkpt>
      <trkpt lat="44.12797" lon="2.29014">
        <ele>446.5</ele>
        <time>2016-05-04T14:24:05Z</time>
      </trkpt>
      <trkpt lat="44.12799" lon="2.29021">
        <ele>447.6</ele>
        <time>2016-05-04T14:24:10Z</time>
      </trkpt>
      <trkpt lat="44.128" lon="2.29024">
        <ele>447.8</ele>
        <time>2016-05-04T14:24:13Z</time>
      </trkpt>
      <trkpt lat="44.128" lon="2.29025">
        <ele>447.8</ele>
        <time>2016-05-04T14:24:14Z</time>
      </trkpt>
      <trkpt lat="44.128" lon="2.29027">
        <ele>447.9</ele>
        <time>2016-05-04T14:24:15Z</time>
      </trkpt>
      <trkpt lat="44.12801" lon="2.29028">
        <ele>447.9</ele>
        <time>2016-05-04T14:24:16Z</time>
      </trkpt>
      <trkpt lat="44.12801" lon="2.29029">
        <ele>447.9</ele>
        <time>2016-05-04T14:24:17Z</time>
      </trkpt>
      <trkpt lat="44.12801" lon="2.29031">
        <ele>447.9</ele>
        <time>2016-05-04T14:24:18Z</time>
      </trkpt>
      <trkpt lat="44.12802" lon="2.29032">
        <ele>448.2</ele>
        <time>2016-05-04T14:24:19Z</time>
      </trkpt>
      <trkpt lat="44.12802" lon="2.29034">
        <ele>448.3</ele>
        <time>2016-05-04T14:24:20Z</time>
      </trkpt>
      <trkpt lat="44.12803" lon="2.29035">
        <ele>448.5</ele>
        <time>2016-05-04T14:24:21Z</time>
      </trkpt>
      <trkpt lat="44.12803" lon="2.29037">
        <ele>448.8</ele>
        <time>2016-05-04T14:24:22Z</time>
      </trkpt>
      <trkpt lat="44.12803" lon="2.29038">
        <ele>449</ele>
        <time>2016-05-04T14:24:23Z</time>
      </trkpt>
      <trkpt lat="44.12804" lon="2.2904">
        <ele>449.2</ele>
        <time>2016-05-04T14:24:24Z</time>
      </trkpt>
      <trkpt lat="44.12804" lon="2.29041">
        <ele>449.3</ele>
        <time>2016-05-04T14:24:25Z</time>
      </trkpt>
      <trkpt lat="44.12804" lon="2.29043">
        <ele>449.4</ele>
        <time>2016-05-04T14:24:26Z</time>
      </trkpt>
      <trkpt lat="44.12804" lon="2.2905">
        <ele>449.6</ele>
        <time>2016-05-04T14:24:30Z</time>
      </trkpt>
      <trkpt lat="44.12805" lon="2.29051">
        <ele>450.1</ele>
        <time>2016-05-04T14:24:31Z</time>
      </trkpt>
      <trkpt lat="44.12804" lon="2.29056">
        <ele>450.6</ele>
        <time>2016-05-04T14:24:34Z</time>
      </trkpt>
      <trkpt lat="44.12796" lon="2.29154">
        <ele>455.8</ele>
        <time>2016-05-04T14:25:33Z</time>
      </trkpt>
      <trkpt lat="44.12797" lon="2.29155">
        <ele>455.8</ele>
        <time>2016-05-04T14:25:34Z</time>
      </trkpt>
      <trkpt lat="44.128" lon="2.29167">
        <ele>456.2</ele>
        <time>2016-05-04T14:25:42Z</time>
      </trkpt>
      <trkpt lat="44.12801" lon="2.29169">
        <ele>456.5</ele>
        <time>2016-05-04T14:25:43Z</time>
      </trkpt>
      <trkpt lat="44.12801" lon="2.2917">
        <ele>456.8</ele>
        <time>2016-05-04T14:25:44Z</time>
      </trkpt>
      <trkpt lat="44.12801" lon="2.29172">
        <ele>456.9</ele>
        <time>2016-05-04T14:25:45Z</time>
      </trkpt>
      <trkpt lat="44.12802" lon="2.29173">
        <ele>457.1</ele>
        <time>2016-05-04T14:25:46Z</time>
      </trkpt>
      <trkpt lat="44.12802" lon="2.29174">
        <ele>457.2</ele>
        <time>2016-05-04T14:25:47Z</time>
      </trkpt>
      <trkpt lat="44.12803" lon="2.29175">
        <ele>457.2</ele>
        <time>2016-05-04T14:25:48Z</time>
      </trkpt>
      <trkpt lat="44.12803" lon="2.29177">
        <ele>457.3</ele>
        <time>2016-05-04T14:25:49Z</time>
      </trkpt>
      <trkpt lat="44.12803" lon="2.29181">
        <ele>457.3</ele>
        <time>2016-05-04T14:25:50Z</time>
      </trkpt>
      <trkpt lat="44.12803" lon="2.29185">
        <ele>457.4</ele>
        <time>2016-05-04T14:25:51Z</time>
      </trkpt>
      <trkpt lat="44.12803" lon="2.29188">
        <ele>457.6</ele>
        <time>2016-05-04T14:25:52Z</time>
      </trkpt>
      <trkpt lat="44.12804" lon="2.29191">
        <ele>457.8</ele>
        <time>2016-05-04T14:25:53Z</time>
      </trkpt>
      <trkpt lat="44.12805" lon="2.29194">
        <ele>457.9</ele>
        <time>2016-05-04T14:25:54Z</time>
      </trkpt>
      <trkpt lat="44.12806" lon="2.29196">
        <ele>458.2</ele>
        <time>2016-05-04T14:25:55Z</time>
      </trkpt>
      <trkpt lat="44.12807" lon="2.29198">
        <ele>458.5</ele>
        <time>2016-05-04T14:25:56Z</time>
      </trkpt>
      <trkpt lat="44.12808" lon="2.29199">
        <ele>458.6</ele>
        <time>2016-05-04T14:25:57Z</time>
      </trkpt>
      <trkpt lat="44.12808" lon="2.29199">
        <ele>458.8</ele>
        <time>2016-05-04T14:25:58Z</time>
      </trkpt>
      <trkpt lat="44.12809" lon="2.292">
        <ele>458.9</ele>
        <time>2016-05-04T14:25:59Z</time>
      </trkpt>
      <trkpt lat="44.1281" lon="2.292">
        <ele>459</ele>
        <time>2016-05-04T14:26:00Z</time>
      </trkpt>
      <trkpt lat="44.12811" lon="2.292">
        <ele>459</ele>
        <time>2016-05-04T14:26:01Z</time>
      </trkpt>
      <trkpt lat="44.12812" lon="2.292">
        <ele>459.1</ele>
        <time>2016-05-04T14:26:02Z</time>
      </trkpt>
      <trkpt lat="44.12813" lon="2.292">
        <ele>459.1</ele>
        <time>2016-05-04T14:26:03Z</time>
      </trkpt>
      <trkpt lat="44.12814" lon="2.292">
        <ele>458.9</ele>
        <time>2016-05-04T14:26:04Z</time>
      </trkpt>
      <trkpt lat="44.12815" lon="2.292">
        <ele>458.6</ele>
        <time>2016-05-04T14:26:06Z</time>
      </trkpt>
      <trkpt lat="44.12817" lon="2.29199">
        <ele>459</ele>
        <time>2016-05-04T14:26:09Z</time>
      </trkpt>
      <trkpt lat="44.12826" lon="2.29196">
        <ele>459.1</ele>
        <time>2016-05-04T14:26:20Z</time>
      </trkpt>
      <trkpt lat="44.12839" lon="2.29197">
        <ele>460.6</ele>
        <time>2016-05-04T14:26:32Z</time>
      </trkpt>
      <trkpt lat="44.12854" lon="2.29201">
        <ele>462.1</ele>
        <time>2016-05-04T14:26:44Z</time>
      </trkpt>
      <trkpt lat="44.12855" lon="2.29202">
        <ele>462</ele>
        <time>2016-05-04T14:26:45Z</time>
      </trkpt>
      <trkpt lat="44.12872" lon="2.29211">
        <ele>464.2</ele>
        <time>2016-05-04T14:26:57Z</time>
      </trkpt>
      <trkpt lat="44.12876" lon="2.29214">
        <ele>463.8</ele>
        <time>2016-05-04T14:27:00Z</time>
      </trkpt>
      <trkpt lat="44.12879" lon="2.29218">
        <ele>464.2</ele>
        <time>2016-05-04T14:27:04Z</time>
      </trkpt>
      <trkpt lat="44.12887" lon="2.29226">
        <ele>465.3</ele>
        <time>2016-05-04T14:27:12Z</time>
      </trkpt>
      <trkpt lat="44.12917" lon="2.2926">
        <ele>468.9</ele>
        <time>2016-05-04T14:27:41Z</time>
      </trkpt>
      <trkpt lat="44.12935" lon="2.29289">
        <ele>470.1</ele>
        <time>2016-05-04T14:28:05Z</time>
      </trkpt>
      <trkpt lat="44.12936" lon="2.2929">
        <ele>470.2</ele>
        <time>2016-05-04T14:28:06Z</time>
      </trkpt>
      <trkpt lat="44.12938" lon="2.29295">
        <ele>470.8</ele>
        <time>2016-05-04T14:28:09Z</time>
      </trkpt>
      <trkpt lat="44.12959" lon="2.29366">
        <ele>475</ele>
        <time>2016-05-04T14:28:51Z</time>
      </trkpt>
      <trkpt lat="44.1296" lon="2.29367">
        <ele>475.1</ele>
        <time>2016-05-04T14:28:52Z</time>
      </trkpt>
      <trkpt lat="44.12965" lon="2.29377">
        <ele>476</ele>
        <time>2016-05-04T14:29:00Z</time>
      </trkpt>
      <trkpt lat="44.12967" lon="2.29379">
        <ele>475.8</ele>
        <time>2016-05-04T14:29:02Z</time>
      </trkpt>
      <trkpt lat="44.12969" lon="2.29385">
        <ele>476.1</ele>
        <time>2016-05-04T14:29:05Z</time>
      </trkpt>
      <trkpt lat="44.12969" lon="2.29387">
        <ele>476.2</ele>
        <time>2016-05-04T14:29:06Z</time>
      </trkpt>
      <trkpt lat="44.1297" lon="2.29389">
        <ele>476.4</ele>
        <time>2016-05-04T14:29:07Z</time>
      </trkpt>
      <trkpt lat="44.1297" lon="2.29391">
        <ele>476.7</ele>
        <time>2016-05-04T14:29:08Z</time>
      </trkpt>
      <trkpt lat="44.12971" lon="2.29392">
        <ele>476.8</ele>
        <time>2016-05-04T14:29:09Z</time>
      </trkpt>
      <trkpt lat="44.12972" lon="2.29394">
        <ele>476.9</ele>
        <time>2016-05-04T14:29:10Z</time>
      </trkpt>
      <trkpt lat="44.12973" lon="2.29395">
        <ele>477</ele>
        <time>2016-05-04T14:29:11Z</time>
      </trkpt>
      <trkpt lat="44.12973" lon="2.29396">
        <ele>477.1</ele>
        <time>2016-05-04T14:29:12Z</time>
      </trkpt>
      <trkpt lat="44.12974" lon="2.29398">
        <ele>476.9</ele>
        <time>2016-05-04T14:29:13Z</time>
      </trkpt>
      <trkpt lat="44.12975" lon="2.29399">
        <ele>476.8</ele>
        <time>2016-05-04T14:29:14Z</time>
      </trkpt>
      <trkpt lat="44.12978" lon="2.29402">
        <ele>477.4</ele>
        <time>2016-05-04T14:29:17Z</time>
      </trkpt>
      <trkpt lat="44.12979" lon="2.29404">
        <ele>477.6</ele>
        <time>2016-05-04T14:29:18Z</time>
      </trkpt>
      <trkpt lat="44.1298" lon="2.29405">
        <ele>477.5</ele>
        <time>2016-05-04T14:29:19Z</time>
      </trkpt>
      <trkpt lat="44.12981" lon="2.29407">
        <ele>477.4</ele>
        <time>2016-05-04T14:29:20Z</time>
      </trkpt>
      <trkpt lat="44.12982" lon="2.29409">
        <ele>477.4</ele>
        <time>2016-05-04T14:29:21Z</time>
      </trkpt>
      <trkpt lat="44.12983" lon="2.2941">
        <ele>478</ele>
        <time>2016-05-04T14:29:22Z</time>
      </trkpt>
      <trkpt lat="44.12983" lon="2.29411">
        <ele>478.5</ele>
        <time>2016-05-04T14:29:23Z</time>
      </trkpt>
      <trkpt lat="44.12984" lon="2.29412">
        <ele>478.8</ele>
        <time>2016-05-04T14:29:24Z</time>
      </trkpt>
      <trkpt lat="44.12985" lon="2.29413">
        <ele>479.1</ele>
        <time>2016-05-04T14:29:25Z</time>
      </trkpt>
      <trkpt lat="44.12986" lon="2.29415">
        <ele>479.3</ele>
        <time>2016-05-04T14:29:26Z</time>
      </trkpt>
      <trkpt lat="44.12987" lon="2.29416">
        <ele>479.5</ele>
        <time>2016-05-04T14:29:27Z</time>
      </trkpt>
      <trkpt lat="44.12988" lon="2.29417">
        <ele>479.4</ele>
        <time>2016-05-04T14:29:28Z</time>
      </trkpt>
      <trkpt lat="44.13001" lon="2.29437">
        <ele>482.6</ele>
        <time>2016-05-04T14:29:48Z</time>
      </trkpt>
      <trkpt lat="44.13002" lon="2.29438">
        <ele>482.8</ele>
        <time>2016-05-04T14:29:49Z</time>
      </trkpt>
      <trkpt lat="44.13007" lon="2.2945">
        <ele>483.9</ele>
        <time>2016-05-04T14:29:58Z</time>
      </trkpt>
      <trkpt lat="44.13009" lon="2.29458">
        <ele>485.3</ele>
        <time>2016-05-04T14:30:03Z</time>
      </trkpt>
      <trkpt lat="44.13014" lon="2.29474">
        <ele>486.5</ele>
        <time>2016-05-04T14:30:14Z</time>
      </trkpt>
      <trkpt lat="44.13015" lon="2.29476">
        <ele>486.6</ele>
        <time>2016-05-04T14:30:15Z</time>
      </trkpt>
      <trkpt lat="44.1302" lon="2.29483">
        <ele>485.8</ele>
        <time>2016-05-04T14:30:21Z</time>
      </trkpt>
      <trkpt lat="44.13021" lon="2.29484">
        <ele>486.5</ele>
        <time>2016-05-04T14:30:22Z</time>
      </trkpt>
      <trkpt lat="44.13032" lon="2.29494">
        <ele>488.7</ele>
        <time>2016-05-04T14:30:35Z</time>
      </trkpt>
      <trkpt lat="44.13033" lon="2.29494">
        <ele>488.7</ele>
        <time>2016-05-04T14:30:36Z</time>
      </trkpt>
      <trkpt lat="44.13035" lon="2.29496">
        <ele>488.7</ele>
        <time>2016-05-04T14:30:40Z</time>
      </trkpt>
      <trkpt lat="44.13035" lon="2.29496">
        <ele>488.5</ele>
        <time>2016-05-04T14:30:41Z</time>
      </trkpt>
      <trkpt lat="44.13037" lon="2.29496">
        <ele>489</ele>
        <time>2016-05-04T14:30:43Z</time>
      </trkpt>
      <trkpt lat="44.13037" lon="2.29496">
        <ele>489.5</ele>
        <time>2016-05-04T14:30:44Z</time>
      </trkpt>
      <trkpt lat="44.13037" lon="2.29496">
        <ele>489.9</ele>
        <time>2016-05-04T14:30:45Z</time>
      </trkpt>
      <trkpt lat="44.13037" lon="2.29496">
        <ele>489.8</ele>
        <time>2016-05-04T14:30:46Z</time>
      </trkpt>
      <trkpt lat="44.13037" lon="2.29496">
        <ele>489.7</ele>
        <time>2016-05-04T14:30:47Z</time>
      </trkpt>
      <trkpt lat="44.13037" lon="2.29497">
        <ele>489.6</ele>
        <time>2016-05-04T14:30:48Z</time>
      </trkpt>
      <trkpt lat="44.13037" lon="2.29497">
        <ele>489.4</ele>
        <time>2016-05-04T14:30:49Z</time>
      </trkpt>
      <trkpt lat="44.13037" lon="2.29497">
        <ele>489.2</ele>
        <time>2016-05-04T14:30:50Z</time>
      </trkpt>
      <trkpt lat="44.13037" lon="2.29497">
        <ele>489</ele>
        <time>2016-05-04T14:30:51Z</time>
      </trkpt>
      <trkpt lat="44.13037" lon="2.29497">
        <ele>488.5</ele>
        <time>2016-05-04T14:30:52Z</time>
      </trkpt>
      <trkpt lat="44.13038" lon="2.29497">
        <ele>488</ele>
        <time>2016-05-04T14:30:53Z</time>
      </trkpt>
      <trkpt lat="44.13038" lon="2.29498">
        <ele>487.7</ele>
        <time>2016-05-04T14:30:54Z</time>
      </trkpt>
      <trkpt lat="44.13038" lon="2.29498">
        <ele>487.9</ele>
        <time>2016-05-04T14:30:55Z</time>
      </trkpt>
      <trkpt lat="44.13038" lon="2.29498">
        <ele>488.1</ele>
        <time>2016-05-04T14:30:56Z</time>
      </trkpt>
      <trkpt lat="44.13038" lon="2.29498">
        <ele>488.2</ele>
        <time>2016-05-04T14:30:57Z</time>
      </trkpt>
      <trkpt lat="44.13039" lon="2.29499">
        <ele>488.3</ele>
        <time>2016-05-04T14:30:58Z</time>
      </trkpt>
      <trkpt lat="44.13039" lon="2.29499">
        <ele>488.4</ele>
        <time>2016-05-04T14:30:59Z</time>
      </trkpt>
      <trkpt lat="44.13039" lon="2.29499">
        <ele>488.4</ele>
        <time>2016-05-04T14:31:00Z</time>
      </trkpt>
      <trkpt lat="44.13039" lon="2.29499">
        <ele>488</ele>
        <time>2016-05-04T14:31:01Z</time>
      </trkpt>
      <trkpt lat="44.13039" lon="2.29499">
        <ele>487.7</ele>
        <time>2016-05-04T14:31:02Z</time>
      </trkpt>
      <trkpt lat="44.13039" lon="2.29499">
        <ele>487.5</ele>
        <time>2016-05-04T14:31:03Z</time>
      </trkpt>
      <trkpt lat="44.13039" lon="2.29499">
        <ele>487.3</ele>
        <time>2016-05-04T14:31:04Z</time>
      </trkpt>
      <trkpt lat="44.13039" lon="2.29499">
        <ele>487.2</ele>
        <time>2016-05-04T14:31:05Z</time>
      </trkpt>
      <trkpt lat="44.1304" lon="2.29499">
        <ele>487.1</ele>
        <time>2016-05-04T14:31:06Z</time>
      </trkpt>
      <trkpt lat="44.1304" lon="2.29499">
        <ele>487.2</ele>
        <time>2016-05-04T14:31:07Z</time>
      </trkpt>
      <trkpt lat="44.1304" lon="2.29499">
        <ele>487.3</ele>
        <time>2016-05-04T14:31:08Z</time>
      </trkpt>
      <trkpt lat="44.1304" lon="2.29499">
        <ele>487.4</ele>
        <time>2016-05-04T14:31:09Z</time>
      </trkpt>
      <trkpt lat="44.1304" lon="2.29499">
        <ele>487.5</ele>
        <time>2016-05-04T14:31:10Z</time>
      </trkpt>
      <trkpt lat="44.1304" lon="2.29499">
        <ele>487.5</ele>
        <time>2016-05-04T14:31:11Z</time>
      </trkpt>
      <trkpt lat="44.1304" lon="2.29499">
        <ele>487.6</ele>
        <time>2016-05-04T14:31:12Z</time>
      </trkpt>
      <trkpt lat="44.1304" lon="2.29499">
        <ele>487.2</ele>
        <time>2016-05-04T14:31:13Z</time>
      </trkpt>
      <trkpt lat="44.13038" lon="2.29501">
        <ele>487.3</ele>
        <time>2016-05-04T14:31:41Z</time>
      </trkpt>
      <trkpt lat="44.13038" lon="2.29501">
        <ele>487.4</ele>
        <time>2016-05-04T14:31:42Z</time>
      </trkpt>
      <trkpt lat="44.13038" lon="2.29501">
        <ele>487</ele>
        <time>2016-05-04T14:31:43Z</time>
      </trkpt>
      <trkpt lat="44.13038" lon="2.29501">
        <ele>486.8</ele>
        <time>2016-05-04T14:31:44Z</time>
      </trkpt>
      <trkpt lat="44.13039" lon="2.29501">
        <ele>486.6</ele>
        <time>2016-05-04T14:31:45Z</time>
      </trkpt>
      <trkpt lat="44.13039" lon="2.29501">
        <ele>486.6</ele>
        <time>2016-05-04T14:31:46Z</time>
      </trkpt>
      <trkpt lat="44.13039" lon="2.29501">
        <ele>486.7</ele>
        <time>2016-05-04T14:31:47Z</time>
      </trkpt>
      <trkpt lat="44.13039" lon="2.29501">
        <ele>486.7</ele>
        <time>2016-05-04T14:31:48Z</time>
      </trkpt>
      <trkpt lat="44.13039" lon="2.29501">
        <ele>487.2</ele>
        <time>2016-05-04T14:31:49Z</time>
      </trkpt>
      <trkpt lat="44.13039" lon="2.29501">
        <ele>487.5</ele>
        <time>2016-05-04T14:31:50Z</time>
      </trkpt>
      <trkpt lat="44.13039" lon="2.29501">
        <ele>487.8</ele>
        <time>2016-05-04T14:31:51Z</time>
      </trkpt>
      <trkpt lat="44.13039" lon="2.29501">
        <ele>487.5</ele>
        <time>2016-05-04T14:31:52Z</time>
      </trkpt>
      <trkpt lat="44.13039" lon="2.29501">
        <ele>487.4</ele>
        <time>2016-05-04T14:31:53Z</time>
      </trkpt>
      <trkpt lat="44.13047" lon="2.29504">
        <ele>462.7</ele>
        <time>2016-05-04T14:33:29Z</time>
      </trkpt>
      <trkpt lat="44.13047" lon="2.29504">
        <ele>462.8</ele>
        <time>2016-05-04T14:33:30Z</time>
      </trkpt>
      <trkpt lat="44.13047" lon="2.29504">
        <ele>463</ele>
        <time>2016-05-04T14:33:31Z</time>
      </trkpt>
      <trkpt lat="44.13046" lon="2.29503">
        <ele>463.1</ele>
        <time>2016-05-04T14:33:32Z</time>
      </trkpt>
      <trkpt lat="44.13046" lon="2.29503">
        <ele>463.3</ele>
        <time>2016-05-04T14:33:33Z</time>
      </trkpt>
      <trkpt lat="44.13045" lon="2.29503">
        <ele>463.4</ele>
        <time>2016-05-04T14:33:34Z</time>
      </trkpt>
      <trkpt lat="44.13045" lon="2.29503">
        <ele>463.4</ele>
        <time>2016-05-04T14:33:35Z</time>
      </trkpt>
      <trkpt lat="44.13044" lon="2.29503">
        <ele>463.5</ele>
        <time>2016-05-04T14:33:36Z</time>
      </trkpt>
      <trkpt lat="44.13044" lon="2.29503">
        <ele>463.3</ele>
        <time>2016-05-04T14:33:37Z</time>
      </trkpt>
      <trkpt lat="44.13043" lon="2.29502">
        <ele>463.2</ele>
        <time>2016-05-04T14:33:38Z</time>
      </trkpt>
      <trkpt lat="44.13043" lon="2.29502">
        <ele>463.1</ele>
        <time>2016-05-04T14:33:39Z</time>
      </trkpt>
      <trkpt lat="44.13043" lon="2.29502">
        <ele>463</ele>
        <time>2016-05-04T14:33:40Z</time>
      </trkpt>
      <trkpt lat="44.13043" lon="2.29502">
        <ele>462.9</ele>
        <time>2016-05-04T14:33:41Z</time>
      </trkpt>
      <trkpt lat="44.13043" lon="2.29502">
        <ele>462.9</ele>
        <time>2016-05-04T14:33:42Z</time>
      </trkpt>
      <trkpt lat="44.13042" lon="2.29502">
        <ele>463.1</ele>
        <time>2016-05-04T14:33:43Z</time>
      </trkpt>
      <trkpt lat="44.13042" lon="2.29502">
        <ele>463.2</ele>
        <time>2016-05-04T14:33:44Z</time>
      </trkpt>
      <trkpt lat="44.13042" lon="2.29501">
        <ele>463.3</ele>
        <time>2016-05-04T14:33:45Z</time>
      </trkpt>
      <trkpt lat="44.13042" lon="2.29501">
        <ele>463.8</ele>
        <time>2016-05-04T14:33:46Z</time>
      </trkpt>
      <trkpt lat="44.13041" lon="2.29501">
        <ele>464.2</ele>
        <time>2016-05-04T14:33:47Z</time>
      </trkpt>
      <trkpt lat="44.13041" lon="2.29501">
        <ele>464.5</ele>
        <time>2016-05-04T14:33:48Z</time>
      </trkpt>
      <trkpt lat="44.13041" lon="2.295">
        <ele>462.3</ele>
        <time>2016-05-04T14:33:49Z</time>
      </trkpt>
      <trkpt lat="44.13041" lon="2.295">
        <ele>460.7</ele>
        <time>2016-05-04T14:33:50Z</time>
      </trkpt>
      <trkpt lat="44.1304" lon="2.295">
        <ele>459.5</ele>
        <time>2016-05-04T14:33:51Z</time>
      </trkpt>
      <trkpt lat="44.1304" lon="2.295">
        <ele>458.4</ele>
        <time>2016-05-04T14:33:52Z</time>
      </trkpt>
      <trkpt lat="44.1304" lon="2.295">
        <ele>457.5</ele>
        <time>2016-05-04T14:33:53Z</time>
      </trkpt>
      <trkpt lat="44.1304" lon="2.29499">
        <ele>456.9</ele>
        <time>2016-05-04T14:33:54Z</time>
      </trkpt>
      <trkpt lat="44.1304" lon="2.29499">
        <ele>458.8</ele>
        <time>2016-05-04T14:33:55Z</time>
      </trkpt>
      <trkpt lat="44.1304" lon="2.29499">
        <ele>460.2</ele>
        <time>2016-05-04T14:33:56Z</time>
      </trkpt>
      <trkpt lat="44.1304" lon="2.29499">
        <ele>461.3</ele>
        <time>2016-05-04T14:33:57Z</time>
      </trkpt>
      <trkpt lat="44.1304" lon="2.29498">
        <ele>461.7</ele>
        <time>2016-05-04T14:33:58Z</time>
      </trkpt>
      <trkpt lat="44.1304" lon="2.29498">
        <ele>461.9</ele>
        <time>2016-05-04T14:33:59Z</time>
      </trkpt>
      <trkpt lat="44.1304" lon="2.29498">
        <ele>462.1</ele>
        <time>2016-05-04T14:34:00Z</time>
      </trkpt>
      <trkpt lat="44.1304" lon="2.29498">
        <ele>462.7</ele>
        <time>2016-05-04T14:34:01Z</time>
      </trkpt>
      <trkpt lat="44.1304" lon="2.29498">
        <ele>463.2</ele>
        <time>2016-05-04T14:34:02Z</time>
      </trkpt>
      <trkpt lat="44.1304" lon="2.29498">
        <ele>463.5</ele>
        <time>2016-05-04T14:34:03Z</time>
      </trkpt>
      <trkpt lat="44.1304" lon="2.29498">
        <ele>463.8</ele>
        <time>2016-05-04T14:34:04Z</time>
      </trkpt>
      <trkpt lat="44.13041" lon="2.29498">
        <ele>463.9</ele>
        <time>2016-05-04T14:34:05Z</time>
      </trkpt>
      <trkpt lat="44.13041" lon="2.29498">
        <ele>464.1</ele>
        <time>2016-05-04T14:34:06Z</time>
      </trkpt>
      <trkpt lat="44.13041" lon="2.29498">
        <ele>464</ele>
        <time>2016-05-04T14:34:07Z</time>
      </trkpt>
      <trkpt lat="44.13041" lon="2.29498">
        <ele>463.9</ele>
        <time>2016-05-04T14:34:08Z</time>
      </trkpt>
      <trkpt lat="44.13041" lon="2.29497">
        <ele>463.8</ele>
        <time>2016-05-04T14:34:09Z</time>
      </trkpt>
      <trkpt lat="44.13041" lon="2.29497">
        <ele>464</ele>
        <time>2016-05-04T14:34:10Z</time>
      </trkpt>
      <trkpt lat="44.13041" lon="2.29497">
        <ele>464.1</ele>
        <time>2016-05-04T14:34:11Z</time>
      </trkpt>
      <trkpt lat="44.13041" lon="2.29498">
        <ele>464.2</ele>
        <time>2016-05-04T14:34:12Z</time>
      </trkpt>
      <trkpt lat="44.13041" lon="2.29498">
        <ele>463.4</ele>
        <time>2016-05-04T14:34:13Z</time>
      </trkpt>
      <trkpt lat="44.13041" lon="2.29498">
        <ele>462.8</ele>
        <time>2016-05-04T14:34:14Z</time>
      </trkpt>
      <trkpt lat="44.13041" lon="2.29498">
        <ele>462.4</ele>
        <time>2016-05-04T14:34:15Z</time>
      </trkpt>
      <trkpt lat="44.13041" lon="2.29498">
        <ele>462.7</ele>
        <time>2016-05-04T14:34:16Z</time>
      </trkpt>
      <trkpt lat="44.13041" lon="2.29498">
        <ele>462.9</ele>
        <time>2016-05-04T14:34:17Z</time>
      </trkpt>
      <trkpt lat="44.13041" lon="2.29498">
        <ele>463.1</ele>
        <time>2016-05-04T14:34:18Z</time>
      </trkpt>
      <trkpt lat="44.13041" lon="2.29498">
        <ele>463.2</ele>
        <time>2016-05-04T14:34:19Z</time>
      </trkpt>
      <trkpt lat="44.13041" lon="2.29498">
        <ele>463.3</ele>
        <time>2016-05-04T14:34:20Z</time>
      </trkpt>
      <trkpt lat="44.13041" lon="2.29498">
        <ele>463.4</ele>
        <time>2016-05-04T14:34:21Z</time>
      </trkpt>
      <trkpt lat="44.13041" lon="2.29498">
        <ele>463.5</ele>
        <time>2016-05-04T14:34:22Z</time>
      </trkpt>
      <trkpt lat="44.13041" lon="2.29498">
        <ele>463.5</ele>
        <time>2016-05-04T14:34:23Z</time>
      </trkpt>
      <trkpt lat="44.13041" lon="2.29498">
        <ele>463.5</ele>
        <time>2016-05-04T14:34:24Z</time>
      </trkpt>
      <trkpt lat="44.13041" lon="2.29498">
        <ele>463.6</ele>
        <time>2016-05-04T14:34:25Z</time>
      </trkpt>
      <trkpt lat="44.13041" lon="2.29498">
        <ele>463.6</ele>
        <time>2016-05-04T14:34:26Z</time>
      </trkpt>
      <trkpt lat="44.13042" lon="2.29498">
        <ele>463.6</ele>
        <time>2016-05-04T14:34:27Z</time>
      </trkpt>
      <trkpt lat="44.13042" lon="2.29498">
        <ele>463.6</ele>
        <time>2016-05-04T14:34:28Z</time>
      </trkpt>
      <trkpt lat="44.13042" lon="2.29498">
        <ele>463.6</ele>
        <time>2016-05-04T14:34:29Z</time>
      </trkpt>
      <trkpt lat="44.13042" lon="2.29498">
        <ele>463.6</ele>
        <time>2016-05-04T14:34:30Z</time>
      </trkpt>
      <trkpt lat="44.13042" lon="2.29498">
        <ele>463.4</ele>
        <time>2016-05-04T14:34:31Z</time>
      </trkpt>
      <trkpt lat="44.13042" lon="2.29498">
        <ele>463.2</ele>
        <time>2016-05-04T14:34:32Z</time>
      </trkpt>
      <trkpt lat="44.13042" lon="2.29498">
        <ele>463.1</ele>
        <time>2016-05-04T14:34:33Z</time>
      </trkpt>
      <trkpt lat="44.13042" lon="2.29498">
        <ele>463.5</ele>
        <time>2016-05-04T14:34:34Z</time>
      </trkpt>
      <trkpt lat="44.13042" lon="2.29498">
        <ele>463.7</ele>
        <time>2016-05-04T14:34:35Z</time>
      </trkpt>
      <trkpt lat="44.13042" lon="2.29498">
        <ele>463.9</ele>
        <time>2016-05-04T14:34:36Z</time>
      </trkpt>
      <trkpt lat="44.13042" lon="2.29498">
        <ele>463.8</ele>
        <time>2016-05-04T14:34:37Z</time>
      </trkpt>
      <trkpt lat="44.13042" lon="2.29498">
        <ele>463.8</ele>
        <time>2016-05-04T14:34:38Z</time>
      </trkpt>
      <trkpt lat="44.13042" lon="2.29498">
        <ele>463.8</ele>
        <time>2016-05-04T14:34:39Z</time>
      </trkpt>
      <trkpt lat="44.13042" lon="2.29498">
        <ele>463.7</ele>
        <time>2016-05-04T14:34:40Z</time>
      </trkpt>
      <trkpt lat="44.13042" lon="2.29498">
        <ele>463.7</ele>
        <time>2016-05-04T14:34:41Z</time>
      </trkpt>
      <trkpt lat="44.13042" lon="2.29498">
        <ele>463.7</ele>
        <time>2016-05-04T14:34:42Z</time>
      </trkpt>
      <trkpt lat="44.13042" lon="2.29498">
        <ele>463</ele>
        <time>2016-05-04T14:34:43Z</time>
      </trkpt>
      <trkpt lat="44.13042" lon="2.29498">
        <ele>462.5</ele>
        <time>2016-05-04T14:34:44Z</time>
      </trkpt>
      <trkpt lat="44.13042" lon="2.29498">
        <ele>462.2</ele>
        <time>2016-05-04T14:34:45Z</time>
      </trkpt>
      <trkpt lat="44.13042" lon="2.29498">
        <ele>461.7</ele>
        <time>2016-05-04T14:34:46Z</time>
      </trkpt>
      <trkpt lat="44.13042" lon="2.29498">
        <ele>461.3</ele>
        <time>2016-05-04T14:34:47Z</time>
      </trkpt>
      <trkpt lat="44.13042" lon="2.29498">
        <ele>461</ele>
        <time>2016-05-04T14:34:48Z</time>
      </trkpt>
      <trkpt lat="44.13042" lon="2.29498">
        <ele>461.4</ele>
        <time>2016-05-04T14:34:49Z</time>
      </trkpt>
      <trkpt lat="44.13041" lon="2.29498">
        <ele>461.8</ele>
        <time>2016-05-04T14:34:50Z</time>
      </trkpt>
      <trkpt lat="44.13041" lon="2.29498">
        <ele>462</ele>
        <time>2016-05-04T14:34:51Z</time>
      </trkpt>
      <trkpt lat="44.13041" lon="2.29498">
        <ele>462.2</ele>
        <time>2016-05-04T14:34:52Z</time>
      </trkpt>
      <trkpt lat="44.13041" lon="2.29498">
        <ele>462.3</ele>
        <time>2016-05-04T14:34:53Z</time>
      </trkpt>
      <trkpt lat="44.13041" lon="2.29498">
        <ele>462.5</ele>
        <time>2016-05-04T14:34:54Z</time>
      </trkpt>
      <trkpt lat="44.13041" lon="2.29498">
        <ele>462.5</ele>
        <time>2016-05-04T14:34:55Z</time>
      </trkpt>
      <trkpt lat="44.13041" lon="2.29498">
        <ele>462.6</ele>
        <time>2016-05-04T14:34:56Z</time>
      </trkpt>
      <trkpt lat="44.13041" lon="2.29498">
        <ele>462.6</ele>
        <time>2016-05-04T14:34:57Z</time>
      </trkpt>
      <trkpt lat="44.1304" lon="2.29498">
        <ele>462.7</ele>
        <time>2016-05-04T14:34:58Z</time>
      </trkpt>
      <trkpt lat="44.1304" lon="2.29498">
        <ele>462.7</ele>
        <time>2016-05-04T14:34:59Z</time>
      </trkpt>
      <trkpt lat="44.1304" lon="2.29498">
        <ele>462.7</ele>
        <time>2016-05-04T14:35:00Z</time>
      </trkpt>
      <trkpt lat="44.1304" lon="2.29498">
        <ele>463.6</ele>
        <time>2016-05-04T14:35:01Z</time>
      </trkpt>
      <trkpt lat="44.1304" lon="2.29498">
        <ele>464.2</ele>
        <time>2016-05-04T14:35:02Z</time>
      </trkpt>
      <trkpt lat="44.1304" lon="2.29498">
        <ele>464.7</ele>
        <time>2016-05-04T14:35:03Z</time>
      </trkpt>
      <trkpt lat="44.1304" lon="2.29498">
        <ele>465.1</ele>
        <time>2016-05-04T14:35:04Z</time>
      </trkpt>
      <trkpt lat="44.1304" lon="2.29498">
        <ele>465.4</ele>
        <time>2016-05-04T14:35:05Z</time>
      </trkpt>
      <trkpt lat="44.1304" lon="2.29498">
        <ele>465.6</ele>
        <time>2016-05-04T14:35:06Z</time>
      </trkpt>
      <trkpt lat="44.1304" lon="2.29499">
        <ele>465.5</ele>
        <time>2016-05-04T14:35:07Z</time>
      </trkpt>
      <trkpt lat="44.1304" lon="2.29499">
        <ele>465.5</ele>
        <time>2016-05-04T14:35:08Z</time>
      </trkpt>
      <trkpt lat="44.1304" lon="2.29499">
        <ele>465.5</ele>
        <time>2016-05-04T14:35:09Z</time>
      </trkpt>
      <trkpt lat="44.1304" lon="2.29499">
        <ele>464.1</ele>
        <time>2016-05-04T14:35:10Z</time>
      </trkpt>
      <trkpt lat="44.1304" lon="2.29499">
        <ele>463.1</ele>
        <time>2016-05-04T14:35:11Z</time>
      </trkpt>
      <trkpt lat="44.13039" lon="2.29499">
        <ele>462.4</ele>
        <time>2016-05-04T14:35:12Z</time>
      </trkpt>
      <trkpt lat="44.13039" lon="2.29499">
        <ele>462.9</ele>
        <time>2016-05-04T14:35:13Z</time>
      </trkpt>
      <trkpt lat="44.13039" lon="2.29499">
        <ele>463.3</ele>
        <time>2016-05-04T14:35:14Z</time>
      </trkpt>
      <trkpt lat="44.13039" lon="2.29499">
        <ele>463.6</ele>
        <time>2016-05-04T14:35:15Z</time>
      </trkpt>
      <trkpt lat="44.13039" lon="2.29499">
        <ele>463</ele>
        <time>2016-05-04T14:35:16Z</time>
      </trkpt>
      <trkpt lat="44.13039" lon="2.29499">
        <ele>462.5</ele>
        <time>2016-05-04T14:35:17Z</time>
      </trkpt>
      <trkpt lat="44.13039" lon="2.29499">
        <ele>462.1</ele>
        <time>2016-05-04T14:35:18Z</time>
      </trkpt>
      <trkpt lat="44.13039" lon="2.29499">
        <ele>462.9</ele>
        <time>2016-05-04T14:35:19Z</time>
      </trkpt>
      <trkpt lat="44.13039" lon="2.29499">
        <ele>463.5</ele>
        <time>2016-05-04T14:35:20Z</time>
      </trkpt>
      <trkpt lat="44.13038" lon="2.29499">
        <ele>464</ele>
        <time>2016-05-04T14:35:21Z</time>
      </trkpt>
      <trkpt lat="44.13038" lon="2.29499">
        <ele>464.1</ele>
        <time>2016-05-04T14:35:22Z</time>
      </trkpt>
      <trkpt lat="44.13037" lon="2.29498">
        <ele>464.3</ele>
        <time>2016-05-04T14:35:25Z</time>
      </trkpt>
      <trkpt lat="44.13037" lon="2.29498">
        <ele>464.4</ele>
        <time>2016-05-04T14:35:26Z</time>
      </trkpt>
      <trkpt lat="44.13037" lon="2.29498">
        <ele>464.4</ele>
        <time>2016-05-04T14:35:27Z</time>
      </trkpt>
      <trkpt lat="44.13037" lon="2.29498">
        <ele>464.2</ele>
        <time>2016-05-04T14:35:28Z</time>
      </trkpt>
      <trkpt lat="44.13037" lon="2.29498">
        <ele>464.1</ele>
        <time>2016-05-04T14:35:29Z</time>
      </trkpt>
      <trkpt lat="44.13037" lon="2.29498">
        <ele>464</ele>
        <time>2016-05-04T14:35:30Z</time>
      </trkpt>
      <trkpt lat="44.13037" lon="2.29498">
        <ele>463.9</ele>
        <time>2016-05-04T14:35:31Z</time>
      </trkpt>
      <trkpt lat="44.13037" lon="2.29498">
        <ele>463.8</ele>
        <time>2016-05-04T14:35:32Z</time>
      </trkpt>
      <trkpt lat="44.13037" lon="2.29498">
        <ele>463.8</ele>
        <time>2016-05-04T14:35:33Z</time>
      </trkpt>
      <trkpt lat="44.13037" lon="2.29498">
        <ele>463.1</ele>
        <time>2016-05-04T14:35:34Z</time>
      </trkpt>
      <trkpt lat="44.13037" lon="2.29498">
        <ele>462.6</ele>
        <time>2016-05-04T14:35:35Z</time>
      </trkpt>
      <trkpt lat="44.13037" lon="2.29498">
        <ele>462.2</ele>
        <time>2016-05-04T14:35:36Z</time>
      </trkpt>
      <trkpt lat="44.13037" lon="2.29498">
        <ele>462.1</ele>
        <time>2016-05-04T14:35:37Z</time>
      </trkpt>
      <trkpt lat="44.13037" lon="2.29498">
        <ele>462.1</ele>
        <time>2016-05-04T14:35:38Z</time>
      </trkpt>
      <trkpt lat="44.13037" lon="2.29497">
        <ele>462</ele>
        <time>2016-05-04T14:35:39Z</time>
      </trkpt>
      <trkpt lat="44.13038" lon="2.29497">
        <ele>462.6</ele>
        <time>2016-05-04T14:35:40Z</time>
      </trkpt>
      <trkpt lat="44.13038" lon="2.29497">
        <ele>463.1</ele>
        <time>2016-05-04T14:35:41Z</time>
      </trkpt>
      <trkpt lat="44.13038" lon="2.29497">
        <ele>463.5</ele>
        <time>2016-05-04T14:35:42Z</time>
      </trkpt>
      <trkpt lat="44.13038" lon="2.29497">
        <ele>463.5</ele>
        <time>2016-05-04T14:35:43Z</time>
      </trkpt>
      <trkpt lat="44.13038" lon="2.29497">
        <ele>463.5</ele>
        <time>2016-05-04T14:35:44Z</time>
      </trkpt>
      <trkpt lat="44.13038" lon="2.29497">
        <ele>463.6</ele>
        <time>2016-05-04T14:35:45Z</time>
      </trkpt>
      <trkpt lat="44.13038" lon="2.29497">
        <ele>463.4</ele>
        <time>2016-05-04T14:35:46Z</time>
      </trkpt>
      <trkpt lat="44.13038" lon="2.29497">
        <ele>463.2</ele>
        <time>2016-05-04T14:35:47Z</time>
      </trkpt>
      <trkpt lat="44.13038" lon="2.29497">
        <ele>463.1</ele>
        <time>2016-05-04T14:35:48Z</time>
      </trkpt>
      <trkpt lat="44.13038" lon="2.29497">
        <ele>462.8</ele>
        <time>2016-05-04T14:35:49Z</time>
      </trkpt>
      <trkpt lat="44.13038" lon="2.29497">
        <ele>462.6</ele>
        <time>2016-05-04T14:35:50Z</time>
      </trkpt>
      <trkpt lat="44.13038" lon="2.29497">
        <ele>462.4</ele>
        <time>2016-05-04T14:35:51Z</time>
      </trkpt>
      <trkpt lat="44.13038" lon="2.29497">
        <ele>462.7</ele>
        <time>2016-05-04T14:35:52Z</time>
      </trkpt>
      <trkpt lat="44.13038" lon="2.29497">
        <ele>462.9</ele>
        <time>2016-05-04T14:35:53Z</time>
      </trkpt>
      <trkpt lat="44.13038" lon="2.29497">
        <ele>463.1</ele>
        <time>2016-05-04T14:35:54Z</time>
      </trkpt>
      <trkpt lat="44.13038" lon="2.29497">
        <ele>463</ele>
        <time>2016-05-04T14:35:55Z</time>
      </trkpt>
      <trkpt lat="44.13038" lon="2.29496">
        <ele>463</ele>
        <time>2016-05-04T14:35:56Z</time>
      </trkpt>
      <trkpt lat="44.13038" lon="2.29496">
        <ele>462.9</ele>
        <time>2016-05-04T14:35:57Z</time>
      </trkpt>
      <trkpt lat="44.13038" lon="2.29496">
        <ele>462.2</ele>
        <time>2016-05-04T14:35:58Z</time>
      </trkpt>
      <trkpt lat="44.13038" lon="2.29496">
        <ele>461.7</ele>
        <time>2016-05-04T14:35:59Z</time>
      </trkpt>
      <trkpt lat="44.13038" lon="2.29496">
        <ele>461.3</ele>
        <time>2016-05-04T14:36:00Z</time>
      </trkpt>
      <trkpt lat="44.13038" lon="2.29496">
        <ele>461.3</ele>
        <time>2016-05-04T14:36:01Z</time>
      </trkpt>
      <trkpt lat="44.13038" lon="2.29496">
        <ele>461.2</ele>
        <time>2016-05-04T14:36:02Z</time>
      </trkpt>
      <trkpt lat="44.13039" lon="2.29496">
        <ele>461.2</ele>
        <time>2016-05-04T14:36:03Z</time>
      </trkpt>
      <trkpt lat="44.13039" lon="2.29496">
        <ele>461.3</ele>
        <time>2016-05-04T14:36:04Z</time>
      </trkpt>
      <trkpt lat="44.13039" lon="2.29496">
        <ele>461.5</ele>
        <time>2016-05-04T14:36:05Z</time>
      </trkpt>
      <trkpt lat="44.13039" lon="2.29495">
        <ele>461.6</ele>
        <time>2016-05-04T14:36:06Z</time>
      </trkpt>
      <trkpt lat="44.13039" lon="2.29495">
        <ele>461.7</ele>
        <time>2016-05-04T14:36:07Z</time>
      </trkpt>
      <trkpt lat="44.13039" lon="2.29495">
        <ele>461.7</ele>
        <time>2016-05-04T14:36:08Z</time>
      </trkpt>
      <trkpt lat="44.13039" lon="2.29495">
        <ele>461.8</ele>
        <time>2016-05-04T14:36:09Z</time>
      </trkpt>
      <trkpt lat="44.13039" lon="2.29495">
        <ele>461.6</ele>
        <time>2016-05-04T14:36:10Z</time>
      </trkpt>
      <trkpt lat="44.13039" lon="2.29495">
        <ele>461.4</ele>
        <time>2016-05-04T14:36:11Z</time>
      </trkpt>
      <trkpt lat="44.13039" lon="2.29495">
        <ele>461.3</ele>
        <time>2016-05-04T14:36:12Z</time>
      </trkpt>
      <trkpt lat="44.13039" lon="2.29495">
        <ele>461.7</ele>
        <time>2016-05-04T14:36:13Z</time>
      </trkpt>
      <trkpt lat="44.13039" lon="2.29495">
        <ele>462</ele>
        <time>2016-05-04T14:36:14Z</time>
      </trkpt>
      <trkpt lat="44.13039" lon="2.29495">
        <ele>462.2</ele>
        <time>2016-05-04T14:36:15Z</time>
      </trkpt>
      <trkpt lat="44.13039" lon="2.29495">
        <ele>462.5</ele>
        <time>2016-05-04T14:36:16Z</time>
      </trkpt>
      <trkpt lat="44.13039" lon="2.29495">
        <ele>462.8</ele>
        <time>2016-05-04T14:36:17Z</time>
      </trkpt>
      <trkpt lat="44.13039" lon="2.29495">
        <ele>463</ele>
        <time>2016-05-04T14:36:18Z</time>
      </trkpt>
      <trkpt lat="44.13038" lon="2.29495">
        <ele>463</ele>
        <time>2016-05-04T14:36:19Z</time>
      </trkpt>
      <trkpt lat="44.13038" lon="2.29495">
        <ele>462.9</ele>
        <time>2016-05-04T14:36:20Z</time>
      </trkpt>
      <trkpt lat="44.13038" lon="2.29495">
        <ele>462.9</ele>
        <time>2016-05-04T14:36:21Z</time>
      </trkpt>
      <trkpt lat="44.13038" lon="2.29495">
        <ele>463.5</ele>
        <time>2016-05-04T14:36:22Z</time>
      </trkpt>
      <trkpt lat="44.13038" lon="2.29495">
        <ele>464</ele>
        <time>2016-05-04T14:36:23Z</time>
      </trkpt>
      <trkpt lat="44.13038" lon="2.29495">
        <ele>464.3</ele>
        <time>2016-05-04T14:36:24Z</time>
      </trkpt>
      <trkpt lat="44.13038" lon="2.29495">
        <ele>465</ele>
        <time>2016-05-04T14:36:25Z</time>
      </trkpt>
      <trkpt lat="44.13038" lon="2.29495">
        <ele>465.5</ele>
        <time>2016-05-04T14:36:26Z</time>
      </trkpt>
      <trkpt lat="44.13038" lon="2.29495">
        <ele>465.9</ele>
        <time>2016-05-04T14:36:27Z</time>
      </trkpt>
      <trkpt lat="44.13037" lon="2.29494">
        <ele>465.8</ele>
        <time>2016-05-04T14:36:28Z</time>
      </trkpt>
      <trkpt lat="44.13036" lon="2.29493">
        <ele>465.7</ele>
        <time>2016-05-04T14:36:29Z</time>
      </trkpt>
      <trkpt lat="44.13036" lon="2.29492">
        <ele>465.6</ele>
        <time>2016-05-04T14:36:30Z</time>
      </trkpt>
      <trkpt lat="44.13035" lon="2.2949">
        <ele>465.3</ele>
        <time>2016-05-04T14:36:31Z</time>
      </trkpt>
      <trkpt lat="44.13035" lon="2.29489">
        <ele>465.1</ele>
        <time>2016-05-04T14:36:32Z</time>
      </trkpt>
      <trkpt lat="44.13035" lon="2.29487">
        <ele>465</ele>
        <time>2016-05-04T14:36:33Z</time>
      </trkpt>
      <trkpt lat="44.13035" lon="2.29486">
        <ele>464.8</ele>
        <time>2016-05-04T14:36:34Z</time>
      </trkpt>
      <trkpt lat="44.13038" lon="2.29478">
        <ele>463.6</ele>
        <time>2016-05-04T14:36:39Z</time>
      </trkpt>
      <trkpt lat="44.13054" lon="2.29444">
        <ele>462.5</ele>
        <time>2016-05-04T14:37:02Z</time>
      </trkpt>
      <trkpt lat="44.13055" lon="2.29443">
        <ele>462.3</ele>
        <time>2016-05-04T14:37:03Z</time>
      </trkpt>
      <trkpt lat="44.13058" lon="2.2944">
        <ele>462.1</ele>
        <time>2016-05-04T14:37:06Z</time>
      </trkpt>
      <trkpt lat="44.13066" lon="2.29435">
        <ele>461.3</ele>
        <time>2016-05-04T14:37:13Z</time>
      </trkpt>
      <trkpt lat="44.13077" lon="2.2943">
        <ele>460.9</ele>
        <time>2016-05-04T14:37:21Z</time>
      </trkpt>
      <trkpt lat="44.13111" lon="2.29417">
        <ele>457.5</ele>
        <time>2016-05-04T14:37:46Z</time>
      </trkpt>
      <trkpt lat="44.13112" lon="2.29417">
        <ele>457.3</ele>
        <time>2016-05-04T14:37:47Z</time>
      </trkpt>
      <trkpt lat="44.13121" lon="2.29417">
        <ele>456.5</ele>
        <time>2016-05-04T14:37:53Z</time>
      </trkpt>
      <trkpt lat="44.13122" lon="2.29417">
        <ele>456.6</ele>
        <time>2016-05-04T14:37:54Z</time>
      </trkpt>
      <trkpt lat="44.13135" lon="2.29422">
        <ele>455.5</ele>
        <time>2016-05-04T14:38:03Z</time>
      </trkpt>
      <trkpt lat="44.13201" lon="2.29446">
        <ele>450</ele>
        <time>2016-05-04T14:38:51Z</time>
      </trkpt>
      <trkpt lat="44.13202" lon="2.29446">
        <ele>450</ele>
        <time>2016-05-04T14:38:52Z</time>
      </trkpt>
      <trkpt lat="44.13226" lon="2.2945">
        <ele>447.3</ele>
        <time>2016-05-04T14:39:09Z</time>
      </trkpt>
      <trkpt lat="44.13244" lon="2.29451">
        <ele>445.9</ele>
        <time>2016-05-04T14:39:21Z</time>
      </trkpt>
      <trkpt lat="44.13245" lon="2.29451">
        <ele>445.8</ele>
        <time>2016-05-04T14:39:22Z</time>
      </trkpt>
      <trkpt lat="44.13263" lon="2.29449">
        <ele>443.7</ele>
        <time>2016-05-04T14:39:34Z</time>
      </trkpt>
      <trkpt lat="44.13266" lon="2.29449">
        <ele>443.3</ele>
        <time>2016-05-04T14:39:36Z</time>
      </trkpt>
      <trkpt lat="44.13271" lon="2.29447">
        <ele>442</ele>
        <time>2016-05-04T14:39:40Z</time>
      </trkpt>
      <trkpt lat="44.13274" lon="2.29445">
        <ele>441.3</ele>
        <time>2016-05-04T14:39:42Z</time>
      </trkpt>
      <trkpt lat="44.13279" lon="2.29442">
        <ele>441.1</ele>
        <time>2016-05-04T14:39:47Z</time>
      </trkpt>
      <trkpt lat="44.1328" lon="2.2944">
        <ele>440.9</ele>
        <time>2016-05-04T14:39:48Z</time>
      </trkpt>
      <trkpt lat="44.13298" lon="2.29414">
        <ele>437.1</ele>
        <time>2016-05-04T14:40:08Z</time>
      </trkpt>
      <trkpt lat="44.13299" lon="2.29412">
        <ele>436.9</ele>
        <time>2016-05-04T14:40:09Z</time>
      </trkpt>
      <trkpt lat="44.13308" lon="2.29389">
        <ele>435.6</ele>
        <time>2016-05-04T14:40:25Z</time>
      </trkpt>
      <trkpt lat="44.13309" lon="2.29387">
        <ele>435.7</ele>
        <time>2016-05-04T14:40:26Z</time>
      </trkpt>
      <trkpt lat="44.1331" lon="2.29385">
        <ele>435.7</ele>
        <time>2016-05-04T14:40:27Z</time>
      </trkpt>
      <trkpt lat="44.13311" lon="2.2938">
        <ele>435.5</ele>
        <time>2016-05-04T14:40:29Z</time>
      </trkpt>
      <trkpt lat="44.13312" lon="2.29375">
        <ele>435.5</ele>
        <time>2016-05-04T14:40:31Z</time>
      </trkpt>
      <trkpt lat="44.13312" lon="2.29373">
        <ele>435.6</ele>
        <time>2016-05-04T14:40:32Z</time>
      </trkpt>
      <trkpt lat="44.13313" lon="2.29371">
        <ele>435.7</ele>
        <time>2016-05-04T14:40:33Z</time>
      </trkpt>
      <trkpt lat="44.13313" lon="2.29369">
        <ele>435.6</ele>
        <time>2016-05-04T14:40:34Z</time>
      </trkpt>
      <trkpt lat="44.13313" lon="2.29368">
        <ele>435.5</ele>
        <time>2016-05-04T14:40:35Z</time>
      </trkpt>
      <trkpt lat="44.13314" lon="2.29359">
        <ele>435.2</ele>
        <time>2016-05-04T14:40:40Z</time>
      </trkpt>
      <trkpt lat="44.13314" lon="2.29357">
        <ele>435.2</ele>
        <time>2016-05-04T14:40:41Z</time>
      </trkpt>
      <trkpt lat="44.13315" lon="2.29355">
        <ele>435.2</ele>
        <time>2016-05-04T14:40:42Z</time>
      </trkpt>
      <trkpt lat="44.13315" lon="2.29352">
        <ele>435.4</ele>
        <time>2016-05-04T14:40:43Z</time>
      </trkpt>
      <trkpt lat="44.13316" lon="2.2935">
        <ele>435.5</ele>
        <time>2016-05-04T14:40:44Z</time>
      </trkpt>
      <trkpt lat="44.13317" lon="2.29348">
        <ele>435.6</ele>
        <time>2016-05-04T14:40:45Z</time>
      </trkpt>
      <trkpt lat="44.13317" lon="2.29345">
        <ele>435.3</ele>
        <time>2016-05-04T14:40:46Z</time>
      </trkpt>
      <trkpt lat="44.13318" lon="2.29343">
        <ele>435</ele>
        <time>2016-05-04T14:40:47Z</time>
      </trkpt>
      <trkpt lat="44.13318" lon="2.2934">
        <ele>434.8</ele>
        <time>2016-05-04T14:40:48Z</time>
      </trkpt>
      <trkpt lat="44.13318" lon="2.29338">
        <ele>434.9</ele>
        <time>2016-05-04T14:40:49Z</time>
      </trkpt>
      <trkpt lat="44.13319" lon="2.29335">
        <ele>435</ele>
        <time>2016-05-04T14:40:50Z</time>
      </trkpt>
      <trkpt lat="44.13319" lon="2.29332">
        <ele>435</ele>
        <time>2016-05-04T14:40:51Z</time>
      </trkpt>
      <trkpt lat="44.13319" lon="2.2933">
        <ele>435</ele>
        <time>2016-05-04T14:40:52Z</time>
      </trkpt>
      <trkpt lat="44.13321" lon="2.29303">
        <ele>435.6</ele>
        <time>2016-05-04T14:41:05Z</time>
      </trkpt>
      <trkpt lat="44.13322" lon="2.29301">
        <ele>435.7</ele>
        <time>2016-05-04T14:41:06Z</time>
      </trkpt>
      <trkpt lat="44.13327" lon="2.29285">
        <ele>435.9</ele>
        <time>2016-05-04T14:41:15Z</time>
      </trkpt>
      <trkpt lat="44.13328" lon="2.29283">
        <ele>435.9</ele>
        <time>2016-05-04T14:41:16Z</time>
      </trkpt>
      <trkpt lat="44.13344" lon="2.29253">
        <ele>436.8</ele>
        <time>2016-05-04T14:41:36Z</time>
      </trkpt>
      <trkpt lat="44.13344" lon="2.29252">
        <ele>436.8</ele>
        <time>2016-05-04T14:41:37Z</time>
      </trkpt>
      <trkpt lat="44.13344" lon="2.29252">
        <ele>436.8</ele>
        <time>2016-05-04T14:41:38Z</time>
      </trkpt>
      <trkpt lat="44.13344" lon="2.29252">
        <ele>436.8</ele>
        <time>2016-05-04T14:41:39Z</time>
      </trkpt>
      <trkpt lat="44.13344" lon="2.29252">
        <ele>436.8</ele>
        <time>2016-05-04T14:41:40Z</time>
      </trkpt>
      <trkpt lat="44.13345" lon="2.29252">
        <ele>436.8</ele>
        <time>2016-05-04T14:41:41Z</time>
      </trkpt>
      <trkpt lat="44.13345" lon="2.29252">
        <ele>436.8</ele>
        <time>2016-05-04T14:41:42Z</time>
      </trkpt>
      <trkpt lat="44.13345" lon="2.29252">
        <ele>436.6</ele>
        <time>2016-05-04T14:41:43Z</time>
      </trkpt>
      <trkpt lat="44.13345" lon="2.29252">
        <ele>436.5</ele>
        <time>2016-05-04T14:41:44Z</time>
      </trkpt>
      <trkpt lat="44.13345" lon="2.29252">
        <ele>436.2</ele>
        <time>2016-05-04T14:41:47Z</time>
      </trkpt>
      <trkpt lat="44.13345" lon="2.29252">
        <ele>436.1</ele>
        <time>2016-05-04T14:41:48Z</time>
      </trkpt>
      <trkpt lat="44.13345" lon="2.29252">
        <ele>435.9</ele>
        <time>2016-05-04T14:41:49Z</time>
      </trkpt>
      <trkpt lat="44.13345" lon="2.29252">
        <ele>435.7</ele>
        <time>2016-05-04T14:41:50Z</time>
      </trkpt>
      <trkpt lat="44.13345" lon="2.29252">
        <ele>435.5</ele>
        <time>2016-05-04T14:41:51Z</time>
      </trkpt>
      <trkpt lat="44.13345" lon="2.29252">
        <ele>435.7</ele>
        <time>2016-05-04T14:41:52Z</time>
      </trkpt>
      <trkpt lat="44.13345" lon="2.29252">
        <ele>435.7</ele>
        <time>2016-05-04T14:41:53Z</time>
      </trkpt>
      <trkpt lat="44.13345" lon="2.29252">
        <ele>435.8</ele>
        <time>2016-05-04T14:41:54Z</time>
      </trkpt>
      <trkpt lat="44.13345" lon="2.29252">
        <ele>436.1</ele>
        <time>2016-05-04T14:41:55Z</time>
      </trkpt>
      <trkpt lat="44.13345" lon="2.29252">
        <ele>436.3</ele>
        <time>2016-05-04T14:41:56Z</time>
      </trkpt>
      <trkpt lat="44.13346" lon="2.29252">
        <ele>436.4</ele>
        <time>2016-05-04T14:41:57Z</time>
      </trkpt>
      <trkpt lat="44.13346" lon="2.29251">
        <ele>436.7</ele>
        <time>2016-05-04T14:41:58Z</time>
      </trkpt>
      <trkpt lat="44.13346" lon="2.29251">
        <ele>437</ele>
        <time>2016-05-04T14:41:59Z</time>
      </trkpt>
      <trkpt lat="44.13346" lon="2.29251">
        <ele>437.2</ele>
        <time>2016-05-04T14:42:00Z</time>
      </trkpt>
      <trkpt lat="44.13346" lon="2.29251">
        <ele>437.1</ele>
        <time>2016-05-04T14:42:01Z</time>
      </trkpt>
      <trkpt lat="44.13346" lon="2.29251">
        <ele>437</ele>
        <time>2016-05-04T14:42:02Z</time>
      </trkpt>
      <trkpt lat="44.13346" lon="2.29251">
        <ele>437</ele>
        <time>2016-05-04T14:42:03Z</time>
      </trkpt>
      <trkpt lat="44.13346" lon="2.29251">
        <ele>437.2</ele>
        <time>2016-05-04T14:42:04Z</time>
      </trkpt>
      <trkpt lat="44.13346" lon="2.29251">
        <ele>437.3</ele>
        <time>2016-05-04T14:42:05Z</time>
      </trkpt>
      <trkpt lat="44.13346" lon="2.29251">
        <ele>437.4</ele>
        <time>2016-05-04T14:42:06Z</time>
      </trkpt>
      <trkpt lat="44.13346" lon="2.29251">
        <ele>437.5</ele>
        <time>2016-05-04T14:42:07Z</time>
      </trkpt>
      <trkpt lat="44.13346" lon="2.29251">
        <ele>437.5</ele>
        <time>2016-05-04T14:42:08Z</time>
      </trkpt>
      <trkpt lat="44.13346" lon="2.2925">
        <ele>437.6</ele>
        <time>2016-05-04T14:42:09Z</time>
      </trkpt>
      <trkpt lat="44.13346" lon="2.2925">
        <ele>437.2</ele>
        <time>2016-05-04T14:42:10Z</time>
      </trkpt>
      <trkpt lat="44.13346" lon="2.2925">
        <ele>436.9</ele>
        <time>2016-05-04T14:42:11Z</time>
      </trkpt>
      <trkpt lat="44.13346" lon="2.2925">
        <ele>436.7</ele>
        <time>2016-05-04T14:42:12Z</time>
      </trkpt>
      <trkpt lat="44.13346" lon="2.2925">
        <ele>436.7</ele>
        <time>2016-05-04T14:42:13Z</time>
      </trkpt>
      <trkpt lat="44.13346" lon="2.2925">
        <ele>436.7</ele>
        <time>2016-05-04T14:42:14Z</time>
      </trkpt>
      <trkpt lat="44.13346" lon="2.2925">
        <ele>436.8</ele>
        <time>2016-05-04T14:42:15Z</time>
      </trkpt>
      <trkpt lat="44.13346" lon="2.2925">
        <ele>436.8</ele>
        <time>2016-05-04T14:42:16Z</time>
      </trkpt>
      <trkpt lat="44.13346" lon="2.2925">
        <ele>436.8</ele>
        <time>2016-05-04T14:42:17Z</time>
      </trkpt>
      <trkpt lat="44.13346" lon="2.2925">
        <ele>436.8</ele>
        <time>2016-05-04T14:42:18Z</time>
      </trkpt>
      <trkpt lat="44.13346" lon="2.2925">
        <ele>437</ele>
        <time>2016-05-04T14:42:19Z</time>
      </trkpt>
      <trkpt lat="44.13346" lon="2.2925">
        <ele>437.2</ele>
        <time>2016-05-04T14:42:20Z</time>
      </trkpt>
      <trkpt lat="44.13345" lon="2.29251">
        <ele>437.3</ele>
        <time>2016-05-04T14:42:21Z</time>
      </trkpt>
      <trkpt lat="44.13344" lon="2.29252">
        <ele>437.1</ele>
        <time>2016-05-04T14:42:23Z</time>
      </trkpt>
      <trkpt lat="44.13344" lon="2.29252">
        <ele>437</ele>
        <time>2016-05-04T14:42:24Z</time>
      </trkpt>
      <trkpt lat="44.13345" lon="2.29252">
        <ele>437</ele>
        <time>2016-05-04T14:42:25Z</time>
      </trkpt>
      <trkpt lat="44.13345" lon="2.29252">
        <ele>437</ele>
        <time>2016-05-04T14:42:26Z</time>
      </trkpt>
      <trkpt lat="44.13345" lon="2.29252">
        <ele>436.9</ele>
        <time>2016-05-04T14:42:27Z</time>
      </trkpt>
      <trkpt lat="44.13345" lon="2.29252">
        <ele>436.9</ele>
        <time>2016-05-04T14:42:28Z</time>
      </trkpt>
      <trkpt lat="44.13345" lon="2.29252">
        <ele>436.9</ele>
        <time>2016-05-04T14:42:29Z</time>
      </trkpt>
      <trkpt lat="44.13345" lon="2.29253">
        <ele>437.6</ele>
        <time>2016-05-04T14:42:36Z</time>
      </trkpt>
      <trkpt lat="44.13345" lon="2.29253">
        <ele>437.4</ele>
        <time>2016-05-04T14:42:37Z</time>
      </trkpt>
      <trkpt lat="44.13345" lon="2.29253">
        <ele>437.2</ele>
        <time>2016-05-04T14:42:38Z</time>
      </trkpt>
      <trkpt lat="44.13347" lon="2.29251">
        <ele>436.9</ele>
        <time>2016-05-04T14:42:40Z</time>
      </trkpt>
      <trkpt lat="44.13349" lon="2.29249">
        <ele>436.5</ele>
        <time>2016-05-04T14:42:42Z</time>
      </trkpt>
      <trkpt lat="44.13353" lon="2.29241">
        <ele>437.3</ele>
        <time>2016-05-04T14:42:47Z</time>
      </trkpt>
      <trkpt lat="44.13416" lon="2.29123">
        <ele>436.4</ele>
        <time>2016-05-04T14:44:03Z</time>
      </trkpt>
      <trkpt lat="44.13417" lon="2.29122">
        <ele>436.7</ele>
        <time>2016-05-04T14:44:04Z</time>
      </trkpt>
      <trkpt lat="44.1345" lon="2.2908">
        <ele>437.4</ele>
        <time>2016-05-04T14:44:34Z</time>
      </trkpt>
      <trkpt lat="44.13451" lon="2.29079">
        <ele>437</ele>
        <time>2016-05-04T14:44:35Z</time>
      </trkpt>
      <trkpt lat="44.13455" lon="2.29069">
        <ele>437.9</ele>
        <time>2016-05-04T14:44:41Z</time>
      </trkpt>
      <trkpt lat="44.13457" lon="2.29065">
        <ele>438.6</ele>
        <time>2016-05-04T14:44:44Z</time>
      </trkpt>
      <trkpt lat="44.13458" lon="2.29059">
        <ele>438.2</ele>
        <time>2016-05-04T14:44:48Z</time>
      </trkpt>
      <trkpt lat="44.13527" lon="2.28806">
        <ele>464.5</ele>
        <time>2016-05-04T14:47:52Z</time>
      </trkpt>
      <trkpt lat="44.13527" lon="2.28804">
        <ele>464.7</ele>
        <time>2016-05-04T14:47:53Z</time>
      </trkpt>
      <trkpt lat="44.13537" lon="2.28749">
        <ele>470.9</ele>
        <time>2016-05-04T14:48:36Z</time>
      </trkpt>
      <trkpt lat="44.13538" lon="2.28747">
        <ele>471.2</ele>
        <time>2016-05-04T14:48:39Z</time>
      </trkpt>
      <trkpt lat="44.13538" lon="2.28747">
        <ele>471.5</ele>
        <time>2016-05-04T14:48:40Z</time>
      </trkpt>
      <trkpt lat="44.13538" lon="2.28747">
        <ele>471.7</ele>
        <time>2016-05-04T14:48:41Z</time>
      </trkpt>
      <trkpt lat="44.13538" lon="2.28748">
        <ele>471.8</ele>
        <time>2016-05-04T14:48:42Z</time>
      </trkpt>
      <trkpt lat="44.13538" lon="2.28749">
        <ele>471.9</ele>
        <time>2016-05-04T14:48:43Z</time>
      </trkpt>
      <trkpt lat="44.13538" lon="2.2875">
        <ele>472</ele>
        <time>2016-05-04T14:48:44Z</time>
      </trkpt>
      <trkpt lat="44.13538" lon="2.28752">
        <ele>472.1</ele>
        <time>2016-05-04T14:48:45Z</time>
      </trkpt>
      <trkpt lat="44.13537" lon="2.28753">
        <ele>472.1</ele>
        <time>2016-05-04T14:48:46Z</time>
      </trkpt>
      <trkpt lat="44.13537" lon="2.28754">
        <ele>472.2</ele>
        <time>2016-05-04T14:48:47Z</time>
      </trkpt>
      <trkpt lat="44.13537" lon="2.28755">
        <ele>472.2</ele>
        <time>2016-05-04T14:48:48Z</time>
      </trkpt>
      <trkpt lat="44.13537" lon="2.28756">
        <ele>472</ele>
        <time>2016-05-04T14:48:49Z</time>
      </trkpt>
      <trkpt lat="44.13536" lon="2.28757">
        <ele>471.9</ele>
        <time>2016-05-04T14:48:50Z</time>
      </trkpt>
      <trkpt lat="44.13536" lon="2.28757">
        <ele>471.8</ele>
        <time>2016-05-04T14:48:51Z</time>
      </trkpt>
      <trkpt lat="44.13535" lon="2.28758">
        <ele>471.9</ele>
        <time>2016-05-04T14:48:52Z</time>
      </trkpt>
      <trkpt lat="44.13535" lon="2.28758">
        <ele>472</ele>
        <time>2016-05-04T14:48:53Z</time>
      </trkpt>
      <trkpt lat="44.13535" lon="2.28758">
        <ele>472.1</ele>
        <time>2016-05-04T14:48:54Z</time>
      </trkpt>
      <trkpt lat="44.13535" lon="2.28758">
        <ele>471.9</ele>
        <time>2016-05-04T14:48:55Z</time>
      </trkpt>
      <trkpt lat="44.13535" lon="2.28758">
        <ele>471.8</ele>
        <time>2016-05-04T14:48:56Z</time>
      </trkpt>
      <trkpt lat="44.13535" lon="2.28758">
        <ele>471.7</ele>
        <time>2016-05-04T14:48:57Z</time>
      </trkpt>
      <trkpt lat="44.13535" lon="2.28757">
        <ele>471.8</ele>
        <time>2016-05-04T14:48:58Z</time>
      </trkpt>
      <trkpt lat="44.13535" lon="2.28757">
        <ele>472</ele>
        <time>2016-05-04T14:48:59Z</time>
      </trkpt>
      <trkpt lat="44.13535" lon="2.28757">
        <ele>472</ele>
        <time>2016-05-04T14:49:00Z</time>
      </trkpt>
      <trkpt lat="44.13535" lon="2.28757">
        <ele>471.9</ele>
        <time>2016-05-04T14:49:01Z</time>
      </trkpt>
      <trkpt lat="44.13535" lon="2.28757">
        <ele>471.8</ele>
        <time>2016-05-04T14:49:02Z</time>
      </trkpt>
      <trkpt lat="44.13535" lon="2.28757">
        <ele>471.7</ele>
        <time>2016-05-04T14:49:03Z</time>
      </trkpt>
      <trkpt lat="44.13535" lon="2.28757">
        <ele>471.4</ele>
        <time>2016-05-04T14:49:04Z</time>
      </trkpt>
      <trkpt lat="44.13535" lon="2.28757">
        <ele>471.2</ele>
        <time>2016-05-04T14:49:05Z</time>
      </trkpt>
      <trkpt lat="44.13535" lon="2.28757">
        <ele>471</ele>
        <time>2016-05-04T14:49:06Z</time>
      </trkpt>
      <trkpt lat="44.13535" lon="2.28757">
        <ele>471.1</ele>
        <time>2016-05-04T14:49:07Z</time>
      </trkpt>
      <trkpt lat="44.13535" lon="2.28757">
        <ele>471.2</ele>
        <time>2016-05-04T14:49:08Z</time>
      </trkpt>
      <trkpt lat="44.13535" lon="2.28757">
        <ele>471.3</ele>
        <time>2016-05-04T14:49:09Z</time>
      </trkpt>
      <trkpt lat="44.13535" lon="2.28757">
        <ele>471.1</ele>
        <time>2016-05-04T14:49:10Z</time>
      </trkpt>
      <trkpt lat="44.13535" lon="2.28757">
        <ele>471</ele>
        <time>2016-05-04T14:49:11Z</time>
      </trkpt>
      <trkpt lat="44.13535" lon="2.28757">
        <ele>470.9</ele>
        <time>2016-05-04T14:49:12Z</time>
      </trkpt>
      <trkpt lat="44.13535" lon="2.28757">
        <ele>471</ele>
        <time>2016-05-04T14:49:13Z</time>
      </trkpt>
      <trkpt lat="44.13535" lon="2.28757">
        <ele>471.1</ele>
        <time>2016-05-04T14:49:14Z</time>
      </trkpt>
      <trkpt lat="44.13535" lon="2.28757">
        <ele>471.2</ele>
        <time>2016-05-04T14:49:15Z</time>
      </trkpt>
      <trkpt lat="44.13535" lon="2.28757">
        <ele>471</ele>
        <time>2016-05-04T14:49:16Z</time>
      </trkpt>
      <trkpt lat="44.13535" lon="2.28757">
        <ele>470.9</ele>
        <time>2016-05-04T14:49:17Z</time>
      </trkpt>
      <trkpt lat="44.13535" lon="2.28757">
        <ele>470.8</ele>
        <time>2016-05-04T14:49:18Z</time>
      </trkpt>
      <trkpt lat="44.13536" lon="2.28756">
        <ele>471</ele>
        <time>2016-05-04T14:49:19Z</time>
      </trkpt>
      <trkpt lat="44.13537" lon="2.28755">
        <ele>471.1</ele>
        <time>2016-05-04T14:49:20Z</time>
      </trkpt>
      <trkpt lat="44.13538" lon="2.28753">
        <ele>471.4</ele>
        <time>2016-05-04T14:49:22Z</time>
      </trkpt>
      <trkpt lat="44.13538" lon="2.2875">
        <ele>471.8</ele>
        <time>2016-05-04T14:49:24Z</time>
      </trkpt>
      <trkpt lat="44.13542" lon="2.28734">
        <ele>473.1</ele>
        <time>2016-05-04T14:49:36Z</time>
      </trkpt>
      <trkpt lat="44.13547" lon="2.28713">
        <ele>476</ele>
        <time>2016-05-04T14:49:53Z</time>
      </trkpt>
      <trkpt lat="44.13547" lon="2.28713">
        <ele>475.9</ele>
        <time>2016-05-04T14:49:54Z</time>
      </trkpt>
      <trkpt lat="44.13547" lon="2.28713">
        <ele>476.1</ele>
        <time>2016-05-04T14:49:55Z</time>
      </trkpt>
      <trkpt lat="44.13547" lon="2.28713">
        <ele>476.2</ele>
        <time>2016-05-04T14:49:56Z</time>
      </trkpt>
      <trkpt lat="44.13547" lon="2.28713">
        <ele>476.3</ele>
        <time>2016-05-04T14:49:57Z</time>
      </trkpt>
      <trkpt lat="44.13547" lon="2.28713">
        <ele>476.4</ele>
        <time>2016-05-04T14:49:58Z</time>
      </trkpt>
      <trkpt lat="44.13547" lon="2.28713">
        <ele>476.5</ele>
        <time>2016-05-04T14:49:59Z</time>
      </trkpt>
      <trkpt lat="44.13547" lon="2.28713">
        <ele>476.5</ele>
        <time>2016-05-04T14:50:00Z</time>
      </trkpt>
      <trkpt lat="44.13546" lon="2.28713">
        <ele>476.5</ele>
        <time>2016-05-04T14:50:01Z</time>
      </trkpt>
      <trkpt lat="44.13546" lon="2.28713">
        <ele>476.5</ele>
        <time>2016-05-04T14:50:02Z</time>
      </trkpt>
      <trkpt lat="44.13546" lon="2.28713">
        <ele>476.6</ele>
        <time>2016-05-04T14:50:03Z</time>
      </trkpt>
      <trkpt lat="44.13546" lon="2.28713">
        <ele>476.8</ele>
        <time>2016-05-04T14:50:04Z</time>
      </trkpt>
      <trkpt lat="44.13546" lon="2.28713">
        <ele>477</ele>
        <time>2016-05-04T14:50:05Z</time>
      </trkpt>
      <trkpt lat="44.13546" lon="2.28713">
        <ele>477.1</ele>
        <time>2016-05-04T14:50:06Z</time>
      </trkpt>
      <trkpt lat="44.13546" lon="2.28713">
        <ele>477</ele>
        <time>2016-05-04T14:50:07Z</time>
      </trkpt>
      <trkpt lat="44.13546" lon="2.28713">
        <ele>476.9</ele>
        <time>2016-05-04T14:50:08Z</time>
      </trkpt>
      <trkpt lat="44.13546" lon="2.28713">
        <ele>476.8</ele>
        <time>2016-05-04T14:50:09Z</time>
      </trkpt>
      <trkpt lat="44.13546" lon="2.28713">
        <ele>477</ele>
        <time>2016-05-04T14:50:10Z</time>
      </trkpt>
      <trkpt lat="44.13546" lon="2.28713">
        <ele>477.1</ele>
        <time>2016-05-04T14:50:11Z</time>
      </trkpt>
      <trkpt lat="44.13546" lon="2.28713">
        <ele>477.2</ele>
        <time>2016-05-04T14:50:12Z</time>
      </trkpt>
      <trkpt lat="44.13546" lon="2.28713">
        <ele>476.8</ele>
        <time>2016-05-04T14:50:13Z</time>
      </trkpt>
      <trkpt lat="44.13547" lon="2.28713">
        <ele>476.6</ele>
        <time>2016-05-04T14:50:14Z</time>
      </trkpt>
      <trkpt lat="44.13548" lon="2.28711">
        <ele>476.2</ele>
        <time>2016-05-04T14:50:16Z</time>
      </trkpt>
      <trkpt lat="44.13548" lon="2.28709">
        <ele>476.1</ele>
        <time>2016-05-04T14:50:17Z</time>
      </trkpt>
      <trkpt lat="44.13548" lon="2.28708">
        <ele>476</ele>
        <time>2016-05-04T14:50:18Z</time>
      </trkpt>
      <trkpt lat="44.13548" lon="2.28707">
        <ele>476.6</ele>
        <time>2016-05-04T14:50:19Z</time>
      </trkpt>
      <trkpt lat="44.13549" lon="2.28706">
        <ele>477</ele>
        <time>2016-05-04T14:50:20Z</time>
      </trkpt>
      <trkpt lat="44.13549" lon="2.28704">
        <ele>477.4</ele>
        <time>2016-05-04T14:50:21Z</time>
      </trkpt>
      <trkpt lat="44.13553" lon="2.28692">
        <ele>478.5</ele>
        <time>2016-05-04T14:50:31Z</time>
      </trkpt>
      <trkpt lat="44.1356" lon="2.28674">
        <ele>480.4</ele>
        <time>2016-05-04T14:50:45Z</time>
      </trkpt>
      <trkpt lat="44.13563" lon="2.28671">
        <ele>480.2</ele>
        <time>2016-05-04T14:50:48Z</time>
      </trkpt>
      <trkpt lat="44.1357" lon="2.2866">
        <ele>480.6</ele>
        <time>2016-05-04T14:50:57Z</time>
      </trkpt>
      <trkpt lat="44.1357" lon="2.28658">
        <ele>480.7</ele>
        <time>2016-05-04T14:50:58Z</time>
      </trkpt>
      <trkpt lat="44.13603" lon="2.28618">
        <ele>484</ele>
        <time>2016-05-04T14:51:35Z</time>
      </trkpt>
      <trkpt lat="44.13609" lon="2.28613">
        <ele>484.7</ele>
        <time>2016-05-04T14:51:41Z</time>
      </trkpt>
      <trkpt lat="44.13616" lon="2.28609">
        <ele>484.4</ele>
        <time>2016-05-04T14:51:47Z</time>
      </trkpt>
      <trkpt lat="44.13627" lon="2.28604">
        <ele>484.3</ele>
        <time>2016-05-04T14:51:58Z</time>
      </trkpt>
      <trkpt lat="44.13628" lon="2.28603">
        <ele>483.9</ele>
        <time>2016-05-04T14:51:59Z</time>
      </trkpt>
      <trkpt lat="44.13632" lon="2.28597">
        <ele>483.8</ele>
        <time>2016-05-04T14:52:04Z</time>
      </trkpt>
      <trkpt lat="44.13635" lon="2.28591">
        <ele>484.7</ele>
        <time>2016-05-04T14:52:10Z</time>
      </trkpt>
      <trkpt lat="44.13636" lon="2.28591">
        <ele>484.6</ele>
        <time>2016-05-04T14:52:11Z</time>
      </trkpt>
      <trkpt lat="44.13636" lon="2.28591">
        <ele>484.6</ele>
        <time>2016-05-04T14:52:12Z</time>
      </trkpt>
      <trkpt lat="44.13636" lon="2.28591">
        <ele>484.5</ele>
        <time>2016-05-04T14:52:13Z</time>
      </trkpt>
      <trkpt lat="44.13636" lon="2.28591">
        <ele>484.5</ele>
        <time>2016-05-04T14:52:14Z</time>
      </trkpt>
      <trkpt lat="44.13636" lon="2.28591">
        <ele>484.5</ele>
        <time>2016-05-04T14:52:15Z</time>
      </trkpt>
      <trkpt lat="44.13636" lon="2.28591">
        <ele>484.5</ele>
        <time>2016-05-04T14:52:16Z</time>
      </trkpt>
      <trkpt lat="44.13636" lon="2.28591">
        <ele>484.5</ele>
        <time>2016-05-04T14:52:17Z</time>
      </trkpt>
      <trkpt lat="44.13637" lon="2.28591">
        <ele>484.4</ele>
        <time>2016-05-04T14:52:18Z</time>
      </trkpt>
      <trkpt lat="44.13637" lon="2.2859">
        <ele>484.4</ele>
        <time>2016-05-04T14:52:19Z</time>
      </trkpt>
      <trkpt lat="44.13637" lon="2.2859">
        <ele>484.4</ele>
        <time>2016-05-04T14:52:20Z</time>
      </trkpt>
      <trkpt lat="44.13637" lon="2.2859">
        <ele>484.4</ele>
        <time>2016-05-04T14:52:21Z</time>
      </trkpt>
      <trkpt lat="44.13637" lon="2.2859">
        <ele>484.4</ele>
        <time>2016-05-04T14:52:22Z</time>
      </trkpt>
      <trkpt lat="44.13637" lon="2.2859">
        <ele>484.4</ele>
        <time>2016-05-04T14:52:23Z</time>
      </trkpt>
      <trkpt lat="44.13638" lon="2.2859">
        <ele>484.4</ele>
        <time>2016-05-04T14:52:24Z</time>
      </trkpt>
      <trkpt lat="44.13638" lon="2.2859">
        <ele>484.2</ele>
        <time>2016-05-04T14:52:25Z</time>
      </trkpt>
      <trkpt lat="44.13638" lon="2.2859">
        <ele>484</ele>
        <time>2016-05-04T14:52:26Z</time>
      </trkpt>
      <trkpt lat="44.13638" lon="2.2859">
        <ele>483.9</ele>
        <time>2016-05-04T14:52:27Z</time>
      </trkpt>
      <trkpt lat="44.13638" lon="2.2859">
        <ele>484</ele>
        <time>2016-05-04T14:52:28Z</time>
      </trkpt>
      <trkpt lat="44.13638" lon="2.2859">
        <ele>484.1</ele>
        <time>2016-05-04T14:52:29Z</time>
      </trkpt>
      <trkpt lat="44.13638" lon="2.2859">
        <ele>484.2</ele>
        <time>2016-05-04T14:52:30Z</time>
      </trkpt>
      <trkpt lat="44.13638" lon="2.2859">
        <ele>484</ele>
        <time>2016-05-04T14:52:31Z</time>
      </trkpt>
      <trkpt lat="44.13638" lon="2.28589">
        <ele>483.9</ele>
        <time>2016-05-04T14:52:32Z</time>
      </trkpt>
      <trkpt lat="44.13638" lon="2.28589">
        <ele>483.8</ele>
        <time>2016-05-04T14:52:33Z</time>
      </trkpt>
      <trkpt lat="44.13638" lon="2.28589">
        <ele>484</ele>
        <time>2016-05-04T14:52:34Z</time>
      </trkpt>
      <trkpt lat="44.13638" lon="2.28589">
        <ele>484.1</ele>
        <time>2016-05-04T14:52:35Z</time>
      </trkpt>
      <trkpt lat="44.13638" lon="2.28589">
        <ele>484.2</ele>
        <time>2016-05-04T14:52:36Z</time>
      </trkpt>
      <trkpt lat="44.13638" lon="2.28589">
        <ele>484.5</ele>
        <time>2016-05-04T14:52:37Z</time>
      </trkpt>
      <trkpt lat="44.13638" lon="2.28589">
        <ele>484.7</ele>
        <time>2016-05-04T14:52:38Z</time>
      </trkpt>
      <trkpt lat="44.13638" lon="2.28589">
        <ele>484.8</ele>
        <time>2016-05-04T14:52:39Z</time>
      </trkpt>
      <trkpt lat="44.13638" lon="2.28589">
        <ele>484.7</ele>
        <time>2016-05-04T14:52:40Z</time>
      </trkpt>
      <trkpt lat="44.13638" lon="2.28589">
        <ele>484.6</ele>
        <time>2016-05-04T14:52:41Z</time>
      </trkpt>
      <trkpt lat="44.13638" lon="2.28589">
        <ele>484.6</ele>
        <time>2016-05-04T14:52:42Z</time>
      </trkpt>
      <trkpt lat="44.13638" lon="2.28589">
        <ele>484.3</ele>
        <time>2016-05-04T14:52:43Z</time>
      </trkpt>
      <trkpt lat="44.13638" lon="2.28589">
        <ele>484.1</ele>
        <time>2016-05-04T14:52:44Z</time>
      </trkpt>
      <trkpt lat="44.13638" lon="2.28589">
        <ele>484</ele>
        <time>2016-05-04T14:52:45Z</time>
      </trkpt>
      <trkpt lat="44.13638" lon="2.28589">
        <ele>484.1</ele>
        <time>2016-05-04T14:52:46Z</time>
      </trkpt>
      <trkpt lat="44.13638" lon="2.2859">
        <ele>484.2</ele>
        <time>2016-05-04T14:52:47Z</time>
      </trkpt>
      <trkpt lat="44.13638" lon="2.2859">
        <ele>484.2</ele>
        <time>2016-05-04T14:52:48Z</time>
      </trkpt>
      <trkpt lat="44.13638" lon="2.2859">
        <ele>484.1</ele>
        <time>2016-05-04T14:52:49Z</time>
      </trkpt>
      <trkpt lat="44.13638" lon="2.28591">
        <ele>483.9</ele>
        <time>2016-05-04T14:52:50Z</time>
      </trkpt>
      <trkpt lat="44.13638" lon="2.28591">
        <ele>483.8</ele>
        <time>2016-05-04T14:52:51Z</time>
      </trkpt>
      <trkpt lat="44.13638" lon="2.28591">
        <ele>483.8</ele>
        <time>2016-05-04T14:52:52Z</time>
      </trkpt>
      <trkpt lat="44.13638" lon="2.28591">
        <ele>483.7</ele>
        <time>2016-05-04T14:52:53Z</time>
      </trkpt>
      <trkpt lat="44.13638" lon="2.28591">
        <ele>483.7</ele>
        <time>2016-05-04T14:52:54Z</time>
      </trkpt>
      <trkpt lat="44.13638" lon="2.28591">
        <ele>484.1</ele>
        <time>2016-05-04T14:52:55Z</time>
      </trkpt>
      <trkpt lat="44.13639" lon="2.28591">
        <ele>484.4</ele>
        <time>2016-05-04T14:52:56Z</time>
      </trkpt>
      <trkpt lat="44.13639" lon="2.28591">
        <ele>484.6</ele>
        <time>2016-05-04T14:52:57Z</time>
      </trkpt>
      <trkpt lat="44.13639" lon="2.2859">
        <ele>484.8</ele>
        <time>2016-05-04T14:52:58Z</time>
      </trkpt>
      <trkpt lat="44.1364" lon="2.28588">
        <ele>484.6</ele>
        <time>2016-05-04T14:53:01Z</time>
      </trkpt>
      <trkpt lat="44.13641" lon="2.28587">
        <ele>484.4</ele>
        <time>2016-05-04T14:53:02Z</time>
      </trkpt>
      <trkpt lat="44.13641" lon="2.28586">
        <ele>484</ele>
        <time>2016-05-04T14:53:04Z</time>
      </trkpt>
      <trkpt lat="44.13641" lon="2.28586">
        <ele>483.9</ele>
        <time>2016-05-04T14:53:05Z</time>
      </trkpt>
      <trkpt lat="44.13641" lon="2.28586">
        <ele>483.8</ele>
        <time>2016-05-04T14:53:06Z</time>
      </trkpt>
      <trkpt lat="44.13641" lon="2.28586">
        <ele>483.5</ele>
        <time>2016-05-04T14:53:07Z</time>
      </trkpt>
      <trkpt lat="44.13641" lon="2.28586">
        <ele>483.3</ele>
        <time>2016-05-04T14:53:08Z</time>
      </trkpt>
      <trkpt lat="44.13641" lon="2.28586">
        <ele>483.2</ele>
        <time>2016-05-04T14:53:09Z</time>
      </trkpt>
      <trkpt lat="44.1364" lon="2.28585">
        <ele>483.5</ele>
        <time>2016-05-04T14:53:16Z</time>
      </trkpt>
      <trkpt lat="44.1364" lon="2.28585">
        <ele>483.5</ele>
        <time>2016-05-04T14:53:17Z</time>
      </trkpt>
      <trkpt lat="44.1364" lon="2.28585">
        <ele>483.5</ele>
        <time>2016-05-04T14:53:18Z</time>
      </trkpt>
      <trkpt lat="44.1364" lon="2.28585">
        <ele>483.7</ele>
        <time>2016-05-04T14:53:19Z</time>
      </trkpt>
      <trkpt lat="44.1364" lon="2.28585">
        <ele>483.9</ele>
        <time>2016-05-04T14:53:20Z</time>
      </trkpt>
      <trkpt lat="44.1364" lon="2.28585">
        <ele>484</ele>
        <time>2016-05-04T14:53:21Z</time>
      </trkpt>
      <trkpt lat="44.1364" lon="2.28584">
        <ele>484.1</ele>
        <time>2016-05-04T14:53:22Z</time>
      </trkpt>
      <trkpt lat="44.1364" lon="2.28584">
        <ele>484.2</ele>
        <time>2016-05-04T14:53:23Z</time>
      </trkpt>
      <trkpt lat="44.1364" lon="2.28584">
        <ele>484.3</ele>
        <time>2016-05-04T14:53:24Z</time>
      </trkpt>
      <trkpt lat="44.1364" lon="2.28584">
        <ele>484.3</ele>
        <time>2016-05-04T14:53:25Z</time>
      </trkpt>
      <trkpt lat="44.1364" lon="2.28584">
        <ele>484.3</ele>
        <time>2016-05-04T14:53:26Z</time>
      </trkpt>
      <trkpt lat="44.1364" lon="2.28584">
        <ele>484.4</ele>
        <time>2016-05-04T14:53:27Z</time>
      </trkpt>
      <trkpt lat="44.1364" lon="2.28584">
        <ele>484.4</ele>
        <time>2016-05-04T14:53:28Z</time>
      </trkpt>
      <trkpt lat="44.13641" lon="2.28584">
        <ele>484.4</ele>
        <time>2016-05-04T14:53:29Z</time>
      </trkpt>
      <trkpt lat="44.13641" lon="2.28583">
        <ele>484.4</ele>
        <time>2016-05-04T14:53:30Z</time>
      </trkpt>
      <trkpt lat="44.13642" lon="2.28582">
        <ele>484.2</ele>
        <time>2016-05-04T14:53:31Z</time>
      </trkpt>
      <trkpt lat="44.13644" lon="2.28577">
        <ele>484.3</ele>
        <time>2016-05-04T14:53:37Z</time>
      </trkpt>
      <trkpt lat="44.13644" lon="2.28577">
        <ele>484.3</ele>
        <time>2016-05-04T14:53:38Z</time>
      </trkpt>
      <trkpt lat="44.13644" lon="2.28577">
        <ele>484.3</ele>
        <time>2016-05-04T14:53:39Z</time>
      </trkpt>
      <trkpt lat="44.13644" lon="2.28577">
        <ele>484.6</ele>
        <time>2016-05-04T14:53:40Z</time>
      </trkpt>
      <trkpt lat="44.13644" lon="2.28577">
        <ele>484.7</ele>
        <time>2016-05-04T14:53:41Z</time>
      </trkpt>
      <trkpt lat="44.13644" lon="2.28578">
        <ele>484.9</ele>
        <time>2016-05-04T14:53:42Z</time>
      </trkpt>
      <trkpt lat="44.13644" lon="2.28578">
        <ele>484.3</ele>
        <time>2016-05-04T14:53:43Z</time>
      </trkpt>
      <trkpt lat="44.13644" lon="2.28578">
        <ele>483.9</ele>
        <time>2016-05-04T14:53:44Z</time>
      </trkpt>
      <trkpt lat="44.13644" lon="2.28578">
        <ele>483.6</ele>
        <time>2016-05-04T14:53:45Z</time>
      </trkpt>
      <trkpt lat="44.13644" lon="2.28578">
        <ele>483.6</ele>
        <time>2016-05-04T14:53:46Z</time>
      </trkpt>
      <trkpt lat="44.13644" lon="2.28578">
        <ele>483.6</ele>
        <time>2016-05-04T14:53:47Z</time>
      </trkpt>
      <trkpt lat="44.13644" lon="2.28578">
        <ele>483.6</ele>
        <time>2016-05-04T14:53:48Z</time>
      </trkpt>
      <trkpt lat="44.13644" lon="2.28578">
        <ele>483.6</ele>
        <time>2016-05-04T14:53:49Z</time>
      </trkpt>
      <trkpt lat="44.13644" lon="2.28578">
        <ele>483.6</ele>
        <time>2016-05-04T14:53:50Z</time>
      </trkpt>
      <trkpt lat="44.13644" lon="2.28578">
        <ele>483.6</ele>
        <time>2016-05-04T14:53:51Z</time>
      </trkpt>
      <trkpt lat="44.13644" lon="2.28578">
        <ele>483.8</ele>
        <time>2016-05-04T14:53:52Z</time>
      </trkpt>
      <trkpt lat="44.13644" lon="2.28578">
        <ele>483.9</ele>
        <time>2016-05-04T14:53:53Z</time>
      </trkpt>
      <trkpt lat="44.13644" lon="2.28578">
        <ele>484.1</ele>
        <time>2016-05-04T14:53:54Z</time>
      </trkpt>
      <trkpt lat="44.13644" lon="2.28578">
        <ele>483.7</ele>
        <time>2016-05-04T14:53:55Z</time>
      </trkpt>
      <trkpt lat="44.13644" lon="2.28578">
        <ele>483.5</ele>
        <time>2016-05-04T14:53:56Z</time>
      </trkpt>
      <trkpt lat="44.13644" lon="2.28577">
        <ele>483.3</ele>
        <time>2016-05-04T14:53:57Z</time>
      </trkpt>
      <trkpt lat="44.13644" lon="2.28577">
        <ele>484</ele>
        <time>2016-05-04T14:53:58Z</time>
      </trkpt>
      <trkpt lat="44.13644" lon="2.28577">
        <ele>484.5</ele>
        <time>2016-05-04T14:53:59Z</time>
      </trkpt>
      <trkpt lat="44.13644" lon="2.28577">
        <ele>484.9</ele>
        <time>2016-05-04T14:54:00Z</time>
      </trkpt>
      <trkpt lat="44.13644" lon="2.28577">
        <ele>484.8</ele>
        <time>2016-05-04T14:54:01Z</time>
      </trkpt>
      <trkpt lat="44.13644" lon="2.28577">
        <ele>484.7</ele>
        <time>2016-05-04T14:54:02Z</time>
      </trkpt>
      <trkpt lat="44.13644" lon="2.28577">
        <ele>484.6</ele>
        <time>2016-05-04T14:54:03Z</time>
      </trkpt>
      <trkpt lat="44.13644" lon="2.28577">
        <ele>484.5</ele>
        <time>2016-05-04T14:54:05Z</time>
      </trkpt>
      <trkpt lat="44.13644" lon="2.28577">
        <ele>484.5</ele>
        <time>2016-05-04T14:54:06Z</time>
      </trkpt>
      <trkpt lat="44.13644" lon="2.28577">
        <ele>484.5</ele>
        <time>2016-05-04T14:54:07Z</time>
      </trkpt>
      <trkpt lat="44.13644" lon="2.28577">
        <ele>484.5</ele>
        <time>2016-05-04T14:54:08Z</time>
      </trkpt>
      <trkpt lat="44.13644" lon="2.28577">
        <ele>484.5</ele>
        <time>2016-05-04T14:54:09Z</time>
      </trkpt>
      <trkpt lat="44.13644" lon="2.28577">
        <ele>484.2</ele>
        <time>2016-05-04T14:54:10Z</time>
      </trkpt>
      <trkpt lat="44.13644" lon="2.28577">
        <ele>484.1</ele>
        <time>2016-05-04T14:54:11Z</time>
      </trkpt>
      <trkpt lat="44.13645" lon="2.28576">
        <ele>483.9</ele>
        <time>2016-05-04T14:54:12Z</time>
      </trkpt>
      <trkpt lat="44.13647" lon="2.2857">
        <ele>484.3</ele>
        <time>2016-05-04T14:54:17Z</time>
      </trkpt>
      <trkpt lat="44.1365" lon="2.28564">
        <ele>484.7</ele>
        <time>2016-05-04T14:54:24Z</time>
      </trkpt>
      <trkpt lat="44.13651" lon="2.28564">
        <ele>484.8</ele>
        <time>2016-05-04T14:54:25Z</time>
      </trkpt>
      <trkpt lat="44.13651" lon="2.28563">
        <ele>485</ele>
        <time>2016-05-04T14:54:26Z</time>
      </trkpt>
      <trkpt lat="44.13651" lon="2.28563">
        <ele>485</ele>
        <time>2016-05-04T14:54:27Z</time>
      </trkpt>
      <trkpt lat="44.13652" lon="2.28562">
        <ele>484.9</ele>
        <time>2016-05-04T14:54:28Z</time>
      </trkpt>
      <trkpt lat="44.13651" lon="2.28562">
        <ele>484.7</ele>
        <time>2016-05-04T14:54:30Z</time>
      </trkpt>
      <trkpt lat="44.13651" lon="2.28562">
        <ele>484.6</ele>
        <time>2016-05-04T14:54:31Z</time>
      </trkpt>
      <trkpt lat="44.13651" lon="2.28562">
        <ele>484.6</ele>
        <time>2016-05-04T14:54:32Z</time>
      </trkpt>
      <trkpt lat="44.13651" lon="2.28562">
        <ele>484.5</ele>
        <time>2016-05-04T14:54:33Z</time>
      </trkpt>
      <trkpt lat="44.13651" lon="2.28563">
        <ele>484.5</ele>
        <time>2016-05-04T14:54:34Z</time>
      </trkpt>
      <trkpt lat="44.13651" lon="2.28563">
        <ele>484.5</ele>
        <time>2016-05-04T14:54:35Z</time>
      </trkpt>
      <trkpt lat="44.13651" lon="2.28563">
        <ele>484.5</ele>
        <time>2016-05-04T14:54:36Z</time>
      </trkpt>
      <trkpt lat="44.13651" lon="2.28563">
        <ele>484.2</ele>
        <time>2016-05-04T14:54:37Z</time>
      </trkpt>
      <trkpt lat="44.13651" lon="2.28563">
        <ele>484.1</ele>
        <time>2016-05-04T14:54:38Z</time>
      </trkpt>
      <trkpt lat="44.13651" lon="2.28563">
        <ele>483.9</ele>
        <time>2016-05-04T14:54:39Z</time>
      </trkpt>
      <trkpt lat="44.13651" lon="2.28563">
        <ele>484.1</ele>
        <time>2016-05-04T14:54:40Z</time>
      </trkpt>
      <trkpt lat="44.13651" lon="2.28563">
        <ele>484.1</ele>
        <time>2016-05-04T14:54:41Z</time>
      </trkpt>
      <trkpt lat="44.13651" lon="2.28563">
        <ele>484.2</ele>
        <time>2016-05-04T14:54:42Z</time>
      </trkpt>
      <trkpt lat="44.13651" lon="2.28563">
        <ele>484.3</ele>
        <time>2016-05-04T14:54:43Z</time>
      </trkpt>
      <trkpt lat="44.1365" lon="2.28563">
        <ele>484.3</ele>
        <time>2016-05-04T14:54:44Z</time>
      </trkpt>
      <trkpt lat="44.1365" lon="2.28563">
        <ele>484.3</ele>
        <time>2016-05-04T14:54:45Z</time>
      </trkpt>
      <trkpt lat="44.1365" lon="2.28563">
        <ele>484.6</ele>
        <time>2016-05-04T14:54:46Z</time>
      </trkpt>
      <trkpt lat="44.13651" lon="2.28563">
        <ele>484.8</ele>
        <time>2016-05-04T14:54:47Z</time>
      </trkpt>
      <trkpt lat="44.13651" lon="2.28563">
        <ele>484.9</ele>
        <time>2016-05-04T14:54:48Z</time>
      </trkpt>
      <trkpt lat="44.13652" lon="2.28562">
        <ele>484.3</ele>
        <time>2016-05-04T14:54:50Z</time>
      </trkpt>
      <trkpt lat="44.13658" lon="2.28556">
        <ele>484.8</ele>
        <time>2016-05-04T14:54:57Z</time>
      </trkpt>
      <trkpt lat="44.13672" lon="2.28539">
        <ele>484</ele>
        <time>2016-05-04T14:55:14Z</time>
      </trkpt>
      <trkpt lat="44.13672" lon="2.28539">
        <ele>483.9</ele>
        <time>2016-05-04T14:55:15Z</time>
      </trkpt>
      <trkpt lat="44.13674" lon="2.28536">
        <ele>484.2</ele>
        <time>2016-05-04T14:55:18Z</time>
      </trkpt>
      <trkpt lat="44.13697" lon="2.28504">
        <ele>483.3</ele>
        <time>2016-05-04T14:55:45Z</time>
      </trkpt>
      <trkpt lat="44.13698" lon="2.28503">
        <ele>483.1</ele>
        <time>2016-05-04T14:55:46Z</time>
      </trkpt>
      <trkpt lat="44.13701" lon="2.28495">
        <ele>482.8</ele>
        <time>2016-05-04T14:55:51Z</time>
      </trkpt>
      <trkpt lat="44.13701" lon="2.28492">
        <ele>483.1</ele>
        <time>2016-05-04T14:55:53Z</time>
      </trkpt>
      <trkpt lat="44.13703" lon="2.28479">
        <ele>482.6</ele>
        <time>2016-05-04T14:56:00Z</time>
      </trkpt>
      <trkpt lat="44.13706" lon="2.2845">
        <ele>483.1</ele>
        <time>2016-05-04T14:56:16Z</time>
      </trkpt>
      <trkpt lat="44.13706" lon="2.28449">
        <ele>483</ele>
        <time>2016-05-04T14:56:17Z</time>
      </trkpt>
      <trkpt lat="44.13714" lon="2.28427">
        <ele>482.4</ele>
        <time>2016-05-04T14:56:31Z</time>
      </trkpt>
      <trkpt lat="44.13763" lon="2.28286">
        <ele>478.4</ele>
        <time>2016-05-04T14:57:52Z</time>
      </trkpt>
      <trkpt lat="44.13764" lon="2.28284">
        <ele>478.4</ele>
        <time>2016-05-04T14:57:53Z</time>
      </trkpt>
      <trkpt lat="44.13765" lon="2.28278">
        <ele>478.4</ele>
        <time>2016-05-04T14:57:56Z</time>
      </trkpt>
      <trkpt lat="44.13765" lon="2.28276">
        <ele>478.4</ele>
        <time>2016-05-04T14:57:57Z</time>
      </trkpt>
      <trkpt lat="44.13766" lon="2.28273">
        <ele>479.1</ele>
        <time>2016-05-04T14:57:59Z</time>
      </trkpt>
      <trkpt lat="44.13768" lon="2.28265">
        <ele>479.3</ele>
        <time>2016-05-04T14:58:04Z</time>
      </trkpt>
      <trkpt lat="44.1377" lon="2.28264">
        <ele>479.3</ele>
        <time>2016-05-04T14:58:05Z</time>
      </trkpt>
      <trkpt lat="44.13771" lon="2.28263">
        <ele>479.2</ele>
        <time>2016-05-04T14:58:06Z</time>
      </trkpt>
      <trkpt lat="44.13773" lon="2.28263">
        <ele>479.2</ele>
        <time>2016-05-04T14:58:07Z</time>
      </trkpt>
      <trkpt lat="44.13775" lon="2.28262">
        <ele>479.2</ele>
        <time>2016-05-04T14:58:08Z</time>
      </trkpt>
      <trkpt lat="44.13776" lon="2.28261">
        <ele>479.2</ele>
        <time>2016-05-04T14:58:09Z</time>
      </trkpt>
      <trkpt lat="44.13777" lon="2.2826">
        <ele>479</ele>
        <time>2016-05-04T14:58:10Z</time>
      </trkpt>
      <trkpt lat="44.13779" lon="2.28258">
        <ele>478.8</ele>
        <time>2016-05-04T14:58:11Z</time>
      </trkpt>
      <trkpt lat="44.13781" lon="2.28254">
        <ele>478.6</ele>
        <time>2016-05-04T14:58:14Z</time>
      </trkpt>
      <trkpt lat="44.13781" lon="2.28254">
        <ele>478.5</ele>
        <time>2016-05-04T14:58:15Z</time>
      </trkpt>
      <trkpt lat="44.13782" lon="2.28254">
        <ele>478.5</ele>
        <time>2016-05-04T14:58:16Z</time>
      </trkpt>
      <trkpt lat="44.13782" lon="2.28253">
        <ele>478.4</ele>
        <time>2016-05-04T14:58:17Z</time>
      </trkpt>
      <trkpt lat="44.13782" lon="2.28253">
        <ele>478.4</ele>
        <time>2016-05-04T14:58:18Z</time>
      </trkpt>
      <trkpt lat="44.13782" lon="2.28253">
        <ele>478.6</ele>
        <time>2016-05-04T14:58:19Z</time>
      </trkpt>
      <trkpt lat="44.13782" lon="2.28253">
        <ele>478.8</ele>
        <time>2016-05-04T14:58:20Z</time>
      </trkpt>
      <trkpt lat="44.13782" lon="2.28252">
        <ele>478.9</ele>
        <time>2016-05-04T14:58:21Z</time>
      </trkpt>
      <trkpt lat="44.13782" lon="2.28252">
        <ele>478.1</ele>
        <time>2016-05-04T14:58:22Z</time>
      </trkpt>
      <trkpt lat="44.13783" lon="2.28251">
        <ele>477.5</ele>
        <time>2016-05-04T14:58:23Z</time>
      </trkpt>
      <trkpt lat="44.13785" lon="2.2825">
        <ele>477.6</ele>
        <time>2016-05-04T14:58:26Z</time>
      </trkpt>
      <trkpt lat="44.13785" lon="2.28249">
        <ele>477.8</ele>
        <time>2016-05-04T14:58:27Z</time>
      </trkpt>
      <trkpt lat="44.13785" lon="2.28249">
        <ele>478.2</ele>
        <time>2016-05-04T14:58:28Z</time>
      </trkpt>
      <trkpt lat="44.13785" lon="2.28249">
        <ele>478.4</ele>
        <time>2016-05-04T14:58:29Z</time>
      </trkpt>
      <trkpt lat="44.13786" lon="2.28249">
        <ele>478.6</ele>
        <time>2016-05-04T14:58:30Z</time>
      </trkpt>
      <trkpt lat="44.13786" lon="2.28249">
        <ele>478.6</ele>
        <time>2016-05-04T14:58:31Z</time>
      </trkpt>
      <trkpt lat="44.13786" lon="2.28249">
        <ele>478.5</ele>
        <time>2016-05-04T14:58:32Z</time>
      </trkpt>
      <trkpt lat="44.13786" lon="2.28249">
        <ele>478.5</ele>
        <time>2016-05-04T14:58:33Z</time>
      </trkpt>
      <trkpt lat="44.13786" lon="2.28248">
        <ele>477.6</ele>
        <time>2016-05-04T14:58:34Z</time>
      </trkpt>
      <trkpt lat="44.13786" lon="2.28248">
        <ele>476.9</ele>
        <time>2016-05-04T14:58:35Z</time>
      </trkpt>
      <trkpt lat="44.13786" lon="2.28248">
        <ele>476.4</ele>
        <time>2016-05-04T14:58:36Z</time>
      </trkpt>
      <trkpt lat="44.13787" lon="2.28248">
        <ele>477.3</ele>
        <time>2016-05-04T14:58:37Z</time>
      </trkpt>
      <trkpt lat="44.13787" lon="2.28248">
        <ele>478</ele>
        <time>2016-05-04T14:58:38Z</time>
      </trkpt>
      <trkpt lat="44.13787" lon="2.28246">
        <ele>478.7</ele>
        <time>2016-05-04T14:58:40Z</time>
      </trkpt>
      <trkpt lat="44.13787" lon="2.28246">
        <ele>478.8</ele>
        <time>2016-05-04T14:58:41Z</time>
      </trkpt>
      <trkpt lat="44.13787" lon="2.28246">
        <ele>478.9</ele>
        <time>2016-05-04T14:58:42Z</time>
      </trkpt>
      <trkpt lat="44.13787" lon="2.28246">
        <ele>479</ele>
        <time>2016-05-04T14:58:43Z</time>
      </trkpt>
      <trkpt lat="44.13787" lon="2.28246">
        <ele>479.1</ele>
        <time>2016-05-04T14:58:44Z</time>
      </trkpt>
      <trkpt lat="44.13785" lon="2.28247">
        <ele>478.9</ele>
        <time>2016-05-04T14:58:46Z</time>
      </trkpt>
      <trkpt lat="44.13783" lon="2.28251">
        <ele>478.8</ele>
        <time>2016-05-04T14:58:49Z</time>
      </trkpt>
      <trkpt lat="44.13782" lon="2.28253">
        <ele>478.9</ele>
        <time>2016-05-04T14:58:50Z</time>
      </trkpt>
      <trkpt lat="44.13781" lon="2.28254">
        <ele>479</ele>
        <time>2016-05-04T14:58:51Z</time>
      </trkpt>
      <trkpt lat="44.13781" lon="2.28255">
        <ele>475.4</ele>
        <time>2016-05-04T14:58:52Z</time>
      </trkpt>
      <trkpt lat="44.13779" lon="2.28257">
        <ele>470.6</ele>
        <time>2016-05-04T14:58:54Z</time>
      </trkpt>
      <trkpt lat="44.13778" lon="2.28258">
        <ele>473.8</ele>
        <time>2016-05-04T14:58:55Z</time>
      </trkpt>
      <trkpt lat="44.13776" lon="2.28259">
        <ele>478.1</ele>
        <time>2016-05-04T14:58:57Z</time>
      </trkpt>
      <trkpt lat="44.13774" lon="2.28257">
        <ele>480.1</ele>
        <time>2016-05-04T14:58:59Z</time>
      </trkpt>
      <trkpt lat="44.13771" lon="2.28254">
        <ele>480.5</ele>
        <time>2016-05-04T14:59:02Z</time>
      </trkpt>
      <trkpt lat="44.13769" lon="2.28248">
        <ele>481.2</ele>
        <time>2016-05-04T14:59:06Z</time>
      </trkpt>
      <trkpt lat="44.13768" lon="2.28243">
        <ele>480.1</ele>
        <time>2016-05-04T14:59:09Z</time>
      </trkpt>
      <trkpt lat="44.13767" lon="2.28241">
        <ele>480.3</ele>
        <time>2016-05-04T14:59:10Z</time>
      </trkpt>
      <trkpt lat="44.13756" lon="2.28193">
        <ele>480.3</ele>
        <time>2016-05-04T14:59:36Z</time>
      </trkpt>
      <trkpt lat="44.13755" lon="2.28191">
        <ele>479.8</ele>
        <time>2016-05-04T14:59:37Z</time>
      </trkpt>
      <trkpt lat="44.13748" lon="2.28171">
        <ele>479.6</ele>
        <time>2016-05-04T14:59:48Z</time>
      </trkpt>
      <trkpt lat="44.1373" lon="2.28116">
        <ele>477.4</ele>
        <time>2016-05-04T15:00:17Z</time>
      </trkpt>
      <trkpt lat="44.1373" lon="2.28114">
        <ele>477.4</ele>
        <time>2016-05-04T15:00:18Z</time>
      </trkpt>
      <trkpt lat="44.13716" lon="2.28047">
        <ele>478.5</ele>
        <time>2016-05-04T15:00:52Z</time>
      </trkpt>
      <trkpt lat="44.13714" lon="2.28043">
        <ele>478.1</ele>
        <time>2016-05-04T15:00:54Z</time>
      </trkpt>
      <trkpt lat="44.13708" lon="2.28023">
        <ele>478.1</ele>
        <time>2016-05-04T15:01:05Z</time>
      </trkpt>
      <trkpt lat="44.13707" lon="2.28022">
        <ele>478.1</ele>
        <time>2016-05-04T15:01:06Z</time>
      </trkpt>
      <trkpt lat="44.13704" lon="2.28018">
        <ele>478.3</ele>
        <time>2016-05-04T15:01:09Z</time>
      </trkpt>
      <trkpt lat="44.137" lon="2.28015">
        <ele>478.8</ele>
        <time>2016-05-04T15:01:12Z</time>
      </trkpt>
      <trkpt lat="44.1366" lon="2.27993">
        <ele>480.6</ele>
        <time>2016-05-04T15:01:43Z</time>
      </trkpt>
      <trkpt lat="44.13659" lon="2.27992">
        <ele>480.7</ele>
        <time>2016-05-04T15:01:44Z</time>
      </trkpt>
      <trkpt lat="44.13617" lon="2.27965">
        <ele>481.8</ele>
        <time>2016-05-04T15:02:16Z</time>
      </trkpt>
      <trkpt lat="44.13615" lon="2.27963">
        <ele>481.8</ele>
        <time>2016-05-04T15:02:17Z</time>
      </trkpt>
      <trkpt lat="44.13613" lon="2.2796">
        <ele>481.6</ele>
        <time>2016-05-04T15:02:19Z</time>
      </trkpt>
      <trkpt lat="44.13587" lon="2.27928">
        <ele>481.3</ele>
        <time>2016-05-04T15:02:43Z</time>
      </trkpt>
      <trkpt lat="44.13586" lon="2.27927">
        <ele>481.5</ele>
        <time>2016-05-04T15:02:44Z</time>
      </trkpt>
      <trkpt lat="44.13585" lon="2.27926">
        <ele>481.6</ele>
        <time>2016-05-04T15:02:45Z</time>
      </trkpt>
      <trkpt lat="44.13564" lon="2.27909">
        <ele>481.9</ele>
        <time>2016-05-04T15:03:03Z</time>
      </trkpt>
      <trkpt lat="44.1355" lon="2.27902">
        <ele>482.4</ele>
        <time>2016-05-04T15:03:13Z</time>
      </trkpt>
      <trkpt lat="44.13512" lon="2.27886">
        <ele>486.3</ele>
        <time>2016-05-04T15:03:46Z</time>
      </trkpt>
      <trkpt lat="44.13511" lon="2.27886">
        <ele>486.5</ele>
        <time>2016-05-04T15:03:47Z</time>
      </trkpt>
      <trkpt lat="44.13485" lon="2.27872">
        <ele>489.5</ele>
        <time>2016-05-04T15:04:08Z</time>
      </trkpt>
      <trkpt lat="44.13447" lon="2.27847">
        <ele>490.5</ele>
        <time>2016-05-04T15:04:39Z</time>
      </trkpt>
      <trkpt lat="44.13446" lon="2.27847">
        <ele>490.5</ele>
        <time>2016-05-04T15:04:40Z</time>
      </trkpt>
      <trkpt lat="44.13395" lon="2.27829">
        <ele>490.9</ele>
        <time>2016-05-04T15:05:17Z</time>
      </trkpt>
      <trkpt lat="44.13394" lon="2.27829">
        <ele>491</ele>
        <time>2016-05-04T15:05:18Z</time>
      </trkpt>
      <trkpt lat="44.13376" lon="2.27818">
        <ele>492</ele>
        <time>2016-05-04T15:05:33Z</time>
      </trkpt>
      <trkpt lat="44.13329" lon="2.27781">
        <ele>492.2</ele>
        <time>2016-05-04T15:06:14Z</time>
      </trkpt>
      <trkpt lat="44.13329" lon="2.27781">
        <ele>492.2</ele>
        <time>2016-05-04T15:06:15Z</time>
      </trkpt>
      <trkpt lat="44.13329" lon="2.27781">
        <ele>492.2</ele>
        <time>2016-05-04T15:06:16Z</time>
      </trkpt>
      <trkpt lat="44.13329" lon="2.27781">
        <ele>492.2</ele>
        <time>2016-05-04T15:06:17Z</time>
      </trkpt>
      <trkpt lat="44.13329" lon="2.27781">
        <ele>492</ele>
        <time>2016-05-04T15:06:18Z</time>
      </trkpt>
      <trkpt lat="44.13329" lon="2.27781">
        <ele>491.8</ele>
        <time>2016-05-04T15:06:19Z</time>
      </trkpt>
      <trkpt lat="44.13329" lon="2.27781">
        <ele>491.7</ele>
        <time>2016-05-04T15:06:20Z</time>
      </trkpt>
      <trkpt lat="44.13329" lon="2.27781">
        <ele>491.6</ele>
        <time>2016-05-04T15:06:21Z</time>
      </trkpt>
      <trkpt lat="44.13329" lon="2.27781">
        <ele>491.6</ele>
        <time>2016-05-04T15:06:22Z</time>
      </trkpt>
      <trkpt lat="44.13329" lon="2.27781">
        <ele>491.5</ele>
        <time>2016-05-04T15:06:23Z</time>
      </trkpt>
      <trkpt lat="44.13329" lon="2.27781">
        <ele>491.3</ele>
        <time>2016-05-04T15:06:24Z</time>
      </trkpt>
      <trkpt lat="44.13329" lon="2.27781">
        <ele>491.1</ele>
        <time>2016-05-04T15:06:25Z</time>
      </trkpt>
      <trkpt lat="44.13329" lon="2.27781">
        <ele>490.9</ele>
        <time>2016-05-04T15:06:26Z</time>
      </trkpt>
      <trkpt lat="44.13329" lon="2.27781">
        <ele>491</ele>
        <time>2016-05-04T15:06:27Z</time>
      </trkpt>
      <trkpt lat="44.13329" lon="2.27781">
        <ele>491.1</ele>
        <time>2016-05-04T15:06:28Z</time>
      </trkpt>
      <trkpt lat="44.13329" lon="2.27781">
        <ele>491.2</ele>
        <time>2016-05-04T15:06:29Z</time>
      </trkpt>
      <trkpt lat="44.13329" lon="2.27781">
        <ele>491.2</ele>
        <time>2016-05-04T15:06:30Z</time>
      </trkpt>
      <trkpt lat="44.13329" lon="2.27781">
        <ele>491.3</ele>
        <time>2016-05-04T15:06:31Z</time>
      </trkpt>
      <trkpt lat="44.13328" lon="2.27781">
        <ele>491.3</ele>
        <time>2016-05-04T15:06:32Z</time>
      </trkpt>
      <trkpt lat="44.13327" lon="2.2778">
        <ele>491.3</ele>
        <time>2016-05-04T15:06:33Z</time>
      </trkpt>
      <trkpt lat="44.13308" lon="2.27769">
        <ele>491</ele>
        <time>2016-05-04T15:06:49Z</time>
      </trkpt>
      <trkpt lat="44.13307" lon="2.27768">
        <ele>491.1</ele>
        <time>2016-05-04T15:06:50Z</time>
      </trkpt>
      <trkpt lat="44.13304" lon="2.27766">
        <ele>491.2</ele>
        <time>2016-05-04T15:06:52Z</time>
      </trkpt>
      <trkpt lat="44.13264" lon="2.27736">
        <ele>488.5</ele>
        <time>2016-05-04T15:07:30Z</time>
      </trkpt>
      <trkpt lat="44.13264" lon="2.27736">
        <ele>488.6</ele>
        <time>2016-05-04T15:07:31Z</time>
      </trkpt>
      <trkpt lat="44.13264" lon="2.27736">
        <ele>488.6</ele>
        <time>2016-05-04T15:07:32Z</time>
      </trkpt>
      <trkpt lat="44.13264" lon="2.27736">
        <ele>488.7</ele>
        <time>2016-05-04T15:07:33Z</time>
      </trkpt>
      <trkpt lat="44.13264" lon="2.27736">
        <ele>488.7</ele>
        <time>2016-05-04T15:07:34Z</time>
      </trkpt>
      <trkpt lat="44.13264" lon="2.27736">
        <ele>488.7</ele>
        <time>2016-05-04T15:07:35Z</time>
      </trkpt>
      <trkpt lat="44.13264" lon="2.27736">
        <ele>488.9</ele>
        <time>2016-05-04T15:07:36Z</time>
      </trkpt>
      <trkpt lat="44.13264" lon="2.27736">
        <ele>489.1</ele>
        <time>2016-05-04T15:07:37Z</time>
      </trkpt>
      <trkpt lat="44.13264" lon="2.27736">
        <ele>489.2</ele>
        <time>2016-05-04T15:07:38Z</time>
      </trkpt>
      <trkpt lat="44.13263" lon="2.27735">
        <ele>489.3</ele>
        <time>2016-05-04T15:07:39Z</time>
      </trkpt>
      <trkpt lat="44.13241" lon="2.27711">
        <ele>487.4</ele>
        <time>2016-05-04T15:08:04Z</time>
      </trkpt>
      <trkpt lat="44.13237" lon="2.27706">
        <ele>487.1</ele>
        <time>2016-05-04T15:08:08Z</time>
      </trkpt>
      <trkpt lat="44.13201" lon="2.27641">
        <ele>482.6</ele>
        <time>2016-05-04T15:08:56Z</time>
      </trkpt>
      <trkpt lat="44.132" lon="2.27639">
        <ele>482.6</ele>
        <time>2016-05-04T15:08:57Z</time>
      </trkpt>
      <trkpt lat="44.13184" lon="2.27599">
        <ele>478.9</ele>
        <time>2016-05-04T15:09:25Z</time>
      </trkpt>
      <trkpt lat="44.13184" lon="2.27599">
        <ele>478.8</ele>
        <time>2016-05-04T15:09:26Z</time>
      </trkpt>
      <trkpt lat="44.13184" lon="2.27599">
        <ele>478.9</ele>
        <time>2016-05-04T15:09:27Z</time>
      </trkpt>
      <trkpt lat="44.13184" lon="2.27599">
        <ele>479</ele>
        <time>2016-05-04T15:09:28Z</time>
      </trkpt>
      <trkpt lat="44.13184" lon="2.27599">
        <ele>479</ele>
        <time>2016-05-04T15:09:29Z</time>
      </trkpt>
      <trkpt lat="44.13184" lon="2.27599">
        <ele>479.1</ele>
        <time>2016-05-04T15:09:30Z</time>
      </trkpt>
      <trkpt lat="44.13184" lon="2.27599">
        <ele>479.1</ele>
        <time>2016-05-04T15:09:31Z</time>
      </trkpt>
      <trkpt lat="44.13184" lon="2.27599">
        <ele>479.1</ele>
        <time>2016-05-04T15:09:32Z</time>
      </trkpt>
      <trkpt lat="44.13184" lon="2.27599">
        <ele>478.9</ele>
        <time>2016-05-04T15:09:33Z</time>
      </trkpt>
      <trkpt lat="44.13184" lon="2.27599">
        <ele>478.8</ele>
        <time>2016-05-04T15:09:34Z</time>
      </trkpt>
      <trkpt lat="44.13184" lon="2.27599">
        <ele>478.7</ele>
        <time>2016-05-04T15:09:35Z</time>
      </trkpt>
      <trkpt lat="44.13184" lon="2.27599">
        <ele>478.4</ele>
        <time>2016-05-04T15:09:36Z</time>
      </trkpt>
      <trkpt lat="44.13184" lon="2.27599">
        <ele>478.2</ele>
        <time>2016-05-04T15:09:37Z</time>
      </trkpt>
      <trkpt lat="44.13184" lon="2.27599">
        <ele>478</ele>
        <time>2016-05-04T15:09:38Z</time>
      </trkpt>
      <trkpt lat="44.13184" lon="2.27599">
        <ele>478.3</ele>
        <time>2016-05-04T15:09:39Z</time>
      </trkpt>
      <trkpt lat="44.13184" lon="2.27599">
        <ele>478.5</ele>
        <time>2016-05-04T15:09:40Z</time>
      </trkpt>
      <trkpt lat="44.13184" lon="2.27599">
        <ele>478.7</ele>
        <time>2016-05-04T15:09:41Z</time>
      </trkpt>
      <trkpt lat="44.13184" lon="2.27599">
        <ele>478.8</ele>
        <time>2016-05-04T15:09:42Z</time>
      </trkpt>
      <trkpt lat="44.13185" lon="2.27598">
        <ele>478.9</ele>
        <time>2016-05-04T15:09:43Z</time>
      </trkpt>
      <trkpt lat="44.13185" lon="2.27598">
        <ele>479</ele>
        <time>2016-05-04T15:09:44Z</time>
      </trkpt>
      <trkpt lat="44.13185" lon="2.27598">
        <ele>479.1</ele>
        <time>2016-05-04T15:09:45Z</time>
      </trkpt>
      <trkpt lat="44.13185" lon="2.27598">
        <ele>479.1</ele>
        <time>2016-05-04T15:09:46Z</time>
      </trkpt>
      <trkpt lat="44.13185" lon="2.27598">
        <ele>479.1</ele>
        <time>2016-05-04T15:09:47Z</time>
      </trkpt>
      <trkpt lat="44.13185" lon="2.27597">
        <ele>478.9</ele>
        <time>2016-05-04T15:09:48Z</time>
      </trkpt>
      <trkpt lat="44.13185" lon="2.27597">
        <ele>478.8</ele>
        <time>2016-05-04T15:09:49Z</time>
      </trkpt>
      <trkpt lat="44.13186" lon="2.27597">
        <ele>478.7</ele>
        <time>2016-05-04T15:09:50Z</time>
      </trkpt>
      <trkpt lat="44.13186" lon="2.27597">
        <ele>478.6</ele>
        <time>2016-05-04T15:09:51Z</time>
      </trkpt>
      <trkpt lat="44.13186" lon="2.27597">
        <ele>478.5</ele>
        <time>2016-05-04T15:09:52Z</time>
      </trkpt>
      <trkpt lat="44.13186" lon="2.27597">
        <ele>478.5</ele>
        <time>2016-05-04T15:09:53Z</time>
      </trkpt>
      <trkpt lat="44.13186" lon="2.27597">
        <ele>478.5</ele>
        <time>2016-05-04T15:09:54Z</time>
      </trkpt>
      <trkpt lat="44.13186" lon="2.27597">
        <ele>478.4</ele>
        <time>2016-05-04T15:09:55Z</time>
      </trkpt>
      <trkpt lat="44.13186" lon="2.27596">
        <ele>478.4</ele>
        <time>2016-05-04T15:09:56Z</time>
      </trkpt>
      <trkpt lat="44.13186" lon="2.27596">
        <ele>478.6</ele>
        <time>2016-05-04T15:09:57Z</time>
      </trkpt>
      <trkpt lat="44.13186" lon="2.27596">
        <ele>478.8</ele>
        <time>2016-05-04T15:09:58Z</time>
      </trkpt>
      <trkpt lat="44.13186" lon="2.27595">
        <ele>478.9</ele>
        <time>2016-05-04T15:09:59Z</time>
      </trkpt>
      <trkpt lat="44.13186" lon="2.27594">
        <ele>478.7</ele>
        <time>2016-05-04T15:10:00Z</time>
      </trkpt>
      <trkpt lat="44.13186" lon="2.27593">
        <ele>478.6</ele>
        <time>2016-05-04T15:10:01Z</time>
      </trkpt>
      <trkpt lat="44.13185" lon="2.27592">
        <ele>478.6</ele>
        <time>2016-05-04T15:10:02Z</time>
      </trkpt>
      <trkpt lat="44.13184" lon="2.2759">
        <ele>478.9</ele>
        <time>2016-05-04T15:10:04Z</time>
      </trkpt>
      <trkpt lat="44.13182" lon="2.27584">
        <ele>478.9</ele>
        <time>2016-05-04T15:10:09Z</time>
      </trkpt>
      <trkpt lat="44.13181" lon="2.27583">
        <ele>478.8</ele>
        <time>2016-05-04T15:10:10Z</time>
      </trkpt>
      <trkpt lat="44.13181" lon="2.27581">
        <ele>478.2</ele>
        <time>2016-05-04T15:10:12Z</time>
      </trkpt>
      <trkpt lat="44.1318" lon="2.27579">
        <ele>477.5</ele>
        <time>2016-05-04T15:10:14Z</time>
      </trkpt>
      <trkpt lat="44.13179" lon="2.27578">
        <ele>477.7</ele>
        <time>2016-05-04T15:10:15Z</time>
      </trkpt>
      <trkpt lat="44.13178" lon="2.27577">
        <ele>477.9</ele>
        <time>2016-05-04T15:10:16Z</time>
      </trkpt>
      <trkpt lat="44.13176" lon="2.27577">
        <ele>477.6</ele>
        <time>2016-05-04T15:10:18Z</time>
      </trkpt>
      <trkpt lat="44.13174" lon="2.27577">
        <ele>477.2</ele>
        <time>2016-05-04T15:10:20Z</time>
      </trkpt>
      <trkpt lat="44.13167" lon="2.27579">
        <ele>477.2</ele>
        <time>2016-05-04T15:10:26Z</time>
      </trkpt>
      <trkpt lat="44.13166" lon="2.27578">
        <ele>477.3</ele>
        <time>2016-05-04T15:10:27Z</time>
      </trkpt>
      <trkpt lat="44.13159" lon="2.27574">
        <ele>477.9</ele>
        <time>2016-05-04T15:10:32Z</time>
      </trkpt>
      <trkpt lat="44.13155" lon="2.27569">
        <ele>477.4</ele>
        <time>2016-05-04T15:10:36Z</time>
      </trkpt>
      <trkpt lat="44.13149" lon="2.27563">
        <ele>476.7</ele>
        <time>2016-05-04T15:10:42Z</time>
      </trkpt>
      <trkpt lat="44.13145" lon="2.27558">
        <ele>475.9</ele>
        <time>2016-05-04T15:10:45Z</time>
      </trkpt>
      <trkpt lat="44.13142" lon="2.27553">
        <ele>475.8</ele>
        <time>2016-05-04T15:10:48Z</time>
      </trkpt>
      <trkpt lat="44.1314" lon="2.27549">
        <ele>475.8</ele>
        <time>2016-05-04T15:10:50Z</time>
      </trkpt>
      <trkpt lat="44.13128" lon="2.27523">
        <ele>474.1</ele>
        <time>2016-05-04T15:11:08Z</time>
      </trkpt>
      <trkpt lat="44.13127" lon="2.27523">
        <ele>473.9</ele>
        <time>2016-05-04T15:11:09Z</time>
      </trkpt>
      <trkpt lat="44.13116" lon="2.27494">
        <ele>472.3</ele>
        <time>2016-05-04T15:11:27Z</time>
      </trkpt>
      <trkpt lat="44.13115" lon="2.27491">
        <ele>471.9</ele>
        <time>2016-05-04T15:11:29Z</time>
      </trkpt>
      <trkpt lat="44.13112" lon="2.27481">
        <ele>471.7</ele>
        <time>2016-05-04T15:11:35Z</time>
      </trkpt>
      <trkpt lat="44.13111" lon="2.27469">
        <ele>470.8</ele>
        <time>2016-05-04T15:11:41Z</time>
      </trkpt>
      <trkpt lat="44.13111" lon="2.27465">
        <ele>470.3</ele>
        <time>2016-05-04T15:11:43Z</time>
      </trkpt>
      <trkpt lat="44.1311" lon="2.27451">
        <ele>469.8</ele>
        <time>2016-05-04T15:11:50Z</time>
      </trkpt>
      <trkpt lat="44.1311" lon="2.27449">
        <ele>469.3</ele>
        <time>2016-05-04T15:11:51Z</time>
      </trkpt>
      <trkpt lat="44.13109" lon="2.27446">
        <ele>468.7</ele>
        <time>2016-05-04T15:11:53Z</time>
      </trkpt>
      <trkpt lat="44.13109" lon="2.27444">
        <ele>468.5</ele>
        <time>2016-05-04T15:11:54Z</time>
      </trkpt>
      <trkpt lat="44.13108" lon="2.27443">
        <ele>468.4</ele>
        <time>2016-05-04T15:11:55Z</time>
      </trkpt>
      <trkpt lat="44.13107" lon="2.27439">
        <ele>468.5</ele>
        <time>2016-05-04T15:11:58Z</time>
      </trkpt>
      <trkpt lat="44.13106" lon="2.27437">
        <ele>468.6</ele>
        <time>2016-05-04T15:11:59Z</time>
      </trkpt>
      <trkpt lat="44.13102" lon="2.27426">
        <ele>467.6</ele>
        <time>2016-05-04T15:12:07Z</time>
      </trkpt>
      <trkpt lat="44.1309" lon="2.27383">
        <ele>466.4</ele>
        <time>2016-05-04T15:12:31Z</time>
      </trkpt>
      <trkpt lat="44.1309" lon="2.27382">
        <ele>466.3</ele>
        <time>2016-05-04T15:12:32Z</time>
      </trkpt>
      <trkpt lat="44.13089" lon="2.2738">
        <ele>466.5</ele>
        <time>2016-05-04T15:12:33Z</time>
      </trkpt>
      <trkpt lat="44.13089" lon="2.27379">
        <ele>466.7</ele>
        <time>2016-05-04T15:12:34Z</time>
      </trkpt>
      <trkpt lat="44.13088" lon="2.27377">
        <ele>466.9</ele>
        <time>2016-05-04T15:12:36Z</time>
      </trkpt>
      <trkpt lat="44.13086" lon="2.27373">
        <ele>467</ele>
        <time>2016-05-04T15:12:38Z</time>
      </trkpt>
      <trkpt lat="44.13079" lon="2.27345">
        <ele>465.5</ele>
        <time>2016-05-04T15:12:55Z</time>
      </trkpt>
      <trkpt lat="44.13079" lon="2.27345">
        <ele>465.4</ele>
        <time>2016-05-04T15:12:56Z</time>
      </trkpt>
      <trkpt lat="44.13078" lon="2.27344">
        <ele>465.4</ele>
        <time>2016-05-04T15:12:57Z</time>
      </trkpt>
      <trkpt lat="44.13078" lon="2.27344">
        <ele>465.4</ele>
        <time>2016-05-04T15:12:58Z</time>
      </trkpt>
      <trkpt lat="44.13077" lon="2.27344">
        <ele>465.4</ele>
        <time>2016-05-04T15:12:59Z</time>
      </trkpt>
      <trkpt lat="44.13076" lon="2.27346">
        <ele>465.4</ele>
        <time>2016-05-04T15:13:01Z</time>
      </trkpt>
      <trkpt lat="44.13076" lon="2.27347">
        <ele>465.4</ele>
        <time>2016-05-04T15:13:02Z</time>
      </trkpt>
      <trkpt lat="44.13076" lon="2.27348">
        <ele>465.4</ele>
        <time>2016-05-04T15:13:03Z</time>
      </trkpt>
      <trkpt lat="44.13076" lon="2.2735">
        <ele>465.4</ele>
        <time>2016-05-04T15:13:04Z</time>
      </trkpt>
      <trkpt lat="44.13077" lon="2.27351">
        <ele>465.4</ele>
        <time>2016-05-04T15:13:05Z</time>
      </trkpt>
      <trkpt lat="44.13077" lon="2.27352">
        <ele>465.4</ele>
        <time>2016-05-04T15:13:06Z</time>
      </trkpt>
      <trkpt lat="44.13078" lon="2.27353">
        <ele>465.4</ele>
        <time>2016-05-04T15:13:07Z</time>
      </trkpt>
      <trkpt lat="44.13079" lon="2.27355">
        <ele>465.4</ele>
        <time>2016-05-04T15:13:08Z</time>
      </trkpt>
      <trkpt lat="44.13079" lon="2.27356">
        <ele>465.8</ele>
        <time>2016-05-04T15:13:09Z</time>
      </trkpt>
      <trkpt lat="44.1308" lon="2.27357">
        <ele>466.1</ele>
        <time>2016-05-04T15:13:10Z</time>
      </trkpt>
      <trkpt lat="44.13081" lon="2.27358">
        <ele>466.4</ele>
        <time>2016-05-04T15:13:11Z</time>
      </trkpt>
      <trkpt lat="44.13082" lon="2.27359">
        <ele>466.3</ele>
        <time>2016-05-04T15:13:12Z</time>
      </trkpt>
      <trkpt lat="44.13082" lon="2.2736">
        <ele>466.3</ele>
        <time>2016-05-04T15:13:13Z</time>
      </trkpt>
      <trkpt lat="44.13083" lon="2.27362">
        <ele>466.3</ele>
        <time>2016-05-04T15:13:14Z</time>
      </trkpt>
      <trkpt lat="44.13084" lon="2.27363">
        <ele>466.5</ele>
        <time>2016-05-04T15:13:15Z</time>
      </trkpt>
      <trkpt lat="44.13085" lon="2.27364">
        <ele>466.6</ele>
        <time>2016-05-04T15:13:16Z</time>
      </trkpt>
      <trkpt lat="44.13085" lon="2.27365">
        <ele>466.8</ele>
        <time>2016-05-04T15:13:17Z</time>
      </trkpt>
      <trkpt lat="44.13086" lon="2.27366">
        <ele>466.6</ele>
        <time>2016-05-04T15:13:18Z</time>
      </trkpt>
      <trkpt lat="44.13086" lon="2.27367">
        <ele>466.5</ele>
        <time>2016-05-04T15:13:19Z</time>
      </trkpt>
      <trkpt lat="44.13095" lon="2.27385">
        <ele>467.1</ele>
        <time>2016-05-04T15:13:33Z</time>
      </trkpt>
      <trkpt lat="44.13096" lon="2.27386">
        <ele>467.1</ele>
        <time>2016-05-04T15:13:34Z</time>
      </trkpt>
      <trkpt lat="44.13111" lon="2.27432">
        <ele>468.9</ele>
        <time>2016-05-04T15:14:02Z</time>
      </trkpt>
      <trkpt lat="44.13112" lon="2.27445">
        <ele>469.3</ele>
        <time>2016-05-04T15:14:08Z</time>
      </trkpt>
      <trkpt lat="44.13112" lon="2.27453">
        <ele>469</ele>
        <time>2016-05-04T15:14:11Z</time>
      </trkpt>
      <trkpt lat="44.13113" lon="2.27463">
        <ele>470.6</ele>
        <time>2016-05-04T15:14:16Z</time>
      </trkpt>
      <trkpt lat="44.13114" lon="2.27467">
        <ele>470.7</ele>
        <time>2016-05-04T15:14:18Z</time>
      </trkpt>
      <trkpt lat="44.13123" lon="2.27507">
        <ele>472.6</ele>
        <time>2016-05-04T15:14:42Z</time>
      </trkpt>
      <trkpt lat="44.13124" lon="2.27508">
        <ele>473</ele>
        <time>2016-05-04T15:14:43Z</time>
      </trkpt>
      <trkpt lat="44.13138" lon="2.27544">
        <ele>475.1</ele>
        <time>2016-05-04T15:15:06Z</time>
      </trkpt>
      <trkpt lat="44.13141" lon="2.2755">
        <ele>476.3</ele>
        <time>2016-05-04T15:15:10Z</time>
      </trkpt>
      <trkpt lat="44.13148" lon="2.27561">
        <ele>476.6</ele>
        <time>2016-05-04T15:15:18Z</time>
      </trkpt>
      <trkpt lat="44.1315" lon="2.27564">
        <ele>476.9</ele>
        <time>2016-05-04T15:15:21Z</time>
      </trkpt>
      <trkpt lat="44.13157" lon="2.27572">
        <ele>477.4</ele>
        <time>2016-05-04T15:15:27Z</time>
      </trkpt>
      <trkpt lat="44.13162" lon="2.27577">
        <ele>478.4</ele>
        <time>2016-05-04T15:15:34Z</time>
      </trkpt>
      <trkpt lat="44.13163" lon="2.27578">
        <ele>478.6</ele>
        <time>2016-05-04T15:15:35Z</time>
      </trkpt>
      <trkpt lat="44.13163" lon="2.27578">
        <ele>478.6</ele>
        <time>2016-05-04T15:15:36Z</time>
      </trkpt>
      <trkpt lat="44.13164" lon="2.27581">
        <ele>478.7</ele>
        <time>2016-05-04T15:15:39Z</time>
      </trkpt>
      <trkpt lat="44.13166" lon="2.27585">
        <ele>479.1</ele>
        <time>2016-05-04T15:15:44Z</time>
      </trkpt>
      <trkpt lat="44.13166" lon="2.27585">
        <ele>478.9</ele>
        <time>2016-05-04T15:15:45Z</time>
      </trkpt>
      <trkpt lat="44.13166" lon="2.27585">
        <ele>478.8</ele>
        <time>2016-05-04T15:15:46Z</time>
      </trkpt>
      <trkpt lat="44.13166" lon="2.27586">
        <ele>478.7</ele>
        <time>2016-05-04T15:15:47Z</time>
      </trkpt>
      <trkpt lat="44.13166" lon="2.27586">
        <ele>478.6</ele>
        <time>2016-05-04T15:15:48Z</time>
      </trkpt>
      <trkpt lat="44.13166" lon="2.27586">
        <ele>478.5</ele>
        <time>2016-05-04T15:15:49Z</time>
      </trkpt>
      <trkpt lat="44.13166" lon="2.27587">
        <ele>478.5</ele>
        <time>2016-05-04T15:15:50Z</time>
      </trkpt>
      <trkpt lat="44.13167" lon="2.27588">
        <ele>478.5</ele>
        <time>2016-05-04T15:15:51Z</time>
      </trkpt>
      <trkpt lat="44.13167" lon="2.27588">
        <ele>478.4</ele>
        <time>2016-05-04T15:15:52Z</time>
      </trkpt>
      <trkpt lat="44.13167" lon="2.27589">
        <ele>478.4</ele>
        <time>2016-05-04T15:15:53Z</time>
      </trkpt>
      <trkpt lat="44.13167" lon="2.2759">
        <ele>478.4</ele>
        <time>2016-05-04T15:15:54Z</time>
      </trkpt>
      <trkpt lat="44.13167" lon="2.2759">
        <ele>478.4</ele>
        <time>2016-05-04T15:15:55Z</time>
      </trkpt>
      <trkpt lat="44.13167" lon="2.2759">
        <ele>478.4</ele>
        <time>2016-05-04T15:15:56Z</time>
      </trkpt>
      <trkpt lat="44.13167" lon="2.2759">
        <ele>478.6</ele>
        <time>2016-05-04T15:15:57Z</time>
      </trkpt>
      <trkpt lat="44.13167" lon="2.2759">
        <ele>478.7</ele>
        <time>2016-05-04T15:15:58Z</time>
      </trkpt>
      <trkpt lat="44.13167" lon="2.27591">
        <ele>478.9</ele>
        <time>2016-05-04T15:15:59Z</time>
      </trkpt>
      <trkpt lat="44.13167" lon="2.27591">
        <ele>478.7</ele>
        <time>2016-05-04T15:16:00Z</time>
      </trkpt>
      <trkpt lat="44.13169" lon="2.27602">
        <ele>479.8</ele>
        <time>2016-05-04T15:16:08Z</time>
      </trkpt>
      <trkpt lat="44.1317" lon="2.27611">
        <ele>479.7</ele>
        <time>2016-05-04T15:16:13Z</time>
      </trkpt>
      <trkpt lat="44.1317" lon="2.27616">
        <ele>479.6</ele>
        <time>2016-05-04T15:16:16Z</time>
      </trkpt>
      <trkpt lat="44.13168" lon="2.27631">
        <ele>478.8</ele>
        <time>2016-05-04T15:16:24Z</time>
      </trkpt>
      <trkpt lat="44.13167" lon="2.27635">
        <ele>478.6</ele>
        <time>2016-05-04T15:16:26Z</time>
      </trkpt>
      <trkpt lat="44.13153" lon="2.27668">
        <ele>478.3</ele>
        <time>2016-05-04T15:16:45Z</time>
      </trkpt>
      <trkpt lat="44.13152" lon="2.2767">
        <ele>478.3</ele>
        <time>2016-05-04T15:16:46Z</time>
      </trkpt>
      <trkpt lat="44.1311" lon="2.27771">
        <ele>482.9</ele>
        <time>2016-05-04T15:17:48Z</time>
      </trkpt>
      <trkpt lat="44.1311" lon="2.27771">
        <ele>483.1</ele>
        <time>2016-05-04T15:17:49Z</time>
      </trkpt>
      <trkpt lat="44.13107" lon="2.27774">
        <ele>483</ele>
        <time>2016-05-04T15:17:52Z</time>
      </trkpt>
      <trkpt lat="44.13102" lon="2.27777">
        <ele>483.3</ele>
        <time>2016-05-04T15:17:56Z</time>
      </trkpt>
      <trkpt lat="44.13098" lon="2.27779">
        <ele>483.4</ele>
        <time>2016-05-04T15:17:59Z</time>
      </trkpt>
      <trkpt lat="44.13091" lon="2.2778">
        <ele>482.6</ele>
        <time>2016-05-04T15:18:04Z</time>
      </trkpt>
      <trkpt lat="44.13081" lon="2.2778">
        <ele>481.6</ele>
        <time>2016-05-04T15:18:13Z</time>
      </trkpt>
      <trkpt lat="44.13075" lon="2.27779">
        <ele>481.7</ele>
        <time>2016-05-04T15:18:19Z</time>
      </trkpt>
      <trkpt lat="44.13075" lon="2.27779">
        <ele>481.8</ele>
        <time>2016-05-04T15:18:20Z</time>
      </trkpt>
      <trkpt lat="44.13075" lon="2.27779">
        <ele>481.6</ele>
        <time>2016-05-04T15:18:21Z</time>
      </trkpt>
      <trkpt lat="44.13075" lon="2.27779">
        <ele>481.4</ele>
        <time>2016-05-04T15:18:22Z</time>
      </trkpt>
      <trkpt lat="44.13074" lon="2.27779">
        <ele>481.3</ele>
        <time>2016-05-04T15:18:23Z</time>
      </trkpt>
      <trkpt lat="44.13074" lon="2.27779">
        <ele>481.2</ele>
        <time>2016-05-04T15:18:24Z</time>
      </trkpt>
      <trkpt lat="44.13074" lon="2.27779">
        <ele>481.1</ele>
        <time>2016-05-04T15:18:25Z</time>
      </trkpt>
      <trkpt lat="44.13024" lon="2.27773">
        <ele>478.9</ele>
        <time>2016-05-04T15:19:02Z</time>
      </trkpt>
      <trkpt lat="44.13022" lon="2.27773">
        <ele>479</ele>
        <time>2016-05-04T15:19:03Z</time>
      </trkpt>
      <trkpt lat="44.12985" lon="2.27768">
        <ele>476.5</ele>
        <time>2016-05-04T15:19:30Z</time>
      </trkpt>
      <trkpt lat="44.12968" lon="2.27758">
        <ele>476.3</ele>
        <time>2016-05-04T15:19:43Z</time>
      </trkpt>
      <trkpt lat="44.12964" lon="2.27755">
        <ele>476</ele>
        <time>2016-05-04T15:19:47Z</time>
      </trkpt>
      <trkpt lat="44.12941" lon="2.27737">
        <ele>475.3</ele>
        <time>2016-05-04T15:20:06Z</time>
      </trkpt>
      <trkpt lat="44.12941" lon="2.27736">
        <ele>475.4</ele>
        <time>2016-05-04T15:20:07Z</time>
      </trkpt>
      <trkpt lat="44.12886" lon="2.27676">
        <ele>473.3</ele>
        <time>2016-05-04T15:20:56Z</time>
      </trkpt>
      <trkpt lat="44.12879" lon="2.27669">
        <ele>473.7</ele>
        <time>2016-05-04T15:21:02Z</time>
      </trkpt>
      <trkpt lat="44.12819" lon="2.2762">
        <ele>467.5</ele>
        <time>2016-05-04T15:21:53Z</time>
      </trkpt>
      <trkpt lat="44.12818" lon="2.27619">
        <ele>467.2</ele>
        <time>2016-05-04T15:21:54Z</time>
      </trkpt>
      <trkpt lat="44.12812" lon="2.2761">
        <ele>466.1</ele>
        <time>2016-05-04T15:22:01Z</time>
      </trkpt>
      <trkpt lat="44.12803" lon="2.27596">
        <ele>465.7</ele>
        <time>2016-05-04T15:22:11Z</time>
      </trkpt>
      <trkpt lat="44.12802" lon="2.27596">
        <ele>465.2</ele>
        <time>2016-05-04T15:22:12Z</time>
      </trkpt>
      <trkpt lat="44.12799" lon="2.27595">
        <ele>464.7</ele>
        <time>2016-05-04T15:22:15Z</time>
      </trkpt>
      <trkpt lat="44.12796" lon="2.27595">
        <ele>465</ele>
        <time>2016-05-04T15:22:17Z</time>
      </trkpt>
      <trkpt lat="44.12792" lon="2.27595">
        <ele>464.2</ele>
        <time>2016-05-04T15:22:20Z</time>
      </trkpt>
      <trkpt lat="44.12789" lon="2.27593">
        <ele>464</ele>
        <time>2016-05-04T15:22:22Z</time>
      </trkpt>
      <trkpt lat="44.12787" lon="2.27591">
        <ele>463.8</ele>
        <time>2016-05-04T15:22:24Z</time>
      </trkpt>
      <trkpt lat="44.12784" lon="2.27585">
        <ele>463.3</ele>
        <time>2016-05-04T15:22:28Z</time>
      </trkpt>
      <trkpt lat="44.12782" lon="2.27579">
        <ele>463.4</ele>
        <time>2016-05-04T15:22:32Z</time>
      </trkpt>
      <trkpt lat="44.12775" lon="2.27545">
        <ele>462.2</ele>
        <time>2016-05-04T15:22:51Z</time>
      </trkpt>
      <trkpt lat="44.12768" lon="2.275">
        <ele>461.3</ele>
        <time>2016-05-04T15:23:15Z</time>
      </trkpt>
      <trkpt lat="44.12767" lon="2.27498">
        <ele>461.2</ele>
        <time>2016-05-04T15:23:16Z</time>
      </trkpt>
      <trkpt lat="44.1276" lon="2.27456">
        <ele>460.5</ele>
        <time>2016-05-04T15:23:38Z</time>
      </trkpt>
      <trkpt lat="44.12759" lon="2.27381">
        <ele>454.2</ele>
        <time>2016-05-04T15:24:17Z</time>
      </trkpt>
      <trkpt lat="44.12759" lon="2.27379">
        <ele>453.7</ele>
        <time>2016-05-04T15:24:18Z</time>
      </trkpt>
      <trkpt lat="44.1276" lon="2.27346">
        <ele>451.8</ele>
        <time>2016-05-04T15:24:38Z</time>
      </trkpt>
      <trkpt lat="44.1276" lon="2.27343">
        <ele>451.7</ele>
        <time>2016-05-04T15:24:40Z</time>
      </trkpt>
      <trkpt lat="44.12759" lon="2.27322">
        <ele>449.5</ele>
        <time>2016-05-04T15:24:51Z</time>
      </trkpt>
      <trkpt lat="44.12759" lon="2.27307">
        <ele>448.5</ele>
        <time>2016-05-04T15:24:59Z</time>
      </trkpt>
      <trkpt lat="44.12759" lon="2.27305">
        <ele>448.6</ele>
        <time>2016-05-04T15:25:00Z</time>
      </trkpt>
      <trkpt lat="44.12761" lon="2.27254">
        <ele>444.5</ele>
        <time>2016-05-04T15:25:29Z</time>
      </trkpt>
      <trkpt lat="44.12761" lon="2.27251">
        <ele>444.3</ele>
        <time>2016-05-04T15:25:30Z</time>
      </trkpt>
      <trkpt lat="44.12766" lon="2.27237">
        <ele>443.5</ele>
        <time>2016-05-04T15:25:36Z</time>
      </trkpt>
      <trkpt lat="44.12767" lon="2.27235">
        <ele>443.3</ele>
        <time>2016-05-04T15:25:37Z</time>
      </trkpt>
      <trkpt lat="44.12768" lon="2.27233">
        <ele>443.2</ele>
        <time>2016-05-04T15:25:38Z</time>
      </trkpt>
      <trkpt lat="44.12768" lon="2.27231">
        <ele>443.1</ele>
        <time>2016-05-04T15:25:39Z</time>
      </trkpt>
      <trkpt lat="44.12769" lon="2.27229">
        <ele>443.1</ele>
        <time>2016-05-04T15:25:40Z</time>
      </trkpt>
      <trkpt lat="44.12769" lon="2.27227">
        <ele>442.6</ele>
        <time>2016-05-04T15:25:41Z</time>
      </trkpt>
      <trkpt lat="44.12785" lon="2.27153">
        <ele>436.4</ele>
        <time>2016-05-04T15:26:21Z</time>
      </trkpt>
      <trkpt lat="44.12785" lon="2.27151">
        <ele>436.3</ele>
        <time>2016-05-04T15:26:22Z</time>
      </trkpt>
      <trkpt lat="44.12786" lon="2.27147">
        <ele>436.2</ele>
        <time>2016-05-04T15:26:24Z</time>
      </trkpt>
      <trkpt lat="44.12786" lon="2.27141">
        <ele>435.5</ele>
        <time>2016-05-04T15:26:28Z</time>
      </trkpt>
      <trkpt lat="44.12786" lon="2.27136">
        <ele>435.4</ele>
        <time>2016-05-04T15:26:32Z</time>
      </trkpt>
      <trkpt lat="44.12785" lon="2.27135">
        <ele>435.1</ele>
        <time>2016-05-04T15:26:33Z</time>
      </trkpt>
      <trkpt lat="44.12786" lon="2.27117">
        <ele>434.1</ele>
        <time>2016-05-04T15:26:44Z</time>
      </trkpt>
      <trkpt lat="44.12787" lon="2.27115">
        <ele>433.5</ele>
        <time>2016-05-04T15:26:45Z</time>
      </trkpt>
      <trkpt lat="44.12788" lon="2.27113">
        <ele>433</ele>
        <time>2016-05-04T15:26:46Z</time>
      </trkpt>
      <trkpt lat="44.12789" lon="2.27111">
        <ele>432.7</ele>
        <time>2016-05-04T15:26:47Z</time>
      </trkpt>
      <trkpt lat="44.12789" lon="2.27109">
        <ele>432.4</ele>
        <time>2016-05-04T15:26:48Z</time>
      </trkpt>
      <trkpt lat="44.1279" lon="2.27108">
        <ele>432.2</ele>
        <time>2016-05-04T15:26:49Z</time>
      </trkpt>
      <trkpt lat="44.1279" lon="2.27106">
        <ele>432.1</ele>
        <time>2016-05-04T15:26:50Z</time>
      </trkpt>
      <trkpt lat="44.12791" lon="2.27104">
        <ele>432</ele>
        <time>2016-05-04T15:26:51Z</time>
      </trkpt>
      <trkpt lat="44.12791" lon="2.27103">
        <ele>431.9</ele>
        <time>2016-05-04T15:26:52Z</time>
      </trkpt>
      <trkpt lat="44.12792" lon="2.27101">
        <ele>431.6</ele>
        <time>2016-05-04T15:26:53Z</time>
      </trkpt>
      <trkpt lat="44.12793" lon="2.271">
        <ele>431.4</ele>
        <time>2016-05-04T15:26:54Z</time>
      </trkpt>
      <trkpt lat="44.12793" lon="2.27098">
        <ele>431.3</ele>
        <time>2016-05-04T15:26:55Z</time>
      </trkpt>
      <trkpt lat="44.12794" lon="2.27096">
        <ele>430.9</ele>
        <time>2016-05-04T15:26:56Z</time>
      </trkpt>
      <trkpt lat="44.12794" lon="2.27094">
        <ele>430.7</ele>
        <time>2016-05-04T15:26:57Z</time>
      </trkpt>
      <trkpt lat="44.12795" lon="2.27092">
        <ele>430.5</ele>
        <time>2016-05-04T15:26:58Z</time>
      </trkpt>
      <trkpt lat="44.12796" lon="2.2709">
        <ele>430.4</ele>
        <time>2016-05-04T15:26:59Z</time>
      </trkpt>
      <trkpt lat="44.12798" lon="2.27087">
        <ele>430.3</ele>
        <time>2016-05-04T15:27:00Z</time>
      </trkpt>
      <trkpt lat="44.128" lon="2.27085">
        <ele>430.2</ele>
        <time>2016-05-04T15:27:01Z</time>
      </trkpt>
      <trkpt lat="44.12802" lon="2.27082">
        <ele>429.9</ele>
        <time>2016-05-04T15:27:02Z</time>
      </trkpt>
      <trkpt lat="44.12803" lon="2.2708">
        <ele>429.7</ele>
        <time>2016-05-04T15:27:03Z</time>
      </trkpt>
      <trkpt lat="44.12805" lon="2.27078">
        <ele>429.5</ele>
        <time>2016-05-04T15:27:04Z</time>
      </trkpt>
      <trkpt lat="44.12806" lon="2.27077">
        <ele>429.4</ele>
        <time>2016-05-04T15:27:05Z</time>
      </trkpt>
      <trkpt lat="44.12808" lon="2.27075">
        <ele>429.3</ele>
        <time>2016-05-04T15:27:06Z</time>
      </trkpt>
      <trkpt lat="44.12809" lon="2.27073">
        <ele>429.3</ele>
        <time>2016-05-04T15:27:07Z</time>
      </trkpt>
      <trkpt lat="44.1281" lon="2.27072">
        <ele>429.4</ele>
        <time>2016-05-04T15:27:08Z</time>
      </trkpt>
      <trkpt lat="44.1281" lon="2.2707">
        <ele>429.6</ele>
        <time>2016-05-04T15:27:09Z</time>
      </trkpt>
      <trkpt lat="44.12811" lon="2.27069">
        <ele>429.7</ele>
        <time>2016-05-04T15:27:10Z</time>
      </trkpt>
      <trkpt lat="44.12812" lon="2.27067">
        <ele>429.5</ele>
        <time>2016-05-04T15:27:11Z</time>
      </trkpt>
      <trkpt lat="44.12813" lon="2.27066">
        <ele>429.4</ele>
        <time>2016-05-04T15:27:12Z</time>
      </trkpt>
      <trkpt lat="44.12814" lon="2.27064">
        <ele>429.3</ele>
        <time>2016-05-04T15:27:13Z</time>
      </trkpt>
      <trkpt lat="44.12815" lon="2.27062">
        <ele>428.8</ele>
        <time>2016-05-04T15:27:14Z</time>
      </trkpt>
      <trkpt lat="44.12817" lon="2.27061">
        <ele>428.5</ele>
        <time>2016-05-04T15:27:15Z</time>
      </trkpt>
      <trkpt lat="44.12817" lon="2.27059">
        <ele>428.2</ele>
        <time>2016-05-04T15:27:16Z</time>
      </trkpt>
      <trkpt lat="44.12818" lon="2.27058">
        <ele>428</ele>
        <time>2016-05-04T15:27:17Z</time>
      </trkpt>
      <trkpt lat="44.12819" lon="2.27056">
        <ele>427.8</ele>
        <time>2016-05-04T15:27:18Z</time>
      </trkpt>
      <trkpt lat="44.12849" lon="2.27">
        <ele>422.7</ele>
        <time>2016-05-04T15:27:57Z</time>
      </trkpt>
      <trkpt lat="44.1285" lon="2.26999">
        <ele>422.6</ele>
        <time>2016-05-04T15:27:58Z</time>
      </trkpt>
      <trkpt lat="44.12906" lon="2.26879">
        <ele>412.2</ele>
        <time>2016-05-04T15:29:09Z</time>
      </trkpt>
      <trkpt lat="44.12965" lon="2.26761">
        <ele>401.3</ele>
        <time>2016-05-04T15:30:23Z</time>
      </trkpt>
      <trkpt lat="44.12969" lon="2.26757">
        <ele>400.7</ele>
        <time>2016-05-04T15:30:26Z</time>
      </trkpt>
      <trkpt lat="44.1298" lon="2.26744">
        <ele>399.7</ele>
        <time>2016-05-04T15:30:36Z</time>
      </trkpt>
      <trkpt lat="44.1298" lon="2.26744">
        <ele>399.7</ele>
        <time>2016-05-04T15:30:37Z</time>
      </trkpt>
      <trkpt lat="44.12981" lon="2.26743">
        <ele>399.5</ele>
        <time>2016-05-04T15:30:38Z</time>
      </trkpt>
      <trkpt lat="44.12984" lon="2.26739">
        <ele>399</ele>
        <time>2016-05-04T15:30:41Z</time>
      </trkpt>
      <trkpt lat="44.12985" lon="2.26737">
        <ele>398.7</ele>
        <time>2016-05-04T15:30:42Z</time>
      </trkpt>
      <trkpt lat="44.12986" lon="2.26734">
        <ele>398.2</ele>
        <time>2016-05-04T15:30:44Z</time>
      </trkpt>
      <trkpt lat="44.12987" lon="2.2673">
        <ele>397.8</ele>
        <time>2016-05-04T15:30:46Z</time>
      </trkpt>
      <trkpt lat="44.12988" lon="2.26729">
        <ele>398.3</ele>
        <time>2016-05-04T15:30:47Z</time>
      </trkpt>
      <trkpt lat="44.12988" lon="2.26725">
        <ele>399</ele>
        <time>2016-05-04T15:30:49Z</time>
      </trkpt>
      <trkpt lat="44.12988" lon="2.26717">
        <ele>399.2</ele>
        <time>2016-05-04T15:30:55Z</time>
      </trkpt>
      <trkpt lat="44.12988" lon="2.26717">
        <ele>398.7</ele>
        <time>2016-05-04T15:30:56Z</time>
      </trkpt>
      <trkpt lat="44.12988" lon="2.26717">
        <ele>398.3</ele>
        <time>2016-05-04T15:30:57Z</time>
      </trkpt>
      <trkpt lat="44.12989" lon="2.26717">
        <ele>398</ele>
        <time>2016-05-04T15:30:58Z</time>
      </trkpt>
      <trkpt lat="44.12989" lon="2.26716">
        <ele>398</ele>
        <time>2016-05-04T15:30:59Z</time>
      </trkpt>
      <trkpt lat="44.12989" lon="2.26716">
        <ele>398.1</ele>
        <time>2016-05-04T15:31:00Z</time>
      </trkpt>
      <trkpt lat="44.1299" lon="2.26716">
        <ele>398.1</ele>
        <time>2016-05-04T15:31:01Z</time>
      </trkpt>
      <trkpt lat="44.1299" lon="2.26716">
        <ele>398.3</ele>
        <time>2016-05-04T15:31:02Z</time>
      </trkpt>
      <trkpt lat="44.1299" lon="2.26716">
        <ele>398.4</ele>
        <time>2016-05-04T15:31:03Z</time>
      </trkpt>
      <trkpt lat="44.1299" lon="2.26716">
        <ele>398.6</ele>
        <time>2016-05-04T15:31:04Z</time>
      </trkpt>
      <trkpt lat="44.1299" lon="2.26715">
        <ele>398.4</ele>
        <time>2016-05-04T15:31:05Z</time>
      </trkpt>
      <trkpt lat="44.12991" lon="2.26715">
        <ele>398.4</ele>
        <time>2016-05-04T15:31:06Z</time>
      </trkpt>
      <trkpt lat="44.12991" lon="2.26715">
        <ele>398.3</ele>
        <time>2016-05-04T15:31:07Z</time>
      </trkpt>
      <trkpt lat="44.12991" lon="2.26715">
        <ele>398.2</ele>
        <time>2016-05-04T15:31:08Z</time>
      </trkpt>
      <trkpt lat="44.12991" lon="2.26715">
        <ele>398.2</ele>
        <time>2016-05-04T15:31:09Z</time>
      </trkpt>
      <trkpt lat="44.12991" lon="2.26714">
        <ele>398.2</ele>
        <time>2016-05-04T15:31:10Z</time>
      </trkpt>
      <trkpt lat="44.12991" lon="2.26714">
        <ele>398.1</ele>
        <time>2016-05-04T15:31:11Z</time>
      </trkpt>
      <trkpt lat="44.12991" lon="2.26714">
        <ele>398.1</ele>
        <time>2016-05-04T15:31:12Z</time>
      </trkpt>
      <trkpt lat="44.12991" lon="2.26714">
        <ele>398.1</ele>
        <time>2016-05-04T15:31:13Z</time>
      </trkpt>
      <trkpt lat="44.12991" lon="2.26713">
        <ele>397.7</ele>
        <time>2016-05-04T15:31:14Z</time>
      </trkpt>
      <trkpt lat="44.1299" lon="2.26713">
        <ele>397.3</ele>
        <time>2016-05-04T15:31:15Z</time>
      </trkpt>
      <trkpt lat="44.1299" lon="2.26713">
        <ele>397.1</ele>
        <time>2016-05-04T15:31:16Z</time>
      </trkpt>
      <trkpt lat="44.1299" lon="2.26713">
        <ele>397.3</ele>
        <time>2016-05-04T15:31:17Z</time>
      </trkpt>
      <trkpt lat="44.1299" lon="2.26712">
        <ele>397.5</ele>
        <time>2016-05-04T15:31:18Z</time>
      </trkpt>
      <trkpt lat="44.1299" lon="2.26712">
        <ele>397.7</ele>
        <time>2016-05-04T15:31:19Z</time>
      </trkpt>
      <trkpt lat="44.1299" lon="2.26711">
        <ele>397.8</ele>
        <time>2016-05-04T15:31:20Z</time>
      </trkpt>
      <trkpt lat="44.1299" lon="2.26711">
        <ele>397.8</ele>
        <time>2016-05-04T15:31:21Z</time>
      </trkpt>
      <trkpt lat="44.1299" lon="2.26711">
        <ele>397.9</ele>
        <time>2016-05-04T15:31:22Z</time>
      </trkpt>
      <trkpt lat="44.1299" lon="2.2671">
        <ele>397.9</ele>
        <time>2016-05-04T15:31:23Z</time>
      </trkpt>
      <trkpt lat="44.1299" lon="2.2671">
        <ele>398</ele>
        <time>2016-05-04T15:31:24Z</time>
      </trkpt>
      <trkpt lat="44.1299" lon="2.2671">
        <ele>398</ele>
        <time>2016-05-04T15:31:25Z</time>
      </trkpt>
      <trkpt lat="44.1299" lon="2.26709">
        <ele>398.2</ele>
        <time>2016-05-04T15:31:26Z</time>
      </trkpt>
      <trkpt lat="44.12991" lon="2.26709">
        <ele>398.4</ele>
        <time>2016-05-04T15:31:27Z</time>
      </trkpt>
      <trkpt lat="44.12991" lon="2.26709">
        <ele>398.5</ele>
        <time>2016-05-04T15:31:28Z</time>
      </trkpt>
      <trkpt lat="44.12991" lon="2.26709">
        <ele>398.4</ele>
        <time>2016-05-04T15:31:29Z</time>
      </trkpt>
      <trkpt lat="44.12991" lon="2.26709">
        <ele>398.3</ele>
        <time>2016-05-04T15:31:30Z</time>
      </trkpt>
      <trkpt lat="44.12991" lon="2.26708">
        <ele>398.3</ele>
        <time>2016-05-04T15:31:31Z</time>
      </trkpt>
      <trkpt lat="44.12992" lon="2.26708">
        <ele>398.2</ele>
        <time>2016-05-04T15:31:32Z</time>
      </trkpt>
      <trkpt lat="44.12992" lon="2.26708">
        <ele>398.2</ele>
        <time>2016-05-04T15:31:33Z</time>
      </trkpt>
      <trkpt lat="44.12992" lon="2.26708">
        <ele>398.2</ele>
        <time>2016-05-04T15:31:34Z</time>
      </trkpt>
      <trkpt lat="44.12992" lon="2.26709">
        <ele>398.1</ele>
        <time>2016-05-04T15:31:35Z</time>
      </trkpt>
      <trkpt lat="44.12992" lon="2.26709">
        <ele>398.1</ele>
        <time>2016-05-04T15:31:36Z</time>
      </trkpt>
      <trkpt lat="44.12992" lon="2.26709">
        <ele>398.1</ele>
        <time>2016-05-04T15:31:37Z</time>
      </trkpt>
      <trkpt lat="44.12993" lon="2.2671">
        <ele>397.5</ele>
        <time>2016-05-04T15:31:41Z</time>
      </trkpt>
      <trkpt lat="44.12993" lon="2.2671">
        <ele>397.4</ele>
        <time>2016-05-04T15:31:42Z</time>
      </trkpt>
      <trkpt lat="44.12993" lon="2.2671">
        <ele>397.4</ele>
        <time>2016-05-04T15:31:43Z</time>
      </trkpt>
      <trkpt lat="44.12993" lon="2.2671">
        <ele>397.3</ele>
        <time>2016-05-04T15:31:44Z</time>
      </trkpt>
      <trkpt lat="44.12993" lon="2.2671">
        <ele>397.3</ele>
        <time>2016-05-04T15:31:45Z</time>
      </trkpt>
      <trkpt lat="44.12993" lon="2.2671">
        <ele>397.3</ele>
        <time>2016-05-04T15:31:46Z</time>
      </trkpt>
      <trkpt lat="44.12993" lon="2.26711">
        <ele>397.1</ele>
        <time>2016-05-04T15:31:47Z</time>
      </trkpt>
      <trkpt lat="44.12993" lon="2.26711">
        <ele>396.9</ele>
        <time>2016-05-04T15:31:48Z</time>
      </trkpt>
      <trkpt lat="44.12993" lon="2.26711">
        <ele>397.1</ele>
        <time>2016-05-04T15:31:53Z</time>
      </trkpt>
      <trkpt lat="44.12993" lon="2.26711">
        <ele>397.1</ele>
        <time>2016-05-04T15:31:55Z</time>
      </trkpt>
      <trkpt lat="44.12993" lon="2.26711">
        <ele>397.2</ele>
        <time>2016-05-04T15:31:56Z</time>
      </trkpt>
      <trkpt lat="44.12993" lon="2.26711">
        <ele>397.2</ele>
        <time>2016-05-04T15:31:57Z</time>
      </trkpt>
      <trkpt lat="44.12993" lon="2.26711">
        <ele>397.2</ele>
        <time>2016-05-04T15:31:58Z</time>
      </trkpt>
      <trkpt lat="44.12993" lon="2.26711">
        <ele>397.4</ele>
        <time>2016-05-04T15:31:59Z</time>
      </trkpt>
      <trkpt lat="44.12993" lon="2.26711">
        <ele>397.6</ele>
        <time>2016-05-04T15:32:00Z</time>
      </trkpt>
      <trkpt lat="44.12993" lon="2.26712">
        <ele>397.7</ele>
        <time>2016-05-04T15:32:01Z</time>
      </trkpt>
      <trkpt lat="44.12993" lon="2.26712">
        <ele>397.8</ele>
        <time>2016-05-04T15:32:02Z</time>
      </trkpt>
      <trkpt lat="44.12993" lon="2.26712">
        <ele>397.9</ele>
        <time>2016-05-04T15:32:03Z</time>
      </trkpt>
      <trkpt lat="44.12993" lon="2.26712">
        <ele>397.9</ele>
        <time>2016-05-04T15:32:04Z</time>
      </trkpt>
      <trkpt lat="44.12993" lon="2.26712">
        <ele>398</ele>
        <time>2016-05-04T15:32:05Z</time>
      </trkpt>
      <trkpt lat="44.12993" lon="2.26712">
        <ele>398</ele>
        <time>2016-05-04T15:32:07Z</time>
      </trkpt>
      <trkpt lat="44.12993" lon="2.26712">
        <ele>398</ele>
        <time>2016-05-04T15:32:08Z</time>
      </trkpt>
      <trkpt lat="44.12993" lon="2.26712">
        <ele>398</ele>
        <time>2016-05-04T15:32:10Z</time>
      </trkpt>
      <trkpt lat="44.12993" lon="2.26713">
        <ele>398.1</ele>
        <time>2016-05-04T15:32:11Z</time>
      </trkpt>
      <trkpt lat="44.12993" lon="2.26713">
        <ele>398.1</ele>
        <time>2016-05-04T15:32:12Z</time>
      </trkpt>
      <trkpt lat="44.12993" lon="2.26713">
        <ele>398.1</ele>
        <time>2016-05-04T15:32:13Z</time>
      </trkpt>
      <trkpt lat="44.12993" lon="2.26713">
        <ele>398.1</ele>
        <time>2016-05-04T15:32:14Z</time>
      </trkpt>
      <trkpt lat="44.12993" lon="2.26713">
        <ele>398.1</ele>
        <time>2016-05-04T15:32:15Z</time>
      </trkpt>
      <trkpt lat="44.12994" lon="2.26714">
        <ele>398.6</ele>
        <time>2016-05-04T15:32:46Z</time>
      </trkpt>
      <trkpt lat="44.12995" lon="2.26714">
        <ele>398.4</ele>
        <time>2016-05-04T15:32:47Z</time>
      </trkpt>
      <trkpt lat="44.12995" lon="2.26714">
        <ele>398.3</ele>
        <time>2016-05-04T15:32:48Z</time>
      </trkpt>
      <trkpt lat="44.12995" lon="2.26714">
        <ele>398.3</ele>
        <time>2016-05-04T15:32:49Z</time>
      </trkpt>
      <trkpt lat="44.12995" lon="2.26714">
        <ele>398.2</ele>
        <time>2016-05-04T15:32:50Z</time>
      </trkpt>
      <trkpt lat="44.12994" lon="2.26713">
        <ele>398.2</ele>
        <time>2016-05-04T15:32:51Z</time>
      </trkpt>
      <trkpt lat="44.12993" lon="2.26713">
        <ele>398.2</ele>
        <time>2016-05-04T15:32:52Z</time>
      </trkpt>
      <trkpt lat="44.12993" lon="2.26712">
        <ele>398.1</ele>
        <time>2016-05-04T15:32:53Z</time>
      </trkpt>
      <trkpt lat="44.12992" lon="2.26711">
        <ele>398.1</ele>
        <time>2016-05-04T15:32:54Z</time>
      </trkpt>
      <trkpt lat="44.12991" lon="2.26709">
        <ele>398.1</ele>
        <time>2016-05-04T15:32:55Z</time>
      </trkpt>
      <trkpt lat="44.12991" lon="2.26707">
        <ele>398.3</ele>
        <time>2016-05-04T15:32:56Z</time>
      </trkpt>
      <trkpt lat="44.12991" lon="2.26706">
        <ele>398.5</ele>
        <time>2016-05-04T15:32:57Z</time>
      </trkpt>
      <trkpt lat="44.1299" lon="2.26704">
        <ele>398.6</ele>
        <time>2016-05-04T15:32:58Z</time>
      </trkpt>
      <trkpt lat="44.12991" lon="2.26702">
        <ele>398.9</ele>
        <time>2016-05-04T15:32:59Z</time>
      </trkpt>
      <trkpt lat="44.12991" lon="2.267">
        <ele>399.1</ele>
        <time>2016-05-04T15:33:00Z</time>
      </trkpt>
      <trkpt lat="44.12991" lon="2.26698">
        <ele>399.3</ele>
        <time>2016-05-04T15:33:01Z</time>
      </trkpt>
      <trkpt lat="44.12991" lon="2.26696">
        <ele>399.2</ele>
        <time>2016-05-04T15:33:02Z</time>
      </trkpt>
      <trkpt lat="44.12991" lon="2.26694">
        <ele>399.1</ele>
        <time>2016-05-04T15:33:03Z</time>
      </trkpt>
      <trkpt lat="44.12992" lon="2.26692">
        <ele>399.1</ele>
        <time>2016-05-04T15:33:04Z</time>
      </trkpt>
      <trkpt lat="44.12992" lon="2.2669">
        <ele>399</ele>
        <time>2016-05-04T15:33:05Z</time>
      </trkpt>
      <trkpt lat="44.12992" lon="2.26688">
        <ele>399</ele>
        <time>2016-05-04T15:33:06Z</time>
      </trkpt>
      <trkpt lat="44.12992" lon="2.26687">
        <ele>399</ele>
        <time>2016-05-04T15:33:07Z</time>
      </trkpt>
      <trkpt lat="44.12992" lon="2.26685">
        <ele>399</ele>
        <time>2016-05-04T15:33:08Z</time>
      </trkpt>
      <trkpt lat="44.12992" lon="2.26683">
        <ele>399</ele>
        <time>2016-05-04T15:33:09Z</time>
      </trkpt>
      <trkpt lat="44.12992" lon="2.26678">
        <ele>399.3</ele>
        <time>2016-05-04T15:33:12Z</time>
      </trkpt>
      <trkpt lat="44.12991" lon="2.26658">
        <ele>400.5</ele>
        <time>2016-05-04T15:33:24Z</time>
      </trkpt>
      <trkpt lat="44.12991" lon="2.26656">
        <ele>400.7</ele>
        <time>2016-05-04T15:33:25Z</time>
      </trkpt>
      <trkpt lat="44.1299" lon="2.26647">
        <ele>400.7</ele>
        <time>2016-05-04T15:33:30Z</time>
      </trkpt>
      <trkpt lat="44.1299" lon="2.26635">
        <ele>401.7</ele>
        <time>2016-05-04T15:33:35Z</time>
      </trkpt>
      <trkpt lat="44.1299" lon="2.2663">
        <ele>402.4</ele>
        <time>2016-05-04T15:33:37Z</time>
      </trkpt>
      <trkpt lat="44.12986" lon="2.26599">
        <ele>402</ele>
        <time>2016-05-04T15:33:52Z</time>
      </trkpt>
      <trkpt lat="44.12986" lon="2.26598">
        <ele>401.9</ele>
        <time>2016-05-04T15:33:53Z</time>
      </trkpt>
      <trkpt lat="44.12981" lon="2.26566">
        <ele>404.5</ele>
        <time>2016-05-04T15:34:09Z</time>
      </trkpt>
      <trkpt lat="44.12981" lon="2.26564">
        <ele>404.6</ele>
        <time>2016-05-04T15:34:10Z</time>
      </trkpt>
      <trkpt lat="44.12968" lon="2.26504">
        <ele>406.1</ele>
        <time>2016-05-04T15:34:44Z</time>
      </trkpt>
      <trkpt lat="44.12967" lon="2.26503">
        <ele>406</ele>
        <time>2016-05-04T15:34:45Z</time>
      </trkpt>
      <trkpt lat="44.12951" lon="2.26449">
        <ele>407.9</ele>
        <time>2016-05-04T15:35:14Z</time>
      </trkpt>
      <trkpt lat="44.12951" lon="2.26447">
        <ele>408</ele>
        <time>2016-05-04T15:35:15Z</time>
      </trkpt>
      <trkpt lat="44.12938" lon="2.26391">
        <ele>409.8</ele>
        <time>2016-05-04T15:35:45Z</time>
      </trkpt>
      <trkpt lat="44.12938" lon="2.26378">
        <ele>409.9</ele>
        <time>2016-05-04T15:35:52Z</time>
      </trkpt>
      <trkpt lat="44.12938" lon="2.26376">
        <ele>410.2</ele>
        <time>2016-05-04T15:35:53Z</time>
      </trkpt>
      <trkpt lat="44.12938" lon="2.26374">
        <ele>410.4</ele>
        <time>2016-05-04T15:35:54Z</time>
      </trkpt>
      <trkpt lat="44.12939" lon="2.26372">
        <ele>410.5</ele>
        <time>2016-05-04T15:35:55Z</time>
      </trkpt>
      <trkpt lat="44.12939" lon="2.2637">
        <ele>410.2</ele>
        <time>2016-05-04T15:35:56Z</time>
      </trkpt>
      <trkpt lat="44.1294" lon="2.26368">
        <ele>410</ele>
        <time>2016-05-04T15:35:57Z</time>
      </trkpt>
      <trkpt lat="44.1294" lon="2.26366">
        <ele>409.8</ele>
        <time>2016-05-04T15:35:58Z</time>
      </trkpt>
      <trkpt lat="44.1294" lon="2.26364">
        <ele>409.9</ele>
        <time>2016-05-04T15:35:59Z</time>
      </trkpt>
      <trkpt lat="44.1294" lon="2.26362">
        <ele>409.9</ele>
        <time>2016-05-04T15:36:00Z</time>
      </trkpt>
      <trkpt lat="44.1294" lon="2.2636">
        <ele>410</ele>
        <time>2016-05-04T15:36:01Z</time>
      </trkpt>
      <trkpt lat="44.12939" lon="2.26307">
        <ele>408.5</ele>
        <time>2016-05-04T15:36:31Z</time>
      </trkpt>
      <trkpt lat="44.12939" lon="2.26305">
        <ele>408.2</ele>
        <time>2016-05-04T15:36:32Z</time>
      </trkpt>
      <trkpt lat="44.12939" lon="2.26302">
        <ele>407.9</ele>
        <time>2016-05-04T15:36:34Z</time>
      </trkpt>
      <trkpt lat="44.12937" lon="2.26291">
        <ele>406.7</ele>
        <time>2016-05-04T15:36:41Z</time>
      </trkpt>
      <trkpt lat="44.12937" lon="2.26288">
        <ele>407.1</ele>
        <time>2016-05-04T15:36:43Z</time>
      </trkpt>
      <trkpt lat="44.12936" lon="2.26282">
        <ele>406</ele>
        <time>2016-05-04T15:36:47Z</time>
      </trkpt>
      <trkpt lat="44.12935" lon="2.26281">
        <ele>405.7</ele>
        <time>2016-05-04T15:36:48Z</time>
      </trkpt>
      <trkpt lat="44.12935" lon="2.26278">
        <ele>405.4</ele>
        <time>2016-05-04T15:36:50Z</time>
      </trkpt>
      <trkpt lat="44.12934" lon="2.26275">
        <ele>405.2</ele>
        <time>2016-05-04T15:36:52Z</time>
      </trkpt>
      <trkpt lat="44.12934" lon="2.26273">
        <ele>405.1</ele>
        <time>2016-05-04T15:36:53Z</time>
      </trkpt>
      <trkpt lat="44.12933" lon="2.26272">
        <ele>405.1</ele>
        <time>2016-05-04T15:36:54Z</time>
      </trkpt>
      <trkpt lat="44.12933" lon="2.2627">
        <ele>405.1</ele>
        <time>2016-05-04T15:36:55Z</time>
      </trkpt>
      <trkpt lat="44.12931" lon="2.26265">
        <ele>405</ele>
        <time>2016-05-04T15:36:58Z</time>
      </trkpt>
      <trkpt lat="44.12931" lon="2.26263">
        <ele>404.8</ele>
        <time>2016-05-04T15:36:59Z</time>
      </trkpt>
      <trkpt lat="44.12931" lon="2.26261">
        <ele>404.6</ele>
        <time>2016-05-04T15:37:00Z</time>
      </trkpt>
      <trkpt lat="44.12931" lon="2.26259">
        <ele>404.5</ele>
        <time>2016-05-04T15:37:01Z</time>
      </trkpt>
      <trkpt lat="44.1293" lon="2.26257">
        <ele>404.2</ele>
        <time>2016-05-04T15:37:02Z</time>
      </trkpt>
      <trkpt lat="44.1293" lon="2.26255">
        <ele>403.9</ele>
        <time>2016-05-04T15:37:03Z</time>
      </trkpt>
      <trkpt lat="44.12929" lon="2.26253">
        <ele>403.8</ele>
        <time>2016-05-04T15:37:04Z</time>
      </trkpt>
      <trkpt lat="44.12928" lon="2.26252">
        <ele>403.6</ele>
        <time>2016-05-04T15:37:05Z</time>
      </trkpt>
      <trkpt lat="44.12928" lon="2.2625">
        <ele>403.5</ele>
        <time>2016-05-04T15:37:06Z</time>
      </trkpt>
      <trkpt lat="44.12927" lon="2.26249">
        <ele>403.5</ele>
        <time>2016-05-04T15:37:07Z</time>
      </trkpt>
      <trkpt lat="44.12924" lon="2.26246">
        <ele>403</ele>
        <time>2016-05-04T15:37:09Z</time>
      </trkpt>
      <trkpt lat="44.12917" lon="2.26235">
        <ele>402.5</ele>
        <time>2016-05-04T15:37:15Z</time>
      </trkpt>
      <trkpt lat="44.12914" lon="2.26223">
        <ele>401.2</ele>
        <time>2016-05-04T15:37:20Z</time>
      </trkpt>
      <trkpt lat="44.12914" lon="2.26221">
        <ele>401.1</ele>
        <time>2016-05-04T15:37:21Z</time>
      </trkpt>
      <trkpt lat="44.12914" lon="2.26219">
        <ele>401</ele>
        <time>2016-05-04T15:37:22Z</time>
      </trkpt>
      <trkpt lat="44.12913" lon="2.26218">
        <ele>400.9</ele>
        <time>2016-05-04T15:37:23Z</time>
      </trkpt>
      <trkpt lat="44.12913" lon="2.26216">
        <ele>400.8</ele>
        <time>2016-05-04T15:37:24Z</time>
      </trkpt>
      <trkpt lat="44.12912" lon="2.26215">
        <ele>400.8</ele>
        <time>2016-05-04T15:37:25Z</time>
      </trkpt>
      <trkpt lat="44.12912" lon="2.26213">
        <ele>400.1</ele>
        <time>2016-05-04T15:37:26Z</time>
      </trkpt>
      <trkpt lat="44.12911" lon="2.26212">
        <ele>399.6</ele>
        <time>2016-05-04T15:37:27Z</time>
      </trkpt>
      <trkpt lat="44.1291" lon="2.2621">
        <ele>399.2</ele>
        <time>2016-05-04T15:37:28Z</time>
      </trkpt>
      <trkpt lat="44.12905" lon="2.26184">
        <ele>398.1</ele>
        <time>2016-05-04T15:37:41Z</time>
      </trkpt>
      <trkpt lat="44.12905" lon="2.26182">
        <ele>397.9</ele>
        <time>2016-05-04T15:37:42Z</time>
      </trkpt>
      <trkpt lat="44.12899" lon="2.26154">
        <ele>397.7</ele>
        <time>2016-05-04T15:37:57Z</time>
      </trkpt>
      <trkpt lat="44.12898" lon="2.26153">
        <ele>397.8</ele>
        <time>2016-05-04T15:37:58Z</time>
      </trkpt>
      <trkpt lat="44.12894" lon="2.26135">
        <ele>396.6</ele>
        <time>2016-05-04T15:38:07Z</time>
      </trkpt>
      <trkpt lat="44.12892" lon="2.26122">
        <ele>395.7</ele>
        <time>2016-05-04T15:38:12Z</time>
      </trkpt>
      <trkpt lat="44.12889" lon="2.26088">
        <ele>391.3</ele>
        <time>2016-05-04T15:38:31Z</time>
      </trkpt>
      <trkpt lat="44.12889" lon="2.26086">
        <ele>391</ele>
        <time>2016-05-04T15:38:32Z</time>
      </trkpt>
      <trkpt lat="44.12889" lon="2.26085">
        <ele>390.9</ele>
        <time>2016-05-04T15:38:33Z</time>
      </trkpt>
      <trkpt lat="44.12889" lon="2.26053">
        <ele>386.1</ele>
        <time>2016-05-04T15:38:52Z</time>
      </trkpt>
      <trkpt lat="44.12889" lon="2.26051">
        <ele>385.6</ele>
        <time>2016-05-04T15:38:53Z</time>
      </trkpt>
      <trkpt lat="44.12886" lon="2.26025">
        <ele>381.1</ele>
        <time>2016-05-04T15:39:08Z</time>
      </trkpt>
      <trkpt lat="44.12885" lon="2.26008">
        <ele>379.7</ele>
        <time>2016-05-04T15:39:18Z</time>
      </trkpt>
      <trkpt lat="44.12884" lon="2.26005">
        <ele>379.6</ele>
        <time>2016-05-04T15:39:19Z</time>
      </trkpt>
      <trkpt lat="44.12883" lon="2.25984">
        <ele>376.2</ele>
        <time>2016-05-04T15:39:32Z</time>
      </trkpt>
      <trkpt lat="44.12886" lon="2.25969">
        <ele>373.7</ele>
        <time>2016-05-04T15:39:39Z</time>
      </trkpt>
      <trkpt lat="44.12886" lon="2.25967">
        <ele>373.6</ele>
        <time>2016-05-04T15:39:40Z</time>
      </trkpt>
      <trkpt lat="44.12886" lon="2.25965">
        <ele>373.3</ele>
        <time>2016-05-04T15:39:41Z</time>
      </trkpt>
      <trkpt lat="44.12886" lon="2.25964">
        <ele>373</ele>
        <time>2016-05-04T15:39:42Z</time>
      </trkpt>
      <trkpt lat="44.12886" lon="2.2596">
        <ele>372.3</ele>
        <time>2016-05-04T15:39:44Z</time>
      </trkpt>
      <trkpt lat="44.12886" lon="2.25959">
        <ele>371.9</ele>
        <time>2016-05-04T15:39:45Z</time>
      </trkpt>
      <trkpt lat="44.12886" lon="2.25957">
        <ele>371.6</ele>
        <time>2016-05-04T15:39:46Z</time>
      </trkpt>
      <trkpt lat="44.12885" lon="2.25956">
        <ele>371.1</ele>
        <time>2016-05-04T15:39:47Z</time>
      </trkpt>
      <trkpt lat="44.12885" lon="2.25955">
        <ele>370.8</ele>
        <time>2016-05-04T15:39:48Z</time>
      </trkpt>
      <trkpt lat="44.12884" lon="2.25954">
        <ele>370.5</ele>
        <time>2016-05-04T15:39:49Z</time>
      </trkpt>
      <trkpt lat="44.12878" lon="2.2594">
        <ele>367.9</ele>
        <time>2016-05-04T15:39:59Z</time>
      </trkpt>
      <trkpt lat="44.12878" lon="2.25939">
        <ele>367.7</ele>
        <time>2016-05-04T15:40:00Z</time>
      </trkpt>
      <trkpt lat="44.12879" lon="2.25929">
        <ele>367.5</ele>
        <time>2016-05-04T15:40:05Z</time>
      </trkpt>
      <trkpt lat="44.12881" lon="2.25924">
        <ele>367</ele>
        <time>2016-05-04T15:40:07Z</time>
      </trkpt>
      <trkpt lat="44.12882" lon="2.25917">
        <ele>366.3</ele>
        <time>2016-05-04T15:40:09Z</time>
      </trkpt>
      <trkpt lat="44.12883" lon="2.25915">
        <ele>366.1</ele>
        <time>2016-05-04T15:40:10Z</time>
      </trkpt>
      <trkpt lat="44.12883" lon="2.25913">
        <ele>365.7</ele>
        <time>2016-05-04T15:40:11Z</time>
      </trkpt>
      <trkpt lat="44.12884" lon="2.25912">
        <ele>365.4</ele>
        <time>2016-05-04T15:40:12Z</time>
      </trkpt>
      <trkpt lat="44.12885" lon="2.2591">
        <ele>365.2</ele>
        <time>2016-05-04T15:40:13Z</time>
      </trkpt>
      <trkpt lat="44.12886" lon="2.25908">
        <ele>364.9</ele>
        <time>2016-05-04T15:40:14Z</time>
      </trkpt>
      <trkpt lat="44.12887" lon="2.25907">
        <ele>364.6</ele>
        <time>2016-05-04T15:40:15Z</time>
      </trkpt>
      <trkpt lat="44.12888" lon="2.25906">
        <ele>364.4</ele>
        <time>2016-05-04T15:40:16Z</time>
      </trkpt>
      <trkpt lat="44.12889" lon="2.25904">
        <ele>364.2</ele>
        <time>2016-05-04T15:40:17Z</time>
      </trkpt>
      <trkpt lat="44.1289" lon="2.25903">
        <ele>364.1</ele>
        <time>2016-05-04T15:40:18Z</time>
      </trkpt>
      <trkpt lat="44.12891" lon="2.25902">
        <ele>364</ele>
        <time>2016-05-04T15:40:19Z</time>
      </trkpt>
      <trkpt lat="44.12892" lon="2.25901">
        <ele>363.5</ele>
        <time>2016-05-04T15:40:20Z</time>
      </trkpt>
      <trkpt lat="44.12895" lon="2.25899">
        <ele>362.9</ele>
        <time>2016-05-04T15:40:22Z</time>
      </trkpt>
      <trkpt lat="44.12896" lon="2.25898">
        <ele>362.9</ele>
        <time>2016-05-04T15:40:23Z</time>
      </trkpt>
      <trkpt lat="44.12897" lon="2.25897">
        <ele>362.9</ele>
        <time>2016-05-04T15:40:24Z</time>
      </trkpt>
      <trkpt lat="44.12899" lon="2.25897">
        <ele>362.9</ele>
        <time>2016-05-04T15:40:25Z</time>
      </trkpt>
      <trkpt lat="44.12899" lon="2.25896">
        <ele>362.7</ele>
        <time>2016-05-04T15:40:26Z</time>
      </trkpt>
      <trkpt lat="44.12899" lon="2.25896">
        <ele>362.5</ele>
        <time>2016-05-04T15:40:27Z</time>
      </trkpt>
      <trkpt lat="44.129" lon="2.25896">
        <ele>362.4</ele>
        <time>2016-05-04T15:40:28Z</time>
      </trkpt>
      <trkpt lat="44.12901" lon="2.25895">
        <ele>362.3</ele>
        <time>2016-05-04T15:40:29Z</time>
      </trkpt>
      <trkpt lat="44.12901" lon="2.25895">
        <ele>362.2</ele>
        <time>2016-05-04T15:40:30Z</time>
      </trkpt>
      <trkpt lat="44.12902" lon="2.25894">
        <ele>362.2</ele>
        <time>2016-05-04T15:40:31Z</time>
      </trkpt>
      <trkpt lat="44.12904" lon="2.25894">
        <ele>361.4</ele>
        <time>2016-05-04T15:40:33Z</time>
      </trkpt>
      <trkpt lat="44.12907" lon="2.25893">
        <ele>360.9</ele>
        <time>2016-05-04T15:40:35Z</time>
      </trkpt>
      <trkpt lat="44.12909" lon="2.25893">
        <ele>360.6</ele>
        <time>2016-05-04T15:40:37Z</time>
      </trkpt>
      <trkpt lat="44.12909" lon="2.25893">
        <ele>360.6</ele>
        <time>2016-05-04T15:40:38Z</time>
      </trkpt>
      <trkpt lat="44.12913" lon="2.25894">
        <ele>359.4</ele>
        <time>2016-05-04T15:40:43Z</time>
      </trkpt>
      <trkpt lat="44.12915" lon="2.25895">
        <ele>358.9</ele>
        <time>2016-05-04T15:40:46Z</time>
      </trkpt>
      <trkpt lat="44.12918" lon="2.25898">
        <ele>358.2</ele>
        <time>2016-05-04T15:40:49Z</time>
      </trkpt>
      <trkpt lat="44.12921" lon="2.25902">
        <ele>358</ele>
        <time>2016-05-04T15:40:52Z</time>
      </trkpt>
      <trkpt lat="44.12927" lon="2.25912">
        <ele>357.8</ele>
        <time>2016-05-04T15:40:59Z</time>
      </trkpt>
      <trkpt lat="44.12931" lon="2.25919">
        <ele>357.8</ele>
        <time>2016-05-04T15:41:04Z</time>
      </trkpt>
      <trkpt lat="44.12931" lon="2.2592">
        <ele>357.3</ele>
        <time>2016-05-04T15:41:05Z</time>
      </trkpt>
      <trkpt lat="44.12931" lon="2.2592">
        <ele>357</ele>
        <time>2016-05-04T15:41:06Z</time>
      </trkpt>
      <trkpt lat="44.12932" lon="2.25921">
        <ele>356.8</ele>
        <time>2016-05-04T15:41:07Z</time>
      </trkpt>
      <trkpt lat="44.12932" lon="2.25922">
        <ele>357</ele>
        <time>2016-05-04T15:41:08Z</time>
      </trkpt>
      <trkpt lat="44.12933" lon="2.25924">
        <ele>357.2</ele>
        <time>2016-05-04T15:41:09Z</time>
      </trkpt>
      <trkpt lat="44.12933" lon="2.25925">
        <ele>357.3</ele>
        <time>2016-05-04T15:41:10Z</time>
      </trkpt>
      <trkpt lat="44.12934" lon="2.25926">
        <ele>357.2</ele>
        <time>2016-05-04T15:41:11Z</time>
      </trkpt>
      <trkpt lat="44.12934" lon="2.25927">
        <ele>357.1</ele>
        <time>2016-05-04T15:41:12Z</time>
      </trkpt>
      <trkpt lat="44.12934" lon="2.25928">
        <ele>357.1</ele>
        <time>2016-05-04T15:41:13Z</time>
      </trkpt>
      <trkpt lat="44.12934" lon="2.25929">
        <ele>357.2</ele>
        <time>2016-05-04T15:41:14Z</time>
      </trkpt>
      <trkpt lat="44.12935" lon="2.2593">
        <ele>357.4</ele>
        <time>2016-05-04T15:41:15Z</time>
      </trkpt>
      <trkpt lat="44.12935" lon="2.2593">
        <ele>357.5</ele>
        <time>2016-05-04T15:41:16Z</time>
      </trkpt>
      <trkpt lat="44.12935" lon="2.25931">
        <ele>357.3</ele>
        <time>2016-05-04T15:41:17Z</time>
      </trkpt>
      <trkpt lat="44.12935" lon="2.25931">
        <ele>357.2</ele>
        <time>2016-05-04T15:41:18Z</time>
      </trkpt>
      <trkpt lat="44.12935" lon="2.25932">
        <ele>357.1</ele>
        <time>2016-05-04T15:41:19Z</time>
      </trkpt>
      <trkpt lat="44.12935" lon="2.25932">
        <ele>357.3</ele>
        <time>2016-05-04T15:41:20Z</time>
      </trkpt>
      <trkpt lat="44.12935" lon="2.25932">
        <ele>357.4</ele>
        <time>2016-05-04T15:41:21Z</time>
      </trkpt>
      <trkpt lat="44.12935" lon="2.25932">
        <ele>357.5</ele>
        <time>2016-05-04T15:41:22Z</time>
      </trkpt>
      <trkpt lat="44.12935" lon="2.25932">
        <ele>357.3</ele>
        <time>2016-05-04T15:41:23Z</time>
      </trkpt>
      <trkpt lat="44.12936" lon="2.25933">
        <ele>357.2</ele>
        <time>2016-05-04T15:41:24Z</time>
      </trkpt>
      <trkpt lat="44.12936" lon="2.25933">
        <ele>357.1</ele>
        <time>2016-05-04T15:41:25Z</time>
      </trkpt>
      <trkpt lat="44.12936" lon="2.25934">
        <ele>357.1</ele>
        <time>2016-05-04T15:41:26Z</time>
      </trkpt>
      <trkpt lat="44.12936" lon="2.25934">
        <ele>357</ele>
        <time>2016-05-04T15:41:27Z</time>
      </trkpt>
      <trkpt lat="44.12936" lon="2.25935">
        <ele>357</ele>
        <time>2016-05-04T15:41:28Z</time>
      </trkpt>
      <trkpt lat="44.12937" lon="2.25936">
        <ele>357</ele>
        <time>2016-05-04T15:41:29Z</time>
      </trkpt>
      <trkpt lat="44.12937" lon="2.25936">
        <ele>356.9</ele>
        <time>2016-05-04T15:41:30Z</time>
      </trkpt>
      <trkpt lat="44.12937" lon="2.25937">
        <ele>356.9</ele>
        <time>2016-05-04T15:41:31Z</time>
      </trkpt>
      <trkpt lat="44.12937" lon="2.25937">
        <ele>357.1</ele>
        <time>2016-05-04T15:41:32Z</time>
      </trkpt>
      <trkpt lat="44.12937" lon="2.25938">
        <ele>357.3</ele>
        <time>2016-05-04T15:41:33Z</time>
      </trkpt>
      <trkpt lat="44.12937" lon="2.25938">
        <ele>357.4</ele>
        <time>2016-05-04T15:41:34Z</time>
      </trkpt>
      <trkpt lat="44.12937" lon="2.25939">
        <ele>357.1</ele>
        <time>2016-05-04T15:41:35Z</time>
      </trkpt>
      <trkpt lat="44.12937" lon="2.25939">
        <ele>356.8</ele>
        <time>2016-05-04T15:41:36Z</time>
      </trkpt>
      <trkpt lat="44.12937" lon="2.25939">
        <ele>356.6</ele>
        <time>2016-05-04T15:41:37Z</time>
      </trkpt>
      <trkpt lat="44.12938" lon="2.25939">
        <ele>356.7</ele>
        <time>2016-05-04T15:41:38Z</time>
      </trkpt>
      <trkpt lat="44.12938" lon="2.25939">
        <ele>356.7</ele>
        <time>2016-05-04T15:41:39Z</time>
      </trkpt>
      <trkpt lat="44.12938" lon="2.2594">
        <ele>356.8</ele>
        <time>2016-05-04T15:41:40Z</time>
      </trkpt>
      <trkpt lat="44.12938" lon="2.2594">
        <ele>356.6</ele>
        <time>2016-05-04T15:41:41Z</time>
      </trkpt>
      <trkpt lat="44.12939" lon="2.2594">
        <ele>356.4</ele>
        <time>2016-05-04T15:41:42Z</time>
      </trkpt>
      <trkpt lat="44.12939" lon="2.2594">
        <ele>356.3</ele>
        <time>2016-05-04T15:41:43Z</time>
      </trkpt>
      <trkpt lat="44.12939" lon="2.2594">
        <ele>356.3</ele>
        <time>2016-05-04T15:41:44Z</time>
      </trkpt>
      <trkpt lat="44.12939" lon="2.2594">
        <ele>356.2</ele>
        <time>2016-05-04T15:41:45Z</time>
      </trkpt>
      <trkpt lat="44.12939" lon="2.25941">
        <ele>356.2</ele>
        <time>2016-05-04T15:41:46Z</time>
      </trkpt>
      <trkpt lat="44.12939" lon="2.25941">
        <ele>356.1</ele>
        <time>2016-05-04T15:41:47Z</time>
      </trkpt>
      <trkpt lat="44.12938" lon="2.25942">
        <ele>356.1</ele>
        <time>2016-05-04T15:41:48Z</time>
      </trkpt>
      <trkpt lat="44.12938" lon="2.25942">
        <ele>356.1</ele>
        <time>2016-05-04T15:41:49Z</time>
      </trkpt>
      <trkpt lat="44.12938" lon="2.25943">
        <ele>356.1</ele>
        <time>2016-05-04T15:41:50Z</time>
      </trkpt>
      <trkpt lat="44.12938" lon="2.25943">
        <ele>356.1</ele>
        <time>2016-05-04T15:41:51Z</time>
      </trkpt>
      <trkpt lat="44.12938" lon="2.25944">
        <ele>356.1</ele>
        <time>2016-05-04T15:41:52Z</time>
      </trkpt>
      <trkpt lat="44.12938" lon="2.25944">
        <ele>356.1</ele>
        <time>2016-05-04T15:41:53Z</time>
      </trkpt>
      <trkpt lat="44.12939" lon="2.25944">
        <ele>356</ele>
        <time>2016-05-04T15:41:54Z</time>
      </trkpt>
      <trkpt lat="44.12939" lon="2.25944">
        <ele>356</ele>
        <time>2016-05-04T15:41:55Z</time>
      </trkpt>
      <trkpt lat="44.12939" lon="2.25944">
        <ele>356.3</ele>
        <time>2016-05-04T15:41:56Z</time>
      </trkpt>
      <trkpt lat="44.12939" lon="2.25944">
        <ele>356.4</ele>
        <time>2016-05-04T15:41:57Z</time>
      </trkpt>
      <trkpt lat="44.12939" lon="2.25944">
        <ele>356.5</ele>
        <time>2016-05-04T15:41:58Z</time>
      </trkpt>
      <trkpt lat="44.12939" lon="2.25944">
        <ele>356.6</ele>
        <time>2016-05-04T15:41:59Z</time>
      </trkpt>
      <trkpt lat="44.12939" lon="2.25944">
        <ele>356.7</ele>
        <time>2016-05-04T15:42:00Z</time>
      </trkpt>
      <trkpt lat="44.1294" lon="2.25944">
        <ele>356.7</ele>
        <time>2016-05-04T15:42:01Z</time>
      </trkpt>
      <trkpt lat="44.1294" lon="2.25944">
        <ele>356.6</ele>
        <time>2016-05-04T15:42:02Z</time>
      </trkpt>
      <trkpt lat="44.1294" lon="2.25944">
        <ele>356.4</ele>
        <time>2016-05-04T15:42:03Z</time>
      </trkpt>
      <trkpt lat="44.1294" lon="2.25945">
        <ele>356.3</ele>
        <time>2016-05-04T15:42:04Z</time>
      </trkpt>
      <trkpt lat="44.1294" lon="2.25945">
        <ele>356.5</ele>
        <time>2016-05-04T15:42:05Z</time>
      </trkpt>
      <trkpt lat="44.1294" lon="2.25946">
        <ele>356.6</ele>
        <time>2016-05-04T15:42:06Z</time>
      </trkpt>
      <trkpt lat="44.1294" lon="2.25946">
        <ele>356.7</ele>
        <time>2016-05-04T15:42:07Z</time>
      </trkpt>
      <trkpt lat="44.1294" lon="2.25947">
        <ele>356.5</ele>
        <time>2016-05-04T15:42:08Z</time>
      </trkpt>
      <trkpt lat="44.1294" lon="2.25947">
        <ele>356.4</ele>
        <time>2016-05-04T15:42:09Z</time>
      </trkpt>
      <trkpt lat="44.1294" lon="2.25947">
        <ele>356.3</ele>
        <time>2016-05-04T15:42:10Z</time>
      </trkpt>
      <trkpt lat="44.1294" lon="2.25948">
        <ele>355.8</ele>
        <time>2016-05-04T15:42:11Z</time>
      </trkpt>
      <trkpt lat="44.1294" lon="2.25948">
        <ele>355.4</ele>
        <time>2016-05-04T15:42:12Z</time>
      </trkpt>
      <trkpt lat="44.1294" lon="2.25948">
        <ele>355.2</ele>
        <time>2016-05-04T15:42:13Z</time>
      </trkpt>
      <trkpt lat="44.1294" lon="2.25949">
        <ele>355.2</ele>
        <time>2016-05-04T15:42:15Z</time>
      </trkpt>
      <trkpt lat="44.1294" lon="2.25949">
        <ele>355.2</ele>
        <time>2016-05-04T15:42:16Z</time>
      </trkpt>
      <trkpt lat="44.1294" lon="2.25949">
        <ele>355.2</ele>
        <time>2016-05-04T15:42:17Z</time>
      </trkpt>
      <trkpt lat="44.12941" lon="2.2595">
        <ele>355.2</ele>
        <time>2016-05-04T15:42:19Z</time>
      </trkpt>
      <trkpt lat="44.12941" lon="2.25951">
        <ele>355.2</ele>
        <time>2016-05-04T15:42:20Z</time>
      </trkpt>
      <trkpt lat="44.12941" lon="2.25951">
        <ele>355.2</ele>
        <time>2016-05-04T15:42:21Z</time>
      </trkpt>
      <trkpt lat="44.12941" lon="2.25951">
        <ele>355.2</ele>
        <time>2016-05-04T15:42:22Z</time>
      </trkpt>
      <trkpt lat="44.12941" lon="2.25951">
        <ele>355.4</ele>
        <time>2016-05-04T15:42:23Z</time>
      </trkpt>
      <trkpt lat="44.12941" lon="2.25951">
        <ele>355.5</ele>
        <time>2016-05-04T15:42:24Z</time>
      </trkpt>
      <trkpt lat="44.12941" lon="2.25951">
        <ele>355.7</ele>
        <time>2016-05-04T15:42:25Z</time>
      </trkpt>
      <trkpt lat="44.12941" lon="2.25952">
        <ele>355.3</ele>
        <time>2016-05-04T15:42:26Z</time>
      </trkpt>
      <trkpt lat="44.12941" lon="2.25951">
        <ele>355.1</ele>
        <time>2016-05-04T15:42:27Z</time>
      </trkpt>
      <trkpt lat="44.12941" lon="2.25951">
        <ele>354.9</ele>
        <time>2016-05-04T15:42:28Z</time>
      </trkpt>
      <trkpt lat="44.1294" lon="2.25951">
        <ele>355.2</ele>
        <time>2016-05-04T15:42:29Z</time>
      </trkpt>
      <trkpt lat="44.1294" lon="2.25951">
        <ele>355.4</ele>
        <time>2016-05-04T15:42:30Z</time>
      </trkpt>
      <trkpt lat="44.1294" lon="2.2595">
        <ele>355.6</ele>
        <time>2016-05-04T15:42:31Z</time>
      </trkpt>
      <trkpt lat="44.1294" lon="2.2595">
        <ele>355.7</ele>
        <time>2016-05-04T15:42:32Z</time>
      </trkpt>
      <trkpt lat="44.12939" lon="2.2595">
        <ele>355.8</ele>
        <time>2016-05-04T15:42:33Z</time>
      </trkpt>
      <trkpt lat="44.12939" lon="2.2595">
        <ele>355.8</ele>
        <time>2016-05-04T15:42:34Z</time>
      </trkpt>
      <trkpt lat="44.12939" lon="2.2595">
        <ele>355.9</ele>
        <time>2016-05-04T15:42:35Z</time>
      </trkpt>
      <trkpt lat="44.12939" lon="2.25949">
        <ele>355.9</ele>
        <time>2016-05-04T15:42:36Z</time>
      </trkpt>
      <trkpt lat="44.12939" lon="2.25949">
        <ele>355.9</ele>
        <time>2016-05-04T15:42:37Z</time>
      </trkpt>
      <trkpt lat="44.12939" lon="2.25949">
        <ele>356</ele>
        <time>2016-05-04T15:42:38Z</time>
      </trkpt>
      <trkpt lat="44.12939" lon="2.25949">
        <ele>356</ele>
        <time>2016-05-04T15:42:39Z</time>
      </trkpt>
      <trkpt lat="44.12939" lon="2.25949">
        <ele>356</ele>
        <time>2016-05-04T15:42:40Z</time>
      </trkpt>
      <trkpt lat="44.12939" lon="2.25949">
        <ele>356</ele>
        <time>2016-05-04T15:42:41Z</time>
      </trkpt>
      <trkpt lat="44.12938" lon="2.25948">
        <ele>356</ele>
        <time>2016-05-04T15:42:42Z</time>
      </trkpt>
      <trkpt lat="44.12938" lon="2.25948">
        <ele>356</ele>
        <time>2016-05-04T15:42:43Z</time>
      </trkpt>
      <trkpt lat="44.12937" lon="2.25948">
        <ele>356</ele>
        <time>2016-05-04T15:42:44Z</time>
      </trkpt>
      <trkpt lat="44.12937" lon="2.25947">
        <ele>356</ele>
        <time>2016-05-04T15:42:45Z</time>
      </trkpt>
      <trkpt lat="44.12936" lon="2.25947">
        <ele>356</ele>
        <time>2016-05-04T15:42:46Z</time>
      </trkpt>
      <trkpt lat="44.12936" lon="2.25947">
        <ele>356.2</ele>
        <time>2016-05-04T15:42:47Z</time>
      </trkpt>
      <trkpt lat="44.12935" lon="2.25947">
        <ele>356.4</ele>
        <time>2016-05-04T15:42:48Z</time>
      </trkpt>
      <trkpt lat="44.12935" lon="2.25947">
        <ele>356.8</ele>
        <time>2016-05-04T15:42:50Z</time>
      </trkpt>
      <trkpt lat="44.12934" lon="2.25947">
        <ele>357.1</ele>
        <time>2016-05-04T15:42:51Z</time>
      </trkpt>
      <trkpt lat="44.12934" lon="2.25947">
        <ele>357.2</ele>
        <time>2016-05-04T15:42:52Z</time>
      </trkpt>
      <trkpt lat="44.12934" lon="2.25947">
        <ele>357.1</ele>
        <time>2016-05-04T15:42:54Z</time>
      </trkpt>
      <trkpt lat="44.12934" lon="2.25947">
        <ele>357</ele>
        <time>2016-05-04T15:42:55Z</time>
      </trkpt>
      <trkpt lat="44.12935" lon="2.25947">
        <ele>356.8</ele>
        <time>2016-05-04T15:42:56Z</time>
      </trkpt>
      <trkpt lat="44.12935" lon="2.25946">
        <ele>356.6</ele>
        <time>2016-05-04T15:42:57Z</time>
      </trkpt>
      <trkpt lat="44.12936" lon="2.25946">
        <ele>356.5</ele>
        <time>2016-05-04T15:42:58Z</time>
      </trkpt>
      <trkpt lat="44.12936" lon="2.25946">
        <ele>356.1</ele>
        <time>2016-05-04T15:42:59Z</time>
      </trkpt>
      <trkpt lat="44.12937" lon="2.25946">
        <ele>355.9</ele>
        <time>2016-05-04T15:43:00Z</time>
      </trkpt>
      <trkpt lat="44.12937" lon="2.25946">
        <ele>355.7</ele>
        <time>2016-05-04T15:43:01Z</time>
      </trkpt>
      <trkpt lat="44.12937" lon="2.25945">
        <ele>356</ele>
        <time>2016-05-04T15:43:02Z</time>
      </trkpt>
      <trkpt lat="44.12937" lon="2.25945">
        <ele>356.2</ele>
        <time>2016-05-04T15:43:03Z</time>
      </trkpt>
      <trkpt lat="44.12938" lon="2.25945">
        <ele>356.4</ele>
        <time>2016-05-04T15:43:04Z</time>
      </trkpt>
      <trkpt lat="44.12938" lon="2.25944">
        <ele>356.3</ele>
        <time>2016-05-04T15:43:05Z</time>
      </trkpt>
      <trkpt lat="44.12939" lon="2.25944">
        <ele>356.2</ele>
        <time>2016-05-04T15:43:06Z</time>
      </trkpt>
      <trkpt lat="44.12939" lon="2.25944">
        <ele>356.2</ele>
        <time>2016-05-04T15:43:07Z</time>
      </trkpt>
      <trkpt lat="44.1294" lon="2.25944">
        <ele>356.4</ele>
        <time>2016-05-04T15:43:08Z</time>
      </trkpt>
      <trkpt lat="44.1294" lon="2.25944">
        <ele>356.5</ele>
        <time>2016-05-04T15:43:09Z</time>
      </trkpt>
      <trkpt lat="44.12941" lon="2.25944">
        <ele>356.6</ele>
        <time>2016-05-04T15:43:10Z</time>
      </trkpt>
      <trkpt lat="44.12942" lon="2.25944">
        <ele>356.7</ele>
        <time>2016-05-04T15:43:11Z</time>
      </trkpt>
      <trkpt lat="44.12942" lon="2.25945">
        <ele>356.7</ele>
        <time>2016-05-04T15:43:12Z</time>
      </trkpt>
      <trkpt lat="44.12942" lon="2.25945">
        <ele>356.8</ele>
        <time>2016-05-04T15:43:13Z</time>
      </trkpt>
      <trkpt lat="44.12942" lon="2.25945">
        <ele>356.8</ele>
        <time>2016-05-04T15:43:14Z</time>
      </trkpt>
      <trkpt lat="44.12943" lon="2.25946">
        <ele>356.8</ele>
        <time>2016-05-04T15:43:15Z</time>
      </trkpt>
      <trkpt lat="44.12943" lon="2.25946">
        <ele>356.8</ele>
        <time>2016-05-04T15:43:16Z</time>
      </trkpt>
      <trkpt lat="44.12943" lon="2.25947">
        <ele>356.6</ele>
        <time>2016-05-04T15:43:17Z</time>
      </trkpt>
      <trkpt lat="44.12943" lon="2.25947">
        <ele>356.5</ele>
        <time>2016-05-04T15:43:18Z</time>
      </trkpt>
      <trkpt lat="44.12944" lon="2.25947">
        <ele>356.4</ele>
        <time>2016-05-04T15:43:19Z</time>
      </trkpt>
      <trkpt lat="44.12944" lon="2.25948">
        <ele>356.1</ele>
        <time>2016-05-04T15:43:20Z</time>
      </trkpt>
      <trkpt lat="44.12944" lon="2.25948">
        <ele>355.8</ele>
        <time>2016-05-04T15:43:21Z</time>
      </trkpt>
      <trkpt lat="44.12945" lon="2.25949">
        <ele>355.7</ele>
        <time>2016-05-04T15:43:22Z</time>
      </trkpt>
      <trkpt lat="44.12945" lon="2.2595">
        <ele>355.6</ele>
        <time>2016-05-04T15:43:23Z</time>
      </trkpt>
      <trkpt lat="44.12945" lon="2.2595">
        <ele>355.5</ele>
        <time>2016-05-04T15:43:24Z</time>
      </trkpt>
      <trkpt lat="44.12945" lon="2.2595">
        <ele>355.4</ele>
        <time>2016-05-04T15:43:25Z</time>
      </trkpt>
      <trkpt lat="44.12945" lon="2.2595">
        <ele>355.5</ele>
        <time>2016-05-04T15:43:26Z</time>
      </trkpt>
      <trkpt lat="44.12945" lon="2.2595">
        <ele>355.7</ele>
        <time>2016-05-04T15:43:27Z</time>
      </trkpt>
      <trkpt lat="44.12945" lon="2.2595">
        <ele>355.8</ele>
        <time>2016-05-04T15:43:28Z</time>
      </trkpt>
      <trkpt lat="44.12945" lon="2.2595">
        <ele>355.6</ele>
        <time>2016-05-04T15:43:29Z</time>
      </trkpt>
      <trkpt lat="44.12944" lon="2.2595">
        <ele>355.5</ele>
        <time>2016-05-04T15:43:30Z</time>
      </trkpt>
      <trkpt lat="44.12944" lon="2.2595">
        <ele>355.4</ele>
        <time>2016-05-04T15:43:31Z</time>
      </trkpt>
      <trkpt lat="44.12943" lon="2.2595">
        <ele>355.4</ele>
        <time>2016-05-04T15:43:32Z</time>
      </trkpt>
      <trkpt lat="44.12943" lon="2.2595">
        <ele>355.3</ele>
        <time>2016-05-04T15:43:33Z</time>
      </trkpt>
      <trkpt lat="44.12942" lon="2.2595">
        <ele>355.3</ele>
        <time>2016-05-04T15:43:34Z</time>
      </trkpt>
      <trkpt lat="44.12942" lon="2.2595">
        <ele>355.5</ele>
        <time>2016-05-04T15:43:35Z</time>
      </trkpt>
      <trkpt lat="44.12941" lon="2.2595">
        <ele>355.6</ele>
        <time>2016-05-04T15:43:36Z</time>
      </trkpt>
      <trkpt lat="44.12941" lon="2.2595">
        <ele>355.7</ele>
        <time>2016-05-04T15:43:37Z</time>
      </trkpt>
      <trkpt lat="44.1294" lon="2.2595">
        <ele>355.8</ele>
        <time>2016-05-04T15:43:38Z</time>
      </trkpt>
      <trkpt lat="44.1294" lon="2.25949">
        <ele>355.9</ele>
        <time>2016-05-04T15:43:39Z</time>
      </trkpt>
      <trkpt lat="44.12939" lon="2.25949">
        <ele>355.9</ele>
        <time>2016-05-04T15:43:40Z</time>
      </trkpt>
      <trkpt lat="44.12939" lon="2.25949">
        <ele>356.1</ele>
        <time>2016-05-04T15:43:41Z</time>
      </trkpt>
      <trkpt lat="44.12939" lon="2.25949">
        <ele>356.3</ele>
        <time>2016-05-04T15:43:42Z</time>
      </trkpt>
      <trkpt lat="44.12939" lon="2.25948">
        <ele>356.5</ele>
        <time>2016-05-04T15:43:43Z</time>
      </trkpt>
      <trkpt lat="44.12939" lon="2.25947">
        <ele>356.6</ele>
        <time>2016-05-04T15:43:44Z</time>
      </trkpt>
      <trkpt lat="44.12939" lon="2.25947">
        <ele>356.7</ele>
        <time>2016-05-04T15:43:45Z</time>
      </trkpt>
      <trkpt lat="44.12939" lon="2.25947">
        <ele>356.7</ele>
        <time>2016-05-04T15:43:46Z</time>
      </trkpt>
      <trkpt lat="44.12939" lon="2.25947">
        <ele>357</ele>
        <time>2016-05-04T15:43:47Z</time>
      </trkpt>
      <trkpt lat="44.12939" lon="2.25947">
        <ele>357.2</ele>
        <time>2016-05-04T15:43:48Z</time>
      </trkpt>
      <trkpt lat="44.12939" lon="2.25947">
        <ele>357.3</ele>
        <time>2016-05-04T15:43:49Z</time>
      </trkpt>
      <trkpt lat="44.12939" lon="2.25947">
        <ele>356.8</ele>
        <time>2016-05-04T15:43:51Z</time>
      </trkpt>
      <trkpt lat="44.12939" lon="2.25947">
        <ele>356.6</ele>
        <time>2016-05-04T15:43:52Z</time>
      </trkpt>
      <trkpt lat="44.12939" lon="2.25947">
        <ele>356.7</ele>
        <time>2016-05-04T15:43:53Z</time>
      </trkpt>
      <trkpt lat="44.12939" lon="2.25948">
        <ele>356.7</ele>
        <time>2016-05-04T15:43:54Z</time>
      </trkpt>
      <trkpt lat="44.12939" lon="2.25948">
        <ele>356.8</ele>
        <time>2016-05-04T15:43:55Z</time>
      </trkpt>
      <trkpt lat="44.12939" lon="2.25948">
        <ele>356.6</ele>
        <time>2016-05-04T15:43:56Z</time>
      </trkpt>
      <trkpt lat="44.12938" lon="2.25948">
        <ele>356.6</ele>
        <time>2016-05-04T15:44:00Z</time>
      </trkpt>
      <trkpt lat="44.12937" lon="2.25948">
        <ele>356.7</ele>
        <time>2016-05-04T15:44:01Z</time>
      </trkpt>
      <trkpt lat="44.12937" lon="2.25949">
        <ele>356.5</ele>
        <time>2016-05-04T15:44:02Z</time>
      </trkpt>
      <trkpt lat="44.12937" lon="2.25949">
        <ele>356.4</ele>
        <time>2016-05-04T15:44:03Z</time>
      </trkpt>
      <trkpt lat="44.12936" lon="2.25949">
        <ele>356.3</ele>
        <time>2016-05-04T15:44:04Z</time>
      </trkpt>
      <trkpt lat="44.12936" lon="2.25949">
        <ele>356.6</ele>
        <time>2016-05-04T15:44:06Z</time>
      </trkpt>
      <trkpt lat="44.12936" lon="2.25949">
        <ele>356.6</ele>
        <time>2016-05-04T15:44:07Z</time>
      </trkpt>
      <trkpt lat="44.12936" lon="2.25949">
        <ele>356.3</ele>
        <time>2016-05-04T15:44:08Z</time>
      </trkpt>
      <trkpt lat="44.12936" lon="2.25949">
        <ele>356</ele>
        <time>2016-05-04T15:44:09Z</time>
      </trkpt>
      <trkpt lat="44.12936" lon="2.25949">
        <ele>355.8</ele>
        <time>2016-05-04T15:44:10Z</time>
      </trkpt>
      <trkpt lat="44.12936" lon="2.25949">
        <ele>355.6</ele>
        <time>2016-05-04T15:44:11Z</time>
      </trkpt>
      <trkpt lat="44.12936" lon="2.25949">
        <ele>355.5</ele>
        <time>2016-05-04T15:44:12Z</time>
      </trkpt>
      <trkpt lat="44.12936" lon="2.25949">
        <ele>355.4</ele>
        <time>2016-05-04T15:44:13Z</time>
      </trkpt>
      <trkpt lat="44.12936" lon="2.25949">
        <ele>355.2</ele>
        <time>2016-05-04T15:44:14Z</time>
      </trkpt>
      <trkpt lat="44.12936" lon="2.25949">
        <ele>354.9</ele>
        <time>2016-05-04T15:44:15Z</time>
      </trkpt>
      <trkpt lat="44.12936" lon="2.25949">
        <ele>354.8</ele>
        <time>2016-05-04T15:44:16Z</time>
      </trkpt>
      <trkpt lat="44.12936" lon="2.25949">
        <ele>355.1</ele>
        <time>2016-05-04T15:44:17Z</time>
      </trkpt>
      <trkpt lat="44.12937" lon="2.25949">
        <ele>355.3</ele>
        <time>2016-05-04T15:44:18Z</time>
      </trkpt>
      <trkpt lat="44.12937" lon="2.25948">
        <ele>355.5</ele>
        <time>2016-05-04T15:44:19Z</time>
      </trkpt>
      <trkpt lat="44.12937" lon="2.25948">
        <ele>355.4</ele>
        <time>2016-05-04T15:44:20Z</time>
      </trkpt>
      <trkpt lat="44.12938" lon="2.25948">
        <ele>355.4</ele>
        <time>2016-05-04T15:44:21Z</time>
      </trkpt>
      <trkpt lat="44.12938" lon="2.25948">
        <ele>355.3</ele>
        <time>2016-05-04T15:44:22Z</time>
      </trkpt>
      <trkpt lat="44.12939" lon="2.25948">
        <ele>355.3</ele>
        <time>2016-05-04T15:44:23Z</time>
      </trkpt>
      <trkpt lat="44.12938" lon="2.25949">
        <ele>355.3</ele>
        <time>2016-05-04T15:44:24Z</time>
      </trkpt>
      <trkpt lat="44.12938" lon="2.25949">
        <ele>355.2</ele>
        <time>2016-05-04T15:44:25Z</time>
      </trkpt>
      <trkpt lat="44.12938" lon="2.2595">
        <ele>355.4</ele>
        <time>2016-05-04T15:44:26Z</time>
      </trkpt>
      <trkpt lat="44.12938" lon="2.25951">
        <ele>355.6</ele>
        <time>2016-05-04T15:44:27Z</time>
      </trkpt>
      <trkpt lat="44.12938" lon="2.25952">
        <ele>355.7</ele>
        <time>2016-05-04T15:44:28Z</time>
      </trkpt>
      <trkpt lat="44.12939" lon="2.25953">
        <ele>355.8</ele>
        <time>2016-05-04T15:44:29Z</time>
      </trkpt>
      <trkpt lat="44.12939" lon="2.25953">
        <ele>355.8</ele>
        <time>2016-05-04T15:44:30Z</time>
      </trkpt>
      <trkpt lat="44.12939" lon="2.25954">
        <ele>355.9</ele>
        <time>2016-05-04T15:44:31Z</time>
      </trkpt>
      <trkpt lat="44.1294" lon="2.25955">
        <ele>355.7</ele>
        <time>2016-05-04T15:44:32Z</time>
      </trkpt>
      <trkpt lat="44.1294" lon="2.25956">
        <ele>355.6</ele>
        <time>2016-05-04T15:44:33Z</time>
      </trkpt>
      <trkpt lat="44.1294" lon="2.25956">
        <ele>355.5</ele>
        <time>2016-05-04T15:44:34Z</time>
      </trkpt>
      <trkpt lat="44.1294" lon="2.25957">
        <ele>355.4</ele>
        <time>2016-05-04T15:44:35Z</time>
      </trkpt>
      <trkpt lat="44.12941" lon="2.25958">
        <ele>355.3</ele>
        <time>2016-05-04T15:44:36Z</time>
      </trkpt>
      <trkpt lat="44.12941" lon="2.25959">
        <ele>355.3</ele>
        <time>2016-05-04T15:44:37Z</time>
      </trkpt>
      <trkpt lat="44.12942" lon="2.25959">
        <ele>355.5</ele>
        <time>2016-05-04T15:44:38Z</time>
      </trkpt>
      <trkpt lat="44.12942" lon="2.2596">
        <ele>355.6</ele>
        <time>2016-05-04T15:44:39Z</time>
      </trkpt>
      <trkpt lat="44.12943" lon="2.25961">
        <ele>355.7</ele>
        <time>2016-05-04T15:44:40Z</time>
      </trkpt>
      <trkpt lat="44.12943" lon="2.25962">
        <ele>355.6</ele>
        <time>2016-05-04T15:44:41Z</time>
      </trkpt>
      <trkpt lat="44.12944" lon="2.25963">
        <ele>355.5</ele>
        <time>2016-05-04T15:44:42Z</time>
      </trkpt>
      <trkpt lat="44.12944" lon="2.25964">
        <ele>355.4</ele>
        <time>2016-05-04T15:44:43Z</time>
      </trkpt>
      <trkpt lat="44.12944" lon="2.25965">
        <ele>355.1</ele>
        <time>2016-05-04T15:44:44Z</time>
      </trkpt>
      <trkpt lat="44.12945" lon="2.25966">
        <ele>354.9</ele>
        <time>2016-05-04T15:44:45Z</time>
      </trkpt>
      <trkpt lat="44.12945" lon="2.25967">
        <ele>354.8</ele>
        <time>2016-05-04T15:44:46Z</time>
      </trkpt>
      <trkpt lat="44.12946" lon="2.25968">
        <ele>354.7</ele>
        <time>2016-05-04T15:44:47Z</time>
      </trkpt>
      <trkpt lat="44.12946" lon="2.25969">
        <ele>354.6</ele>
        <time>2016-05-04T15:44:48Z</time>
      </trkpt>
      <trkpt lat="44.12947" lon="2.2597">
        <ele>354.5</ele>
        <time>2016-05-04T15:44:49Z</time>
      </trkpt>
      <trkpt lat="44.12947" lon="2.25971">
        <ele>354</ele>
        <time>2016-05-04T15:44:50Z</time>
      </trkpt>
      <trkpt lat="44.12948" lon="2.25971">
        <ele>353.7</ele>
        <time>2016-05-04T15:44:51Z</time>
      </trkpt>
      <trkpt lat="44.12948" lon="2.25972">
        <ele>353.4</ele>
        <time>2016-05-04T15:44:52Z</time>
      </trkpt>
      <trkpt lat="44.12948" lon="2.25972">
        <ele>353.2</ele>
        <time>2016-05-04T15:44:53Z</time>
      </trkpt>
      <trkpt lat="44.12949" lon="2.25973">
        <ele>353.1</ele>
        <time>2016-05-04T15:44:54Z</time>
      </trkpt>
      <trkpt lat="44.1295" lon="2.25974">
        <ele>352.9</ele>
        <time>2016-05-04T15:44:55Z</time>
      </trkpt>
      <trkpt lat="44.12951" lon="2.25976">
        <ele>352.9</ele>
        <time>2016-05-04T15:44:56Z</time>
      </trkpt>
      <trkpt lat="44.12952" lon="2.25977">
        <ele>352.8</ele>
        <time>2016-05-04T15:44:57Z</time>
      </trkpt>
      <trkpt lat="44.12952" lon="2.25977">
        <ele>352.8</ele>
        <time>2016-05-04T15:44:58Z</time>
      </trkpt>
      <trkpt lat="44.12953" lon="2.25978">
        <ele>352.3</ele>
        <time>2016-05-04T15:44:59Z</time>
      </trkpt>
      <trkpt lat="44.12954" lon="2.25979">
        <ele>351.9</ele>
        <time>2016-05-04T15:45:00Z</time>
      </trkpt>
      <trkpt lat="44.12954" lon="2.25979">
        <ele>351.7</ele>
        <time>2016-05-04T15:45:01Z</time>
      </trkpt>
      <trkpt lat="44.12955" lon="2.25979">
        <ele>351.3</ele>
        <time>2016-05-04T15:45:02Z</time>
      </trkpt>
      <trkpt lat="44.12955" lon="2.25979">
        <ele>351</ele>
        <time>2016-05-04T15:45:03Z</time>
      </trkpt>
      <trkpt lat="44.12956" lon="2.25978">
        <ele>350.7</ele>
        <time>2016-05-04T15:45:04Z</time>
      </trkpt>
      <trkpt lat="44.12956" lon="2.25978">
        <ele>350.3</ele>
        <time>2016-05-04T15:45:05Z</time>
      </trkpt>
      <trkpt lat="44.12956" lon="2.25978">
        <ele>350.1</ele>
        <time>2016-05-04T15:45:06Z</time>
      </trkpt>
      <trkpt lat="44.12957" lon="2.25977">
        <ele>349.9</ele>
        <time>2016-05-04T15:45:08Z</time>
      </trkpt>
      <trkpt lat="44.12957" lon="2.25976">
        <ele>349.9</ele>
        <time>2016-05-04T15:45:09Z</time>
      </trkpt>
      <trkpt lat="44.12957" lon="2.25975">
        <ele>350</ele>
        <time>2016-05-04T15:45:13Z</time>
      </trkpt>
      <trkpt lat="44.12957" lon="2.25974">
        <ele>349.8</ele>
        <time>2016-05-04T15:45:14Z</time>
      </trkpt>
      <trkpt lat="44.12957" lon="2.25972">
        <ele>349.6</ele>
        <time>2016-05-04T15:45:15Z</time>
      </trkpt>
      <trkpt lat="44.12957" lon="2.2597">
        <ele>349.5</ele>
        <time>2016-05-04T15:45:16Z</time>
      </trkpt>
      <trkpt lat="44.12957" lon="2.25969">
        <ele>349.4</ele>
        <time>2016-05-04T15:45:17Z</time>
      </trkpt>
      <trkpt lat="44.12958" lon="2.25968">
        <ele>349.4</ele>
        <time>2016-05-04T15:45:18Z</time>
      </trkpt>
      <trkpt lat="44.12958" lon="2.25967">
        <ele>349.3</ele>
        <time>2016-05-04T15:45:19Z</time>
      </trkpt>
      <trkpt lat="44.12959" lon="2.25967">
        <ele>349.5</ele>
        <time>2016-05-04T15:45:20Z</time>
      </trkpt>
      <trkpt lat="44.12959" lon="2.25967">
        <ele>349.6</ele>
        <time>2016-05-04T15:45:21Z</time>
      </trkpt>
      <trkpt lat="44.12959" lon="2.25966">
        <ele>349.4</ele>
        <time>2016-05-04T15:45:23Z</time>
      </trkpt>
      <trkpt lat="44.1296" lon="2.25966">
        <ele>349.1</ele>
        <time>2016-05-04T15:45:24Z</time>
      </trkpt>
      <trkpt lat="44.1296" lon="2.25966">
        <ele>348.9</ele>
        <time>2016-05-04T15:45:25Z</time>
      </trkpt>
      <trkpt lat="44.1296" lon="2.25966">
        <ele>349.2</ele>
        <time>2016-05-04T15:45:26Z</time>
      </trkpt>
      <trkpt lat="44.12961" lon="2.25966">
        <ele>349.4</ele>
        <time>2016-05-04T15:45:27Z</time>
      </trkpt>
      <trkpt lat="44.12961" lon="2.25965">
        <ele>349.6</ele>
        <time>2016-05-04T15:45:28Z</time>
      </trkpt>
      <trkpt lat="44.12961" lon="2.25965">
        <ele>349.7</ele>
        <time>2016-05-04T15:45:29Z</time>
      </trkpt>
      <trkpt lat="44.12962" lon="2.25964">
        <ele>349.8</ele>
        <time>2016-05-04T15:45:30Z</time>
      </trkpt>
      <trkpt lat="44.12962" lon="2.25964">
        <ele>349.8</ele>
        <time>2016-05-04T15:45:31Z</time>
      </trkpt>
      <trkpt lat="44.12962" lon="2.25963">
        <ele>349.5</ele>
        <time>2016-05-04T15:45:32Z</time>
      </trkpt>
      <trkpt lat="44.12963" lon="2.25962">
        <ele>349.2</ele>
        <time>2016-05-04T15:45:33Z</time>
      </trkpt>
      <trkpt lat="44.12962" lon="2.25962">
        <ele>349</ele>
        <time>2016-05-04T15:45:34Z</time>
      </trkpt>
      <trkpt lat="44.12962" lon="2.25962">
        <ele>349</ele>
        <time>2016-05-04T15:45:35Z</time>
      </trkpt>
      <trkpt lat="44.12963" lon="2.25962">
        <ele>349.1</ele>
        <time>2016-05-04T15:45:36Z</time>
      </trkpt>
      <trkpt lat="44.12963" lon="2.25962">
        <ele>349.1</ele>
        <time>2016-05-04T15:45:37Z</time>
      </trkpt>
      <trkpt lat="44.12963" lon="2.25961">
        <ele>348.9</ele>
        <time>2016-05-04T15:45:38Z</time>
      </trkpt>
      <trkpt lat="44.12963" lon="2.25961">
        <ele>348.8</ele>
        <time>2016-05-04T15:45:39Z</time>
      </trkpt>
      <trkpt lat="44.12963" lon="2.2596">
        <ele>348.7</ele>
        <time>2016-05-04T15:45:40Z</time>
      </trkpt>
      <trkpt lat="44.12963" lon="2.2596">
        <ele>348.4</ele>
        <time>2016-05-04T15:45:41Z</time>
      </trkpt>
      <trkpt lat="44.12963" lon="2.25959">
        <ele>348.1</ele>
        <time>2016-05-04T15:45:42Z</time>
      </trkpt>
      <trkpt lat="44.12964" lon="2.25959">
        <ele>348</ele>
        <time>2016-05-04T15:45:43Z</time>
      </trkpt>
      <trkpt lat="44.12964" lon="2.25959">
        <ele>347.8</ele>
        <time>2016-05-04T15:45:44Z</time>
      </trkpt>
      <trkpt lat="44.12964" lon="2.25959">
        <ele>347.8</ele>
        <time>2016-05-04T15:45:45Z</time>
      </trkpt>
      <trkpt lat="44.12964" lon="2.25958">
        <ele>347.7</ele>
        <time>2016-05-04T15:45:46Z</time>
      </trkpt>
      <trkpt lat="44.12964" lon="2.25958">
        <ele>347.6</ele>
        <time>2016-05-04T15:45:47Z</time>
      </trkpt>
      <trkpt lat="44.12964" lon="2.25957">
        <ele>347.6</ele>
        <time>2016-05-04T15:45:48Z</time>
      </trkpt>
      <trkpt lat="44.12964" lon="2.25956">
        <ele>347.6</ele>
        <time>2016-05-04T15:45:49Z</time>
      </trkpt>
      <trkpt lat="44.12964" lon="2.25955">
        <ele>347.1</ele>
        <time>2016-05-04T15:45:50Z</time>
      </trkpt>
      <trkpt lat="44.12964" lon="2.25955">
        <ele>346.8</ele>
        <time>2016-05-04T15:45:51Z</time>
      </trkpt>
      <trkpt lat="44.12964" lon="2.25954">
        <ele>346.5</ele>
        <time>2016-05-04T15:45:52Z</time>
      </trkpt>
      <trkpt lat="44.12964" lon="2.25953">
        <ele>346.5</ele>
        <time>2016-05-04T15:45:53Z</time>
      </trkpt>
      <trkpt lat="44.12964" lon="2.25952">
        <ele>346.6</ele>
        <time>2016-05-04T15:45:54Z</time>
      </trkpt>
      <trkpt lat="44.12964" lon="2.25951">
        <ele>346.6</ele>
        <time>2016-05-04T15:45:55Z</time>
      </trkpt>
      <trkpt lat="44.12964" lon="2.25951">
        <ele>346.2</ele>
        <time>2016-05-04T15:45:56Z</time>
      </trkpt>
      <trkpt lat="44.12964" lon="2.2595">
        <ele>345.8</ele>
        <time>2016-05-04T15:45:57Z</time>
      </trkpt>
      <trkpt lat="44.12965" lon="2.25949">
        <ele>345.6</ele>
        <time>2016-05-04T15:45:58Z</time>
      </trkpt>
      <trkpt lat="44.12965" lon="2.25947">
        <ele>345.2</ele>
        <time>2016-05-04T15:45:59Z</time>
      </trkpt>
      <trkpt lat="44.12966" lon="2.25946">
        <ele>344.9</ele>
        <time>2016-05-04T15:46:00Z</time>
      </trkpt>
      <trkpt lat="44.12966" lon="2.25944">
        <ele>344.7</ele>
        <time>2016-05-04T15:46:01Z</time>
      </trkpt>
      <trkpt lat="44.12967" lon="2.25943">
        <ele>344.3</ele>
        <time>2016-05-04T15:46:02Z</time>
      </trkpt>
      <trkpt lat="44.12967" lon="2.25941">
        <ele>344</ele>
        <time>2016-05-04T15:46:03Z</time>
      </trkpt>
      <trkpt lat="44.12968" lon="2.2594">
        <ele>343.8</ele>
        <time>2016-05-04T15:46:04Z</time>
      </trkpt>
      <trkpt lat="44.12968" lon="2.25938">
        <ele>343.2</ele>
        <time>2016-05-04T15:46:05Z</time>
      </trkpt>
      <trkpt lat="44.12968" lon="2.25937">
        <ele>342.8</ele>
        <time>2016-05-04T15:46:06Z</time>
      </trkpt>
      <trkpt lat="44.12968" lon="2.25935">
        <ele>342.5</ele>
        <time>2016-05-04T15:46:07Z</time>
      </trkpt>
      <trkpt lat="44.12968" lon="2.25934">
        <ele>342.4</ele>
        <time>2016-05-04T15:46:08Z</time>
      </trkpt>
      <trkpt lat="44.12968" lon="2.25932">
        <ele>342.4</ele>
        <time>2016-05-04T15:46:09Z</time>
      </trkpt>
      <trkpt lat="44.12968" lon="2.2593">
        <ele>342.4</ele>
        <time>2016-05-04T15:46:10Z</time>
      </trkpt>
      <trkpt lat="44.12968" lon="2.25929">
        <ele>342.4</ele>
        <time>2016-05-04T15:46:11Z</time>
      </trkpt>
      <trkpt lat="44.12968" lon="2.25927">
        <ele>342.4</ele>
        <time>2016-05-04T15:46:12Z</time>
      </trkpt>
      <trkpt lat="44.12968" lon="2.25925">
        <ele>342.4</ele>
        <time>2016-05-04T15:46:13Z</time>
      </trkpt>
      <trkpt lat="44.12968" lon="2.25924">
        <ele>341.7</ele>
        <time>2016-05-04T15:46:14Z</time>
      </trkpt>
      <trkpt lat="44.12968" lon="2.25922">
        <ele>341.2</ele>
        <time>2016-05-04T15:46:15Z</time>
      </trkpt>
      <trkpt lat="44.12968" lon="2.2592">
        <ele>340.9</ele>
        <time>2016-05-04T15:46:16Z</time>
      </trkpt>
      <trkpt lat="44.12968" lon="2.25919">
        <ele>340.8</ele>
        <time>2016-05-04T15:46:17Z</time>
      </trkpt>
      <trkpt lat="44.12966" lon="2.25904">
        <ele>338.7</ele>
        <time>2016-05-04T15:46:27Z</time>
      </trkpt>
      <trkpt lat="44.12963" lon="2.2589">
        <ele>337.4</ele>
        <time>2016-05-04T15:46:36Z</time>
      </trkpt>
      <trkpt lat="44.12963" lon="2.25888">
        <ele>337.1</ele>
        <time>2016-05-04T15:46:37Z</time>
      </trkpt>
      <trkpt lat="44.12963" lon="2.25887">
        <ele>336.5</ele>
        <time>2016-05-04T15:46:38Z</time>
      </trkpt>
      <trkpt lat="44.12963" lon="2.25885">
        <ele>336</ele>
        <time>2016-05-04T15:46:39Z</time>
      </trkpt>
      <trkpt lat="44.12963" lon="2.25883">
        <ele>335.7</ele>
        <time>2016-05-04T15:46:40Z</time>
      </trkpt>
      <trkpt lat="44.12963" lon="2.25882">
        <ele>335.6</ele>
        <time>2016-05-04T15:46:41Z</time>
      </trkpt>
      <trkpt lat="44.12962" lon="2.2588">
        <ele>335.6</ele>
        <time>2016-05-04T15:46:42Z</time>
      </trkpt>
      <trkpt lat="44.12962" lon="2.25879">
        <ele>335.6</ele>
        <time>2016-05-04T15:46:43Z</time>
      </trkpt>
      <trkpt lat="44.12962" lon="2.25877">
        <ele>335.6</ele>
        <time>2016-05-04T15:46:44Z</time>
      </trkpt>
      <trkpt lat="44.12958" lon="2.25863">
        <ele>333.1</ele>
        <time>2016-05-04T15:46:52Z</time>
      </trkpt>
      <trkpt lat="44.12955" lon="2.25854">
        <ele>331.6</ele>
        <time>2016-05-04T15:46:58Z</time>
      </trkpt>
      <trkpt lat="44.12955" lon="2.25852">
        <ele>331.3</ele>
        <time>2016-05-04T15:46:59Z</time>
      </trkpt>
      <trkpt lat="44.12954" lon="2.25851">
        <ele>331</ele>
        <time>2016-05-04T15:47:00Z</time>
      </trkpt>
      <trkpt lat="44.12954" lon="2.25849">
        <ele>330.9</ele>
        <time>2016-05-04T15:47:01Z</time>
      </trkpt>
      <trkpt lat="44.12954" lon="2.25847">
        <ele>330.5</ele>
        <time>2016-05-04T15:47:02Z</time>
      </trkpt>
      <trkpt lat="44.12953" lon="2.25845">
        <ele>330.3</ele>
        <time>2016-05-04T15:47:03Z</time>
      </trkpt>
      <trkpt lat="44.12953" lon="2.25843">
        <ele>330.1</ele>
        <time>2016-05-04T15:47:04Z</time>
      </trkpt>
      <trkpt lat="44.12953" lon="2.25841">
        <ele>329.9</ele>
        <time>2016-05-04T15:47:05Z</time>
      </trkpt>
      <trkpt lat="44.12952" lon="2.25839">
        <ele>329.8</ele>
        <time>2016-05-04T15:47:06Z</time>
      </trkpt>
      <trkpt lat="44.12952" lon="2.25837">
        <ele>329.8</ele>
        <time>2016-05-04T15:47:07Z</time>
      </trkpt>
      <trkpt lat="44.12952" lon="2.25835">
        <ele>329.5</ele>
        <time>2016-05-04T15:47:08Z</time>
      </trkpt>
      <trkpt lat="44.12952" lon="2.25833">
        <ele>329.3</ele>
        <time>2016-05-04T15:47:09Z</time>
      </trkpt>
      <trkpt lat="44.12952" lon="2.2583">
        <ele>329.1</ele>
        <time>2016-05-04T15:47:10Z</time>
      </trkpt>
      <trkpt lat="44.12952" lon="2.25827">
        <ele>329</ele>
        <time>2016-05-04T15:47:11Z</time>
      </trkpt>
      <trkpt lat="44.12952" lon="2.25824">
        <ele>328.9</ele>
        <time>2016-05-04T15:47:12Z</time>
      </trkpt>
      <trkpt lat="44.12951" lon="2.25822">
        <ele>328.9</ele>
        <time>2016-05-04T15:47:13Z</time>
      </trkpt>
      <trkpt lat="44.12951" lon="2.25821">
        <ele>328.6</ele>
        <time>2016-05-04T15:47:14Z</time>
      </trkpt>
      <trkpt lat="44.12951" lon="2.25819">
        <ele>328.4</ele>
        <time>2016-05-04T15:47:15Z</time>
      </trkpt>
      <trkpt lat="44.1295" lon="2.25817">
        <ele>328.3</ele>
        <time>2016-05-04T15:47:16Z</time>
      </trkpt>
      <trkpt lat="44.1295" lon="2.25815">
        <ele>327.9</ele>
        <time>2016-05-04T15:47:17Z</time>
      </trkpt>
      <trkpt lat="44.1295" lon="2.25814">
        <ele>327.7</ele>
        <time>2016-05-04T15:47:18Z</time>
      </trkpt>
      <trkpt lat="44.12949" lon="2.25813">
        <ele>327.5</ele>
        <time>2016-05-04T15:47:19Z</time>
      </trkpt>
      <trkpt lat="44.12948" lon="2.25811">
        <ele>327.6</ele>
        <time>2016-05-04T15:47:20Z</time>
      </trkpt>
      <trkpt lat="44.12948" lon="2.2581">
        <ele>327.6</ele>
        <time>2016-05-04T15:47:21Z</time>
      </trkpt>
      <trkpt lat="44.12947" lon="2.25809">
        <ele>327.7</ele>
        <time>2016-05-04T15:47:22Z</time>
      </trkpt>
      <trkpt lat="44.12946" lon="2.25808">
        <ele>326.9</ele>
        <time>2016-05-04T15:47:23Z</time>
      </trkpt>
      <trkpt lat="44.12941" lon="2.25801">
        <ele>324.2</ele>
        <time>2016-05-04T15:47:31Z</time>
      </trkpt>
      <trkpt lat="44.12941" lon="2.258">
        <ele>324</ele>
        <time>2016-05-04T15:47:32Z</time>
      </trkpt>
      <trkpt lat="44.12934" lon="2.25788">
        <ele>321.3</ele>
        <time>2016-05-04T15:47:41Z</time>
      </trkpt>
      <trkpt lat="44.12932" lon="2.25786">
        <ele>320.8</ele>
        <time>2016-05-04T15:47:43Z</time>
      </trkpt>
      <trkpt lat="44.12932" lon="2.25784">
        <ele>320.4</ele>
        <time>2016-05-04T15:47:44Z</time>
      </trkpt>
      <trkpt lat="44.12931" lon="2.25783">
        <ele>320.1</ele>
        <time>2016-05-04T15:47:45Z</time>
      </trkpt>
      <trkpt lat="44.1293" lon="2.25782">
        <ele>319.9</ele>
        <time>2016-05-04T15:47:46Z</time>
      </trkpt>
      <trkpt lat="44.1293" lon="2.2578">
        <ele>320</ele>
        <time>2016-05-04T15:47:47Z</time>
      </trkpt>
      <trkpt lat="44.12929" lon="2.2578">
        <ele>320</ele>
        <time>2016-05-04T15:47:48Z</time>
      </trkpt>
      <trkpt lat="44.12928" lon="2.25778">
        <ele>319.6</ele>
        <time>2016-05-04T15:47:50Z</time>
      </trkpt>
      <trkpt lat="44.12928" lon="2.25778">
        <ele>319.3</ele>
        <time>2016-05-04T15:47:51Z</time>
      </trkpt>
      <trkpt lat="44.12927" lon="2.25778">
        <ele>319.1</ele>
        <time>2016-05-04T15:47:52Z</time>
      </trkpt>
      <trkpt lat="44.12926" lon="2.25778">
        <ele>319.1</ele>
        <time>2016-05-04T15:47:53Z</time>
      </trkpt>
      <trkpt lat="44.12926" lon="2.25777">
        <ele>319.2</ele>
        <time>2016-05-04T15:47:54Z</time>
      </trkpt>
      <trkpt lat="44.12925" lon="2.25778">
        <ele>319.2</ele>
        <time>2016-05-04T15:47:55Z</time>
      </trkpt>
      <trkpt lat="44.12925" lon="2.25778">
        <ele>318.8</ele>
        <time>2016-05-04T15:47:56Z</time>
      </trkpt>
      <trkpt lat="44.12924" lon="2.25777">
        <ele>318.5</ele>
        <time>2016-05-04T15:47:57Z</time>
      </trkpt>
      <trkpt lat="44.12924" lon="2.25777">
        <ele>318.3</ele>
        <time>2016-05-04T15:47:58Z</time>
      </trkpt>
      <trkpt lat="44.12923" lon="2.25777">
        <ele>317.9</ele>
        <time>2016-05-04T15:47:59Z</time>
      </trkpt>
      <trkpt lat="44.12923" lon="2.25777">
        <ele>317.6</ele>
        <time>2016-05-04T15:48:00Z</time>
      </trkpt>
      <trkpt lat="44.12922" lon="2.25777">
        <ele>317.4</ele>
        <time>2016-05-04T15:48:01Z</time>
      </trkpt>
      <trkpt lat="44.12921" lon="2.25777">
        <ele>317.2</ele>
        <time>2016-05-04T15:48:02Z</time>
      </trkpt>
      <trkpt lat="44.1292" lon="2.25776">
        <ele>317.1</ele>
        <time>2016-05-04T15:48:03Z</time>
      </trkpt>
      <trkpt lat="44.1292" lon="2.25776">
        <ele>317</ele>
        <time>2016-05-04T15:48:04Z</time>
      </trkpt>
      <trkpt lat="44.1292" lon="2.25776">
        <ele>317.1</ele>
        <time>2016-05-04T15:48:05Z</time>
      </trkpt>
      <trkpt lat="44.1292" lon="2.25776">
        <ele>317.2</ele>
        <time>2016-05-04T15:48:06Z</time>
      </trkpt>
      <trkpt lat="44.12919" lon="2.25776">
        <ele>317.3</ele>
        <time>2016-05-04T15:48:07Z</time>
      </trkpt>
      <trkpt lat="44.12918" lon="2.25776">
        <ele>317.2</ele>
        <time>2016-05-04T15:48:08Z</time>
      </trkpt>
      <trkpt lat="44.12918" lon="2.25776">
        <ele>317.1</ele>
        <time>2016-05-04T15:48:09Z</time>
      </trkpt>
      <trkpt lat="44.12917" lon="2.25775">
        <ele>317</ele>
        <time>2016-05-04T15:48:10Z</time>
      </trkpt>
      <trkpt lat="44.12917" lon="2.25775">
        <ele>316.7</ele>
        <time>2016-05-04T15:48:11Z</time>
      </trkpt>
      <trkpt lat="44.12916" lon="2.25775">
        <ele>316.5</ele>
        <time>2016-05-04T15:48:12Z</time>
      </trkpt>
      <trkpt lat="44.12916" lon="2.25775">
        <ele>316.3</ele>
        <time>2016-05-04T15:48:13Z</time>
      </trkpt>
      <trkpt lat="44.12915" lon="2.25774">
        <ele>316</ele>
        <time>2016-05-04T15:48:14Z</time>
      </trkpt>
      <trkpt lat="44.12914" lon="2.25774">
        <ele>315.8</ele>
        <time>2016-05-04T15:48:15Z</time>
      </trkpt>
      <trkpt lat="44.12914" lon="2.25774">
        <ele>315.6</ele>
        <time>2016-05-04T15:48:16Z</time>
      </trkpt>
      <trkpt lat="44.12913" lon="2.25773">
        <ele>315</ele>
        <time>2016-05-04T15:48:17Z</time>
      </trkpt>
      <trkpt lat="44.12913" lon="2.25773">
        <ele>314.6</ele>
        <time>2016-05-04T15:48:18Z</time>
      </trkpt>
      <trkpt lat="44.12912" lon="2.25773">
        <ele>314.3</ele>
        <time>2016-05-04T15:48:19Z</time>
      </trkpt>
      <trkpt lat="44.12912" lon="2.25773">
        <ele>314</ele>
        <time>2016-05-04T15:48:20Z</time>
      </trkpt>
      <trkpt lat="44.12911" lon="2.25773">
        <ele>313.8</ele>
        <time>2016-05-04T15:48:21Z</time>
      </trkpt>
      <trkpt lat="44.12911" lon="2.25773">
        <ele>313.7</ele>
        <time>2016-05-04T15:48:22Z</time>
      </trkpt>
      <trkpt lat="44.12911" lon="2.25773">
        <ele>313.4</ele>
        <time>2016-05-04T15:48:23Z</time>
      </trkpt>
      <trkpt lat="44.1291" lon="2.25772">
        <ele>313.2</ele>
        <time>2016-05-04T15:48:24Z</time>
      </trkpt>
      <trkpt lat="44.1291" lon="2.25772">
        <ele>313</ele>
        <time>2016-05-04T15:48:25Z</time>
      </trkpt>
      <trkpt lat="44.1291" lon="2.25772">
        <ele>312.8</ele>
        <time>2016-05-04T15:48:26Z</time>
      </trkpt>
      <trkpt lat="44.1291" lon="2.25771">
        <ele>312.7</ele>
        <time>2016-05-04T15:48:27Z</time>
      </trkpt>
      <trkpt lat="44.1291" lon="2.25771">
        <ele>312.7</ele>
        <time>2016-05-04T15:48:28Z</time>
      </trkpt>
      <trkpt lat="44.1291" lon="2.25771">
        <ele>312</ele>
        <time>2016-05-04T15:48:29Z</time>
      </trkpt>
      <trkpt lat="44.1291" lon="2.2577">
        <ele>311.5</ele>
        <time>2016-05-04T15:48:30Z</time>
      </trkpt>
      <trkpt lat="44.12909" lon="2.25769">
        <ele>311.1</ele>
        <time>2016-05-04T15:48:31Z</time>
      </trkpt>
      <trkpt lat="44.12909" lon="2.25769">
        <ele>310.6</ele>
        <time>2016-05-04T15:48:32Z</time>
      </trkpt>
      <trkpt lat="44.12909" lon="2.25769">
        <ele>310.2</ele>
        <time>2016-05-04T15:48:33Z</time>
      </trkpt>
      <trkpt lat="44.12909" lon="2.25768">
        <ele>309.9</ele>
        <time>2016-05-04T15:48:34Z</time>
      </trkpt>
      <trkpt lat="44.12909" lon="2.25768">
        <ele>310.1</ele>
        <time>2016-05-04T15:48:35Z</time>
      </trkpt>
      <trkpt lat="44.12908" lon="2.25767">
        <ele>310.3</ele>
        <time>2016-05-04T15:48:36Z</time>
      </trkpt>
      <trkpt lat="44.12907" lon="2.25766">
        <ele>310.4</ele>
        <time>2016-05-04T15:48:37Z</time>
      </trkpt>
      <trkpt lat="44.12907" lon="2.25765">
        <ele>310.1</ele>
        <time>2016-05-04T15:48:38Z</time>
      </trkpt>
      <trkpt lat="44.12906" lon="2.25765">
        <ele>309.8</ele>
        <time>2016-05-04T15:48:39Z</time>
      </trkpt>
      <trkpt lat="44.12906" lon="2.25764">
        <ele>309.6</ele>
        <time>2016-05-04T15:48:40Z</time>
      </trkpt>
      <trkpt lat="44.12905" lon="2.25763">
        <ele>309.3</ele>
        <time>2016-05-04T15:48:41Z</time>
      </trkpt>
      <trkpt lat="44.12905" lon="2.25763">
        <ele>309</ele>
        <time>2016-05-04T15:48:42Z</time>
      </trkpt>
      <trkpt lat="44.12905" lon="2.25762">
        <ele>308.8</ele>
        <time>2016-05-04T15:48:43Z</time>
      </trkpt>
      <trkpt lat="44.12904" lon="2.25761">
        <ele>308.9</ele>
        <time>2016-05-04T15:48:44Z</time>
      </trkpt>
      <trkpt lat="44.12904" lon="2.25761">
        <ele>308.9</ele>
        <time>2016-05-04T15:48:45Z</time>
      </trkpt>
      <trkpt lat="44.12904" lon="2.2576">
        <ele>308.9</ele>
        <time>2016-05-04T15:48:46Z</time>
      </trkpt>
      <trkpt lat="44.12904" lon="2.25759">
        <ele>308.3</ele>
        <time>2016-05-04T15:48:47Z</time>
      </trkpt>
      <trkpt lat="44.12904" lon="2.25758">
        <ele>307.9</ele>
        <time>2016-05-04T15:48:48Z</time>
      </trkpt>
      <trkpt lat="44.12903" lon="2.25757">
        <ele>307.5</ele>
        <time>2016-05-04T15:48:49Z</time>
      </trkpt>
      <trkpt lat="44.12903" lon="2.25756">
        <ele>307.5</ele>
        <time>2016-05-04T15:48:50Z</time>
      </trkpt>
      <trkpt lat="44.12902" lon="2.25755">
        <ele>307.4</ele>
        <time>2016-05-04T15:48:51Z</time>
      </trkpt>
      <trkpt lat="44.12901" lon="2.25754">
        <ele>307.4</ele>
        <time>2016-05-04T15:48:52Z</time>
      </trkpt>
      <trkpt lat="44.12898" lon="2.25752">
        <ele>307</ele>
        <time>2016-05-04T15:48:53Z</time>
      </trkpt>
      <trkpt lat="44.12893" lon="2.25749">
        <ele>306.6</ele>
        <time>2016-05-04T15:48:54Z</time>
      </trkpt>
      <trkpt lat="44.12888" lon="2.25747">
        <ele>306.4</ele>
        <time>2016-05-04T15:48:55Z</time>
      </trkpt>
      <trkpt lat="44.12883" lon="2.25745">
        <ele>306.4</ele>
        <time>2016-05-04T15:48:56Z</time>
      </trkpt>
      <trkpt lat="44.12879" lon="2.25744">
        <ele>306.4</ele>
        <time>2016-05-04T15:48:57Z</time>
      </trkpt>
      <trkpt lat="44.12876" lon="2.25743">
        <ele>306.4</ele>
        <time>2016-05-04T15:48:58Z</time>
      </trkpt>
      <trkpt lat="44.12874" lon="2.25742">
        <ele>305.8</ele>
        <time>2016-05-04T15:48:59Z</time>
      </trkpt>
      <trkpt lat="44.12872" lon="2.25741">
        <ele>305.3</ele>
        <time>2016-05-04T15:49:00Z</time>
      </trkpt>
      <trkpt lat="44.12871" lon="2.2574">
        <ele>305</ele>
        <time>2016-05-04T15:49:01Z</time>
      </trkpt>
      <trkpt lat="44.1287" lon="2.25739">
        <ele>304.9</ele>
        <time>2016-05-04T15:49:02Z</time>
      </trkpt>
      <trkpt lat="44.1287" lon="2.25738">
        <ele>304.9</ele>
        <time>2016-05-04T15:49:03Z</time>
      </trkpt>
      <trkpt lat="44.12869" lon="2.25738">
        <ele>304.9</ele>
        <time>2016-05-04T15:49:04Z</time>
      </trkpt>
      <trkpt lat="44.12869" lon="2.25737">
        <ele>304.2</ele>
        <time>2016-05-04T15:49:05Z</time>
      </trkpt>
      <trkpt lat="44.12869" lon="2.25737">
        <ele>303.7</ele>
        <time>2016-05-04T15:49:06Z</time>
      </trkpt>
      <trkpt lat="44.12869" lon="2.25736">
        <ele>303.3</ele>
        <time>2016-05-04T15:49:07Z</time>
      </trkpt>
      <trkpt lat="44.12869" lon="2.25736">
        <ele>302.8</ele>
        <time>2016-05-04T15:49:08Z</time>
      </trkpt>
      <trkpt lat="44.12869" lon="2.25735">
        <ele>302.5</ele>
        <time>2016-05-04T15:49:09Z</time>
      </trkpt>
      <trkpt lat="44.12869" lon="2.25735">
        <ele>302.2</ele>
        <time>2016-05-04T15:49:10Z</time>
      </trkpt>
      <trkpt lat="44.12869" lon="2.25735">
        <ele>301.8</ele>
        <time>2016-05-04T15:49:11Z</time>
      </trkpt>
      <trkpt lat="44.12869" lon="2.25735">
        <ele>301.5</ele>
        <time>2016-05-04T15:49:12Z</time>
      </trkpt>
      <trkpt lat="44.12869" lon="2.25735">
        <ele>301.2</ele>
        <time>2016-05-04T15:49:13Z</time>
      </trkpt>
      <trkpt lat="44.1287" lon="2.25735">
        <ele>301.1</ele>
        <time>2016-05-04T15:49:14Z</time>
      </trkpt>
      <trkpt lat="44.1287" lon="2.25734">
        <ele>300.9</ele>
        <time>2016-05-04T15:49:15Z</time>
      </trkpt>
      <trkpt lat="44.12874" lon="2.25734">
        <ele>299.7</ele>
        <time>2016-05-04T15:49:19Z</time>
      </trkpt>
      <trkpt lat="44.12878" lon="2.25732">
        <ele>299</ele>
        <time>2016-05-04T15:49:25Z</time>
      </trkpt>
      <trkpt lat="44.12878" lon="2.25733">
        <ele>298.4</ele>
        <time>2016-05-04T15:49:28Z</time>
      </trkpt>
      <trkpt lat="44.12878" lon="2.25733">
        <ele>298.3</ele>
        <time>2016-05-04T15:49:29Z</time>
      </trkpt>
      <trkpt lat="44.12878" lon="2.25733">
        <ele>298.2</ele>
        <time>2016-05-04T15:49:30Z</time>
      </trkpt>
      <trkpt lat="44.12879" lon="2.25733">
        <ele>298.1</ele>
        <time>2016-05-04T15:49:31Z</time>
      </trkpt>
      <trkpt lat="44.12879" lon="2.25733">
        <ele>297.9</ele>
        <time>2016-05-04T15:49:32Z</time>
      </trkpt>
      <trkpt lat="44.12879" lon="2.25733">
        <ele>297.7</ele>
        <time>2016-05-04T15:49:33Z</time>
      </trkpt>
      <trkpt lat="44.1288" lon="2.25734">
        <ele>297.5</ele>
        <time>2016-05-04T15:49:34Z</time>
      </trkpt>
      <trkpt lat="44.1288" lon="2.25734">
        <ele>297.2</ele>
        <time>2016-05-04T15:49:35Z</time>
      </trkpt>
      <trkpt lat="44.12881" lon="2.25734">
        <ele>297</ele>
        <time>2016-05-04T15:49:36Z</time>
      </trkpt>
      <trkpt lat="44.12881" lon="2.25734">
        <ele>296.8</ele>
        <time>2016-05-04T15:49:37Z</time>
      </trkpt>
      <trkpt lat="44.12882" lon="2.25733">
        <ele>296.9</ele>
        <time>2016-05-04T15:49:38Z</time>
      </trkpt>
      <trkpt lat="44.12883" lon="2.25733">
        <ele>297</ele>
        <time>2016-05-04T15:49:40Z</time>
      </trkpt>
      <trkpt lat="44.12886" lon="2.2573">
        <ele>295.7</ele>
        <time>2016-05-04T15:49:50Z</time>
      </trkpt>
      <trkpt lat="44.12886" lon="2.2573">
        <ele>295.5</ele>
        <time>2016-05-04T15:49:52Z</time>
      </trkpt>
      <trkpt lat="44.12886" lon="2.2573">
        <ele>295.3</ele>
        <time>2016-05-04T15:49:53Z</time>
      </trkpt>
      <trkpt lat="44.12886" lon="2.25729">
        <ele>295.1</ele>
        <time>2016-05-04T15:49:54Z</time>
      </trkpt>
      <trkpt lat="44.12886" lon="2.25729">
        <ele>295</ele>
        <time>2016-05-04T15:49:55Z</time>
      </trkpt>
      <trkpt lat="44.12885" lon="2.25728">
        <ele>294.9</ele>
        <time>2016-05-04T15:49:56Z</time>
      </trkpt>
      <trkpt lat="44.12885" lon="2.25728">
        <ele>294.8</ele>
        <time>2016-05-04T15:49:57Z</time>
      </trkpt>
      <trkpt lat="44.12885" lon="2.25727">
        <ele>294.7</ele>
        <time>2016-05-04T15:49:58Z</time>
      </trkpt>
      <trkpt lat="44.12884" lon="2.25726">
        <ele>294.5</ele>
        <time>2016-05-04T15:49:59Z</time>
      </trkpt>
      <trkpt lat="44.12883" lon="2.25725">
        <ele>294.3</ele>
        <time>2016-05-04T15:50:00Z</time>
      </trkpt>
      <trkpt lat="44.12882" lon="2.25724">
        <ele>294.1</ele>
        <time>2016-05-04T15:50:01Z</time>
      </trkpt>
      <trkpt lat="44.12881" lon="2.25723">
        <ele>294</ele>
        <time>2016-05-04T15:50:02Z</time>
      </trkpt>
      <trkpt lat="44.1288" lon="2.25723">
        <ele>294</ele>
        <time>2016-05-04T15:50:03Z</time>
      </trkpt>
      <trkpt lat="44.12879" lon="2.25722">
        <ele>293.9</ele>
        <time>2016-05-04T15:50:04Z</time>
      </trkpt>
      <trkpt lat="44.12878" lon="2.25721">
        <ele>293.8</ele>
        <time>2016-05-04T15:50:05Z</time>
      </trkpt>
      <trkpt lat="44.12878" lon="2.25721">
        <ele>293.8</ele>
        <time>2016-05-04T15:50:06Z</time>
      </trkpt>
      <trkpt lat="44.12877" lon="2.2572">
        <ele>293.8</ele>
        <time>2016-05-04T15:50:07Z</time>
      </trkpt>
      <trkpt lat="44.12877" lon="2.25719">
        <ele>293.8</ele>
        <time>2016-05-04T15:50:08Z</time>
      </trkpt>
      <trkpt lat="44.12876" lon="2.25718">
        <ele>293.8</ele>
        <time>2016-05-04T15:50:09Z</time>
      </trkpt>
      <trkpt lat="44.12876" lon="2.25718">
        <ele>293.7</ele>
        <time>2016-05-04T15:50:10Z</time>
      </trkpt>
      <trkpt lat="44.12875" lon="2.25717">
        <ele>293.5</ele>
        <time>2016-05-04T15:50:11Z</time>
      </trkpt>
      <trkpt lat="44.12874" lon="2.25716">
        <ele>293.4</ele>
        <time>2016-05-04T15:50:12Z</time>
      </trkpt>
      <trkpt lat="44.12872" lon="2.25715">
        <ele>293.2</ele>
        <time>2016-05-04T15:50:13Z</time>
      </trkpt>
      <trkpt lat="44.1287" lon="2.25714">
        <ele>293.1</ele>
        <time>2016-05-04T15:50:14Z</time>
      </trkpt>
      <trkpt lat="44.12868" lon="2.25713">
        <ele>293.1</ele>
        <time>2016-05-04T15:50:15Z</time>
      </trkpt>
      <trkpt lat="44.12866" lon="2.25712">
        <ele>292.8</ele>
        <time>2016-05-04T15:50:16Z</time>
      </trkpt>
      <trkpt lat="44.12864" lon="2.25711">
        <ele>292.6</ele>
        <time>2016-05-04T15:50:17Z</time>
      </trkpt>
      <trkpt lat="44.12862" lon="2.2571">
        <ele>292.5</ele>
        <time>2016-05-04T15:50:18Z</time>
      </trkpt>
      <trkpt lat="44.12861" lon="2.2571">
        <ele>292.3</ele>
        <time>2016-05-04T15:50:19Z</time>
      </trkpt>
      <trkpt lat="44.12859" lon="2.25709">
        <ele>292.3</ele>
        <time>2016-05-04T15:50:20Z</time>
      </trkpt>
      <trkpt lat="44.12858" lon="2.25709">
        <ele>292.2</ele>
        <time>2016-05-04T15:50:21Z</time>
      </trkpt>
      <trkpt lat="44.12856" lon="2.25708">
        <ele>292.4</ele>
        <time>2016-05-04T15:50:22Z</time>
      </trkpt>
      <trkpt lat="44.12854" lon="2.25707">
        <ele>292.5</ele>
        <time>2016-05-04T15:50:23Z</time>
      </trkpt>
      <trkpt lat="44.12852" lon="2.25707">
        <ele>292.6</ele>
        <time>2016-05-04T15:50:24Z</time>
      </trkpt>
      <trkpt lat="44.12851" lon="2.25706">
        <ele>292.9</ele>
        <time>2016-05-04T15:50:25Z</time>
      </trkpt>
      <trkpt lat="44.12849" lon="2.25705">
        <ele>293.1</ele>
        <time>2016-05-04T15:50:26Z</time>
      </trkpt>
      <trkpt lat="44.12847" lon="2.25704">
        <ele>293.2</ele>
        <time>2016-05-04T15:50:27Z</time>
      </trkpt>
      <trkpt lat="44.12846" lon="2.25703">
        <ele>292.9</ele>
        <time>2016-05-04T15:50:28Z</time>
      </trkpt>
      <trkpt lat="44.12846" lon="2.25703">
        <ele>292.7</ele>
        <time>2016-05-04T15:50:29Z</time>
      </trkpt>
      <trkpt lat="44.12845" lon="2.25702">
        <ele>292.5</ele>
        <time>2016-05-04T15:50:30Z</time>
      </trkpt>
      <trkpt lat="44.12844" lon="2.25702">
        <ele>292.4</ele>
        <time>2016-05-04T15:50:31Z</time>
      </trkpt>
      <trkpt lat="44.12843" lon="2.25701">
        <ele>292.3</ele>
        <time>2016-05-04T15:50:32Z</time>
      </trkpt>
      <trkpt lat="44.12843" lon="2.25701">
        <ele>292.2</ele>
        <time>2016-05-04T15:50:33Z</time>
      </trkpt>
      <trkpt lat="44.12842" lon="2.257">
        <ele>291.7</ele>
        <time>2016-05-04T15:50:34Z</time>
      </trkpt>
      <trkpt lat="44.12841" lon="2.257">
        <ele>291.4</ele>
        <time>2016-05-04T15:50:35Z</time>
      </trkpt>
      <trkpt lat="44.12841" lon="2.25699">
        <ele>291.1</ele>
        <time>2016-05-04T15:50:36Z</time>
      </trkpt>
      <trkpt lat="44.1284" lon="2.25699">
        <ele>290.9</ele>
        <time>2016-05-04T15:50:37Z</time>
      </trkpt>
      <trkpt lat="44.12839" lon="2.25698">
        <ele>290.8</ele>
        <time>2016-05-04T15:50:38Z</time>
      </trkpt>
      <trkpt lat="44.12839" lon="2.25697">
        <ele>290.6</ele>
        <time>2016-05-04T15:50:39Z</time>
      </trkpt>
      <trkpt lat="44.12838" lon="2.25696">
        <ele>290.6</ele>
        <time>2016-05-04T15:50:40Z</time>
      </trkpt>
      <trkpt lat="44.12837" lon="2.25695">
        <ele>290.5</ele>
        <time>2016-05-04T15:50:41Z</time>
      </trkpt>
      <trkpt lat="44.12835" lon="2.25695">
        <ele>290.4</ele>
        <time>2016-05-04T15:50:42Z</time>
      </trkpt>
      <trkpt lat="44.12834" lon="2.25694">
        <ele>290.4</ele>
        <time>2016-05-04T15:50:43Z</time>
      </trkpt>
      <trkpt lat="44.12833" lon="2.25693">
        <ele>290.4</ele>
        <time>2016-05-04T15:50:44Z</time>
      </trkpt>
      <trkpt lat="44.12832" lon="2.25692">
        <ele>290.4</ele>
        <time>2016-05-04T15:50:45Z</time>
      </trkpt>
      <trkpt lat="44.12831" lon="2.25691">
        <ele>290.1</ele>
        <time>2016-05-04T15:50:46Z</time>
      </trkpt>
      <trkpt lat="44.1283" lon="2.25691">
        <ele>290</ele>
        <time>2016-05-04T15:50:47Z</time>
      </trkpt>
      <trkpt lat="44.12829" lon="2.2569">
        <ele>289.8</ele>
        <time>2016-05-04T15:50:48Z</time>
      </trkpt>
      <trkpt lat="44.12828" lon="2.2569">
        <ele>290</ele>
        <time>2016-05-04T15:50:49Z</time>
      </trkpt>
      <trkpt lat="44.12827" lon="2.25689">
        <ele>290</ele>
        <time>2016-05-04T15:50:50Z</time>
      </trkpt>
      <trkpt lat="44.12826" lon="2.25689">
        <ele>290.1</ele>
        <time>2016-05-04T15:50:51Z</time>
      </trkpt>
      <trkpt lat="44.12824" lon="2.25688">
        <ele>289.9</ele>
        <time>2016-05-04T15:50:52Z</time>
      </trkpt>
      <trkpt lat="44.12822" lon="2.25687">
        <ele>289.8</ele>
        <time>2016-05-04T15:50:53Z</time>
      </trkpt>
      <trkpt lat="44.1282" lon="2.25686">
        <ele>289.7</ele>
        <time>2016-05-04T15:50:54Z</time>
      </trkpt>
      <trkpt lat="44.12818" lon="2.25686">
        <ele>289.7</ele>
        <time>2016-05-04T15:50:55Z</time>
      </trkpt>
      <trkpt lat="44.12815" lon="2.25685">
        <ele>289.6</ele>
        <time>2016-05-04T15:50:56Z</time>
      </trkpt>
      <trkpt lat="44.12812" lon="2.25684">
        <ele>289.6</ele>
        <time>2016-05-04T15:50:57Z</time>
      </trkpt>
      <trkpt lat="44.12809" lon="2.25684">
        <ele>288.9</ele>
        <time>2016-05-04T15:50:58Z</time>
      </trkpt>
      <trkpt lat="44.12807" lon="2.25683">
        <ele>288.4</ele>
        <time>2016-05-04T15:50:59Z</time>
      </trkpt>
      <trkpt lat="44.12804" lon="2.25682">
        <ele>288</ele>
        <time>2016-05-04T15:51:00Z</time>
      </trkpt>
      <trkpt lat="44.12801" lon="2.25681">
        <ele>287.5</ele>
        <time>2016-05-04T15:51:01Z</time>
      </trkpt>
      <trkpt lat="44.12799" lon="2.25681">
        <ele>287.2</ele>
        <time>2016-05-04T15:51:02Z</time>
      </trkpt>
      <trkpt lat="44.12797" lon="2.2568">
        <ele>286.9</ele>
        <time>2016-05-04T15:51:03Z</time>
      </trkpt>
      <trkpt lat="44.12796" lon="2.25679">
        <ele>286.7</ele>
        <time>2016-05-04T15:51:04Z</time>
      </trkpt>
      <trkpt lat="44.12794" lon="2.25679">
        <ele>286.5</ele>
        <time>2016-05-04T15:51:05Z</time>
      </trkpt>
      <trkpt lat="44.12792" lon="2.25678">
        <ele>286.4</ele>
        <time>2016-05-04T15:51:06Z</time>
      </trkpt>
      <trkpt lat="44.12791" lon="2.25677">
        <ele>286.5</ele>
        <time>2016-05-04T15:51:07Z</time>
      </trkpt>
      <trkpt lat="44.12789" lon="2.25677">
        <ele>286.6</ele>
        <time>2016-05-04T15:51:08Z</time>
      </trkpt>
      <trkpt lat="44.12788" lon="2.25676">
        <ele>286.7</ele>
        <time>2016-05-04T15:51:09Z</time>
      </trkpt>
      <trkpt lat="44.12787" lon="2.25676">
        <ele>286.5</ele>
        <time>2016-05-04T15:51:10Z</time>
      </trkpt>
      <trkpt lat="44.12786" lon="2.25675">
        <ele>286.4</ele>
        <time>2016-05-04T15:51:11Z</time>
      </trkpt>
      <trkpt lat="44.12785" lon="2.25674">
        <ele>286.3</ele>
        <time>2016-05-04T15:51:12Z</time>
      </trkpt>
      <trkpt lat="44.12784" lon="2.25674">
        <ele>286</ele>
        <time>2016-05-04T15:51:13Z</time>
      </trkpt>
      <trkpt lat="44.12783" lon="2.25673">
        <ele>285.8</ele>
        <time>2016-05-04T15:51:14Z</time>
      </trkpt>
      <trkpt lat="44.12782" lon="2.25672">
        <ele>285.7</ele>
        <time>2016-05-04T15:51:15Z</time>
      </trkpt>
      <trkpt lat="44.12781" lon="2.25671">
        <ele>285.6</ele>
        <time>2016-05-04T15:51:16Z</time>
      </trkpt>
      <trkpt lat="44.12781" lon="2.25671">
        <ele>285.5</ele>
        <time>2016-05-04T15:51:17Z</time>
      </trkpt>
      <trkpt lat="44.1278" lon="2.2567">
        <ele>285.4</ele>
        <time>2016-05-04T15:51:18Z</time>
      </trkpt>
      <trkpt lat="44.12779" lon="2.25669">
        <ele>285.1</ele>
        <time>2016-05-04T15:51:19Z</time>
      </trkpt>
      <trkpt lat="44.12777" lon="2.25668">
        <ele>284.9</ele>
        <time>2016-05-04T15:51:20Z</time>
      </trkpt>
      <trkpt lat="44.12774" lon="2.25667">
        <ele>284.8</ele>
        <time>2016-05-04T15:51:21Z</time>
      </trkpt>
      <trkpt lat="44.12696" lon="2.25642">
        <ele>281.9</ele>
        <time>2016-05-04T15:51:42Z</time>
      </trkpt>
      <trkpt lat="44.12683" lon="2.25641">
        <ele>281.1</ele>
        <time>2016-05-04T15:51:50Z</time>
      </trkpt>
      <trkpt lat="44.1268" lon="2.25643">
        <ele>281.2</ele>
        <time>2016-05-04T15:51:52Z</time>
      </trkpt>
      <trkpt lat="44.12679" lon="2.25644">
        <ele>281.1</ele>
        <time>2016-05-04T15:51:53Z</time>
      </trkpt>
      <trkpt lat="44.12678" lon="2.25645">
        <ele>281.1</ele>
        <time>2016-05-04T15:51:54Z</time>
      </trkpt>
      <trkpt lat="44.12677" lon="2.25647">
        <ele>280.6</ele>
        <time>2016-05-04T15:51:55Z</time>
      </trkpt>
      <trkpt lat="44.12676" lon="2.25648">
        <ele>280.3</ele>
        <time>2016-05-04T15:51:56Z</time>
      </trkpt>
      <trkpt lat="44.12675" lon="2.2565">
        <ele>280</ele>
        <time>2016-05-04T15:51:57Z</time>
      </trkpt>
      <trkpt lat="44.12674" lon="2.25652">
        <ele>280.3</ele>
        <time>2016-05-04T15:51:58Z</time>
      </trkpt>
      <trkpt lat="44.12673" lon="2.25654">
        <ele>280.4</ele>
        <time>2016-05-04T15:51:59Z</time>
      </trkpt>
      <trkpt lat="44.12672" lon="2.25656">
        <ele>280.6</ele>
        <time>2016-05-04T15:52:00Z</time>
      </trkpt>
      <trkpt lat="44.12671" lon="2.25658">
        <ele>279.6</ele>
        <time>2016-05-04T15:52:01Z</time>
      </trkpt>
      <trkpt lat="44.1267" lon="2.25659">
        <ele>278.9</ele>
        <time>2016-05-04T15:52:02Z</time>
      </trkpt>
      <trkpt lat="44.12669" lon="2.25661">
        <ele>278.3</ele>
        <time>2016-05-04T15:52:03Z</time>
      </trkpt>
      <trkpt lat="44.12668" lon="2.25663">
        <ele>279</ele>
        <time>2016-05-04T15:52:04Z</time>
      </trkpt>
      <trkpt lat="44.12666" lon="2.25664">
        <ele>279.5</ele>
        <time>2016-05-04T15:52:05Z</time>
      </trkpt>
      <trkpt lat="44.12665" lon="2.25666">
        <ele>279.8</ele>
        <time>2016-05-04T15:52:06Z</time>
      </trkpt>
      <trkpt lat="44.12664" lon="2.25667">
        <ele>280.3</ele>
        <time>2016-05-04T15:52:07Z</time>
      </trkpt>
      <trkpt lat="44.12663" lon="2.25669">
        <ele>280.7</ele>
        <time>2016-05-04T15:52:08Z</time>
      </trkpt>
      <trkpt lat="44.12662" lon="2.2567">
        <ele>281</ele>
        <time>2016-05-04T15:52:09Z</time>
      </trkpt>
      <trkpt lat="44.1266" lon="2.25672">
        <ele>280.5</ele>
        <time>2016-05-04T15:52:10Z</time>
      </trkpt>
      <trkpt lat="44.12659" lon="2.25673">
        <ele>280.2</ele>
        <time>2016-05-04T15:52:11Z</time>
      </trkpt>
      <trkpt lat="44.12658" lon="2.25674">
        <ele>280</ele>
        <time>2016-05-04T15:52:12Z</time>
      </trkpt>
      <trkpt lat="44.12657" lon="2.25675">
        <ele>280.2</ele>
        <time>2016-05-04T15:52:13Z</time>
      </trkpt>
      <trkpt lat="44.12656" lon="2.25677">
        <ele>280.4</ele>
        <time>2016-05-04T15:52:14Z</time>
      </trkpt>
      <trkpt lat="44.12655" lon="2.25678">
        <ele>280.5</ele>
        <time>2016-05-04T15:52:15Z</time>
      </trkpt>
      <trkpt lat="44.12653" lon="2.25679">
        <ele>280</ele>
        <time>2016-05-04T15:52:16Z</time>
      </trkpt>
      <trkpt lat="44.12652" lon="2.2568">
        <ele>279.6</ele>
        <time>2016-05-04T15:52:17Z</time>
      </trkpt>
      <trkpt lat="44.12648" lon="2.25683">
        <ele>283.7</ele>
        <time>2016-05-04T15:52:21Z</time>
      </trkpt>
      <trkpt lat="44.12644" lon="2.25685">
        <ele>282.3</ele>
        <time>2016-05-04T15:52:26Z</time>
      </trkpt>
      <trkpt lat="44.12643" lon="2.25686">
        <ele>281.6</ele>
        <time>2016-05-04T15:52:28Z</time>
      </trkpt>
      <trkpt lat="44.12642" lon="2.25686">
        <ele>281.4</ele>
        <time>2016-05-04T15:52:29Z</time>
      </trkpt>
      <trkpt lat="44.12637" lon="2.25687">
        <ele>275.9</ele>
        <time>2016-05-04T15:52:36Z</time>
      </trkpt>
      <trkpt lat="44.12636" lon="2.25687">
        <ele>276.7</ele>
        <time>2016-05-04T15:52:37Z</time>
      </trkpt>
      <trkpt lat="44.12636" lon="2.25686">
        <ele>277.4</ele>
        <time>2016-05-04T15:52:38Z</time>
      </trkpt>
      <trkpt lat="44.12635" lon="2.25686">
        <ele>277.8</ele>
        <time>2016-05-04T15:52:39Z</time>
      </trkpt>
      <trkpt lat="44.12634" lon="2.25686">
        <ele>279</ele>
        <time>2016-05-04T15:52:40Z</time>
      </trkpt>
      <trkpt lat="44.12633" lon="2.25686">
        <ele>279.9</ele>
        <time>2016-05-04T15:52:41Z</time>
      </trkpt>
      <trkpt lat="44.12633" lon="2.25685">
        <ele>280.6</ele>
        <time>2016-05-04T15:52:42Z</time>
      </trkpt>
      <trkpt lat="44.12632" lon="2.25685">
        <ele>280.1</ele>
        <time>2016-05-04T15:52:43Z</time>
      </trkpt>
      <trkpt lat="44.12631" lon="2.25685">
        <ele>279.6</ele>
        <time>2016-05-04T15:52:44Z</time>
      </trkpt>
      <trkpt lat="44.12631" lon="2.25685">
        <ele>279.3</ele>
        <time>2016-05-04T15:52:45Z</time>
      </trkpt>
      <trkpt lat="44.1263" lon="2.25685">
        <ele>279.1</ele>
        <time>2016-05-04T15:52:46Z</time>
      </trkpt>
      <trkpt lat="44.12629" lon="2.25684">
        <ele>278.9</ele>
        <time>2016-05-04T15:52:47Z</time>
      </trkpt>
      <trkpt lat="44.12629" lon="2.25684">
        <ele>278.8</ele>
        <time>2016-05-04T15:52:48Z</time>
      </trkpt>
      <trkpt lat="44.12629" lon="2.25684">
        <ele>279.1</ele>
        <time>2016-05-04T15:52:49Z</time>
      </trkpt>
      <trkpt lat="44.12629" lon="2.25684">
        <ele>279.4</ele>
        <time>2016-05-04T15:52:50Z</time>
      </trkpt>
      <trkpt lat="44.12629" lon="2.25683">
        <ele>279.5</ele>
        <time>2016-05-04T15:52:51Z</time>
      </trkpt>
      <trkpt lat="44.12629" lon="2.25682">
        <ele>280.2</ele>
        <time>2016-05-04T15:52:53Z</time>
      </trkpt>
      <trkpt lat="44.12629" lon="2.25681">
        <ele>280.4</ele>
        <time>2016-05-04T15:52:54Z</time>
      </trkpt>
      <trkpt lat="44.12629" lon="2.25679">
        <ele>280.3</ele>
        <time>2016-05-04T15:52:55Z</time>
      </trkpt>
      <trkpt lat="44.12629" lon="2.25678">
        <ele>280.2</ele>
        <time>2016-05-04T15:52:56Z</time>
      </trkpt>
      <trkpt lat="44.12629" lon="2.25676">
        <ele>280.2</ele>
        <time>2016-05-04T15:52:57Z</time>
      </trkpt>
      <trkpt lat="44.12629" lon="2.25674">
        <ele>280.4</ele>
        <time>2016-05-04T15:52:58Z</time>
      </trkpt>
      <trkpt lat="44.1263" lon="2.25672">
        <ele>280.5</ele>
        <time>2016-05-04T15:52:59Z</time>
      </trkpt>
      <trkpt lat="44.1263" lon="2.2567">
        <ele>280.6</ele>
        <time>2016-05-04T15:53:00Z</time>
      </trkpt>
      <trkpt lat="44.1263" lon="2.25668">
        <ele>280.5</ele>
        <time>2016-05-04T15:53:01Z</time>
      </trkpt>
      <trkpt lat="44.1263" lon="2.25666">
        <ele>280.4</ele>
        <time>2016-05-04T15:53:02Z</time>
      </trkpt>
      <trkpt lat="44.1263" lon="2.25665">
        <ele>280.3</ele>
        <time>2016-05-04T15:53:03Z</time>
      </trkpt>
      <trkpt lat="44.1263" lon="2.25664">
        <ele>280.5</ele>
        <time>2016-05-04T15:53:04Z</time>
      </trkpt>
      <trkpt lat="44.1263" lon="2.25663">
        <ele>280.6</ele>
        <time>2016-05-04T15:53:05Z</time>
      </trkpt>
      <trkpt lat="44.12629" lon="2.25662">
        <ele>280.7</ele>
        <time>2016-05-04T15:53:06Z</time>
      </trkpt>
      <trkpt lat="44.12629" lon="2.25661">
        <ele>280.3</ele>
        <time>2016-05-04T15:53:07Z</time>
      </trkpt>
      <trkpt lat="44.12629" lon="2.2566">
        <ele>280.1</ele>
        <time>2016-05-04T15:53:08Z</time>
      </trkpt>
      <trkpt lat="44.12628" lon="2.2566">
        <ele>279.9</ele>
        <time>2016-05-04T15:53:09Z</time>
      </trkpt>
      <trkpt lat="44.12627" lon="2.25659">
        <ele>280.1</ele>
        <time>2016-05-04T15:53:10Z</time>
      </trkpt>
      <trkpt lat="44.12595" lon="2.25644">
        <ele>280.4</ele>
        <time>2016-05-04T15:53:27Z</time>
      </trkpt>
      <trkpt lat="44.12595" lon="2.25644">
        <ele>280.1</ele>
        <time>2016-05-04T15:53:28Z</time>
      </trkpt>
      <trkpt lat="44.12594" lon="2.25644">
        <ele>279.9</ele>
        <time>2016-05-04T15:53:29Z</time>
      </trkpt>
      <trkpt lat="44.12594" lon="2.25644">
        <ele>279.7</ele>
        <time>2016-05-04T15:53:30Z</time>
      </trkpt>
      <trkpt lat="44.12593" lon="2.25644">
        <ele>279.8</ele>
        <time>2016-05-04T15:53:31Z</time>
      </trkpt>
      <trkpt lat="44.12593" lon="2.25644">
        <ele>279.9</ele>
        <time>2016-05-04T15:53:32Z</time>
      </trkpt>
      <trkpt lat="44.12593" lon="2.25644">
        <ele>279.9</ele>
        <time>2016-05-04T15:53:33Z</time>
      </trkpt>
      <trkpt lat="44.12593" lon="2.25643">
        <ele>279.7</ele>
        <time>2016-05-04T15:53:37Z</time>
      </trkpt>
      <trkpt lat="44.12592" lon="2.25643">
        <ele>279.8</ele>
        <time>2016-05-04T15:53:38Z</time>
      </trkpt>
      <trkpt lat="44.1259" lon="2.25641">
        <ele>280.1</ele>
        <time>2016-05-04T15:53:40Z</time>
      </trkpt>
      <trkpt lat="44.12588" lon="2.2564">
        <ele>280.3</ele>
        <time>2016-05-04T15:53:41Z</time>
      </trkpt>
      <trkpt lat="44.12586" lon="2.25639">
        <ele>280.5</ele>
        <time>2016-05-04T15:53:42Z</time>
      </trkpt>
      <trkpt lat="44.12579" lon="2.25632">
        <ele>279.4</ele>
        <time>2016-05-04T15:53:49Z</time>
      </trkpt>
      <trkpt lat="44.12577" lon="2.25629">
        <ele>279.5</ele>
        <time>2016-05-04T15:53:52Z</time>
      </trkpt>
      <trkpt lat="44.12575" lon="2.25622">
        <ele>280</ele>
        <time>2016-05-04T15:53:57Z</time>
      </trkpt>
      <trkpt lat="44.12575" lon="2.25614">
        <ele>280.4</ele>
        <time>2016-05-04T15:54:02Z</time>
      </trkpt>
      <trkpt lat="44.12576" lon="2.25604">
        <ele>280.4</ele>
        <time>2016-05-04T15:54:09Z</time>
      </trkpt>
      <trkpt lat="44.12576" lon="2.25603">
        <ele>280.3</ele>
        <time>2016-05-04T15:54:10Z</time>
      </trkpt>
      <trkpt lat="44.12577" lon="2.25602">
        <ele>280.3</ele>
        <time>2016-05-04T15:54:11Z</time>
      </trkpt>
      <trkpt lat="44.12578" lon="2.256">
        <ele>280.2</ele>
        <time>2016-05-04T15:54:12Z</time>
      </trkpt>
      <trkpt lat="44.12578" lon="2.25599">
        <ele>280.2</ele>
        <time>2016-05-04T15:54:13Z</time>
      </trkpt>
      <trkpt lat="44.12579" lon="2.25598">
        <ele>280.2</ele>
        <time>2016-05-04T15:54:14Z</time>
      </trkpt>
      <trkpt lat="44.1258" lon="2.25596">
        <ele>280.2</ele>
        <time>2016-05-04T15:54:15Z</time>
      </trkpt>
      <trkpt lat="44.12584" lon="2.25581">
        <ele>280.1</ele>
        <time>2016-05-04T15:54:25Z</time>
      </trkpt>
      <trkpt lat="44.12593" lon="2.25549">
        <ele>277.6</ele>
        <time>2016-05-04T15:54:47Z</time>
      </trkpt>
      <trkpt lat="44.12594" lon="2.25548">
        <ele>277.6</ele>
        <time>2016-05-04T15:54:48Z</time>
      </trkpt>
      <trkpt lat="44.12594" lon="2.25548">
        <ele>277.4</ele>
        <time>2016-05-04T15:54:49Z</time>
      </trkpt>
      <trkpt lat="44.12593" lon="2.25547">
        <ele>277.2</ele>
        <time>2016-05-04T15:54:50Z</time>
      </trkpt>
      <trkpt lat="44.12593" lon="2.25546">
        <ele>277.1</ele>
        <time>2016-05-04T15:54:51Z</time>
      </trkpt>
      <trkpt lat="44.12593" lon="2.25546">
        <ele>276.8</ele>
        <time>2016-05-04T15:54:52Z</time>
      </trkpt>
      <trkpt lat="44.12593" lon="2.25545">
        <ele>276.5</ele>
        <time>2016-05-04T15:54:53Z</time>
      </trkpt>
      <trkpt lat="44.12593" lon="2.25544">
        <ele>276.4</ele>
        <time>2016-05-04T15:54:54Z</time>
      </trkpt>
      <trkpt lat="44.12593" lon="2.25543">
        <ele>276.4</ele>
        <time>2016-05-04T15:54:55Z</time>
      </trkpt>
      <trkpt lat="44.12593" lon="2.25543">
        <ele>276.5</ele>
        <time>2016-05-04T15:54:56Z</time>
      </trkpt>
      <trkpt lat="44.12593" lon="2.25542">
        <ele>276.6</ele>
        <time>2016-05-04T15:54:57Z</time>
      </trkpt>
      <trkpt lat="44.12593" lon="2.25542">
        <ele>276.6</ele>
        <time>2016-05-04T15:54:58Z</time>
      </trkpt>
      <trkpt lat="44.12593" lon="2.25541">
        <ele>276.6</ele>
        <time>2016-05-04T15:54:59Z</time>
      </trkpt>
      <trkpt lat="44.12593" lon="2.25541">
        <ele>276.6</ele>
        <time>2016-05-04T15:55:00Z</time>
      </trkpt>
      <trkpt lat="44.12593" lon="2.25541">
        <ele>276.4</ele>
        <time>2016-05-04T15:55:01Z</time>
      </trkpt>
      <trkpt lat="44.12593" lon="2.2554">
        <ele>276.3</ele>
        <time>2016-05-04T15:55:02Z</time>
      </trkpt>
      <trkpt lat="44.12593" lon="2.2554">
        <ele>276.2</ele>
        <time>2016-05-04T15:55:03Z</time>
      </trkpt>
      <trkpt lat="44.12593" lon="2.2554">
        <ele>276.1</ele>
        <time>2016-05-04T15:55:04Z</time>
      </trkpt>
      <trkpt lat="44.12593" lon="2.25539">
        <ele>276</ele>
        <time>2016-05-04T15:55:05Z</time>
      </trkpt>
      <trkpt lat="44.12594" lon="2.25537">
        <ele>276.1</ele>
        <time>2016-05-04T15:55:10Z</time>
      </trkpt>
      <trkpt lat="44.126" lon="2.25534">
        <ele>276.1</ele>
        <time>2016-05-04T15:55:15Z</time>
      </trkpt>
      <trkpt lat="44.12601" lon="2.25534">
        <ele>276</ele>
        <time>2016-05-04T15:55:16Z</time>
      </trkpt>
      <trkpt lat="44.12602" lon="2.25534">
        <ele>276</ele>
        <time>2016-05-04T15:55:17Z</time>
      </trkpt>
      <trkpt lat="44.12602" lon="2.25533">
        <ele>275.9</ele>
        <time>2016-05-04T15:55:18Z</time>
      </trkpt>
      <trkpt lat="44.12603" lon="2.25533">
        <ele>275.9</ele>
        <time>2016-05-04T15:55:19Z</time>
      </trkpt>
      <trkpt lat="44.12603" lon="2.25533">
        <ele>275.9</ele>
        <time>2016-05-04T15:55:20Z</time>
      </trkpt>
      <trkpt lat="44.12604" lon="2.25533">
        <ele>275.9</ele>
        <time>2016-05-04T15:55:21Z</time>
      </trkpt>
      <trkpt lat="44.12605" lon="2.25533">
        <ele>275.7</ele>
        <time>2016-05-04T15:55:22Z</time>
      </trkpt>
      <trkpt lat="44.12605" lon="2.25533">
        <ele>275.5</ele>
        <time>2016-05-04T15:55:23Z</time>
      </trkpt>
      <trkpt lat="44.12606" lon="2.25533">
        <ele>275.6</ele>
        <time>2016-05-04T15:55:24Z</time>
      </trkpt>
      <trkpt lat="44.12607" lon="2.25533">
        <ele>275.7</ele>
        <time>2016-05-04T15:55:25Z</time>
      </trkpt>
      <trkpt lat="44.12608" lon="2.25533">
        <ele>275.7</ele>
        <time>2016-05-04T15:55:26Z</time>
      </trkpt>
      <trkpt lat="44.12609" lon="2.25533">
        <ele>275.7</ele>
        <time>2016-05-04T15:55:27Z</time>
      </trkpt>
      <trkpt lat="44.1261" lon="2.25532">
        <ele>275.8</ele>
        <time>2016-05-04T15:55:28Z</time>
      </trkpt>
      <trkpt lat="44.12612" lon="2.25532">
        <ele>275.8</ele>
        <time>2016-05-04T15:55:29Z</time>
      </trkpt>
      <trkpt lat="44.12613" lon="2.25532">
        <ele>275.8</ele>
        <time>2016-05-04T15:55:30Z</time>
      </trkpt>
      <trkpt lat="44.12614" lon="2.25531">
        <ele>275.8</ele>
        <time>2016-05-04T15:55:31Z</time>
      </trkpt>
      <trkpt lat="44.12615" lon="2.25531">
        <ele>275.8</ele>
        <time>2016-05-04T15:55:32Z</time>
      </trkpt>
      <trkpt lat="44.12616" lon="2.2553">
        <ele>275.8</ele>
        <time>2016-05-04T15:55:33Z</time>
      </trkpt>
      <trkpt lat="44.12616" lon="2.2553">
        <ele>275.8</ele>
        <time>2016-05-04T15:55:34Z</time>
      </trkpt>
      <trkpt lat="44.12617" lon="2.2553">
        <ele>275.8</ele>
        <time>2016-05-04T15:55:35Z</time>
      </trkpt>
      <trkpt lat="44.12618" lon="2.2553">
        <ele>276.1</ele>
        <time>2016-05-04T15:55:36Z</time>
      </trkpt>
      <trkpt lat="44.12618" lon="2.2553">
        <ele>276.2</ele>
        <time>2016-05-04T15:55:37Z</time>
      </trkpt>
      <trkpt lat="44.12618" lon="2.25529">
        <ele>276.3</ele>
        <time>2016-05-04T15:55:38Z</time>
      </trkpt>
      <trkpt lat="44.12619" lon="2.25529">
        <ele>276</ele>
        <time>2016-05-04T15:55:39Z</time>
      </trkpt>
      <trkpt lat="44.12619" lon="2.2553">
        <ele>275.8</ele>
        <time>2016-05-04T15:55:40Z</time>
      </trkpt>
      <trkpt lat="44.12619" lon="2.2553">
        <ele>275.6</ele>
        <time>2016-05-04T15:55:41Z</time>
      </trkpt>
      <trkpt lat="44.12619" lon="2.2553">
        <ele>275.6</ele>
        <time>2016-05-04T15:55:42Z</time>
      </trkpt>
      <trkpt lat="44.12619" lon="2.2553">
        <ele>275.7</ele>
        <time>2016-05-04T15:55:43Z</time>
      </trkpt>
      <trkpt lat="44.1262" lon="2.2553">
        <ele>275.7</ele>
        <time>2016-05-04T15:55:44Z</time>
      </trkpt>
      <trkpt lat="44.1262" lon="2.2553">
        <ele>275.5</ele>
        <time>2016-05-04T15:55:45Z</time>
      </trkpt>
      <trkpt lat="44.1262" lon="2.25531">
        <ele>275.4</ele>
        <time>2016-05-04T15:55:46Z</time>
      </trkpt>
      <trkpt lat="44.12621" lon="2.25531">
        <ele>275.3</ele>
        <time>2016-05-04T15:55:47Z</time>
      </trkpt>
      <trkpt lat="44.12621" lon="2.25531">
        <ele>275.4</ele>
        <time>2016-05-04T15:55:48Z</time>
      </trkpt>
      <trkpt lat="44.12621" lon="2.25531">
        <ele>275.5</ele>
        <time>2016-05-04T15:55:49Z</time>
      </trkpt>
      <trkpt lat="44.12621" lon="2.25531">
        <ele>275.6</ele>
        <time>2016-05-04T15:55:50Z</time>
      </trkpt>
      <trkpt lat="44.12621" lon="2.25531">
        <ele>275.7</ele>
        <time>2016-05-04T15:55:51Z</time>
      </trkpt>
      <trkpt lat="44.12621" lon="2.25531">
        <ele>275.7</ele>
        <time>2016-05-04T15:55:52Z</time>
      </trkpt>
      <trkpt lat="44.12621" lon="2.25531">
        <ele>275.8</ele>
        <time>2016-05-04T15:55:53Z</time>
      </trkpt>
      <trkpt lat="44.12621" lon="2.25532">
        <ele>275.8</ele>
        <time>2016-05-04T15:55:54Z</time>
      </trkpt>
      <trkpt lat="44.12621" lon="2.25532">
        <ele>275.8</ele>
        <time>2016-05-04T15:55:55Z</time>
      </trkpt>
      <trkpt lat="44.12621" lon="2.25533">
        <ele>275.8</ele>
        <time>2016-05-04T15:55:56Z</time>
      </trkpt>
      <trkpt lat="44.12621" lon="2.25533">
        <ele>275.8</ele>
        <time>2016-05-04T15:55:57Z</time>
      </trkpt>
      <trkpt lat="44.12621" lon="2.25534">
        <ele>275.8</ele>
        <time>2016-05-04T15:55:58Z</time>
      </trkpt>
      <trkpt lat="44.12621" lon="2.25534">
        <ele>275.8</ele>
        <time>2016-05-04T15:55:59Z</time>
      </trkpt>
      <trkpt lat="44.12621" lon="2.25534">
        <ele>276</ele>
        <time>2016-05-04T15:56:00Z</time>
      </trkpt>
      <trkpt lat="44.12622" lon="2.25535">
        <ele>276.2</ele>
        <time>2016-05-04T15:56:01Z</time>
      </trkpt>
      <trkpt lat="44.12623" lon="2.25535">
        <ele>276.3</ele>
        <time>2016-05-04T15:56:02Z</time>
      </trkpt>
      <trkpt lat="44.12623" lon="2.25535">
        <ele>276</ele>
        <time>2016-05-04T15:56:03Z</time>
      </trkpt>
      <trkpt lat="44.12623" lon="2.25535">
        <ele>275.8</ele>
        <time>2016-05-04T15:56:04Z</time>
      </trkpt>
      <trkpt lat="44.12624" lon="2.25535">
        <ele>275.6</ele>
        <time>2016-05-04T15:56:05Z</time>
      </trkpt>
      <trkpt lat="44.12624" lon="2.25535">
        <ele>275.6</ele>
        <time>2016-05-04T15:56:06Z</time>
      </trkpt>
      <trkpt lat="44.12625" lon="2.25535">
        <ele>275.7</ele>
        <time>2016-05-04T15:56:07Z</time>
      </trkpt>
      <trkpt lat="44.12625" lon="2.25535">
        <ele>275.7</ele>
        <time>2016-05-04T15:56:08Z</time>
      </trkpt>
      <trkpt lat="44.12626" lon="2.25535">
        <ele>276</ele>
        <time>2016-05-04T15:56:09Z</time>
      </trkpt>
      <trkpt lat="44.12627" lon="2.25535">
        <ele>276.2</ele>
        <time>2016-05-04T15:56:10Z</time>
      </trkpt>
      <trkpt lat="44.12628" lon="2.25534">
        <ele>276.3</ele>
        <time>2016-05-04T15:56:11Z</time>
      </trkpt>
      <trkpt lat="44.12629" lon="2.25534">
        <ele>276.2</ele>
        <time>2016-05-04T15:56:12Z</time>
      </trkpt>
      <trkpt lat="44.1263" lon="2.25534">
        <ele>276.1</ele>
        <time>2016-05-04T15:56:13Z</time>
      </trkpt>
      <trkpt lat="44.12632" lon="2.25533">
        <ele>276</ele>
        <time>2016-05-04T15:56:14Z</time>
      </trkpt>
      <trkpt lat="44.12633" lon="2.25533">
        <ele>276</ele>
        <time>2016-05-04T15:56:15Z</time>
      </trkpt>
      <trkpt lat="44.12634" lon="2.25532">
        <ele>276</ele>
        <time>2016-05-04T15:56:16Z</time>
      </trkpt>
      <trkpt lat="44.12635" lon="2.25532">
        <ele>275.9</ele>
        <time>2016-05-04T15:56:17Z</time>
      </trkpt>
      <trkpt lat="44.12636" lon="2.25532">
        <ele>275.9</ele>
        <time>2016-05-04T15:56:18Z</time>
      </trkpt>
      <trkpt lat="44.12637" lon="2.25532">
        <ele>275.9</ele>
        <time>2016-05-04T15:56:19Z</time>
      </trkpt>
      <trkpt lat="44.12639" lon="2.25531">
        <ele>275.9</ele>
        <time>2016-05-04T15:56:20Z</time>
      </trkpt>
      <trkpt lat="44.1264" lon="2.25531">
        <ele>275.9</ele>
        <time>2016-05-04T15:56:21Z</time>
      </trkpt>
      <trkpt lat="44.12641" lon="2.25531">
        <ele>275.9</ele>
        <time>2016-05-04T15:56:22Z</time>
      </trkpt>
      <trkpt lat="44.12642" lon="2.25531">
        <ele>275.9</ele>
        <time>2016-05-04T15:56:23Z</time>
      </trkpt>
      <trkpt lat="44.12643" lon="2.25531">
        <ele>275.6</ele>
        <time>2016-05-04T15:56:24Z</time>
      </trkpt>
      <trkpt lat="44.12644" lon="2.25531">
        <ele>275.5</ele>
        <time>2016-05-04T15:56:25Z</time>
      </trkpt>
      <trkpt lat="44.12644" lon="2.25531">
        <ele>275.4</ele>
        <time>2016-05-04T15:56:26Z</time>
      </trkpt>
      <trkpt lat="44.12645" lon="2.25531">
        <ele>275.5</ele>
        <time>2016-05-04T15:56:27Z</time>
      </trkpt>
      <trkpt lat="44.12645" lon="2.25531">
        <ele>275.6</ele>
        <time>2016-05-04T15:56:28Z</time>
      </trkpt>
      <trkpt lat="44.12646" lon="2.25531">
        <ele>275.6</ele>
        <time>2016-05-04T15:56:29Z</time>
      </trkpt>
      <trkpt lat="44.12646" lon="2.25531">
        <ele>275.7</ele>
        <time>2016-05-04T15:56:30Z</time>
      </trkpt>
      <trkpt lat="44.12646" lon="2.25531">
        <ele>275.7</ele>
        <time>2016-05-04T15:56:31Z</time>
      </trkpt>
      <trkpt lat="44.12646" lon="2.25531">
        <ele>275.8</ele>
        <time>2016-05-04T15:56:32Z</time>
      </trkpt>
      <trkpt lat="44.12647" lon="2.25531">
        <ele>276</ele>
        <time>2016-05-04T15:56:33Z</time>
      </trkpt>
      <trkpt lat="44.12647" lon="2.25531">
        <ele>276.2</ele>
        <time>2016-05-04T15:56:34Z</time>
      </trkpt>
      <trkpt lat="44.12647" lon="2.25531">
        <ele>276.3</ele>
        <time>2016-05-04T15:56:35Z</time>
      </trkpt>
      <trkpt lat="44.12647" lon="2.25531">
        <ele>276.4</ele>
        <time>2016-05-04T15:56:36Z</time>
      </trkpt>
      <trkpt lat="44.12648" lon="2.25531">
        <ele>276.5</ele>
        <time>2016-05-04T15:56:37Z</time>
      </trkpt>
      <trkpt lat="44.12648" lon="2.25532">
        <ele>276.5</ele>
        <time>2016-05-04T15:56:38Z</time>
      </trkpt>
      <trkpt lat="44.12648" lon="2.25532">
        <ele>276.4</ele>
        <time>2016-05-04T15:56:39Z</time>
      </trkpt>
      <trkpt lat="44.12648" lon="2.25532">
        <ele>276.2</ele>
        <time>2016-05-04T15:56:40Z</time>
      </trkpt>
      <trkpt lat="44.12648" lon="2.25532">
        <ele>276.1</ele>
        <time>2016-05-04T15:56:41Z</time>
      </trkpt>
      <trkpt lat="44.12648" lon="2.25532">
        <ele>276.1</ele>
        <time>2016-05-04T15:56:42Z</time>
      </trkpt>
      <trkpt lat="44.12649" lon="2.25531">
        <ele>276</ele>
        <time>2016-05-04T15:56:43Z</time>
      </trkpt>
      <trkpt lat="44.12649" lon="2.25531">
        <ele>276</ele>
        <time>2016-05-04T15:56:44Z</time>
      </trkpt>
      <trkpt lat="44.12649" lon="2.25531">
        <ele>276.2</ele>
        <time>2016-05-04T15:56:45Z</time>
      </trkpt>
      <trkpt lat="44.1265" lon="2.25532">
        <ele>276.3</ele>
        <time>2016-05-04T15:56:46Z</time>
      </trkpt>
      <trkpt lat="44.1265" lon="2.25532">
        <ele>276.4</ele>
        <time>2016-05-04T15:56:47Z</time>
      </trkpt>
      <trkpt lat="44.1265" lon="2.25532">
        <ele>276.7</ele>
        <time>2016-05-04T15:56:48Z</time>
      </trkpt>
      <trkpt lat="44.12651" lon="2.25533">
        <ele>276.9</ele>
        <time>2016-05-04T15:56:49Z</time>
      </trkpt>
      <trkpt lat="44.12651" lon="2.25533">
        <ele>277.1</ele>
        <time>2016-05-04T15:56:50Z</time>
      </trkpt>
      <trkpt lat="44.12652" lon="2.25533">
        <ele>276.8</ele>
        <time>2016-05-04T15:56:51Z</time>
      </trkpt>
      <trkpt lat="44.12652" lon="2.25533">
        <ele>276.5</ele>
        <time>2016-05-04T15:56:52Z</time>
      </trkpt>
      <trkpt lat="44.12652" lon="2.25533">
        <ele>276.4</ele>
        <time>2016-05-04T15:56:53Z</time>
      </trkpt>
      <trkpt lat="44.12652" lon="2.25534">
        <ele>276.4</ele>
        <time>2016-05-04T15:56:54Z</time>
      </trkpt>
      <trkpt lat="44.12652" lon="2.25535">
        <ele>276.5</ele>
        <time>2016-05-04T15:56:55Z</time>
      </trkpt>
      <trkpt lat="44.12652" lon="2.25535">
        <ele>276.6</ele>
        <time>2016-05-04T15:56:56Z</time>
      </trkpt>
      <trkpt lat="44.12651" lon="2.25535">
        <ele>276.6</ele>
        <time>2016-05-04T15:56:57Z</time>
      </trkpt>
      <trkpt lat="44.12651" lon="2.25536">
        <ele>276.6</ele>
        <time>2016-05-04T15:56:58Z</time>
      </trkpt>
      <trkpt lat="44.12651" lon="2.25536">
        <ele>276.6</ele>
        <time>2016-05-04T15:56:59Z</time>
      </trkpt>
      <trkpt lat="44.12651" lon="2.25536">
        <ele>276.7</ele>
        <time>2016-05-04T15:57:00Z</time>
      </trkpt>
      <trkpt lat="44.12651" lon="2.25536">
        <ele>276.7</ele>
        <time>2016-05-04T15:57:01Z</time>
      </trkpt>
      <trkpt lat="44.1265" lon="2.25537">
        <ele>276.7</ele>
        <time>2016-05-04T15:57:02Z</time>
      </trkpt>
      <trkpt lat="44.12649" lon="2.25537">
        <ele>276.7</ele>
        <time>2016-05-04T15:57:03Z</time>
      </trkpt>
      <trkpt lat="44.12648" lon="2.25538">
        <ele>276.7</ele>
        <time>2016-05-04T15:57:04Z</time>
      </trkpt>
      <trkpt lat="44.12647" lon="2.25538">
        <ele>276.7</ele>
        <time>2016-05-04T15:57:05Z</time>
      </trkpt>
      <trkpt lat="44.12646" lon="2.25539">
        <ele>276.7</ele>
        <time>2016-05-04T15:57:06Z</time>
      </trkpt>
      <trkpt lat="44.12645" lon="2.2554">
        <ele>276.7</ele>
        <time>2016-05-04T15:57:07Z</time>
      </trkpt>
      <trkpt lat="44.12645" lon="2.2554">
        <ele>276.7</ele>
        <time>2016-05-04T15:57:08Z</time>
      </trkpt>
      <trkpt lat="44.12644" lon="2.25541">
        <ele>276.7</ele>
        <time>2016-05-04T15:57:09Z</time>
      </trkpt>
      <trkpt lat="44.12643" lon="2.25541">
        <ele>276.7</ele>
        <time>2016-05-04T15:57:10Z</time>
      </trkpt>
      <trkpt lat="44.12642" lon="2.25541">
        <ele>276.7</ele>
        <time>2016-05-04T15:57:11Z</time>
      </trkpt>
      <trkpt lat="44.12641" lon="2.25541">
        <ele>276.7</ele>
        <time>2016-05-04T15:57:12Z</time>
      </trkpt>
      <trkpt lat="44.12641" lon="2.25541">
        <ele>276.7</ele>
        <time>2016-05-04T15:57:13Z</time>
      </trkpt>
      <trkpt lat="44.1264" lon="2.25542">
        <ele>276.7</ele>
        <time>2016-05-04T15:57:14Z</time>
      </trkpt>
      <trkpt lat="44.1264" lon="2.25541">
        <ele>276.5</ele>
        <time>2016-05-04T15:57:15Z</time>
      </trkpt>
      <trkpt lat="44.1264" lon="2.25541">
        <ele>276.3</ele>
        <time>2016-05-04T15:57:16Z</time>
      </trkpt>
      <trkpt lat="44.12639" lon="2.25541">
        <ele>276.2</ele>
        <time>2016-05-04T15:57:17Z</time>
      </trkpt>
      <trkpt lat="44.12639" lon="2.25541">
        <ele>276.3</ele>
        <time>2016-05-04T15:57:18Z</time>
      </trkpt>
      <trkpt lat="44.12639" lon="2.25541">
        <ele>276.4</ele>
        <time>2016-05-04T15:57:19Z</time>
      </trkpt>
      <trkpt lat="44.12638" lon="2.25541">
        <ele>276.5</ele>
        <time>2016-05-04T15:57:20Z</time>
      </trkpt>
      <trkpt lat="44.12638" lon="2.25541">
        <ele>276.3</ele>
        <time>2016-05-04T15:57:21Z</time>
      </trkpt>
      <trkpt lat="44.12638" lon="2.25541">
        <ele>276.2</ele>
        <time>2016-05-04T15:57:22Z</time>
      </trkpt>
      <trkpt lat="44.12637" lon="2.25541">
        <ele>276.1</ele>
        <time>2016-05-04T15:57:23Z</time>
      </trkpt>
      <trkpt lat="44.12637" lon="2.2554">
        <ele>276.1</ele>
        <time>2016-05-04T15:57:24Z</time>
      </trkpt>
      <trkpt lat="44.12637" lon="2.2554">
        <ele>276</ele>
        <time>2016-05-04T15:57:25Z</time>
      </trkpt>
      <trkpt lat="44.12642" lon="2.25531">
        <ele>277.1</ele>
        <time>2016-05-04T15:57:46Z</time>
      </trkpt>
      <trkpt lat="44.12642" lon="2.25531">
        <ele>277.2</ele>
        <time>2016-05-04T15:57:47Z</time>
      </trkpt>
      <trkpt lat="44.12643" lon="2.25531">
        <ele>277.1</ele>
        <time>2016-05-04T15:57:48Z</time>
      </trkpt>
      <trkpt lat="44.12643" lon="2.25531">
        <ele>277</ele>
        <time>2016-05-04T15:57:49Z</time>
      </trkpt>
      <trkpt lat="44.12643" lon="2.25531">
        <ele>276.9</ele>
        <time>2016-05-04T15:57:50Z</time>
      </trkpt>
      <trkpt lat="44.12643" lon="2.25532">
        <ele>276.9</ele>
        <time>2016-05-04T15:57:51Z</time>
      </trkpt>
      <trkpt lat="44.12643" lon="2.25532">
        <ele>276.8</ele>
        <time>2016-05-04T15:57:52Z</time>
      </trkpt>
      <trkpt lat="44.12643" lon="2.25532">
        <ele>276.8</ele>
        <time>2016-05-04T15:57:53Z</time>
      </trkpt>
      <trkpt lat="44.12643" lon="2.25533">
        <ele>276.8</ele>
        <time>2016-05-04T15:57:54Z</time>
      </trkpt>
      <trkpt lat="44.12643" lon="2.25534">
        <ele>276.7</ele>
        <time>2016-05-04T15:57:55Z</time>
      </trkpt>
      <trkpt lat="44.12643" lon="2.25534">
        <ele>276.7</ele>
        <time>2016-05-04T15:57:56Z</time>
      </trkpt>
      <trkpt lat="44.12642" lon="2.25535">
        <ele>276.5</ele>
        <time>2016-05-04T15:57:57Z</time>
      </trkpt>
      <trkpt lat="44.12642" lon="2.25536">
        <ele>276.3</ele>
        <time>2016-05-04T15:57:58Z</time>
      </trkpt>
      <trkpt lat="44.12642" lon="2.25536">
        <ele>276.2</ele>
        <time>2016-05-04T15:57:59Z</time>
      </trkpt>
      <trkpt lat="44.12642" lon="2.25537">
        <ele>276.1</ele>
        <time>2016-05-04T15:58:00Z</time>
      </trkpt>
      <trkpt lat="44.12641" lon="2.25538">
        <ele>276.1</ele>
        <time>2016-05-04T15:58:01Z</time>
      </trkpt>
      <trkpt lat="44.12641" lon="2.25539">
        <ele>276</ele>
        <time>2016-05-04T15:58:02Z</time>
      </trkpt>
      <trkpt lat="44.1264" lon="2.25539">
        <ele>276</ele>
        <time>2016-05-04T15:58:03Z</time>
      </trkpt>
      <trkpt lat="44.12639" lon="2.25539">
        <ele>275.9</ele>
        <time>2016-05-04T15:58:04Z</time>
      </trkpt>
      <trkpt lat="44.12639" lon="2.25539">
        <ele>275.9</ele>
        <time>2016-05-04T15:58:05Z</time>
      </trkpt>
      <trkpt lat="44.12638" lon="2.25539">
        <ele>276.1</ele>
        <time>2016-05-04T15:58:06Z</time>
      </trkpt>
      <trkpt lat="44.12637" lon="2.2554">
        <ele>276.3</ele>
        <time>2016-05-04T15:58:07Z</time>
      </trkpt>
      <trkpt lat="44.12636" lon="2.2554">
        <ele>276.4</ele>
        <time>2016-05-04T15:58:08Z</time>
      </trkpt>
      <trkpt lat="44.12635" lon="2.25541">
        <ele>276.5</ele>
        <time>2016-05-04T15:58:09Z</time>
      </trkpt>
      <trkpt lat="44.12635" lon="2.25541">
        <ele>276.5</ele>
        <time>2016-05-04T15:58:10Z</time>
      </trkpt>
      <trkpt lat="44.12634" lon="2.25541">
        <ele>276.6</ele>
        <time>2016-05-04T15:58:11Z</time>
      </trkpt>
      <trkpt lat="44.12633" lon="2.25541">
        <ele>276.6</ele>
        <time>2016-05-04T15:58:12Z</time>
      </trkpt>
      <trkpt lat="44.12633" lon="2.25541">
        <ele>276.6</ele>
        <time>2016-05-04T15:58:13Z</time>
      </trkpt>
      <trkpt lat="44.12632" lon="2.25541">
        <ele>276.6</ele>
        <time>2016-05-04T15:58:14Z</time>
      </trkpt>
      <trkpt lat="44.12632" lon="2.25541">
        <ele>276.7</ele>
        <time>2016-05-04T15:58:15Z</time>
      </trkpt>
      <trkpt lat="44.12631" lon="2.25541">
        <ele>276.7</ele>
        <time>2016-05-04T15:58:16Z</time>
      </trkpt>
      <trkpt lat="44.12631" lon="2.25541">
        <ele>276.7</ele>
        <time>2016-05-04T15:58:17Z</time>
      </trkpt>
      <trkpt lat="44.12631" lon="2.25541">
        <ele>276.7</ele>
        <time>2016-05-04T15:58:18Z</time>
      </trkpt>
      <trkpt lat="44.12631" lon="2.25541">
        <ele>276.7</ele>
        <time>2016-05-04T15:58:19Z</time>
      </trkpt>
      <trkpt lat="44.12631" lon="2.2554">
        <ele>276.7</ele>
        <time>2016-05-04T15:58:20Z</time>
      </trkpt>
      <trkpt lat="44.12631" lon="2.2554">
        <ele>276.5</ele>
        <time>2016-05-04T15:58:21Z</time>
      </trkpt>
      <trkpt lat="44.12631" lon="2.2554">
        <ele>276.3</ele>
        <time>2016-05-04T15:58:22Z</time>
      </trkpt>
      <trkpt lat="44.12631" lon="2.2554">
        <ele>276.2</ele>
        <time>2016-05-04T15:58:23Z</time>
      </trkpt>
      <trkpt lat="44.12631" lon="2.2554">
        <ele>276.1</ele>
        <time>2016-05-04T15:58:24Z</time>
      </trkpt>
      <trkpt lat="44.12631" lon="2.2554">
        <ele>276</ele>
        <time>2016-05-04T15:58:25Z</time>
      </trkpt>
      <trkpt lat="44.12631" lon="2.2554">
        <ele>276</ele>
        <time>2016-05-04T15:58:26Z</time>
      </trkpt>
      <trkpt lat="44.12631" lon="2.2554">
        <ele>276.2</ele>
        <time>2016-05-04T15:58:27Z</time>
      </trkpt>
      <trkpt lat="44.1263" lon="2.2554">
        <ele>276.3</ele>
        <time>2016-05-04T15:58:28Z</time>
      </trkpt>
      <trkpt lat="44.1263" lon="2.2554">
        <ele>276.4</ele>
        <time>2016-05-04T15:58:29Z</time>
      </trkpt>
      <trkpt lat="44.1263" lon="2.2554">
        <ele>276.5</ele>
        <time>2016-05-04T15:58:30Z</time>
      </trkpt>
      <trkpt lat="44.1263" lon="2.2554">
        <ele>276.5</ele>
        <time>2016-05-04T15:58:31Z</time>
      </trkpt>
      <trkpt lat="44.12631" lon="2.2554">
        <ele>276.6</ele>
        <time>2016-05-04T15:58:32Z</time>
      </trkpt>
      <trkpt lat="44.12631" lon="2.2554">
        <ele>276.8</ele>
        <time>2016-05-04T15:58:33Z</time>
      </trkpt>
      <trkpt lat="44.12631" lon="2.25539">
        <ele>277</ele>
        <time>2016-05-04T15:58:34Z</time>
      </trkpt>
      <trkpt lat="44.12631" lon="2.25539">
        <ele>277.1</ele>
        <time>2016-05-04T15:58:35Z</time>
      </trkpt>
      <trkpt lat="44.12631" lon="2.25539">
        <ele>277</ele>
        <time>2016-05-04T15:58:36Z</time>
      </trkpt>
      <trkpt lat="44.12632" lon="2.25539">
        <ele>276.9</ele>
        <time>2016-05-04T15:58:37Z</time>
      </trkpt>
      <trkpt lat="44.12632" lon="2.25539">
        <ele>276.9</ele>
        <time>2016-05-04T15:58:38Z</time>
      </trkpt>
      <trkpt lat="44.12632" lon="2.25539">
        <ele>276.4</ele>
        <time>2016-05-04T15:58:39Z</time>
      </trkpt>
      <trkpt lat="44.12632" lon="2.25539">
        <ele>276.1</ele>
        <time>2016-05-04T15:58:40Z</time>
      </trkpt>
      <trkpt lat="44.12633" lon="2.25539">
        <ele>275.8</ele>
        <time>2016-05-04T15:58:41Z</time>
      </trkpt>
      <trkpt lat="44.12633" lon="2.25538">
        <ele>275.8</ele>
        <time>2016-05-04T15:58:42Z</time>
      </trkpt>
      <trkpt lat="44.12633" lon="2.25538">
        <ele>275.8</ele>
        <time>2016-05-04T15:58:43Z</time>
      </trkpt>
      <trkpt lat="44.12632" lon="2.25538">
        <ele>276.2</ele>
        <time>2016-05-04T15:58:46Z</time>
      </trkpt>
      <trkpt lat="44.12632" lon="2.25538">
        <ele>276.3</ele>
        <time>2016-05-04T15:58:47Z</time>
      </trkpt>
      <trkpt lat="44.12632" lon="2.25538">
        <ele>276.2</ele>
        <time>2016-05-04T15:58:48Z</time>
      </trkpt>
      <trkpt lat="44.12632" lon="2.25538">
        <ele>276.1</ele>
        <time>2016-05-04T15:58:49Z</time>
      </trkpt>
      <trkpt lat="44.12632" lon="2.25538">
        <ele>276.1</ele>
        <time>2016-05-04T15:58:50Z</time>
      </trkpt>
      <trkpt lat="44.12632" lon="2.25538">
        <ele>275.8</ele>
        <time>2016-05-04T15:58:51Z</time>
      </trkpt>
      <trkpt lat="44.12632" lon="2.25538">
        <ele>275.6</ele>
        <time>2016-05-04T15:58:52Z</time>
      </trkpt>
      <trkpt lat="44.12632" lon="2.25538">
        <ele>275.4</ele>
        <time>2016-05-04T15:58:53Z</time>
      </trkpt>
      <trkpt lat="44.12632" lon="2.25538">
        <ele>275.5</ele>
        <time>2016-05-04T15:58:54Z</time>
      </trkpt>
      <trkpt lat="44.12632" lon="2.25537">
        <ele>275.6</ele>
        <time>2016-05-04T15:58:55Z</time>
      </trkpt>
      <trkpt lat="44.12632" lon="2.25537">
        <ele>275.7</ele>
        <time>2016-05-04T15:58:56Z</time>
      </trkpt>
      <trkpt lat="44.12633" lon="2.25537">
        <ele>275.9</ele>
        <time>2016-05-04T15:58:57Z</time>
      </trkpt>
      <trkpt lat="44.12633" lon="2.25537">
        <ele>276.1</ele>
        <time>2016-05-04T15:58:58Z</time>
      </trkpt>
      <trkpt lat="44.12633" lon="2.25537">
        <ele>276.3</ele>
        <time>2016-05-04T15:58:59Z</time>
      </trkpt>
      <trkpt lat="44.12633" lon="2.25536">
        <ele>276.4</ele>
        <time>2016-05-04T15:59:00Z</time>
      </trkpt>
      <trkpt lat="44.12633" lon="2.25536">
        <ele>276.5</ele>
        <time>2016-05-04T15:59:01Z</time>
      </trkpt>
      <trkpt lat="44.12634" lon="2.25536">
        <ele>276.5</ele>
        <time>2016-05-04T15:59:02Z</time>
      </trkpt>
      <trkpt lat="44.12634" lon="2.25535">
        <ele>276.6</ele>
        <time>2016-05-04T15:59:03Z</time>
      </trkpt>
      <trkpt lat="44.12634" lon="2.25535">
        <ele>276.6</ele>
        <time>2016-05-04T15:59:04Z</time>
      </trkpt>
      <trkpt lat="44.12634" lon="2.25535">
        <ele>276.6</ele>
        <time>2016-05-04T15:59:05Z</time>
      </trkpt>
      <trkpt lat="44.12634" lon="2.25535">
        <ele>276.4</ele>
        <time>2016-05-04T15:59:06Z</time>
      </trkpt>
      <trkpt lat="44.12634" lon="2.25534">
        <ele>276.3</ele>
        <time>2016-05-04T15:59:07Z</time>
      </trkpt>
      <trkpt lat="44.12635" lon="2.25534">
        <ele>276.2</ele>
        <time>2016-05-04T15:59:08Z</time>
      </trkpt>
      <trkpt lat="44.12635" lon="2.25534">
        <ele>276.1</ele>
        <time>2016-05-04T15:59:09Z</time>
      </trkpt>
      <trkpt lat="44.12635" lon="2.25534">
        <ele>276</ele>
        <time>2016-05-04T15:59:10Z</time>
      </trkpt>
      <trkpt lat="44.12635" lon="2.25533">
        <ele>276</ele>
        <time>2016-05-04T15:59:11Z</time>
      </trkpt>
      <trkpt lat="44.12635" lon="2.25533">
        <ele>276.2</ele>
        <time>2016-05-04T15:59:12Z</time>
      </trkpt>
      <trkpt lat="44.12634" lon="2.25533">
        <ele>276.3</ele>
        <time>2016-05-04T15:59:13Z</time>
      </trkpt>
      <trkpt lat="44.12634" lon="2.25533">
        <ele>276.4</ele>
        <time>2016-05-04T15:59:14Z</time>
      </trkpt>
      <trkpt lat="44.12634" lon="2.25534">
        <ele>276.5</ele>
        <time>2016-05-04T15:59:15Z</time>
      </trkpt>
      <trkpt lat="44.12633" lon="2.25534">
        <ele>276.5</ele>
        <time>2016-05-04T15:59:16Z</time>
      </trkpt>
      <trkpt lat="44.12633" lon="2.25534">
        <ele>276.6</ele>
        <time>2016-05-04T15:59:17Z</time>
      </trkpt>
      <trkpt lat="44.12632" lon="2.25534">
        <ele>276.6</ele>
        <time>2016-05-04T15:59:18Z</time>
      </trkpt>
      <trkpt lat="44.12632" lon="2.25534">
        <ele>276.6</ele>
        <time>2016-05-04T15:59:19Z</time>
      </trkpt>
      <trkpt lat="44.12632" lon="2.25534">
        <ele>276.6</ele>
        <time>2016-05-04T15:59:20Z</time>
      </trkpt>
      <trkpt lat="44.12631" lon="2.25534">
        <ele>276.4</ele>
        <time>2016-05-04T15:59:21Z</time>
      </trkpt>
      <trkpt lat="44.12631" lon="2.25534">
        <ele>276.3</ele>
        <time>2016-05-04T15:59:22Z</time>
      </trkpt>
      <trkpt lat="44.12631" lon="2.25534">
        <ele>276.2</ele>
        <time>2016-05-04T15:59:23Z</time>
      </trkpt>
      <trkpt lat="44.12631" lon="2.25533">
        <ele>276.1</ele>
        <time>2016-05-04T15:59:24Z</time>
      </trkpt>
      <trkpt lat="44.1263" lon="2.25533">
        <ele>276</ele>
        <time>2016-05-04T15:59:25Z</time>
      </trkpt>
      <trkpt lat="44.1263" lon="2.25533">
        <ele>276</ele>
        <time>2016-05-04T15:59:26Z</time>
      </trkpt>
      <trkpt lat="44.12629" lon="2.25533">
        <ele>276.2</ele>
        <time>2016-05-04T15:59:27Z</time>
      </trkpt>
      <trkpt lat="44.12629" lon="2.25532">
        <ele>276.3</ele>
        <time>2016-05-04T15:59:28Z</time>
      </trkpt>
      <trkpt lat="44.12629" lon="2.25532">
        <ele>276.4</ele>
        <time>2016-05-04T15:59:29Z</time>
      </trkpt>
      <trkpt lat="44.12629" lon="2.25532">
        <ele>276.5</ele>
        <time>2016-05-04T15:59:30Z</time>
      </trkpt>
      <trkpt lat="44.12628" lon="2.25532">
        <ele>276.5</ele>
        <time>2016-05-04T15:59:31Z</time>
      </trkpt>
      <trkpt lat="44.12628" lon="2.25532">
        <ele>276.6</ele>
        <time>2016-05-04T15:59:32Z</time>
      </trkpt>
      <trkpt lat="44.12627" lon="2.25531">
        <ele>276.6</ele>
        <time>2016-05-04T15:59:33Z</time>
      </trkpt>
      <trkpt lat="44.12626" lon="2.25531">
        <ele>276.6</ele>
        <time>2016-05-04T15:59:34Z</time>
      </trkpt>
      <trkpt lat="44.12624" lon="2.2553">
        <ele>276.6</ele>
        <time>2016-05-04T15:59:35Z</time>
      </trkpt>
      <trkpt lat="44.12623" lon="2.25529">
        <ele>276.2</ele>
        <time>2016-05-04T15:59:36Z</time>
      </trkpt>
      <trkpt lat="44.12622" lon="2.25529">
        <ele>275.9</ele>
        <time>2016-05-04T15:59:37Z</time>
      </trkpt>
      <trkpt lat="44.12621" lon="2.25528">
        <ele>275.7</ele>
        <time>2016-05-04T15:59:38Z</time>
      </trkpt>
      <trkpt lat="44.1262" lon="2.25527">
        <ele>275.9</ele>
        <time>2016-05-04T15:59:39Z</time>
      </trkpt>
      <trkpt lat="44.12619" lon="2.25527">
        <ele>276.1</ele>
        <time>2016-05-04T15:59:40Z</time>
      </trkpt>
      <trkpt lat="44.12618" lon="2.25527">
        <ele>276.3</ele>
        <time>2016-05-04T15:59:41Z</time>
      </trkpt>
      <trkpt lat="44.12616" lon="2.25527">
        <ele>276.4</ele>
        <time>2016-05-04T15:59:42Z</time>
      </trkpt>
      <trkpt lat="44.12613" lon="2.25528">
        <ele>276.5</ele>
        <time>2016-05-04T15:59:43Z</time>
      </trkpt>
      <trkpt lat="44.12611" lon="2.2553">
        <ele>276.5</ele>
        <time>2016-05-04T15:59:44Z</time>
      </trkpt>
      <trkpt lat="44.12609" lon="2.25531">
        <ele>276.6</ele>
        <time>2016-05-04T15:59:45Z</time>
      </trkpt>
      <trkpt lat="44.12606" lon="2.25532">
        <ele>276.6</ele>
        <time>2016-05-04T15:59:46Z</time>
      </trkpt>
      <trkpt lat="44.12605" lon="2.25532">
        <ele>276.6</ele>
        <time>2016-05-04T15:59:47Z</time>
      </trkpt>
      <trkpt lat="44.12603" lon="2.25533">
        <ele>276.4</ele>
        <time>2016-05-04T15:59:48Z</time>
      </trkpt>
      <trkpt lat="44.12602" lon="2.25534">
        <ele>276.3</ele>
        <time>2016-05-04T15:59:49Z</time>
      </trkpt>
      <trkpt lat="44.12602" lon="2.25534">
        <ele>276.2</ele>
        <time>2016-05-04T15:59:50Z</time>
      </trkpt>
      <trkpt lat="44.12601" lon="2.25534">
        <ele>276.3</ele>
        <time>2016-05-04T15:59:51Z</time>
      </trkpt>
      <trkpt lat="44.12601" lon="2.25534">
        <ele>276.4</ele>
        <time>2016-05-04T15:59:52Z</time>
      </trkpt>
      <trkpt lat="44.12601" lon="2.25535">
        <ele>276.5</ele>
        <time>2016-05-04T15:59:53Z</time>
      </trkpt>
      <trkpt lat="44.12601" lon="2.25535">
        <ele>276.3</ele>
        <time>2016-05-04T15:59:54Z</time>
      </trkpt>
      <trkpt lat="44.126" lon="2.25535">
        <ele>276.2</ele>
        <time>2016-05-04T15:59:55Z</time>
      </trkpt>
      <trkpt lat="44.126" lon="2.25535">
        <ele>276.1</ele>
        <time>2016-05-04T15:59:56Z</time>
      </trkpt>
      <trkpt lat="44.126" lon="2.25536">
        <ele>276.3</ele>
        <time>2016-05-04T15:59:57Z</time>
      </trkpt>
      <trkpt lat="44.126" lon="2.25536">
        <ele>276.4</ele>
        <time>2016-05-04T15:59:58Z</time>
      </trkpt>
      <trkpt lat="44.126" lon="2.25536">
        <ele>276.5</ele>
        <time>2016-05-04T15:59:59Z</time>
      </trkpt>
      <trkpt lat="44.12599" lon="2.25536">
        <ele>276.7</ele>
        <time>2016-05-04T16:00:00Z</time>
      </trkpt>
      <trkpt lat="44.12599" lon="2.25536">
        <ele>276.9</ele>
        <time>2016-05-04T16:00:01Z</time>
      </trkpt>
      <trkpt lat="44.12599" lon="2.25536">
        <ele>277.1</ele>
        <time>2016-05-04T16:00:02Z</time>
      </trkpt>
      <trkpt lat="44.12599" lon="2.25537">
        <ele>277</ele>
        <time>2016-05-04T16:00:03Z</time>
      </trkpt>
      <trkpt lat="44.12599" lon="2.25537">
        <ele>276.9</ele>
        <time>2016-05-04T16:00:04Z</time>
      </trkpt>
      <trkpt lat="44.12599" lon="2.25537">
        <ele>276.9</ele>
        <time>2016-05-04T16:00:05Z</time>
      </trkpt>
      <trkpt lat="44.12599" lon="2.25537">
        <ele>276.6</ele>
        <time>2016-05-04T16:00:06Z</time>
      </trkpt>
      <trkpt lat="44.12599" lon="2.25537">
        <ele>276.4</ele>
        <time>2016-05-04T16:00:07Z</time>
      </trkpt>
      <trkpt lat="44.12598" lon="2.25538">
        <ele>276.3</ele>
        <time>2016-05-04T16:00:08Z</time>
      </trkpt>
      <trkpt lat="44.12598" lon="2.25538">
        <ele>276.2</ele>
        <time>2016-05-04T16:00:09Z</time>
      </trkpt>
      <trkpt lat="44.12598" lon="2.25538">
        <ele>276.1</ele>
        <time>2016-05-04T16:00:10Z</time>
      </trkpt>
      <trkpt lat="44.12599" lon="2.25538">
        <ele>276</ele>
        <time>2016-05-04T16:00:11Z</time>
      </trkpt>
      <trkpt lat="44.12599" lon="2.25538">
        <ele>276.2</ele>
        <time>2016-05-04T16:00:12Z</time>
      </trkpt>
      <trkpt lat="44.12599" lon="2.25538">
        <ele>276.3</ele>
        <time>2016-05-04T16:00:13Z</time>
      </trkpt>
      <trkpt lat="44.12599" lon="2.25538">
        <ele>276.4</ele>
        <time>2016-05-04T16:00:14Z</time>
      </trkpt>
      <trkpt lat="44.126" lon="2.25538">
        <ele>276.5</ele>
        <time>2016-05-04T16:00:15Z</time>
      </trkpt>
      <trkpt lat="44.126" lon="2.25538">
        <ele>276.5</ele>
        <time>2016-05-04T16:00:16Z</time>
      </trkpt>
      <trkpt lat="44.12601" lon="2.25539">
        <ele>276.6</ele>
        <time>2016-05-04T16:00:17Z</time>
      </trkpt>
      <trkpt lat="44.12601" lon="2.25539">
        <ele>276.2</ele>
        <time>2016-05-04T16:00:18Z</time>
      </trkpt>
      <trkpt lat="44.12602" lon="2.25539">
        <ele>275.9</ele>
        <time>2016-05-04T16:00:19Z</time>
      </trkpt>
      <trkpt lat="44.12603" lon="2.2554">
        <ele>275.7</ele>
        <time>2016-05-04T16:00:20Z</time>
      </trkpt>
      <trkpt lat="44.12604" lon="2.2554">
        <ele>275.5</ele>
        <time>2016-05-04T16:00:21Z</time>
      </trkpt>
      <trkpt lat="44.12605" lon="2.2554">
        <ele>275.4</ele>
        <time>2016-05-04T16:00:22Z</time>
      </trkpt>
      <trkpt lat="44.12606" lon="2.2554">
        <ele>275.3</ele>
        <time>2016-05-04T16:00:23Z</time>
      </trkpt>
      <trkpt lat="44.12606" lon="2.2554">
        <ele>275.6</ele>
        <time>2016-05-04T16:00:24Z</time>
      </trkpt>
      <trkpt lat="44.12606" lon="2.2554">
        <ele>275.9</ele>
        <time>2016-05-04T16:00:25Z</time>
      </trkpt>
      <trkpt lat="44.12606" lon="2.2554">
        <ele>276.1</ele>
        <time>2016-05-04T16:00:26Z</time>
      </trkpt>
      <trkpt lat="44.12606" lon="2.2554">
        <ele>276.3</ele>
        <time>2016-05-04T16:00:27Z</time>
      </trkpt>
      <trkpt lat="44.12606" lon="2.2554">
        <ele>276.4</ele>
        <time>2016-05-04T16:00:28Z</time>
      </trkpt>
      <trkpt lat="44.12606" lon="2.2554">
        <ele>276.4</ele>
        <time>2016-05-04T16:00:29Z</time>
      </trkpt>
      <trkpt lat="44.12607" lon="2.2554">
        <ele>276.5</ele>
        <time>2016-05-04T16:00:30Z</time>
      </trkpt>
      <trkpt lat="44.12607" lon="2.2554">
        <ele>276.6</ele>
        <time>2016-05-04T16:00:31Z</time>
      </trkpt>
      <trkpt lat="44.12607" lon="2.2554">
        <ele>276.6</ele>
        <time>2016-05-04T16:00:32Z</time>
      </trkpt>
      <trkpt lat="44.12607" lon="2.2554">
        <ele>276.4</ele>
        <time>2016-05-04T16:00:33Z</time>
      </trkpt>
      <trkpt lat="44.12607" lon="2.2554">
        <ele>276.3</ele>
        <time>2016-05-04T16:00:34Z</time>
      </trkpt>
      <trkpt lat="44.12607" lon="2.2554">
        <ele>276.2</ele>
        <time>2016-05-04T16:00:35Z</time>
      </trkpt>
      <trkpt lat="44.12607" lon="2.25539">
        <ele>276.3</ele>
        <time>2016-05-04T16:00:36Z</time>
      </trkpt>
      <trkpt lat="44.12608" lon="2.25539">
        <ele>276.4</ele>
        <time>2016-05-04T16:00:37Z</time>
      </trkpt>
      <trkpt lat="44.12608" lon="2.25539">
        <ele>276.5</ele>
        <time>2016-05-04T16:00:38Z</time>
      </trkpt>
      <trkpt lat="44.12608" lon="2.2554">
        <ele>276.5</ele>
        <time>2016-05-04T16:00:39Z</time>
      </trkpt>
      <trkpt lat="44.12608" lon="2.2554">
        <ele>276.6</ele>
        <time>2016-05-04T16:00:40Z</time>
      </trkpt>
      <trkpt lat="44.12608" lon="2.2554">
        <ele>276.6</ele>
        <time>2016-05-04T16:00:41Z</time>
      </trkpt>
      <trkpt lat="44.12608" lon="2.25539">
        <ele>276.4</ele>
        <time>2016-05-04T16:00:42Z</time>
      </trkpt>
      <trkpt lat="44.12608" lon="2.25539">
        <ele>276.3</ele>
        <time>2016-05-04T16:00:43Z</time>
      </trkpt>
      <trkpt lat="44.12608" lon="2.25539">
        <ele>276.2</ele>
        <time>2016-05-04T16:00:44Z</time>
      </trkpt>
      <trkpt lat="44.12608" lon="2.25539">
        <ele>276.3</ele>
        <time>2016-05-04T16:00:45Z</time>
      </trkpt>
      <trkpt lat="44.12607" lon="2.25538">
        <ele>276.4</ele>
        <time>2016-05-04T16:00:46Z</time>
      </trkpt>
      <trkpt lat="44.12607" lon="2.25538">
        <ele>276.5</ele>
        <time>2016-05-04T16:00:47Z</time>
      </trkpt>
      <trkpt lat="44.12606" lon="2.25537">
        <ele>276.5</ele>
        <time>2016-05-04T16:00:48Z</time>
      </trkpt>
      <trkpt lat="44.12606" lon="2.25537">
        <ele>276.6</ele>
        <time>2016-05-04T16:00:49Z</time>
      </trkpt>
      <trkpt lat="44.12605" lon="2.25536">
        <ele>276.6</ele>
        <time>2016-05-04T16:00:50Z</time>
      </trkpt>
      <trkpt lat="44.12605" lon="2.25535">
        <ele>276.2</ele>
        <time>2016-05-04T16:00:51Z</time>
      </trkpt>
      <trkpt lat="44.12604" lon="2.25535">
        <ele>275.9</ele>
        <time>2016-05-04T16:00:52Z</time>
      </trkpt>
      <trkpt lat="44.12604" lon="2.25534">
        <ele>275.7</ele>
        <time>2016-05-04T16:00:53Z</time>
      </trkpt>
      <trkpt lat="44.12604" lon="2.25534">
        <ele>275.9</ele>
        <time>2016-05-04T16:00:54Z</time>
      </trkpt>
      <trkpt lat="44.12604" lon="2.25533">
        <ele>276.1</ele>
        <time>2016-05-04T16:00:55Z</time>
      </trkpt>
      <trkpt lat="44.12604" lon="2.25533">
        <ele>276.3</ele>
        <time>2016-05-04T16:00:56Z</time>
      </trkpt>
      <trkpt lat="44.12604" lon="2.25533">
        <ele>276.2</ele>
        <time>2016-05-04T16:00:57Z</time>
      </trkpt>
      <trkpt lat="44.12604" lon="2.25533">
        <ele>276.1</ele>
        <time>2016-05-04T16:00:58Z</time>
      </trkpt>
      <trkpt lat="44.12604" lon="2.25533">
        <ele>276</ele>
        <time>2016-05-04T16:00:59Z</time>
      </trkpt>
      <trkpt lat="44.12604" lon="2.25533">
        <ele>276</ele>
        <time>2016-05-04T16:01:00Z</time>
      </trkpt>
      <trkpt lat="44.12604" lon="2.25533">
        <ele>275.9</ele>
        <time>2016-05-04T16:01:01Z</time>
      </trkpt>
      <trkpt lat="44.12604" lon="2.25533">
        <ele>275.9</ele>
        <time>2016-05-04T16:01:02Z</time>
      </trkpt>
      <trkpt lat="44.12604" lon="2.25533">
        <ele>276.1</ele>
        <time>2016-05-04T16:01:03Z</time>
      </trkpt>
      <trkpt lat="44.12605" lon="2.25534">
        <ele>276.3</ele>
        <time>2016-05-04T16:01:04Z</time>
      </trkpt>
      <trkpt lat="44.12607" lon="2.25534">
        <ele>276.4</ele>
        <time>2016-05-04T16:01:05Z</time>
      </trkpt>
      <trkpt lat="44.12609" lon="2.25535">
        <ele>276.2</ele>
        <time>2016-05-04T16:01:06Z</time>
      </trkpt>
      <trkpt lat="44.1261" lon="2.25536">
        <ele>276.1</ele>
        <time>2016-05-04T16:01:07Z</time>
      </trkpt>
      <trkpt lat="44.12612" lon="2.25537">
        <ele>276.1</ele>
        <time>2016-05-04T16:01:08Z</time>
      </trkpt>
      <trkpt lat="44.12614" lon="2.25538">
        <ele>276</ele>
        <time>2016-05-04T16:01:09Z</time>
      </trkpt>
      <trkpt lat="44.12616" lon="2.25538">
        <ele>276</ele>
        <time>2016-05-04T16:01:10Z</time>
      </trkpt>
      <trkpt lat="44.12617" lon="2.25539">
        <ele>275.9</ele>
        <time>2016-05-04T16:01:11Z</time>
      </trkpt>
      <trkpt lat="44.12619" lon="2.2554">
        <ele>275.7</ele>
        <time>2016-05-04T16:01:12Z</time>
      </trkpt>
      <trkpt lat="44.12621" lon="2.25541">
        <ele>275.5</ele>
        <time>2016-05-04T16:01:13Z</time>
      </trkpt>
      <trkpt lat="44.12623" lon="2.25543">
        <ele>275.4</ele>
        <time>2016-05-04T16:01:14Z</time>
      </trkpt>
      <trkpt lat="44.12625" lon="2.25544">
        <ele>275.9</ele>
        <time>2016-05-04T16:01:15Z</time>
      </trkpt>
      <trkpt lat="44.12625" lon="2.25544">
        <ele>276.3</ele>
        <time>2016-05-04T16:01:16Z</time>
      </trkpt>
      <trkpt lat="44.12626" lon="2.25544">
        <ele>276.6</ele>
        <time>2016-05-04T16:01:17Z</time>
      </trkpt>
      <trkpt lat="44.12628" lon="2.25544">
        <ele>276.2</ele>
        <time>2016-05-04T16:01:18Z</time>
      </trkpt>
      <trkpt lat="44.12629" lon="2.25544">
        <ele>275.9</ele>
        <time>2016-05-04T16:01:19Z</time>
      </trkpt>
      <trkpt lat="44.1263" lon="2.25545">
        <ele>275.7</ele>
        <time>2016-05-04T16:01:20Z</time>
      </trkpt>
      <trkpt lat="44.12632" lon="2.25545">
        <ele>275.9</ele>
        <time>2016-05-04T16:01:21Z</time>
      </trkpt>
      <trkpt lat="44.12633" lon="2.25546">
        <ele>276.1</ele>
        <time>2016-05-04T16:01:22Z</time>
      </trkpt>
      <trkpt lat="44.12635" lon="2.25547">
        <ele>276.3</ele>
        <time>2016-05-04T16:01:23Z</time>
      </trkpt>
      <trkpt lat="44.12636" lon="2.25548">
        <ele>276.4</ele>
        <time>2016-05-04T16:01:24Z</time>
      </trkpt>
      <trkpt lat="44.12638" lon="2.25549">
        <ele>276.5</ele>
        <time>2016-05-04T16:01:26Z</time>
      </trkpt>
      <trkpt lat="44.12639" lon="2.25549">
        <ele>276.4</ele>
        <time>2016-05-04T16:01:27Z</time>
      </trkpt>
      <trkpt lat="44.12639" lon="2.25549">
        <ele>276.2</ele>
        <time>2016-05-04T16:01:28Z</time>
      </trkpt>
      <trkpt lat="44.1264" lon="2.25549">
        <ele>276.1</ele>
        <time>2016-05-04T16:01:29Z</time>
      </trkpt>
      <trkpt lat="44.1264" lon="2.25549">
        <ele>276.3</ele>
        <time>2016-05-04T16:01:30Z</time>
      </trkpt>
      <trkpt lat="44.1264" lon="2.25549">
        <ele>276.4</ele>
        <time>2016-05-04T16:01:31Z</time>
      </trkpt>
      <trkpt lat="44.1264" lon="2.25549">
        <ele>276.5</ele>
        <time>2016-05-04T16:01:32Z</time>
      </trkpt>
      <trkpt lat="44.1264" lon="2.25549">
        <ele>276.1</ele>
        <time>2016-05-04T16:01:33Z</time>
      </trkpt>
      <trkpt lat="44.1264" lon="2.25549">
        <ele>275.8</ele>
        <time>2016-05-04T16:01:34Z</time>
      </trkpt>
      <trkpt lat="44.1264" lon="2.25549">
        <ele>275.6</ele>
        <time>2016-05-04T16:01:35Z</time>
      </trkpt>
      <trkpt lat="44.1264" lon="2.25549">
        <ele>275.7</ele>
        <time>2016-05-04T16:01:36Z</time>
      </trkpt>
      <trkpt lat="44.1264" lon="2.25549">
        <ele>275.7</ele>
        <time>2016-05-04T16:01:37Z</time>
      </trkpt>
      <trkpt lat="44.12639" lon="2.25549">
        <ele>275.8</ele>
        <time>2016-05-04T16:01:38Z</time>
      </trkpt>
      <trkpt lat="44.12639" lon="2.25549">
        <ele>275.8</ele>
        <time>2016-05-04T16:01:39Z</time>
      </trkpt>
      <trkpt lat="44.12639" lon="2.25549">
        <ele>275.8</ele>
        <time>2016-05-04T16:01:40Z</time>
      </trkpt>
      <trkpt lat="44.12639" lon="2.25549">
        <ele>275.6</ele>
        <time>2016-05-04T16:01:42Z</time>
      </trkpt>
      <trkpt lat="44.12639" lon="2.25549">
        <ele>275.5</ele>
        <time>2016-05-04T16:01:43Z</time>
      </trkpt>
      <trkpt lat="44.12639" lon="2.25549">
        <ele>275.3</ele>
        <time>2016-05-04T16:01:44Z</time>
      </trkpt>
      <trkpt lat="44.12639" lon="2.25548">
        <ele>275.5</ele>
        <time>2016-05-04T16:01:45Z</time>
      </trkpt>
      <trkpt lat="44.12639" lon="2.25548">
        <ele>275.6</ele>
        <time>2016-05-04T16:01:46Z</time>
      </trkpt>
      <trkpt lat="44.12639" lon="2.25548">
        <ele>275.6</ele>
        <time>2016-05-04T16:01:47Z</time>
      </trkpt>
      <trkpt lat="44.1264" lon="2.25548">
        <ele>275.5</ele>
        <time>2016-05-04T16:01:48Z</time>
      </trkpt>
      <trkpt lat="44.1264" lon="2.25548">
        <ele>275.4</ele>
        <time>2016-05-04T16:01:49Z</time>
      </trkpt>
      <trkpt lat="44.1264" lon="2.25548">
        <ele>275.3</ele>
        <time>2016-05-04T16:01:50Z</time>
      </trkpt>
      <trkpt lat="44.1264" lon="2.25548">
        <ele>275.2</ele>
        <time>2016-05-04T16:01:51Z</time>
      </trkpt>
      <trkpt lat="44.12641" lon="2.25548">
        <ele>275.2</ele>
        <time>2016-05-04T16:01:52Z</time>
      </trkpt>
      <trkpt lat="44.12641" lon="2.25548">
        <ele>275.1</ele>
        <time>2016-05-04T16:01:53Z</time>
      </trkpt>
      <trkpt lat="44.12641" lon="2.25548">
        <ele>275.3</ele>
        <time>2016-05-04T16:01:54Z</time>
      </trkpt>
      <trkpt lat="44.12641" lon="2.25549">
        <ele>275.4</ele>
        <time>2016-05-04T16:01:55Z</time>
      </trkpt>
      <trkpt lat="44.12641" lon="2.25549">
        <ele>275.5</ele>
        <time>2016-05-04T16:01:56Z</time>
      </trkpt>
      <trkpt lat="44.12641" lon="2.25549">
        <ele>275.6</ele>
        <time>2016-05-04T16:01:57Z</time>
      </trkpt>
      <trkpt lat="44.12641" lon="2.2555">
        <ele>275.7</ele>
        <time>2016-05-04T16:01:58Z</time>
      </trkpt>
      <trkpt lat="44.12641" lon="2.2555">
        <ele>275.7</ele>
        <time>2016-05-04T16:01:59Z</time>
      </trkpt>
      <trkpt lat="44.12641" lon="2.25551">
        <ele>275.8</ele>
        <time>2016-05-04T16:02:00Z</time>
      </trkpt>
      <trkpt lat="44.12641" lon="2.25551">
        <ele>275.8</ele>
        <time>2016-05-04T16:02:01Z</time>
      </trkpt>
      <trkpt lat="44.12641" lon="2.25552">
        <ele>275.8</ele>
        <time>2016-05-04T16:02:02Z</time>
      </trkpt>
      <trkpt lat="44.12641" lon="2.25552">
        <ele>275.6</ele>
        <time>2016-05-04T16:02:03Z</time>
      </trkpt>
      <trkpt lat="44.12641" lon="2.25553">
        <ele>275.4</ele>
        <time>2016-05-04T16:02:04Z</time>
      </trkpt>
      <trkpt lat="44.12641" lon="2.25553">
        <ele>275.3</ele>
        <time>2016-05-04T16:02:05Z</time>
      </trkpt>
      <trkpt lat="44.12641" lon="2.25553">
        <ele>275.3</ele>
        <time>2016-05-04T16:02:06Z</time>
      </trkpt>
      <trkpt lat="44.1264" lon="2.25554">
        <ele>275.2</ele>
        <time>2016-05-04T16:02:07Z</time>
      </trkpt>
      <trkpt lat="44.1264" lon="2.25554">
        <ele>275.1</ele>
        <time>2016-05-04T16:02:08Z</time>
      </trkpt>
      <trkpt lat="44.1264" lon="2.25554">
        <ele>274.9</ele>
        <time>2016-05-04T16:02:09Z</time>
      </trkpt>
      <trkpt lat="44.1264" lon="2.25554">
        <ele>274.7</ele>
        <time>2016-05-04T16:02:10Z</time>
      </trkpt>
      <trkpt lat="44.1264" lon="2.25554">
        <ele>274.6</ele>
        <time>2016-05-04T16:02:11Z</time>
      </trkpt>
      <trkpt lat="44.1264" lon="2.25555">
        <ele>274.5</ele>
        <time>2016-05-04T16:02:12Z</time>
      </trkpt>
      <trkpt lat="44.1264" lon="2.25555">
        <ele>274.4</ele>
        <time>2016-05-04T16:02:13Z</time>
      </trkpt>
      <trkpt lat="44.1264" lon="2.25555">
        <ele>274.3</ele>
        <time>2016-05-04T16:02:14Z</time>
      </trkpt>
      <trkpt lat="44.1264" lon="2.25555">
        <ele>274.7</ele>
        <time>2016-05-04T16:02:15Z</time>
      </trkpt>
      <trkpt lat="44.1264" lon="2.25556">
        <ele>275</ele>
        <time>2016-05-04T16:02:16Z</time>
      </trkpt>
      <trkpt lat="44.1264" lon="2.25556">
        <ele>275.2</ele>
        <time>2016-05-04T16:02:17Z</time>
      </trkpt>
      <trkpt lat="44.1264" lon="2.25556">
        <ele>275.4</ele>
        <time>2016-05-04T16:02:18Z</time>
      </trkpt>
      <trkpt lat="44.1264" lon="2.25557">
        <ele>275.5</ele>
        <time>2016-05-04T16:02:19Z</time>
      </trkpt>
      <trkpt lat="44.1264" lon="2.25557">
        <ele>275.6</ele>
        <time>2016-05-04T16:02:20Z</time>
      </trkpt>
      <trkpt lat="44.1264" lon="2.25557">
        <ele>275.6</ele>
        <time>2016-05-04T16:02:21Z</time>
      </trkpt>
      <trkpt lat="44.1264" lon="2.25557">
        <ele>275.7</ele>
        <time>2016-05-04T16:02:22Z</time>
      </trkpt>
      <trkpt lat="44.1264" lon="2.25557">
        <ele>275.7</ele>
        <time>2016-05-04T16:02:23Z</time>
      </trkpt>
      <trkpt lat="44.12639" lon="2.25557">
        <ele>275.6</ele>
        <time>2016-05-04T16:02:24Z</time>
      </trkpt>
      <trkpt lat="44.12639" lon="2.25558">
        <ele>275.4</ele>
        <time>2016-05-04T16:02:25Z</time>
      </trkpt>
      <trkpt lat="44.12639" lon="2.25557">
        <ele>275.3</ele>
        <time>2016-05-04T16:02:26Z</time>
      </trkpt>
      <trkpt lat="44.12638" lon="2.25557">
        <ele>275.2</ele>
        <time>2016-05-04T16:02:27Z</time>
      </trkpt>
      <trkpt lat="44.12638" lon="2.25557">
        <ele>275.2</ele>
        <time>2016-05-04T16:02:28Z</time>
      </trkpt>
      <trkpt lat="44.12638" lon="2.25556">
        <ele>275.1</ele>
        <time>2016-05-04T16:02:29Z</time>
      </trkpt>
      <trkpt lat="44.12637" lon="2.25555">
        <ele>275.3</ele>
        <time>2016-05-04T16:02:30Z</time>
      </trkpt>
      <trkpt lat="44.12637" lon="2.25555">
        <ele>275.4</ele>
        <time>2016-05-04T16:02:31Z</time>
      </trkpt>
      <trkpt lat="44.12637" lon="2.25554">
        <ele>275.5</ele>
        <time>2016-05-04T16:02:32Z</time>
      </trkpt>
      <trkpt lat="44.12637" lon="2.25554">
        <ele>275.8</ele>
        <time>2016-05-04T16:02:33Z</time>
      </trkpt>
      <trkpt lat="44.12637" lon="2.25554">
        <ele>276.1</ele>
        <time>2016-05-04T16:02:34Z</time>
      </trkpt>
      <trkpt lat="44.12637" lon="2.25553">
        <ele>276.2</ele>
        <time>2016-05-04T16:02:35Z</time>
      </trkpt>
      <trkpt lat="44.12636" lon="2.25553">
        <ele>276.3</ele>
        <time>2016-05-04T16:02:36Z</time>
      </trkpt>
      <trkpt lat="44.12636" lon="2.25553">
        <ele>276.4</ele>
        <time>2016-05-04T16:02:37Z</time>
      </trkpt>
      <trkpt lat="44.12636" lon="2.25553">
        <ele>276.5</ele>
        <time>2016-05-04T16:02:38Z</time>
      </trkpt>
      <trkpt lat="44.12636" lon="2.25553">
        <ele>276.5</ele>
        <time>2016-05-04T16:02:39Z</time>
      </trkpt>
      <trkpt lat="44.12636" lon="2.25553">
        <ele>276.6</ele>
        <time>2016-05-04T16:02:40Z</time>
      </trkpt>
      <trkpt lat="44.12636" lon="2.25553">
        <ele>276.6</ele>
        <time>2016-05-04T16:02:41Z</time>
      </trkpt>
      <trkpt lat="44.12635" lon="2.25553">
        <ele>276.6</ele>
        <time>2016-05-04T16:02:42Z</time>
      </trkpt>
      <trkpt lat="44.12626" lon="2.25549">
        <ele>275.4</ele>
        <time>2016-05-04T16:02:52Z</time>
      </trkpt>
      <trkpt lat="44.12621" lon="2.25545">
        <ele>276.3</ele>
        <time>2016-05-04T16:02:57Z</time>
      </trkpt>
      <trkpt lat="44.12621" lon="2.25544">
        <ele>276.4</ele>
        <time>2016-05-04T16:02:58Z</time>
      </trkpt>
      <trkpt lat="44.12619" lon="2.25537">
        <ele>276.1</ele>
        <time>2016-05-04T16:03:02Z</time>
      </trkpt>
      <trkpt lat="44.12619" lon="2.25536">
        <ele>275.8</ele>
        <time>2016-05-04T16:03:03Z</time>
      </trkpt>
      <trkpt lat="44.12618" lon="2.25534">
        <ele>275.6</ele>
        <time>2016-05-04T16:03:04Z</time>
      </trkpt>
      <trkpt lat="44.12618" lon="2.25532">
        <ele>275.5</ele>
        <time>2016-05-04T16:03:05Z</time>
      </trkpt>
      <trkpt lat="44.12618" lon="2.25528">
        <ele>275.6</ele>
        <time>2016-05-04T16:03:07Z</time>
      </trkpt>
      <trkpt lat="44.12618" lon="2.25527">
        <ele>275.7</ele>
        <time>2016-05-04T16:03:08Z</time>
      </trkpt>
      <trkpt lat="44.12618" lon="2.25525">
        <ele>275.8</ele>
        <time>2016-05-04T16:03:10Z</time>
      </trkpt>
      <trkpt lat="44.12618" lon="2.25524">
        <ele>275.8</ele>
        <time>2016-05-04T16:03:11Z</time>
      </trkpt>
      <trkpt lat="44.12618" lon="2.25524">
        <ele>276</ele>
        <time>2016-05-04T16:03:12Z</time>
      </trkpt>
      <trkpt lat="44.12618" lon="2.25523">
        <ele>276.2</ele>
        <time>2016-05-04T16:03:13Z</time>
      </trkpt>
      <trkpt lat="44.12618" lon="2.25523">
        <ele>276.3</ele>
        <time>2016-05-04T16:03:14Z</time>
      </trkpt>
      <trkpt lat="44.12619" lon="2.25523">
        <ele>276.4</ele>
        <time>2016-05-04T16:03:15Z</time>
      </trkpt>
      <trkpt lat="44.12619" lon="2.25522">
        <ele>276.5</ele>
        <time>2016-05-04T16:03:16Z</time>
      </trkpt>
      <trkpt lat="44.12619" lon="2.25521">
        <ele>276.5</ele>
        <time>2016-05-04T16:03:17Z</time>
      </trkpt>
      <trkpt lat="44.12619" lon="2.2552">
        <ele>276.6</ele>
        <time>2016-05-04T16:03:18Z</time>
      </trkpt>
      <trkpt lat="44.12619" lon="2.25519">
        <ele>276.6</ele>
        <time>2016-05-04T16:03:19Z</time>
      </trkpt>
      <trkpt lat="44.1262" lon="2.25518">
        <ele>276.6</ele>
        <time>2016-05-04T16:03:20Z</time>
      </trkpt>
      <trkpt lat="44.1262" lon="2.25517">
        <ele>276.6</ele>
        <time>2016-05-04T16:03:21Z</time>
      </trkpt>
      <trkpt lat="44.1262" lon="2.25516">
        <ele>276.7</ele>
        <time>2016-05-04T16:03:22Z</time>
      </trkpt>
      <trkpt lat="44.1262" lon="2.25515">
        <ele>276.7</ele>
        <time>2016-05-04T16:03:23Z</time>
      </trkpt>
      <trkpt lat="44.1262" lon="2.25514">
        <ele>276.9</ele>
        <time>2016-05-04T16:03:24Z</time>
      </trkpt>
      <trkpt lat="44.1262" lon="2.25512">
        <ele>277.1</ele>
        <time>2016-05-04T16:03:25Z</time>
      </trkpt>
      <trkpt lat="44.1262" lon="2.25511">
        <ele>277.2</ele>
        <time>2016-05-04T16:03:26Z</time>
      </trkpt>
      <trkpt lat="44.12621" lon="2.25509">
        <ele>276.8</ele>
        <time>2016-05-04T16:03:27Z</time>
      </trkpt>
      <trkpt lat="44.12621" lon="2.25508">
        <ele>276.6</ele>
        <time>2016-05-04T16:03:28Z</time>
      </trkpt>
      <trkpt lat="44.12621" lon="2.25506">
        <ele>276.4</ele>
        <time>2016-05-04T16:03:29Z</time>
      </trkpt>
      <trkpt lat="44.12621" lon="2.25505">
        <ele>276.5</ele>
        <time>2016-05-04T16:03:30Z</time>
      </trkpt>
      <trkpt lat="44.12622" lon="2.25503">
        <ele>276.5</ele>
        <time>2016-05-04T16:03:31Z</time>
      </trkpt>
      <trkpt lat="44.12622" lon="2.25502">
        <ele>276.6</ele>
        <time>2016-05-04T16:03:32Z</time>
      </trkpt>
      <trkpt lat="44.12622" lon="2.255">
        <ele>276.8</ele>
        <time>2016-05-04T16:03:33Z</time>
      </trkpt>
      <trkpt lat="44.12622" lon="2.25499">
        <ele>277</ele>
        <time>2016-05-04T16:03:34Z</time>
      </trkpt>
      <trkpt lat="44.12626" lon="2.25478">
        <ele>277.9</ele>
        <time>2016-05-04T16:03:46Z</time>
      </trkpt>
      <trkpt lat="44.12627" lon="2.25477">
        <ele>278</ele>
        <time>2016-05-04T16:03:47Z</time>
      </trkpt>
      <trkpt lat="44.12628" lon="2.25475">
        <ele>277.7</ele>
        <time>2016-05-04T16:03:48Z</time>
      </trkpt>
      <trkpt lat="44.12629" lon="2.25474">
        <ele>277.4</ele>
        <time>2016-05-04T16:03:49Z</time>
      </trkpt>
      <trkpt lat="44.1263" lon="2.25473">
        <ele>277.3</ele>
        <time>2016-05-04T16:03:50Z</time>
      </trkpt>
      <trkpt lat="44.12632" lon="2.25472">
        <ele>277.3</ele>
        <time>2016-05-04T16:03:51Z</time>
      </trkpt>
      <trkpt lat="44.12633" lon="2.25471">
        <ele>277.4</ele>
        <time>2016-05-04T16:03:52Z</time>
      </trkpt>
      <trkpt lat="44.12634" lon="2.2547">
        <ele>277.4</ele>
        <time>2016-05-04T16:03:53Z</time>
      </trkpt>
      <trkpt lat="44.12635" lon="2.25469">
        <ele>277.5</ele>
        <time>2016-05-04T16:03:54Z</time>
      </trkpt>
      <trkpt lat="44.12636" lon="2.25468">
        <ele>277.5</ele>
        <time>2016-05-04T16:03:55Z</time>
      </trkpt>
      <trkpt lat="44.12638" lon="2.25468">
        <ele>277.5</ele>
        <time>2016-05-04T16:03:56Z</time>
      </trkpt>
      <trkpt lat="44.12639" lon="2.25467">
        <ele>277.3</ele>
        <time>2016-05-04T16:03:57Z</time>
      </trkpt>
      <trkpt lat="44.1264" lon="2.25466">
        <ele>277.1</ele>
        <time>2016-05-04T16:03:58Z</time>
      </trkpt>
      <trkpt lat="44.1264" lon="2.25466">
        <ele>277</ele>
        <time>2016-05-04T16:03:59Z</time>
      </trkpt>
      <trkpt lat="44.1264" lon="2.25466">
        <ele>276.7</ele>
        <time>2016-05-04T16:04:00Z</time>
      </trkpt>
      <trkpt lat="44.12641" lon="2.25466">
        <ele>276.5</ele>
        <time>2016-05-04T16:04:01Z</time>
      </trkpt>
      <trkpt lat="44.12641" lon="2.25465">
        <ele>276.4</ele>
        <time>2016-05-04T16:04:02Z</time>
      </trkpt>
      <trkpt lat="44.12641" lon="2.25465">
        <ele>276.4</ele>
        <time>2016-05-04T16:04:03Z</time>
      </trkpt>
      <trkpt lat="44.12641" lon="2.25465">
        <ele>276.5</ele>
        <time>2016-05-04T16:04:04Z</time>
      </trkpt>
      <trkpt lat="44.1264" lon="2.25464">
        <ele>276.6</ele>
        <time>2016-05-04T16:04:05Z</time>
      </trkpt>
      <trkpt lat="44.1264" lon="2.25464">
        <ele>276.4</ele>
        <time>2016-05-04T16:04:06Z</time>
      </trkpt>
      <trkpt lat="44.1264" lon="2.25464">
        <ele>276.2</ele>
        <time>2016-05-04T16:04:07Z</time>
      </trkpt>
      <trkpt lat="44.1264" lon="2.25463">
        <ele>276.1</ele>
        <time>2016-05-04T16:04:08Z</time>
      </trkpt>
      <trkpt lat="44.1264" lon="2.25463">
        <ele>276.1</ele>
        <time>2016-05-04T16:04:09Z</time>
      </trkpt>
      <trkpt lat="44.12641" lon="2.25462">
        <ele>276</ele>
        <time>2016-05-04T16:04:10Z</time>
      </trkpt>
      <trkpt lat="44.12641" lon="2.25462">
        <ele>276</ele>
        <time>2016-05-04T16:04:11Z</time>
      </trkpt>
      <trkpt lat="44.12642" lon="2.25461">
        <ele>276.2</ele>
        <time>2016-05-04T16:04:12Z</time>
      </trkpt>
      <trkpt lat="44.12642" lon="2.2546">
        <ele>276.3</ele>
        <time>2016-05-04T16:04:13Z</time>
      </trkpt>
      <trkpt lat="44.12643" lon="2.2546">
        <ele>276.4</ele>
        <time>2016-05-04T16:04:14Z</time>
      </trkpt>
      <trkpt lat="44.12643" lon="2.25459">
        <ele>276.5</ele>
        <time>2016-05-04T16:04:15Z</time>
      </trkpt>
      <trkpt lat="44.12644" lon="2.25459">
        <ele>276.5</ele>
        <time>2016-05-04T16:04:16Z</time>
      </trkpt>
      <trkpt lat="44.12644" lon="2.25458">
        <ele>276.6</ele>
        <time>2016-05-04T16:04:17Z</time>
      </trkpt>
      <trkpt lat="44.12645" lon="2.25458">
        <ele>276.6</ele>
        <time>2016-05-04T16:04:18Z</time>
      </trkpt>
      <trkpt lat="44.12646" lon="2.25458">
        <ele>276.6</ele>
        <time>2016-05-04T16:04:19Z</time>
      </trkpt>
      <trkpt lat="44.12648" lon="2.25457">
        <ele>276.6</ele>
        <time>2016-05-04T16:04:20Z</time>
      </trkpt>
      <trkpt lat="44.12649" lon="2.25457">
        <ele>276.4</ele>
        <time>2016-05-04T16:04:21Z</time>
      </trkpt>
      <trkpt lat="44.12651" lon="2.25456">
        <ele>276.3</ele>
        <time>2016-05-04T16:04:22Z</time>
      </trkpt>
      <trkpt lat="44.12653" lon="2.25456">
        <ele>276.2</ele>
        <time>2016-05-04T16:04:23Z</time>
      </trkpt>
      <trkpt lat="44.12656" lon="2.25456">
        <ele>276.3</ele>
        <time>2016-05-04T16:04:24Z</time>
      </trkpt>
      <trkpt lat="44.12659" lon="2.25455">
        <ele>276.4</ele>
        <time>2016-05-04T16:04:25Z</time>
      </trkpt>
      <trkpt lat="44.12662" lon="2.25455">
        <ele>276.5</ele>
        <time>2016-05-04T16:04:26Z</time>
      </trkpt>
      <trkpt lat="44.12665" lon="2.25455">
        <ele>276.5</ele>
        <time>2016-05-04T16:04:27Z</time>
      </trkpt>
      <trkpt lat="44.12669" lon="2.25455">
        <ele>276.6</ele>
        <time>2016-05-04T16:04:28Z</time>
      </trkpt>
      <trkpt lat="44.12671" lon="2.25454">
        <ele>276.6</ele>
        <time>2016-05-04T16:04:29Z</time>
      </trkpt>
      <trkpt lat="44.12674" lon="2.25454">
        <ele>276.6</ele>
        <time>2016-05-04T16:04:30Z</time>
      </trkpt>
      <trkpt lat="44.12677" lon="2.25454">
        <ele>276.6</ele>
        <time>2016-05-04T16:04:31Z</time>
      </trkpt>
      <trkpt lat="44.12679" lon="2.25454">
        <ele>276.7</ele>
        <time>2016-05-04T16:04:32Z</time>
      </trkpt>
      <trkpt lat="44.12681" lon="2.25454">
        <ele>276.5</ele>
        <time>2016-05-04T16:04:33Z</time>
      </trkpt>
      <trkpt lat="44.12683" lon="2.25455">
        <ele>276.3</ele>
        <time>2016-05-04T16:04:34Z</time>
      </trkpt>
      <trkpt lat="44.12685" lon="2.25455">
        <ele>276.2</ele>
        <time>2016-05-04T16:04:35Z</time>
      </trkpt>
      <trkpt lat="44.12687" lon="2.25455">
        <ele>276.1</ele>
        <time>2016-05-04T16:04:36Z</time>
      </trkpt>
      <trkpt lat="44.12689" lon="2.25455">
        <ele>276</ele>
        <time>2016-05-04T16:04:37Z</time>
      </trkpt>
      <trkpt lat="44.12691" lon="2.25455">
        <ele>276</ele>
        <time>2016-05-04T16:04:38Z</time>
      </trkpt>
      <trkpt lat="44.12692" lon="2.25455">
        <ele>276</ele>
        <time>2016-05-04T16:04:39Z</time>
      </trkpt>
      <trkpt lat="44.12698" lon="2.25455">
        <ele>275.4</ele>
        <time>2016-05-04T16:04:44Z</time>
      </trkpt>
      <trkpt lat="44.12699" lon="2.25455">
        <ele>275.3</ele>
        <time>2016-05-04T16:04:45Z</time>
      </trkpt>
      <trkpt lat="44.127" lon="2.25455">
        <ele>275.2</ele>
        <time>2016-05-04T16:04:46Z</time>
      </trkpt>
      <trkpt lat="44.12701" lon="2.25455">
        <ele>275.2</ele>
        <time>2016-05-04T16:04:47Z</time>
      </trkpt>
      <trkpt lat="44.12725" lon="2.25459">
        <ele>272.7</ele>
        <time>2016-05-04T16:05:07Z</time>
      </trkpt>
      <trkpt lat="44.12727" lon="2.25459">
        <ele>272.7</ele>
        <time>2016-05-04T16:05:08Z</time>
      </trkpt>
      <trkpt lat="44.12739" lon="2.25462">
        <ele>273.1</ele>
        <time>2016-05-04T16:05:16Z</time>
      </trkpt>
      <trkpt lat="44.12741" lon="2.25462">
        <ele>273.2</ele>
        <time>2016-05-04T16:05:17Z</time>
      </trkpt>
      <trkpt lat="44.12742" lon="2.25462">
        <ele>273.4</ele>
        <time>2016-05-04T16:05:18Z</time>
      </trkpt>
      <trkpt lat="44.12746" lon="2.25462">
        <ele>273.5</ele>
        <time>2016-05-04T16:05:23Z</time>
      </trkpt>
      <trkpt lat="44.12746" lon="2.25462">
        <ele>273.4</ele>
        <time>2016-05-04T16:05:24Z</time>
      </trkpt>
      <trkpt lat="44.12747" lon="2.25463">
        <ele>273.4</ele>
        <time>2016-05-04T16:05:25Z</time>
      </trkpt>
      <trkpt lat="44.12747" lon="2.25463">
        <ele>273.4</ele>
        <time>2016-05-04T16:05:26Z</time>
      </trkpt>
      <trkpt lat="44.12748" lon="2.25463">
        <ele>273.4</ele>
        <time>2016-05-04T16:05:27Z</time>
      </trkpt>
      <trkpt lat="44.12748" lon="2.25463">
        <ele>273.3</ele>
        <time>2016-05-04T16:05:28Z</time>
      </trkpt>
      <trkpt lat="44.12749" lon="2.25463">
        <ele>273.3</ele>
        <time>2016-05-04T16:05:29Z</time>
      </trkpt>
      <trkpt lat="44.1275" lon="2.25463">
        <ele>273.3</ele>
        <time>2016-05-04T16:05:30Z</time>
      </trkpt>
      <trkpt lat="44.12752" lon="2.25464">
        <ele>273.3</ele>
        <time>2016-05-04T16:05:31Z</time>
      </trkpt>
      <trkpt lat="44.12753" lon="2.25465">
        <ele>273.3</ele>
        <time>2016-05-04T16:05:32Z</time>
      </trkpt>
      <trkpt lat="44.12754" lon="2.25466">
        <ele>273.1</ele>
        <time>2016-05-04T16:05:33Z</time>
      </trkpt>
      <trkpt lat="44.12755" lon="2.25466">
        <ele>272.9</ele>
        <time>2016-05-04T16:05:34Z</time>
      </trkpt>
      <trkpt lat="44.12757" lon="2.25467">
        <ele>272.8</ele>
        <time>2016-05-04T16:05:35Z</time>
      </trkpt>
      <trkpt lat="44.12757" lon="2.25467">
        <ele>272.9</ele>
        <time>2016-05-04T16:05:36Z</time>
      </trkpt>
      <trkpt lat="44.12758" lon="2.25468">
        <ele>273</ele>
        <time>2016-05-04T16:05:37Z</time>
      </trkpt>
      <trkpt lat="44.12759" lon="2.25468">
        <ele>273.1</ele>
        <time>2016-05-04T16:05:38Z</time>
      </trkpt>
      <trkpt lat="44.1276" lon="2.25468">
        <ele>272.9</ele>
        <time>2016-05-04T16:05:39Z</time>
      </trkpt>
      <trkpt lat="44.12761" lon="2.25469">
        <ele>272.8</ele>
        <time>2016-05-04T16:05:40Z</time>
      </trkpt>
      <trkpt lat="44.12763" lon="2.25469">
        <ele>272.7</ele>
        <time>2016-05-04T16:05:41Z</time>
      </trkpt>
      <trkpt lat="44.12764" lon="2.2547">
        <ele>272.9</ele>
        <time>2016-05-04T16:05:42Z</time>
      </trkpt>
      <trkpt lat="44.12766" lon="2.25471">
        <ele>273</ele>
        <time>2016-05-04T16:05:43Z</time>
      </trkpt>
      <trkpt lat="44.12766" lon="2.25473">
        <ele>273.1</ele>
        <time>2016-05-04T16:05:44Z</time>
      </trkpt>
      <trkpt lat="44.12768" lon="2.25474">
        <ele>272.9</ele>
        <time>2016-05-04T16:05:45Z</time>
      </trkpt>
      <trkpt lat="44.12769" lon="2.25476">
        <ele>272.8</ele>
        <time>2016-05-04T16:05:46Z</time>
      </trkpt>
      <trkpt lat="44.12771" lon="2.25477">
        <ele>272.7</ele>
        <time>2016-05-04T16:05:47Z</time>
      </trkpt>
      <trkpt lat="44.12773" lon="2.25479">
        <ele>273.1</ele>
        <time>2016-05-04T16:05:48Z</time>
      </trkpt>
      <trkpt lat="44.12775" lon="2.2548">
        <ele>273.3</ele>
        <time>2016-05-04T16:05:49Z</time>
      </trkpt>
      <trkpt lat="44.12777" lon="2.2548">
        <ele>273.5</ele>
        <time>2016-05-04T16:05:50Z</time>
      </trkpt>
      <trkpt lat="44.12778" lon="2.25481">
        <ele>273.5</ele>
        <time>2016-05-04T16:05:51Z</time>
      </trkpt>
      <trkpt lat="44.1278" lon="2.25482">
        <ele>273.4</ele>
        <time>2016-05-04T16:05:52Z</time>
      </trkpt>
      <trkpt lat="44.12782" lon="2.25483">
        <ele>273.4</ele>
        <time>2016-05-04T16:05:53Z</time>
      </trkpt>
      <trkpt lat="44.12783" lon="2.25484">
        <ele>273.2</ele>
        <time>2016-05-04T16:05:54Z</time>
      </trkpt>
      <trkpt lat="44.12785" lon="2.25485">
        <ele>273</ele>
        <time>2016-05-04T16:05:55Z</time>
      </trkpt>
      <trkpt lat="44.12806" lon="2.25499">
        <ele>272.7</ele>
        <time>2016-05-04T16:06:11Z</time>
      </trkpt>
      <trkpt lat="44.12807" lon="2.25501">
        <ele>273</ele>
        <time>2016-05-04T16:06:12Z</time>
      </trkpt>
      <trkpt lat="44.12838" lon="2.25529">
        <ele>273.2</ele>
        <time>2016-05-04T16:06:38Z</time>
      </trkpt>
      <trkpt lat="44.12861" lon="2.25551">
        <ele>272.6</ele>
        <time>2016-05-04T16:06:59Z</time>
      </trkpt>
      <trkpt lat="44.12862" lon="2.25552">
        <ele>272.5</ele>
        <time>2016-05-04T16:07:00Z</time>
      </trkpt>
      <trkpt lat="44.12868" lon="2.25555">
        <ele>272.8</ele>
        <time>2016-05-04T16:07:06Z</time>
      </trkpt>
      <trkpt lat="44.12877" lon="2.25564">
        <ele>273.2</ele>
        <time>2016-05-04T16:07:14Z</time>
      </trkpt>
      <trkpt lat="44.12878" lon="2.25565">
        <ele>273.2</ele>
        <time>2016-05-04T16:07:15Z</time>
      </trkpt>
      <trkpt lat="44.12879" lon="2.25565">
        <ele>273.2</ele>
        <time>2016-05-04T16:07:16Z</time>
      </trkpt>
      <trkpt lat="44.1288" lon="2.25565">
        <ele>273.3</ele>
        <time>2016-05-04T16:07:17Z</time>
      </trkpt>
      <trkpt lat="44.1288" lon="2.25566">
        <ele>273.5</ele>
        <time>2016-05-04T16:07:18Z</time>
      </trkpt>
      <trkpt lat="44.12881" lon="2.25566">
        <ele>273.6</ele>
        <time>2016-05-04T16:07:19Z</time>
      </trkpt>
      <trkpt lat="44.12881" lon="2.25567">
        <ele>273.8</ele>
        <time>2016-05-04T16:07:20Z</time>
      </trkpt>
      <trkpt lat="44.12881" lon="2.25567">
        <ele>273.7</ele>
        <time>2016-05-04T16:07:21Z</time>
      </trkpt>
      <trkpt lat="44.12882" lon="2.25568">
        <ele>273.6</ele>
        <time>2016-05-04T16:07:22Z</time>
      </trkpt>
      <trkpt lat="44.12883" lon="2.25568">
        <ele>273.5</ele>
        <time>2016-05-04T16:07:23Z</time>
      </trkpt>
      <trkpt lat="44.12884" lon="2.25569">
        <ele>273.5</ele>
        <time>2016-05-04T16:07:24Z</time>
      </trkpt>
      <trkpt lat="44.12885" lon="2.2557">
        <ele>273.4</ele>
        <time>2016-05-04T16:07:25Z</time>
      </trkpt>
      <trkpt lat="44.12886" lon="2.2557">
        <ele>273.4</ele>
        <time>2016-05-04T16:07:26Z</time>
      </trkpt>
      <trkpt lat="44.12886" lon="2.25571">
        <ele>273.2</ele>
        <time>2016-05-04T16:07:27Z</time>
      </trkpt>
      <trkpt lat="44.12887" lon="2.25571">
        <ele>273</ele>
        <time>2016-05-04T16:07:28Z</time>
      </trkpt>
      <trkpt lat="44.12888" lon="2.25572">
        <ele>272.8</ele>
        <time>2016-05-04T16:07:29Z</time>
      </trkpt>
      <trkpt lat="44.12889" lon="2.25573">
        <ele>273.2</ele>
        <time>2016-05-04T16:07:30Z</time>
      </trkpt>
      <trkpt lat="44.12891" lon="2.25573">
        <ele>273.4</ele>
        <time>2016-05-04T16:07:31Z</time>
      </trkpt>
      <trkpt lat="44.12892" lon="2.25574">
        <ele>273.6</ele>
        <time>2016-05-04T16:07:32Z</time>
      </trkpt>
      <trkpt lat="44.129" lon="2.25579">
        <ele>273.5</ele>
        <time>2016-05-04T16:07:43Z</time>
      </trkpt>
      <trkpt lat="44.129" lon="2.25579">
        <ele>273.5</ele>
        <time>2016-05-04T16:07:44Z</time>
      </trkpt>
      <trkpt lat="44.129" lon="2.25579">
        <ele>273.6</ele>
        <time>2016-05-04T16:07:45Z</time>
      </trkpt>
      <trkpt lat="44.12901" lon="2.25579">
        <ele>273.8</ele>
        <time>2016-05-04T16:07:46Z</time>
      </trkpt>
      <trkpt lat="44.12901" lon="2.2558">
        <ele>273.9</ele>
        <time>2016-05-04T16:07:47Z</time>
      </trkpt>
      <trkpt lat="44.12901" lon="2.2558">
        <ele>273.5</ele>
        <time>2016-05-04T16:07:48Z</time>
      </trkpt>
      <trkpt lat="44.12901" lon="2.2558">
        <ele>273.2</ele>
        <time>2016-05-04T16:07:49Z</time>
      </trkpt>
      <trkpt lat="44.12902" lon="2.2558">
        <ele>273</ele>
        <time>2016-05-04T16:07:50Z</time>
      </trkpt>
      <trkpt lat="44.12902" lon="2.25581">
        <ele>272.9</ele>
        <time>2016-05-04T16:07:51Z</time>
      </trkpt>
      <trkpt lat="44.12903" lon="2.25582">
        <ele>272.8</ele>
        <time>2016-05-04T16:07:52Z</time>
      </trkpt>
      <trkpt lat="44.12904" lon="2.25582">
        <ele>272.7</ele>
        <time>2016-05-04T16:07:53Z</time>
      </trkpt>
      <trkpt lat="44.12909" lon="2.25586">
        <ele>273.9</ele>
        <time>2016-05-04T16:07:59Z</time>
      </trkpt>
      <trkpt lat="44.12909" lon="2.25587">
        <ele>274</ele>
        <time>2016-05-04T16:08:00Z</time>
      </trkpt>
      <trkpt lat="44.12909" lon="2.25587">
        <ele>274</ele>
        <time>2016-05-04T16:08:01Z</time>
      </trkpt>
      <trkpt lat="44.12909" lon="2.25587">
        <ele>274</ele>
        <time>2016-05-04T16:08:02Z</time>
      </trkpt>
      <trkpt lat="44.1291" lon="2.25588">
        <ele>274.1</ele>
        <time>2016-05-04T16:08:03Z</time>
      </trkpt>
      <trkpt lat="44.1291" lon="2.25588">
        <ele>274.1</ele>
        <time>2016-05-04T16:08:04Z</time>
      </trkpt>
      <trkpt lat="44.1291" lon="2.25588">
        <ele>274.1</ele>
        <time>2016-05-04T16:08:05Z</time>
      </trkpt>
      <trkpt lat="44.1291" lon="2.25589">
        <ele>273.9</ele>
        <time>2016-05-04T16:08:06Z</time>
      </trkpt>
      <trkpt lat="44.1291" lon="2.25589">
        <ele>273.8</ele>
        <time>2016-05-04T16:08:07Z</time>
      </trkpt>
      <trkpt lat="44.12911" lon="2.25589">
        <ele>273.6</ele>
        <time>2016-05-04T16:08:08Z</time>
      </trkpt>
      <trkpt lat="44.12911" lon="2.25589">
        <ele>273.6</ele>
        <time>2016-05-04T16:08:09Z</time>
      </trkpt>
      <trkpt lat="44.12911" lon="2.25589">
        <ele>273.5</ele>
        <time>2016-05-04T16:08:10Z</time>
      </trkpt>
      <trkpt lat="44.12911" lon="2.2559">
        <ele>273.4</ele>
        <time>2016-05-04T16:08:11Z</time>
      </trkpt>
      <trkpt lat="44.12911" lon="2.2559">
        <ele>273.4</ele>
        <time>2016-05-04T16:08:12Z</time>
      </trkpt>
      <trkpt lat="44.12912" lon="2.2559">
        <ele>273.4</ele>
        <time>2016-05-04T16:08:13Z</time>
      </trkpt>
      <trkpt lat="44.12913" lon="2.2559">
        <ele>273.4</ele>
        <time>2016-05-04T16:08:14Z</time>
      </trkpt>
      <trkpt lat="44.12913" lon="2.2559">
        <ele>273.3</ele>
        <time>2016-05-04T16:08:15Z</time>
      </trkpt>
      <trkpt lat="44.12914" lon="2.25591">
        <ele>273.3</ele>
        <time>2016-05-04T16:08:16Z</time>
      </trkpt>
      <trkpt lat="44.12915" lon="2.25591">
        <ele>273.3</ele>
        <time>2016-05-04T16:08:17Z</time>
      </trkpt>
      <trkpt lat="44.12916" lon="2.25592">
        <ele>273.3</ele>
        <time>2016-05-04T16:08:18Z</time>
      </trkpt>
      <trkpt lat="44.12916" lon="2.25593">
        <ele>273.3</ele>
        <time>2016-05-04T16:08:19Z</time>
      </trkpt>
      <trkpt lat="44.12917" lon="2.25593">
        <ele>273.3</ele>
        <time>2016-05-04T16:08:20Z</time>
      </trkpt>
      <trkpt lat="44.12918" lon="2.25594">
        <ele>273.5</ele>
        <time>2016-05-04T16:08:21Z</time>
      </trkpt>
      <trkpt lat="44.12919" lon="2.25594">
        <ele>273.7</ele>
        <time>2016-05-04T16:08:22Z</time>
      </trkpt>
      <trkpt lat="44.12919" lon="2.25594">
        <ele>273.8</ele>
        <time>2016-05-04T16:08:23Z</time>
      </trkpt>
      <trkpt lat="44.12919" lon="2.25594">
        <ele>273.7</ele>
        <time>2016-05-04T16:08:24Z</time>
      </trkpt>
      <trkpt lat="44.12919" lon="2.25594">
        <ele>273.6</ele>
        <time>2016-05-04T16:08:25Z</time>
      </trkpt>
      <trkpt lat="44.12919" lon="2.25594">
        <ele>273.5</ele>
        <time>2016-05-04T16:08:26Z</time>
      </trkpt>
      <trkpt lat="44.1292" lon="2.25594">
        <ele>273.7</ele>
        <time>2016-05-04T16:08:27Z</time>
      </trkpt>
      <trkpt lat="44.1292" lon="2.25594">
        <ele>273.8</ele>
        <time>2016-05-04T16:08:28Z</time>
      </trkpt>
      <trkpt lat="44.1292" lon="2.25594">
        <ele>273.9</ele>
        <time>2016-05-04T16:08:29Z</time>
      </trkpt>
      <trkpt lat="44.1292" lon="2.25593">
        <ele>273.7</ele>
        <time>2016-05-04T16:08:30Z</time>
      </trkpt>
      <trkpt lat="44.12921" lon="2.25593">
        <ele>273.6</ele>
        <time>2016-05-04T16:08:31Z</time>
      </trkpt>
      <trkpt lat="44.12921" lon="2.25592">
        <ele>273.5</ele>
        <time>2016-05-04T16:08:32Z</time>
      </trkpt>
      <trkpt lat="44.12921" lon="2.25592">
        <ele>273.5</ele>
        <time>2016-05-04T16:08:33Z</time>
      </trkpt>
      <trkpt lat="44.12921" lon="2.25591">
        <ele>273.4</ele>
        <time>2016-05-04T16:08:34Z</time>
      </trkpt>
      <trkpt lat="44.12921" lon="2.25591">
        <ele>273.4</ele>
        <time>2016-05-04T16:08:35Z</time>
      </trkpt>
      <trkpt lat="44.12921" lon="2.2559">
        <ele>273.2</ele>
        <time>2016-05-04T16:08:36Z</time>
      </trkpt>
      <trkpt lat="44.12921" lon="2.2559">
        <ele>273</ele>
        <time>2016-05-04T16:08:37Z</time>
      </trkpt>
      <trkpt lat="44.12921" lon="2.25589">
        <ele>272.9</ele>
        <time>2016-05-04T16:08:38Z</time>
      </trkpt>
      <trkpt lat="44.12921" lon="2.25589">
        <ele>272.8</ele>
        <time>2016-05-04T16:08:39Z</time>
      </trkpt>
      <trkpt lat="44.12921" lon="2.25589">
        <ele>272.7</ele>
        <time>2016-05-04T16:08:40Z</time>
      </trkpt>
      <trkpt lat="44.12922" lon="2.25588">
        <ele>272.6</ele>
        <time>2016-05-04T16:08:41Z</time>
      </trkpt>
      <trkpt lat="44.12922" lon="2.25588">
        <ele>272.8</ele>
        <time>2016-05-04T16:08:42Z</time>
      </trkpt>
      <trkpt lat="44.12922" lon="2.25588">
        <ele>272.9</ele>
        <time>2016-05-04T16:08:43Z</time>
      </trkpt>
      <trkpt lat="44.12922" lon="2.25588">
        <ele>273</ele>
        <time>2016-05-04T16:08:44Z</time>
      </trkpt>
      <trkpt lat="44.12922" lon="2.25588">
        <ele>273.3</ele>
        <time>2016-05-04T16:08:45Z</time>
      </trkpt>
      <trkpt lat="44.12922" lon="2.25588">
        <ele>273.5</ele>
        <time>2016-05-04T16:08:46Z</time>
      </trkpt>
      <trkpt lat="44.12922" lon="2.25588">
        <ele>273.7</ele>
        <time>2016-05-04T16:08:47Z</time>
      </trkpt>
      <trkpt lat="44.12922" lon="2.25588">
        <ele>273.6</ele>
        <time>2016-05-04T16:08:48Z</time>
      </trkpt>
      <trkpt lat="44.12922" lon="2.25588">
        <ele>273.5</ele>
        <time>2016-05-04T16:08:49Z</time>
      </trkpt>
      <trkpt lat="44.12923" lon="2.25588">
        <ele>273.5</ele>
        <time>2016-05-04T16:08:50Z</time>
      </trkpt>
      <trkpt lat="44.12923" lon="2.25588">
        <ele>273.2</ele>
        <time>2016-05-04T16:08:51Z</time>
      </trkpt>
      <trkpt lat="44.12923" lon="2.25588">
        <ele>273</ele>
        <time>2016-05-04T16:08:52Z</time>
      </trkpt>
      <trkpt lat="44.12923" lon="2.25588">
        <ele>272.9</ele>
        <time>2016-05-04T16:08:53Z</time>
      </trkpt>
      <trkpt lat="44.12923" lon="2.25588">
        <ele>272.8</ele>
        <time>2016-05-04T16:08:54Z</time>
      </trkpt>
      <trkpt lat="44.12923" lon="2.25588">
        <ele>272.7</ele>
        <time>2016-05-04T16:08:55Z</time>
      </trkpt>
      <trkpt lat="44.12923" lon="2.25588">
        <ele>272.6</ele>
        <time>2016-05-04T16:08:56Z</time>
      </trkpt>
      <trkpt lat="44.12923" lon="2.25589">
        <ele>273</ele>
        <time>2016-05-04T16:08:57Z</time>
      </trkpt>
      <trkpt lat="44.12923" lon="2.25589">
        <ele>273.3</ele>
        <time>2016-05-04T16:08:58Z</time>
      </trkpt>
      <trkpt lat="44.12923" lon="2.2559">
        <ele>273.5</ele>
        <time>2016-05-04T16:08:59Z</time>
      </trkpt>
      <trkpt lat="44.12923" lon="2.2559">
        <ele>273.7</ele>
        <time>2016-05-04T16:09:00Z</time>
      </trkpt>
      <trkpt lat="44.12923" lon="2.25591">
        <ele>273.8</ele>
        <time>2016-05-04T16:09:01Z</time>
      </trkpt>
      <trkpt lat="44.12923" lon="2.25591">
        <ele>273.9</ele>
        <time>2016-05-04T16:09:02Z</time>
      </trkpt>
      <trkpt lat="44.12923" lon="2.25591">
        <ele>273.9</ele>
        <time>2016-05-04T16:09:03Z</time>
      </trkpt>
      <trkpt lat="44.12922" lon="2.25592">
        <ele>274</ele>
        <time>2016-05-04T16:09:04Z</time>
      </trkpt>
      <trkpt lat="44.12922" lon="2.25592">
        <ele>274</ele>
        <time>2016-05-04T16:09:05Z</time>
      </trkpt>
      <trkpt lat="44.12922" lon="2.25593">
        <ele>273.6</ele>
        <time>2016-05-04T16:09:06Z</time>
      </trkpt>
      <trkpt lat="44.12922" lon="2.25593">
        <ele>273.3</ele>
        <time>2016-05-04T16:09:07Z</time>
      </trkpt>
      <trkpt lat="44.12921" lon="2.25594">
        <ele>273.1</ele>
        <time>2016-05-04T16:09:08Z</time>
      </trkpt>
      <trkpt lat="44.12921" lon="2.25595">
        <ele>273.2</ele>
        <time>2016-05-04T16:09:09Z</time>
      </trkpt>
      <trkpt lat="44.12921" lon="2.25595">
        <ele>273.2</ele>
        <time>2016-05-04T16:09:10Z</time>
      </trkpt>
      <trkpt lat="44.12921" lon="2.25596">
        <ele>273.2</ele>
        <time>2016-05-04T16:09:11Z</time>
      </trkpt>
      <trkpt lat="44.1292" lon="2.25596">
        <ele>273.2</ele>
        <time>2016-05-04T16:09:12Z</time>
      </trkpt>
      <trkpt lat="44.1292" lon="2.25596">
        <ele>273.3</ele>
        <time>2016-05-04T16:09:13Z</time>
      </trkpt>
      <trkpt lat="44.1292" lon="2.25596">
        <ele>273.3</ele>
        <time>2016-05-04T16:09:14Z</time>
      </trkpt>
      <trkpt lat="44.1292" lon="2.25596">
        <ele>273.3</ele>
        <time>2016-05-04T16:09:15Z</time>
      </trkpt>
      <trkpt lat="44.1292" lon="2.25596">
        <ele>273.3</ele>
        <time>2016-05-04T16:09:16Z</time>
      </trkpt>
      <trkpt lat="44.1292" lon="2.25596">
        <ele>273.3</ele>
        <time>2016-05-04T16:09:17Z</time>
      </trkpt>
      <trkpt lat="44.1292" lon="2.25596">
        <ele>273.1</ele>
        <time>2016-05-04T16:09:18Z</time>
      </trkpt>
      <trkpt lat="44.1292" lon="2.25596">
        <ele>272.9</ele>
        <time>2016-05-04T16:09:19Z</time>
      </trkpt>
      <trkpt lat="44.1292" lon="2.25596">
        <ele>272.8</ele>
        <time>2016-05-04T16:09:20Z</time>
      </trkpt>
      <trkpt lat="44.1292" lon="2.25596">
        <ele>272.7</ele>
        <time>2016-05-04T16:09:21Z</time>
      </trkpt>
      <trkpt lat="44.12919" lon="2.25596">
        <ele>272.6</ele>
        <time>2016-05-04T16:09:22Z</time>
      </trkpt>
      <trkpt lat="44.12918" lon="2.25595">
        <ele>272.6</ele>
        <time>2016-05-04T16:09:23Z</time>
      </trkpt>
      <trkpt lat="44.12917" lon="2.25595">
        <ele>272.8</ele>
        <time>2016-05-04T16:09:24Z</time>
      </trkpt>
      <trkpt lat="44.12911" lon="2.25592">
        <ele>273.2</ele>
        <time>2016-05-04T16:09:32Z</time>
      </trkpt>
      <trkpt lat="44.1291" lon="2.25592">
        <ele>273</ele>
        <time>2016-05-04T16:09:33Z</time>
      </trkpt>
      <trkpt lat="44.1291" lon="2.25592">
        <ele>272.9</ele>
        <time>2016-05-04T16:09:34Z</time>
      </trkpt>
      <trkpt lat="44.1291" lon="2.25591">
        <ele>272.8</ele>
        <time>2016-05-04T16:09:35Z</time>
      </trkpt>
      <trkpt lat="44.1291" lon="2.25591">
        <ele>272.7</ele>
        <time>2016-05-04T16:09:36Z</time>
      </trkpt>
      <trkpt lat="44.12909" lon="2.25591">
        <ele>272.6</ele>
        <time>2016-05-04T16:09:37Z</time>
      </trkpt>
      <trkpt lat="44.12909" lon="2.2559">
        <ele>272.6</ele>
        <time>2016-05-04T16:09:38Z</time>
      </trkpt>
      <trkpt lat="44.12908" lon="2.25589">
        <ele>273</ele>
        <time>2016-05-04T16:09:39Z</time>
      </trkpt>
      <trkpt lat="44.12907" lon="2.25589">
        <ele>273.3</ele>
        <time>2016-05-04T16:09:40Z</time>
      </trkpt>
      <trkpt lat="44.12907" lon="2.25588">
        <ele>273.5</ele>
        <time>2016-05-04T16:09:41Z</time>
      </trkpt>
      <trkpt lat="44.12905" lon="2.25588">
        <ele>273.4</ele>
        <time>2016-05-04T16:09:42Z</time>
      </trkpt>
      <trkpt lat="44.12904" lon="2.25587">
        <ele>273.4</ele>
        <time>2016-05-04T16:09:43Z</time>
      </trkpt>
      <trkpt lat="44.12897" lon="2.25584">
        <ele>273.8</ele>
        <time>2016-05-04T16:09:47Z</time>
      </trkpt>
      <trkpt lat="44.12895" lon="2.25583">
        <ele>273.7</ele>
        <time>2016-05-04T16:09:48Z</time>
      </trkpt>
      <trkpt lat="44.12894" lon="2.25583">
        <ele>273.6</ele>
        <time>2016-05-04T16:09:49Z</time>
      </trkpt>
      <trkpt lat="44.1289" lon="2.25582">
        <ele>273.4</ele>
        <time>2016-05-04T16:09:53Z</time>
      </trkpt>
      <trkpt lat="44.12889" lon="2.25582">
        <ele>273.2</ele>
        <time>2016-05-04T16:09:54Z</time>
      </trkpt>
      <trkpt lat="44.12883" lon="2.25577">
        <ele>272.9</ele>
        <time>2016-05-04T16:10:03Z</time>
      </trkpt>
      <trkpt lat="44.12883" lon="2.25576">
        <ele>272.8</ele>
        <time>2016-05-04T16:10:04Z</time>
      </trkpt>
      <trkpt lat="44.12882" lon="2.25575">
        <ele>272.7</ele>
        <time>2016-05-04T16:10:05Z</time>
      </trkpt>
      <trkpt lat="44.12882" lon="2.25574">
        <ele>272.8</ele>
        <time>2016-05-04T16:10:06Z</time>
      </trkpt>
      <trkpt lat="44.12881" lon="2.25573">
        <ele>273</ele>
        <time>2016-05-04T16:10:07Z</time>
      </trkpt>
      <trkpt lat="44.1288" lon="2.25572">
        <ele>273</ele>
        <time>2016-05-04T16:10:08Z</time>
      </trkpt>
      <trkpt lat="44.1288" lon="2.25571">
        <ele>273.3</ele>
        <time>2016-05-04T16:10:09Z</time>
      </trkpt>
      <trkpt lat="44.12877" lon="2.25569">
        <ele>273.9</ele>
        <time>2016-05-04T16:10:13Z</time>
      </trkpt>
      <trkpt lat="44.12869" lon="2.2556">
        <ele>273.2</ele>
        <time>2016-05-04T16:10:21Z</time>
      </trkpt>
      <trkpt lat="44.12868" lon="2.25559">
        <ele>273.2</ele>
        <time>2016-05-04T16:10:22Z</time>
      </trkpt>
      <trkpt lat="44.12809" lon="2.25508">
        <ele>274.1</ele>
        <time>2016-05-04T16:11:12Z</time>
      </trkpt>
      <trkpt lat="44.12808" lon="2.25508">
        <ele>274.1</ele>
        <time>2016-05-04T16:11:13Z</time>
      </trkpt>
      <trkpt lat="44.12804" lon="2.25507">
        <ele>273.8</ele>
        <time>2016-05-04T16:11:19Z</time>
      </trkpt>
      <trkpt lat="44.12803" lon="2.25507">
        <ele>273.7</ele>
        <time>2016-05-04T16:11:20Z</time>
      </trkpt>
      <trkpt lat="44.12803" lon="2.25507">
        <ele>274</ele>
        <time>2016-05-04T16:11:21Z</time>
      </trkpt>
      <trkpt lat="44.12802" lon="2.25507">
        <ele>274.2</ele>
        <time>2016-05-04T16:11:22Z</time>
      </trkpt>
      <trkpt lat="44.12802" lon="2.25506">
        <ele>274.4</ele>
        <time>2016-05-04T16:11:23Z</time>
      </trkpt>
      <trkpt lat="44.128" lon="2.25506">
        <ele>274.1</ele>
        <time>2016-05-04T16:11:24Z</time>
      </trkpt>
      <trkpt lat="44.12799" lon="2.25505">
        <ele>273.9</ele>
        <time>2016-05-04T16:11:25Z</time>
      </trkpt>
      <trkpt lat="44.12798" lon="2.25504">
        <ele>273.8</ele>
        <time>2016-05-04T16:11:26Z</time>
      </trkpt>
      <trkpt lat="44.12797" lon="2.25503">
        <ele>273.9</ele>
        <time>2016-05-04T16:11:27Z</time>
      </trkpt>
      <trkpt lat="44.12795" lon="2.25502">
        <ele>273.9</ele>
        <time>2016-05-04T16:11:28Z</time>
      </trkpt>
      <trkpt lat="44.12794" lon="2.25502">
        <ele>274</ele>
        <time>2016-05-04T16:11:29Z</time>
      </trkpt>
      <trkpt lat="44.12793" lon="2.25501">
        <ele>273.6</ele>
        <time>2016-05-04T16:11:30Z</time>
      </trkpt>
      <trkpt lat="44.12792" lon="2.255">
        <ele>273.3</ele>
        <time>2016-05-04T16:11:31Z</time>
      </trkpt>
      <trkpt lat="44.12791" lon="2.25498">
        <ele>273.2</ele>
        <time>2016-05-04T16:11:33Z</time>
      </trkpt>
      <trkpt lat="44.12791" lon="2.25498">
        <ele>273.2</ele>
        <time>2016-05-04T16:11:34Z</time>
      </trkpt>
      <trkpt lat="44.1279" lon="2.25498">
        <ele>273.2</ele>
        <time>2016-05-04T16:11:35Z</time>
      </trkpt>
      <trkpt lat="44.1279" lon="2.25497">
        <ele>273.2</ele>
        <time>2016-05-04T16:11:36Z</time>
      </trkpt>
      <trkpt lat="44.1279" lon="2.25497">
        <ele>273.3</ele>
        <time>2016-05-04T16:11:37Z</time>
      </trkpt>
      <trkpt lat="44.1279" lon="2.25497">
        <ele>273.3</ele>
        <time>2016-05-04T16:11:38Z</time>
      </trkpt>
      <trkpt lat="44.1279" lon="2.25497">
        <ele>273.5</ele>
        <time>2016-05-04T16:11:39Z</time>
      </trkpt>
      <trkpt lat="44.1279" lon="2.25496">
        <ele>273.7</ele>
        <time>2016-05-04T16:11:40Z</time>
      </trkpt>
      <trkpt lat="44.1279" lon="2.25496">
        <ele>273.8</ele>
        <time>2016-05-04T16:11:41Z</time>
      </trkpt>
      <trkpt lat="44.1279" lon="2.25496">
        <ele>273.9</ele>
        <time>2016-05-04T16:11:42Z</time>
      </trkpt>
      <trkpt lat="44.1279" lon="2.25495">
        <ele>273.9</ele>
        <time>2016-05-04T16:11:43Z</time>
      </trkpt>
      <trkpt lat="44.12789" lon="2.25494">
        <ele>274</ele>
        <time>2016-05-04T16:11:44Z</time>
      </trkpt>
      <trkpt lat="44.12789" lon="2.25493">
        <ele>273.6</ele>
        <time>2016-05-04T16:11:45Z</time>
      </trkpt>
      <trkpt lat="44.12788" lon="2.25491">
        <ele>273.3</ele>
        <time>2016-05-04T16:11:46Z</time>
      </trkpt>
      <trkpt lat="44.12787" lon="2.2549">
        <ele>273.1</ele>
        <time>2016-05-04T16:11:47Z</time>
      </trkpt>
      <trkpt lat="44.12787" lon="2.25488">
        <ele>273.2</ele>
        <time>2016-05-04T16:11:48Z</time>
      </trkpt>
      <trkpt lat="44.12786" lon="2.25487">
        <ele>273.2</ele>
        <time>2016-05-04T16:11:49Z</time>
      </trkpt>
      <trkpt lat="44.12785" lon="2.25486">
        <ele>273.2</ele>
        <time>2016-05-04T16:11:50Z</time>
      </trkpt>
      <trkpt lat="44.12781" lon="2.25483">
        <ele>274.2</ele>
        <time>2016-05-04T16:11:56Z</time>
      </trkpt>
      <trkpt lat="44.12778" lon="2.25481">
        <ele>274.1</ele>
        <time>2016-05-04T16:12:01Z</time>
      </trkpt>
      <trkpt lat="44.12771" lon="2.25478">
        <ele>273.5</ele>
        <time>2016-05-04T16:12:10Z</time>
      </trkpt>
      <trkpt lat="44.1277" lon="2.25478">
        <ele>273.4</ele>
        <time>2016-05-04T16:12:11Z</time>
      </trkpt>
      <trkpt lat="44.12752" lon="2.25475">
        <ele>274.4</ele>
        <time>2016-05-04T16:12:26Z</time>
      </trkpt>
      <trkpt lat="44.1275" lon="2.25475">
        <ele>274.4</ele>
        <time>2016-05-04T16:12:27Z</time>
      </trkpt>
      <trkpt lat="44.12693" lon="2.25462">
        <ele>277.1</ele>
        <time>2016-05-04T16:13:05Z</time>
      </trkpt>
      <trkpt lat="44.12691" lon="2.25463">
        <ele>277.3</ele>
        <time>2016-05-04T16:13:07Z</time>
      </trkpt>
      <trkpt lat="44.1269" lon="2.25463">
        <ele>277.3</ele>
        <time>2016-05-04T16:13:08Z</time>
      </trkpt>
      <trkpt lat="44.12689" lon="2.25464">
        <ele>277.4</ele>
        <time>2016-05-04T16:13:09Z</time>
      </trkpt>
      <trkpt lat="44.12688" lon="2.25464">
        <ele>277.4</ele>
        <time>2016-05-04T16:13:10Z</time>
      </trkpt>
      <trkpt lat="44.12686" lon="2.25465">
        <ele>277.5</ele>
        <time>2016-05-04T16:13:11Z</time>
      </trkpt>
      <trkpt lat="44.12686" lon="2.25465">
        <ele>277.3</ele>
        <time>2016-05-04T16:13:12Z</time>
      </trkpt>
      <trkpt lat="44.1268" lon="2.25469">
        <ele>277.8</ele>
        <time>2016-05-04T16:13:17Z</time>
      </trkpt>
      <trkpt lat="44.12679" lon="2.25469">
        <ele>277.8</ele>
        <time>2016-05-04T16:13:18Z</time>
      </trkpt>
      <trkpt lat="44.12677" lon="2.2547">
        <ele>277.7</ele>
        <time>2016-05-04T16:13:19Z</time>
      </trkpt>
      <trkpt lat="44.12676" lon="2.25471">
        <ele>277.7</ele>
        <time>2016-05-04T16:13:20Z</time>
      </trkpt>
      <trkpt lat="44.12674" lon="2.25471">
        <ele>278.1</ele>
        <time>2016-05-04T16:13:21Z</time>
      </trkpt>
      <trkpt lat="44.12672" lon="2.25471">
        <ele>278.4</ele>
        <time>2016-05-04T16:13:22Z</time>
      </trkpt>
      <trkpt lat="44.1267" lon="2.25472">
        <ele>278.6</ele>
        <time>2016-05-04T16:13:23Z</time>
      </trkpt>
      <trkpt lat="44.12668" lon="2.25472">
        <ele>278.3</ele>
        <time>2016-05-04T16:13:24Z</time>
      </trkpt>
      <trkpt lat="44.12666" lon="2.25473">
        <ele>278.1</ele>
        <time>2016-05-04T16:13:25Z</time>
      </trkpt>
      <trkpt lat="44.12664" lon="2.25473">
        <ele>278</ele>
        <time>2016-05-04T16:13:26Z</time>
      </trkpt>
      <trkpt lat="44.12662" lon="2.25474">
        <ele>278.3</ele>
        <time>2016-05-04T16:13:27Z</time>
      </trkpt>
      <trkpt lat="44.1266" lon="2.25474">
        <ele>278.5</ele>
        <time>2016-05-04T16:13:28Z</time>
      </trkpt>
      <trkpt lat="44.12659" lon="2.25474">
        <ele>278.7</ele>
        <time>2016-05-04T16:13:29Z</time>
      </trkpt>
      <trkpt lat="44.12659" lon="2.25474">
        <ele>278.8</ele>
        <time>2016-05-04T16:13:30Z</time>
      </trkpt>
      <trkpt lat="44.12658" lon="2.25474">
        <ele>278.9</ele>
        <time>2016-05-04T16:13:31Z</time>
      </trkpt>
      <trkpt lat="44.12657" lon="2.25474">
        <ele>279</ele>
        <time>2016-05-04T16:13:32Z</time>
      </trkpt>
      <trkpt lat="44.12657" lon="2.25474">
        <ele>278.9</ele>
        <time>2016-05-04T16:13:33Z</time>
      </trkpt>
      <trkpt lat="44.12656" lon="2.25474">
        <ele>278.8</ele>
        <time>2016-05-04T16:13:34Z</time>
      </trkpt>
      <trkpt lat="44.12656" lon="2.25474">
        <ele>278.7</ele>
        <time>2016-05-04T16:13:35Z</time>
      </trkpt>
      <trkpt lat="44.12656" lon="2.25474">
        <ele>278.8</ele>
        <time>2016-05-04T16:13:36Z</time>
      </trkpt>
      <trkpt lat="44.12656" lon="2.25474">
        <ele>278.9</ele>
        <time>2016-05-04T16:13:37Z</time>
      </trkpt>
      <trkpt lat="44.12656" lon="2.25474">
        <ele>279</ele>
        <time>2016-05-04T16:13:38Z</time>
      </trkpt>
      <trkpt lat="44.12656" lon="2.25475">
        <ele>278.9</ele>
        <time>2016-05-04T16:13:39Z</time>
      </trkpt>
      <trkpt lat="44.12656" lon="2.25475">
        <ele>278.7</ele>
        <time>2016-05-04T16:13:40Z</time>
      </trkpt>
      <trkpt lat="44.12655" lon="2.25475">
        <ele>278.7</ele>
        <time>2016-05-04T16:13:41Z</time>
      </trkpt>
      <trkpt lat="44.12655" lon="2.25475">
        <ele>278.6</ele>
        <time>2016-05-04T16:13:42Z</time>
      </trkpt>
      <trkpt lat="44.12654" lon="2.25475">
        <ele>278.5</ele>
        <time>2016-05-04T16:13:43Z</time>
      </trkpt>
      <trkpt lat="44.12654" lon="2.25475">
        <ele>278.5</ele>
        <time>2016-05-04T16:13:44Z</time>
      </trkpt>
      <trkpt lat="44.12654" lon="2.25475">
        <ele>278.7</ele>
        <time>2016-05-04T16:13:45Z</time>
      </trkpt>
      <trkpt lat="44.12653" lon="2.25475">
        <ele>278.8</ele>
        <time>2016-05-04T16:13:46Z</time>
      </trkpt>
      <trkpt lat="44.12652" lon="2.25476">
        <ele>278.9</ele>
        <time>2016-05-04T16:13:47Z</time>
      </trkpt>
      <trkpt lat="44.12647" lon="2.25481">
        <ele>279.2</ele>
        <time>2016-05-04T16:13:51Z</time>
      </trkpt>
      <trkpt lat="44.12645" lon="2.25484">
        <ele>279.2</ele>
        <time>2016-05-04T16:13:52Z</time>
      </trkpt>
      <trkpt lat="44.12644" lon="2.25487">
        <ele>279.2</ele>
        <time>2016-05-04T16:13:53Z</time>
      </trkpt>
      <trkpt lat="44.12643" lon="2.25491">
        <ele>279</ele>
        <time>2016-05-04T16:13:54Z</time>
      </trkpt>
      <trkpt lat="44.12643" lon="2.25493">
        <ele>278.8</ele>
        <time>2016-05-04T16:13:55Z</time>
      </trkpt>
      <trkpt lat="44.12643" lon="2.25496">
        <ele>278.7</ele>
        <time>2016-05-04T16:13:56Z</time>
      </trkpt>
      <trkpt lat="44.12642" lon="2.25498">
        <ele>278.4</ele>
        <time>2016-05-04T16:13:57Z</time>
      </trkpt>
      <trkpt lat="44.12642" lon="2.255">
        <ele>278.2</ele>
        <time>2016-05-04T16:13:58Z</time>
      </trkpt>
      <trkpt lat="44.12642" lon="2.25501">
        <ele>278</ele>
        <time>2016-05-04T16:13:59Z</time>
      </trkpt>
      <trkpt lat="44.12641" lon="2.25503">
        <ele>278.3</ele>
        <time>2016-05-04T16:14:00Z</time>
      </trkpt>
      <trkpt lat="44.1264" lon="2.25504">
        <ele>278.6</ele>
        <time>2016-05-04T16:14:01Z</time>
      </trkpt>
      <trkpt lat="44.12639" lon="2.25505">
        <ele>278.7</ele>
        <time>2016-05-04T16:14:02Z</time>
      </trkpt>
      <trkpt lat="44.12639" lon="2.25506">
        <ele>278.4</ele>
        <time>2016-05-04T16:14:03Z</time>
      </trkpt>
      <trkpt lat="44.12638" lon="2.25507">
        <ele>278.2</ele>
        <time>2016-05-04T16:14:04Z</time>
      </trkpt>
      <trkpt lat="44.12637" lon="2.25508">
        <ele>278.1</ele>
        <time>2016-05-04T16:14:05Z</time>
      </trkpt>
      <trkpt lat="44.12637" lon="2.25509">
        <ele>278.1</ele>
        <time>2016-05-04T16:14:06Z</time>
      </trkpt>
      <trkpt lat="44.12637" lon="2.25509">
        <ele>278.2</ele>
        <time>2016-05-04T16:14:07Z</time>
      </trkpt>
      <trkpt lat="44.12636" lon="2.25509">
        <ele>278.3</ele>
        <time>2016-05-04T16:14:08Z</time>
      </trkpt>
      <trkpt lat="44.12636" lon="2.2551">
        <ele>278.5</ele>
        <time>2016-05-04T16:14:09Z</time>
      </trkpt>
      <trkpt lat="44.12636" lon="2.2551">
        <ele>278.7</ele>
        <time>2016-05-04T16:14:10Z</time>
      </trkpt>
      <trkpt lat="44.12635" lon="2.2551">
        <ele>278.8</ele>
        <time>2016-05-04T16:14:11Z</time>
      </trkpt>
      <trkpt lat="44.12635" lon="2.2551">
        <ele>278.5</ele>
        <time>2016-05-04T16:14:12Z</time>
      </trkpt>
      <trkpt lat="44.12634" lon="2.2551">
        <ele>278.3</ele>
        <time>2016-05-04T16:14:13Z</time>
      </trkpt>
      <trkpt lat="44.12634" lon="2.25511">
        <ele>278.1</ele>
        <time>2016-05-04T16:14:14Z</time>
      </trkpt>
      <trkpt lat="44.12633" lon="2.25511">
        <ele>278</ele>
        <time>2016-05-04T16:14:15Z</time>
      </trkpt>
      <trkpt lat="44.12632" lon="2.25512">
        <ele>277.9</ele>
        <time>2016-05-04T16:14:16Z</time>
      </trkpt>
      <trkpt lat="44.12631" lon="2.25513">
        <ele>277.8</ele>
        <time>2016-05-04T16:14:17Z</time>
      </trkpt>
      <trkpt lat="44.12631" lon="2.25514">
        <ele>277.7</ele>
        <time>2016-05-04T16:14:18Z</time>
      </trkpt>
      <trkpt lat="44.12631" lon="2.25515">
        <ele>277.7</ele>
        <time>2016-05-04T16:14:19Z</time>
      </trkpt>
      <trkpt lat="44.12631" lon="2.25516">
        <ele>277.6</ele>
        <time>2016-05-04T16:14:20Z</time>
      </trkpt>
      <trkpt lat="44.12631" lon="2.25517">
        <ele>277.8</ele>
        <time>2016-05-04T16:14:21Z</time>
      </trkpt>
      <trkpt lat="44.12631" lon="2.25518">
        <ele>278</ele>
        <time>2016-05-04T16:14:22Z</time>
      </trkpt>
      <trkpt lat="44.12632" lon="2.2552">
        <ele>278.1</ele>
        <time>2016-05-04T16:14:23Z</time>
      </trkpt>
      <trkpt lat="44.12632" lon="2.25521">
        <ele>278.2</ele>
        <time>2016-05-04T16:14:24Z</time>
      </trkpt>
      <trkpt lat="44.12632" lon="2.25522">
        <ele>278.2</ele>
        <time>2016-05-04T16:14:25Z</time>
      </trkpt>
      <trkpt lat="44.12632" lon="2.25523">
        <ele>278.3</ele>
        <time>2016-05-04T16:14:26Z</time>
      </trkpt>
      <trkpt lat="44.12632" lon="2.25524">
        <ele>278.1</ele>
        <time>2016-05-04T16:14:27Z</time>
      </trkpt>
      <trkpt lat="44.12632" lon="2.25525">
        <ele>278</ele>
        <time>2016-05-04T16:14:28Z</time>
      </trkpt>
      <trkpt lat="44.12632" lon="2.25526">
        <ele>277.9</ele>
        <time>2016-05-04T16:14:29Z</time>
      </trkpt>
      <trkpt lat="44.12631" lon="2.25527">
        <ele>277.8</ele>
        <time>2016-05-04T16:14:30Z</time>
      </trkpt>
      <trkpt lat="44.12631" lon="2.25528">
        <ele>277.7</ele>
        <time>2016-05-04T16:14:31Z</time>
      </trkpt>
      <trkpt lat="44.1263" lon="2.2553">
        <ele>277.7</ele>
        <time>2016-05-04T16:14:32Z</time>
      </trkpt>
      <trkpt lat="44.12629" lon="2.25531">
        <ele>277.9</ele>
        <time>2016-05-04T16:14:33Z</time>
      </trkpt>
      <trkpt lat="44.12628" lon="2.25532">
        <ele>278</ele>
        <time>2016-05-04T16:14:34Z</time>
      </trkpt>
      <trkpt lat="44.12628" lon="2.25534">
        <ele>278.1</ele>
        <time>2016-05-04T16:14:35Z</time>
      </trkpt>
      <trkpt lat="44.12627" lon="2.25535">
        <ele>278.4</ele>
        <time>2016-05-04T16:14:36Z</time>
      </trkpt>
      <trkpt lat="44.12626" lon="2.25536">
        <ele>278.6</ele>
        <time>2016-05-04T16:14:37Z</time>
      </trkpt>
      <trkpt lat="44.12626" lon="2.25537">
        <ele>278.8</ele>
        <time>2016-05-04T16:14:38Z</time>
      </trkpt>
      <trkpt lat="44.12625" lon="2.25538">
        <ele>278.9</ele>
        <time>2016-05-04T16:14:39Z</time>
      </trkpt>
      <trkpt lat="44.12624" lon="2.25539">
        <ele>279</ele>
        <time>2016-05-04T16:14:40Z</time>
      </trkpt>
      <trkpt lat="44.12624" lon="2.2554">
        <ele>279</ele>
        <time>2016-05-04T16:14:41Z</time>
      </trkpt>
      <trkpt lat="44.12623" lon="2.25541">
        <ele>278.9</ele>
        <time>2016-05-04T16:14:42Z</time>
      </trkpt>
      <trkpt lat="44.12622" lon="2.25542">
        <ele>278.8</ele>
        <time>2016-05-04T16:14:43Z</time>
      </trkpt>
      <trkpt lat="44.12617" lon="2.25554">
        <ele>279.8</ele>
        <time>2016-05-04T16:14:51Z</time>
      </trkpt>
      <trkpt lat="44.12615" lon="2.25559">
        <ele>280.2</ele>
        <time>2016-05-04T16:14:54Z</time>
      </trkpt>
      <trkpt lat="44.12614" lon="2.25564">
        <ele>280.5</ele>
        <time>2016-05-04T16:14:56Z</time>
      </trkpt>
      <trkpt lat="44.12613" lon="2.25566">
        <ele>280.6</ele>
        <time>2016-05-04T16:14:57Z</time>
      </trkpt>
      <trkpt lat="44.12602" lon="2.25593">
        <ele>281.9</ele>
        <time>2016-05-04T16:15:13Z</time>
      </trkpt>
      <trkpt lat="44.12598" lon="2.25597">
        <ele>282.8</ele>
        <time>2016-05-04T16:15:17Z</time>
      </trkpt>
      <trkpt lat="44.12597" lon="2.25598">
        <ele>283</ele>
        <time>2016-05-04T16:15:18Z</time>
      </trkpt>
      <trkpt lat="44.12596" lon="2.25599">
        <ele>283.1</ele>
        <time>2016-05-04T16:15:19Z</time>
      </trkpt>
      <trkpt lat="44.12595" lon="2.256">
        <ele>283.2</ele>
        <time>2016-05-04T16:15:20Z</time>
      </trkpt>
      <trkpt lat="44.12595" lon="2.25601">
        <ele>283.1</ele>
        <time>2016-05-04T16:15:21Z</time>
      </trkpt>
      <trkpt lat="44.12594" lon="2.25603">
        <ele>283</ele>
        <time>2016-05-04T16:15:22Z</time>
      </trkpt>
      <trkpt lat="44.12593" lon="2.25604">
        <ele>282.9</ele>
        <time>2016-05-04T16:15:23Z</time>
      </trkpt>
      <trkpt lat="44.12593" lon="2.25605">
        <ele>282.6</ele>
        <time>2016-05-04T16:15:24Z</time>
      </trkpt>
      <trkpt lat="44.12593" lon="2.25607">
        <ele>282.4</ele>
        <time>2016-05-04T16:15:25Z</time>
      </trkpt>
      <trkpt lat="44.12592" lon="2.25608">
        <ele>282.3</ele>
        <time>2016-05-04T16:15:26Z</time>
      </trkpt>
      <trkpt lat="44.12592" lon="2.2561">
        <ele>281.9</ele>
        <time>2016-05-04T16:15:27Z</time>
      </trkpt>
      <trkpt lat="44.12592" lon="2.25611">
        <ele>281.7</ele>
        <time>2016-05-04T16:15:28Z</time>
      </trkpt>
      <trkpt lat="44.12592" lon="2.25613">
        <ele>281.5</ele>
        <time>2016-05-04T16:15:29Z</time>
      </trkpt>
      <trkpt lat="44.12592" lon="2.25614">
        <ele>281.6</ele>
        <time>2016-05-04T16:15:30Z</time>
      </trkpt>
      <trkpt lat="44.12592" lon="2.25615">
        <ele>281.6</ele>
        <time>2016-05-04T16:15:31Z</time>
      </trkpt>
      <trkpt lat="44.12592" lon="2.25616">
        <ele>281.7</ele>
        <time>2016-05-04T16:15:32Z</time>
      </trkpt>
      <trkpt lat="44.12592" lon="2.25616">
        <ele>281.7</ele>
        <time>2016-05-04T16:15:33Z</time>
      </trkpt>
      <trkpt lat="44.12591" lon="2.25617">
        <ele>281.7</ele>
        <time>2016-05-04T16:15:34Z</time>
      </trkpt>
      <trkpt lat="44.12591" lon="2.25617">
        <ele>281.7</ele>
        <time>2016-05-04T16:15:35Z</time>
      </trkpt>
      <trkpt lat="44.1259" lon="2.25617">
        <ele>281.5</ele>
        <time>2016-05-04T16:15:36Z</time>
      </trkpt>
      <trkpt lat="44.1259" lon="2.25618">
        <ele>281.4</ele>
        <time>2016-05-04T16:15:37Z</time>
      </trkpt>
      <trkpt lat="44.12589" lon="2.25619">
        <ele>281.3</ele>
        <time>2016-05-04T16:15:38Z</time>
      </trkpt>
      <trkpt lat="44.12588" lon="2.2562">
        <ele>281.2</ele>
        <time>2016-05-04T16:15:39Z</time>
      </trkpt>
      <trkpt lat="44.12586" lon="2.25622">
        <ele>281.1</ele>
        <time>2016-05-04T16:15:40Z</time>
      </trkpt>
      <trkpt lat="44.12585" lon="2.25624">
        <ele>281.1</ele>
        <time>2016-05-04T16:15:41Z</time>
      </trkpt>
      <trkpt lat="44.12583" lon="2.25627">
        <ele>281.1</ele>
        <time>2016-05-04T16:15:42Z</time>
      </trkpt>
      <trkpt lat="44.12581" lon="2.25629">
        <ele>281</ele>
        <time>2016-05-04T16:15:43Z</time>
      </trkpt>
      <trkpt lat="44.12579" lon="2.25631">
        <ele>281</ele>
        <time>2016-05-04T16:15:44Z</time>
      </trkpt>
      <trkpt lat="44.12577" lon="2.25633">
        <ele>281.8</ele>
        <time>2016-05-04T16:15:45Z</time>
      </trkpt>
      <trkpt lat="44.12572" lon="2.25638">
        <ele>282.4</ele>
        <time>2016-05-04T16:15:49Z</time>
      </trkpt>
      <trkpt lat="44.12572" lon="2.25639">
        <ele>282.3</ele>
        <time>2016-05-04T16:15:50Z</time>
      </trkpt>
      <trkpt lat="44.12571" lon="2.25639">
        <ele>281.9</ele>
        <time>2016-05-04T16:15:51Z</time>
      </trkpt>
      <trkpt lat="44.12571" lon="2.25639">
        <ele>281.7</ele>
        <time>2016-05-04T16:15:52Z</time>
      </trkpt>
      <trkpt lat="44.12571" lon="2.25639">
        <ele>281.5</ele>
        <time>2016-05-04T16:15:53Z</time>
      </trkpt>
      <trkpt lat="44.1257" lon="2.25639">
        <ele>281.6</ele>
        <time>2016-05-04T16:15:54Z</time>
      </trkpt>
      <trkpt lat="44.1257" lon="2.25639">
        <ele>281.6</ele>
        <time>2016-05-04T16:15:55Z</time>
      </trkpt>
      <trkpt lat="44.1257" lon="2.25639">
        <ele>281.7</ele>
        <time>2016-05-04T16:15:56Z</time>
      </trkpt>
      <trkpt lat="44.1257" lon="2.25639">
        <ele>281.9</ele>
        <time>2016-05-04T16:15:57Z</time>
      </trkpt>
      <trkpt lat="44.12569" lon="2.25639">
        <ele>282.1</ele>
        <time>2016-05-04T16:15:58Z</time>
      </trkpt>
      <trkpt lat="44.12569" lon="2.25639">
        <ele>282.2</ele>
        <time>2016-05-04T16:15:59Z</time>
      </trkpt>
      <trkpt lat="44.12569" lon="2.25638">
        <ele>282.1</ele>
        <time>2016-05-04T16:16:00Z</time>
      </trkpt>
      <trkpt lat="44.12569" lon="2.25638">
        <ele>282</ele>
        <time>2016-05-04T16:16:01Z</time>
      </trkpt>
      <trkpt lat="44.12568" lon="2.25638">
        <ele>282</ele>
        <time>2016-05-04T16:16:02Z</time>
      </trkpt>
      <trkpt lat="44.12568" lon="2.25638">
        <ele>281.9</ele>
        <time>2016-05-04T16:16:03Z</time>
      </trkpt>
      <trkpt lat="44.12568" lon="2.25638">
        <ele>281.9</ele>
        <time>2016-05-04T16:16:04Z</time>
      </trkpt>
      <trkpt lat="44.12568" lon="2.25638">
        <ele>281.9</ele>
        <time>2016-05-04T16:16:05Z</time>
      </trkpt>
      <trkpt lat="44.12568" lon="2.25638">
        <ele>282.1</ele>
        <time>2016-05-04T16:16:06Z</time>
      </trkpt>
      <trkpt lat="44.12568" lon="2.25638">
        <ele>282.2</ele>
        <time>2016-05-04T16:16:07Z</time>
      </trkpt>
      <trkpt lat="44.12567" lon="2.25638">
        <ele>282.3</ele>
        <time>2016-05-04T16:16:08Z</time>
      </trkpt>
      <trkpt lat="44.12567" lon="2.25638">
        <ele>282</ele>
        <time>2016-05-04T16:16:09Z</time>
      </trkpt>
      <trkpt lat="44.12567" lon="2.25638">
        <ele>281.7</ele>
        <time>2016-05-04T16:16:10Z</time>
      </trkpt>
      <trkpt lat="44.12567" lon="2.25638">
        <ele>281.5</ele>
        <time>2016-05-04T16:16:11Z</time>
      </trkpt>
      <trkpt lat="44.12567" lon="2.25638">
        <ele>281.8</ele>
        <time>2016-05-04T16:16:12Z</time>
      </trkpt>
      <trkpt lat="44.12567" lon="2.25638">
        <ele>282</ele>
        <time>2016-05-04T16:16:13Z</time>
      </trkpt>
      <trkpt lat="44.12567" lon="2.25638">
        <ele>282.2</ele>
        <time>2016-05-04T16:16:14Z</time>
      </trkpt>
      <trkpt lat="44.12567" lon="2.25638">
        <ele>282.3</ele>
        <time>2016-05-04T16:16:15Z</time>
      </trkpt>
      <trkpt lat="44.12567" lon="2.25638">
        <ele>282.4</ele>
        <time>2016-05-04T16:16:16Z</time>
      </trkpt>
      <trkpt lat="44.12568" lon="2.25638">
        <ele>282.5</ele>
        <time>2016-05-04T16:16:17Z</time>
      </trkpt>
      <trkpt lat="44.12568" lon="2.25639">
        <ele>282.5</ele>
        <time>2016-05-04T16:16:18Z</time>
      </trkpt>
      <trkpt lat="44.12569" lon="2.25639">
        <ele>282.5</ele>
        <time>2016-05-04T16:16:19Z</time>
      </trkpt>
      <trkpt lat="44.12569" lon="2.25639">
        <ele>282.6</ele>
        <time>2016-05-04T16:16:20Z</time>
      </trkpt>
      <trkpt lat="44.1257" lon="2.25639">
        <ele>282.4</ele>
        <time>2016-05-04T16:16:21Z</time>
      </trkpt>
      <trkpt lat="44.1257" lon="2.2564">
        <ele>282.2</ele>
        <time>2016-05-04T16:16:22Z</time>
      </trkpt>
      <trkpt lat="44.12571" lon="2.2564">
        <ele>282.1</ele>
        <time>2016-05-04T16:16:23Z</time>
      </trkpt>
      <trkpt lat="44.12571" lon="2.2564">
        <ele>282</ele>
        <time>2016-05-04T16:16:24Z</time>
      </trkpt>
      <trkpt lat="44.12572" lon="2.2564">
        <ele>282</ele>
        <time>2016-05-04T16:16:25Z</time>
      </trkpt>
      <trkpt lat="44.12572" lon="2.25641">
        <ele>281.9</ele>
        <time>2016-05-04T16:16:26Z</time>
      </trkpt>
      <trkpt lat="44.12572" lon="2.25641">
        <ele>282.1</ele>
        <time>2016-05-04T16:16:27Z</time>
      </trkpt>
      <trkpt lat="44.12573" lon="2.25641">
        <ele>282.2</ele>
        <time>2016-05-04T16:16:28Z</time>
      </trkpt>
      <trkpt lat="44.12573" lon="2.25641">
        <ele>282.3</ele>
        <time>2016-05-04T16:16:29Z</time>
      </trkpt>
      <trkpt lat="44.12573" lon="2.25641">
        <ele>282.2</ele>
        <time>2016-05-04T16:16:30Z</time>
      </trkpt>
      <trkpt lat="44.12573" lon="2.25641">
        <ele>282.1</ele>
        <time>2016-05-04T16:16:31Z</time>
      </trkpt>
      <trkpt lat="44.12573" lon="2.25641">
        <ele>282</ele>
        <time>2016-05-04T16:16:32Z</time>
      </trkpt>
      <trkpt lat="44.12573" lon="2.25641">
        <ele>282</ele>
        <time>2016-05-04T16:16:33Z</time>
      </trkpt>
      <trkpt lat="44.12573" lon="2.25642">
        <ele>281.9</ele>
        <time>2016-05-04T16:16:34Z</time>
      </trkpt>
      <trkpt lat="44.12573" lon="2.25642">
        <ele>281.9</ele>
        <time>2016-05-04T16:16:35Z</time>
      </trkpt>
      <trkpt lat="44.12573" lon="2.25642">
        <ele>281.9</ele>
        <time>2016-05-04T16:16:36Z</time>
      </trkpt>
      <trkpt lat="44.12573" lon="2.25642">
        <ele>281.9</ele>
        <time>2016-05-04T16:16:37Z</time>
      </trkpt>
      <trkpt lat="44.12573" lon="2.25642">
        <ele>281.8</ele>
        <time>2016-05-04T16:16:38Z</time>
      </trkpt>
      <trkpt lat="44.12573" lon="2.25642">
        <ele>281.6</ele>
        <time>2016-05-04T16:16:39Z</time>
      </trkpt>
      <trkpt lat="44.12572" lon="2.25642">
        <ele>281.5</ele>
        <time>2016-05-04T16:16:40Z</time>
      </trkpt>
      <trkpt lat="44.12572" lon="2.25642">
        <ele>281.3</ele>
        <time>2016-05-04T16:16:41Z</time>
      </trkpt>
      <trkpt lat="44.12572" lon="2.25642">
        <ele>281.2</ele>
        <time>2016-05-04T16:16:42Z</time>
      </trkpt>
      <trkpt lat="44.12572" lon="2.25642">
        <ele>281.2</ele>
        <time>2016-05-04T16:16:43Z</time>
      </trkpt>
      <trkpt lat="44.12572" lon="2.25642">
        <ele>281.1</ele>
        <time>2016-05-04T16:16:44Z</time>
      </trkpt>
      <trkpt lat="44.12572" lon="2.25642">
        <ele>281.3</ele>
        <time>2016-05-04T16:16:45Z</time>
      </trkpt>
      <trkpt lat="44.12572" lon="2.25641">
        <ele>281.4</ele>
        <time>2016-05-04T16:16:46Z</time>
      </trkpt>
      <trkpt lat="44.12571" lon="2.25641">
        <ele>281.5</ele>
        <time>2016-05-04T16:16:47Z</time>
      </trkpt>
      <trkpt lat="44.12571" lon="2.25641">
        <ele>281.4</ele>
        <time>2016-05-04T16:16:48Z</time>
      </trkpt>
      <trkpt lat="44.12571" lon="2.25641">
        <ele>281.3</ele>
        <time>2016-05-04T16:16:49Z</time>
      </trkpt>
      <trkpt lat="44.12571" lon="2.25641">
        <ele>281.2</ele>
        <time>2016-05-04T16:16:50Z</time>
      </trkpt>
      <trkpt lat="44.12571" lon="2.25641">
        <ele>281.3</ele>
        <time>2016-05-04T16:16:51Z</time>
      </trkpt>
      <trkpt lat="44.1257" lon="2.2564">
        <ele>281.5</ele>
        <time>2016-05-04T16:16:52Z</time>
      </trkpt>
      <trkpt lat="44.1257" lon="2.2564">
        <ele>281.5</ele>
        <time>2016-05-04T16:16:53Z</time>
      </trkpt>
      <trkpt lat="44.12569" lon="2.25639">
        <ele>281.6</ele>
        <time>2016-05-04T16:16:54Z</time>
      </trkpt>
      <trkpt lat="44.12569" lon="2.25639">
        <ele>281.7</ele>
        <time>2016-05-04T16:16:55Z</time>
      </trkpt>
      <trkpt lat="44.12568" lon="2.25638">
        <ele>281.7</ele>
        <time>2016-05-04T16:16:56Z</time>
      </trkpt>
      <trkpt lat="44.12568" lon="2.25638">
        <ele>281.9</ele>
        <time>2016-05-04T16:16:57Z</time>
      </trkpt>
      <trkpt lat="44.12567" lon="2.25637">
        <ele>282.1</ele>
        <time>2016-05-04T16:16:58Z</time>
      </trkpt>
      <trkpt lat="44.12566" lon="2.25637">
        <ele>282.2</ele>
        <time>2016-05-04T16:16:59Z</time>
      </trkpt>
      <trkpt lat="44.12566" lon="2.25637">
        <ele>282.1</ele>
        <time>2016-05-04T16:17:00Z</time>
      </trkpt>
      <trkpt lat="44.12565" lon="2.25636">
        <ele>282</ele>
        <time>2016-05-04T16:17:01Z</time>
      </trkpt>
      <trkpt lat="44.12565" lon="2.25636">
        <ele>282</ele>
        <time>2016-05-04T16:17:02Z</time>
      </trkpt>
      <trkpt lat="44.12564" lon="2.25636">
        <ele>281.9</ele>
        <time>2016-05-04T16:17:03Z</time>
      </trkpt>
      <trkpt lat="44.12564" lon="2.25636">
        <ele>281.9</ele>
        <time>2016-05-04T16:17:04Z</time>
      </trkpt>
      <trkpt lat="44.12563" lon="2.25635">
        <ele>281.9</ele>
        <time>2016-05-04T16:17:05Z</time>
      </trkpt>
      <trkpt lat="44.12562" lon="2.25636">
        <ele>281.9</ele>
        <time>2016-05-04T16:17:06Z</time>
      </trkpt>
      <trkpt lat="44.12562" lon="2.25636">
        <ele>281.8</ele>
        <time>2016-05-04T16:17:07Z</time>
      </trkpt>
      <trkpt lat="44.12561" lon="2.25637">
        <ele>281.8</ele>
        <time>2016-05-04T16:17:08Z</time>
      </trkpt>
      <trkpt lat="44.12561" lon="2.25638">
        <ele>282</ele>
        <time>2016-05-04T16:17:09Z</time>
      </trkpt>
      <trkpt lat="44.12561" lon="2.25639">
        <ele>282.2</ele>
        <time>2016-05-04T16:17:10Z</time>
      </trkpt>
      <trkpt lat="44.12561" lon="2.2564">
        <ele>282.3</ele>
        <time>2016-05-04T16:17:11Z</time>
      </trkpt>
      <trkpt lat="44.12561" lon="2.25641">
        <ele>282.6</ele>
        <time>2016-05-04T16:17:12Z</time>
      </trkpt>
      <trkpt lat="44.12561" lon="2.25641">
        <ele>282.8</ele>
        <time>2016-05-04T16:17:13Z</time>
      </trkpt>
      <trkpt lat="44.12561" lon="2.25641">
        <ele>283</ele>
        <time>2016-05-04T16:17:14Z</time>
      </trkpt>
      <trkpt lat="44.12561" lon="2.25642">
        <ele>282.7</ele>
        <time>2016-05-04T16:17:15Z</time>
      </trkpt>
      <trkpt lat="44.12562" lon="2.25642">
        <ele>282.5</ele>
        <time>2016-05-04T16:17:16Z</time>
      </trkpt>
      <trkpt lat="44.12562" lon="2.25643">
        <ele>282.3</ele>
        <time>2016-05-04T16:17:17Z</time>
      </trkpt>
      <trkpt lat="44.12562" lon="2.25644">
        <ele>282.4</ele>
        <time>2016-05-04T16:17:18Z</time>
      </trkpt>
      <trkpt lat="44.12562" lon="2.25644">
        <ele>282.5</ele>
        <time>2016-05-04T16:17:19Z</time>
      </trkpt>
      <trkpt lat="44.12563" lon="2.25644">
        <ele>282.5</ele>
        <time>2016-05-04T16:17:20Z</time>
      </trkpt>
      <trkpt lat="44.12563" lon="2.25644">
        <ele>282.5</ele>
        <time>2016-05-04T16:17:21Z</time>
      </trkpt>
      <trkpt lat="44.12563" lon="2.25644">
        <ele>282.6</ele>
        <time>2016-05-04T16:17:22Z</time>
      </trkpt>
      <trkpt lat="44.12564" lon="2.25644">
        <ele>282.6</ele>
        <time>2016-05-04T16:17:23Z</time>
      </trkpt>
      <trkpt lat="44.12564" lon="2.25644">
        <ele>282.6</ele>
        <time>2016-05-04T16:17:24Z</time>
      </trkpt>
      <trkpt lat="44.12564" lon="2.25644">
        <ele>282.6</ele>
        <time>2016-05-04T16:17:25Z</time>
      </trkpt>
      <trkpt lat="44.12564" lon="2.25642">
        <ele>282.3</ele>
        <time>2016-05-04T16:17:30Z</time>
      </trkpt>
      <trkpt lat="44.12564" lon="2.25642">
        <ele>282.4</ele>
        <time>2016-05-04T16:17:31Z</time>
      </trkpt>
      <trkpt lat="44.12564" lon="2.25642">
        <ele>282.4</ele>
        <time>2016-05-04T16:17:32Z</time>
      </trkpt>
      <trkpt lat="44.12562" lon="2.25644">
        <ele>282.1</ele>
        <time>2016-05-04T16:17:35Z</time>
      </trkpt>
      <trkpt lat="44.12561" lon="2.25649">
        <ele>281.6</ele>
        <time>2016-05-04T16:17:37Z</time>
      </trkpt>
      <trkpt lat="44.12562" lon="2.2567">
        <ele>280.3</ele>
        <time>2016-05-04T16:17:51Z</time>
      </trkpt>
      <trkpt lat="44.12563" lon="2.25671">
        <ele>280.3</ele>
        <time>2016-05-04T16:17:52Z</time>
      </trkpt>
      <trkpt lat="44.12563" lon="2.25672">
        <ele>280.2</ele>
        <time>2016-05-04T16:17:53Z</time>
      </trkpt>
      <trkpt lat="44.12563" lon="2.25674">
        <ele>280.2</ele>
        <time>2016-05-04T16:17:54Z</time>
      </trkpt>
      <trkpt lat="44.12564" lon="2.25679">
        <ele>280.1</ele>
        <time>2016-05-04T16:17:58Z</time>
      </trkpt>
      <trkpt lat="44.12564" lon="2.2568">
        <ele>280.1</ele>
        <time>2016-05-04T16:17:59Z</time>
      </trkpt>
      <trkpt lat="44.12564" lon="2.25681">
        <ele>279.9</ele>
        <time>2016-05-04T16:18:00Z</time>
      </trkpt>
      <trkpt lat="44.12564" lon="2.25682">
        <ele>279.7</ele>
        <time>2016-05-04T16:18:01Z</time>
      </trkpt>
      <trkpt lat="44.12564" lon="2.25683">
        <ele>279.6</ele>
        <time>2016-05-04T16:18:02Z</time>
      </trkpt>
      <trkpt lat="44.12564" lon="2.25685">
        <ele>279.7</ele>
        <time>2016-05-04T16:18:03Z</time>
      </trkpt>
      <trkpt lat="44.1255" lon="2.25759">
        <ele>278.6</ele>
        <time>2016-05-04T16:18:42Z</time>
      </trkpt>
      <trkpt lat="44.12549" lon="2.2576">
        <ele>278.7</ele>
        <time>2016-05-04T16:18:43Z</time>
      </trkpt>
      <trkpt lat="44.12547" lon="2.25771">
        <ele>277.9</ele>
        <time>2016-05-04T16:18:49Z</time>
      </trkpt>
      <trkpt lat="44.12546" lon="2.25775">
        <ele>277.3</ele>
        <time>2016-05-04T16:18:52Z</time>
      </trkpt>
      <trkpt lat="44.12545" lon="2.25775">
        <ele>277.2</ele>
        <time>2016-05-04T16:18:53Z</time>
      </trkpt>
      <trkpt lat="44.12545" lon="2.25775">
        <ele>277.5</ele>
        <time>2016-05-04T16:18:54Z</time>
      </trkpt>
      <trkpt lat="44.12544" lon="2.25776">
        <ele>277.7</ele>
        <time>2016-05-04T16:18:55Z</time>
      </trkpt>
      <trkpt lat="44.12544" lon="2.25777">
        <ele>277.9</ele>
        <time>2016-05-04T16:18:56Z</time>
      </trkpt>
      <trkpt lat="44.12543" lon="2.25778">
        <ele>278</ele>
        <time>2016-05-04T16:18:57Z</time>
      </trkpt>
      <trkpt lat="44.12543" lon="2.25779">
        <ele>278.1</ele>
        <time>2016-05-04T16:18:58Z</time>
      </trkpt>
      <trkpt lat="44.12542" lon="2.25781">
        <ele>278.2</ele>
        <time>2016-05-04T16:18:59Z</time>
      </trkpt>
      <trkpt lat="44.12541" lon="2.25783">
        <ele>278.4</ele>
        <time>2016-05-04T16:19:00Z</time>
      </trkpt>
      <trkpt lat="44.1254" lon="2.25784">
        <ele>278.6</ele>
        <time>2016-05-04T16:19:01Z</time>
      </trkpt>
      <trkpt lat="44.12539" lon="2.25784">
        <ele>278.8</ele>
        <time>2016-05-04T16:19:02Z</time>
      </trkpt>
      <trkpt lat="44.12539" lon="2.25785">
        <ele>278.7</ele>
        <time>2016-05-04T16:19:03Z</time>
      </trkpt>
      <trkpt lat="44.12538" lon="2.25785">
        <ele>278.6</ele>
        <time>2016-05-04T16:19:04Z</time>
      </trkpt>
      <trkpt lat="44.12538" lon="2.25785">
        <ele>278.6</ele>
        <time>2016-05-04T16:19:05Z</time>
      </trkpt>
      <trkpt lat="44.12537" lon="2.25785">
        <ele>278.3</ele>
        <time>2016-05-04T16:19:06Z</time>
      </trkpt>
      <trkpt lat="44.12537" lon="2.25786">
        <ele>278.1</ele>
        <time>2016-05-04T16:19:07Z</time>
      </trkpt>
      <trkpt lat="44.12537" lon="2.25786">
        <ele>278</ele>
        <time>2016-05-04T16:19:08Z</time>
      </trkpt>
      <trkpt lat="44.12536" lon="2.25786">
        <ele>278.1</ele>
        <time>2016-05-04T16:19:09Z</time>
      </trkpt>
      <trkpt lat="44.12536" lon="2.25787">
        <ele>278.2</ele>
        <time>2016-05-04T16:19:10Z</time>
      </trkpt>
      <trkpt lat="44.12536" lon="2.25787">
        <ele>278.2</ele>
        <time>2016-05-04T16:19:11Z</time>
      </trkpt>
      <trkpt lat="44.12536" lon="2.25787">
        <ele>278.3</ele>
        <time>2016-05-04T16:19:12Z</time>
      </trkpt>
      <trkpt lat="44.12536" lon="2.25787">
        <ele>278.3</ele>
        <time>2016-05-04T16:19:13Z</time>
      </trkpt>
      <trkpt lat="44.12536" lon="2.25788">
        <ele>278.3</ele>
        <time>2016-05-04T16:19:14Z</time>
      </trkpt>
      <trkpt lat="44.12536" lon="2.25788">
        <ele>278.1</ele>
        <time>2016-05-04T16:19:15Z</time>
      </trkpt>
      <trkpt lat="44.12536" lon="2.25788">
        <ele>278</ele>
        <time>2016-05-04T16:19:16Z</time>
      </trkpt>
      <trkpt lat="44.12536" lon="2.25788">
        <ele>277.9</ele>
        <time>2016-05-04T16:19:17Z</time>
      </trkpt>
      <trkpt lat="44.12536" lon="2.25788">
        <ele>278.2</ele>
        <time>2016-05-04T16:19:18Z</time>
      </trkpt>
      <trkpt lat="44.12536" lon="2.25788">
        <ele>278.5</ele>
        <time>2016-05-04T16:19:19Z</time>
      </trkpt>
      <trkpt lat="44.12536" lon="2.25788">
        <ele>278.7</ele>
        <time>2016-05-04T16:19:20Z</time>
      </trkpt>
      <trkpt lat="44.12536" lon="2.25788">
        <ele>278.6</ele>
        <time>2016-05-04T16:19:21Z</time>
      </trkpt>
      <trkpt lat="44.12536" lon="2.25788">
        <ele>278.6</ele>
        <time>2016-05-04T16:19:22Z</time>
      </trkpt>
      <trkpt lat="44.12537" lon="2.25788">
        <ele>278.5</ele>
        <time>2016-05-04T16:19:23Z</time>
      </trkpt>
      <trkpt lat="44.12539" lon="2.25787">
        <ele>279.1</ele>
        <time>2016-05-04T16:19:29Z</time>
      </trkpt>
      <trkpt lat="44.12539" lon="2.25787">
        <ele>279.2</ele>
        <time>2016-05-04T16:19:31Z</time>
      </trkpt>
      <trkpt lat="44.1254" lon="2.25787">
        <ele>279.2</ele>
        <time>2016-05-04T16:19:32Z</time>
      </trkpt>
      <trkpt lat="44.1254" lon="2.25786">
        <ele>279.2</ele>
        <time>2016-05-04T16:19:33Z</time>
      </trkpt>
      <trkpt lat="44.1254" lon="2.25786">
        <ele>279.2</ele>
        <time>2016-05-04T16:19:34Z</time>
      </trkpt>
      <trkpt lat="44.12541" lon="2.25785">
        <ele>279.2</ele>
        <time>2016-05-04T16:19:35Z</time>
      </trkpt>
      <trkpt lat="44.12541" lon="2.25785">
        <ele>279</ele>
        <time>2016-05-04T16:19:36Z</time>
      </trkpt>
      <trkpt lat="44.12541" lon="2.25785">
        <ele>278.9</ele>
        <time>2016-05-04T16:19:37Z</time>
      </trkpt>
      <trkpt lat="44.12542" lon="2.25785">
        <ele>278.7</ele>
        <time>2016-05-04T16:19:38Z</time>
      </trkpt>
      <trkpt lat="44.12542" lon="2.25785">
        <ele>278.9</ele>
        <time>2016-05-04T16:19:39Z</time>
      </trkpt>
      <trkpt lat="44.12542" lon="2.25785">
        <ele>279</ele>
        <time>2016-05-04T16:19:40Z</time>
      </trkpt>
      <trkpt lat="44.12541" lon="2.25785">
        <ele>278.7</ele>
        <time>2016-05-04T16:19:42Z</time>
      </trkpt>
      <trkpt lat="44.12541" lon="2.25785">
        <ele>278.4</ele>
        <time>2016-05-04T16:19:43Z</time>
      </trkpt>
      <trkpt lat="44.12541" lon="2.25785">
        <ele>278.2</ele>
        <time>2016-05-04T16:19:44Z</time>
      </trkpt>
      <trkpt lat="44.12541" lon="2.25786">
        <ele>278</ele>
        <time>2016-05-04T16:19:45Z</time>
      </trkpt>
      <trkpt lat="44.12541" lon="2.25786">
        <ele>277.9</ele>
        <time>2016-05-04T16:19:46Z</time>
      </trkpt>
      <trkpt lat="44.1254" lon="2.25786">
        <ele>277.8</ele>
        <time>2016-05-04T16:19:47Z</time>
      </trkpt>
      <trkpt lat="44.1254" lon="2.25786">
        <ele>278.2</ele>
        <time>2016-05-04T16:19:48Z</time>
      </trkpt>
      <trkpt lat="44.1254" lon="2.25786">
        <ele>278.4</ele>
        <time>2016-05-04T16:19:49Z</time>
      </trkpt>
      <trkpt lat="44.1254" lon="2.25786">
        <ele>278.6</ele>
        <time>2016-05-04T16:19:50Z</time>
      </trkpt>
      <trkpt lat="44.1254" lon="2.25787">
        <ele>278.4</ele>
        <time>2016-05-04T16:19:51Z</time>
      </trkpt>
      <trkpt lat="44.12541" lon="2.25788">
        <ele>278.2</ele>
        <time>2016-05-04T16:19:52Z</time>
      </trkpt>
      <trkpt lat="44.12541" lon="2.25789">
        <ele>278</ele>
        <time>2016-05-04T16:19:53Z</time>
      </trkpt>
      <trkpt lat="44.12541" lon="2.2579">
        <ele>278.1</ele>
        <time>2016-05-04T16:19:54Z</time>
      </trkpt>
      <trkpt lat="44.12542" lon="2.25791">
        <ele>278.2</ele>
        <time>2016-05-04T16:19:55Z</time>
      </trkpt>
      <trkpt lat="44.12541" lon="2.25793">
        <ele>278.2</ele>
        <time>2016-05-04T16:19:56Z</time>
      </trkpt>
      <trkpt lat="44.12541" lon="2.25794">
        <ele>278.1</ele>
        <time>2016-05-04T16:19:57Z</time>
      </trkpt>
      <trkpt lat="44.12541" lon="2.25796">
        <ele>277.9</ele>
        <time>2016-05-04T16:19:58Z</time>
      </trkpt>
      <trkpt lat="44.12541" lon="2.25797">
        <ele>277.8</ele>
        <time>2016-05-04T16:19:59Z</time>
      </trkpt>
      <trkpt lat="44.1254" lon="2.25798">
        <ele>277.8</ele>
        <time>2016-05-04T16:20:00Z</time>
      </trkpt>
      <trkpt lat="44.1254" lon="2.258">
        <ele>277.7</ele>
        <time>2016-05-04T16:20:01Z</time>
      </trkpt>
      <trkpt lat="44.1254" lon="2.25801">
        <ele>277.7</ele>
        <time>2016-05-04T16:20:02Z</time>
      </trkpt>
      <trkpt lat="44.12541" lon="2.25804">
        <ele>277.6</ele>
        <time>2016-05-04T16:20:04Z</time>
      </trkpt>
      <trkpt lat="44.12541" lon="2.25805">
        <ele>277.6</ele>
        <time>2016-05-04T16:20:05Z</time>
      </trkpt>
      <trkpt lat="44.12542" lon="2.25808">
        <ele>277.6</ele>
        <time>2016-05-04T16:20:08Z</time>
      </trkpt>
      <trkpt lat="44.12542" lon="2.25811">
        <ele>277.6</ele>
        <time>2016-05-04T16:20:10Z</time>
      </trkpt>
      <trkpt lat="44.12542" lon="2.25817">
        <ele>277.6</ele>
        <time>2016-05-04T16:20:15Z</time>
      </trkpt>
      <trkpt lat="44.12542" lon="2.25823">
        <ele>277.6</ele>
        <time>2016-05-04T16:20:20Z</time>
      </trkpt>
      <trkpt lat="44.12541" lon="2.25824">
        <ele>277.5</ele>
        <time>2016-05-04T16:20:21Z</time>
      </trkpt>
      <trkpt lat="44.12541" lon="2.25826">
        <ele>277.5</ele>
        <time>2016-05-04T16:20:22Z</time>
      </trkpt>
      <trkpt lat="44.12541" lon="2.25828">
        <ele>277.5</ele>
        <time>2016-05-04T16:20:23Z</time>
      </trkpt>
      <trkpt lat="44.12542" lon="2.2583">
        <ele>277.3</ele>
        <time>2016-05-04T16:20:24Z</time>
      </trkpt>
      <trkpt lat="44.12542" lon="2.25833">
        <ele>277.2</ele>
        <time>2016-05-04T16:20:25Z</time>
      </trkpt>
      <trkpt lat="44.12543" lon="2.25835">
        <ele>277.1</ele>
        <time>2016-05-04T16:20:26Z</time>
      </trkpt>
      <trkpt lat="44.12543" lon="2.25838">
        <ele>277.2</ele>
        <time>2016-05-04T16:20:27Z</time>
      </trkpt>
      <trkpt lat="44.12544" lon="2.2584">
        <ele>277.3</ele>
        <time>2016-05-04T16:20:28Z</time>
      </trkpt>
      <trkpt lat="44.12544" lon="2.25842">
        <ele>277.3</ele>
        <time>2016-05-04T16:20:29Z</time>
      </trkpt>
      <trkpt lat="44.12545" lon="2.25844">
        <ele>277.4</ele>
        <time>2016-05-04T16:20:30Z</time>
      </trkpt>
      <trkpt lat="44.12545" lon="2.25846">
        <ele>277.4</ele>
        <time>2016-05-04T16:20:31Z</time>
      </trkpt>
      <trkpt lat="44.12546" lon="2.25849">
        <ele>277.5</ele>
        <time>2016-05-04T16:20:32Z</time>
      </trkpt>
      <trkpt lat="44.12546" lon="2.25851">
        <ele>277.3</ele>
        <time>2016-05-04T16:20:33Z</time>
      </trkpt>
      <trkpt lat="44.12547" lon="2.25853">
        <ele>277.1</ele>
        <time>2016-05-04T16:20:34Z</time>
      </trkpt>
      <trkpt lat="44.12548" lon="2.25855">
        <ele>277</ele>
        <time>2016-05-04T16:20:35Z</time>
      </trkpt>
      <trkpt lat="44.12548" lon="2.25857">
        <ele>276.7</ele>
        <time>2016-05-04T16:20:36Z</time>
      </trkpt>
      <trkpt lat="44.12549" lon="2.25859">
        <ele>276.5</ele>
        <time>2016-05-04T16:20:37Z</time>
      </trkpt>
      <trkpt lat="44.12549" lon="2.25861">
        <ele>276.3</ele>
        <time>2016-05-04T16:20:38Z</time>
      </trkpt>
      <trkpt lat="44.1255" lon="2.25863">
        <ele>276.4</ele>
        <time>2016-05-04T16:20:39Z</time>
      </trkpt>
      <trkpt lat="44.1255" lon="2.25864">
        <ele>276.5</ele>
        <time>2016-05-04T16:20:40Z</time>
      </trkpt>
      <trkpt lat="44.12551" lon="2.25866">
        <ele>276.5</ele>
        <time>2016-05-04T16:20:41Z</time>
      </trkpt>
      <trkpt lat="44.12551" lon="2.25868">
        <ele>276.4</ele>
        <time>2016-05-04T16:20:42Z</time>
      </trkpt>
      <trkpt lat="44.12552" lon="2.2587">
        <ele>276.2</ele>
        <time>2016-05-04T16:20:43Z</time>
      </trkpt>
      <trkpt lat="44.12554" lon="2.25872">
        <ele>276.1</ele>
        <time>2016-05-04T16:20:44Z</time>
      </trkpt>
      <trkpt lat="44.12555" lon="2.25874">
        <ele>276.1</ele>
        <time>2016-05-04T16:20:45Z</time>
      </trkpt>
      <trkpt lat="44.12556" lon="2.25875">
        <ele>276</ele>
        <time>2016-05-04T16:20:46Z</time>
      </trkpt>
      <trkpt lat="44.12557" lon="2.25877">
        <ele>276</ele>
        <time>2016-05-04T16:20:47Z</time>
      </trkpt>
      <trkpt lat="44.12557" lon="2.25879">
        <ele>275.9</ele>
        <time>2016-05-04T16:20:48Z</time>
      </trkpt>
      <trkpt lat="44.1256" lon="2.25888">
        <ele>275.7</ele>
        <time>2016-05-04T16:20:55Z</time>
      </trkpt>
      <trkpt lat="44.12559" lon="2.25889">
        <ele>275.9</ele>
        <time>2016-05-04T16:20:56Z</time>
      </trkpt>
      <trkpt lat="44.12559" lon="2.25891">
        <ele>275.9</ele>
        <time>2016-05-04T16:20:57Z</time>
      </trkpt>
      <trkpt lat="44.12557" lon="2.25893">
        <ele>275.9</ele>
        <time>2016-05-04T16:20:58Z</time>
      </trkpt>
      <trkpt lat="44.12555" lon="2.25896">
        <ele>275.9</ele>
        <time>2016-05-04T16:20:59Z</time>
      </trkpt>
      <trkpt lat="44.12553" lon="2.25899">
        <ele>275.7</ele>
        <time>2016-05-04T16:21:00Z</time>
      </trkpt>
      <trkpt lat="44.1255" lon="2.25904">
        <ele>275.4</ele>
        <time>2016-05-04T16:21:02Z</time>
      </trkpt>
      <trkpt lat="44.12549" lon="2.25905">
        <ele>275.5</ele>
        <time>2016-05-04T16:21:03Z</time>
      </trkpt>
      <trkpt lat="44.12548" lon="2.25907">
        <ele>275.6</ele>
        <time>2016-05-04T16:21:04Z</time>
      </trkpt>
      <trkpt lat="44.12548" lon="2.25908">
        <ele>275.6</ele>
        <time>2016-05-04T16:21:05Z</time>
      </trkpt>
      <trkpt lat="44.12548" lon="2.25911">
        <ele>275.4</ele>
        <time>2016-05-04T16:21:07Z</time>
      </trkpt>
      <trkpt lat="44.12549" lon="2.25918">
        <ele>275.5</ele>
        <time>2016-05-04T16:21:12Z</time>
      </trkpt>
      <trkpt lat="44.12549" lon="2.25919">
        <ele>275.3</ele>
        <time>2016-05-04T16:21:13Z</time>
      </trkpt>
      <trkpt lat="44.12549" lon="2.2592">
        <ele>275.3</ele>
        <time>2016-05-04T16:21:14Z</time>
      </trkpt>
      <trkpt lat="44.1255" lon="2.25922">
        <ele>275.4</ele>
        <time>2016-05-04T16:21:15Z</time>
      </trkpt>
      <trkpt lat="44.1255" lon="2.25923">
        <ele>275.5</ele>
        <time>2016-05-04T16:21:16Z</time>
      </trkpt>
      <trkpt lat="44.12551" lon="2.25924">
        <ele>275.6</ele>
        <time>2016-05-04T16:21:17Z</time>
      </trkpt>
      <trkpt lat="44.12551" lon="2.25925">
        <ele>275.4</ele>
        <time>2016-05-04T16:21:18Z</time>
      </trkpt>
      <trkpt lat="44.12552" lon="2.25926">
        <ele>275.3</ele>
        <time>2016-05-04T16:21:19Z</time>
      </trkpt>
      <trkpt lat="44.12553" lon="2.25927">
        <ele>275.3</ele>
        <time>2016-05-04T16:21:20Z</time>
      </trkpt>
      <trkpt lat="44.12553" lon="2.25928">
        <ele>275.2</ele>
        <time>2016-05-04T16:21:21Z</time>
      </trkpt>
      <trkpt lat="44.12554" lon="2.2593">
        <ele>275.1</ele>
        <time>2016-05-04T16:21:22Z</time>
      </trkpt>
      <trkpt lat="44.12555" lon="2.25931">
        <ele>275.1</ele>
        <time>2016-05-04T16:21:23Z</time>
      </trkpt>
      <trkpt lat="44.12556" lon="2.25932">
        <ele>275.3</ele>
        <time>2016-05-04T16:21:24Z</time>
      </trkpt>
      <trkpt lat="44.12556" lon="2.25933">
        <ele>275.4</ele>
        <time>2016-05-04T16:21:25Z</time>
      </trkpt>
      <trkpt lat="44.12557" lon="2.25934">
        <ele>275.5</ele>
        <time>2016-05-04T16:21:26Z</time>
      </trkpt>
      <trkpt lat="44.12558" lon="2.25936">
        <ele>275.6</ele>
        <time>2016-05-04T16:21:27Z</time>
      </trkpt>
      <trkpt lat="44.12559" lon="2.25937">
        <ele>275.7</ele>
        <time>2016-05-04T16:21:28Z</time>
      </trkpt>
      <trkpt lat="44.12559" lon="2.25938">
        <ele>275.7</ele>
        <time>2016-05-04T16:21:29Z</time>
      </trkpt>
      <trkpt lat="44.1256" lon="2.25939">
        <ele>275.5</ele>
        <time>2016-05-04T16:21:30Z</time>
      </trkpt>
      <trkpt lat="44.1256" lon="2.25941">
        <ele>275.4</ele>
        <time>2016-05-04T16:21:31Z</time>
      </trkpt>
      <trkpt lat="44.12561" lon="2.25942">
        <ele>275.3</ele>
        <time>2016-05-04T16:21:32Z</time>
      </trkpt>
      <trkpt lat="44.12562" lon="2.25943">
        <ele>275.2</ele>
        <time>2016-05-04T16:21:33Z</time>
      </trkpt>
      <trkpt lat="44.12562" lon="2.25944">
        <ele>275.2</ele>
        <time>2016-05-04T16:21:34Z</time>
      </trkpt>
      <trkpt lat="44.12562" lon="2.25945">
        <ele>275.1</ele>
        <time>2016-05-04T16:21:35Z</time>
      </trkpt>
      <trkpt lat="44.12563" lon="2.25946">
        <ele>275.5</ele>
        <time>2016-05-04T16:21:36Z</time>
      </trkpt>
      <trkpt lat="44.12563" lon="2.25949">
        <ele>276</ele>
        <time>2016-05-04T16:21:38Z</time>
      </trkpt>
      <trkpt lat="44.12563" lon="2.2595">
        <ele>276.2</ele>
        <time>2016-05-04T16:21:39Z</time>
      </trkpt>
      <trkpt lat="44.12563" lon="2.25952">
        <ele>276.3</ele>
        <time>2016-05-04T16:21:40Z</time>
      </trkpt>
      <trkpt lat="44.12562" lon="2.2596">
        <ele>275.1</ele>
        <time>2016-05-04T16:21:44Z</time>
      </trkpt>
      <trkpt lat="44.12562" lon="2.25966">
        <ele>275</ele>
        <time>2016-05-04T16:21:47Z</time>
      </trkpt>
      <trkpt lat="44.12563" lon="2.25968">
        <ele>275.5</ele>
        <time>2016-05-04T16:21:48Z</time>
      </trkpt>
      <trkpt lat="44.12563" lon="2.25969">
        <ele>275.8</ele>
        <time>2016-05-04T16:21:49Z</time>
      </trkpt>
      <trkpt lat="44.12563" lon="2.25971">
        <ele>276</ele>
        <time>2016-05-04T16:21:50Z</time>
      </trkpt>
      <trkpt lat="44.12564" lon="2.25972">
        <ele>276.2</ele>
        <time>2016-05-04T16:21:51Z</time>
      </trkpt>
      <trkpt lat="44.12566" lon="2.25978">
        <ele>276.3</ele>
        <time>2016-05-04T16:21:54Z</time>
      </trkpt>
      <trkpt lat="44.12572" lon="2.25995">
        <ele>276.2</ele>
        <time>2016-05-04T16:22:06Z</time>
      </trkpt>
      <trkpt lat="44.12573" lon="2.25996">
        <ele>276.1</ele>
        <time>2016-05-04T16:22:07Z</time>
      </trkpt>
      <trkpt lat="44.12575" lon="2.26">
        <ele>276.2</ele>
        <time>2016-05-04T16:22:09Z</time>
      </trkpt>
      <trkpt lat="44.12576" lon="2.26002">
        <ele>276.3</ele>
        <time>2016-05-04T16:22:10Z</time>
      </trkpt>
      <trkpt lat="44.12577" lon="2.26004">
        <ele>276.4</ele>
        <time>2016-05-04T16:22:11Z</time>
      </trkpt>
      <trkpt lat="44.12579" lon="2.26006">
        <ele>276.1</ele>
        <time>2016-05-04T16:22:12Z</time>
      </trkpt>
      <trkpt lat="44.1258" lon="2.26008">
        <ele>275.8</ele>
        <time>2016-05-04T16:22:13Z</time>
      </trkpt>
      <trkpt lat="44.12586" lon="2.26021">
        <ele>275.7</ele>
        <time>2016-05-04T16:22:22Z</time>
      </trkpt>
      <trkpt lat="44.12587" lon="2.26023">
        <ele>275.7</ele>
        <time>2016-05-04T16:22:23Z</time>
      </trkpt>
      <trkpt lat="44.12589" lon="2.26027">
        <ele>275.8</ele>
        <time>2016-05-04T16:22:26Z</time>
      </trkpt>
      <trkpt lat="44.12591" lon="2.26034">
        <ele>275.5</ele>
        <time>2016-05-04T16:22:31Z</time>
      </trkpt>
      <trkpt lat="44.12591" lon="2.26035">
        <ele>275.4</ele>
        <time>2016-05-04T16:22:32Z</time>
      </trkpt>
      <trkpt lat="44.12592" lon="2.26037">
        <ele>275.2</ele>
        <time>2016-05-04T16:22:34Z</time>
      </trkpt>
      <trkpt lat="44.12592" lon="2.2604">
        <ele>275.1</ele>
        <time>2016-05-04T16:22:37Z</time>
      </trkpt>
      <trkpt lat="44.12593" lon="2.26041">
        <ele>275.1</ele>
        <time>2016-05-04T16:22:38Z</time>
      </trkpt>
      <trkpt lat="44.12592" lon="2.26041">
        <ele>275.3</ele>
        <time>2016-05-04T16:22:39Z</time>
      </trkpt>
      <trkpt lat="44.12592" lon="2.26042">
        <ele>275.4</ele>
        <time>2016-05-04T16:22:40Z</time>
      </trkpt>
      <trkpt lat="44.12592" lon="2.26042">
        <ele>275.5</ele>
        <time>2016-05-04T16:22:41Z</time>
      </trkpt>
      <trkpt lat="44.12592" lon="2.26043">
        <ele>275.6</ele>
        <time>2016-05-04T16:22:42Z</time>
      </trkpt>
      <trkpt lat="44.12592" lon="2.26044">
        <ele>275.7</ele>
        <time>2016-05-04T16:22:43Z</time>
      </trkpt>
      <trkpt lat="44.12592" lon="2.26045">
        <ele>275.7</ele>
        <time>2016-05-04T16:22:44Z</time>
      </trkpt>
      <trkpt lat="44.12591" lon="2.26046">
        <ele>276</ele>
        <time>2016-05-04T16:22:45Z</time>
      </trkpt>
      <trkpt lat="44.12591" lon="2.26048">
        <ele>276.1</ele>
        <time>2016-05-04T16:22:46Z</time>
      </trkpt>
      <trkpt lat="44.12591" lon="2.26049">
        <ele>276.3</ele>
        <time>2016-05-04T16:22:47Z</time>
      </trkpt>
      <trkpt lat="44.12591" lon="2.26051">
        <ele>276.4</ele>
        <time>2016-05-04T16:22:48Z</time>
      </trkpt>
      <trkpt lat="44.12591" lon="2.26052">
        <ele>276.5</ele>
        <time>2016-05-04T16:22:49Z</time>
      </trkpt>
      <trkpt lat="44.1259" lon="2.26054">
        <ele>276.5</ele>
        <time>2016-05-04T16:22:50Z</time>
      </trkpt>
      <trkpt lat="44.1259" lon="2.26056">
        <ele>276.4</ele>
        <time>2016-05-04T16:22:51Z</time>
      </trkpt>
      <trkpt lat="44.1259" lon="2.26058">
        <ele>276.2</ele>
        <time>2016-05-04T16:22:52Z</time>
      </trkpt>
      <trkpt lat="44.1259" lon="2.26059">
        <ele>276.1</ele>
        <time>2016-05-04T16:22:53Z</time>
      </trkpt>
      <trkpt lat="44.12591" lon="2.26061">
        <ele>276.3</ele>
        <time>2016-05-04T16:22:54Z</time>
      </trkpt>
      <trkpt lat="44.12591" lon="2.26063">
        <ele>276.4</ele>
        <time>2016-05-04T16:22:55Z</time>
      </trkpt>
      <trkpt lat="44.12591" lon="2.26065">
        <ele>276.5</ele>
        <time>2016-05-04T16:22:56Z</time>
      </trkpt>
      <trkpt lat="44.12592" lon="2.26067">
        <ele>276.1</ele>
        <time>2016-05-04T16:22:57Z</time>
      </trkpt>
      <trkpt lat="44.12592" lon="2.26069">
        <ele>275.8</ele>
        <time>2016-05-04T16:22:58Z</time>
      </trkpt>
      <trkpt lat="44.12593" lon="2.26071">
        <ele>275.6</ele>
        <time>2016-05-04T16:22:59Z</time>
      </trkpt>
      <trkpt lat="44.12593" lon="2.26074">
        <ele>275.9</ele>
        <time>2016-05-04T16:23:00Z</time>
      </trkpt>
      <trkpt lat="44.12594" lon="2.26077">
        <ele>276.1</ele>
        <time>2016-05-04T16:23:01Z</time>
      </trkpt>
      <trkpt lat="44.12595" lon="2.26079">
        <ele>276.2</ele>
        <time>2016-05-04T16:23:02Z</time>
      </trkpt>
      <trkpt lat="44.12596" lon="2.26082">
        <ele>276.1</ele>
        <time>2016-05-04T16:23:03Z</time>
      </trkpt>
      <trkpt lat="44.12597" lon="2.26084">
        <ele>276.1</ele>
        <time>2016-05-04T16:23:04Z</time>
      </trkpt>
      <trkpt lat="44.12597" lon="2.26085">
        <ele>276</ele>
        <time>2016-05-04T16:23:05Z</time>
      </trkpt>
      <trkpt lat="44.12603" lon="2.26111">
        <ele>275.5</ele>
        <time>2016-05-04T16:23:16Z</time>
      </trkpt>
      <trkpt lat="44.12603" lon="2.26112">
        <ele>275.6</ele>
        <time>2016-05-04T16:23:17Z</time>
      </trkpt>
      <trkpt lat="44.12617" lon="2.26133">
        <ele>275.6</ele>
        <time>2016-05-04T16:23:33Z</time>
      </trkpt>
      <trkpt lat="44.12617" lon="2.26134">
        <ele>275.5</ele>
        <time>2016-05-04T16:23:34Z</time>
      </trkpt>
      <trkpt lat="44.12618" lon="2.26135">
        <ele>275.4</ele>
        <time>2016-05-04T16:23:35Z</time>
      </trkpt>
      <trkpt lat="44.12618" lon="2.26136">
        <ele>275.5</ele>
        <time>2016-05-04T16:23:36Z</time>
      </trkpt>
      <trkpt lat="44.12619" lon="2.26137">
        <ele>275.6</ele>
        <time>2016-05-04T16:23:37Z</time>
      </trkpt>
      <trkpt lat="44.12619" lon="2.26139">
        <ele>275.6</ele>
        <time>2016-05-04T16:23:38Z</time>
      </trkpt>
      <trkpt lat="44.12633" lon="2.26177">
        <ele>275.9</ele>
        <time>2016-05-04T16:23:53Z</time>
      </trkpt>
      <trkpt lat="44.12634" lon="2.26179">
        <ele>275.9</ele>
        <time>2016-05-04T16:23:54Z</time>
      </trkpt>
      <trkpt lat="44.12635" lon="2.26189">
        <ele>276.2</ele>
        <time>2016-05-04T16:24:00Z</time>
      </trkpt>
      <trkpt lat="44.12635" lon="2.26192">
        <ele>276.1</ele>
        <time>2016-05-04T16:24:02Z</time>
      </trkpt>
      <trkpt lat="44.12634" lon="2.26193">
        <ele>276</ele>
        <time>2016-05-04T16:24:03Z</time>
      </trkpt>
      <trkpt lat="44.12633" lon="2.26195">
        <ele>276</ele>
        <time>2016-05-04T16:24:04Z</time>
      </trkpt>
      <trkpt lat="44.12633" lon="2.26196">
        <ele>275.9</ele>
        <time>2016-05-04T16:24:05Z</time>
      </trkpt>
      <trkpt lat="44.12633" lon="2.26198">
        <ele>275.7</ele>
        <time>2016-05-04T16:24:06Z</time>
      </trkpt>
      <trkpt lat="44.12632" lon="2.262">
        <ele>275.5</ele>
        <time>2016-05-04T16:24:07Z</time>
      </trkpt>
      <trkpt lat="44.12632" lon="2.26202">
        <ele>275.4</ele>
        <time>2016-05-04T16:24:08Z</time>
      </trkpt>
      <trkpt lat="44.12632" lon="2.26204">
        <ele>275.5</ele>
        <time>2016-05-04T16:24:09Z</time>
      </trkpt>
      <trkpt lat="44.12627" lon="2.2625">
        <ele>279.3</ele>
        <time>2016-05-04T16:24:34Z</time>
      </trkpt>
      <trkpt lat="44.12626" lon="2.26253">
        <ele>279.9</ele>
        <time>2016-05-04T16:24:36Z</time>
      </trkpt>
      <trkpt lat="44.12625" lon="2.26253">
        <ele>280.1</ele>
        <time>2016-05-04T16:24:37Z</time>
      </trkpt>
      <trkpt lat="44.12624" lon="2.26255">
        <ele>280.3</ele>
        <time>2016-05-04T16:24:38Z</time>
      </trkpt>
      <trkpt lat="44.12624" lon="2.26256">
        <ele>280.1</ele>
        <time>2016-05-04T16:24:39Z</time>
      </trkpt>
      <trkpt lat="44.12623" lon="2.26258">
        <ele>279.9</ele>
        <time>2016-05-04T16:24:40Z</time>
      </trkpt>
      <trkpt lat="44.12622" lon="2.26259">
        <ele>279.7</ele>
        <time>2016-05-04T16:24:41Z</time>
      </trkpt>
      <trkpt lat="44.12621" lon="2.26261">
        <ele>279.2</ele>
        <time>2016-05-04T16:24:42Z</time>
      </trkpt>
      <trkpt lat="44.1262" lon="2.26264">
        <ele>278.8</ele>
        <time>2016-05-04T16:24:43Z</time>
      </trkpt>
      <trkpt lat="44.12619" lon="2.26266">
        <ele>278.5</ele>
        <time>2016-05-04T16:24:44Z</time>
      </trkpt>
      <trkpt lat="44.12617" lon="2.26268">
        <ele>278.4</ele>
        <time>2016-05-04T16:24:45Z</time>
      </trkpt>
      <trkpt lat="44.12615" lon="2.2627">
        <ele>278.4</ele>
        <time>2016-05-04T16:24:46Z</time>
      </trkpt>
      <trkpt lat="44.12614" lon="2.26272">
        <ele>278.4</ele>
        <time>2016-05-04T16:24:47Z</time>
      </trkpt>
      <trkpt lat="44.12613" lon="2.26274">
        <ele>278.8</ele>
        <time>2016-05-04T16:24:48Z</time>
      </trkpt>
      <trkpt lat="44.12611" lon="2.26275">
        <ele>279.2</ele>
        <time>2016-05-04T16:24:49Z</time>
      </trkpt>
      <trkpt lat="44.1261" lon="2.26277">
        <ele>279.4</ele>
        <time>2016-05-04T16:24:50Z</time>
      </trkpt>
      <trkpt lat="44.12608" lon="2.26279">
        <ele>278.9</ele>
        <time>2016-05-04T16:24:51Z</time>
      </trkpt>
      <trkpt lat="44.12607" lon="2.2628">
        <ele>278.6</ele>
        <time>2016-05-04T16:24:52Z</time>
      </trkpt>
      <trkpt lat="44.12605" lon="2.26282">
        <ele>278.3</ele>
        <time>2016-05-04T16:24:53Z</time>
      </trkpt>
      <trkpt lat="44.12604" lon="2.26283">
        <ele>278.1</ele>
        <time>2016-05-04T16:24:54Z</time>
      </trkpt>
      <trkpt lat="44.12602" lon="2.26284">
        <ele>278</ele>
        <time>2016-05-04T16:24:55Z</time>
      </trkpt>
      <trkpt lat="44.126" lon="2.26285">
        <ele>277.9</ele>
        <time>2016-05-04T16:24:56Z</time>
      </trkpt>
      <trkpt lat="44.12599" lon="2.26286">
        <ele>277.8</ele>
        <time>2016-05-04T16:24:57Z</time>
      </trkpt>
      <trkpt lat="44.12597" lon="2.26286">
        <ele>277.7</ele>
        <time>2016-05-04T16:24:58Z</time>
      </trkpt>
      <trkpt lat="44.12595" lon="2.26287">
        <ele>277.7</ele>
        <time>2016-05-04T16:24:59Z</time>
      </trkpt>
      <trkpt lat="44.12593" lon="2.26287">
        <ele>277.4</ele>
        <time>2016-05-04T16:25:00Z</time>
      </trkpt>
      <trkpt lat="44.12592" lon="2.26287">
        <ele>277.3</ele>
        <time>2016-05-04T16:25:01Z</time>
      </trkpt>
      <trkpt lat="44.12591" lon="2.26287">
        <ele>277.1</ele>
        <time>2016-05-04T16:25:02Z</time>
      </trkpt>
      <trkpt lat="44.12589" lon="2.26288">
        <ele>277.2</ele>
        <time>2016-05-04T16:25:03Z</time>
      </trkpt>
      <trkpt lat="44.12588" lon="2.26289">
        <ele>277.3</ele>
        <time>2016-05-04T16:25:04Z</time>
      </trkpt>
      <trkpt lat="44.12587" lon="2.2629">
        <ele>277.4</ele>
        <time>2016-05-04T16:25:05Z</time>
      </trkpt>
      <trkpt lat="44.12583" lon="2.26296">
        <ele>276.9</ele>
        <time>2016-05-04T16:25:10Z</time>
      </trkpt>
      <trkpt lat="44.12579" lon="2.26303">
        <ele>277.8</ele>
        <time>2016-05-04T16:25:16Z</time>
      </trkpt>
      <trkpt lat="44.12579" lon="2.26304">
        <ele>278.2</ele>
        <time>2016-05-04T16:25:17Z</time>
      </trkpt>
      <trkpt lat="44.12571" lon="2.26313">
        <ele>278.4</ele>
        <time>2016-05-04T16:25:25Z</time>
      </trkpt>
      <trkpt lat="44.12569" lon="2.26316">
        <ele>278.6</ele>
        <time>2016-05-04T16:25:27Z</time>
      </trkpt>
      <trkpt lat="44.12567" lon="2.26319">
        <ele>278.9</ele>
        <time>2016-05-04T16:25:29Z</time>
      </trkpt>
      <trkpt lat="44.12563" lon="2.26328">
        <ele>278.7</ele>
        <time>2016-05-04T16:25:36Z</time>
      </trkpt>
      <trkpt lat="44.12562" lon="2.26329">
        <ele>278.8</ele>
        <time>2016-05-04T16:25:37Z</time>
      </trkpt>
      <trkpt lat="44.12562" lon="2.2633">
        <ele>278.9</ele>
        <time>2016-05-04T16:25:38Z</time>
      </trkpt>
      <trkpt lat="44.12556" lon="2.26337">
        <ele>277.9</ele>
        <time>2016-05-04T16:25:47Z</time>
      </trkpt>
      <trkpt lat="44.12555" lon="2.26338">
        <ele>278.1</ele>
        <time>2016-05-04T16:25:48Z</time>
      </trkpt>
      <trkpt lat="44.12554" lon="2.26338">
        <ele>278.1</ele>
        <time>2016-05-04T16:25:49Z</time>
      </trkpt>
      <trkpt lat="44.12553" lon="2.26339">
        <ele>278.2</ele>
        <time>2016-05-04T16:25:50Z</time>
      </trkpt>
      <trkpt lat="44.12552" lon="2.2634">
        <ele>278.3</ele>
        <time>2016-05-04T16:25:51Z</time>
      </trkpt>
      <trkpt lat="44.12551" lon="2.26341">
        <ele>278.3</ele>
        <time>2016-05-04T16:25:52Z</time>
      </trkpt>
      <trkpt lat="44.1255" lon="2.26342">
        <ele>278.3</ele>
        <time>2016-05-04T16:25:53Z</time>
      </trkpt>
      <trkpt lat="44.12548" lon="2.26345">
        <ele>278.4</ele>
        <time>2016-05-04T16:25:56Z</time>
      </trkpt>
      <trkpt lat="44.12548" lon="2.26345">
        <ele>278.4</ele>
        <time>2016-05-04T16:25:57Z</time>
      </trkpt>
      <trkpt lat="44.12547" lon="2.26346">
        <ele>278.4</ele>
        <time>2016-05-04T16:25:58Z</time>
      </trkpt>
      <trkpt lat="44.12547" lon="2.26347">
        <ele>278.4</ele>
        <time>2016-05-04T16:25:59Z</time>
      </trkpt>
      <trkpt lat="44.12547" lon="2.26348">
        <ele>278.4</ele>
        <time>2016-05-04T16:26:00Z</time>
      </trkpt>
      <trkpt lat="44.12546" lon="2.2635">
        <ele>278.4</ele>
        <time>2016-05-04T16:26:01Z</time>
      </trkpt>
      <trkpt lat="44.12544" lon="2.26353">
        <ele>278.4</ele>
        <time>2016-05-04T16:26:02Z</time>
      </trkpt>
      <trkpt lat="44.12543" lon="2.26356">
        <ele>278.2</ele>
        <time>2016-05-04T16:26:03Z</time>
      </trkpt>
      <trkpt lat="44.12541" lon="2.26358">
        <ele>278</ele>
        <time>2016-05-04T16:26:04Z</time>
      </trkpt>
      <trkpt lat="44.1254" lon="2.2636">
        <ele>277.9</ele>
        <time>2016-05-04T16:26:05Z</time>
      </trkpt>
      <trkpt lat="44.12538" lon="2.26363">
        <ele>278</ele>
        <time>2016-05-04T16:26:06Z</time>
      </trkpt>
      <trkpt lat="44.12537" lon="2.26365">
        <ele>278.1</ele>
        <time>2016-05-04T16:26:07Z</time>
      </trkpt>
      <trkpt lat="44.12537" lon="2.26367">
        <ele>278.2</ele>
        <time>2016-05-04T16:26:08Z</time>
      </trkpt>
      <trkpt lat="44.12536" lon="2.26368">
        <ele>278.2</ele>
        <time>2016-05-04T16:26:09Z</time>
      </trkpt>
      <trkpt lat="44.12535" lon="2.2637">
        <ele>278.3</ele>
        <time>2016-05-04T16:26:10Z</time>
      </trkpt>
      <trkpt lat="44.12534" lon="2.26372">
        <ele>278.3</ele>
        <time>2016-05-04T16:26:11Z</time>
      </trkpt>
      <trkpt lat="44.12533" lon="2.26373">
        <ele>278.1</ele>
        <time>2016-05-04T16:26:12Z</time>
      </trkpt>
      <trkpt lat="44.12532" lon="2.26375">
        <ele>278</ele>
        <time>2016-05-04T16:26:13Z</time>
      </trkpt>
      <trkpt lat="44.12532" lon="2.26376">
        <ele>277.9</ele>
        <time>2016-05-04T16:26:14Z</time>
      </trkpt>
      <trkpt lat="44.12529" lon="2.26379">
        <ele>277.7</ele>
        <time>2016-05-04T16:26:17Z</time>
      </trkpt>
      <trkpt lat="44.12518" lon="2.26391">
        <ele>277.3</ele>
        <time>2016-05-04T16:26:26Z</time>
      </trkpt>
      <trkpt lat="44.12513" lon="2.26394">
        <ele>277.9</ele>
        <time>2016-05-04T16:26:29Z</time>
      </trkpt>
      <trkpt lat="44.12504" lon="2.26396">
        <ele>276.9</ele>
        <time>2016-05-04T16:26:35Z</time>
      </trkpt>
      <trkpt lat="44.12502" lon="2.26396">
        <ele>277.3</ele>
        <time>2016-05-04T16:26:36Z</time>
      </trkpt>
      <trkpt lat="44.12501" lon="2.26397">
        <ele>277.6</ele>
        <time>2016-05-04T16:26:37Z</time>
      </trkpt>
      <trkpt lat="44.125" lon="2.26397">
        <ele>277.8</ele>
        <time>2016-05-04T16:26:38Z</time>
      </trkpt>
      <trkpt lat="44.125" lon="2.26398">
        <ele>277.5</ele>
        <time>2016-05-04T16:26:39Z</time>
      </trkpt>
      <trkpt lat="44.12488" lon="2.26406">
        <ele>277.1</ele>
        <time>2016-05-04T16:26:51Z</time>
      </trkpt>
      <trkpt lat="44.12486" lon="2.26407">
        <ele>277.2</ele>
        <time>2016-05-04T16:26:52Z</time>
      </trkpt>
      <trkpt lat="44.12482" lon="2.26408">
        <ele>277</ele>
        <time>2016-05-04T16:26:55Z</time>
      </trkpt>
      <trkpt lat="44.12479" lon="2.26408">
        <ele>276.9</ele>
        <time>2016-05-04T16:26:57Z</time>
      </trkpt>
      <trkpt lat="44.12477" lon="2.26408">
        <ele>276.8</ele>
        <time>2016-05-04T16:26:58Z</time>
      </trkpt>
      <trkpt lat="44.1247" lon="2.26408">
        <ele>276.7</ele>
        <time>2016-05-04T16:27:03Z</time>
      </trkpt>
      <trkpt lat="44.12468" lon="2.26407">
        <ele>276.7</ele>
        <time>2016-05-04T16:27:04Z</time>
      </trkpt>
      <trkpt lat="44.12467" lon="2.26407">
        <ele>276.7</ele>
        <time>2016-05-04T16:27:05Z</time>
      </trkpt>
      <trkpt lat="44.12465" lon="2.26406">
        <ele>276.7</ele>
        <time>2016-05-04T16:27:07Z</time>
      </trkpt>
      <trkpt lat="44.12464" lon="2.26405">
        <ele>276.7</ele>
        <time>2016-05-04T16:27:08Z</time>
      </trkpt>
      <trkpt lat="44.12463" lon="2.26405">
        <ele>276.9</ele>
        <time>2016-05-04T16:27:09Z</time>
      </trkpt>
      <trkpt lat="44.12461" lon="2.26404">
        <ele>277.1</ele>
        <time>2016-05-04T16:27:10Z</time>
      </trkpt>
      <trkpt lat="44.1246" lon="2.26403">
        <ele>277.2</ele>
        <time>2016-05-04T16:27:11Z</time>
      </trkpt>
      <trkpt lat="44.12459" lon="2.26403">
        <ele>277.3</ele>
        <time>2016-05-04T16:27:12Z</time>
      </trkpt>
      <trkpt lat="44.12458" lon="2.26402">
        <ele>277.3</ele>
        <time>2016-05-04T16:27:13Z</time>
      </trkpt>
      <trkpt lat="44.12457" lon="2.26402">
        <ele>277.4</ele>
        <time>2016-05-04T16:27:14Z</time>
      </trkpt>
      <trkpt lat="44.12456" lon="2.26401">
        <ele>277.4</ele>
        <time>2016-05-04T16:27:15Z</time>
      </trkpt>
      <trkpt lat="44.12455" lon="2.26401">
        <ele>277.5</ele>
        <time>2016-05-04T16:27:16Z</time>
      </trkpt>
      <trkpt lat="44.12454" lon="2.26401">
        <ele>277.5</ele>
        <time>2016-05-04T16:27:17Z</time>
      </trkpt>
      <trkpt lat="44.12453" lon="2.264">
        <ele>277.5</ele>
        <time>2016-05-04T16:27:18Z</time>
      </trkpt>
      <trkpt lat="44.12452" lon="2.264">
        <ele>277.5</ele>
        <time>2016-05-04T16:27:19Z</time>
      </trkpt>
      <trkpt lat="44.12449" lon="2.26398">
        <ele>278</ele>
        <time>2016-05-04T16:27:21Z</time>
      </trkpt>
      <trkpt lat="44.12443" lon="2.26392">
        <ele>279.2</ele>
        <time>2016-05-04T16:27:27Z</time>
      </trkpt>
      <trkpt lat="44.1244" lon="2.26389">
        <ele>278.8</ele>
        <time>2016-05-04T16:27:29Z</time>
      </trkpt>
      <trkpt lat="44.12425" lon="2.26372">
        <ele>278.2</ele>
        <time>2016-05-04T16:27:41Z</time>
      </trkpt>
      <trkpt lat="44.12424" lon="2.2637">
        <ele>278.5</ele>
        <time>2016-05-04T16:27:42Z</time>
      </trkpt>
      <trkpt lat="44.12423" lon="2.26369">
        <ele>278.7</ele>
        <time>2016-05-04T16:27:43Z</time>
      </trkpt>
      <trkpt lat="44.12412" lon="2.26358">
        <ele>278.2</ele>
        <time>2016-05-04T16:27:51Z</time>
      </trkpt>
      <trkpt lat="44.12411" lon="2.26357">
        <ele>278.1</ele>
        <time>2016-05-04T16:27:52Z</time>
      </trkpt>
      <trkpt lat="44.1241" lon="2.26356">
        <ele>277.9</ele>
        <time>2016-05-04T16:27:53Z</time>
      </trkpt>
      <trkpt lat="44.1241" lon="2.26355">
        <ele>277.8</ele>
        <time>2016-05-04T16:27:54Z</time>
      </trkpt>
      <trkpt lat="44.12409" lon="2.26354">
        <ele>277.8</ele>
        <time>2016-05-04T16:27:55Z</time>
      </trkpt>
      <trkpt lat="44.12408" lon="2.26353">
        <ele>277.7</ele>
        <time>2016-05-04T16:27:56Z</time>
      </trkpt>
      <trkpt lat="44.12407" lon="2.26352">
        <ele>278.1</ele>
        <time>2016-05-04T16:27:57Z</time>
      </trkpt>
      <trkpt lat="44.12406" lon="2.26351">
        <ele>278.4</ele>
        <time>2016-05-04T16:27:58Z</time>
      </trkpt>
      <trkpt lat="44.12406" lon="2.2635">
        <ele>278.6</ele>
        <time>2016-05-04T16:27:59Z</time>
      </trkpt>
      <trkpt lat="44.12405" lon="2.26349">
        <ele>278.8</ele>
        <time>2016-05-04T16:28:00Z</time>
      </trkpt>
      <trkpt lat="44.12401" lon="2.26343">
        <ele>279.5</ele>
        <time>2016-05-04T16:28:04Z</time>
      </trkpt>
      <trkpt lat="44.12399" lon="2.26341">
        <ele>279.6</ele>
        <time>2016-05-04T16:28:05Z</time>
      </trkpt>
      <trkpt lat="44.12398" lon="2.26339">
        <ele>279.7</ele>
        <time>2016-05-04T16:28:06Z</time>
      </trkpt>
      <trkpt lat="44.12397" lon="2.26337">
        <ele>279.8</ele>
        <time>2016-05-04T16:28:07Z</time>
      </trkpt>
      <trkpt lat="44.12395" lon="2.26335">
        <ele>279.9</ele>
        <time>2016-05-04T16:28:08Z</time>
      </trkpt>
      <trkpt lat="44.12394" lon="2.26333">
        <ele>280.2</ele>
        <time>2016-05-04T16:28:09Z</time>
      </trkpt>
      <trkpt lat="44.12393" lon="2.26331">
        <ele>280.4</ele>
        <time>2016-05-04T16:28:10Z</time>
      </trkpt>
      <trkpt lat="44.12392" lon="2.26329">
        <ele>280.5</ele>
        <time>2016-05-04T16:28:11Z</time>
      </trkpt>
      <trkpt lat="44.12391" lon="2.26327">
        <ele>280.6</ele>
        <time>2016-05-04T16:28:12Z</time>
      </trkpt>
      <trkpt lat="44.1239" lon="2.26325">
        <ele>280.7</ele>
        <time>2016-05-04T16:28:13Z</time>
      </trkpt>
      <trkpt lat="44.1239" lon="2.26323">
        <ele>280.8</ele>
        <time>2016-05-04T16:28:14Z</time>
      </trkpt>
      <trkpt lat="44.1239" lon="2.26322">
        <ele>280.8</ele>
        <time>2016-05-04T16:28:15Z</time>
      </trkpt>
      <trkpt lat="44.1239" lon="2.26318">
        <ele>280.9</ele>
        <time>2016-05-04T16:28:17Z</time>
      </trkpt>
      <trkpt lat="44.1239" lon="2.26315">
        <ele>280.9</ele>
        <time>2016-05-04T16:28:19Z</time>
      </trkpt>
      <trkpt lat="44.12391" lon="2.26312">
        <ele>281.4</ele>
        <time>2016-05-04T16:28:23Z</time>
      </trkpt>
      <trkpt lat="44.12391" lon="2.2631">
        <ele>282</ele>
        <time>2016-05-04T16:28:25Z</time>
      </trkpt>
      <trkpt lat="44.12391" lon="2.263">
        <ele>283</ele>
        <time>2016-05-04T16:28:32Z</time>
      </trkpt>
      <trkpt lat="44.1239" lon="2.26298">
        <ele>282.5</ele>
        <time>2016-05-04T16:28:34Z</time>
      </trkpt>
      <trkpt lat="44.12387" lon="2.26291">
        <ele>282.6</ele>
        <time>2016-05-04T16:28:40Z</time>
      </trkpt>
      <trkpt lat="44.12386" lon="2.26289">
        <ele>282.2</ele>
        <time>2016-05-04T16:28:42Z</time>
      </trkpt>
      <trkpt lat="44.12384" lon="2.26288">
        <ele>280.6</ele>
        <time>2016-05-04T16:28:46Z</time>
      </trkpt>
      <trkpt lat="44.12384" lon="2.26288">
        <ele>280.3</ele>
        <time>2016-05-04T16:28:47Z</time>
      </trkpt>
      <trkpt lat="44.12384" lon="2.26288">
        <ele>280</ele>
        <time>2016-05-04T16:28:48Z</time>
      </trkpt>
      <trkpt lat="44.12383" lon="2.26288">
        <ele>279.8</ele>
        <time>2016-05-04T16:28:49Z</time>
      </trkpt>
      <trkpt lat="44.12383" lon="2.26288">
        <ele>279.7</ele>
        <time>2016-05-04T16:28:50Z</time>
      </trkpt>
      <trkpt lat="44.12382" lon="2.26287">
        <ele>279.1</ele>
        <time>2016-05-04T16:28:51Z</time>
      </trkpt>
      <trkpt lat="44.12377" lon="2.26281">
        <ele>278.4</ele>
        <time>2016-05-04T16:28:56Z</time>
      </trkpt>
      <trkpt lat="44.12374" lon="2.26276">
        <ele>278.2</ele>
        <time>2016-05-04T16:29:00Z</time>
      </trkpt>
      <trkpt lat="44.12374" lon="2.26275">
        <ele>278</ele>
        <time>2016-05-04T16:29:01Z</time>
      </trkpt>
      <trkpt lat="44.12369" lon="2.26262">
        <ele>278.3</ele>
        <time>2016-05-04T16:29:11Z</time>
      </trkpt>
      <trkpt lat="44.12369" lon="2.26261">
        <ele>278.7</ele>
        <time>2016-05-04T16:29:12Z</time>
      </trkpt>
      <trkpt lat="44.12363" lon="2.2625">
        <ele>280.8</ele>
        <time>2016-05-04T16:29:23Z</time>
      </trkpt>
      <trkpt lat="44.12363" lon="2.2625">
        <ele>281.1</ele>
        <time>2016-05-04T16:29:24Z</time>
      </trkpt>
      <trkpt lat="44.12362" lon="2.2625">
        <ele>281.3</ele>
        <time>2016-05-04T16:29:25Z</time>
      </trkpt>
      <trkpt lat="44.12362" lon="2.2625">
        <ele>281.4</ele>
        <time>2016-05-04T16:29:26Z</time>
      </trkpt>
      <trkpt lat="44.12362" lon="2.2625">
        <ele>281.3</ele>
        <time>2016-05-04T16:29:27Z</time>
      </trkpt>
      <trkpt lat="44.12361" lon="2.26249">
        <ele>281.2</ele>
        <time>2016-05-04T16:29:28Z</time>
      </trkpt>
      <trkpt lat="44.12361" lon="2.26249">
        <ele>281.1</ele>
        <time>2016-05-04T16:29:29Z</time>
      </trkpt>
      <trkpt lat="44.1236" lon="2.26249">
        <ele>281.3</ele>
        <time>2016-05-04T16:29:30Z</time>
      </trkpt>
      <trkpt lat="44.1236" lon="2.26249">
        <ele>281.4</ele>
        <time>2016-05-04T16:29:31Z</time>
      </trkpt>
      <trkpt lat="44.1236" lon="2.26248">
        <ele>281.5</ele>
        <time>2016-05-04T16:29:32Z</time>
      </trkpt>
      <trkpt lat="44.1236" lon="2.26248">
        <ele>281.6</ele>
        <time>2016-05-04T16:29:33Z</time>
      </trkpt>
      <trkpt lat="44.1236" lon="2.26248">
        <ele>281.6</ele>
        <time>2016-05-04T16:29:34Z</time>
      </trkpt>
      <trkpt lat="44.1236" lon="2.26248">
        <ele>281.7</ele>
        <time>2016-05-04T16:29:35Z</time>
      </trkpt>
      <trkpt lat="44.1236" lon="2.26248">
        <ele>281.5</ele>
        <time>2016-05-04T16:29:36Z</time>
      </trkpt>
      <trkpt lat="44.1236" lon="2.26248">
        <ele>281.4</ele>
        <time>2016-05-04T16:29:37Z</time>
      </trkpt>
      <trkpt lat="44.12359" lon="2.26248">
        <ele>281.3</ele>
        <time>2016-05-04T16:29:38Z</time>
      </trkpt>
      <trkpt lat="44.12359" lon="2.26248">
        <ele>281.2</ele>
        <time>2016-05-04T16:29:39Z</time>
      </trkpt>
      <trkpt lat="44.12359" lon="2.26248">
        <ele>281.1</ele>
        <time>2016-05-04T16:29:40Z</time>
      </trkpt>
      <trkpt lat="44.12359" lon="2.26248">
        <ele>281.1</ele>
        <time>2016-05-04T16:29:41Z</time>
      </trkpt>
      <trkpt lat="44.12359" lon="2.26248">
        <ele>281.3</ele>
        <time>2016-05-04T16:29:42Z</time>
      </trkpt>
      <trkpt lat="44.12359" lon="2.26247">
        <ele>281.4</ele>
        <time>2016-05-04T16:29:43Z</time>
      </trkpt>
      <trkpt lat="44.12359" lon="2.26247">
        <ele>281.5</ele>
        <time>2016-05-04T16:29:44Z</time>
      </trkpt>
      <trkpt lat="44.12359" lon="2.26247">
        <ele>281.4</ele>
        <time>2016-05-04T16:29:45Z</time>
      </trkpt>
      <trkpt lat="44.12359" lon="2.26247">
        <ele>281.3</ele>
        <time>2016-05-04T16:29:46Z</time>
      </trkpt>
      <trkpt lat="44.12359" lon="2.26247">
        <ele>281.2</ele>
        <time>2016-05-04T16:29:47Z</time>
      </trkpt>
      <trkpt lat="44.12359" lon="2.26247">
        <ele>281.1</ele>
        <time>2016-05-04T16:29:48Z</time>
      </trkpt>
      <trkpt lat="44.12359" lon="2.26247">
        <ele>281.1</ele>
        <time>2016-05-04T16:29:49Z</time>
      </trkpt>
      <trkpt lat="44.12358" lon="2.26246">
        <ele>281</ele>
        <time>2016-05-04T16:29:50Z</time>
      </trkpt>
      <trkpt lat="44.12358" lon="2.26246">
        <ele>281.2</ele>
        <time>2016-05-04T16:29:51Z</time>
      </trkpt>
      <trkpt lat="44.12358" lon="2.26245">
        <ele>281.4</ele>
        <time>2016-05-04T16:29:52Z</time>
      </trkpt>
      <trkpt lat="44.12358" lon="2.26245">
        <ele>281.5</ele>
        <time>2016-05-04T16:29:53Z</time>
      </trkpt>
      <trkpt lat="44.12358" lon="2.26244">
        <ele>281.3</ele>
        <time>2016-05-04T16:29:54Z</time>
      </trkpt>
      <trkpt lat="44.12358" lon="2.26244">
        <ele>281.2</ele>
        <time>2016-05-04T16:29:55Z</time>
      </trkpt>
      <trkpt lat="44.12358" lon="2.26243">
        <ele>281.2</ele>
        <time>2016-05-04T16:29:56Z</time>
      </trkpt>
      <trkpt lat="44.12359" lon="2.26242">
        <ele>281.1</ele>
        <time>2016-05-04T16:29:57Z</time>
      </trkpt>
      <trkpt lat="44.12359" lon="2.26241">
        <ele>281.1</ele>
        <time>2016-05-04T16:29:58Z</time>
      </trkpt>
      <trkpt lat="44.12359" lon="2.26241">
        <ele>281</ele>
        <time>2016-05-04T16:29:59Z</time>
      </trkpt>
      <trkpt lat="44.12359" lon="2.2624">
        <ele>281</ele>
        <time>2016-05-04T16:30:00Z</time>
      </trkpt>
      <trkpt lat="44.12359" lon="2.26239">
        <ele>281</ele>
        <time>2016-05-04T16:30:01Z</time>
      </trkpt>
      <trkpt lat="44.1236" lon="2.26239">
        <ele>281</ele>
        <time>2016-05-04T16:30:02Z</time>
      </trkpt>
      <trkpt lat="44.1236" lon="2.26239">
        <ele>281.2</ele>
        <time>2016-05-04T16:30:03Z</time>
      </trkpt>
      <trkpt lat="44.1236" lon="2.26238">
        <ele>281.3</ele>
        <time>2016-05-04T16:30:04Z</time>
      </trkpt>
      <trkpt lat="44.12361" lon="2.26238">
        <ele>281.5</ele>
        <time>2016-05-04T16:30:05Z</time>
      </trkpt>
      <trkpt lat="44.12361" lon="2.26238">
        <ele>281.5</ele>
        <time>2016-05-04T16:30:06Z</time>
      </trkpt>
      <trkpt lat="44.12361" lon="2.26237">
        <ele>281.6</ele>
        <time>2016-05-04T16:30:07Z</time>
      </trkpt>
      <trkpt lat="44.12361" lon="2.26237">
        <ele>281.7</ele>
        <time>2016-05-04T16:30:08Z</time>
      </trkpt>
      <trkpt lat="44.12362" lon="2.26236">
        <ele>281.5</ele>
        <time>2016-05-04T16:30:09Z</time>
      </trkpt>
      <trkpt lat="44.12362" lon="2.26236">
        <ele>281.3</ele>
        <time>2016-05-04T16:30:10Z</time>
      </trkpt>
      <trkpt lat="44.12362" lon="2.26235">
        <ele>281.2</ele>
        <time>2016-05-04T16:30:11Z</time>
      </trkpt>
      <trkpt lat="44.12362" lon="2.26235">
        <ele>281.2</ele>
        <time>2016-05-04T16:30:12Z</time>
      </trkpt>
      <trkpt lat="44.12362" lon="2.26234">
        <ele>281.1</ele>
        <time>2016-05-04T16:30:13Z</time>
      </trkpt>
      <trkpt lat="44.12363" lon="2.26234">
        <ele>281.1</ele>
        <time>2016-05-04T16:30:14Z</time>
      </trkpt>
      <trkpt lat="44.12363" lon="2.26233">
        <ele>280.8</ele>
        <time>2016-05-04T16:30:15Z</time>
      </trkpt>
      <trkpt lat="44.12363" lon="2.26233">
        <ele>280.6</ele>
        <time>2016-05-04T16:30:16Z</time>
      </trkpt>
      <trkpt lat="44.12363" lon="2.26233">
        <ele>280.5</ele>
        <time>2016-05-04T16:30:17Z</time>
      </trkpt>
      <trkpt lat="44.12363" lon="2.26233">
        <ele>280.6</ele>
        <time>2016-05-04T16:30:18Z</time>
      </trkpt>
      <trkpt lat="44.12362" lon="2.26233">
        <ele>280.7</ele>
        <time>2016-05-04T16:30:19Z</time>
      </trkpt>
      <trkpt lat="44.12362" lon="2.26233">
        <ele>280.8</ele>
        <time>2016-05-04T16:30:20Z</time>
      </trkpt>
      <trkpt lat="44.12361" lon="2.26233">
        <ele>280.8</ele>
        <time>2016-05-04T16:30:21Z</time>
      </trkpt>
      <trkpt lat="44.1236" lon="2.26234">
        <ele>280.8</ele>
        <time>2016-05-04T16:30:22Z</time>
      </trkpt>
      <trkpt lat="44.12359" lon="2.26234">
        <ele>280.9</ele>
        <time>2016-05-04T16:30:23Z</time>
      </trkpt>
      <trkpt lat="44.12359" lon="2.26234">
        <ele>280.9</ele>
        <time>2016-05-04T16:30:24Z</time>
      </trkpt>
      <trkpt lat="44.12358" lon="2.26235">
        <ele>280.9</ele>
        <time>2016-05-04T16:30:25Z</time>
      </trkpt>
      <trkpt lat="44.12357" lon="2.26235">
        <ele>280.9</ele>
        <time>2016-05-04T16:30:26Z</time>
      </trkpt>
      <trkpt lat="44.12357" lon="2.26235">
        <ele>281.1</ele>
        <time>2016-05-04T16:30:27Z</time>
      </trkpt>
      <trkpt lat="44.12356" lon="2.26236">
        <ele>281.3</ele>
        <time>2016-05-04T16:30:28Z</time>
      </trkpt>
      <trkpt lat="44.12356" lon="2.26236">
        <ele>281.4</ele>
        <time>2016-05-04T16:30:29Z</time>
      </trkpt>
      <trkpt lat="44.12356" lon="2.26236">
        <ele>281.5</ele>
        <time>2016-05-04T16:30:30Z</time>
      </trkpt>
      <trkpt lat="44.12355" lon="2.26236">
        <ele>281.6</ele>
        <time>2016-05-04T16:30:31Z</time>
      </trkpt>
      <trkpt lat="44.12355" lon="2.26237">
        <ele>281.6</ele>
        <time>2016-05-04T16:30:32Z</time>
      </trkpt>
      <trkpt lat="44.12355" lon="2.26237">
        <ele>281.7</ele>
        <time>2016-05-04T16:30:33Z</time>
      </trkpt>
      <trkpt lat="44.12354" lon="2.26237">
        <ele>281.7</ele>
        <time>2016-05-04T16:30:34Z</time>
      </trkpt>
      <trkpt lat="44.12354" lon="2.26237">
        <ele>281.7</ele>
        <time>2016-05-04T16:30:35Z</time>
      </trkpt>
      <trkpt lat="44.12354" lon="2.26238">
        <ele>281.5</ele>
        <time>2016-05-04T16:30:36Z</time>
      </trkpt>
      <trkpt lat="44.12354" lon="2.26238">
        <ele>281.4</ele>
        <time>2016-05-04T16:30:37Z</time>
      </trkpt>
      <trkpt lat="44.12354" lon="2.26238">
        <ele>281.3</ele>
        <time>2016-05-04T16:30:38Z</time>
      </trkpt>
      <trkpt lat="44.12353" lon="2.26238">
        <ele>281.2</ele>
        <time>2016-05-04T16:30:39Z</time>
      </trkpt>
      <trkpt lat="44.12353" lon="2.26239">
        <ele>281.1</ele>
        <time>2016-05-04T16:30:40Z</time>
      </trkpt>
      <trkpt lat="44.12353" lon="2.26239">
        <ele>281.1</ele>
        <time>2016-05-04T16:30:41Z</time>
      </trkpt>
      <trkpt lat="44.12353" lon="2.26239">
        <ele>281.1</ele>
        <time>2016-05-04T16:30:42Z</time>
      </trkpt>
      <trkpt lat="44.12353" lon="2.26239">
        <ele>281</ele>
        <time>2016-05-04T16:30:43Z</time>
      </trkpt>
      <trkpt lat="44.12352" lon="2.26239">
        <ele>281</ele>
        <time>2016-05-04T16:30:44Z</time>
      </trkpt>
      <trkpt lat="44.12352" lon="2.26239">
        <ele>281</ele>
        <time>2016-05-04T16:30:45Z</time>
      </trkpt>
      <trkpt lat="44.12352" lon="2.26239">
        <ele>281</ele>
        <time>2016-05-04T16:30:46Z</time>
      </trkpt>
      <trkpt lat="44.12352" lon="2.26239">
        <ele>281</ele>
        <time>2016-05-04T16:30:47Z</time>
      </trkpt>
      <trkpt lat="44.12352" lon="2.26239">
        <ele>280.8</ele>
        <time>2016-05-04T16:30:48Z</time>
      </trkpt>
      <trkpt lat="44.12352" lon="2.26239">
        <ele>280.6</ele>
        <time>2016-05-04T16:30:49Z</time>
      </trkpt>
      <trkpt lat="44.12352" lon="2.26239">
        <ele>280.5</ele>
        <time>2016-05-04T16:30:50Z</time>
      </trkpt>
      <trkpt lat="44.12352" lon="2.26239">
        <ele>280.6</ele>
        <time>2016-05-04T16:30:51Z</time>
      </trkpt>
      <trkpt lat="44.12352" lon="2.26238">
        <ele>280.7</ele>
        <time>2016-05-04T16:30:52Z</time>
      </trkpt>
      <trkpt lat="44.12352" lon="2.26238">
        <ele>280.7</ele>
        <time>2016-05-04T16:30:53Z</time>
      </trkpt>
      <trkpt lat="44.12352" lon="2.26238">
        <ele>280.8</ele>
        <time>2016-05-04T16:30:54Z</time>
      </trkpt>
      <trkpt lat="44.12352" lon="2.26238">
        <ele>280.8</ele>
        <time>2016-05-04T16:30:55Z</time>
      </trkpt>
      <trkpt lat="44.12352" lon="2.26238">
        <ele>280.9</ele>
        <time>2016-05-04T16:30:56Z</time>
      </trkpt>
      <trkpt lat="44.12351" lon="2.26239">
        <ele>280.9</ele>
        <time>2016-05-04T16:30:57Z</time>
      </trkpt>
      <trkpt lat="44.12351" lon="2.26239">
        <ele>280.9</ele>
        <time>2016-05-04T16:30:58Z</time>
      </trkpt>
      <trkpt lat="44.1235" lon="2.26239">
        <ele>280.9</ele>
        <time>2016-05-04T16:30:59Z</time>
      </trkpt>
      <trkpt lat="44.1235" lon="2.26239">
        <ele>280.9</ele>
        <time>2016-05-04T16:31:00Z</time>
      </trkpt>
      <trkpt lat="44.1235" lon="2.26239">
        <ele>280.9</ele>
        <time>2016-05-04T16:31:01Z</time>
      </trkpt>
      <trkpt lat="44.1235" lon="2.26239">
        <ele>280.9</ele>
        <time>2016-05-04T16:31:02Z</time>
      </trkpt>
      <trkpt lat="44.1235" lon="2.26239">
        <ele>280.9</ele>
        <time>2016-05-04T16:31:03Z</time>
      </trkpt>
      <trkpt lat="44.1235" lon="2.26239">
        <ele>280.9</ele>
        <time>2016-05-04T16:31:04Z</time>
      </trkpt>
      <trkpt lat="44.12349" lon="2.26239">
        <ele>280.9</ele>
        <time>2016-05-04T16:31:05Z</time>
      </trkpt>
      <trkpt lat="44.12349" lon="2.26239">
        <ele>280.9</ele>
        <time>2016-05-04T16:31:06Z</time>
      </trkpt>
      <trkpt lat="44.12349" lon="2.26239">
        <ele>280.9</ele>
        <time>2016-05-04T16:31:07Z</time>
      </trkpt>
      <trkpt lat="44.12349" lon="2.2624">
        <ele>280.9</ele>
        <time>2016-05-04T16:31:08Z</time>
      </trkpt>
      <trkpt lat="44.12349" lon="2.26239">
        <ele>281.2</ele>
        <time>2016-05-04T16:31:09Z</time>
      </trkpt>
      <trkpt lat="44.1235" lon="2.2624">
        <ele>281.3</ele>
        <time>2016-05-04T16:31:10Z</time>
      </trkpt>
      <trkpt lat="44.1235" lon="2.2624">
        <ele>281.4</ele>
        <time>2016-05-04T16:31:11Z</time>
      </trkpt>
      <trkpt lat="44.1235" lon="2.2624">
        <ele>281.3</ele>
        <time>2016-05-04T16:31:12Z</time>
      </trkpt>
      <trkpt lat="44.1235" lon="2.2624">
        <ele>281.2</ele>
        <time>2016-05-04T16:31:13Z</time>
      </trkpt>
      <trkpt lat="44.12351" lon="2.2624">
        <ele>281.2</ele>
        <time>2016-05-04T16:31:14Z</time>
      </trkpt>
      <trkpt lat="44.12351" lon="2.26241">
        <ele>281.1</ele>
        <time>2016-05-04T16:31:15Z</time>
      </trkpt>
      <trkpt lat="44.12351" lon="2.26241">
        <ele>281.1</ele>
        <time>2016-05-04T16:31:16Z</time>
      </trkpt>
      <trkpt lat="44.12351" lon="2.26241">
        <ele>281</ele>
        <time>2016-05-04T16:31:17Z</time>
      </trkpt>
      <trkpt lat="44.12352" lon="2.26241">
        <ele>281</ele>
        <time>2016-05-04T16:31:18Z</time>
      </trkpt>
      <trkpt lat="44.12352" lon="2.26242">
        <ele>281</ele>
        <time>2016-05-04T16:31:19Z</time>
      </trkpt>
      <trkpt lat="44.12352" lon="2.26242">
        <ele>281</ele>
        <time>2016-05-04T16:31:20Z</time>
      </trkpt>
      <trkpt lat="44.12353" lon="2.26242">
        <ele>281</ele>
        <time>2016-05-04T16:31:21Z</time>
      </trkpt>
      <trkpt lat="44.12353" lon="2.26243">
        <ele>281</ele>
        <time>2016-05-04T16:31:22Z</time>
      </trkpt>
      <trkpt lat="44.12353" lon="2.26243">
        <ele>281</ele>
        <time>2016-05-04T16:31:23Z</time>
      </trkpt>
      <trkpt lat="44.12353" lon="2.26243">
        <ele>281</ele>
        <time>2016-05-04T16:31:24Z</time>
      </trkpt>
      <trkpt lat="44.12353" lon="2.26244">
        <ele>281</ele>
        <time>2016-05-04T16:31:25Z</time>
      </trkpt>
      <trkpt lat="44.12354" lon="2.26244">
        <ele>281</ele>
        <time>2016-05-04T16:31:26Z</time>
      </trkpt>
      <trkpt lat="44.12354" lon="2.26244">
        <ele>280.7</ele>
        <time>2016-05-04T16:31:27Z</time>
      </trkpt>
      <trkpt lat="44.12356" lon="2.26247">
        <ele>281.2</ele>
        <time>2016-05-04T16:31:44Z</time>
      </trkpt>
      <trkpt lat="44.12356" lon="2.26247">
        <ele>281.3</ele>
        <time>2016-05-04T16:31:45Z</time>
      </trkpt>
      <trkpt lat="44.12356" lon="2.26247">
        <ele>281.4</ele>
        <time>2016-05-04T16:31:46Z</time>
      </trkpt>
      <trkpt lat="44.12356" lon="2.26247">
        <ele>281.5</ele>
        <time>2016-05-04T16:31:47Z</time>
      </trkpt>
      <trkpt lat="44.12357" lon="2.26247">
        <ele>281.6</ele>
        <time>2016-05-04T16:31:48Z</time>
      </trkpt>
      <trkpt lat="44.12357" lon="2.26247">
        <ele>281.6</ele>
        <time>2016-05-04T16:31:49Z</time>
      </trkpt>
      <trkpt lat="44.12357" lon="2.26247">
        <ele>281.7</ele>
        <time>2016-05-04T16:31:50Z</time>
      </trkpt>
      <trkpt lat="44.12357" lon="2.26247">
        <ele>281.7</ele>
        <time>2016-05-04T16:31:51Z</time>
      </trkpt>
      <trkpt lat="44.12357" lon="2.26247">
        <ele>281.7</ele>
        <time>2016-05-04T16:31:52Z</time>
      </trkpt>
      <trkpt lat="44.12357" lon="2.26247">
        <ele>281.8</ele>
        <time>2016-05-04T16:31:53Z</time>
      </trkpt>
      <trkpt lat="44.12358" lon="2.26247">
        <ele>281.1</ele>
        <time>2016-05-04T16:31:59Z</time>
      </trkpt>
      <trkpt lat="44.12358" lon="2.26247">
        <ele>281.3</ele>
        <time>2016-05-04T16:32:00Z</time>
      </trkpt>
      <trkpt lat="44.12358" lon="2.26247">
        <ele>281.4</ele>
        <time>2016-05-04T16:32:01Z</time>
      </trkpt>
      <trkpt lat="44.12358" lon="2.26247">
        <ele>281.5</ele>
        <time>2016-05-04T16:32:02Z</time>
      </trkpt>
      <trkpt lat="44.12358" lon="2.26247">
        <ele>281.2</ele>
        <time>2016-05-04T16:32:03Z</time>
      </trkpt>
      <trkpt lat="44.12359" lon="2.26247">
        <ele>280.9</ele>
        <time>2016-05-04T16:32:04Z</time>
      </trkpt>
      <trkpt lat="44.12359" lon="2.26246">
        <ele>280.7</ele>
        <time>2016-05-04T16:32:05Z</time>
      </trkpt>
      <trkpt lat="44.12359" lon="2.26246">
        <ele>280.5</ele>
        <time>2016-05-04T16:32:06Z</time>
      </trkpt>
      <trkpt lat="44.12359" lon="2.26246">
        <ele>280.4</ele>
        <time>2016-05-04T16:32:07Z</time>
      </trkpt>
      <trkpt lat="44.12359" lon="2.26246">
        <ele>280.3</ele>
        <time>2016-05-04T16:32:08Z</time>
      </trkpt>
      <trkpt lat="44.12359" lon="2.26246">
        <ele>280.5</ele>
        <time>2016-05-04T16:32:09Z</time>
      </trkpt>
      <trkpt lat="44.1236" lon="2.26246">
        <ele>280.6</ele>
        <time>2016-05-04T16:32:10Z</time>
      </trkpt>
      <trkpt lat="44.1236" lon="2.26246">
        <ele>280.7</ele>
        <time>2016-05-04T16:32:11Z</time>
      </trkpt>
      <trkpt lat="44.1236" lon="2.26246">
        <ele>280.8</ele>
        <time>2016-05-04T16:32:12Z</time>
      </trkpt>
      <trkpt lat="44.1236" lon="2.26246">
        <ele>280.8</ele>
        <time>2016-05-04T16:32:13Z</time>
      </trkpt>
      <trkpt lat="44.1236" lon="2.26245">
        <ele>280.8</ele>
        <time>2016-05-04T16:32:14Z</time>
      </trkpt>
      <trkpt lat="44.1236" lon="2.26245">
        <ele>281.1</ele>
        <time>2016-05-04T16:32:15Z</time>
      </trkpt>
      <trkpt lat="44.1236" lon="2.26245">
        <ele>281.3</ele>
        <time>2016-05-04T16:32:16Z</time>
      </trkpt>
      <trkpt lat="44.1236" lon="2.26245">
        <ele>281.4</ele>
        <time>2016-05-04T16:32:17Z</time>
      </trkpt>
      <trkpt lat="44.1236" lon="2.26244">
        <ele>281.3</ele>
        <time>2016-05-04T16:32:18Z</time>
      </trkpt>
      <trkpt lat="44.1236" lon="2.26244">
        <ele>281.2</ele>
        <time>2016-05-04T16:32:19Z</time>
      </trkpt>
      <trkpt lat="44.1236" lon="2.26244">
        <ele>281.1</ele>
        <time>2016-05-04T16:32:20Z</time>
      </trkpt>
      <trkpt lat="44.1236" lon="2.26243">
        <ele>281.1</ele>
        <time>2016-05-04T16:32:21Z</time>
      </trkpt>
      <trkpt lat="44.1236" lon="2.26243">
        <ele>281.1</ele>
        <time>2016-05-04T16:32:22Z</time>
      </trkpt>
      <trkpt lat="44.1236" lon="2.26242">
        <ele>281</ele>
        <time>2016-05-04T16:32:23Z</time>
      </trkpt>
      <trkpt lat="44.12359" lon="2.26242">
        <ele>281</ele>
        <time>2016-05-04T16:32:24Z</time>
      </trkpt>
      <trkpt lat="44.12359" lon="2.26242">
        <ele>281</ele>
        <time>2016-05-04T16:32:25Z</time>
      </trkpt>
      <trkpt lat="44.12359" lon="2.26242">
        <ele>281</ele>
        <time>2016-05-04T16:32:26Z</time>
      </trkpt>
      <trkpt lat="44.12359" lon="2.26242">
        <ele>281.2</ele>
        <time>2016-05-04T16:32:27Z</time>
      </trkpt>
      <trkpt lat="44.12359" lon="2.26241">
        <ele>281.3</ele>
        <time>2016-05-04T16:32:28Z</time>
      </trkpt>
      <trkpt lat="44.12358" lon="2.26241">
        <ele>281.5</ele>
        <time>2016-05-04T16:32:29Z</time>
      </trkpt>
      <trkpt lat="44.12358" lon="2.26241">
        <ele>281.5</ele>
        <time>2016-05-04T16:32:30Z</time>
      </trkpt>
      <trkpt lat="44.12358" lon="2.26241">
        <ele>281.6</ele>
        <time>2016-05-04T16:32:31Z</time>
      </trkpt>
      <trkpt lat="44.12358" lon="2.2624">
        <ele>281.7</ele>
        <time>2016-05-04T16:32:32Z</time>
      </trkpt>
      <trkpt lat="44.12358" lon="2.2624">
        <ele>281.9</ele>
        <time>2016-05-04T16:32:33Z</time>
      </trkpt>
      <trkpt lat="44.12358" lon="2.2624">
        <ele>282.1</ele>
        <time>2016-05-04T16:32:34Z</time>
      </trkpt>
      <trkpt lat="44.12358" lon="2.2624">
        <ele>282.2</ele>
        <time>2016-05-04T16:32:35Z</time>
      </trkpt>
      <trkpt lat="44.12357" lon="2.2624">
        <ele>282.1</ele>
        <time>2016-05-04T16:32:36Z</time>
      </trkpt>
      <trkpt lat="44.12357" lon="2.2624">
        <ele>282</ele>
        <time>2016-05-04T16:32:37Z</time>
      </trkpt>
      <trkpt lat="44.12357" lon="2.2624">
        <ele>282</ele>
        <time>2016-05-04T16:32:38Z</time>
      </trkpt>
      <trkpt lat="44.12357" lon="2.2624">
        <ele>281.9</ele>
        <time>2016-05-04T16:32:39Z</time>
      </trkpt>
      <trkpt lat="44.12357" lon="2.2624">
        <ele>281.9</ele>
        <time>2016-05-04T16:32:40Z</time>
      </trkpt>
      <trkpt lat="44.12357" lon="2.2624">
        <ele>281.9</ele>
        <time>2016-05-04T16:32:41Z</time>
      </trkpt>
      <trkpt lat="44.12357" lon="2.26239">
        <ele>281.9</ele>
        <time>2016-05-04T16:32:42Z</time>
      </trkpt>
      <trkpt lat="44.12357" lon="2.26239">
        <ele>281.8</ele>
        <time>2016-05-04T16:32:43Z</time>
      </trkpt>
      <trkpt lat="44.12357" lon="2.26239">
        <ele>281.8</ele>
        <time>2016-05-04T16:32:44Z</time>
      </trkpt>
      <trkpt lat="44.12357" lon="2.26239">
        <ele>281.6</ele>
        <time>2016-05-04T16:32:45Z</time>
      </trkpt>
      <trkpt lat="44.12357" lon="2.26239">
        <ele>281.4</ele>
        <time>2016-05-04T16:32:46Z</time>
      </trkpt>
      <trkpt lat="44.12357" lon="2.2624">
        <ele>281.3</ele>
        <time>2016-05-04T16:32:47Z</time>
      </trkpt>
      <trkpt lat="44.12357" lon="2.2624">
        <ele>281.4</ele>
        <time>2016-05-04T16:32:48Z</time>
      </trkpt>
      <trkpt lat="44.12357" lon="2.2624">
        <ele>281.6</ele>
        <time>2016-05-04T16:32:50Z</time>
      </trkpt>
      <trkpt lat="44.12357" lon="2.26239">
        <ele>281.4</ele>
        <time>2016-05-04T16:32:51Z</time>
      </trkpt>
      <trkpt lat="44.12357" lon="2.26238">
        <ele>281.3</ele>
        <time>2016-05-04T16:32:52Z</time>
      </trkpt>
      <trkpt lat="44.12357" lon="2.26237">
        <ele>281.2</ele>
        <time>2016-05-04T16:32:53Z</time>
      </trkpt>
      <trkpt lat="44.12352" lon="2.2621">
        <ele>283.5</ele>
        <time>2016-05-04T16:33:14Z</time>
      </trkpt>
      <trkpt lat="44.12351" lon="2.26208">
        <ele>283.3</ele>
        <time>2016-05-04T16:33:15Z</time>
      </trkpt>
      <trkpt lat="44.12346" lon="2.26197">
        <ele>284</ele>
        <time>2016-05-04T16:33:26Z</time>
      </trkpt>
      <trkpt lat="44.12344" lon="2.26191">
        <ele>283.3</ele>
        <time>2016-05-04T16:33:31Z</time>
      </trkpt>
      <trkpt lat="44.12343" lon="2.26189">
        <ele>283.1</ele>
        <time>2016-05-04T16:33:32Z</time>
      </trkpt>
      <trkpt lat="44.12342" lon="2.26188">
        <ele>283</ele>
        <time>2016-05-04T16:33:33Z</time>
      </trkpt>
      <trkpt lat="44.12342" lon="2.26186">
        <ele>282.9</ele>
        <time>2016-05-04T16:33:34Z</time>
      </trkpt>
      <trkpt lat="44.12341" lon="2.26184">
        <ele>282.8</ele>
        <time>2016-05-04T16:33:35Z</time>
      </trkpt>
      <trkpt lat="44.12341" lon="2.26183">
        <ele>282.4</ele>
        <time>2016-05-04T16:33:36Z</time>
      </trkpt>
      <trkpt lat="44.12341" lon="2.26181">
        <ele>282</ele>
        <time>2016-05-04T16:33:37Z</time>
      </trkpt>
      <trkpt lat="44.1234" lon="2.2618">
        <ele>281.7</ele>
        <time>2016-05-04T16:33:38Z</time>
      </trkpt>
      <trkpt lat="44.1234" lon="2.26178">
        <ele>281.3</ele>
        <time>2016-05-04T16:33:39Z</time>
      </trkpt>
      <trkpt lat="44.12339" lon="2.26177">
        <ele>281</ele>
        <time>2016-05-04T16:33:40Z</time>
      </trkpt>
      <trkpt lat="44.12339" lon="2.26175">
        <ele>280.8</ele>
        <time>2016-05-04T16:33:41Z</time>
      </trkpt>
      <trkpt lat="44.12338" lon="2.26174">
        <ele>280.4</ele>
        <time>2016-05-04T16:33:42Z</time>
      </trkpt>
      <trkpt lat="44.12336" lon="2.26164">
        <ele>279.1</ele>
        <time>2016-05-04T16:33:48Z</time>
      </trkpt>
      <trkpt lat="44.12335" lon="2.26163">
        <ele>279.1</ele>
        <time>2016-05-04T16:33:49Z</time>
      </trkpt>
      <trkpt lat="44.12333" lon="2.26151">
        <ele>279.8</ele>
        <time>2016-05-04T16:33:58Z</time>
      </trkpt>
      <trkpt lat="44.12331" lon="2.26146">
        <ele>279.5</ele>
        <time>2016-05-04T16:34:01Z</time>
      </trkpt>
      <trkpt lat="44.12329" lon="2.26141">
        <ele>279.3</ele>
        <time>2016-05-04T16:34:04Z</time>
      </trkpt>
      <trkpt lat="44.12322" lon="2.26126">
        <ele>279.7</ele>
        <time>2016-05-04T16:34:14Z</time>
      </trkpt>
      <trkpt lat="44.12321" lon="2.26122">
        <ele>279.5</ele>
        <time>2016-05-04T16:34:16Z</time>
      </trkpt>
      <trkpt lat="44.12321" lon="2.2612">
        <ele>279.5</ele>
        <time>2016-05-04T16:34:17Z</time>
      </trkpt>
      <trkpt lat="44.1232" lon="2.26117">
        <ele>279.3</ele>
        <time>2016-05-04T16:34:20Z</time>
      </trkpt>
      <trkpt lat="44.12321" lon="2.26116">
        <ele>279.3</ele>
        <time>2016-05-04T16:34:21Z</time>
      </trkpt>
      <trkpt lat="44.12321" lon="2.26115">
        <ele>279.3</ele>
        <time>2016-05-04T16:34:22Z</time>
      </trkpt>
      <trkpt lat="44.12321" lon="2.26115">
        <ele>279.3</ele>
        <time>2016-05-04T16:34:23Z</time>
      </trkpt>
      <trkpt lat="44.1232" lon="2.26114">
        <ele>279.3</ele>
        <time>2016-05-04T16:34:24Z</time>
      </trkpt>
      <trkpt lat="44.1232" lon="2.26113">
        <ele>279.3</ele>
        <time>2016-05-04T16:34:25Z</time>
      </trkpt>
      <trkpt lat="44.1232" lon="2.26112">
        <ele>279.3</ele>
        <time>2016-05-04T16:34:26Z</time>
      </trkpt>
      <trkpt lat="44.1232" lon="2.26111">
        <ele>279.3</ele>
        <time>2016-05-04T16:34:27Z</time>
      </trkpt>
      <trkpt lat="44.12319" lon="2.2611">
        <ele>279.3</ele>
        <time>2016-05-04T16:34:28Z</time>
      </trkpt>
      <trkpt lat="44.12319" lon="2.2611">
        <ele>279.3</ele>
        <time>2016-05-04T16:34:29Z</time>
      </trkpt>
      <trkpt lat="44.12319" lon="2.26109">
        <ele>279</ele>
        <time>2016-05-04T16:34:30Z</time>
      </trkpt>
      <trkpt lat="44.12319" lon="2.26109">
        <ele>278.9</ele>
        <time>2016-05-04T16:34:31Z</time>
      </trkpt>
      <trkpt lat="44.12319" lon="2.26109">
        <ele>278.8</ele>
        <time>2016-05-04T16:34:32Z</time>
      </trkpt>
      <trkpt lat="44.12319" lon="2.26108">
        <ele>278.9</ele>
        <time>2016-05-04T16:34:33Z</time>
      </trkpt>
      <trkpt lat="44.12319" lon="2.26108">
        <ele>279</ele>
        <time>2016-05-04T16:34:34Z</time>
      </trkpt>
      <trkpt lat="44.12318" lon="2.26108">
        <ele>279</ele>
        <time>2016-05-04T16:34:35Z</time>
      </trkpt>
      <trkpt lat="44.12318" lon="2.26107">
        <ele>278.9</ele>
        <time>2016-05-04T16:34:36Z</time>
      </trkpt>
      <trkpt lat="44.12318" lon="2.26107">
        <ele>278.8</ele>
        <time>2016-05-04T16:34:37Z</time>
      </trkpt>
      <trkpt lat="44.12318" lon="2.26107">
        <ele>278.7</ele>
        <time>2016-05-04T16:34:38Z</time>
      </trkpt>
      <trkpt lat="44.12318" lon="2.26106">
        <ele>278.8</ele>
        <time>2016-05-04T16:34:39Z</time>
      </trkpt>
      <trkpt lat="44.12318" lon="2.26106">
        <ele>278.9</ele>
        <time>2016-05-04T16:34:40Z</time>
      </trkpt>
      <trkpt lat="44.12317" lon="2.26106">
        <ele>279</ele>
        <time>2016-05-04T16:34:41Z</time>
      </trkpt>
      <trkpt lat="44.12317" lon="2.26105">
        <ele>278.9</ele>
        <time>2016-05-04T16:34:42Z</time>
      </trkpt>
      <trkpt lat="44.12317" lon="2.26105">
        <ele>278.7</ele>
        <time>2016-05-04T16:34:43Z</time>
      </trkpt>
      <trkpt lat="44.12317" lon="2.26104">
        <ele>278.7</ele>
        <time>2016-05-04T16:34:44Z</time>
      </trkpt>
      <trkpt lat="44.12317" lon="2.26104">
        <ele>279</ele>
        <time>2016-05-04T16:34:45Z</time>
      </trkpt>
      <trkpt lat="44.12318" lon="2.26103">
        <ele>279.3</ele>
        <time>2016-05-04T16:34:46Z</time>
      </trkpt>
      <trkpt lat="44.12318" lon="2.26097">
        <ele>280.3</ele>
        <time>2016-05-04T16:34:50Z</time>
      </trkpt>
      <trkpt lat="44.12317" lon="2.26096">
        <ele>280.3</ele>
        <time>2016-05-04T16:34:51Z</time>
      </trkpt>
      <trkpt lat="44.12317" lon="2.26094">
        <ele>280.2</ele>
        <time>2016-05-04T16:34:52Z</time>
      </trkpt>
      <trkpt lat="44.12317" lon="2.26092">
        <ele>280.2</ele>
        <time>2016-05-04T16:34:53Z</time>
      </trkpt>
      <trkpt lat="44.12317" lon="2.26091">
        <ele>280.4</ele>
        <time>2016-05-04T16:34:54Z</time>
      </trkpt>
      <trkpt lat="44.12316" lon="2.26089">
        <ele>280.5</ele>
        <time>2016-05-04T16:34:55Z</time>
      </trkpt>
      <trkpt lat="44.12316" lon="2.26087">
        <ele>280.6</ele>
        <time>2016-05-04T16:34:56Z</time>
      </trkpt>
      <trkpt lat="44.12316" lon="2.26086">
        <ele>280.7</ele>
        <time>2016-05-04T16:34:57Z</time>
      </trkpt>
      <trkpt lat="44.12315" lon="2.26084">
        <ele>280.8</ele>
        <time>2016-05-04T16:34:58Z</time>
      </trkpt>
      <trkpt lat="44.12315" lon="2.26083">
        <ele>280.8</ele>
        <time>2016-05-04T16:34:59Z</time>
      </trkpt>
      <trkpt lat="44.12315" lon="2.26081">
        <ele>280.6</ele>
        <time>2016-05-04T16:35:00Z</time>
      </trkpt>
      <trkpt lat="44.12315" lon="2.26077">
        <ele>280.5</ele>
        <time>2016-05-04T16:35:03Z</time>
      </trkpt>
      <trkpt lat="44.12316" lon="2.26064">
        <ele>280.6</ele>
        <time>2016-05-04T16:35:10Z</time>
      </trkpt>
      <trkpt lat="44.12317" lon="2.26037">
        <ele>281.3</ele>
        <time>2016-05-04T16:35:25Z</time>
      </trkpt>
      <trkpt lat="44.12317" lon="2.26036">
        <ele>281.5</ele>
        <time>2016-05-04T16:35:26Z</time>
      </trkpt>
      <trkpt lat="44.12318" lon="2.26033">
        <ele>281.6</ele>
        <time>2016-05-04T16:35:28Z</time>
      </trkpt>
      <trkpt lat="44.12322" lon="2.26023">
        <ele>281.5</ele>
        <time>2016-05-04T16:35:34Z</time>
      </trkpt>
      <trkpt lat="44.12322" lon="2.26022">
        <ele>281.6</ele>
        <time>2016-05-04T16:35:35Z</time>
      </trkpt>
      <trkpt lat="44.12322" lon="2.26021">
        <ele>281.6</ele>
        <time>2016-05-04T16:35:36Z</time>
      </trkpt>
      <trkpt lat="44.12322" lon="2.2602">
        <ele>281.7</ele>
        <time>2016-05-04T16:35:37Z</time>
      </trkpt>
      <trkpt lat="44.12322" lon="2.2602">
        <ele>281.7</ele>
        <time>2016-05-04T16:35:38Z</time>
      </trkpt>
      <trkpt lat="44.12322" lon="2.26019">
        <ele>281.7</ele>
        <time>2016-05-04T16:35:39Z</time>
      </trkpt>
      <trkpt lat="44.12322" lon="2.26019">
        <ele>281.7</ele>
        <time>2016-05-04T16:35:40Z</time>
      </trkpt>
      <trkpt lat="44.12322" lon="2.26019">
        <ele>281.8</ele>
        <time>2016-05-04T16:35:41Z</time>
      </trkpt>
      <trkpt lat="44.12322" lon="2.26019">
        <ele>281.8</ele>
        <time>2016-05-04T16:35:42Z</time>
      </trkpt>
      <trkpt lat="44.12322" lon="2.26018">
        <ele>281.8</ele>
        <time>2016-05-04T16:35:43Z</time>
      </trkpt>
      <trkpt lat="44.12321" lon="2.26018">
        <ele>281.8</ele>
        <time>2016-05-04T16:35:44Z</time>
      </trkpt>
      <trkpt lat="44.12321" lon="2.26017">
        <ele>282.2</ele>
        <time>2016-05-04T16:35:45Z</time>
      </trkpt>
      <trkpt lat="44.12321" lon="2.26016">
        <ele>282.5</ele>
        <time>2016-05-04T16:35:46Z</time>
      </trkpt>
      <trkpt lat="44.12321" lon="2.26014">
        <ele>282.8</ele>
        <time>2016-05-04T16:35:47Z</time>
      </trkpt>
      <trkpt lat="44.12322" lon="2.26012">
        <ele>282.7</ele>
        <time>2016-05-04T16:35:48Z</time>
      </trkpt>
      <trkpt lat="44.12322" lon="2.26011">
        <ele>282.7</ele>
        <time>2016-05-04T16:35:49Z</time>
      </trkpt>
      <trkpt lat="44.12323" lon="2.26008">
        <ele>282.9</ele>
        <time>2016-05-04T16:35:51Z</time>
      </trkpt>
      <trkpt lat="44.12323" lon="2.26006">
        <ele>283.1</ele>
        <time>2016-05-04T16:35:52Z</time>
      </trkpt>
      <trkpt lat="44.12325" lon="2.26004">
        <ele>283.2</ele>
        <time>2016-05-04T16:35:54Z</time>
      </trkpt>
      <trkpt lat="44.1233" lon="2.2599">
        <ele>284.9</ele>
        <time>2016-05-04T16:36:05Z</time>
      </trkpt>
      <trkpt lat="44.1233" lon="2.25989">
        <ele>285</ele>
        <time>2016-05-04T16:36:06Z</time>
      </trkpt>
      <trkpt lat="44.1233" lon="2.25989">
        <ele>285</ele>
        <time>2016-05-04T16:36:07Z</time>
      </trkpt>
      <trkpt lat="44.1233" lon="2.25989">
        <ele>285.1</ele>
        <time>2016-05-04T16:36:08Z</time>
      </trkpt>
      <trkpt lat="44.1233" lon="2.25988">
        <ele>285.5</ele>
        <time>2016-05-04T16:36:09Z</time>
      </trkpt>
      <trkpt lat="44.1233" lon="2.25988">
        <ele>285.9</ele>
        <time>2016-05-04T16:36:10Z</time>
      </trkpt>
      <trkpt lat="44.12331" lon="2.25988">
        <ele>286.1</ele>
        <time>2016-05-04T16:36:11Z</time>
      </trkpt>
      <trkpt lat="44.12331" lon="2.25988">
        <ele>285.9</ele>
        <time>2016-05-04T16:36:12Z</time>
      </trkpt>
      <trkpt lat="44.12335" lon="2.25983">
        <ele>285.7</ele>
        <time>2016-05-04T16:36:18Z</time>
      </trkpt>
      <trkpt lat="44.12338" lon="2.2598">
        <ele>286.5</ele>
        <time>2016-05-04T16:36:22Z</time>
      </trkpt>
      <trkpt lat="44.12339" lon="2.25979">
        <ele>286.6</ele>
        <time>2016-05-04T16:36:23Z</time>
      </trkpt>
      <trkpt lat="44.12346" lon="2.25964">
        <ele>288.8</ele>
        <time>2016-05-04T16:36:34Z</time>
      </trkpt>
      <trkpt lat="44.12347" lon="2.25963">
        <ele>289</ele>
        <time>2016-05-04T16:36:35Z</time>
      </trkpt>
      <trkpt lat="44.12356" lon="2.25941">
        <ele>292.2</ele>
        <time>2016-05-04T16:36:51Z</time>
      </trkpt>
      <trkpt lat="44.12359" lon="2.25932">
        <ele>293.8</ele>
        <time>2016-05-04T16:36:58Z</time>
      </trkpt>
      <trkpt lat="44.12363" lon="2.25913">
        <ele>295.2</ele>
        <time>2016-05-04T16:37:13Z</time>
      </trkpt>
      <trkpt lat="44.12364" lon="2.25911">
        <ele>295.3</ele>
        <time>2016-05-04T16:37:14Z</time>
      </trkpt>
      <trkpt lat="44.12365" lon="2.25906">
        <ele>294.9</ele>
        <time>2016-05-04T16:37:17Z</time>
      </trkpt>
      <trkpt lat="44.12367" lon="2.25898">
        <ele>296.7</ele>
        <time>2016-05-04T16:37:22Z</time>
      </trkpt>
      <trkpt lat="44.12368" lon="2.25884">
        <ele>297.8</ele>
        <time>2016-05-04T16:37:30Z</time>
      </trkpt>
      <trkpt lat="44.12369" lon="2.25876">
        <ele>298.9</ele>
        <time>2016-05-04T16:37:35Z</time>
      </trkpt>
      <trkpt lat="44.1237" lon="2.25875">
        <ele>298.7</ele>
        <time>2016-05-04T16:37:36Z</time>
      </trkpt>
      <trkpt lat="44.12377" lon="2.25839">
        <ele>301.8</ele>
        <time>2016-05-04T16:38:00Z</time>
      </trkpt>
      <trkpt lat="44.12377" lon="2.25837">
        <ele>302.1</ele>
        <time>2016-05-04T16:38:01Z</time>
      </trkpt>
      <trkpt lat="44.12378" lon="2.25828">
        <ele>303.3</ele>
        <time>2016-05-04T16:38:07Z</time>
      </trkpt>
      <trkpt lat="44.12388" lon="2.25779">
        <ele>307.7</ele>
        <time>2016-05-04T16:38:40Z</time>
      </trkpt>
      <trkpt lat="44.12388" lon="2.25777">
        <ele>307.8</ele>
        <time>2016-05-04T16:38:41Z</time>
      </trkpt>
      <trkpt lat="44.12389" lon="2.25775">
        <ele>308</ele>
        <time>2016-05-04T16:38:43Z</time>
      </trkpt>
      <trkpt lat="44.12404" lon="2.25735">
        <ele>312.2</ele>
        <time>2016-05-04T16:39:13Z</time>
      </trkpt>
      <trkpt lat="44.12408" lon="2.25725">
        <ele>314.3</ele>
        <time>2016-05-04T16:39:23Z</time>
      </trkpt>
      <trkpt lat="44.12408" lon="2.25725">
        <ele>314.3</ele>
        <time>2016-05-04T16:39:24Z</time>
      </trkpt>
      <trkpt lat="44.12408" lon="2.25724">
        <ele>314.2</ele>
        <time>2016-05-04T16:39:25Z</time>
      </trkpt>
      <trkpt lat="44.12408" lon="2.25724">
        <ele>314.2</ele>
        <time>2016-05-04T16:39:26Z</time>
      </trkpt>
      <trkpt lat="44.12408" lon="2.25724">
        <ele>314.4</ele>
        <time>2016-05-04T16:39:27Z</time>
      </trkpt>
      <trkpt lat="44.12408" lon="2.25724">
        <ele>314.6</ele>
        <time>2016-05-04T16:39:28Z</time>
      </trkpt>
      <trkpt lat="44.12408" lon="2.25724">
        <ele>314.7</ele>
        <time>2016-05-04T16:39:29Z</time>
      </trkpt>
      <trkpt lat="44.12408" lon="2.25724">
        <ele>314.5</ele>
        <time>2016-05-04T16:39:30Z</time>
      </trkpt>
      <trkpt lat="44.12407" lon="2.25724">
        <ele>314.4</ele>
        <time>2016-05-04T16:39:31Z</time>
      </trkpt>
      <trkpt lat="44.12407" lon="2.25724">
        <ele>314.4</ele>
        <time>2016-05-04T16:39:32Z</time>
      </trkpt>
      <trkpt lat="44.12407" lon="2.25724">
        <ele>314.5</ele>
        <time>2016-05-04T16:39:33Z</time>
      </trkpt>
      <trkpt lat="44.12407" lon="2.25724">
        <ele>314.7</ele>
        <time>2016-05-04T16:39:34Z</time>
      </trkpt>
      <trkpt lat="44.12407" lon="2.25723">
        <ele>314.7</ele>
        <time>2016-05-04T16:39:35Z</time>
      </trkpt>
      <trkpt lat="44.12407" lon="2.25723">
        <ele>314.6</ele>
        <time>2016-05-04T16:39:36Z</time>
      </trkpt>
      <trkpt lat="44.12407" lon="2.25723">
        <ele>314.5</ele>
        <time>2016-05-04T16:39:37Z</time>
      </trkpt>
      <trkpt lat="44.12408" lon="2.25723">
        <ele>314.4</ele>
        <time>2016-05-04T16:39:38Z</time>
      </trkpt>
      <trkpt lat="44.12408" lon="2.25723">
        <ele>314.6</ele>
        <time>2016-05-04T16:39:39Z</time>
      </trkpt>
      <trkpt lat="44.12408" lon="2.25723">
        <ele>314.7</ele>
        <time>2016-05-04T16:39:40Z</time>
      </trkpt>
      <trkpt lat="44.12408" lon="2.25723">
        <ele>314.8</ele>
        <time>2016-05-04T16:39:41Z</time>
      </trkpt>
      <trkpt lat="44.12408" lon="2.25722">
        <ele>314.4</ele>
        <time>2016-05-04T16:39:42Z</time>
      </trkpt>
      <trkpt lat="44.12409" lon="2.25721">
        <ele>314.1</ele>
        <time>2016-05-04T16:39:43Z</time>
      </trkpt>
      <trkpt lat="44.12409" lon="2.2572">
        <ele>313.9</ele>
        <time>2016-05-04T16:39:44Z</time>
      </trkpt>
      <trkpt lat="44.1241" lon="2.25719">
        <ele>314.2</ele>
        <time>2016-05-04T16:39:45Z</time>
      </trkpt>
      <trkpt lat="44.12411" lon="2.25718">
        <ele>314.4</ele>
        <time>2016-05-04T16:39:46Z</time>
      </trkpt>
      <trkpt lat="44.12411" lon="2.25716">
        <ele>314.5</ele>
        <time>2016-05-04T16:39:47Z</time>
      </trkpt>
      <trkpt lat="44.12418" lon="2.25696">
        <ele>315.3</ele>
        <time>2016-05-04T16:40:01Z</time>
      </trkpt>
      <trkpt lat="44.12418" lon="2.25695">
        <ele>315.2</ele>
        <time>2016-05-04T16:40:02Z</time>
      </trkpt>
      <trkpt lat="44.12419" lon="2.25692">
        <ele>315.6</ele>
        <time>2016-05-04T16:40:05Z</time>
      </trkpt>
      <trkpt lat="44.12419" lon="2.25691">
        <ele>315.9</ele>
        <time>2016-05-04T16:40:06Z</time>
      </trkpt>
      <trkpt lat="44.12419" lon="2.25691">
        <ele>316.1</ele>
        <time>2016-05-04T16:40:07Z</time>
      </trkpt>
      <trkpt lat="44.12419" lon="2.25691">
        <ele>316.2</ele>
        <time>2016-05-04T16:40:08Z</time>
      </trkpt>
      <trkpt lat="44.12419" lon="2.25691">
        <ele>316.4</ele>
        <time>2016-05-04T16:40:09Z</time>
      </trkpt>
      <trkpt lat="44.12419" lon="2.25691">
        <ele>316.5</ele>
        <time>2016-05-04T16:40:10Z</time>
      </trkpt>
      <trkpt lat="44.12419" lon="2.25691">
        <ele>316.5</ele>
        <time>2016-05-04T16:40:11Z</time>
      </trkpt>
      <trkpt lat="44.12419" lon="2.25691">
        <ele>316.8</ele>
        <time>2016-05-04T16:40:12Z</time>
      </trkpt>
      <trkpt lat="44.12419" lon="2.25691">
        <ele>317</ele>
        <time>2016-05-04T16:40:13Z</time>
      </trkpt>
      <trkpt lat="44.12419" lon="2.25691">
        <ele>317.1</ele>
        <time>2016-05-04T16:40:14Z</time>
      </trkpt>
      <trkpt lat="44.12419" lon="2.25691">
        <ele>317.2</ele>
        <time>2016-05-04T16:40:15Z</time>
      </trkpt>
      <trkpt lat="44.12419" lon="2.25691">
        <ele>317.3</ele>
        <time>2016-05-04T16:40:16Z</time>
      </trkpt>
      <trkpt lat="44.12419" lon="2.25691">
        <ele>317.4</ele>
        <time>2016-05-04T16:40:17Z</time>
      </trkpt>
      <trkpt lat="44.12419" lon="2.25692">
        <ele>317</ele>
        <time>2016-05-04T16:40:20Z</time>
      </trkpt>
      <trkpt lat="44.1242" lon="2.25691">
        <ele>317.1</ele>
        <time>2016-05-04T16:40:21Z</time>
      </trkpt>
      <trkpt lat="44.1242" lon="2.25689">
        <ele>317.2</ele>
        <time>2016-05-04T16:40:22Z</time>
      </trkpt>
      <trkpt lat="44.1242" lon="2.25688">
        <ele>317.3</ele>
        <time>2016-05-04T16:40:23Z</time>
      </trkpt>
      <trkpt lat="44.12421" lon="2.25686">
        <ele>317.8</ele>
        <time>2016-05-04T16:40:24Z</time>
      </trkpt>
      <trkpt lat="44.12421" lon="2.25685">
        <ele>318.2</ele>
        <time>2016-05-04T16:40:25Z</time>
      </trkpt>
      <trkpt lat="44.12422" lon="2.25684">
        <ele>318.5</ele>
        <time>2016-05-04T16:40:26Z</time>
      </trkpt>
      <trkpt lat="44.12423" lon="2.25681">
        <ele>318.4</ele>
        <time>2016-05-04T16:40:28Z</time>
      </trkpt>
      <trkpt lat="44.12425" lon="2.25672">
        <ele>319.1</ele>
        <time>2016-05-04T16:40:34Z</time>
      </trkpt>
      <trkpt lat="44.12426" lon="2.25671">
        <ele>319.1</ele>
        <time>2016-05-04T16:40:35Z</time>
      </trkpt>
      <trkpt lat="44.1243" lon="2.25634">
        <ele>322.3</ele>
        <time>2016-05-04T16:40:58Z</time>
      </trkpt>
      <trkpt lat="44.1243" lon="2.25632">
        <ele>322.4</ele>
        <time>2016-05-04T16:40:59Z</time>
      </trkpt>
      <trkpt lat="44.12431" lon="2.256">
        <ele>324.9</ele>
        <time>2016-05-04T16:41:20Z</time>
      </trkpt>
      <trkpt lat="44.12431" lon="2.25588">
        <ele>327.1</ele>
        <time>2016-05-04T16:41:28Z</time>
      </trkpt>
      <trkpt lat="44.12431" lon="2.25579">
        <ele>327.1</ele>
        <time>2016-05-04T16:41:34Z</time>
      </trkpt>
      <trkpt lat="44.12432" lon="2.25578">
        <ele>327.4</ele>
        <time>2016-05-04T16:41:36Z</time>
      </trkpt>
      <trkpt lat="44.12433" lon="2.25578">
        <ele>327.5</ele>
        <time>2016-05-04T16:41:37Z</time>
      </trkpt>
      <trkpt lat="44.12434" lon="2.25578">
        <ele>327.6</ele>
        <time>2016-05-04T16:41:38Z</time>
      </trkpt>
      <trkpt lat="44.12434" lon="2.25578">
        <ele>327.9</ele>
        <time>2016-05-04T16:41:39Z</time>
      </trkpt>
      <trkpt lat="44.12434" lon="2.2558">
        <ele>328.1</ele>
        <time>2016-05-04T16:41:40Z</time>
      </trkpt>
      <trkpt lat="44.12435" lon="2.25581">
        <ele>328.2</ele>
        <time>2016-05-04T16:41:41Z</time>
      </trkpt>
      <trkpt lat="44.12435" lon="2.25583">
        <ele>328.3</ele>
        <time>2016-05-04T16:41:42Z</time>
      </trkpt>
      <trkpt lat="44.12435" lon="2.25584">
        <ele>328.4</ele>
        <time>2016-05-04T16:41:42Z</time>
      </trkpt>
      <trkpt lat="44.12435" lon="2.25586">
        <ele>328.5</ele>
        <time>2016-05-04T16:41:43Z</time>
      </trkpt>
      <trkpt lat="44.12435" lon="2.25587">
        <ele>328.5</ele>
        <time>2016-05-04T16:41:44Z</time>
      </trkpt>
      <trkpt lat="44.12435" lon="2.25588">
        <ele>328.6</ele>
        <time>2016-05-04T16:41:45Z</time>
      </trkpt>
      <trkpt lat="44.12435" lon="2.2559">
        <ele>328.6</ele>
        <time>2016-05-04T16:41:46Z</time>
      </trkpt>
      <trkpt lat="44.12435" lon="2.25591">
        <ele>329.2</ele>
        <time>2016-05-04T16:41:47Z</time>
      </trkpt>
      <trkpt lat="44.12435" lon="2.25593">
        <ele>329.7</ele>
        <time>2016-05-04T16:41:48Z</time>
      </trkpt>
      <trkpt lat="44.12435" lon="2.25594">
        <ele>330.1</ele>
        <time>2016-05-04T16:41:49Z</time>
      </trkpt>
      <trkpt lat="44.12436" lon="2.25595">
        <ele>330</ele>
        <time>2016-05-04T16:41:50Z</time>
      </trkpt>
      <trkpt lat="44.12438" lon="2.25609">
        <ele>330.1</ele>
        <time>2016-05-04T16:41:59Z</time>
      </trkpt>
      <trkpt lat="44.12438" lon="2.2561">
        <ele>330.2</ele>
        <time>2016-05-04T16:42:00Z</time>
      </trkpt>
      <trkpt lat="44.12441" lon="2.25637">
        <ele>332.6</ele>
        <time>2016-05-04T16:42:19Z</time>
      </trkpt>
      <trkpt lat="44.12441" lon="2.25638">
        <ele>332.9</ele>
        <time>2016-05-04T16:42:20Z</time>
      </trkpt>
      <trkpt lat="44.12441" lon="2.25637">
        <ele>333.1</ele>
        <time>2016-05-04T16:42:21Z</time>
      </trkpt>
      <trkpt lat="44.12441" lon="2.25637">
        <ele>333.3</ele>
        <time>2016-05-04T16:42:22Z</time>
      </trkpt>
      <trkpt lat="44.12441" lon="2.25637">
        <ele>333.2</ele>
        <time>2016-05-04T16:42:23Z</time>
      </trkpt>
      <trkpt lat="44.12441" lon="2.25637">
        <ele>333.1</ele>
        <time>2016-05-04T16:42:24Z</time>
      </trkpt>
      <trkpt lat="44.12441" lon="2.25637">
        <ele>333.1</ele>
        <time>2016-05-04T16:42:25Z</time>
      </trkpt>
      <trkpt lat="44.12441" lon="2.25637">
        <ele>332.8</ele>
        <time>2016-05-04T16:42:26Z</time>
      </trkpt>
      <trkpt lat="44.12441" lon="2.25637">
        <ele>332.6</ele>
        <time>2016-05-04T16:42:27Z</time>
      </trkpt>
      <trkpt lat="44.12441" lon="2.25638">
        <ele>332.5</ele>
        <time>2016-05-04T16:42:28Z</time>
      </trkpt>
      <trkpt lat="44.12441" lon="2.25638">
        <ele>332.8</ele>
        <time>2016-05-04T16:42:29Z</time>
      </trkpt>
      <trkpt lat="44.12442" lon="2.25642">
        <ele>333.2</ele>
        <time>2016-05-04T16:42:32Z</time>
      </trkpt>
      <trkpt lat="44.12444" lon="2.25666">
        <ele>334.7</ele>
        <time>2016-05-04T16:42:50Z</time>
      </trkpt>
      <trkpt lat="44.12444" lon="2.25667">
        <ele>335</ele>
        <time>2016-05-04T16:42:52Z</time>
      </trkpt>
      <trkpt lat="44.12444" lon="2.25668">
        <ele>335.1</ele>
        <time>2016-05-04T16:42:53Z</time>
      </trkpt>
      <trkpt lat="44.12444" lon="2.25668">
        <ele>335.2</ele>
        <time>2016-05-04T16:42:54Z</time>
      </trkpt>
      <trkpt lat="44.12444" lon="2.25668">
        <ele>335.3</ele>
        <time>2016-05-04T16:42:55Z</time>
      </trkpt>
      <trkpt lat="44.12444" lon="2.25668">
        <ele>335.6</ele>
        <time>2016-05-04T16:42:56Z</time>
      </trkpt>
      <trkpt lat="44.12444" lon="2.25669">
        <ele>335.8</ele>
        <time>2016-05-04T16:42:57Z</time>
      </trkpt>
      <trkpt lat="44.12444" lon="2.25669">
        <ele>335.9</ele>
        <time>2016-05-04T16:42:58Z</time>
      </trkpt>
      <trkpt lat="44.12444" lon="2.25669">
        <ele>336</ele>
        <time>2016-05-04T16:42:59Z</time>
      </trkpt>
      <trkpt lat="44.12444" lon="2.2567">
        <ele>336.1</ele>
        <time>2016-05-04T16:43:00Z</time>
      </trkpt>
      <trkpt lat="44.12444" lon="2.2567">
        <ele>336.2</ele>
        <time>2016-05-04T16:43:01Z</time>
      </trkpt>
      <trkpt lat="44.12444" lon="2.2567">
        <ele>336.2</ele>
        <time>2016-05-04T16:43:02Z</time>
      </trkpt>
      <trkpt lat="44.12444" lon="2.2567">
        <ele>336.3</ele>
        <time>2016-05-04T16:43:03Z</time>
      </trkpt>
      <trkpt lat="44.12445" lon="2.2567">
        <ele>336.3</ele>
        <time>2016-05-04T16:43:04Z</time>
      </trkpt>
      <trkpt lat="44.12445" lon="2.2567">
        <ele>336.3</ele>
        <time>2016-05-04T16:43:05Z</time>
      </trkpt>
      <trkpt lat="44.12445" lon="2.2567">
        <ele>336.3</ele>
        <time>2016-05-04T16:43:06Z</time>
      </trkpt>
      <trkpt lat="44.12445" lon="2.25671">
        <ele>336.3</ele>
        <time>2016-05-04T16:43:07Z</time>
      </trkpt>
      <trkpt lat="44.12445" lon="2.25672">
        <ele>336.3</ele>
        <time>2016-05-04T16:43:08Z</time>
      </trkpt>
      <trkpt lat="44.12446" lon="2.25673">
        <ele>336.3</ele>
        <time>2016-05-04T16:43:09Z</time>
      </trkpt>
      <trkpt lat="44.12446" lon="2.25674">
        <ele>336.3</ele>
        <time>2016-05-04T16:43:10Z</time>
      </trkpt>
      <trkpt lat="44.12447" lon="2.25675">
        <ele>336.3</ele>
        <time>2016-05-04T16:43:11Z</time>
      </trkpt>
      <trkpt lat="44.12447" lon="2.25677">
        <ele>336.3</ele>
        <time>2016-05-04T16:43:12Z</time>
      </trkpt>
      <trkpt lat="44.12447" lon="2.25678">
        <ele>336.3</ele>
        <time>2016-05-04T16:43:13Z</time>
      </trkpt>
      <trkpt lat="44.12448" lon="2.25679">
        <ele>336.6</ele>
        <time>2016-05-04T16:43:14Z</time>
      </trkpt>
      <trkpt lat="44.12448" lon="2.25685">
        <ele>337</ele>
        <time>2016-05-04T16:43:18Z</time>
      </trkpt>
      <trkpt lat="44.1245" lon="2.25711">
        <ele>340.1</ele>
        <time>2016-05-04T16:43:39Z</time>
      </trkpt>
      <trkpt lat="44.12451" lon="2.25711">
        <ele>340.2</ele>
        <time>2016-05-04T16:43:40Z</time>
      </trkpt>
      <trkpt lat="44.12452" lon="2.2571">
        <ele>340.3</ele>
        <time>2016-05-04T16:43:41Z</time>
      </trkpt>
      <trkpt lat="44.12452" lon="2.25709">
        <ele>340.4</ele>
        <time>2016-05-04T16:43:42Z</time>
      </trkpt>
      <trkpt lat="44.12452" lon="2.25708">
        <ele>340.4</ele>
        <time>2016-05-04T16:43:43Z</time>
      </trkpt>
      <trkpt lat="44.12452" lon="2.25708">
        <ele>340.7</ele>
        <time>2016-05-04T16:43:44Z</time>
      </trkpt>
      <trkpt lat="44.12452" lon="2.25708">
        <ele>340.9</ele>
        <time>2016-05-04T16:43:45Z</time>
      </trkpt>
      <trkpt lat="44.12452" lon="2.25708">
        <ele>341</ele>
        <time>2016-05-04T16:43:46Z</time>
      </trkpt>
      <trkpt lat="44.12452" lon="2.25708">
        <ele>341.2</ele>
        <time>2016-05-04T16:43:47Z</time>
      </trkpt>
      <trkpt lat="44.12452" lon="2.25708">
        <ele>341.2</ele>
        <time>2016-05-04T16:43:48Z</time>
      </trkpt>
      <trkpt lat="44.12453" lon="2.25703">
        <ele>341.9</ele>
        <time>2016-05-04T16:43:52Z</time>
      </trkpt>
      <trkpt lat="44.1246" lon="2.25672">
        <ele>344.7</ele>
        <time>2016-05-04T16:44:12Z</time>
      </trkpt>
      <trkpt lat="44.12461" lon="2.2567">
        <ele>344.7</ele>
        <time>2016-05-04T16:44:13Z</time>
      </trkpt>
      <trkpt lat="44.12466" lon="2.25642">
        <ele>348.1</ele>
        <time>2016-05-04T16:44:30Z</time>
      </trkpt>
      <trkpt lat="44.12467" lon="2.25632">
        <ele>348.3</ele>
        <time>2016-05-04T16:44:37Z</time>
      </trkpt>
      <trkpt lat="44.12468" lon="2.25626">
        <ele>349.5</ele>
        <time>2016-05-04T16:44:41Z</time>
      </trkpt>
      <trkpt lat="44.12468" lon="2.2561">
        <ele>350.4</ele>
        <time>2016-05-04T16:44:51Z</time>
      </trkpt>
      <trkpt lat="44.12467" lon="2.25608">
        <ele>350.3</ele>
        <time>2016-05-04T16:44:52Z</time>
      </trkpt>
      <trkpt lat="44.12467" lon="2.256">
        <ele>351.7</ele>
        <time>2016-05-04T16:44:58Z</time>
      </trkpt>
      <trkpt lat="44.12467" lon="2.25591">
        <ele>352.8</ele>
        <time>2016-05-04T16:45:03Z</time>
      </trkpt>
      <trkpt lat="44.12468" lon="2.25571">
        <ele>353</ele>
        <time>2016-05-04T16:45:15Z</time>
      </trkpt>
      <trkpt lat="44.12469" lon="2.2557">
        <ele>353.2</ele>
        <time>2016-05-04T16:45:16Z</time>
      </trkpt>
      <trkpt lat="44.12474" lon="2.25556">
        <ele>353.9</ele>
        <time>2016-05-04T16:45:25Z</time>
      </trkpt>
      <trkpt lat="44.12477" lon="2.25548">
        <ele>354</ele>
        <time>2016-05-04T16:45:30Z</time>
      </trkpt>
      <trkpt lat="44.12481" lon="2.25538">
        <ele>354.5</ele>
        <time>2016-05-04T16:45:38Z</time>
      </trkpt>
      <trkpt lat="44.12483" lon="2.25532">
        <ele>354.4</ele>
        <time>2016-05-04T16:45:43Z</time>
      </trkpt>
      <trkpt lat="44.12485" lon="2.25524">
        <ele>355.4</ele>
        <time>2016-05-04T16:45:48Z</time>
      </trkpt>
      <trkpt lat="44.12487" lon="2.25513">
        <ele>355.9</ele>
        <time>2016-05-04T16:45:54Z</time>
      </trkpt>
      <trkpt lat="44.12489" lon="2.2551">
        <ele>356.2</ele>
        <time>2016-05-04T16:45:56Z</time>
      </trkpt>
      <trkpt lat="44.12498" lon="2.25486">
        <ele>356.8</ele>
        <time>2016-05-04T16:46:12Z</time>
      </trkpt>
      <trkpt lat="44.12501" lon="2.25475">
        <ele>357.5</ele>
        <time>2016-05-04T16:46:19Z</time>
      </trkpt>
      <trkpt lat="44.12501" lon="2.25473">
        <ele>358</ele>
        <time>2016-05-04T16:46:20Z</time>
      </trkpt>
      <trkpt lat="44.12501" lon="2.25466">
        <ele>358.6</ele>
        <time>2016-05-04T16:46:25Z</time>
      </trkpt>
      <trkpt lat="44.125" lon="2.25465">
        <ele>358.8</ele>
        <time>2016-05-04T16:46:26Z</time>
      </trkpt>
      <trkpt lat="44.12497" lon="2.25456">
        <ele>359.4</ele>
        <time>2016-05-04T16:46:33Z</time>
      </trkpt>
      <trkpt lat="44.12494" lon="2.25449">
        <ele>359.4</ele>
        <time>2016-05-04T16:46:37Z</time>
      </trkpt>
      <trkpt lat="44.12494" lon="2.25447">
        <ele>359.2</ele>
        <time>2016-05-04T16:46:38Z</time>
      </trkpt>
      <trkpt lat="44.12489" lon="2.25424">
        <ele>359.4</ele>
        <time>2016-05-04T16:46:53Z</time>
      </trkpt>
      <trkpt lat="44.12486" lon="2.2541">
        <ele>361.4</ele>
        <time>2016-05-04T16:47:03Z</time>
      </trkpt>
      <trkpt lat="44.12486" lon="2.25408">
        <ele>361.7</ele>
        <time>2016-05-04T16:47:04Z</time>
      </trkpt>
      <trkpt lat="44.12487" lon="2.25403">
        <ele>362.3</ele>
        <time>2016-05-04T16:47:08Z</time>
      </trkpt>
      <trkpt lat="44.12487" lon="2.25387">
        <ele>364.2</ele>
        <time>2016-05-04T16:47:19Z</time>
      </trkpt>
      <trkpt lat="44.12487" lon="2.25386">
        <ele>364.5</ele>
        <time>2016-05-04T16:47:20Z</time>
      </trkpt>
      <trkpt lat="44.12486" lon="2.25385">
        <ele>364.8</ele>
        <time>2016-05-04T16:47:21Z</time>
      </trkpt>
      <trkpt lat="44.12486" lon="2.25383">
        <ele>364.9</ele>
        <time>2016-05-04T16:47:22Z</time>
      </trkpt>
      <trkpt lat="44.12481" lon="2.25356">
        <ele>369.2</ele>
        <time>2016-05-04T16:47:43Z</time>
      </trkpt>
      <trkpt lat="44.12481" lon="2.25354">
        <ele>369.1</ele>
        <time>2016-05-04T16:47:44Z</time>
      </trkpt>
      <trkpt lat="44.1248" lon="2.2535">
        <ele>369.2</ele>
        <time>2016-05-04T16:47:47Z</time>
      </trkpt>
      <trkpt lat="44.12474" lon="2.25321">
        <ele>371.1</ele>
        <time>2016-05-04T16:48:11Z</time>
      </trkpt>
      <trkpt lat="44.12473" lon="2.25319">
        <ele>371.4</ele>
        <time>2016-05-04T16:48:12Z</time>
      </trkpt>
      <trkpt lat="44.12472" lon="2.25318">
        <ele>371.6</ele>
        <time>2016-05-04T16:48:13Z</time>
      </trkpt>
      <trkpt lat="44.12471" lon="2.25316">
        <ele>371.5</ele>
        <time>2016-05-04T16:48:15Z</time>
      </trkpt>
      <trkpt lat="44.12466" lon="2.253">
        <ele>371.5</ele>
        <time>2016-05-04T16:48:26Z</time>
      </trkpt>
      <trkpt lat="44.12466" lon="2.25298">
        <ele>371.5</ele>
        <time>2016-05-04T16:48:27Z</time>
      </trkpt>
      <trkpt lat="44.12466" lon="2.25295">
        <ele>371.7</ele>
        <time>2016-05-04T16:48:29Z</time>
      </trkpt>
      <trkpt lat="44.12467" lon="2.25293">
        <ele>371.9</ele>
        <time>2016-05-04T16:48:30Z</time>
      </trkpt>
      <trkpt lat="44.12467" lon="2.25292">
        <ele>372</ele>
        <time>2016-05-04T16:48:31Z</time>
      </trkpt>
      <trkpt lat="44.12468" lon="2.2529">
        <ele>372.1</ele>
        <time>2016-05-04T16:48:32Z</time>
      </trkpt>
      <trkpt lat="44.12471" lon="2.25268">
        <ele>373.2</ele>
        <time>2016-05-04T16:48:46Z</time>
      </trkpt>
      <trkpt lat="44.12472" lon="2.25267">
        <ele>373.4</ele>
        <time>2016-05-04T16:48:47Z</time>
      </trkpt>
      <trkpt lat="44.12473" lon="2.25264">
        <ele>373.7</ele>
        <time>2016-05-04T16:48:49Z</time>
      </trkpt>
      <trkpt lat="44.12478" lon="2.25253">
        <ele>373.7</ele>
        <time>2016-05-04T16:48:57Z</time>
      </trkpt>
      <trkpt lat="44.12479" lon="2.25247">
        <ele>374.4</ele>
        <time>2016-05-04T16:49:02Z</time>
      </trkpt>
      <trkpt lat="44.1248" lon="2.25246">
        <ele>374.8</ele>
        <time>2016-05-04T16:49:03Z</time>
      </trkpt>
      <trkpt lat="44.12486" lon="2.25224">
        <ele>378.8</ele>
        <time>2016-05-04T16:49:24Z</time>
      </trkpt>
      <trkpt lat="44.12485" lon="2.25223">
        <ele>378.9</ele>
        <time>2016-05-04T16:49:25Z</time>
      </trkpt>
      <trkpt lat="44.12486" lon="2.25222">
        <ele>378.9</ele>
        <time>2016-05-04T16:49:26Z</time>
      </trkpt>
      <trkpt lat="44.12485" lon="2.25219">
        <ele>379.1</ele>
        <time>2016-05-04T16:49:29Z</time>
      </trkpt>
      <trkpt lat="44.12485" lon="2.25218">
        <ele>379.1</ele>
        <time>2016-05-04T16:49:30Z</time>
      </trkpt>
      <trkpt lat="44.12485" lon="2.252">
        <ele>383.1</ele>
        <time>2016-05-04T16:49:51Z</time>
      </trkpt>
      <trkpt lat="44.12485" lon="2.252">
        <ele>383.2</ele>
        <time>2016-05-04T16:49:52Z</time>
      </trkpt>
      <trkpt lat="44.12485" lon="2.252">
        <ele>383.2</ele>
        <time>2016-05-04T16:49:53Z</time>
      </trkpt>
      <trkpt lat="44.12484" lon="2.25199">
        <ele>383.3</ele>
        <time>2016-05-04T16:49:54Z</time>
      </trkpt>
      <trkpt lat="44.12484" lon="2.25199">
        <ele>383.3</ele>
        <time>2016-05-04T16:49:55Z</time>
      </trkpt>
      <trkpt lat="44.12484" lon="2.25198">
        <ele>383.6</ele>
        <time>2016-05-04T16:49:56Z</time>
      </trkpt>
      <trkpt lat="44.12484" lon="2.25197">
        <ele>383.8</ele>
        <time>2016-05-04T16:49:57Z</time>
      </trkpt>
      <trkpt lat="44.12484" lon="2.25197">
        <ele>383.9</ele>
        <time>2016-05-04T16:49:58Z</time>
      </trkpt>
      <trkpt lat="44.12484" lon="2.25196">
        <ele>384.2</ele>
        <time>2016-05-04T16:49:59Z</time>
      </trkpt>
      <trkpt lat="44.12483" lon="2.25196">
        <ele>384.5</ele>
        <time>2016-05-04T16:50:00Z</time>
      </trkpt>
      <trkpt lat="44.12483" lon="2.25195">
        <ele>384.7</ele>
        <time>2016-05-04T16:50:01Z</time>
      </trkpt>
      <trkpt lat="44.12483" lon="2.25195">
        <ele>384.8</ele>
        <time>2016-05-04T16:50:02Z</time>
      </trkpt>
      <trkpt lat="44.12482" lon="2.25195">
        <ele>384.9</ele>
        <time>2016-05-04T16:50:03Z</time>
      </trkpt>
      <trkpt lat="44.12482" lon="2.25194">
        <ele>385</ele>
        <time>2016-05-04T16:50:04Z</time>
      </trkpt>
      <trkpt lat="44.12461" lon="2.25179">
        <ele>390.5</ele>
        <time>2016-05-04T16:50:35Z</time>
      </trkpt>
      <trkpt lat="44.1246" lon="2.25179">
        <ele>390.7</ele>
        <time>2016-05-04T16:50:36Z</time>
      </trkpt>
      <trkpt lat="44.12453" lon="2.25174">
        <ele>391.6</ele>
        <time>2016-05-04T16:50:44Z</time>
      </trkpt>
      <trkpt lat="44.12437" lon="2.2516">
        <ele>395.4</ele>
        <time>2016-05-04T16:51:06Z</time>
      </trkpt>
      <trkpt lat="44.12436" lon="2.25159">
        <ele>395.6</ele>
        <time>2016-05-04T16:51:07Z</time>
      </trkpt>
      <trkpt lat="44.12431" lon="2.2515">
        <ele>396.5</ele>
        <time>2016-05-04T16:51:17Z</time>
      </trkpt>
      <trkpt lat="44.1243" lon="2.25149">
        <ele>396.8</ele>
        <time>2016-05-04T16:51:19Z</time>
      </trkpt>
      <trkpt lat="44.12426" lon="2.25136">
        <ele>400.1</ele>
        <time>2016-05-04T16:51:34Z</time>
      </trkpt>
      <trkpt lat="44.12417" lon="2.25116">
        <ele>403.3</ele>
        <time>2016-05-04T16:51:54Z</time>
      </trkpt>
      <trkpt lat="44.12416" lon="2.25115">
        <ele>403.5</ele>
        <time>2016-05-04T16:51:55Z</time>
      </trkpt>
      <trkpt lat="44.12416" lon="2.25113">
        <ele>403.7</ele>
        <time>2016-05-04T16:51:56Z</time>
      </trkpt>
      <trkpt lat="44.12416" lon="2.25112">
        <ele>403.8</ele>
        <time>2016-05-04T16:51:57Z</time>
      </trkpt>
      <trkpt lat="44.12415" lon="2.25111">
        <ele>403.8</ele>
        <time>2016-05-04T16:51:58Z</time>
      </trkpt>
      <trkpt lat="44.12415" lon="2.2511">
        <ele>404.1</ele>
        <time>2016-05-04T16:51:59Z</time>
      </trkpt>
      <trkpt lat="44.12406" lon="2.25065">
        <ele>409.2</ele>
        <time>2016-05-04T16:52:36Z</time>
      </trkpt>
      <trkpt lat="44.12406" lon="2.25062">
        <ele>409.4</ele>
        <time>2016-05-04T16:52:38Z</time>
      </trkpt>
      <trkpt lat="44.12403" lon="2.25056">
        <ele>409.5</ele>
        <time>2016-05-04T16:52:43Z</time>
      </trkpt>
      <trkpt lat="44.12398" lon="2.25037">
        <ele>411</ele>
        <time>2016-05-04T16:52:56Z</time>
      </trkpt>
      <trkpt lat="44.12397" lon="2.25036">
        <ele>411.2</ele>
        <time>2016-05-04T16:52:57Z</time>
      </trkpt>
      <trkpt lat="44.12396" lon="2.25028">
        <ele>411.7</ele>
        <time>2016-05-04T16:53:03Z</time>
      </trkpt>
      <trkpt lat="44.12394" lon="2.25019">
        <ele>413</ele>
        <time>2016-05-04T16:53:10Z</time>
      </trkpt>
      <trkpt lat="44.12394" lon="2.25018">
        <ele>413.2</ele>
        <time>2016-05-04T16:53:11Z</time>
      </trkpt>
      <trkpt lat="44.12384" lon="2.25">
        <ele>414.2</ele>
        <time>2016-05-04T16:53:25Z</time>
      </trkpt>
      <trkpt lat="44.12379" lon="2.24988">
        <ele>414.1</ele>
        <time>2016-05-04T16:53:33Z</time>
      </trkpt>
      <trkpt lat="44.12376" lon="2.24979">
        <ele>414.5</ele>
        <time>2016-05-04T16:53:39Z</time>
      </trkpt>
      <trkpt lat="44.12375" lon="2.24975">
        <ele>414.8</ele>
        <time>2016-05-04T16:53:41Z</time>
      </trkpt>
      <trkpt lat="44.12374" lon="2.24967">
        <ele>415.7</ele>
        <time>2016-05-04T16:53:46Z</time>
      </trkpt>
      <trkpt lat="44.12374" lon="2.24963">
        <ele>416</ele>
        <time>2016-05-04T16:53:49Z</time>
      </trkpt>
      <trkpt lat="44.12375" lon="2.24951">
        <ele>417.7</ele>
        <time>2016-05-04T16:53:59Z</time>
      </trkpt>
      <trkpt lat="44.12375" lon="2.2495">
        <ele>417.7</ele>
        <time>2016-05-04T16:54:00Z</time>
      </trkpt>
      <trkpt lat="44.12377" lon="2.24936">
        <ele>419.9</ele>
        <time>2016-05-04T16:54:12Z</time>
      </trkpt>
      <trkpt lat="44.124" lon="2.24818">
        <ele>433.5</ele>
        <time>2016-05-04T16:55:48Z</time>
      </trkpt>
      <trkpt lat="44.124" lon="2.24817">
        <ele>433.5</ele>
        <time>2016-05-04T16:55:49Z</time>
      </trkpt>
      <trkpt lat="44.12401" lon="2.24813">
        <ele>433.9</ele>
        <time>2016-05-04T16:55:52Z</time>
      </trkpt>
      <trkpt lat="44.12407" lon="2.24793">
        <ele>435.8</ele>
        <time>2016-05-04T16:56:06Z</time>
      </trkpt>
      <trkpt lat="44.12409" lon="2.24782">
        <ele>435.5</ele>
        <time>2016-05-04T16:56:13Z</time>
      </trkpt>
      <trkpt lat="44.12409" lon="2.24777">
        <ele>435.8</ele>
        <time>2016-05-04T16:56:16Z</time>
      </trkpt>
      <trkpt lat="44.12409" lon="2.24775">
        <ele>435.8</ele>
        <time>2016-05-04T16:56:17Z</time>
      </trkpt>
      <trkpt lat="44.12408" lon="2.24772">
        <ele>435.9</ele>
        <time>2016-05-04T16:56:19Z</time>
      </trkpt>
      <trkpt lat="44.124" lon="2.24751">
        <ele>436</ele>
        <time>2016-05-04T16:56:33Z</time>
      </trkpt>
      <trkpt lat="44.12394" lon="2.24741">
        <ele>436</ele>
        <time>2016-05-04T16:56:40Z</time>
      </trkpt>
      <trkpt lat="44.12349" lon="2.24648">
        <ele>436.9</ele>
        <time>2016-05-04T16:57:42Z</time>
      </trkpt>
      <trkpt lat="44.12349" lon="2.24647">
        <ele>436.9</ele>
        <time>2016-05-04T16:57:43Z</time>
      </trkpt>
      <trkpt lat="44.12327" lon="2.24599">
        <ele>436.6</ele>
        <time>2016-05-04T16:58:13Z</time>
      </trkpt>
      <trkpt lat="44.12323" lon="2.24586">
        <ele>436.5</ele>
        <time>2016-05-04T16:58:21Z</time>
      </trkpt>
      <trkpt lat="44.12321" lon="2.24572">
        <ele>436.7</ele>
        <time>2016-05-04T16:58:29Z</time>
      </trkpt>
      <trkpt lat="44.12321" lon="2.24563">
        <ele>436.8</ele>
        <time>2016-05-04T16:58:34Z</time>
      </trkpt>
      <trkpt lat="44.12319" lon="2.2454">
        <ele>437</ele>
        <time>2016-05-04T16:58:47Z</time>
      </trkpt>
      <trkpt lat="44.12319" lon="2.24538">
        <ele>436.9</ele>
        <time>2016-05-04T16:58:48Z</time>
      </trkpt>
      <trkpt lat="44.12317" lon="2.24521">
        <ele>436.8</ele>
        <time>2016-05-04T16:58:58Z</time>
      </trkpt>
      <trkpt lat="44.12315" lon="2.24502">
        <ele>436.4</ele>
        <time>2016-05-04T16:59:09Z</time>
      </trkpt>
      <trkpt lat="44.12312" lon="2.24481">
        <ele>437</ele>
        <time>2016-05-04T16:59:21Z</time>
      </trkpt>
      <trkpt lat="44.12308" lon="2.24446">
        <ele>436.2</ele>
        <time>2016-05-04T16:59:41Z</time>
      </trkpt>
      <trkpt lat="44.12308" lon="2.24444">
        <ele>436.4</ele>
        <time>2016-05-04T16:59:42Z</time>
      </trkpt>
      <trkpt lat="44.12308" lon="2.24442">
        <ele>436.5</ele>
        <time>2016-05-04T16:59:43Z</time>
      </trkpt>
      <trkpt lat="44.12309" lon="2.2444">
        <ele>436.4</ele>
        <time>2016-05-04T16:59:44Z</time>
      </trkpt>
      <trkpt lat="44.12309" lon="2.24439">
        <ele>436.3</ele>
        <time>2016-05-04T16:59:45Z</time>
      </trkpt>
      <trkpt lat="44.12311" lon="2.2443">
        <ele>435.2</ele>
        <time>2016-05-04T16:59:50Z</time>
      </trkpt>
      <trkpt lat="44.12311" lon="2.24429">
        <ele>435</ele>
        <time>2016-05-04T16:59:51Z</time>
      </trkpt>
      <trkpt lat="44.12309" lon="2.2442">
        <ele>435.4</ele>
        <time>2016-05-04T16:59:57Z</time>
      </trkpt>
      <trkpt lat="44.12308" lon="2.24417">
        <ele>435.7</ele>
        <time>2016-05-04T16:59:59Z</time>
      </trkpt>
      <trkpt lat="44.12306" lon="2.24413">
        <ele>436.1</ele>
        <time>2016-05-04T17:00:02Z</time>
      </trkpt>
      <trkpt lat="44.12304" lon="2.2441">
        <ele>436.1</ele>
        <time>2016-05-04T17:00:05Z</time>
      </trkpt>
      <trkpt lat="44.123" lon="2.24406">
        <ele>435.8</ele>
        <time>2016-05-04T17:00:10Z</time>
      </trkpt>
      <trkpt lat="44.12297" lon="2.24403">
        <ele>435.4</ele>
        <time>2016-05-04T17:00:13Z</time>
      </trkpt>
      <trkpt lat="44.12294" lon="2.24402">
        <ele>435.2</ele>
        <time>2016-05-04T17:00:16Z</time>
      </trkpt>
      <trkpt lat="44.12281" lon="2.24393">
        <ele>435.1</ele>
        <time>2016-05-04T17:00:30Z</time>
      </trkpt>
      <trkpt lat="44.12281" lon="2.24393">
        <ele>435.1</ele>
        <time>2016-05-04T17:00:31Z</time>
      </trkpt>
      <trkpt lat="44.1228" lon="2.24393">
        <ele>435.3</ele>
        <time>2016-05-04T17:00:32Z</time>
      </trkpt>
      <trkpt lat="44.12281" lon="2.24393">
        <ele>435.5</ele>
        <time>2016-05-04T17:00:33Z</time>
      </trkpt>
      <trkpt lat="44.12281" lon="2.24393">
        <ele>435.6</ele>
        <time>2016-05-04T17:00:34Z</time>
      </trkpt>
      <trkpt lat="44.12281" lon="2.24393">
        <ele>435.3</ele>
        <time>2016-05-04T17:00:35Z</time>
      </trkpt>
      <trkpt lat="44.12281" lon="2.24393">
        <ele>435</ele>
        <time>2016-05-04T17:00:36Z</time>
      </trkpt>
      <trkpt lat="44.12281" lon="2.24393">
        <ele>434.8</ele>
        <time>2016-05-04T17:00:37Z</time>
      </trkpt>
      <trkpt lat="44.12281" lon="2.24394">
        <ele>434.9</ele>
        <time>2016-05-04T17:00:38Z</time>
      </trkpt>
      <trkpt lat="44.12281" lon="2.24393">
        <ele>435</ele>
        <time>2016-05-04T17:00:39Z</time>
      </trkpt>
      <trkpt lat="44.12281" lon="2.24394">
        <ele>435</ele>
        <time>2016-05-04T17:00:40Z</time>
      </trkpt>
      <trkpt lat="44.12281" lon="2.24394">
        <ele>435</ele>
        <time>2016-05-04T17:00:41Z</time>
      </trkpt>
      <trkpt lat="44.12281" lon="2.24394">
        <ele>435</ele>
        <time>2016-05-04T17:00:42Z</time>
      </trkpt>
      <trkpt lat="44.12281" lon="2.24394">
        <ele>435.1</ele>
        <time>2016-05-04T17:00:43Z</time>
      </trkpt>
      <trkpt lat="44.12281" lon="2.24394">
        <ele>435.1</ele>
        <time>2016-05-04T17:00:44Z</time>
      </trkpt>
      <trkpt lat="44.12281" lon="2.24394">
        <ele>435.1</ele>
        <time>2016-05-04T17:00:45Z</time>
      </trkpt>
      <trkpt lat="44.12281" lon="2.24394">
        <ele>435.1</ele>
        <time>2016-05-04T17:00:46Z</time>
      </trkpt>
      <trkpt lat="44.12281" lon="2.24394">
        <ele>435.5</ele>
        <time>2016-05-04T17:00:47Z</time>
      </trkpt>
      <trkpt lat="44.12281" lon="2.24394">
        <ele>435.9</ele>
        <time>2016-05-04T17:00:48Z</time>
      </trkpt>
      <trkpt lat="44.12281" lon="2.24394">
        <ele>436.1</ele>
        <time>2016-05-04T17:00:49Z</time>
      </trkpt>
      <trkpt lat="44.12281" lon="2.24393">
        <ele>432.2</ele>
        <time>2016-05-04T17:00:50Z</time>
      </trkpt>
      <trkpt lat="44.12281" lon="2.24393">
        <ele>432.1</ele>
        <time>2016-05-04T17:00:56Z</time>
      </trkpt>
      <trkpt lat="44.12281" lon="2.24393">
        <ele>432.4</ele>
        <time>2016-05-04T17:00:57Z</time>
      </trkpt>
      <trkpt lat="44.12281" lon="2.24395">
        <ele>432.2</ele>
        <time>2016-05-04T17:01:09Z</time>
      </trkpt>
    </trkseg>
  </trk>
</gpx>